<?xml version="1.0" encoding="UTF-8" standalone="no" ?>
<gpx xmlns="http://www.topografix.com/GPX/1/1" xmlns:xsi="http://www.w3.org/2001/XMLSchema-instance" xsi:schemaLocation="http://www.topografix.com/GPX/1/1 http://www.topografix.com/GPX/1/1/gpx.xsd" version="1.1" creator="VisuGPX - https://www.visugpx.com">
  <metadata>
    <name>Rando Coursac 2024</name>
  </metadata>
  <trk>
    <name><![CDATA[Rando Coursac 2024_1]]></name>
    <trkseg>
      <trkpt lat="45.12823" lon="0.63892">
        <ele>158.8</ele>
        <time>2024-04-14T06:49:44Z</time>
      </trkpt>
      <trkpt lat="45.12822" lon="0.63886">
        <ele>158.5</ele>
        <time>2024-04-14T06:49:45Z</time>
      </trkpt>
      <trkpt lat="45.1282" lon="0.6388">
        <ele>158.2</ele>
        <time>2024-04-14T06:49:46Z</time>
      </trkpt>
      <trkpt lat="45.12818" lon="0.63873">
        <ele>158</ele>
        <time>2024-04-14T06:49:47Z</time>
      </trkpt>
      <trkpt lat="45.12816" lon="0.63867">
        <ele>157.7</ele>
        <time>2024-04-14T06:49:48Z</time>
      </trkpt>
      <trkpt lat="45.12815" lon="0.63861">
        <ele>157.5</ele>
        <time>2024-04-14T06:49:49Z</time>
      </trkpt>
      <trkpt lat="45.12813" lon="0.63856">
        <ele>157.1</ele>
        <time>2024-04-14T06:49:50Z</time>
      </trkpt>
      <trkpt lat="45.12812" lon="0.63846">
        <ele>156.6</ele>
        <time>2024-04-14T06:49:52Z</time>
      </trkpt>
      <trkpt lat="45.12814" lon="0.63837">
        <ele>156</ele>
        <time>2024-04-14T06:49:54Z</time>
      </trkpt>
      <trkpt lat="45.12816" lon="0.63834">
        <ele>154.7</ele>
        <time>2024-04-14T06:49:55Z</time>
      </trkpt>
      <trkpt lat="45.1282" lon="0.63831">
        <ele>154.3</ele>
        <time>2024-04-14T06:49:56Z</time>
      </trkpt>
      <trkpt lat="45.12823" lon="0.63829">
        <ele>153.9</ele>
        <time>2024-04-14T06:49:57Z</time>
      </trkpt>
      <trkpt lat="45.12827" lon="0.63827">
        <ele>153.5</ele>
        <time>2024-04-14T06:49:58Z</time>
      </trkpt>
      <trkpt lat="45.1283" lon="0.63825">
        <ele>153.2</ele>
        <time>2024-04-14T06:49:59Z</time>
      </trkpt>
      <trkpt lat="45.12834" lon="0.63822">
        <ele>152.8</ele>
        <time>2024-04-14T06:50:00Z</time>
      </trkpt>
      <trkpt lat="45.12841" lon="0.63817">
        <ele>152.2</ele>
        <time>2024-04-14T06:50:02Z</time>
      </trkpt>
      <trkpt lat="45.12849" lon="0.63811">
        <ele>151.6</ele>
        <time>2024-04-14T06:50:04Z</time>
      </trkpt>
      <trkpt lat="45.12857" lon="0.63805">
        <ele>150.9</ele>
        <time>2024-04-14T06:50:06Z</time>
      </trkpt>
      <trkpt lat="45.12861" lon="0.63801">
        <ele>150.6</ele>
        <time>2024-04-14T06:50:07Z</time>
      </trkpt>
      <trkpt lat="45.12865" lon="0.63797">
        <ele>150.3</ele>
        <time>2024-04-14T06:50:08Z</time>
      </trkpt>
      <trkpt lat="45.12873" lon="0.63788">
        <ele>149.8</ele>
        <time>2024-04-14T06:50:10Z</time>
      </trkpt>
      <trkpt lat="45.12877" lon="0.63783">
        <ele>149.6</ele>
        <time>2024-04-14T06:50:11Z</time>
      </trkpt>
      <trkpt lat="45.1288" lon="0.63778">
        <ele>149.4</ele>
        <time>2024-04-14T06:50:12Z</time>
      </trkpt>
      <trkpt lat="45.12884" lon="0.63772">
        <ele>149.3</ele>
        <time>2024-04-14T06:50:13Z</time>
      </trkpt>
      <trkpt lat="45.12886" lon="0.63765">
        <ele>149.2</ele>
        <time>2024-04-14T06:50:14Z</time>
      </trkpt>
      <trkpt lat="45.12888" lon="0.63758">
        <ele>149.2</ele>
        <time>2024-04-14T06:50:15Z</time>
      </trkpt>
      <trkpt lat="45.1289" lon="0.63751">
        <ele>149.2</ele>
        <time>2024-04-14T06:50:16Z</time>
      </trkpt>
      <trkpt lat="45.12893" lon="0.63737">
        <ele>149.2</ele>
        <time>2024-04-14T06:50:18Z</time>
      </trkpt>
      <trkpt lat="45.12896" lon="0.63731">
        <ele>149.3</ele>
        <time>2024-04-14T06:50:19Z</time>
      </trkpt>
      <trkpt lat="45.12898" lon="0.63725">
        <ele>149.5</ele>
        <time>2024-04-14T06:50:20Z</time>
      </trkpt>
      <trkpt lat="45.129" lon="0.63719">
        <ele>149.7</ele>
        <time>2024-04-14T06:50:21Z</time>
      </trkpt>
      <trkpt lat="45.12902" lon="0.63715">
        <ele>149.9</ele>
        <time>2024-04-14T06:50:22Z</time>
      </trkpt>
      <trkpt lat="45.12904" lon="0.63712">
        <ele>150.1</ele>
        <time>2024-04-14T06:50:23Z</time>
      </trkpt>
      <trkpt lat="45.12904" lon="0.63709">
        <ele>150.3</ele>
        <time>2024-04-14T06:50:24Z</time>
      </trkpt>
      <trkpt lat="45.12906" lon="0.63704">
        <ele>150.5</ele>
        <time>2024-04-14T06:50:26Z</time>
      </trkpt>
      <trkpt lat="45.12908" lon="0.63701">
        <ele>150.8</ele>
        <time>2024-04-14T06:50:28Z</time>
      </trkpt>
      <trkpt lat="45.12908" lon="0.63699">
        <ele>150.9</ele>
        <time>2024-04-14T06:50:29Z</time>
      </trkpt>
      <trkpt lat="45.12908" lon="0.63697">
        <ele>151.1</ele>
        <time>2024-04-14T06:50:30Z</time>
      </trkpt>
      <trkpt lat="45.12907" lon="0.63693">
        <ele>151.4</ele>
        <time>2024-04-14T06:50:32Z</time>
      </trkpt>
      <trkpt lat="45.12909" lon="0.63692">
        <ele>151.6</ele>
        <time>2024-04-14T06:50:34Z</time>
      </trkpt>
      <trkpt lat="45.12911" lon="0.63692">
        <ele>151.9</ele>
        <time>2024-04-14T06:50:35Z</time>
      </trkpt>
      <trkpt lat="45.12913" lon="0.63691">
        <ele>152.2</ele>
        <time>2024-04-14T06:50:36Z</time>
      </trkpt>
      <trkpt lat="45.12915" lon="0.63689">
        <ele>152.5</ele>
        <time>2024-04-14T06:50:37Z</time>
      </trkpt>
      <trkpt lat="45.12916" lon="0.63688">
        <ele>152.7</ele>
        <time>2024-04-14T06:50:38Z</time>
      </trkpt>
      <trkpt lat="45.12916" lon="0.63688">
        <ele>152.7</ele>
        <time>2024-04-14T06:50:39Z</time>
      </trkpt>
      <trkpt lat="45.12916" lon="0.63688">
        <ele>152.7</ele>
        <time>2024-04-14T06:50:40Z</time>
      </trkpt>
      <trkpt lat="45.12917" lon="0.63686">
        <ele>153</ele>
        <time>2024-04-14T06:50:42Z</time>
      </trkpt>
      <trkpt lat="45.12919" lon="0.63684">
        <ele>153.3</ele>
        <time>2024-04-14T06:50:44Z</time>
      </trkpt>
      <trkpt lat="45.1292" lon="0.63683">
        <ele>153.5</ele>
        <time>2024-04-14T06:50:45Z</time>
      </trkpt>
      <trkpt lat="45.1292" lon="0.63682">
        <ele>153.7</ele>
        <time>2024-04-14T06:50:46Z</time>
      </trkpt>
      <trkpt lat="45.12922" lon="0.63681">
        <ele>153.9</ele>
        <time>2024-04-14T06:50:47Z</time>
      </trkpt>
      <trkpt lat="45.12934" lon="0.63666">
        <ele>157.2</ele>
        <time>2024-04-14T06:51:02Z</time>
      </trkpt>
      <trkpt lat="45.12937" lon="0.63664">
        <ele>157.9</ele>
        <time>2024-04-14T06:51:03Z</time>
      </trkpt>
      <trkpt lat="45.1294" lon="0.63663">
        <ele>158.6</ele>
        <time>2024-04-14T06:51:04Z</time>
      </trkpt>
      <trkpt lat="45.12944" lon="0.63662">
        <ele>159.5</ele>
        <time>2024-04-14T06:51:06Z</time>
      </trkpt>
      <trkpt lat="45.12948" lon="0.6366">
        <ele>160.5</ele>
        <time>2024-04-14T06:51:08Z</time>
      </trkpt>
      <trkpt lat="45.12949" lon="0.63659">
        <ele>160.8</ele>
        <time>2024-04-14T06:51:09Z</time>
      </trkpt>
      <trkpt lat="45.1303" lon="0.63617">
        <ele>179.7</ele>
        <time>2024-04-14T06:53:12Z</time>
      </trkpt>
      <trkpt lat="45.13033" lon="0.63616">
        <ele>180.1</ele>
        <time>2024-04-14T06:53:14Z</time>
      </trkpt>
      <trkpt lat="45.13052" lon="0.63611">
        <ele>182.4</ele>
        <time>2024-04-14T06:53:32Z</time>
      </trkpt>
      <trkpt lat="45.13056" lon="0.63612">
        <ele>182.7</ele>
        <time>2024-04-14T06:53:34Z</time>
      </trkpt>
      <trkpt lat="45.13058" lon="0.63613">
        <ele>182.8</ele>
        <time>2024-04-14T06:53:35Z</time>
      </trkpt>
      <trkpt lat="45.1306" lon="0.63613">
        <ele>182.9</ele>
        <time>2024-04-14T06:53:36Z</time>
      </trkpt>
      <trkpt lat="45.13065" lon="0.63612">
        <ele>183.2</ele>
        <time>2024-04-14T06:53:38Z</time>
      </trkpt>
      <trkpt lat="45.13067" lon="0.63612">
        <ele>183.3</ele>
        <time>2024-04-14T06:53:39Z</time>
      </trkpt>
      <trkpt lat="45.13068" lon="0.63612">
        <ele>183.4</ele>
        <time>2024-04-14T06:53:40Z</time>
      </trkpt>
      <trkpt lat="45.13072" lon="0.63612">
        <ele>183.7</ele>
        <time>2024-04-14T06:53:42Z</time>
      </trkpt>
      <trkpt lat="45.13076" lon="0.63612">
        <ele>184</ele>
        <time>2024-04-14T06:53:44Z</time>
      </trkpt>
      <trkpt lat="45.13077" lon="0.63612">
        <ele>184</ele>
        <time>2024-04-14T06:53:45Z</time>
      </trkpt>
      <trkpt lat="45.13079" lon="0.63612">
        <ele>184.1</ele>
        <time>2024-04-14T06:53:46Z</time>
      </trkpt>
      <trkpt lat="45.13082" lon="0.63612">
        <ele>184.3</ele>
        <time>2024-04-14T06:53:48Z</time>
      </trkpt>
      <trkpt lat="45.13083" lon="0.63611">
        <ele>184.5</ele>
        <time>2024-04-14T06:53:49Z</time>
      </trkpt>
      <trkpt lat="45.13084" lon="0.63611">
        <ele>184.6</ele>
        <time>2024-04-14T06:53:50Z</time>
      </trkpt>
      <trkpt lat="45.13086" lon="0.63611">
        <ele>184.7</ele>
        <time>2024-04-14T06:53:52Z</time>
      </trkpt>
      <trkpt lat="45.13087" lon="0.63611">
        <ele>184.8</ele>
        <time>2024-04-14T06:53:53Z</time>
      </trkpt>
      <trkpt lat="45.13089" lon="0.63611">
        <ele>184.9</ele>
        <time>2024-04-14T06:53:54Z</time>
      </trkpt>
      <trkpt lat="45.13091" lon="0.6361">
        <ele>185.1</ele>
        <time>2024-04-14T06:53:56Z</time>
      </trkpt>
      <trkpt lat="45.13092" lon="0.63609">
        <ele>185.2</ele>
        <time>2024-04-14T06:53:57Z</time>
      </trkpt>
      <trkpt lat="45.13093" lon="0.63607">
        <ele>185.4</ele>
        <time>2024-04-14T06:53:58Z</time>
      </trkpt>
      <trkpt lat="45.13096" lon="0.63603">
        <ele>185.8</ele>
        <time>2024-04-14T06:54:00Z</time>
      </trkpt>
      <trkpt lat="45.13098" lon="0.63599">
        <ele>186.1</ele>
        <time>2024-04-14T06:54:02Z</time>
      </trkpt>
      <trkpt lat="45.13099" lon="0.63597">
        <ele>186.3</ele>
        <time>2024-04-14T06:54:03Z</time>
      </trkpt>
      <trkpt lat="45.13105" lon="0.63597">
        <ele>186.8</ele>
        <time>2024-04-14T06:54:04Z</time>
      </trkpt>
      <trkpt lat="45.13115" lon="0.63596">
        <ele>187.1</ele>
        <time>2024-04-14T06:54:08Z</time>
      </trkpt>
      <trkpt lat="45.13117" lon="0.63596">
        <ele>187.2</ele>
        <time>2024-04-14T06:54:09Z</time>
      </trkpt>
      <trkpt lat="45.13118" lon="0.63596">
        <ele>187.2</ele>
        <time>2024-04-14T06:54:10Z</time>
      </trkpt>
      <trkpt lat="45.13124" lon="0.63596">
        <ele>187.2</ele>
        <time>2024-04-14T06:54:12Z</time>
      </trkpt>
      <trkpt lat="45.13127" lon="0.63596">
        <ele>187.2</ele>
        <time>2024-04-14T06:54:13Z</time>
      </trkpt>
      <trkpt lat="45.13129" lon="0.63595">
        <ele>187.1</ele>
        <time>2024-04-14T06:54:14Z</time>
      </trkpt>
      <trkpt lat="45.1313" lon="0.63595">
        <ele>187.1</ele>
        <time>2024-04-14T06:54:16Z</time>
      </trkpt>
      <trkpt lat="45.13133" lon="0.63593">
        <ele>187</ele>
        <time>2024-04-14T06:54:18Z</time>
      </trkpt>
      <trkpt lat="45.13138" lon="0.63591">
        <ele>186.9</ele>
        <time>2024-04-14T06:54:20Z</time>
      </trkpt>
      <trkpt lat="45.1314" lon="0.6359">
        <ele>186.9</ele>
        <time>2024-04-14T06:54:22Z</time>
      </trkpt>
      <trkpt lat="45.13141" lon="0.63586">
        <ele>186.8</ele>
        <time>2024-04-14T06:54:24Z</time>
      </trkpt>
      <trkpt lat="45.1314" lon="0.63582">
        <ele>186.7</ele>
        <time>2024-04-14T06:54:26Z</time>
      </trkpt>
      <trkpt lat="45.1314" lon="0.63576">
        <ele>186.7</ele>
        <time>2024-04-14T06:54:28Z</time>
      </trkpt>
      <trkpt lat="45.13142" lon="0.6357">
        <ele>186.7</ele>
        <time>2024-04-14T06:54:30Z</time>
      </trkpt>
      <trkpt lat="45.13142" lon="0.63564">
        <ele>186.8</ele>
        <time>2024-04-14T06:54:32Z</time>
      </trkpt>
      <trkpt lat="45.13142" lon="0.63561">
        <ele>186.8</ele>
        <time>2024-04-14T06:54:33Z</time>
      </trkpt>
      <trkpt lat="45.13141" lon="0.63558">
        <ele>186.9</ele>
        <time>2024-04-14T06:54:34Z</time>
      </trkpt>
      <trkpt lat="45.13143" lon="0.63555">
        <ele>187</ele>
        <time>2024-04-14T06:54:35Z</time>
      </trkpt>
      <trkpt lat="45.13145" lon="0.63551">
        <ele>187.2</ele>
        <time>2024-04-14T06:54:36Z</time>
      </trkpt>
      <trkpt lat="45.13147" lon="0.63547">
        <ele>187.4</ele>
        <time>2024-04-14T06:54:38Z</time>
      </trkpt>
      <trkpt lat="45.13153" lon="0.63539">
        <ele>187.9</ele>
        <time>2024-04-14T06:54:40Z</time>
      </trkpt>
      <trkpt lat="45.1316" lon="0.63535">
        <ele>188.3</ele>
        <time>2024-04-14T06:54:42Z</time>
      </trkpt>
      <trkpt lat="45.13165" lon="0.63529">
        <ele>188.7</ele>
        <time>2024-04-14T06:54:44Z</time>
      </trkpt>
      <trkpt lat="45.13165" lon="0.63526">
        <ele>188.8</ele>
        <time>2024-04-14T06:54:45Z</time>
      </trkpt>
      <trkpt lat="45.13165" lon="0.63524">
        <ele>188.9</ele>
        <time>2024-04-14T06:54:46Z</time>
      </trkpt>
      <trkpt lat="45.13165" lon="0.63521">
        <ele>189</ele>
        <time>2024-04-14T06:54:47Z</time>
      </trkpt>
      <trkpt lat="45.13164" lon="0.63518">
        <ele>189.2</ele>
        <time>2024-04-14T06:54:48Z</time>
      </trkpt>
      <trkpt lat="45.13163" lon="0.63515">
        <ele>189.4</ele>
        <time>2024-04-14T06:54:49Z</time>
      </trkpt>
      <trkpt lat="45.13162" lon="0.63512">
        <ele>189.5</ele>
        <time>2024-04-14T06:54:50Z</time>
      </trkpt>
      <trkpt lat="45.1316" lon="0.63509">
        <ele>189.7</ele>
        <time>2024-04-14T06:54:52Z</time>
      </trkpt>
      <trkpt lat="45.1316" lon="0.63505">
        <ele>189.9</ele>
        <time>2024-04-14T06:54:54Z</time>
      </trkpt>
      <trkpt lat="45.13161" lon="0.63499">
        <ele>190.2</ele>
        <time>2024-04-14T06:54:56Z</time>
      </trkpt>
      <trkpt lat="45.13161" lon="0.63494">
        <ele>190.4</ele>
        <time>2024-04-14T06:54:58Z</time>
      </trkpt>
      <trkpt lat="45.13164" lon="0.63487">
        <ele>190.8</ele>
        <time>2024-04-14T06:55:00Z</time>
      </trkpt>
      <trkpt lat="45.13168" lon="0.63478">
        <ele>191</ele>
        <time>2024-04-14T06:55:02Z</time>
      </trkpt>
      <trkpt lat="45.1317" lon="0.63471">
        <ele>191</ele>
        <time>2024-04-14T06:55:03Z</time>
      </trkpt>
      <trkpt lat="45.13171" lon="0.63465">
        <ele>190.9</ele>
        <time>2024-04-14T06:55:04Z</time>
      </trkpt>
      <trkpt lat="45.13174" lon="0.63453">
        <ele>190.6</ele>
        <time>2024-04-14T06:55:06Z</time>
      </trkpt>
      <trkpt lat="45.13175" lon="0.63442">
        <ele>190.3</ele>
        <time>2024-04-14T06:55:08Z</time>
      </trkpt>
      <trkpt lat="45.13174" lon="0.6343">
        <ele>190</ele>
        <time>2024-04-14T06:55:10Z</time>
      </trkpt>
      <trkpt lat="45.13172" lon="0.63419">
        <ele>190.1</ele>
        <time>2024-04-14T06:55:12Z</time>
      </trkpt>
      <trkpt lat="45.13171" lon="0.63414">
        <ele>190.1</ele>
        <time>2024-04-14T06:55:13Z</time>
      </trkpt>
      <trkpt lat="45.13169" lon="0.6341">
        <ele>190.2</ele>
        <time>2024-04-14T06:55:14Z</time>
      </trkpt>
      <trkpt lat="45.13167" lon="0.634">
        <ele>190.3</ele>
        <time>2024-04-14T06:55:16Z</time>
      </trkpt>
      <trkpt lat="45.13166" lon="0.63395">
        <ele>190.4</ele>
        <time>2024-04-14T06:55:17Z</time>
      </trkpt>
      <trkpt lat="45.13166" lon="0.63391">
        <ele>190.5</ele>
        <time>2024-04-14T06:55:18Z</time>
      </trkpt>
      <trkpt lat="45.13163" lon="0.63382">
        <ele>190.7</ele>
        <time>2024-04-14T06:55:20Z</time>
      </trkpt>
      <trkpt lat="45.1316" lon="0.63374">
        <ele>190.9</ele>
        <time>2024-04-14T06:55:22Z</time>
      </trkpt>
      <trkpt lat="45.13158" lon="0.63369">
        <ele>190.9</ele>
        <time>2024-04-14T06:55:23Z</time>
      </trkpt>
      <trkpt lat="45.13157" lon="0.63364">
        <ele>191</ele>
        <time>2024-04-14T06:55:24Z</time>
      </trkpt>
      <trkpt lat="45.13158" lon="0.63354">
        <ele>191.1</ele>
        <time>2024-04-14T06:55:26Z</time>
      </trkpt>
      <trkpt lat="45.13159" lon="0.63348">
        <ele>191.2</ele>
        <time>2024-04-14T06:55:27Z</time>
      </trkpt>
      <trkpt lat="45.13159" lon="0.63341">
        <ele>191.2</ele>
        <time>2024-04-14T06:55:28Z</time>
      </trkpt>
      <trkpt lat="45.13161" lon="0.63328">
        <ele>191.1</ele>
        <time>2024-04-14T06:55:30Z</time>
      </trkpt>
      <trkpt lat="45.1316" lon="0.63316">
        <ele>191</ele>
        <time>2024-04-14T06:55:32Z</time>
      </trkpt>
      <trkpt lat="45.1316" lon="0.63303">
        <ele>190.8</ele>
        <time>2024-04-14T06:55:34Z</time>
      </trkpt>
      <trkpt lat="45.13158" lon="0.63289">
        <ele>190.7</ele>
        <time>2024-04-14T06:55:36Z</time>
      </trkpt>
      <trkpt lat="45.13153" lon="0.63276">
        <ele>190.8</ele>
        <time>2024-04-14T06:55:38Z</time>
      </trkpt>
      <trkpt lat="45.13148" lon="0.63267">
        <ele>191.1</ele>
        <time>2024-04-14T06:55:40Z</time>
      </trkpt>
      <trkpt lat="45.13144" lon="0.63255">
        <ele>191.6</ele>
        <time>2024-04-14T06:55:42Z</time>
      </trkpt>
      <trkpt lat="45.13141" lon="0.63245">
        <ele>192.2</ele>
        <time>2024-04-14T06:55:44Z</time>
      </trkpt>
      <trkpt lat="45.13136" lon="0.63234">
        <ele>192.7</ele>
        <time>2024-04-14T06:55:46Z</time>
      </trkpt>
      <trkpt lat="45.13131" lon="0.63223">
        <ele>193.1</ele>
        <time>2024-04-14T06:55:48Z</time>
      </trkpt>
      <trkpt lat="45.13129" lon="0.63212">
        <ele>193.4</ele>
        <time>2024-04-14T06:55:50Z</time>
      </trkpt>
      <trkpt lat="45.13126" lon="0.63199">
        <ele>193.6</ele>
        <time>2024-04-14T06:55:52Z</time>
      </trkpt>
      <trkpt lat="45.13125" lon="0.63186">
        <ele>193.5</ele>
        <time>2024-04-14T06:55:54Z</time>
      </trkpt>
      <trkpt lat="45.13124" lon="0.63179">
        <ele>193.4</ele>
        <time>2024-04-14T06:55:55Z</time>
      </trkpt>
      <trkpt lat="45.13123" lon="0.63172">
        <ele>193.2</ele>
        <time>2024-04-14T06:55:56Z</time>
      </trkpt>
      <trkpt lat="45.13121" lon="0.6316">
        <ele>192.8</ele>
        <time>2024-04-14T06:55:58Z</time>
      </trkpt>
      <trkpt lat="45.13121" lon="0.6315">
        <ele>192.4</ele>
        <time>2024-04-14T06:56:00Z</time>
      </trkpt>
      <trkpt lat="45.13123" lon="0.63147">
        <ele>192.1</ele>
        <time>2024-04-14T06:56:01Z</time>
      </trkpt>
      <trkpt lat="45.13125" lon="0.63142">
        <ele>191.5</ele>
        <time>2024-04-14T06:56:02Z</time>
      </trkpt>
      <trkpt lat="45.13134" lon="0.63135">
        <ele>190.6</ele>
        <time>2024-04-14T06:56:04Z</time>
      </trkpt>
      <trkpt lat="45.13146" lon="0.63128">
        <ele>189.5</ele>
        <time>2024-04-14T06:56:06Z</time>
      </trkpt>
      <trkpt lat="45.13153" lon="0.63126">
        <ele>189</ele>
        <time>2024-04-14T06:56:07Z</time>
      </trkpt>
      <trkpt lat="45.1316" lon="0.63123">
        <ele>188.6</ele>
        <time>2024-04-14T06:56:08Z</time>
      </trkpt>
      <trkpt lat="45.13174" lon="0.63115">
        <ele>187.8</ele>
        <time>2024-04-14T06:56:10Z</time>
      </trkpt>
      <trkpt lat="45.13191" lon="0.63106">
        <ele>187.3</ele>
        <time>2024-04-14T06:56:12Z</time>
      </trkpt>
      <trkpt lat="45.13199" lon="0.63102">
        <ele>187.1</ele>
        <time>2024-04-14T06:56:13Z</time>
      </trkpt>
      <trkpt lat="45.13207" lon="0.63098">
        <ele>187</ele>
        <time>2024-04-14T06:56:14Z</time>
      </trkpt>
      <trkpt lat="45.13221" lon="0.6309">
        <ele>186.8</ele>
        <time>2024-04-14T06:56:16Z</time>
      </trkpt>
      <trkpt lat="45.13234" lon="0.63082">
        <ele>186.7</ele>
        <time>2024-04-14T06:56:18Z</time>
      </trkpt>
      <trkpt lat="45.1324" lon="0.63078">
        <ele>186.7</ele>
        <time>2024-04-14T06:56:19Z</time>
      </trkpt>
      <trkpt lat="45.13245" lon="0.63074">
        <ele>186.7</ele>
        <time>2024-04-14T06:56:20Z</time>
      </trkpt>
      <trkpt lat="45.13256" lon="0.63068">
        <ele>186.8</ele>
        <time>2024-04-14T06:56:22Z</time>
      </trkpt>
      <trkpt lat="45.13267" lon="0.63061">
        <ele>186.9</ele>
        <time>2024-04-14T06:56:24Z</time>
      </trkpt>
      <trkpt lat="45.13276" lon="0.63054">
        <ele>187.1</ele>
        <time>2024-04-14T06:56:26Z</time>
      </trkpt>
      <trkpt lat="45.13284" lon="0.63047">
        <ele>187.2</ele>
        <time>2024-04-14T06:56:28Z</time>
      </trkpt>
      <trkpt lat="45.13294" lon="0.6304">
        <ele>187.5</ele>
        <time>2024-04-14T06:56:30Z</time>
      </trkpt>
      <trkpt lat="45.13302" lon="0.63033">
        <ele>187.8</ele>
        <time>2024-04-14T06:56:32Z</time>
      </trkpt>
      <trkpt lat="45.13307" lon="0.63029">
        <ele>188</ele>
        <time>2024-04-14T06:56:33Z</time>
      </trkpt>
      <trkpt lat="45.13311" lon="0.63026">
        <ele>188.1</ele>
        <time>2024-04-14T06:56:34Z</time>
      </trkpt>
      <trkpt lat="45.1332" lon="0.63019">
        <ele>188.5</ele>
        <time>2024-04-14T06:56:36Z</time>
      </trkpt>
      <trkpt lat="45.13327" lon="0.63012">
        <ele>188.8</ele>
        <time>2024-04-14T06:56:38Z</time>
      </trkpt>
      <trkpt lat="45.13335" lon="0.63006">
        <ele>189.1</ele>
        <time>2024-04-14T06:56:40Z</time>
      </trkpt>
      <trkpt lat="45.13343" lon="0.62998">
        <ele>189.5</ele>
        <time>2024-04-14T06:56:42Z</time>
      </trkpt>
      <trkpt lat="45.1335" lon="0.62992">
        <ele>189.7</ele>
        <time>2024-04-14T06:56:44Z</time>
      </trkpt>
      <trkpt lat="45.13357" lon="0.62985">
        <ele>190.1</ele>
        <time>2024-04-14T06:56:46Z</time>
      </trkpt>
      <trkpt lat="45.13361" lon="0.62982">
        <ele>190.2</ele>
        <time>2024-04-14T06:56:47Z</time>
      </trkpt>
      <trkpt lat="45.13365" lon="0.62979">
        <ele>190.4</ele>
        <time>2024-04-14T06:56:48Z</time>
      </trkpt>
      <trkpt lat="45.13372" lon="0.62972">
        <ele>190.7</ele>
        <time>2024-04-14T06:56:50Z</time>
      </trkpt>
      <trkpt lat="45.13375" lon="0.62968">
        <ele>190.9</ele>
        <time>2024-04-14T06:56:51Z</time>
      </trkpt>
      <trkpt lat="45.13377" lon="0.62964">
        <ele>191</ele>
        <time>2024-04-14T06:56:52Z</time>
      </trkpt>
      <trkpt lat="45.13383" lon="0.62957">
        <ele>191.4</ele>
        <time>2024-04-14T06:56:54Z</time>
      </trkpt>
      <trkpt lat="45.13386" lon="0.62954">
        <ele>191.6</ele>
        <time>2024-04-14T06:56:55Z</time>
      </trkpt>
      <trkpt lat="45.13389" lon="0.62951">
        <ele>191.7</ele>
        <time>2024-04-14T06:56:56Z</time>
      </trkpt>
      <trkpt lat="45.13395" lon="0.62945">
        <ele>192.1</ele>
        <time>2024-04-14T06:56:58Z</time>
      </trkpt>
      <trkpt lat="45.13402" lon="0.62939">
        <ele>192.5</ele>
        <time>2024-04-14T06:57:00Z</time>
      </trkpt>
      <trkpt lat="45.13409" lon="0.62932">
        <ele>192.9</ele>
        <time>2024-04-14T06:57:02Z</time>
      </trkpt>
      <trkpt lat="45.13412" lon="0.62929">
        <ele>193.1</ele>
        <time>2024-04-14T06:57:03Z</time>
      </trkpt>
      <trkpt lat="45.13415" lon="0.62926">
        <ele>193.2</ele>
        <time>2024-04-14T06:57:04Z</time>
      </trkpt>
      <trkpt lat="45.13422" lon="0.6292">
        <ele>193.6</ele>
        <time>2024-04-14T06:57:06Z</time>
      </trkpt>
      <trkpt lat="45.13428" lon="0.62915">
        <ele>193.9</ele>
        <time>2024-04-14T06:57:08Z</time>
      </trkpt>
      <trkpt lat="45.13431" lon="0.62912">
        <ele>194</ele>
        <time>2024-04-14T06:57:09Z</time>
      </trkpt>
      <trkpt lat="45.13435" lon="0.62909">
        <ele>194.2</ele>
        <time>2024-04-14T06:57:10Z</time>
      </trkpt>
      <trkpt lat="45.13441" lon="0.62903">
        <ele>194.5</ele>
        <time>2024-04-14T06:57:12Z</time>
      </trkpt>
      <trkpt lat="45.13444" lon="0.629">
        <ele>194.6</ele>
        <time>2024-04-14T06:57:13Z</time>
      </trkpt>
      <trkpt lat="45.13448" lon="0.62897">
        <ele>194.8</ele>
        <time>2024-04-14T06:57:14Z</time>
      </trkpt>
      <trkpt lat="45.13456" lon="0.62891">
        <ele>195</ele>
        <time>2024-04-14T06:57:16Z</time>
      </trkpt>
      <trkpt lat="45.13463" lon="0.62885">
        <ele>195.3</ele>
        <time>2024-04-14T06:57:18Z</time>
      </trkpt>
      <trkpt lat="45.13471" lon="0.62879">
        <ele>195.5</ele>
        <time>2024-04-14T06:57:20Z</time>
      </trkpt>
      <trkpt lat="45.13478" lon="0.62874">
        <ele>195.7</ele>
        <time>2024-04-14T06:57:22Z</time>
      </trkpt>
      <trkpt lat="45.13482" lon="0.62872">
        <ele>195.8</ele>
        <time>2024-04-14T06:57:23Z</time>
      </trkpt>
      <trkpt lat="45.13485" lon="0.62869">
        <ele>195.9</ele>
        <time>2024-04-14T06:57:24Z</time>
      </trkpt>
      <trkpt lat="45.13492" lon="0.62864">
        <ele>196.1</ele>
        <time>2024-04-14T06:57:26Z</time>
      </trkpt>
      <trkpt lat="45.135" lon="0.62858">
        <ele>196.2</ele>
        <time>2024-04-14T06:57:28Z</time>
      </trkpt>
      <trkpt lat="45.13507" lon="0.62853">
        <ele>196.3</ele>
        <time>2024-04-14T06:57:30Z</time>
      </trkpt>
      <trkpt lat="45.13511" lon="0.6285">
        <ele>196.4</ele>
        <time>2024-04-14T06:57:31Z</time>
      </trkpt>
      <trkpt lat="45.13514" lon="0.62846">
        <ele>196.5</ele>
        <time>2024-04-14T06:57:32Z</time>
      </trkpt>
      <trkpt lat="45.13521" lon="0.6284">
        <ele>196.6</ele>
        <time>2024-04-14T06:57:34Z</time>
      </trkpt>
      <trkpt lat="45.13528" lon="0.62833">
        <ele>196.7</ele>
        <time>2024-04-14T06:57:36Z</time>
      </trkpt>
      <trkpt lat="45.13534" lon="0.62826">
        <ele>196.8</ele>
        <time>2024-04-14T06:57:38Z</time>
      </trkpt>
      <trkpt lat="45.13537" lon="0.62822">
        <ele>196.8</ele>
        <time>2024-04-14T06:57:39Z</time>
      </trkpt>
      <trkpt lat="45.1354" lon="0.62819">
        <ele>196.8</ele>
        <time>2024-04-14T06:57:40Z</time>
      </trkpt>
      <trkpt lat="45.13547" lon="0.62812">
        <ele>196.9</ele>
        <time>2024-04-14T06:57:42Z</time>
      </trkpt>
      <trkpt lat="45.13553" lon="0.62806">
        <ele>197</ele>
        <time>2024-04-14T06:57:44Z</time>
      </trkpt>
      <trkpt lat="45.13561" lon="0.62801">
        <ele>197.1</ele>
        <time>2024-04-14T06:57:46Z</time>
      </trkpt>
      <trkpt lat="45.13568" lon="0.62795">
        <ele>197.2</ele>
        <time>2024-04-14T06:57:48Z</time>
      </trkpt>
      <trkpt lat="45.13571" lon="0.62792">
        <ele>197.3</ele>
        <time>2024-04-14T06:57:49Z</time>
      </trkpt>
      <trkpt lat="45.13575" lon="0.62789">
        <ele>197.3</ele>
        <time>2024-04-14T06:57:50Z</time>
      </trkpt>
      <trkpt lat="45.13582" lon="0.62783">
        <ele>197.4</ele>
        <time>2024-04-14T06:57:52Z</time>
      </trkpt>
      <trkpt lat="45.13589" lon="0.62778">
        <ele>197.4</ele>
        <time>2024-04-14T06:57:54Z</time>
      </trkpt>
      <trkpt lat="45.13596" lon="0.62772">
        <ele>197.5</ele>
        <time>2024-04-14T06:57:56Z</time>
      </trkpt>
      <trkpt lat="45.13603" lon="0.62766">
        <ele>197.5</ele>
        <time>2024-04-14T06:57:58Z</time>
      </trkpt>
      <trkpt lat="45.1361" lon="0.6276">
        <ele>197.5</ele>
        <time>2024-04-14T06:58:00Z</time>
      </trkpt>
      <trkpt lat="45.13613" lon="0.62757">
        <ele>197.6</ele>
        <time>2024-04-14T06:58:01Z</time>
      </trkpt>
      <trkpt lat="45.13616" lon="0.62752">
        <ele>197.6</ele>
        <time>2024-04-14T06:58:02Z</time>
      </trkpt>
      <trkpt lat="45.1362" lon="0.62741">
        <ele>197.5</ele>
        <time>2024-04-14T06:58:04Z</time>
      </trkpt>
      <trkpt lat="45.13621" lon="0.62735">
        <ele>197.5</ele>
        <time>2024-04-14T06:58:05Z</time>
      </trkpt>
      <trkpt lat="45.13622" lon="0.62729">
        <ele>197.4</ele>
        <time>2024-04-14T06:58:06Z</time>
      </trkpt>
      <trkpt lat="45.13623" lon="0.62716">
        <ele>197.2</ele>
        <time>2024-04-14T06:58:08Z</time>
      </trkpt>
      <trkpt lat="45.13624" lon="0.6271">
        <ele>197</ele>
        <time>2024-04-14T06:58:09Z</time>
      </trkpt>
      <trkpt lat="45.13623" lon="0.62702">
        <ele>196.8</ele>
        <time>2024-04-14T06:58:10Z</time>
      </trkpt>
      <trkpt lat="45.13623" lon="0.62695">
        <ele>196.5</ele>
        <time>2024-04-14T06:58:11Z</time>
      </trkpt>
      <trkpt lat="45.13621" lon="0.62688">
        <ele>196.1</ele>
        <time>2024-04-14T06:58:12Z</time>
      </trkpt>
      <trkpt lat="45.13619" lon="0.6267">
        <ele>195.3</ele>
        <time>2024-04-14T06:58:14Z</time>
      </trkpt>
      <trkpt lat="45.13619" lon="0.62661">
        <ele>194.9</ele>
        <time>2024-04-14T06:58:15Z</time>
      </trkpt>
      <trkpt lat="45.13619" lon="0.62651">
        <ele>194.5</ele>
        <time>2024-04-14T06:58:16Z</time>
      </trkpt>
      <trkpt lat="45.1362" lon="0.62631">
        <ele>193.7</ele>
        <time>2024-04-14T06:58:18Z</time>
      </trkpt>
      <trkpt lat="45.13624" lon="0.6261">
        <ele>192.8</ele>
        <time>2024-04-14T06:58:20Z</time>
      </trkpt>
      <trkpt lat="45.1363" lon="0.62589">
        <ele>192</ele>
        <time>2024-04-14T06:58:22Z</time>
      </trkpt>
      <trkpt lat="45.13638" lon="0.62568">
        <ele>191.3</ele>
        <time>2024-04-14T06:58:24Z</time>
      </trkpt>
      <trkpt lat="45.13642" lon="0.62558">
        <ele>191.1</ele>
        <time>2024-04-14T06:58:25Z</time>
      </trkpt>
      <trkpt lat="45.13646" lon="0.62548">
        <ele>190.9</ele>
        <time>2024-04-14T06:58:26Z</time>
      </trkpt>
      <trkpt lat="45.13653" lon="0.62527">
        <ele>190.5</ele>
        <time>2024-04-14T06:58:28Z</time>
      </trkpt>
      <trkpt lat="45.13659" lon="0.62507">
        <ele>190.1</ele>
        <time>2024-04-14T06:58:30Z</time>
      </trkpt>
      <trkpt lat="45.13662" lon="0.62497">
        <ele>189.9</ele>
        <time>2024-04-14T06:58:31Z</time>
      </trkpt>
      <trkpt lat="45.13665" lon="0.62487">
        <ele>189.7</ele>
        <time>2024-04-14T06:58:32Z</time>
      </trkpt>
      <trkpt lat="45.13671" lon="0.62469">
        <ele>189.4</ele>
        <time>2024-04-14T06:58:34Z</time>
      </trkpt>
      <trkpt lat="45.13676" lon="0.62449">
        <ele>189</ele>
        <time>2024-04-14T06:58:36Z</time>
      </trkpt>
      <trkpt lat="45.13682" lon="0.62429">
        <ele>188.5</ele>
        <time>2024-04-14T06:58:38Z</time>
      </trkpt>
      <trkpt lat="45.13687" lon="0.62408">
        <ele>188.1</ele>
        <time>2024-04-14T06:58:40Z</time>
      </trkpt>
      <trkpt lat="45.13692" lon="0.62387">
        <ele>187.8</ele>
        <time>2024-04-14T06:58:42Z</time>
      </trkpt>
      <trkpt lat="45.13694" lon="0.62376">
        <ele>187.7</ele>
        <time>2024-04-14T06:58:43Z</time>
      </trkpt>
      <trkpt lat="45.13696" lon="0.62365">
        <ele>187.4</ele>
        <time>2024-04-14T06:58:44Z</time>
      </trkpt>
      <trkpt lat="45.137" lon="0.62355">
        <ele>187.4</ele>
        <time>2024-04-14T06:58:45Z</time>
      </trkpt>
      <trkpt lat="45.13704" lon="0.62345">
        <ele>187.6</ele>
        <time>2024-04-14T06:58:46Z</time>
      </trkpt>
      <trkpt lat="45.13708" lon="0.62336">
        <ele>187.8</ele>
        <time>2024-04-14T06:58:47Z</time>
      </trkpt>
      <trkpt lat="45.13712" lon="0.62328">
        <ele>188.1</ele>
        <time>2024-04-14T06:58:48Z</time>
      </trkpt>
      <trkpt lat="45.1372" lon="0.62313">
        <ele>188.6</ele>
        <time>2024-04-14T06:58:50Z</time>
      </trkpt>
      <trkpt lat="45.13724" lon="0.62305">
        <ele>188.8</ele>
        <time>2024-04-14T06:58:51Z</time>
      </trkpt>
      <trkpt lat="45.13727" lon="0.62297">
        <ele>189.1</ele>
        <time>2024-04-14T06:58:52Z</time>
      </trkpt>
      <trkpt lat="45.13729" lon="0.62289">
        <ele>189.3</ele>
        <time>2024-04-14T06:58:53Z</time>
      </trkpt>
      <trkpt lat="45.13732" lon="0.62282">
        <ele>189.6</ele>
        <time>2024-04-14T06:58:54Z</time>
      </trkpt>
      <trkpt lat="45.13736" lon="0.62266">
        <ele>190.1</ele>
        <time>2024-04-14T06:58:56Z</time>
      </trkpt>
      <trkpt lat="45.1374" lon="0.62251">
        <ele>190.6</ele>
        <time>2024-04-14T06:58:58Z</time>
      </trkpt>
      <trkpt lat="45.13742" lon="0.62244">
        <ele>190.8</ele>
        <time>2024-04-14T06:58:59Z</time>
      </trkpt>
      <trkpt lat="45.13744" lon="0.62237">
        <ele>191</ele>
        <time>2024-04-14T06:59:00Z</time>
      </trkpt>
      <trkpt lat="45.13748" lon="0.62224">
        <ele>191.5</ele>
        <time>2024-04-14T06:59:02Z</time>
      </trkpt>
      <trkpt lat="45.13752" lon="0.62211">
        <ele>192</ele>
        <time>2024-04-14T06:59:04Z</time>
      </trkpt>
      <trkpt lat="45.13756" lon="0.62197">
        <ele>192.5</ele>
        <time>2024-04-14T06:59:06Z</time>
      </trkpt>
      <trkpt lat="45.13758" lon="0.62191">
        <ele>192.7</ele>
        <time>2024-04-14T06:59:07Z</time>
      </trkpt>
      <trkpt lat="45.1376" lon="0.62185">
        <ele>192.9</ele>
        <time>2024-04-14T06:59:08Z</time>
      </trkpt>
      <trkpt lat="45.13763" lon="0.62172">
        <ele>193.4</ele>
        <time>2024-04-14T06:59:10Z</time>
      </trkpt>
      <trkpt lat="45.13766" lon="0.6216">
        <ele>193.7</ele>
        <time>2024-04-14T06:59:12Z</time>
      </trkpt>
      <trkpt lat="45.13768" lon="0.62148">
        <ele>194.1</ele>
        <time>2024-04-14T06:59:14Z</time>
      </trkpt>
      <trkpt lat="45.13769" lon="0.62141">
        <ele>194.2</ele>
        <time>2024-04-14T06:59:15Z</time>
      </trkpt>
      <trkpt lat="45.1377" lon="0.62135">
        <ele>194.4</ele>
        <time>2024-04-14T06:59:16Z</time>
      </trkpt>
      <trkpt lat="45.13773" lon="0.62123">
        <ele>194.7</ele>
        <time>2024-04-14T06:59:18Z</time>
      </trkpt>
      <trkpt lat="45.13774" lon="0.62116">
        <ele>194.8</ele>
        <time>2024-04-14T06:59:19Z</time>
      </trkpt>
      <trkpt lat="45.13774" lon="0.6211">
        <ele>194.9</ele>
        <time>2024-04-14T06:59:20Z</time>
      </trkpt>
      <trkpt lat="45.13775" lon="0.62098">
        <ele>195.1</ele>
        <time>2024-04-14T06:59:22Z</time>
      </trkpt>
      <trkpt lat="45.13776" lon="0.62085">
        <ele>195.3</ele>
        <time>2024-04-14T06:59:24Z</time>
      </trkpt>
      <trkpt lat="45.13777" lon="0.62072">
        <ele>195.5</ele>
        <time>2024-04-14T06:59:26Z</time>
      </trkpt>
      <trkpt lat="45.13778" lon="0.62059">
        <ele>195.7</ele>
        <time>2024-04-14T06:59:28Z</time>
      </trkpt>
      <trkpt lat="45.13779" lon="0.62046">
        <ele>195.8</ele>
        <time>2024-04-14T06:59:30Z</time>
      </trkpt>
      <trkpt lat="45.13781" lon="0.62034">
        <ele>195.9</ele>
        <time>2024-04-14T06:59:32Z</time>
      </trkpt>
      <trkpt lat="45.13784" lon="0.62021">
        <ele>196</ele>
        <time>2024-04-14T06:59:34Z</time>
      </trkpt>
      <trkpt lat="45.13785" lon="0.62015">
        <ele>196.1</ele>
        <time>2024-04-14T06:59:35Z</time>
      </trkpt>
      <trkpt lat="45.13787" lon="0.62009">
        <ele>196.1</ele>
        <time>2024-04-14T06:59:36Z</time>
      </trkpt>
      <trkpt lat="45.13792" lon="0.61996">
        <ele>196.3</ele>
        <time>2024-04-14T06:59:38Z</time>
      </trkpt>
      <trkpt lat="45.13796" lon="0.61984">
        <ele>196.3</ele>
        <time>2024-04-14T06:59:40Z</time>
      </trkpt>
      <trkpt lat="45.13798" lon="0.61979">
        <ele>196.4</ele>
        <time>2024-04-14T06:59:41Z</time>
      </trkpt>
      <trkpt lat="45.13801" lon="0.61973">
        <ele>196.4</ele>
        <time>2024-04-14T06:59:42Z</time>
      </trkpt>
      <trkpt lat="45.13807" lon="0.61962">
        <ele>196.5</ele>
        <time>2024-04-14T06:59:44Z</time>
      </trkpt>
      <trkpt lat="45.13812" lon="0.61951">
        <ele>196.6</ele>
        <time>2024-04-14T06:59:46Z</time>
      </trkpt>
      <trkpt lat="45.13818" lon="0.6194">
        <ele>196.7</ele>
        <time>2024-04-14T06:59:48Z</time>
      </trkpt>
      <trkpt lat="45.13822" lon="0.61934">
        <ele>196.7</ele>
        <time>2024-04-14T06:59:49Z</time>
      </trkpt>
      <trkpt lat="45.13824" lon="0.61929">
        <ele>196.7</ele>
        <time>2024-04-14T06:59:50Z</time>
      </trkpt>
      <trkpt lat="45.13829" lon="0.61918">
        <ele>196.8</ele>
        <time>2024-04-14T06:59:52Z</time>
      </trkpt>
      <trkpt lat="45.13835" lon="0.61909">
        <ele>196.9</ele>
        <time>2024-04-14T06:59:54Z</time>
      </trkpt>
      <trkpt lat="45.13841" lon="0.61898">
        <ele>196.9</ele>
        <time>2024-04-14T06:59:56Z</time>
      </trkpt>
      <trkpt lat="45.13847" lon="0.61888">
        <ele>197</ele>
        <time>2024-04-14T06:59:58Z</time>
      </trkpt>
      <trkpt lat="45.13852" lon="0.61877">
        <ele>197.1</ele>
        <time>2024-04-14T07:00:00Z</time>
      </trkpt>
      <trkpt lat="45.13854" lon="0.61871">
        <ele>197.2</ele>
        <time>2024-04-14T07:00:01Z</time>
      </trkpt>
      <trkpt lat="45.13856" lon="0.61865">
        <ele>197.3</ele>
        <time>2024-04-14T07:00:02Z</time>
      </trkpt>
      <trkpt lat="45.13858" lon="0.61859">
        <ele>197.3</ele>
        <time>2024-04-14T07:00:03Z</time>
      </trkpt>
      <trkpt lat="45.13859" lon="0.61853">
        <ele>197.4</ele>
        <time>2024-04-14T07:00:04Z</time>
      </trkpt>
      <trkpt lat="45.1386" lon="0.61847">
        <ele>197.5</ele>
        <time>2024-04-14T07:00:05Z</time>
      </trkpt>
      <trkpt lat="45.1386" lon="0.6184">
        <ele>197.6</ele>
        <time>2024-04-14T07:00:06Z</time>
      </trkpt>
      <trkpt lat="45.1386" lon="0.61834">
        <ele>197.6</ele>
        <time>2024-04-14T07:00:07Z</time>
      </trkpt>
      <trkpt lat="45.13859" lon="0.61828">
        <ele>197.7</ele>
        <time>2024-04-14T07:00:08Z</time>
      </trkpt>
      <trkpt lat="45.13858" lon="0.61815">
        <ele>197.9</ele>
        <time>2024-04-14T07:00:10Z</time>
      </trkpt>
      <trkpt lat="45.13855" lon="0.61802">
        <ele>198.2</ele>
        <time>2024-04-14T07:00:12Z</time>
      </trkpt>
      <trkpt lat="45.13852" lon="0.61791">
        <ele>198.5</ele>
        <time>2024-04-14T07:00:14Z</time>
      </trkpt>
      <trkpt lat="45.13849" lon="0.61786">
        <ele>198.6</ele>
        <time>2024-04-14T07:00:15Z</time>
      </trkpt>
      <trkpt lat="45.13847" lon="0.61781">
        <ele>198.8</ele>
        <time>2024-04-14T07:00:16Z</time>
      </trkpt>
      <trkpt lat="45.13842" lon="0.61772">
        <ele>199.1</ele>
        <time>2024-04-14T07:00:18Z</time>
      </trkpt>
      <trkpt lat="45.13837" lon="0.61763">
        <ele>199.4</ele>
        <time>2024-04-14T07:00:20Z</time>
      </trkpt>
      <trkpt lat="45.13831" lon="0.61754">
        <ele>199.7</ele>
        <time>2024-04-14T07:00:22Z</time>
      </trkpt>
      <trkpt lat="45.13829" lon="0.61749">
        <ele>199.8</ele>
        <time>2024-04-14T07:00:23Z</time>
      </trkpt>
      <trkpt lat="45.13826" lon="0.61745">
        <ele>199.9</ele>
        <time>2024-04-14T07:00:24Z</time>
      </trkpt>
      <trkpt lat="45.13821" lon="0.61736">
        <ele>200.1</ele>
        <time>2024-04-14T07:00:26Z</time>
      </trkpt>
      <trkpt lat="45.13816" lon="0.61726">
        <ele>200.3</ele>
        <time>2024-04-14T07:00:28Z</time>
      </trkpt>
      <trkpt lat="45.13812" lon="0.61716">
        <ele>200.4</ele>
        <time>2024-04-14T07:00:30Z</time>
      </trkpt>
      <trkpt lat="45.13809" lon="0.61711">
        <ele>200.5</ele>
        <time>2024-04-14T07:00:31Z</time>
      </trkpt>
      <trkpt lat="45.13808" lon="0.61705">
        <ele>200.5</ele>
        <time>2024-04-14T07:00:32Z</time>
      </trkpt>
      <trkpt lat="45.13807" lon="0.617">
        <ele>200.5</ele>
        <time>2024-04-14T07:00:33Z</time>
      </trkpt>
      <trkpt lat="45.13805" lon="0.61694">
        <ele>200.6</ele>
        <time>2024-04-14T07:00:34Z</time>
      </trkpt>
      <trkpt lat="45.13803" lon="0.61681">
        <ele>200.6</ele>
        <time>2024-04-14T07:00:36Z</time>
      </trkpt>
      <trkpt lat="45.13801" lon="0.61669">
        <ele>200.5</ele>
        <time>2024-04-14T07:00:38Z</time>
      </trkpt>
      <trkpt lat="45.138" lon="0.61663">
        <ele>200.4</ele>
        <time>2024-04-14T07:00:39Z</time>
      </trkpt>
      <trkpt lat="45.138" lon="0.61656">
        <ele>200.4</ele>
        <time>2024-04-14T07:00:40Z</time>
      </trkpt>
      <trkpt lat="45.13799" lon="0.61643">
        <ele>200.1</ele>
        <time>2024-04-14T07:00:42Z</time>
      </trkpt>
      <trkpt lat="45.13799" lon="0.61629">
        <ele>199.8</ele>
        <time>2024-04-14T07:00:44Z</time>
      </trkpt>
      <trkpt lat="45.138" lon="0.61621">
        <ele>199.7</ele>
        <time>2024-04-14T07:00:45Z</time>
      </trkpt>
      <trkpt lat="45.13801" lon="0.61614">
        <ele>199.5</ele>
        <time>2024-04-14T07:00:46Z</time>
      </trkpt>
      <trkpt lat="45.13804" lon="0.61598">
        <ele>199</ele>
        <time>2024-04-14T07:00:48Z</time>
      </trkpt>
      <trkpt lat="45.13806" lon="0.61582">
        <ele>198.6</ele>
        <time>2024-04-14T07:00:50Z</time>
      </trkpt>
      <trkpt lat="45.13804" lon="0.6157">
        <ele>197.9</ele>
        <time>2024-04-14T07:00:52Z</time>
      </trkpt>
      <trkpt lat="45.13801" lon="0.61566">
        <ele>197.6</ele>
        <time>2024-04-14T07:00:53Z</time>
      </trkpt>
      <trkpt lat="45.13796" lon="0.61565">
        <ele>197.2</ele>
        <time>2024-04-14T07:00:54Z</time>
      </trkpt>
      <trkpt lat="45.13784" lon="0.61565">
        <ele>196.3</ele>
        <time>2024-04-14T07:00:56Z</time>
      </trkpt>
      <trkpt lat="45.13769" lon="0.61566">
        <ele>195.2</ele>
        <time>2024-04-14T07:00:58Z</time>
      </trkpt>
      <trkpt lat="45.13753" lon="0.61568">
        <ele>194.1</ele>
        <time>2024-04-14T07:01:00Z</time>
      </trkpt>
      <trkpt lat="45.13739" lon="0.61568">
        <ele>193</ele>
        <time>2024-04-14T07:01:02Z</time>
      </trkpt>
      <trkpt lat="45.13726" lon="0.61566">
        <ele>191.6</ele>
        <time>2024-04-14T07:01:04Z</time>
      </trkpt>
      <trkpt lat="45.13718" lon="0.61562">
        <ele>190.6</ele>
        <time>2024-04-14T07:01:05Z</time>
      </trkpt>
      <trkpt lat="45.1371" lon="0.61557">
        <ele>189.6</ele>
        <time>2024-04-14T07:01:06Z</time>
      </trkpt>
      <trkpt lat="45.13701" lon="0.61552">
        <ele>188.3</ele>
        <time>2024-04-14T07:01:07Z</time>
      </trkpt>
      <trkpt lat="45.13692" lon="0.61546">
        <ele>187.1</ele>
        <time>2024-04-14T07:01:08Z</time>
      </trkpt>
      <trkpt lat="45.13676" lon="0.61529">
        <ele>184.5</ele>
        <time>2024-04-14T07:01:10Z</time>
      </trkpt>
      <trkpt lat="45.13663" lon="0.6151">
        <ele>181.9</ele>
        <time>2024-04-14T07:01:12Z</time>
      </trkpt>
      <trkpt lat="45.13653" lon="0.61491">
        <ele>179.4</ele>
        <time>2024-04-14T07:01:14Z</time>
      </trkpt>
      <trkpt lat="45.13649" lon="0.61481">
        <ele>178.2</ele>
        <time>2024-04-14T07:01:15Z</time>
      </trkpt>
      <trkpt lat="45.13646" lon="0.6147">
        <ele>176.8</ele>
        <time>2024-04-14T07:01:16Z</time>
      </trkpt>
      <trkpt lat="45.13644" lon="0.61458">
        <ele>175.2</ele>
        <time>2024-04-14T07:01:17Z</time>
      </trkpt>
      <trkpt lat="45.13642" lon="0.61444">
        <ele>173.4</ele>
        <time>2024-04-14T07:01:18Z</time>
      </trkpt>
      <trkpt lat="45.13638" lon="0.61416">
        <ele>169.7</ele>
        <time>2024-04-14T07:01:20Z</time>
      </trkpt>
      <trkpt lat="45.13635" lon="0.614">
        <ele>168</ele>
        <time>2024-04-14T07:01:21Z</time>
      </trkpt>
      <trkpt lat="45.13633" lon="0.61384">
        <ele>166.4</ele>
        <time>2024-04-14T07:01:22Z</time>
      </trkpt>
      <trkpt lat="45.13629" lon="0.6135">
        <ele>163.5</ele>
        <time>2024-04-14T07:01:24Z</time>
      </trkpt>
      <trkpt lat="45.13627" lon="0.61317">
        <ele>160.8</ele>
        <time>2024-04-14T07:01:26Z</time>
      </trkpt>
      <trkpt lat="45.13626" lon="0.61287">
        <ele>158.2</ele>
        <time>2024-04-14T07:01:28Z</time>
      </trkpt>
      <trkpt lat="45.13625" lon="0.61258">
        <ele>156</ele>
        <time>2024-04-14T07:01:30Z</time>
      </trkpt>
      <trkpt lat="45.13624" lon="0.6123">
        <ele>153.6</ele>
        <time>2024-04-14T07:01:32Z</time>
      </trkpt>
      <trkpt lat="45.13622" lon="0.61201">
        <ele>150.7</ele>
        <time>2024-04-14T07:01:34Z</time>
      </trkpt>
      <trkpt lat="45.1362" lon="0.61172">
        <ele>147.3</ele>
        <time>2024-04-14T07:01:36Z</time>
      </trkpt>
      <trkpt lat="45.13618" lon="0.6114">
        <ele>143.3</ele>
        <time>2024-04-14T07:01:38Z</time>
      </trkpt>
      <trkpt lat="45.13615" lon="0.61107">
        <ele>139.3</ele>
        <time>2024-04-14T07:01:40Z</time>
      </trkpt>
      <trkpt lat="45.13613" lon="0.61091">
        <ele>137.6</ele>
        <time>2024-04-14T07:01:41Z</time>
      </trkpt>
      <trkpt lat="45.13611" lon="0.61078">
        <ele>136.1</ele>
        <time>2024-04-14T07:01:42Z</time>
      </trkpt>
      <trkpt lat="45.1361" lon="0.61066">
        <ele>134.8</ele>
        <time>2024-04-14T07:01:43Z</time>
      </trkpt>
      <trkpt lat="45.13611" lon="0.61055">
        <ele>133.6</ele>
        <time>2024-04-14T07:01:44Z</time>
      </trkpt>
      <trkpt lat="45.13613" lon="0.61044">
        <ele>132.2</ele>
        <time>2024-04-14T07:01:45Z</time>
      </trkpt>
      <trkpt lat="45.13617" lon="0.61032">
        <ele>130.7</ele>
        <time>2024-04-14T07:01:46Z</time>
      </trkpt>
      <trkpt lat="45.13621" lon="0.6102">
        <ele>129.2</ele>
        <time>2024-04-14T07:01:47Z</time>
      </trkpt>
      <trkpt lat="45.13624" lon="0.61006">
        <ele>128.1</ele>
        <time>2024-04-14T07:01:48Z</time>
      </trkpt>
      <trkpt lat="45.13627" lon="0.60991">
        <ele>127.4</ele>
        <time>2024-04-14T07:01:49Z</time>
      </trkpt>
      <trkpt lat="45.13629" lon="0.60977">
        <ele>127</ele>
        <time>2024-04-14T07:01:50Z</time>
      </trkpt>
      <trkpt lat="45.1363" lon="0.60963">
        <ele>126.9</ele>
        <time>2024-04-14T07:01:51Z</time>
      </trkpt>
      <trkpt lat="45.1363" lon="0.60949">
        <ele>126.9</ele>
        <time>2024-04-14T07:01:52Z</time>
      </trkpt>
      <trkpt lat="45.1363" lon="0.60938">
        <ele>126.8</ele>
        <time>2024-04-14T07:01:53Z</time>
      </trkpt>
      <trkpt lat="45.13629" lon="0.6093">
        <ele>126.6</ele>
        <time>2024-04-14T07:01:54Z</time>
      </trkpt>
      <trkpt lat="45.13626" lon="0.60926">
        <ele>126.3</ele>
        <time>2024-04-14T07:01:55Z</time>
      </trkpt>
      <trkpt lat="45.13622" lon="0.60923">
        <ele>125.9</ele>
        <time>2024-04-14T07:01:56Z</time>
      </trkpt>
      <trkpt lat="45.13615" lon="0.60921">
        <ele>125.5</ele>
        <time>2024-04-14T07:01:58Z</time>
      </trkpt>
      <trkpt lat="45.1361" lon="0.6092">
        <ele>125.4</ele>
        <time>2024-04-14T07:01:59Z</time>
      </trkpt>
      <trkpt lat="45.13604" lon="0.60919">
        <ele>125.2</ele>
        <time>2024-04-14T07:02:00Z</time>
      </trkpt>
      <trkpt lat="45.13598" lon="0.6092">
        <ele>125</ele>
        <time>2024-04-14T07:02:01Z</time>
      </trkpt>
      <trkpt lat="45.13591" lon="0.6092">
        <ele>124.8</ele>
        <time>2024-04-14T07:02:02Z</time>
      </trkpt>
      <trkpt lat="45.13584" lon="0.60922">
        <ele>124.6</ele>
        <time>2024-04-14T07:02:03Z</time>
      </trkpt>
      <trkpt lat="45.13576" lon="0.60925">
        <ele>124.3</ele>
        <time>2024-04-14T07:02:04Z</time>
      </trkpt>
      <trkpt lat="45.13569" lon="0.60925">
        <ele>123.9</ele>
        <time>2024-04-14T07:02:05Z</time>
      </trkpt>
      <trkpt lat="45.13566" lon="0.60916">
        <ele>123.5</ele>
        <time>2024-04-14T07:02:06Z</time>
      </trkpt>
      <trkpt lat="45.13565" lon="0.60912">
        <ele>123.3</ele>
        <time>2024-04-14T07:02:07Z</time>
      </trkpt>
      <trkpt lat="45.13564" lon="0.60915">
        <ele>123.1</ele>
        <time>2024-04-14T07:02:08Z</time>
      </trkpt>
      <trkpt lat="45.13561" lon="0.60928">
        <ele>122.4</ele>
        <time>2024-04-14T07:02:10Z</time>
      </trkpt>
      <trkpt lat="45.13556" lon="0.60944">
        <ele>121.6</ele>
        <time>2024-04-14T07:02:12Z</time>
      </trkpt>
      <trkpt lat="45.13549" lon="0.60956">
        <ele>121</ele>
        <time>2024-04-14T07:02:14Z</time>
      </trkpt>
      <trkpt lat="45.13545" lon="0.60956">
        <ele>120.7</ele>
        <time>2024-04-14T07:02:15Z</time>
      </trkpt>
      <trkpt lat="45.13542" lon="0.60953">
        <ele>120.5</ele>
        <time>2024-04-14T07:02:16Z</time>
      </trkpt>
      <trkpt lat="45.1354" lon="0.60942">
        <ele>120.2</ele>
        <time>2024-04-14T07:02:18Z</time>
      </trkpt>
      <trkpt lat="45.13544" lon="0.60931">
        <ele>120</ele>
        <time>2024-04-14T07:02:20Z</time>
      </trkpt>
      <trkpt lat="45.13548" lon="0.60917">
        <ele>119.8</ele>
        <time>2024-04-14T07:02:22Z</time>
      </trkpt>
      <trkpt lat="45.13552" lon="0.60902">
        <ele>119.5</ele>
        <time>2024-04-14T07:02:24Z</time>
      </trkpt>
      <trkpt lat="45.13554" lon="0.60895">
        <ele>119.4</ele>
        <time>2024-04-14T07:02:25Z</time>
      </trkpt>
      <trkpt lat="45.13557" lon="0.60888">
        <ele>119.3</ele>
        <time>2024-04-14T07:02:26Z</time>
      </trkpt>
      <trkpt lat="45.13561" lon="0.60874">
        <ele>119.1</ele>
        <time>2024-04-14T07:02:28Z</time>
      </trkpt>
      <trkpt lat="45.13563" lon="0.60867">
        <ele>119.1</ele>
        <time>2024-04-14T07:02:29Z</time>
      </trkpt>
      <trkpt lat="45.13565" lon="0.6086">
        <ele>119</ele>
        <time>2024-04-14T07:02:30Z</time>
      </trkpt>
      <trkpt lat="45.13569" lon="0.60846">
        <ele>118.8</ele>
        <time>2024-04-14T07:02:32Z</time>
      </trkpt>
      <trkpt lat="45.13574" lon="0.60832">
        <ele>118.6</ele>
        <time>2024-04-14T07:02:34Z</time>
      </trkpt>
      <trkpt lat="45.13578" lon="0.60817">
        <ele>118.4</ele>
        <time>2024-04-14T07:02:36Z</time>
      </trkpt>
      <trkpt lat="45.1358" lon="0.6081">
        <ele>118.3</ele>
        <time>2024-04-14T07:02:37Z</time>
      </trkpt>
      <trkpt lat="45.13582" lon="0.60803">
        <ele>118.2</ele>
        <time>2024-04-14T07:02:38Z</time>
      </trkpt>
      <trkpt lat="45.13585" lon="0.60795">
        <ele>118</ele>
        <time>2024-04-14T07:02:39Z</time>
      </trkpt>
      <trkpt lat="45.13587" lon="0.60788">
        <ele>117.9</ele>
        <time>2024-04-14T07:02:40Z</time>
      </trkpt>
      <trkpt lat="45.13591" lon="0.60773">
        <ele>117.7</ele>
        <time>2024-04-14T07:02:42Z</time>
      </trkpt>
      <trkpt lat="45.13596" lon="0.60759">
        <ele>117.5</ele>
        <time>2024-04-14T07:02:44Z</time>
      </trkpt>
      <trkpt lat="45.13601" lon="0.60744">
        <ele>117.3</ele>
        <time>2024-04-14T07:02:46Z</time>
      </trkpt>
      <trkpt lat="45.13603" lon="0.60736">
        <ele>117.2</ele>
        <time>2024-04-14T07:02:47Z</time>
      </trkpt>
      <trkpt lat="45.13606" lon="0.60728">
        <ele>117.1</ele>
        <time>2024-04-14T07:02:48Z</time>
      </trkpt>
      <trkpt lat="45.1361" lon="0.60713">
        <ele>116.9</ele>
        <time>2024-04-14T07:02:50Z</time>
      </trkpt>
      <trkpt lat="45.13614" lon="0.60697">
        <ele>116.7</ele>
        <time>2024-04-14T07:02:52Z</time>
      </trkpt>
      <trkpt lat="45.13619" lon="0.60681">
        <ele>116.6</ele>
        <time>2024-04-14T07:02:54Z</time>
      </trkpt>
      <trkpt lat="45.13623" lon="0.60665">
        <ele>116.4</ele>
        <time>2024-04-14T07:02:56Z</time>
      </trkpt>
      <trkpt lat="45.13625" lon="0.60657">
        <ele>116.3</ele>
        <time>2024-04-14T07:02:57Z</time>
      </trkpt>
      <trkpt lat="45.13628" lon="0.60648">
        <ele>116.2</ele>
        <time>2024-04-14T07:02:58Z</time>
      </trkpt>
      <trkpt lat="45.13632" lon="0.60633">
        <ele>116</ele>
        <time>2024-04-14T07:03:00Z</time>
      </trkpt>
      <trkpt lat="45.13637" lon="0.60617">
        <ele>115.9</ele>
        <time>2024-04-14T07:03:02Z</time>
      </trkpt>
      <trkpt lat="45.13641" lon="0.60601">
        <ele>115.8</ele>
        <time>2024-04-14T07:03:04Z</time>
      </trkpt>
      <trkpt lat="45.13645" lon="0.60585">
        <ele>115.8</ele>
        <time>2024-04-14T07:03:06Z</time>
      </trkpt>
      <trkpt lat="45.13649" lon="0.6057">
        <ele>115.6</ele>
        <time>2024-04-14T07:03:08Z</time>
      </trkpt>
      <trkpt lat="45.13653" lon="0.60555">
        <ele>115.5</ele>
        <time>2024-04-14T07:03:10Z</time>
      </trkpt>
      <trkpt lat="45.13657" lon="0.60539">
        <ele>115.4</ele>
        <time>2024-04-14T07:03:12Z</time>
      </trkpt>
      <trkpt lat="45.13661" lon="0.60523">
        <ele>115.3</ele>
        <time>2024-04-14T07:03:14Z</time>
      </trkpt>
      <trkpt lat="45.13664" lon="0.60508">
        <ele>115.1</ele>
        <time>2024-04-14T07:03:16Z</time>
      </trkpt>
      <trkpt lat="45.13667" lon="0.605">
        <ele>115.1</ele>
        <time>2024-04-14T07:03:17Z</time>
      </trkpt>
      <trkpt lat="45.13668" lon="0.60493">
        <ele>115</ele>
        <time>2024-04-14T07:03:18Z</time>
      </trkpt>
      <trkpt lat="45.13672" lon="0.60477">
        <ele>114.8</ele>
        <time>2024-04-14T07:03:20Z</time>
      </trkpt>
      <trkpt lat="45.13676" lon="0.60462">
        <ele>114.7</ele>
        <time>2024-04-14T07:03:22Z</time>
      </trkpt>
      <trkpt lat="45.1368" lon="0.60447">
        <ele>114.5</ele>
        <time>2024-04-14T07:03:24Z</time>
      </trkpt>
      <trkpt lat="45.13682" lon="0.60439">
        <ele>114.4</ele>
        <time>2024-04-14T07:03:25Z</time>
      </trkpt>
      <trkpt lat="45.13684" lon="0.60432">
        <ele>114.2</ele>
        <time>2024-04-14T07:03:26Z</time>
      </trkpt>
      <trkpt lat="45.13688" lon="0.60416">
        <ele>114</ele>
        <time>2024-04-14T07:03:28Z</time>
      </trkpt>
      <trkpt lat="45.13692" lon="0.604">
        <ele>113.8</ele>
        <time>2024-04-14T07:03:30Z</time>
      </trkpt>
      <trkpt lat="45.13697" lon="0.60384">
        <ele>113.5</ele>
        <time>2024-04-14T07:03:32Z</time>
      </trkpt>
      <trkpt lat="45.13701" lon="0.60368">
        <ele>113.3</ele>
        <time>2024-04-14T07:03:34Z</time>
      </trkpt>
      <trkpt lat="45.13705" lon="0.60353">
        <ele>113.1</ele>
        <time>2024-04-14T07:03:36Z</time>
      </trkpt>
      <trkpt lat="45.13709" lon="0.60337">
        <ele>112.8</ele>
        <time>2024-04-14T07:03:38Z</time>
      </trkpt>
      <trkpt lat="45.13711" lon="0.6033">
        <ele>112.7</ele>
        <time>2024-04-14T07:03:39Z</time>
      </trkpt>
      <trkpt lat="45.13713" lon="0.60324">
        <ele>112.6</ele>
        <time>2024-04-14T07:03:40Z</time>
      </trkpt>
      <trkpt lat="45.13716" lon="0.60311">
        <ele>112.4</ele>
        <time>2024-04-14T07:03:42Z</time>
      </trkpt>
      <trkpt lat="45.1372" lon="0.60298">
        <ele>112.3</ele>
        <time>2024-04-14T07:03:44Z</time>
      </trkpt>
      <trkpt lat="45.13721" lon="0.60291">
        <ele>112.2</ele>
        <time>2024-04-14T07:03:45Z</time>
      </trkpt>
      <trkpt lat="45.1372" lon="0.60285">
        <ele>111.9</ele>
        <time>2024-04-14T07:03:46Z</time>
      </trkpt>
      <trkpt lat="45.13717" lon="0.6028">
        <ele>111.3</ele>
        <time>2024-04-14T07:03:47Z</time>
      </trkpt>
      <trkpt lat="45.13713" lon="0.60276">
        <ele>110.5</ele>
        <time>2024-04-14T07:03:48Z</time>
      </trkpt>
      <trkpt lat="45.13701" lon="0.60266">
        <ele>108.4</ele>
        <time>2024-04-14T07:03:50Z</time>
      </trkpt>
      <trkpt lat="45.13687" lon="0.60253">
        <ele>106.4</ele>
        <time>2024-04-14T07:03:52Z</time>
      </trkpt>
      <trkpt lat="45.13671" lon="0.6024">
        <ele>104.9</ele>
        <time>2024-04-14T07:03:54Z</time>
      </trkpt>
      <trkpt lat="45.13656" lon="0.60229">
        <ele>104.5</ele>
        <time>2024-04-14T07:03:56Z</time>
      </trkpt>
      <trkpt lat="45.13645" lon="0.60222">
        <ele>104.8</ele>
        <time>2024-04-14T07:03:58Z</time>
      </trkpt>
      <trkpt lat="45.13642" lon="0.60219">
        <ele>104.9</ele>
        <time>2024-04-14T07:03:59Z</time>
      </trkpt>
      <trkpt lat="45.13641" lon="0.60216">
        <ele>105</ele>
        <time>2024-04-14T07:04:00Z</time>
      </trkpt>
      <trkpt lat="45.1364" lon="0.60213">
        <ele>105.1</ele>
        <time>2024-04-14T07:04:01Z</time>
      </trkpt>
      <trkpt lat="45.13641" lon="0.6021">
        <ele>105.2</ele>
        <time>2024-04-14T07:04:02Z</time>
      </trkpt>
      <trkpt lat="45.13645" lon="0.60203">
        <ele>105</ele>
        <time>2024-04-14T07:04:04Z</time>
      </trkpt>
      <trkpt lat="45.13646" lon="0.60199">
        <ele>105</ele>
        <time>2024-04-14T07:04:05Z</time>
      </trkpt>
      <trkpt lat="45.13646" lon="0.60195">
        <ele>104.9</ele>
        <time>2024-04-14T07:04:06Z</time>
      </trkpt>
      <trkpt lat="45.13644" lon="0.6019">
        <ele>104.9</ele>
        <time>2024-04-14T07:04:07Z</time>
      </trkpt>
      <trkpt lat="45.13642" lon="0.60186">
        <ele>104.9</ele>
        <time>2024-04-14T07:04:08Z</time>
      </trkpt>
      <trkpt lat="45.13637" lon="0.60182">
        <ele>104.9</ele>
        <time>2024-04-14T07:04:10Z</time>
      </trkpt>
      <trkpt lat="45.13633" lon="0.6018">
        <ele>105</ele>
        <time>2024-04-14T07:04:11Z</time>
      </trkpt>
      <trkpt lat="45.1363" lon="0.60179">
        <ele>105.1</ele>
        <time>2024-04-14T07:04:12Z</time>
      </trkpt>
      <trkpt lat="45.13624" lon="0.60175">
        <ele>105.3</ele>
        <time>2024-04-14T07:04:14Z</time>
      </trkpt>
      <trkpt lat="45.13618" lon="0.60172">
        <ele>105.6</ele>
        <time>2024-04-14T07:04:16Z</time>
      </trkpt>
      <trkpt lat="45.13615" lon="0.6017">
        <ele>105.7</ele>
        <time>2024-04-14T07:04:17Z</time>
      </trkpt>
      <trkpt lat="45.13612" lon="0.60168">
        <ele>105.8</ele>
        <time>2024-04-14T07:04:18Z</time>
      </trkpt>
      <trkpt lat="45.13606" lon="0.60164">
        <ele>106.1</ele>
        <time>2024-04-14T07:04:20Z</time>
      </trkpt>
      <trkpt lat="45.13601" lon="0.60161">
        <ele>106.3</ele>
        <time>2024-04-14T07:04:22Z</time>
      </trkpt>
      <trkpt lat="45.13596" lon="0.60158">
        <ele>106.6</ele>
        <time>2024-04-14T07:04:24Z</time>
      </trkpt>
      <trkpt lat="45.13593" lon="0.60156">
        <ele>106.7</ele>
        <time>2024-04-14T07:04:25Z</time>
      </trkpt>
      <trkpt lat="45.13591" lon="0.60155">
        <ele>106.8</ele>
        <time>2024-04-14T07:04:26Z</time>
      </trkpt>
      <trkpt lat="45.13585" lon="0.60154">
        <ele>107.1</ele>
        <time>2024-04-14T07:04:28Z</time>
      </trkpt>
      <trkpt lat="45.13579" lon="0.60152">
        <ele>107.4</ele>
        <time>2024-04-14T07:04:30Z</time>
      </trkpt>
      <trkpt lat="45.13574" lon="0.60151">
        <ele>107.7</ele>
        <time>2024-04-14T07:04:32Z</time>
      </trkpt>
      <trkpt lat="45.13568" lon="0.6015">
        <ele>108</ele>
        <time>2024-04-14T07:04:34Z</time>
      </trkpt>
      <trkpt lat="45.13562" lon="0.60149">
        <ele>108.3</ele>
        <time>2024-04-14T07:04:36Z</time>
      </trkpt>
      <trkpt lat="45.1356" lon="0.60148">
        <ele>108.5</ele>
        <time>2024-04-14T07:04:37Z</time>
      </trkpt>
      <trkpt lat="45.13557" lon="0.60147">
        <ele>108.7</ele>
        <time>2024-04-14T07:04:38Z</time>
      </trkpt>
      <trkpt lat="45.13551" lon="0.60145">
        <ele>109.1</ele>
        <time>2024-04-14T07:04:40Z</time>
      </trkpt>
      <trkpt lat="45.13546" lon="0.60141">
        <ele>109.6</ele>
        <time>2024-04-14T07:04:42Z</time>
      </trkpt>
      <trkpt lat="45.13544" lon="0.60137">
        <ele>109.9</ele>
        <time>2024-04-14T07:04:44Z</time>
      </trkpt>
      <trkpt lat="45.13543" lon="0.60132">
        <ele>110.2</ele>
        <time>2024-04-14T07:04:46Z</time>
      </trkpt>
      <trkpt lat="45.13542" lon="0.6013">
        <ele>110.3</ele>
        <time>2024-04-14T07:04:47Z</time>
      </trkpt>
      <trkpt lat="45.13542" lon="0.60128">
        <ele>110.5</ele>
        <time>2024-04-14T07:04:48Z</time>
      </trkpt>
      <trkpt lat="45.13542" lon="0.60123">
        <ele>110.8</ele>
        <time>2024-04-14T07:04:50Z</time>
      </trkpt>
      <trkpt lat="45.13542" lon="0.60118">
        <ele>111.2</ele>
        <time>2024-04-14T07:04:52Z</time>
      </trkpt>
      <trkpt lat="45.13541" lon="0.60113">
        <ele>111.5</ele>
        <time>2024-04-14T07:04:54Z</time>
      </trkpt>
      <trkpt lat="45.13542" lon="0.60111">
        <ele>111.7</ele>
        <time>2024-04-14T07:04:55Z</time>
      </trkpt>
      <trkpt lat="45.13541" lon="0.60108">
        <ele>111.9</ele>
        <time>2024-04-14T07:04:56Z</time>
      </trkpt>
      <trkpt lat="45.13541" lon="0.60105">
        <ele>112.2</ele>
        <time>2024-04-14T07:04:57Z</time>
      </trkpt>
      <trkpt lat="45.13541" lon="0.60103">
        <ele>112.4</ele>
        <time>2024-04-14T07:04:58Z</time>
      </trkpt>
      <trkpt lat="45.13541" lon="0.60099">
        <ele>112.7</ele>
        <time>2024-04-14T07:05:00Z</time>
      </trkpt>
      <trkpt lat="45.13542" lon="0.60095">
        <ele>113.2</ele>
        <time>2024-04-14T07:05:02Z</time>
      </trkpt>
      <trkpt lat="45.13542" lon="0.6009">
        <ele>113.6</ele>
        <time>2024-04-14T07:05:04Z</time>
      </trkpt>
      <trkpt lat="45.13542" lon="0.60086">
        <ele>114.1</ele>
        <time>2024-04-14T07:05:06Z</time>
      </trkpt>
      <trkpt lat="45.13542" lon="0.60081">
        <ele>114.6</ele>
        <time>2024-04-14T07:05:08Z</time>
      </trkpt>
      <trkpt lat="45.13544" lon="0.60078">
        <ele>115.1</ele>
        <time>2024-04-14T07:05:10Z</time>
      </trkpt>
      <trkpt lat="45.13544" lon="0.60076">
        <ele>115.3</ele>
        <time>2024-04-14T07:05:11Z</time>
      </trkpt>
      <trkpt lat="45.13545" lon="0.60074">
        <ele>115.5</ele>
        <time>2024-04-14T07:05:12Z</time>
      </trkpt>
      <trkpt lat="45.13545" lon="0.60072">
        <ele>115.7</ele>
        <time>2024-04-14T07:05:13Z</time>
      </trkpt>
      <trkpt lat="45.13545" lon="0.6007">
        <ele>116</ele>
        <time>2024-04-14T07:05:14Z</time>
      </trkpt>
      <trkpt lat="45.13545" lon="0.60066">
        <ele>116.6</ele>
        <time>2024-04-14T07:05:16Z</time>
      </trkpt>
      <trkpt lat="45.13547" lon="0.60061">
        <ele>117.3</ele>
        <time>2024-04-14T07:05:18Z</time>
      </trkpt>
      <trkpt lat="45.13547" lon="0.60058">
        <ele>117.7</ele>
        <time>2024-04-14T07:05:19Z</time>
      </trkpt>
      <trkpt lat="45.13547" lon="0.60056">
        <ele>118</ele>
        <time>2024-04-14T07:05:20Z</time>
      </trkpt>
      <trkpt lat="45.13547" lon="0.60052">
        <ele>118.6</ele>
        <time>2024-04-14T07:05:22Z</time>
      </trkpt>
      <trkpt lat="45.13547" lon="0.60048">
        <ele>119.2</ele>
        <time>2024-04-14T07:05:24Z</time>
      </trkpt>
      <trkpt lat="45.13546" lon="0.60046">
        <ele>119.6</ele>
        <time>2024-04-14T07:05:25Z</time>
      </trkpt>
      <trkpt lat="45.13546" lon="0.60044">
        <ele>119.9</ele>
        <time>2024-04-14T07:05:26Z</time>
      </trkpt>
      <trkpt lat="45.13546" lon="0.60042">
        <ele>120.2</ele>
        <time>2024-04-14T07:05:27Z</time>
      </trkpt>
      <trkpt lat="45.13546" lon="0.6004">
        <ele>120.5</ele>
        <time>2024-04-14T07:05:28Z</time>
      </trkpt>
      <trkpt lat="45.13545" lon="0.60037">
        <ele>121</ele>
        <time>2024-04-14T07:05:30Z</time>
      </trkpt>
      <trkpt lat="45.13544" lon="0.60033">
        <ele>121.6</ele>
        <time>2024-04-14T07:05:32Z</time>
      </trkpt>
      <trkpt lat="45.13543" lon="0.6003">
        <ele>122.1</ele>
        <time>2024-04-14T07:05:34Z</time>
      </trkpt>
      <trkpt lat="45.13543" lon="0.60027">
        <ele>122.5</ele>
        <time>2024-04-14T07:05:36Z</time>
      </trkpt>
      <trkpt lat="45.13544" lon="0.60024">
        <ele>123</ele>
        <time>2024-04-14T07:05:38Z</time>
      </trkpt>
      <trkpt lat="45.13544" lon="0.6002">
        <ele>123.4</ele>
        <time>2024-04-14T07:05:40Z</time>
      </trkpt>
      <trkpt lat="45.13544" lon="0.60019">
        <ele>123.7</ele>
        <time>2024-04-14T07:05:41Z</time>
      </trkpt>
      <trkpt lat="45.13544" lon="0.60017">
        <ele>123.8</ele>
        <time>2024-04-14T07:05:42Z</time>
      </trkpt>
      <trkpt lat="45.13544" lon="0.60016">
        <ele>124.1</ele>
        <time>2024-04-14T07:05:43Z</time>
      </trkpt>
      <trkpt lat="45.13544" lon="0.60014">
        <ele>124.3</ele>
        <time>2024-04-14T07:05:44Z</time>
      </trkpt>
      <trkpt lat="45.13544" lon="0.6001">
        <ele>124.8</ele>
        <time>2024-04-14T07:05:46Z</time>
      </trkpt>
      <trkpt lat="45.13543" lon="0.60007">
        <ele>125.1</ele>
        <time>2024-04-14T07:05:48Z</time>
      </trkpt>
      <trkpt lat="45.13543" lon="0.60005">
        <ele>125.4</ele>
        <time>2024-04-14T07:05:50Z</time>
      </trkpt>
      <trkpt lat="45.13541" lon="0.60002">
        <ele>125.7</ele>
        <time>2024-04-14T07:05:52Z</time>
      </trkpt>
      <trkpt lat="45.13541" lon="0.59999">
        <ele>126.1</ele>
        <time>2024-04-14T07:05:54Z</time>
      </trkpt>
      <trkpt lat="45.13539" lon="0.59997">
        <ele>126.4</ele>
        <time>2024-04-14T07:05:56Z</time>
      </trkpt>
      <trkpt lat="45.13538" lon="0.59996">
        <ele>126.6</ele>
        <time>2024-04-14T07:05:58Z</time>
      </trkpt>
      <trkpt lat="45.13537" lon="0.59994">
        <ele>126.8</ele>
        <time>2024-04-14T07:05:59Z</time>
      </trkpt>
      <trkpt lat="45.13537" lon="0.59993">
        <ele>126.9</ele>
        <time>2024-04-14T07:06:00Z</time>
      </trkpt>
      <trkpt lat="45.13537" lon="0.59991">
        <ele>127.1</ele>
        <time>2024-04-14T07:06:02Z</time>
      </trkpt>
      <trkpt lat="45.13536" lon="0.59988">
        <ele>127.4</ele>
        <time>2024-04-14T07:06:04Z</time>
      </trkpt>
      <trkpt lat="45.13536" lon="0.59986">
        <ele>127.5</ele>
        <time>2024-04-14T07:06:05Z</time>
      </trkpt>
      <trkpt lat="45.13536" lon="0.59984">
        <ele>127.7</ele>
        <time>2024-04-14T07:06:06Z</time>
      </trkpt>
      <trkpt lat="45.13535" lon="0.5998">
        <ele>128</ele>
        <time>2024-04-14T07:06:08Z</time>
      </trkpt>
      <trkpt lat="45.13535" lon="0.59975">
        <ele>128.3</ele>
        <time>2024-04-14T07:06:10Z</time>
      </trkpt>
      <trkpt lat="45.13535" lon="0.59973">
        <ele>128.5</ele>
        <time>2024-04-14T07:06:11Z</time>
      </trkpt>
      <trkpt lat="45.13534" lon="0.59971">
        <ele>128.5</ele>
        <time>2024-04-14T07:06:12Z</time>
      </trkpt>
      <trkpt lat="45.13535" lon="0.59964">
        <ele>129</ele>
        <time>2024-04-14T07:06:16Z</time>
      </trkpt>
      <trkpt lat="45.13534" lon="0.59959">
        <ele>129.3</ele>
        <time>2024-04-14T07:06:18Z</time>
      </trkpt>
      <trkpt lat="45.13535" lon="0.59955">
        <ele>129.6</ele>
        <time>2024-04-14T07:06:20Z</time>
      </trkpt>
      <trkpt lat="45.13534" lon="0.59951">
        <ele>129.8</ele>
        <time>2024-04-14T07:06:22Z</time>
      </trkpt>
      <trkpt lat="45.13533" lon="0.59948">
        <ele>130.1</ele>
        <time>2024-04-14T07:06:24Z</time>
      </trkpt>
      <trkpt lat="45.13533" lon="0.59944">
        <ele>130.4</ele>
        <time>2024-04-14T07:06:26Z</time>
      </trkpt>
      <trkpt lat="45.13533" lon="0.5994">
        <ele>130.7</ele>
        <time>2024-04-14T07:06:28Z</time>
      </trkpt>
      <trkpt lat="45.13534" lon="0.59937">
        <ele>130.9</ele>
        <time>2024-04-14T07:06:29Z</time>
      </trkpt>
      <trkpt lat="45.13533" lon="0.59934">
        <ele>131.2</ele>
        <time>2024-04-14T07:06:30Z</time>
      </trkpt>
      <trkpt lat="45.13533" lon="0.59929">
        <ele>131.6</ele>
        <time>2024-04-14T07:06:32Z</time>
      </trkpt>
      <trkpt lat="45.13533" lon="0.59925">
        <ele>132.1</ele>
        <time>2024-04-14T07:06:34Z</time>
      </trkpt>
      <trkpt lat="45.13533" lon="0.59923">
        <ele>132.3</ele>
        <time>2024-04-14T07:06:35Z</time>
      </trkpt>
      <trkpt lat="45.13533" lon="0.59921">
        <ele>132.5</ele>
        <time>2024-04-14T07:06:36Z</time>
      </trkpt>
      <trkpt lat="45.13533" lon="0.59919">
        <ele>132.6</ele>
        <time>2024-04-14T07:06:37Z</time>
      </trkpt>
      <trkpt lat="45.13533" lon="0.59917">
        <ele>132.9</ele>
        <time>2024-04-14T07:06:38Z</time>
      </trkpt>
      <trkpt lat="45.13532" lon="0.59914">
        <ele>133.3</ele>
        <time>2024-04-14T07:06:40Z</time>
      </trkpt>
      <trkpt lat="45.13532" lon="0.59912">
        <ele>133.6</ele>
        <time>2024-04-14T07:06:42Z</time>
      </trkpt>
      <trkpt lat="45.13531" lon="0.5991">
        <ele>133.9</ele>
        <time>2024-04-14T07:06:43Z</time>
      </trkpt>
      <trkpt lat="45.13531" lon="0.59908">
        <ele>134.1</ele>
        <time>2024-04-14T07:06:44Z</time>
      </trkpt>
      <trkpt lat="45.1353" lon="0.59905">
        <ele>134.6</ele>
        <time>2024-04-14T07:06:46Z</time>
      </trkpt>
      <trkpt lat="45.1353" lon="0.59901">
        <ele>135.1</ele>
        <time>2024-04-14T07:06:48Z</time>
      </trkpt>
      <trkpt lat="45.1353" lon="0.59899">
        <ele>135.4</ele>
        <time>2024-04-14T07:06:49Z</time>
      </trkpt>
      <trkpt lat="45.1353" lon="0.59897">
        <ele>135.7</ele>
        <time>2024-04-14T07:06:50Z</time>
      </trkpt>
      <trkpt lat="45.13529" lon="0.59894">
        <ele>136.1</ele>
        <time>2024-04-14T07:06:52Z</time>
      </trkpt>
      <trkpt lat="45.13529" lon="0.59892">
        <ele>136.3</ele>
        <time>2024-04-14T07:06:53Z</time>
      </trkpt>
      <trkpt lat="45.13528" lon="0.5989">
        <ele>136.6</ele>
        <time>2024-04-14T07:06:54Z</time>
      </trkpt>
      <trkpt lat="45.13527" lon="0.59889">
        <ele>136.9</ele>
        <time>2024-04-14T07:06:55Z</time>
      </trkpt>
      <trkpt lat="45.13527" lon="0.59887">
        <ele>137.1</ele>
        <time>2024-04-14T07:06:56Z</time>
      </trkpt>
      <trkpt lat="45.13526" lon="0.59885">
        <ele>137.4</ele>
        <time>2024-04-14T07:06:58Z</time>
      </trkpt>
      <trkpt lat="45.13526" lon="0.59883">
        <ele>137.7</ele>
        <time>2024-04-14T07:06:59Z</time>
      </trkpt>
      <trkpt lat="45.13525" lon="0.59881">
        <ele>138.1</ele>
        <time>2024-04-14T07:07:00Z</time>
      </trkpt>
      <trkpt lat="45.13525" lon="0.59877">
        <ele>138.5</ele>
        <time>2024-04-14T07:07:02Z</time>
      </trkpt>
      <trkpt lat="45.13524" lon="0.59875">
        <ele>138.9</ele>
        <time>2024-04-14T07:07:04Z</time>
      </trkpt>
      <trkpt lat="45.13522" lon="0.59873">
        <ele>139.2</ele>
        <time>2024-04-14T07:07:06Z</time>
      </trkpt>
      <trkpt lat="45.1352" lon="0.59872">
        <ele>139.6</ele>
        <time>2024-04-14T07:07:08Z</time>
      </trkpt>
      <trkpt lat="45.13518" lon="0.59869">
        <ele>140.1</ele>
        <time>2024-04-14T07:07:10Z</time>
      </trkpt>
      <trkpt lat="45.13517" lon="0.59869">
        <ele>140.2</ele>
        <time>2024-04-14T07:07:11Z</time>
      </trkpt>
      <trkpt lat="45.13516" lon="0.59868">
        <ele>140.4</ele>
        <time>2024-04-14T07:07:12Z</time>
      </trkpt>
      <trkpt lat="45.13514" lon="0.59866">
        <ele>140.9</ele>
        <time>2024-04-14T07:07:14Z</time>
      </trkpt>
      <trkpt lat="45.13512" lon="0.59865">
        <ele>141.3</ele>
        <time>2024-04-14T07:07:16Z</time>
      </trkpt>
      <trkpt lat="45.1351" lon="0.59864">
        <ele>141.5</ele>
        <time>2024-04-14T07:07:18Z</time>
      </trkpt>
      <trkpt lat="45.13509" lon="0.59863">
        <ele>141.7</ele>
        <time>2024-04-14T07:07:20Z</time>
      </trkpt>
      <trkpt lat="45.13495" lon="0.5985">
        <ele>144.7</ele>
        <time>2024-04-14T07:07:36Z</time>
      </trkpt>
      <trkpt lat="45.13493" lon="0.59848">
        <ele>145.1</ele>
        <time>2024-04-14T07:07:38Z</time>
      </trkpt>
      <trkpt lat="45.13491" lon="0.59844">
        <ele>145.6</ele>
        <time>2024-04-14T07:07:40Z</time>
      </trkpt>
      <trkpt lat="45.13491" lon="0.59842">
        <ele>145.9</ele>
        <time>2024-04-14T07:07:42Z</time>
      </trkpt>
      <trkpt lat="45.1349" lon="0.59838">
        <ele>146.3</ele>
        <time>2024-04-14T07:07:44Z</time>
      </trkpt>
      <trkpt lat="45.13482" lon="0.59829">
        <ele>147.9</ele>
        <time>2024-04-14T07:07:53Z</time>
      </trkpt>
      <trkpt lat="45.1348" lon="0.59828">
        <ele>148.2</ele>
        <time>2024-04-14T07:07:54Z</time>
      </trkpt>
      <trkpt lat="45.13477" lon="0.59826">
        <ele>148.7</ele>
        <time>2024-04-14T07:07:56Z</time>
      </trkpt>
      <trkpt lat="45.13473" lon="0.59825">
        <ele>149.1</ele>
        <time>2024-04-14T07:07:58Z</time>
      </trkpt>
      <trkpt lat="45.13472" lon="0.59824">
        <ele>149.3</ele>
        <time>2024-04-14T07:07:59Z</time>
      </trkpt>
      <trkpt lat="45.13435" lon="0.59813">
        <ele>153.9</ele>
        <time>2024-04-14T07:08:28Z</time>
      </trkpt>
      <trkpt lat="45.13434" lon="0.59812">
        <ele>154</ele>
        <time>2024-04-14T07:08:29Z</time>
      </trkpt>
      <trkpt lat="45.13433" lon="0.59811">
        <ele>154.1</ele>
        <time>2024-04-14T07:08:30Z</time>
      </trkpt>
      <trkpt lat="45.13431" lon="0.59807">
        <ele>154.4</ele>
        <time>2024-04-14T07:08:32Z</time>
      </trkpt>
      <trkpt lat="45.13428" lon="0.59804">
        <ele>154.8</ele>
        <time>2024-04-14T07:08:34Z</time>
      </trkpt>
      <trkpt lat="45.13426" lon="0.59799">
        <ele>155.1</ele>
        <time>2024-04-14T07:08:36Z</time>
      </trkpt>
      <trkpt lat="45.13423" lon="0.59795">
        <ele>155.4</ele>
        <time>2024-04-14T07:08:38Z</time>
      </trkpt>
      <trkpt lat="45.1342" lon="0.59791">
        <ele>155.7</ele>
        <time>2024-04-14T07:08:40Z</time>
      </trkpt>
      <trkpt lat="45.13418" lon="0.59787">
        <ele>155.9</ele>
        <time>2024-04-14T07:08:42Z</time>
      </trkpt>
      <trkpt lat="45.13417" lon="0.59785">
        <ele>156.1</ele>
        <time>2024-04-14T07:08:43Z</time>
      </trkpt>
      <trkpt lat="45.13416" lon="0.59783">
        <ele>156.2</ele>
        <time>2024-04-14T07:08:44Z</time>
      </trkpt>
      <trkpt lat="45.13414" lon="0.59778">
        <ele>156.4</ele>
        <time>2024-04-14T07:08:46Z</time>
      </trkpt>
      <trkpt lat="45.13411" lon="0.59774">
        <ele>156.6</ele>
        <time>2024-04-14T07:08:48Z</time>
      </trkpt>
      <trkpt lat="45.13409" lon="0.5977">
        <ele>156.8</ele>
        <time>2024-04-14T07:08:50Z</time>
      </trkpt>
      <trkpt lat="45.13407" lon="0.59768">
        <ele>156.9</ele>
        <time>2024-04-14T07:08:51Z</time>
      </trkpt>
      <trkpt lat="45.13406" lon="0.59766">
        <ele>157</ele>
        <time>2024-04-14T07:08:52Z</time>
      </trkpt>
      <trkpt lat="45.13405" lon="0.59761">
        <ele>157.2</ele>
        <time>2024-04-14T07:08:54Z</time>
      </trkpt>
      <trkpt lat="45.13402" lon="0.59757">
        <ele>157.3</ele>
        <time>2024-04-14T07:08:56Z</time>
      </trkpt>
      <trkpt lat="45.13401" lon="0.59755">
        <ele>157.4</ele>
        <time>2024-04-14T07:08:57Z</time>
      </trkpt>
      <trkpt lat="45.134" lon="0.59753">
        <ele>157.5</ele>
        <time>2024-04-14T07:08:58Z</time>
      </trkpt>
      <trkpt lat="45.13397" lon="0.59748">
        <ele>157.6</ele>
        <time>2024-04-14T07:09:00Z</time>
      </trkpt>
      <trkpt lat="45.13397" lon="0.59746">
        <ele>157.7</ele>
        <time>2024-04-14T07:09:02Z</time>
      </trkpt>
      <trkpt lat="45.13397" lon="0.59746">
        <ele>157.7</ele>
        <time>2024-04-14T07:09:03Z</time>
      </trkpt>
      <trkpt lat="45.13397" lon="0.59742">
        <ele>157.8</ele>
        <time>2024-04-14T07:09:28Z</time>
      </trkpt>
      <trkpt lat="45.13397" lon="0.59736">
        <ele>157.9</ele>
        <time>2024-04-14T07:09:30Z</time>
      </trkpt>
      <trkpt lat="45.13396" lon="0.59727">
        <ele>157.8</ele>
        <time>2024-04-14T07:09:32Z</time>
      </trkpt>
      <trkpt lat="45.13394" lon="0.59723">
        <ele>157.8</ele>
        <time>2024-04-14T07:09:33Z</time>
      </trkpt>
      <trkpt lat="45.13392" lon="0.59721">
        <ele>157.8</ele>
        <time>2024-04-14T07:09:34Z</time>
      </trkpt>
      <trkpt lat="45.1339" lon="0.59719">
        <ele>157.8</ele>
        <time>2024-04-14T07:09:35Z</time>
      </trkpt>
      <trkpt lat="45.13388" lon="0.59716">
        <ele>157.8</ele>
        <time>2024-04-14T07:09:36Z</time>
      </trkpt>
      <trkpt lat="45.13384" lon="0.59713">
        <ele>157.7</ele>
        <time>2024-04-14T07:09:38Z</time>
      </trkpt>
      <trkpt lat="45.1338" lon="0.5971">
        <ele>157.7</ele>
        <time>2024-04-14T07:09:40Z</time>
      </trkpt>
      <trkpt lat="45.13376" lon="0.59708">
        <ele>157.6</ele>
        <time>2024-04-14T07:09:42Z</time>
      </trkpt>
      <trkpt lat="45.13375" lon="0.59707">
        <ele>157.6</ele>
        <time>2024-04-14T07:09:43Z</time>
      </trkpt>
      <trkpt lat="45.13375" lon="0.59707">
        <ele>157.6</ele>
        <time>2024-04-14T07:09:44Z</time>
      </trkpt>
      <trkpt lat="45.13375" lon="0.59707">
        <ele>157.6</ele>
        <time>2024-04-14T07:09:45Z</time>
      </trkpt>
      <trkpt lat="45.13372" lon="0.59706">
        <ele>157.6</ele>
        <time>2024-04-14T07:10:03Z</time>
      </trkpt>
      <trkpt lat="45.1337" lon="0.59706">
        <ele>157.7</ele>
        <time>2024-04-14T07:10:04Z</time>
      </trkpt>
      <trkpt lat="45.13365" lon="0.59704">
        <ele>157.7</ele>
        <time>2024-04-14T07:10:06Z</time>
      </trkpt>
      <trkpt lat="45.1336" lon="0.597">
        <ele>157.8</ele>
        <time>2024-04-14T07:10:08Z</time>
      </trkpt>
      <trkpt lat="45.13358" lon="0.59698">
        <ele>157.9</ele>
        <time>2024-04-14T07:10:09Z</time>
      </trkpt>
      <trkpt lat="45.13356" lon="0.59695">
        <ele>157.9</ele>
        <time>2024-04-14T07:10:10Z</time>
      </trkpt>
      <trkpt lat="45.13352" lon="0.5969">
        <ele>158</ele>
        <time>2024-04-14T07:10:12Z</time>
      </trkpt>
      <trkpt lat="45.13348" lon="0.59683">
        <ele>158.1</ele>
        <time>2024-04-14T07:10:14Z</time>
      </trkpt>
      <trkpt lat="45.13346" lon="0.5968">
        <ele>158.1</ele>
        <time>2024-04-14T07:10:15Z</time>
      </trkpt>
      <trkpt lat="45.13345" lon="0.59677">
        <ele>158.1</ele>
        <time>2024-04-14T07:10:16Z</time>
      </trkpt>
      <trkpt lat="45.1334" lon="0.59669">
        <ele>158.2</ele>
        <time>2024-04-14T07:10:18Z</time>
      </trkpt>
      <trkpt lat="45.13335" lon="0.59663">
        <ele>158.3</ele>
        <time>2024-04-14T07:10:20Z</time>
      </trkpt>
      <trkpt lat="45.13329" lon="0.59659">
        <ele>158.5</ele>
        <time>2024-04-14T07:10:22Z</time>
      </trkpt>
      <trkpt lat="45.13325" lon="0.59657">
        <ele>158.6</ele>
        <time>2024-04-14T07:10:23Z</time>
      </trkpt>
      <trkpt lat="45.13322" lon="0.59656">
        <ele>158.8</ele>
        <time>2024-04-14T07:10:24Z</time>
      </trkpt>
      <trkpt lat="45.13318" lon="0.59656">
        <ele>159</ele>
        <time>2024-04-14T07:10:25Z</time>
      </trkpt>
      <trkpt lat="45.13315" lon="0.59655">
        <ele>159.2</ele>
        <time>2024-04-14T07:10:26Z</time>
      </trkpt>
      <trkpt lat="45.1331" lon="0.59655">
        <ele>159.6</ele>
        <time>2024-04-14T07:10:28Z</time>
      </trkpt>
      <trkpt lat="45.13307" lon="0.59653">
        <ele>159.8</ele>
        <time>2024-04-14T07:10:29Z</time>
      </trkpt>
      <trkpt lat="45.13306" lon="0.59651">
        <ele>159.8</ele>
        <time>2024-04-14T07:10:30Z</time>
      </trkpt>
      <trkpt lat="45.13305" lon="0.59648">
        <ele>159.8</ele>
        <time>2024-04-14T07:10:31Z</time>
      </trkpt>
      <trkpt lat="45.13305" lon="0.59643">
        <ele>159.8</ele>
        <time>2024-04-14T07:10:32Z</time>
      </trkpt>
      <trkpt lat="45.13304" lon="0.59632">
        <ele>159.8</ele>
        <time>2024-04-14T07:10:34Z</time>
      </trkpt>
      <trkpt lat="45.13304" lon="0.59626">
        <ele>159.7</ele>
        <time>2024-04-14T07:10:35Z</time>
      </trkpt>
      <trkpt lat="45.13304" lon="0.59619">
        <ele>159.6</ele>
        <time>2024-04-14T07:10:36Z</time>
      </trkpt>
      <trkpt lat="45.13304" lon="0.59602">
        <ele>159.1</ele>
        <time>2024-04-14T07:10:38Z</time>
      </trkpt>
      <trkpt lat="45.13304" lon="0.59594">
        <ele>158.8</ele>
        <time>2024-04-14T07:10:39Z</time>
      </trkpt>
      <trkpt lat="45.13304" lon="0.59585">
        <ele>158.4</ele>
        <time>2024-04-14T07:10:40Z</time>
      </trkpt>
      <trkpt lat="45.13304" lon="0.59566">
        <ele>157.6</ele>
        <time>2024-04-14T07:10:42Z</time>
      </trkpt>
      <trkpt lat="45.13302" lon="0.59548">
        <ele>156.8</ele>
        <time>2024-04-14T07:10:44Z</time>
      </trkpt>
      <trkpt lat="45.13298" lon="0.59532">
        <ele>156</ele>
        <time>2024-04-14T07:10:46Z</time>
      </trkpt>
      <trkpt lat="45.13294" lon="0.59527">
        <ele>155.6</ele>
        <time>2024-04-14T07:10:47Z</time>
      </trkpt>
      <trkpt lat="45.1329" lon="0.59524">
        <ele>155.3</ele>
        <time>2024-04-14T07:10:48Z</time>
      </trkpt>
      <trkpt lat="45.13282" lon="0.59523">
        <ele>154.9</ele>
        <time>2024-04-14T07:10:50Z</time>
      </trkpt>
      <trkpt lat="45.13276" lon="0.59523">
        <ele>154.7</ele>
        <time>2024-04-14T07:10:52Z</time>
      </trkpt>
      <trkpt lat="45.1327" lon="0.59521">
        <ele>154.5</ele>
        <time>2024-04-14T07:10:54Z</time>
      </trkpt>
      <trkpt lat="45.13263" lon="0.5952">
        <ele>154.5</ele>
        <time>2024-04-14T07:10:56Z</time>
      </trkpt>
      <trkpt lat="45.1326" lon="0.59519">
        <ele>154.5</ele>
        <time>2024-04-14T07:10:57Z</time>
      </trkpt>
      <trkpt lat="45.13257" lon="0.59519">
        <ele>154.6</ele>
        <time>2024-04-14T07:10:58Z</time>
      </trkpt>
      <trkpt lat="45.1325" lon="0.59517">
        <ele>154.7</ele>
        <time>2024-04-14T07:11:00Z</time>
      </trkpt>
      <trkpt lat="45.13245" lon="0.59515">
        <ele>154.8</ele>
        <time>2024-04-14T07:11:02Z</time>
      </trkpt>
      <trkpt lat="45.13243" lon="0.59513">
        <ele>154.8</ele>
        <time>2024-04-14T07:11:03Z</time>
      </trkpt>
      <trkpt lat="45.13242" lon="0.59509">
        <ele>154.8</ele>
        <time>2024-04-14T07:11:04Z</time>
      </trkpt>
      <trkpt lat="45.13241" lon="0.59503">
        <ele>154.9</ele>
        <time>2024-04-14T07:11:05Z</time>
      </trkpt>
      <trkpt lat="45.13242" lon="0.59496">
        <ele>154.9</ele>
        <time>2024-04-14T07:11:06Z</time>
      </trkpt>
      <trkpt lat="45.13243" lon="0.59488">
        <ele>154.8</ele>
        <time>2024-04-14T07:11:07Z</time>
      </trkpt>
      <trkpt lat="45.13245" lon="0.59479">
        <ele>154.6</ele>
        <time>2024-04-14T07:11:08Z</time>
      </trkpt>
      <trkpt lat="45.13246" lon="0.59469">
        <ele>154.1</ele>
        <time>2024-04-14T07:11:09Z</time>
      </trkpt>
      <trkpt lat="45.13247" lon="0.59459">
        <ele>153.4</ele>
        <time>2024-04-14T07:11:10Z</time>
      </trkpt>
      <trkpt lat="45.1325" lon="0.59439">
        <ele>151.5</ele>
        <time>2024-04-14T07:11:12Z</time>
      </trkpt>
      <trkpt lat="45.13252" lon="0.59418">
        <ele>149</ele>
        <time>2024-04-14T07:11:14Z</time>
      </trkpt>
      <trkpt lat="45.13254" lon="0.59396">
        <ele>146.1</ele>
        <time>2024-04-14T07:11:16Z</time>
      </trkpt>
      <trkpt lat="45.13257" lon="0.59372">
        <ele>143</ele>
        <time>2024-04-14T07:11:18Z</time>
      </trkpt>
      <trkpt lat="45.13259" lon="0.59347">
        <ele>139.8</ele>
        <time>2024-04-14T07:11:20Z</time>
      </trkpt>
      <trkpt lat="45.13262" lon="0.59322">
        <ele>136.3</ele>
        <time>2024-04-14T07:11:22Z</time>
      </trkpt>
      <trkpt lat="45.13264" lon="0.59299">
        <ele>132.7</ele>
        <time>2024-04-14T07:11:24Z</time>
      </trkpt>
      <trkpt lat="45.13265" lon="0.59288">
        <ele>131.1</ele>
        <time>2024-04-14T07:11:25Z</time>
      </trkpt>
      <trkpt lat="45.13266" lon="0.59279">
        <ele>129.9</ele>
        <time>2024-04-14T07:11:26Z</time>
      </trkpt>
      <trkpt lat="45.13267" lon="0.59263">
        <ele>127.6</ele>
        <time>2024-04-14T07:11:28Z</time>
      </trkpt>
      <trkpt lat="45.13268" lon="0.59256">
        <ele>126.5</ele>
        <time>2024-04-14T07:11:29Z</time>
      </trkpt>
      <trkpt lat="45.13268" lon="0.59249">
        <ele>125.5</ele>
        <time>2024-04-14T07:11:30Z</time>
      </trkpt>
      <trkpt lat="45.13269" lon="0.59236">
        <ele>123.8</ele>
        <time>2024-04-14T07:11:32Z</time>
      </trkpt>
      <trkpt lat="45.13269" lon="0.59226">
        <ele>122.4</ele>
        <time>2024-04-14T07:11:34Z</time>
      </trkpt>
      <trkpt lat="45.13269" lon="0.59218">
        <ele>121.4</ele>
        <time>2024-04-14T07:11:36Z</time>
      </trkpt>
      <trkpt lat="45.13268" lon="0.59213">
        <ele>120.7</ele>
        <time>2024-04-14T07:11:38Z</time>
      </trkpt>
      <trkpt lat="45.13266" lon="0.59212">
        <ele>120.3</ele>
        <time>2024-04-14T07:11:39Z</time>
      </trkpt>
      <trkpt lat="45.13264" lon="0.59211">
        <ele>119.9</ele>
        <time>2024-04-14T07:11:40Z</time>
      </trkpt>
      <trkpt lat="45.1326" lon="0.59209">
        <ele>119.2</ele>
        <time>2024-04-14T07:11:42Z</time>
      </trkpt>
      <trkpt lat="45.13257" lon="0.59205">
        <ele>118.5</ele>
        <time>2024-04-14T07:11:44Z</time>
      </trkpt>
      <trkpt lat="45.13253" lon="0.59202">
        <ele>117.8</ele>
        <time>2024-04-14T07:11:46Z</time>
      </trkpt>
      <trkpt lat="45.13249" lon="0.592">
        <ele>117.2</ele>
        <time>2024-04-14T07:11:48Z</time>
      </trkpt>
      <trkpt lat="45.13246" lon="0.59197">
        <ele>116.8</ele>
        <time>2024-04-14T07:11:50Z</time>
      </trkpt>
      <trkpt lat="45.13243" lon="0.59195">
        <ele>116.5</ele>
        <time>2024-04-14T07:11:52Z</time>
      </trkpt>
      <trkpt lat="45.1324" lon="0.59192">
        <ele>116.3</ele>
        <time>2024-04-14T07:11:54Z</time>
      </trkpt>
      <trkpt lat="45.13236" lon="0.59189">
        <ele>116.1</ele>
        <time>2024-04-14T07:11:56Z</time>
      </trkpt>
      <trkpt lat="45.13233" lon="0.59185">
        <ele>116</ele>
        <time>2024-04-14T07:11:58Z</time>
      </trkpt>
      <trkpt lat="45.13233" lon="0.59184">
        <ele>116</ele>
        <time>2024-04-14T07:11:59Z</time>
      </trkpt>
      <trkpt lat="45.13238" lon="0.5918">
        <ele>116.1</ele>
        <time>2024-04-14T07:12:00Z</time>
      </trkpt>
      <trkpt lat="45.13248" lon="0.59176">
        <ele>116.7</ele>
        <time>2024-04-14T07:12:01Z</time>
      </trkpt>
      <trkpt lat="45.1338" lon="0.59016">
        <ele>156.4</ele>
        <time>2024-04-14T07:15:50Z</time>
      </trkpt>
      <trkpt lat="45.13383" lon="0.59015">
        <ele>156.4</ele>
        <time>2024-04-14T07:15:51Z</time>
      </trkpt>
      <trkpt lat="45.13385" lon="0.59014">
        <ele>156.3</ele>
        <time>2024-04-14T07:15:52Z</time>
      </trkpt>
      <trkpt lat="45.1339" lon="0.59014">
        <ele>156.3</ele>
        <time>2024-04-14T07:15:54Z</time>
      </trkpt>
      <trkpt lat="45.13392" lon="0.59014">
        <ele>156.3</ele>
        <time>2024-04-14T07:15:55Z</time>
      </trkpt>
      <trkpt lat="45.13394" lon="0.59013">
        <ele>156.3</ele>
        <time>2024-04-14T07:15:56Z</time>
      </trkpt>
      <trkpt lat="45.13399" lon="0.59012">
        <ele>156.3</ele>
        <time>2024-04-14T07:15:58Z</time>
      </trkpt>
      <trkpt lat="45.13404" lon="0.59011">
        <ele>156.2</ele>
        <time>2024-04-14T07:16:00Z</time>
      </trkpt>
      <trkpt lat="45.13408" lon="0.59006">
        <ele>156.3</ele>
        <time>2024-04-14T07:16:02Z</time>
      </trkpt>
      <trkpt lat="45.13408" lon="0.59003">
        <ele>156.4</ele>
        <time>2024-04-14T07:16:03Z</time>
      </trkpt>
      <trkpt lat="45.13407" lon="0.58999">
        <ele>156.4</ele>
        <time>2024-04-14T07:16:04Z</time>
      </trkpt>
      <trkpt lat="45.13407" lon="0.58992">
        <ele>156.6</ele>
        <time>2024-04-14T07:16:06Z</time>
      </trkpt>
      <trkpt lat="45.13405" lon="0.58984">
        <ele>156.8</ele>
        <time>2024-04-14T07:16:08Z</time>
      </trkpt>
      <trkpt lat="45.13405" lon="0.58981">
        <ele>156.8</ele>
        <time>2024-04-14T07:16:09Z</time>
      </trkpt>
      <trkpt lat="45.13404" lon="0.58977">
        <ele>156.9</ele>
        <time>2024-04-14T07:16:10Z</time>
      </trkpt>
      <trkpt lat="45.13401" lon="0.58971">
        <ele>157</ele>
        <time>2024-04-14T07:16:12Z</time>
      </trkpt>
      <trkpt lat="45.13399" lon="0.58964">
        <ele>157.1</ele>
        <time>2024-04-14T07:16:14Z</time>
      </trkpt>
      <trkpt lat="45.13397" lon="0.58958">
        <ele>157.1</ele>
        <time>2024-04-14T07:16:16Z</time>
      </trkpt>
      <trkpt lat="45.13397" lon="0.58951">
        <ele>157</ele>
        <time>2024-04-14T07:16:18Z</time>
      </trkpt>
      <trkpt lat="45.13398" lon="0.58945">
        <ele>156.8</ele>
        <time>2024-04-14T07:16:20Z</time>
      </trkpt>
      <trkpt lat="45.13398" lon="0.5894">
        <ele>156.6</ele>
        <time>2024-04-14T07:16:22Z</time>
      </trkpt>
      <trkpt lat="45.13397" lon="0.58936">
        <ele>156.5</ele>
        <time>2024-04-14T07:16:24Z</time>
      </trkpt>
      <trkpt lat="45.13397" lon="0.58932">
        <ele>156.2</ele>
        <time>2024-04-14T07:16:26Z</time>
      </trkpt>
      <trkpt lat="45.13397" lon="0.58929">
        <ele>156.1</ele>
        <time>2024-04-14T07:16:27Z</time>
      </trkpt>
      <trkpt lat="45.13397" lon="0.58926">
        <ele>155.9</ele>
        <time>2024-04-14T07:16:28Z</time>
      </trkpt>
      <trkpt lat="45.134" lon="0.58918">
        <ele>155.3</ele>
        <time>2024-04-14T07:16:30Z</time>
      </trkpt>
      <trkpt lat="45.134" lon="0.58909">
        <ele>154.5</ele>
        <time>2024-04-14T07:16:32Z</time>
      </trkpt>
      <trkpt lat="45.134" lon="0.58903">
        <ele>154</ele>
        <time>2024-04-14T07:16:33Z</time>
      </trkpt>
      <trkpt lat="45.13399" lon="0.58897">
        <ele>153.4</ele>
        <time>2024-04-14T07:16:34Z</time>
      </trkpt>
      <trkpt lat="45.13397" lon="0.58882">
        <ele>151.8</ele>
        <time>2024-04-14T07:16:36Z</time>
      </trkpt>
      <trkpt lat="45.13395" lon="0.58873">
        <ele>150.9</ele>
        <time>2024-04-14T07:16:37Z</time>
      </trkpt>
      <trkpt lat="45.13393" lon="0.58864">
        <ele>150</ele>
        <time>2024-04-14T07:16:38Z</time>
      </trkpt>
      <trkpt lat="45.13388" lon="0.58849">
        <ele>148.4</ele>
        <time>2024-04-14T07:16:40Z</time>
      </trkpt>
      <trkpt lat="45.13379" lon="0.58836">
        <ele>147</ele>
        <time>2024-04-14T07:16:42Z</time>
      </trkpt>
      <trkpt lat="45.13374" lon="0.5883">
        <ele>146.4</ele>
        <time>2024-04-14T07:16:43Z</time>
      </trkpt>
      <trkpt lat="45.13367" lon="0.58822">
        <ele>145.7</ele>
        <time>2024-04-14T07:16:44Z</time>
      </trkpt>
      <trkpt lat="45.13356" lon="0.58807">
        <ele>144.1</ele>
        <time>2024-04-14T07:16:46Z</time>
      </trkpt>
      <trkpt lat="45.1335" lon="0.58798">
        <ele>143.1</ele>
        <time>2024-04-14T07:16:47Z</time>
      </trkpt>
      <trkpt lat="45.13345" lon="0.5879">
        <ele>142</ele>
        <time>2024-04-14T07:16:48Z</time>
      </trkpt>
      <trkpt lat="45.1334" lon="0.58779">
        <ele>140.7</ele>
        <time>2024-04-14T07:16:49Z</time>
      </trkpt>
      <trkpt lat="45.13338" lon="0.58767">
        <ele>139.2</ele>
        <time>2024-04-14T07:16:50Z</time>
      </trkpt>
      <trkpt lat="45.13337" lon="0.58756">
        <ele>137.7</ele>
        <time>2024-04-14T07:16:51Z</time>
      </trkpt>
      <trkpt lat="45.13335" lon="0.58743">
        <ele>135.9</ele>
        <time>2024-04-14T07:16:52Z</time>
      </trkpt>
      <trkpt lat="45.13334" lon="0.58729">
        <ele>134.1</ele>
        <time>2024-04-14T07:16:53Z</time>
      </trkpt>
      <trkpt lat="45.13335" lon="0.58715">
        <ele>132.1</ele>
        <time>2024-04-14T07:16:54Z</time>
      </trkpt>
      <trkpt lat="45.13339" lon="0.58684">
        <ele>127.8</ele>
        <time>2024-04-14T07:16:56Z</time>
      </trkpt>
      <trkpt lat="45.13345" lon="0.58652">
        <ele>124.2</ele>
        <time>2024-04-14T07:16:58Z</time>
      </trkpt>
      <trkpt lat="45.13351" lon="0.58622">
        <ele>122.4</ele>
        <time>2024-04-14T07:17:00Z</time>
      </trkpt>
      <trkpt lat="45.13354" lon="0.58609">
        <ele>121.9</ele>
        <time>2024-04-14T07:17:01Z</time>
      </trkpt>
      <trkpt lat="45.13357" lon="0.58598">
        <ele>121.6</ele>
        <time>2024-04-14T07:17:02Z</time>
      </trkpt>
      <trkpt lat="45.13359" lon="0.58587">
        <ele>121.6</ele>
        <time>2024-04-14T07:17:03Z</time>
      </trkpt>
      <trkpt lat="45.13359" lon="0.58577">
        <ele>121.8</ele>
        <time>2024-04-14T07:17:04Z</time>
      </trkpt>
      <trkpt lat="45.13361" lon="0.58562">
        <ele>122.6</ele>
        <time>2024-04-14T07:17:06Z</time>
      </trkpt>
      <trkpt lat="45.1336" lon="0.58551">
        <ele>123.4</ele>
        <time>2024-04-14T07:17:08Z</time>
      </trkpt>
      <trkpt lat="45.13364" lon="0.58546">
        <ele>124.1</ele>
        <time>2024-04-14T07:17:10Z</time>
      </trkpt>
      <trkpt lat="45.13366" lon="0.58542">
        <ele>124.8</ele>
        <time>2024-04-14T07:17:12Z</time>
      </trkpt>
      <trkpt lat="45.13367" lon="0.58538">
        <ele>125.3</ele>
        <time>2024-04-14T07:17:14Z</time>
      </trkpt>
      <trkpt lat="45.13367" lon="0.58537">
        <ele>125.5</ele>
        <time>2024-04-14T07:17:15Z</time>
      </trkpt>
      <trkpt lat="45.13393" lon="0.58444">
        <ele>132</ele>
        <time>2024-04-14T07:19:02Z</time>
      </trkpt>
      <trkpt lat="45.13394" lon="0.5844">
        <ele>132.5</ele>
        <time>2024-04-14T07:19:04Z</time>
      </trkpt>
      <trkpt lat="45.13394" lon="0.58435">
        <ele>133</ele>
        <time>2024-04-14T07:19:06Z</time>
      </trkpt>
      <trkpt lat="45.13395" lon="0.58431">
        <ele>133.5</ele>
        <time>2024-04-14T07:19:08Z</time>
      </trkpt>
      <trkpt lat="45.13395" lon="0.58427">
        <ele>133.9</ele>
        <time>2024-04-14T07:19:10Z</time>
      </trkpt>
      <trkpt lat="45.13396" lon="0.58422">
        <ele>134.4</ele>
        <time>2024-04-14T07:19:12Z</time>
      </trkpt>
      <trkpt lat="45.13396" lon="0.58418">
        <ele>134.8</ele>
        <time>2024-04-14T07:19:14Z</time>
      </trkpt>
      <trkpt lat="45.13397" lon="0.58414">
        <ele>135.2</ele>
        <time>2024-04-14T07:19:16Z</time>
      </trkpt>
      <trkpt lat="45.13397" lon="0.58411">
        <ele>135.4</ele>
        <time>2024-04-14T07:19:17Z</time>
      </trkpt>
      <trkpt lat="45.13398" lon="0.58408">
        <ele>135.6</ele>
        <time>2024-04-14T07:19:18Z</time>
      </trkpt>
      <trkpt lat="45.13398" lon="0.58403">
        <ele>136</ele>
        <time>2024-04-14T07:19:20Z</time>
      </trkpt>
      <trkpt lat="45.13398" lon="0.58398">
        <ele>136.4</ele>
        <time>2024-04-14T07:19:22Z</time>
      </trkpt>
      <trkpt lat="45.13397" lon="0.58393">
        <ele>136.8</ele>
        <time>2024-04-14T07:19:24Z</time>
      </trkpt>
      <trkpt lat="45.13396" lon="0.5839">
        <ele>136.7</ele>
        <time>2024-04-14T07:19:25Z</time>
      </trkpt>
      <trkpt lat="45.13395" lon="0.58388">
        <ele>136.7</ele>
        <time>2024-04-14T07:19:26Z</time>
      </trkpt>
      <trkpt lat="45.13395" lon="0.58381">
        <ele>136.6</ele>
        <time>2024-04-14T07:19:28Z</time>
      </trkpt>
      <trkpt lat="45.13394" lon="0.58378">
        <ele>136.5</ele>
        <time>2024-04-14T07:19:29Z</time>
      </trkpt>
      <trkpt lat="45.13394" lon="0.58375">
        <ele>136.5</ele>
        <time>2024-04-14T07:19:30Z</time>
      </trkpt>
      <trkpt lat="45.13392" lon="0.58368">
        <ele>136.3</ele>
        <time>2024-04-14T07:19:32Z</time>
      </trkpt>
      <trkpt lat="45.13392" lon="0.58365">
        <ele>136.1</ele>
        <time>2024-04-14T07:19:33Z</time>
      </trkpt>
      <trkpt lat="45.13392" lon="0.58361">
        <ele>136</ele>
        <time>2024-04-14T07:19:34Z</time>
      </trkpt>
      <trkpt lat="45.1339" lon="0.58351">
        <ele>135.5</ele>
        <time>2024-04-14T07:19:36Z</time>
      </trkpt>
      <trkpt lat="45.13387" lon="0.58337">
        <ele>134.7</ele>
        <time>2024-04-14T07:19:38Z</time>
      </trkpt>
      <trkpt lat="45.13382" lon="0.5832">
        <ele>133.5</ele>
        <time>2024-04-14T07:19:40Z</time>
      </trkpt>
      <trkpt lat="45.13378" lon="0.58299">
        <ele>131.8</ele>
        <time>2024-04-14T07:19:42Z</time>
      </trkpt>
      <trkpt lat="45.13373" lon="0.58275">
        <ele>129.8</ele>
        <time>2024-04-14T07:19:44Z</time>
      </trkpt>
      <trkpt lat="45.1337" lon="0.58261">
        <ele>128.6</ele>
        <time>2024-04-14T07:19:45Z</time>
      </trkpt>
      <trkpt lat="45.13368" lon="0.58248">
        <ele>127.4</ele>
        <time>2024-04-14T07:19:46Z</time>
      </trkpt>
      <trkpt lat="45.13362" lon="0.58219">
        <ele>124.6</ele>
        <time>2024-04-14T07:19:48Z</time>
      </trkpt>
      <trkpt lat="45.13359" lon="0.58205">
        <ele>123.3</ele>
        <time>2024-04-14T07:19:49Z</time>
      </trkpt>
      <trkpt lat="45.13356" lon="0.58191">
        <ele>121.9</ele>
        <time>2024-04-14T07:19:50Z</time>
      </trkpt>
      <trkpt lat="45.13349" lon="0.58163">
        <ele>119.2</ele>
        <time>2024-04-14T07:19:52Z</time>
      </trkpt>
      <trkpt lat="45.13345" lon="0.58148">
        <ele>117.6</ele>
        <time>2024-04-14T07:19:53Z</time>
      </trkpt>
      <trkpt lat="45.13341" lon="0.58132">
        <ele>115.9</ele>
        <time>2024-04-14T07:19:54Z</time>
      </trkpt>
      <trkpt lat="45.13334" lon="0.58099">
        <ele>113.9</ele>
        <time>2024-04-14T07:19:56Z</time>
      </trkpt>
      <trkpt lat="45.13334" lon="0.58084">
        <ele>113.6</ele>
        <time>2024-04-14T07:19:57Z</time>
      </trkpt>
      <trkpt lat="45.13334" lon="0.58069">
        <ele>113.6</ele>
        <time>2024-04-14T07:19:58Z</time>
      </trkpt>
      <trkpt lat="45.13335" lon="0.58056">
        <ele>113.9</ele>
        <time>2024-04-14T07:19:59Z</time>
      </trkpt>
      <trkpt lat="45.13335" lon="0.58045">
        <ele>114.3</ele>
        <time>2024-04-14T07:20:00Z</time>
      </trkpt>
      <trkpt lat="45.13333" lon="0.58033">
        <ele>114.8</ele>
        <time>2024-04-14T07:20:02Z</time>
      </trkpt>
      <trkpt lat="45.1333" lon="0.5803">
        <ele>115</ele>
        <time>2024-04-14T07:20:03Z</time>
      </trkpt>
      <trkpt lat="45.13327" lon="0.58026">
        <ele>115.3</ele>
        <time>2024-04-14T07:20:04Z</time>
      </trkpt>
      <trkpt lat="45.13324" lon="0.58023">
        <ele>115.6</ele>
        <time>2024-04-14T07:20:05Z</time>
      </trkpt>
      <trkpt lat="45.13321" lon="0.58021">
        <ele>115.8</ele>
        <time>2024-04-14T07:20:06Z</time>
      </trkpt>
      <trkpt lat="45.13317" lon="0.58017">
        <ele>116.2</ele>
        <time>2024-04-14T07:20:08Z</time>
      </trkpt>
      <trkpt lat="45.13314" lon="0.58013">
        <ele>116.5</ele>
        <time>2024-04-14T07:20:10Z</time>
      </trkpt>
      <trkpt lat="45.13311" lon="0.58009">
        <ele>116.9</ele>
        <time>2024-04-14T07:20:12Z</time>
      </trkpt>
      <trkpt lat="45.13309" lon="0.58006">
        <ele>117.1</ele>
        <time>2024-04-14T07:20:13Z</time>
      </trkpt>
      <trkpt lat="45.13308" lon="0.58004">
        <ele>117.2</ele>
        <time>2024-04-14T07:20:14Z</time>
      </trkpt>
      <trkpt lat="45.13306" lon="0.58">
        <ele>117.6</ele>
        <time>2024-04-14T07:20:16Z</time>
      </trkpt>
      <trkpt lat="45.13305" lon="0.57995">
        <ele>117.9</ele>
        <time>2024-04-14T07:20:18Z</time>
      </trkpt>
      <trkpt lat="45.13303" lon="0.57991">
        <ele>118.2</ele>
        <time>2024-04-14T07:20:20Z</time>
      </trkpt>
      <trkpt lat="45.13299" lon="0.57986">
        <ele>118.7</ele>
        <time>2024-04-14T07:20:22Z</time>
      </trkpt>
      <trkpt lat="45.13296" lon="0.57983">
        <ele>119.2</ele>
        <time>2024-04-14T07:20:24Z</time>
      </trkpt>
      <trkpt lat="45.13293" lon="0.57979">
        <ele>119.7</ele>
        <time>2024-04-14T07:20:26Z</time>
      </trkpt>
      <trkpt lat="45.1329" lon="0.57975">
        <ele>120.2</ele>
        <time>2024-04-14T07:20:28Z</time>
      </trkpt>
      <trkpt lat="45.13288" lon="0.57973">
        <ele>120.5</ele>
        <time>2024-04-14T07:20:29Z</time>
      </trkpt>
      <trkpt lat="45.13286" lon="0.57972">
        <ele>120.7</ele>
        <time>2024-04-14T07:20:30Z</time>
      </trkpt>
      <trkpt lat="45.13284" lon="0.57968">
        <ele>121.1</ele>
        <time>2024-04-14T07:20:32Z</time>
      </trkpt>
      <trkpt lat="45.13281" lon="0.57965">
        <ele>121.6</ele>
        <time>2024-04-14T07:20:34Z</time>
      </trkpt>
      <trkpt lat="45.1328" lon="0.57961">
        <ele>122.1</ele>
        <time>2024-04-14T07:20:36Z</time>
      </trkpt>
      <trkpt lat="45.13277" lon="0.57958">
        <ele>122.5</ele>
        <time>2024-04-14T07:20:38Z</time>
      </trkpt>
      <trkpt lat="45.13277" lon="0.57956">
        <ele>122.7</ele>
        <time>2024-04-14T07:20:39Z</time>
      </trkpt>
      <trkpt lat="45.13276" lon="0.57954">
        <ele>123</ele>
        <time>2024-04-14T07:20:40Z</time>
      </trkpt>
      <trkpt lat="45.13272" lon="0.57949">
        <ele>123.6</ele>
        <time>2024-04-14T07:20:42Z</time>
      </trkpt>
      <trkpt lat="45.13271" lon="0.57948">
        <ele>123.9</ele>
        <time>2024-04-14T07:20:43Z</time>
      </trkpt>
      <trkpt lat="45.1327" lon="0.57946">
        <ele>124.1</ele>
        <time>2024-04-14T07:20:44Z</time>
      </trkpt>
      <trkpt lat="45.13268" lon="0.57943">
        <ele>124.6</ele>
        <time>2024-04-14T07:20:46Z</time>
      </trkpt>
      <trkpt lat="45.13266" lon="0.57942">
        <ele>124.8</ele>
        <time>2024-04-14T07:20:47Z</time>
      </trkpt>
      <trkpt lat="45.13264" lon="0.57941">
        <ele>125.1</ele>
        <time>2024-04-14T07:20:48Z</time>
      </trkpt>
      <trkpt lat="45.13262" lon="0.57939">
        <ele>125.5</ele>
        <time>2024-04-14T07:20:49Z</time>
      </trkpt>
      <trkpt lat="45.13261" lon="0.57937">
        <ele>125.8</ele>
        <time>2024-04-14T07:20:50Z</time>
      </trkpt>
      <trkpt lat="45.13259" lon="0.57934">
        <ele>126.2</ele>
        <time>2024-04-14T07:20:52Z</time>
      </trkpt>
      <trkpt lat="45.13257" lon="0.5793">
        <ele>126.7</ele>
        <time>2024-04-14T07:20:54Z</time>
      </trkpt>
      <trkpt lat="45.13255" lon="0.57927">
        <ele>127.2</ele>
        <time>2024-04-14T07:20:56Z</time>
      </trkpt>
      <trkpt lat="45.13253" lon="0.57925">
        <ele>127.6</ele>
        <time>2024-04-14T07:20:58Z</time>
      </trkpt>
      <trkpt lat="45.1325" lon="0.57922">
        <ele>128.1</ele>
        <time>2024-04-14T07:21:00Z</time>
      </trkpt>
      <trkpt lat="45.13246" lon="0.57918">
        <ele>128.9</ele>
        <time>2024-04-14T07:21:02Z</time>
      </trkpt>
      <trkpt lat="45.13246" lon="0.57915">
        <ele>129.2</ele>
        <time>2024-04-14T07:21:03Z</time>
      </trkpt>
      <trkpt lat="45.13245" lon="0.57913">
        <ele>129.5</ele>
        <time>2024-04-14T07:21:04Z</time>
      </trkpt>
      <trkpt lat="45.13243" lon="0.57911">
        <ele>129.9</ele>
        <time>2024-04-14T07:21:06Z</time>
      </trkpt>
      <trkpt lat="45.13241" lon="0.57907">
        <ele>130.4</ele>
        <time>2024-04-14T07:21:08Z</time>
      </trkpt>
      <trkpt lat="45.1324" lon="0.57905">
        <ele>130.7</ele>
        <time>2024-04-14T07:21:09Z</time>
      </trkpt>
      <trkpt lat="45.13238" lon="0.57904">
        <ele>130.8</ele>
        <time>2024-04-14T07:21:10Z</time>
      </trkpt>
      <trkpt lat="45.13237" lon="0.57903">
        <ele>131.1</ele>
        <time>2024-04-14T07:21:11Z</time>
      </trkpt>
      <trkpt lat="45.13236" lon="0.57902">
        <ele>131.3</ele>
        <time>2024-04-14T07:21:12Z</time>
      </trkpt>
      <trkpt lat="45.13234" lon="0.57899">
        <ele>131.7</ele>
        <time>2024-04-14T07:21:14Z</time>
      </trkpt>
      <trkpt lat="45.13232" lon="0.57895">
        <ele>132.1</ele>
        <time>2024-04-14T07:21:16Z</time>
      </trkpt>
      <trkpt lat="45.13231" lon="0.57891">
        <ele>132.5</ele>
        <time>2024-04-14T07:21:18Z</time>
      </trkpt>
      <trkpt lat="45.13229" lon="0.5789">
        <ele>132.8</ele>
        <time>2024-04-14T07:21:19Z</time>
      </trkpt>
      <trkpt lat="45.13227" lon="0.57889">
        <ele>133.1</ele>
        <time>2024-04-14T07:21:20Z</time>
      </trkpt>
      <trkpt lat="45.13225" lon="0.57887">
        <ele>133.6</ele>
        <time>2024-04-14T07:21:22Z</time>
      </trkpt>
      <trkpt lat="45.13224" lon="0.57885">
        <ele>133.8</ele>
        <time>2024-04-14T07:21:23Z</time>
      </trkpt>
      <trkpt lat="45.13223" lon="0.57883">
        <ele>134</ele>
        <time>2024-04-14T07:21:24Z</time>
      </trkpt>
      <trkpt lat="45.13222" lon="0.5788">
        <ele>134.5</ele>
        <time>2024-04-14T07:21:26Z</time>
      </trkpt>
      <trkpt lat="45.13221" lon="0.57878">
        <ele>134.8</ele>
        <time>2024-04-14T07:21:28Z</time>
      </trkpt>
      <trkpt lat="45.1322" lon="0.57875">
        <ele>135.1</ele>
        <time>2024-04-14T07:21:30Z</time>
      </trkpt>
      <trkpt lat="45.13218" lon="0.57874">
        <ele>135.5</ele>
        <time>2024-04-14T07:21:32Z</time>
      </trkpt>
      <trkpt lat="45.13216" lon="0.57872">
        <ele>135.8</ele>
        <time>2024-04-14T07:21:34Z</time>
      </trkpt>
      <trkpt lat="45.13214" lon="0.57869">
        <ele>136.4</ele>
        <time>2024-04-14T07:21:36Z</time>
      </trkpt>
      <trkpt lat="45.13212" lon="0.57867">
        <ele>136.8</ele>
        <time>2024-04-14T07:21:38Z</time>
      </trkpt>
      <trkpt lat="45.13211" lon="0.57865">
        <ele>137.1</ele>
        <time>2024-04-14T07:21:40Z</time>
      </trkpt>
      <trkpt lat="45.13209" lon="0.57864">
        <ele>137.5</ele>
        <time>2024-04-14T07:21:42Z</time>
      </trkpt>
      <trkpt lat="45.13208" lon="0.57862">
        <ele>137.8</ele>
        <time>2024-04-14T07:21:44Z</time>
      </trkpt>
      <trkpt lat="45.13207" lon="0.57859">
        <ele>138.3</ele>
        <time>2024-04-14T07:21:46Z</time>
      </trkpt>
      <trkpt lat="45.13148" lon="0.57764">
        <ele>156.9</ele>
        <time>2024-04-14T07:23:59Z</time>
      </trkpt>
      <trkpt lat="45.13145" lon="0.57763">
        <ele>157.4</ele>
        <time>2024-04-14T07:24:00Z</time>
      </trkpt>
      <trkpt lat="45.13141" lon="0.57759">
        <ele>158.4</ele>
        <time>2024-04-14T07:24:02Z</time>
      </trkpt>
      <trkpt lat="45.13137" lon="0.57756">
        <ele>159.1</ele>
        <time>2024-04-14T07:24:04Z</time>
      </trkpt>
      <trkpt lat="45.13134" lon="0.57753">
        <ele>159.7</ele>
        <time>2024-04-14T07:24:06Z</time>
      </trkpt>
      <trkpt lat="45.13131" lon="0.57751">
        <ele>160.3</ele>
        <time>2024-04-14T07:24:08Z</time>
      </trkpt>
      <trkpt lat="45.13128" lon="0.57749">
        <ele>160.7</ele>
        <time>2024-04-14T07:24:10Z</time>
      </trkpt>
      <trkpt lat="45.13127" lon="0.57747">
        <ele>161</ele>
        <time>2024-04-14T07:24:11Z</time>
      </trkpt>
      <trkpt lat="45.13126" lon="0.57745">
        <ele>161.3</ele>
        <time>2024-04-14T07:24:12Z</time>
      </trkpt>
      <trkpt lat="45.13125" lon="0.57744">
        <ele>161.4</ele>
        <time>2024-04-14T07:24:13Z</time>
      </trkpt>
      <trkpt lat="45.1312" lon="0.57629">
        <ele>171.6</ele>
        <time>2024-04-14T07:25:27Z</time>
      </trkpt>
      <trkpt lat="45.13121" lon="0.57626">
        <ele>171.5</ele>
        <time>2024-04-14T07:25:28Z</time>
      </trkpt>
      <trkpt lat="45.13121" lon="0.57622">
        <ele>171.4</ele>
        <time>2024-04-14T07:25:29Z</time>
      </trkpt>
      <trkpt lat="45.13121" lon="0.57618">
        <ele>171.3</ele>
        <time>2024-04-14T07:25:30Z</time>
      </trkpt>
      <trkpt lat="45.13123" lon="0.57611">
        <ele>171</ele>
        <time>2024-04-14T07:25:32Z</time>
      </trkpt>
      <trkpt lat="45.13122" lon="0.57602">
        <ele>170.6</ele>
        <time>2024-04-14T07:25:34Z</time>
      </trkpt>
      <trkpt lat="45.13122" lon="0.57592">
        <ele>170.1</ele>
        <time>2024-04-14T07:25:36Z</time>
      </trkpt>
      <trkpt lat="45.13124" lon="0.57582">
        <ele>169.5</ele>
        <time>2024-04-14T07:25:38Z</time>
      </trkpt>
      <trkpt lat="45.13124" lon="0.57575">
        <ele>169.1</ele>
        <time>2024-04-14T07:25:39Z</time>
      </trkpt>
      <trkpt lat="45.13124" lon="0.5757">
        <ele>168.8</ele>
        <time>2024-04-14T07:25:40Z</time>
      </trkpt>
      <trkpt lat="45.13124" lon="0.57556">
        <ele>168.1</ele>
        <time>2024-04-14T07:25:42Z</time>
      </trkpt>
      <trkpt lat="45.13122" lon="0.57539">
        <ele>167.5</ele>
        <time>2024-04-14T07:25:44Z</time>
      </trkpt>
      <trkpt lat="45.13119" lon="0.57521">
        <ele>167.2</ele>
        <time>2024-04-14T07:25:46Z</time>
      </trkpt>
      <trkpt lat="45.13119" lon="0.57505">
        <ele>167.1</ele>
        <time>2024-04-14T07:25:48Z</time>
      </trkpt>
      <trkpt lat="45.1312" lon="0.57493">
        <ele>167.1</ele>
        <time>2024-04-14T07:25:50Z</time>
      </trkpt>
      <trkpt lat="45.1312" lon="0.5749">
        <ele>167.1</ele>
        <time>2024-04-14T07:25:51Z</time>
      </trkpt>
      <trkpt lat="45.1312" lon="0.57488">
        <ele>167.1</ele>
        <time>2024-04-14T07:25:52Z</time>
      </trkpt>
      <trkpt lat="45.13119" lon="0.57483">
        <ele>167.1</ele>
        <time>2024-04-14T07:25:54Z</time>
      </trkpt>
      <trkpt lat="45.13116" lon="0.57478">
        <ele>167</ele>
        <time>2024-04-14T07:25:56Z</time>
      </trkpt>
      <trkpt lat="45.13115" lon="0.57473">
        <ele>166.9</ele>
        <time>2024-04-14T07:25:58Z</time>
      </trkpt>
      <trkpt lat="45.13114" lon="0.57468">
        <ele>166.9</ele>
        <time>2024-04-14T07:26:00Z</time>
      </trkpt>
      <trkpt lat="45.13114" lon="0.57462">
        <ele>166.9</ele>
        <time>2024-04-14T07:26:02Z</time>
      </trkpt>
      <trkpt lat="45.13114" lon="0.57459">
        <ele>166.9</ele>
        <time>2024-04-14T07:26:03Z</time>
      </trkpt>
      <trkpt lat="45.13114" lon="0.57456">
        <ele>166.9</ele>
        <time>2024-04-14T07:26:04Z</time>
      </trkpt>
      <trkpt lat="45.13114" lon="0.57451">
        <ele>166.9</ele>
        <time>2024-04-14T07:26:06Z</time>
      </trkpt>
      <trkpt lat="45.13113" lon="0.57445">
        <ele>167</ele>
        <time>2024-04-14T07:26:08Z</time>
      </trkpt>
      <trkpt lat="45.13112" lon="0.57438">
        <ele>167</ele>
        <time>2024-04-14T07:26:10Z</time>
      </trkpt>
      <trkpt lat="45.1311" lon="0.57431">
        <ele>167.1</ele>
        <time>2024-04-14T07:26:12Z</time>
      </trkpt>
      <trkpt lat="45.13109" lon="0.57424">
        <ele>167.1</ele>
        <time>2024-04-14T07:26:14Z</time>
      </trkpt>
      <trkpt lat="45.13108" lon="0.57417">
        <ele>167.1</ele>
        <time>2024-04-14T07:26:16Z</time>
      </trkpt>
      <trkpt lat="45.13107" lon="0.57409">
        <ele>167.1</ele>
        <time>2024-04-14T07:26:18Z</time>
      </trkpt>
      <trkpt lat="45.13105" lon="0.57403">
        <ele>167</ele>
        <time>2024-04-14T07:26:20Z</time>
      </trkpt>
      <trkpt lat="45.13105" lon="0.57396">
        <ele>166.9</ele>
        <time>2024-04-14T07:26:22Z</time>
      </trkpt>
      <trkpt lat="45.13105" lon="0.57389">
        <ele>166.8</ele>
        <time>2024-04-14T07:26:24Z</time>
      </trkpt>
      <trkpt lat="45.13104" lon="0.57386">
        <ele>166.8</ele>
        <time>2024-04-14T07:26:25Z</time>
      </trkpt>
      <trkpt lat="45.13102" lon="0.57381">
        <ele>166.7</ele>
        <time>2024-04-14T07:26:26Z</time>
      </trkpt>
      <trkpt lat="45.13097" lon="0.57377">
        <ele>166.7</ele>
        <time>2024-04-14T07:26:27Z</time>
      </trkpt>
      <trkpt lat="45.13092" lon="0.57374">
        <ele>166.5</ele>
        <time>2024-04-14T07:26:28Z</time>
      </trkpt>
      <trkpt lat="45.1308" lon="0.5737">
        <ele>166.2</ele>
        <time>2024-04-14T07:26:30Z</time>
      </trkpt>
      <trkpt lat="45.13066" lon="0.57367">
        <ele>165.5</ele>
        <time>2024-04-14T07:26:32Z</time>
      </trkpt>
      <trkpt lat="45.13059" lon="0.57366">
        <ele>165.1</ele>
        <time>2024-04-14T07:26:33Z</time>
      </trkpt>
      <trkpt lat="45.13051" lon="0.57366">
        <ele>164.6</ele>
        <time>2024-04-14T07:26:34Z</time>
      </trkpt>
      <trkpt lat="45.13034" lon="0.57367">
        <ele>163.5</ele>
        <time>2024-04-14T07:26:36Z</time>
      </trkpt>
      <trkpt lat="45.13025" lon="0.57368">
        <ele>163</ele>
        <time>2024-04-14T07:26:37Z</time>
      </trkpt>
      <trkpt lat="45.13016" lon="0.5737">
        <ele>162.5</ele>
        <time>2024-04-14T07:26:38Z</time>
      </trkpt>
      <trkpt lat="45.12997" lon="0.57372">
        <ele>161.2</ele>
        <time>2024-04-14T07:26:40Z</time>
      </trkpt>
      <trkpt lat="45.12977" lon="0.57375">
        <ele>160.1</ele>
        <time>2024-04-14T07:26:42Z</time>
      </trkpt>
      <trkpt lat="45.12957" lon="0.57382">
        <ele>159.5</ele>
        <time>2024-04-14T07:26:44Z</time>
      </trkpt>
      <trkpt lat="45.12939" lon="0.57386">
        <ele>158.9</ele>
        <time>2024-04-14T07:26:46Z</time>
      </trkpt>
      <trkpt lat="45.12923" lon="0.57389">
        <ele>158.4</ele>
        <time>2024-04-14T07:26:48Z</time>
      </trkpt>
      <trkpt lat="45.12908" lon="0.57394">
        <ele>158.1</ele>
        <time>2024-04-14T07:26:50Z</time>
      </trkpt>
      <trkpt lat="45.12895" lon="0.57398">
        <ele>158.1</ele>
        <time>2024-04-14T07:26:52Z</time>
      </trkpt>
      <trkpt lat="45.12882" lon="0.57398">
        <ele>157.8</ele>
        <time>2024-04-14T07:26:54Z</time>
      </trkpt>
      <trkpt lat="45.1287" lon="0.57395">
        <ele>157.4</ele>
        <time>2024-04-14T07:26:56Z</time>
      </trkpt>
      <trkpt lat="45.12857" lon="0.57395">
        <ele>157.3</ele>
        <time>2024-04-14T07:26:58Z</time>
      </trkpt>
      <trkpt lat="45.12846" lon="0.57397">
        <ele>157.4</ele>
        <time>2024-04-14T07:27:00Z</time>
      </trkpt>
      <trkpt lat="45.12837" lon="0.57398">
        <ele>157.5</ele>
        <time>2024-04-14T07:27:02Z</time>
      </trkpt>
      <trkpt lat="45.1283" lon="0.574">
        <ele>157.7</ele>
        <time>2024-04-14T07:27:04Z</time>
      </trkpt>
      <trkpt lat="45.12823" lon="0.57401">
        <ele>157.9</ele>
        <time>2024-04-14T07:27:06Z</time>
      </trkpt>
      <trkpt lat="45.1282" lon="0.57401">
        <ele>158</ele>
        <time>2024-04-14T07:27:07Z</time>
      </trkpt>
      <trkpt lat="45.12817" lon="0.574">
        <ele>158.2</ele>
        <time>2024-04-14T07:27:08Z</time>
      </trkpt>
      <trkpt lat="45.1281" lon="0.57398">
        <ele>158.6</ele>
        <time>2024-04-14T07:27:10Z</time>
      </trkpt>
      <trkpt lat="45.12806" lon="0.57397">
        <ele>158.8</ele>
        <time>2024-04-14T07:27:11Z</time>
      </trkpt>
      <trkpt lat="45.12802" lon="0.57396">
        <ele>158.9</ele>
        <time>2024-04-14T07:27:12Z</time>
      </trkpt>
      <trkpt lat="45.12797" lon="0.57395">
        <ele>159.2</ele>
        <time>2024-04-14T07:27:14Z</time>
      </trkpt>
      <trkpt lat="45.12791" lon="0.57391">
        <ele>159.6</ele>
        <time>2024-04-14T07:27:16Z</time>
      </trkpt>
      <trkpt lat="45.12786" lon="0.57388">
        <ele>160</ele>
        <time>2024-04-14T07:27:18Z</time>
      </trkpt>
      <trkpt lat="45.12784" lon="0.57387">
        <ele>160.1</ele>
        <time>2024-04-14T07:27:19Z</time>
      </trkpt>
      <trkpt lat="45.12781" lon="0.57385">
        <ele>160.3</ele>
        <time>2024-04-14T07:27:20Z</time>
      </trkpt>
      <trkpt lat="45.12776" lon="0.57382">
        <ele>160.6</ele>
        <time>2024-04-14T07:27:22Z</time>
      </trkpt>
      <trkpt lat="45.1277" lon="0.5738">
        <ele>161.1</ele>
        <time>2024-04-14T07:27:24Z</time>
      </trkpt>
      <trkpt lat="45.12764" lon="0.57377">
        <ele>161.5</ele>
        <time>2024-04-14T07:27:26Z</time>
      </trkpt>
      <trkpt lat="45.12758" lon="0.57375">
        <ele>161.7</ele>
        <time>2024-04-14T07:27:28Z</time>
      </trkpt>
      <trkpt lat="45.12756" lon="0.57373">
        <ele>161.8</ele>
        <time>2024-04-14T07:27:29Z</time>
      </trkpt>
      <trkpt lat="45.12753" lon="0.57372">
        <ele>161.8</ele>
        <time>2024-04-14T07:27:30Z</time>
      </trkpt>
      <trkpt lat="45.12749" lon="0.5737">
        <ele>162</ele>
        <time>2024-04-14T07:27:32Z</time>
      </trkpt>
      <trkpt lat="45.12747" lon="0.57369">
        <ele>162.1</ele>
        <time>2024-04-14T07:27:33Z</time>
      </trkpt>
      <trkpt lat="45.12746" lon="0.57369">
        <ele>162.1</ele>
        <time>2024-04-14T07:27:34Z</time>
      </trkpt>
      <trkpt lat="45.12744" lon="0.57368">
        <ele>162.2</ele>
        <time>2024-04-14T07:27:35Z</time>
      </trkpt>
      <trkpt lat="45.12742" lon="0.57367">
        <ele>162.2</ele>
        <time>2024-04-14T07:27:36Z</time>
      </trkpt>
      <trkpt lat="45.12738" lon="0.57365">
        <ele>162.4</ele>
        <time>2024-04-14T07:27:38Z</time>
      </trkpt>
      <trkpt lat="45.12734" lon="0.57364">
        <ele>162.5</ele>
        <time>2024-04-14T07:27:40Z</time>
      </trkpt>
      <trkpt lat="45.12732" lon="0.57364">
        <ele>162.5</ele>
        <time>2024-04-14T07:27:41Z</time>
      </trkpt>
      <trkpt lat="45.12729" lon="0.57364">
        <ele>162.6</ele>
        <time>2024-04-14T07:27:42Z</time>
      </trkpt>
      <trkpt lat="45.12725" lon="0.57362">
        <ele>162.7</ele>
        <time>2024-04-14T07:27:44Z</time>
      </trkpt>
      <trkpt lat="45.12717" lon="0.57361">
        <ele>162.9</ele>
        <time>2024-04-14T07:27:46Z</time>
      </trkpt>
      <trkpt lat="45.12714" lon="0.57359">
        <ele>163</ele>
        <time>2024-04-14T07:27:47Z</time>
      </trkpt>
      <trkpt lat="45.12711" lon="0.57358">
        <ele>163</ele>
        <time>2024-04-14T07:27:48Z</time>
      </trkpt>
      <trkpt lat="45.12706" lon="0.57356">
        <ele>163.2</ele>
        <time>2024-04-14T07:27:50Z</time>
      </trkpt>
      <trkpt lat="45.12701" lon="0.57353">
        <ele>163.4</ele>
        <time>2024-04-14T07:27:52Z</time>
      </trkpt>
      <trkpt lat="45.12695" lon="0.57349">
        <ele>163.5</ele>
        <time>2024-04-14T07:27:54Z</time>
      </trkpt>
      <trkpt lat="45.12691" lon="0.57347">
        <ele>163.6</ele>
        <time>2024-04-14T07:27:56Z</time>
      </trkpt>
      <trkpt lat="45.12689" lon="0.57345">
        <ele>163.7</ele>
        <time>2024-04-14T07:27:57Z</time>
      </trkpt>
      <trkpt lat="45.12685" lon="0.57343">
        <ele>163.8</ele>
        <time>2024-04-14T07:27:58Z</time>
      </trkpt>
      <trkpt lat="45.1268" lon="0.57341">
        <ele>163.9</ele>
        <time>2024-04-14T07:28:00Z</time>
      </trkpt>
      <trkpt lat="45.12676" lon="0.5734">
        <ele>164</ele>
        <time>2024-04-14T07:28:02Z</time>
      </trkpt>
      <trkpt lat="45.12672" lon="0.57339">
        <ele>164.1</ele>
        <time>2024-04-14T07:28:04Z</time>
      </trkpt>
      <trkpt lat="45.12666" lon="0.57338">
        <ele>164.3</ele>
        <time>2024-04-14T07:28:06Z</time>
      </trkpt>
      <trkpt lat="45.12662" lon="0.57337">
        <ele>164.4</ele>
        <time>2024-04-14T07:28:08Z</time>
      </trkpt>
      <trkpt lat="45.1266" lon="0.57337">
        <ele>164.4</ele>
        <time>2024-04-14T07:28:09Z</time>
      </trkpt>
      <trkpt lat="45.12658" lon="0.57338">
        <ele>164.5</ele>
        <time>2024-04-14T07:28:10Z</time>
      </trkpt>
      <trkpt lat="45.12656" lon="0.57338">
        <ele>164.5</ele>
        <time>2024-04-14T07:28:11Z</time>
      </trkpt>
      <trkpt lat="45.12655" lon="0.57337">
        <ele>164.5</ele>
        <time>2024-04-14T07:28:12Z</time>
      </trkpt>
      <trkpt lat="45.12652" lon="0.57336">
        <ele>164.6</ele>
        <time>2024-04-14T07:28:14Z</time>
      </trkpt>
      <trkpt lat="45.12651" lon="0.57335">
        <ele>164.7</ele>
        <time>2024-04-14T07:28:15Z</time>
      </trkpt>
      <trkpt lat="45.1265" lon="0.57335">
        <ele>164.7</ele>
        <time>2024-04-14T07:28:16Z</time>
      </trkpt>
      <trkpt lat="45.12648" lon="0.57335">
        <ele>164.8</ele>
        <time>2024-04-14T07:28:18Z</time>
      </trkpt>
      <trkpt lat="45.12647" lon="0.57335">
        <ele>164.8</ele>
        <time>2024-04-14T07:28:19Z</time>
      </trkpt>
      <trkpt lat="45.12645" lon="0.57335">
        <ele>164.8</ele>
        <time>2024-04-14T07:28:20Z</time>
      </trkpt>
      <trkpt lat="45.12642" lon="0.57335">
        <ele>165</ele>
        <time>2024-04-14T07:28:22Z</time>
      </trkpt>
      <trkpt lat="45.12639" lon="0.57336">
        <ele>165</ele>
        <time>2024-04-14T07:28:24Z</time>
      </trkpt>
      <trkpt lat="45.12638" lon="0.57336">
        <ele>165.1</ele>
        <time>2024-04-14T07:28:25Z</time>
      </trkpt>
      <trkpt lat="45.12635" lon="0.57336">
        <ele>165.2</ele>
        <time>2024-04-14T07:28:26Z</time>
      </trkpt>
      <trkpt lat="45.12632" lon="0.57337">
        <ele>165.3</ele>
        <time>2024-04-14T07:28:28Z</time>
      </trkpt>
      <trkpt lat="45.12629" lon="0.57338">
        <ele>165.4</ele>
        <time>2024-04-14T07:28:30Z</time>
      </trkpt>
      <trkpt lat="45.12628" lon="0.5734">
        <ele>165.5</ele>
        <time>2024-04-14T07:28:31Z</time>
      </trkpt>
      <trkpt lat="45.12595" lon="0.57345">
        <ele>167</ele>
        <time>2024-04-14T07:28:48Z</time>
      </trkpt>
      <trkpt lat="45.12591" lon="0.57346">
        <ele>167.2</ele>
        <time>2024-04-14T07:28:50Z</time>
      </trkpt>
      <trkpt lat="45.12589" lon="0.57346">
        <ele>167.3</ele>
        <time>2024-04-14T07:28:51Z</time>
      </trkpt>
      <trkpt lat="45.12588" lon="0.57347">
        <ele>167.4</ele>
        <time>2024-04-14T07:28:52Z</time>
      </trkpt>
      <trkpt lat="45.12582" lon="0.57349">
        <ele>167.7</ele>
        <time>2024-04-14T07:28:54Z</time>
      </trkpt>
      <trkpt lat="45.12577" lon="0.57349">
        <ele>168</ele>
        <time>2024-04-14T07:28:56Z</time>
      </trkpt>
      <trkpt lat="45.12574" lon="0.57349">
        <ele>168.2</ele>
        <time>2024-04-14T07:28:58Z</time>
      </trkpt>
      <trkpt lat="45.1257" lon="0.57349">
        <ele>168.4</ele>
        <time>2024-04-14T07:29:00Z</time>
      </trkpt>
      <trkpt lat="45.12568" lon="0.5735">
        <ele>168.5</ele>
        <time>2024-04-14T07:29:02Z</time>
      </trkpt>
      <trkpt lat="45.12564" lon="0.57351">
        <ele>168.8</ele>
        <time>2024-04-14T07:29:04Z</time>
      </trkpt>
      <trkpt lat="45.12558" lon="0.57353">
        <ele>169.1</ele>
        <time>2024-04-14T07:29:06Z</time>
      </trkpt>
      <trkpt lat="45.12553" lon="0.57355">
        <ele>169.4</ele>
        <time>2024-04-14T07:29:08Z</time>
      </trkpt>
      <trkpt lat="45.12549" lon="0.57356">
        <ele>169.6</ele>
        <time>2024-04-14T07:29:10Z</time>
      </trkpt>
      <trkpt lat="45.12545" lon="0.57358">
        <ele>169.8</ele>
        <time>2024-04-14T07:29:12Z</time>
      </trkpt>
      <trkpt lat="45.12542" lon="0.57359">
        <ele>170</ele>
        <time>2024-04-14T07:29:14Z</time>
      </trkpt>
      <trkpt lat="45.12538" lon="0.57361">
        <ele>170.2</ele>
        <time>2024-04-14T07:29:16Z</time>
      </trkpt>
      <trkpt lat="45.12536" lon="0.57362">
        <ele>170.4</ele>
        <time>2024-04-14T07:29:17Z</time>
      </trkpt>
      <trkpt lat="45.12534" lon="0.57363">
        <ele>170.5</ele>
        <time>2024-04-14T07:29:18Z</time>
      </trkpt>
      <trkpt lat="45.1253" lon="0.57364">
        <ele>170.8</ele>
        <time>2024-04-14T07:29:20Z</time>
      </trkpt>
      <trkpt lat="45.12526" lon="0.57365">
        <ele>171</ele>
        <time>2024-04-14T07:29:22Z</time>
      </trkpt>
      <trkpt lat="45.12524" lon="0.57365">
        <ele>171.2</ele>
        <time>2024-04-14T07:29:23Z</time>
      </trkpt>
      <trkpt lat="45.12521" lon="0.57365">
        <ele>171.4</ele>
        <time>2024-04-14T07:29:24Z</time>
      </trkpt>
      <trkpt lat="45.12517" lon="0.57366">
        <ele>171.7</ele>
        <time>2024-04-14T07:29:26Z</time>
      </trkpt>
      <trkpt lat="45.12514" lon="0.57367">
        <ele>171.9</ele>
        <time>2024-04-14T07:29:28Z</time>
      </trkpt>
      <trkpt lat="45.1251" lon="0.57368">
        <ele>172.2</ele>
        <time>2024-04-14T07:29:30Z</time>
      </trkpt>
      <trkpt lat="45.12506" lon="0.5737">
        <ele>172.4</ele>
        <time>2024-04-14T07:29:32Z</time>
      </trkpt>
      <trkpt lat="45.12503" lon="0.57373">
        <ele>172.7</ele>
        <time>2024-04-14T07:29:34Z</time>
      </trkpt>
      <trkpt lat="45.125" lon="0.57376">
        <ele>173</ele>
        <time>2024-04-14T07:29:36Z</time>
      </trkpt>
      <trkpt lat="45.12495" lon="0.57378">
        <ele>173.5</ele>
        <time>2024-04-14T07:29:38Z</time>
      </trkpt>
      <trkpt lat="45.12492" lon="0.5738">
        <ele>173.8</ele>
        <time>2024-04-14T07:29:40Z</time>
      </trkpt>
      <trkpt lat="45.12489" lon="0.57382">
        <ele>174.1</ele>
        <time>2024-04-14T07:29:42Z</time>
      </trkpt>
      <trkpt lat="45.12487" lon="0.57383">
        <ele>174.3</ele>
        <time>2024-04-14T07:29:44Z</time>
      </trkpt>
      <trkpt lat="45.12485" lon="0.57385">
        <ele>174.5</ele>
        <time>2024-04-14T07:29:46Z</time>
      </trkpt>
      <trkpt lat="45.12483" lon="0.57387">
        <ele>174.8</ele>
        <time>2024-04-14T07:29:48Z</time>
      </trkpt>
      <trkpt lat="45.12481" lon="0.57388">
        <ele>174.9</ele>
        <time>2024-04-14T07:29:49Z</time>
      </trkpt>
      <trkpt lat="45.1248" lon="0.57388">
        <ele>175</ele>
        <time>2024-04-14T07:29:50Z</time>
      </trkpt>
      <trkpt lat="45.12479" lon="0.57387">
        <ele>175.1</ele>
        <time>2024-04-14T07:29:51Z</time>
      </trkpt>
      <trkpt lat="45.12478" lon="0.57386">
        <ele>175.2</ele>
        <time>2024-04-14T07:29:52Z</time>
      </trkpt>
      <trkpt lat="45.12478" lon="0.57384">
        <ele>175.3</ele>
        <time>2024-04-14T07:29:54Z</time>
      </trkpt>
      <trkpt lat="45.12478" lon="0.57383">
        <ele>175.4</ele>
        <time>2024-04-14T07:29:55Z</time>
      </trkpt>
      <trkpt lat="45.12478" lon="0.57381">
        <ele>175.5</ele>
        <time>2024-04-14T07:29:56Z</time>
      </trkpt>
      <trkpt lat="45.1247" lon="0.57382">
        <ele>176.1</ele>
        <time>2024-04-14T07:29:58Z</time>
      </trkpt>
      <trkpt lat="45.12471" lon="0.57379">
        <ele>176.3</ele>
        <time>2024-04-14T07:30:00Z</time>
      </trkpt>
      <trkpt lat="45.12472" lon="0.57378">
        <ele>176.4</ele>
        <time>2024-04-14T07:30:01Z</time>
      </trkpt>
      <trkpt lat="45.12472" lon="0.57376">
        <ele>176.4</ele>
        <time>2024-04-14T07:30:02Z</time>
      </trkpt>
      <trkpt lat="45.12473" lon="0.57372">
        <ele>176.6</ele>
        <time>2024-04-14T07:30:04Z</time>
      </trkpt>
      <trkpt lat="45.12472" lon="0.57368">
        <ele>176.7</ele>
        <time>2024-04-14T07:30:06Z</time>
      </trkpt>
      <trkpt lat="45.12472" lon="0.57366">
        <ele>176.8</ele>
        <time>2024-04-14T07:30:08Z</time>
      </trkpt>
      <trkpt lat="45.1247" lon="0.57364">
        <ele>176.9</ele>
        <time>2024-04-14T07:30:10Z</time>
      </trkpt>
      <trkpt lat="45.12468" lon="0.57361">
        <ele>177.1</ele>
        <time>2024-04-14T07:30:12Z</time>
      </trkpt>
      <trkpt lat="45.12465" lon="0.57357">
        <ele>177.2</ele>
        <time>2024-04-14T07:30:14Z</time>
      </trkpt>
      <trkpt lat="45.1246" lon="0.57356">
        <ele>177.3</ele>
        <time>2024-04-14T07:30:16Z</time>
      </trkpt>
      <trkpt lat="45.12457" lon="0.57353">
        <ele>177.5</ele>
        <time>2024-04-14T07:30:18Z</time>
      </trkpt>
      <trkpt lat="45.12456" lon="0.5735">
        <ele>177.6</ele>
        <time>2024-04-14T07:30:20Z</time>
      </trkpt>
      <trkpt lat="45.12454" lon="0.57345">
        <ele>177.7</ele>
        <time>2024-04-14T07:30:22Z</time>
      </trkpt>
      <trkpt lat="45.12453" lon="0.57341">
        <ele>177.8</ele>
        <time>2024-04-14T07:30:24Z</time>
      </trkpt>
      <trkpt lat="45.12452" lon="0.57337">
        <ele>178</ele>
        <time>2024-04-14T07:30:26Z</time>
      </trkpt>
      <trkpt lat="45.12451" lon="0.57334">
        <ele>178.1</ele>
        <time>2024-04-14T07:30:28Z</time>
      </trkpt>
      <trkpt lat="45.1245" lon="0.57331">
        <ele>178.4</ele>
        <time>2024-04-14T07:30:30Z</time>
      </trkpt>
      <trkpt lat="45.12449" lon="0.57328">
        <ele>178.5</ele>
        <time>2024-04-14T07:30:32Z</time>
      </trkpt>
      <trkpt lat="45.12449" lon="0.57326">
        <ele>178.8</ele>
        <time>2024-04-14T07:30:33Z</time>
      </trkpt>
      <trkpt lat="45.12448" lon="0.57325">
        <ele>178.9</ele>
        <time>2024-04-14T07:30:34Z</time>
      </trkpt>
      <trkpt lat="45.12447" lon="0.57322">
        <ele>179.3</ele>
        <time>2024-04-14T07:30:36Z</time>
      </trkpt>
      <trkpt lat="45.12446" lon="0.57319">
        <ele>179.4</ele>
        <time>2024-04-14T07:30:38Z</time>
      </trkpt>
      <trkpt lat="45.12446" lon="0.57316">
        <ele>179.7</ele>
        <time>2024-04-14T07:30:40Z</time>
      </trkpt>
      <trkpt lat="45.12445" lon="0.57313">
        <ele>180.1</ele>
        <time>2024-04-14T07:30:42Z</time>
      </trkpt>
      <trkpt lat="45.12444" lon="0.5731">
        <ele>180.4</ele>
        <time>2024-04-14T07:30:44Z</time>
      </trkpt>
      <trkpt lat="45.12443" lon="0.57307">
        <ele>180.8</ele>
        <time>2024-04-14T07:30:46Z</time>
      </trkpt>
      <trkpt lat="45.12443" lon="0.57305">
        <ele>180.9</ele>
        <time>2024-04-14T07:30:47Z</time>
      </trkpt>
      <trkpt lat="45.12442" lon="0.57304">
        <ele>181.4</ele>
        <time>2024-04-14T07:30:48Z</time>
      </trkpt>
      <trkpt lat="45.12441" lon="0.57301">
        <ele>181.5</ele>
        <time>2024-04-14T07:30:50Z</time>
      </trkpt>
      <trkpt lat="45.1244" lon="0.57298">
        <ele>182.2</ele>
        <time>2024-04-14T07:30:52Z</time>
      </trkpt>
      <trkpt lat="45.1244" lon="0.57295">
        <ele>182.7</ele>
        <time>2024-04-14T07:30:54Z</time>
      </trkpt>
      <trkpt lat="45.12439" lon="0.57294">
        <ele>182.8</ele>
        <time>2024-04-14T07:30:55Z</time>
      </trkpt>
      <trkpt lat="45.12439" lon="0.57292">
        <ele>182.9</ele>
        <time>2024-04-14T07:30:56Z</time>
      </trkpt>
      <trkpt lat="45.12438" lon="0.57289">
        <ele>183.5</ele>
        <time>2024-04-14T07:30:58Z</time>
      </trkpt>
      <trkpt lat="45.12438" lon="0.57286">
        <ele>184.2</ele>
        <time>2024-04-14T07:31:00Z</time>
      </trkpt>
      <trkpt lat="45.12438" lon="0.57283">
        <ele>184.8</ele>
        <time>2024-04-14T07:31:02Z</time>
      </trkpt>
      <trkpt lat="45.12438" lon="0.57281">
        <ele>184.9</ele>
        <time>2024-04-14T07:31:03Z</time>
      </trkpt>
      <trkpt lat="45.12438" lon="0.57279">
        <ele>185.4</ele>
        <time>2024-04-14T07:31:04Z</time>
      </trkpt>
      <trkpt lat="45.12438" lon="0.57277">
        <ele>185.5</ele>
        <time>2024-04-14T07:31:05Z</time>
      </trkpt>
      <trkpt lat="45.12436" lon="0.57275">
        <ele>185.6</ele>
        <time>2024-04-14T07:31:06Z</time>
      </trkpt>
      <trkpt lat="45.12435" lon="0.57271">
        <ele>186.3</ele>
        <time>2024-04-14T07:31:08Z</time>
      </trkpt>
      <trkpt lat="45.12433" lon="0.57268">
        <ele>186.8</ele>
        <time>2024-04-14T07:31:10Z</time>
      </trkpt>
      <trkpt lat="45.12431" lon="0.57263">
        <ele>187.4</ele>
        <time>2024-04-14T07:31:12Z</time>
      </trkpt>
      <trkpt lat="45.1243" lon="0.57257">
        <ele>188.1</ele>
        <time>2024-04-14T07:31:14Z</time>
      </trkpt>
      <trkpt lat="45.12429" lon="0.57252">
        <ele>188.6</ele>
        <time>2024-04-14T07:31:16Z</time>
      </trkpt>
      <trkpt lat="45.12428" lon="0.57246">
        <ele>188.9</ele>
        <time>2024-04-14T07:31:18Z</time>
      </trkpt>
      <trkpt lat="45.12426" lon="0.57241">
        <ele>189.2</ele>
        <time>2024-04-14T07:31:20Z</time>
      </trkpt>
      <trkpt lat="45.12426" lon="0.57239">
        <ele>189.6</ele>
        <time>2024-04-14T07:31:21Z</time>
      </trkpt>
      <trkpt lat="45.12426" lon="0.57236">
        <ele>189.9</ele>
        <time>2024-04-14T07:31:22Z</time>
      </trkpt>
      <trkpt lat="45.12424" lon="0.57231">
        <ele>190.1</ele>
        <time>2024-04-14T07:31:24Z</time>
      </trkpt>
      <trkpt lat="45.12423" lon="0.57226">
        <ele>190.4</ele>
        <time>2024-04-14T07:31:26Z</time>
      </trkpt>
      <trkpt lat="45.12422" lon="0.57224">
        <ele>190.5</ele>
        <time>2024-04-14T07:31:27Z</time>
      </trkpt>
      <trkpt lat="45.12422" lon="0.57221">
        <ele>190.7</ele>
        <time>2024-04-14T07:31:28Z</time>
      </trkpt>
      <trkpt lat="45.1242" lon="0.57215">
        <ele>191</ele>
        <time>2024-04-14T07:31:30Z</time>
      </trkpt>
      <trkpt lat="45.12419" lon="0.57209">
        <ele>191.2</ele>
        <time>2024-04-14T07:31:32Z</time>
      </trkpt>
      <trkpt lat="45.12417" lon="0.57203">
        <ele>191.5</ele>
        <time>2024-04-14T07:31:34Z</time>
      </trkpt>
      <trkpt lat="45.12416" lon="0.57199">
        <ele>191.7</ele>
        <time>2024-04-14T07:31:35Z</time>
      </trkpt>
      <trkpt lat="45.12415" lon="0.57195">
        <ele>191.9</ele>
        <time>2024-04-14T07:31:36Z</time>
      </trkpt>
      <trkpt lat="45.12413" lon="0.57188">
        <ele>192.3</ele>
        <time>2024-04-14T07:31:38Z</time>
      </trkpt>
      <trkpt lat="45.1241" lon="0.57181">
        <ele>192.5</ele>
        <time>2024-04-14T07:31:40Z</time>
      </trkpt>
      <trkpt lat="45.12408" lon="0.57173">
        <ele>192.9</ele>
        <time>2024-04-14T07:31:42Z</time>
      </trkpt>
      <trkpt lat="45.12407" lon="0.57166">
        <ele>193.1</ele>
        <time>2024-04-14T07:31:44Z</time>
      </trkpt>
      <trkpt lat="45.12405" lon="0.57157">
        <ele>193.3</ele>
        <time>2024-04-14T07:31:46Z</time>
      </trkpt>
      <trkpt lat="45.12403" lon="0.57147">
        <ele>193.7</ele>
        <time>2024-04-14T07:31:48Z</time>
      </trkpt>
      <trkpt lat="45.124" lon="0.57137">
        <ele>194.3</ele>
        <time>2024-04-14T07:31:50Z</time>
      </trkpt>
      <trkpt lat="45.12399" lon="0.57135">
        <ele>194.6</ele>
        <time>2024-04-14T07:31:51Z</time>
      </trkpt>
      <trkpt lat="45.12396" lon="0.57134">
        <ele>194.7</ele>
        <time>2024-04-14T07:31:52Z</time>
      </trkpt>
      <trkpt lat="45.12393" lon="0.57135">
        <ele>195</ele>
        <time>2024-04-14T07:31:54Z</time>
      </trkpt>
      <trkpt lat="45.12389" lon="0.57136">
        <ele>195.1</ele>
        <time>2024-04-14T07:31:56Z</time>
      </trkpt>
      <trkpt lat="45.12387" lon="0.57136">
        <ele>195.3</ele>
        <time>2024-04-14T07:31:57Z</time>
      </trkpt>
      <trkpt lat="45.12386" lon="0.57138">
        <ele>195.3</ele>
        <time>2024-04-14T07:31:58Z</time>
      </trkpt>
      <trkpt lat="45.12382" lon="0.5714">
        <ele>195.6</ele>
        <time>2024-04-14T07:32:00Z</time>
      </trkpt>
      <trkpt lat="45.1238" lon="0.5714">
        <ele>195.7</ele>
        <time>2024-04-14T07:32:01Z</time>
      </trkpt>
      <trkpt lat="45.12379" lon="0.57141">
        <ele>195.7</ele>
        <time>2024-04-14T07:32:02Z</time>
      </trkpt>
      <trkpt lat="45.12376" lon="0.57142">
        <ele>195.9</ele>
        <time>2024-04-14T07:32:04Z</time>
      </trkpt>
      <trkpt lat="45.12373" lon="0.57143">
        <ele>196.1</ele>
        <time>2024-04-14T07:32:06Z</time>
      </trkpt>
      <trkpt lat="45.12369" lon="0.57144">
        <ele>196.4</ele>
        <time>2024-04-14T07:32:08Z</time>
      </trkpt>
      <trkpt lat="45.12365" lon="0.57144">
        <ele>196.6</ele>
        <time>2024-04-14T07:32:10Z</time>
      </trkpt>
      <trkpt lat="45.12361" lon="0.57146">
        <ele>196.9</ele>
        <time>2024-04-14T07:32:12Z</time>
      </trkpt>
      <trkpt lat="45.12358" lon="0.57148">
        <ele>197.1</ele>
        <time>2024-04-14T07:32:14Z</time>
      </trkpt>
      <trkpt lat="45.12356" lon="0.57149">
        <ele>197.2</ele>
        <time>2024-04-14T07:32:15Z</time>
      </trkpt>
      <trkpt lat="45.12355" lon="0.5715">
        <ele>197.3</ele>
        <time>2024-04-14T07:32:16Z</time>
      </trkpt>
      <trkpt lat="45.12352" lon="0.57152">
        <ele>197.5</ele>
        <time>2024-04-14T07:32:18Z</time>
      </trkpt>
      <trkpt lat="45.12349" lon="0.57154">
        <ele>197.7</ele>
        <time>2024-04-14T07:32:20Z</time>
      </trkpt>
      <trkpt lat="45.12346" lon="0.57156">
        <ele>197.9</ele>
        <time>2024-04-14T07:32:22Z</time>
      </trkpt>
      <trkpt lat="45.12342" lon="0.57158">
        <ele>198.1</ele>
        <time>2024-04-14T07:32:24Z</time>
      </trkpt>
      <trkpt lat="45.12339" lon="0.57158">
        <ele>198.3</ele>
        <time>2024-04-14T07:32:26Z</time>
      </trkpt>
      <trkpt lat="45.12336" lon="0.57159">
        <ele>198.5</ele>
        <time>2024-04-14T07:32:28Z</time>
      </trkpt>
      <trkpt lat="45.12334" lon="0.5716">
        <ele>198.6</ele>
        <time>2024-04-14T07:32:29Z</time>
      </trkpt>
      <trkpt lat="45.12332" lon="0.57161">
        <ele>198.7</ele>
        <time>2024-04-14T07:32:30Z</time>
      </trkpt>
      <trkpt lat="45.12329" lon="0.57163">
        <ele>198.8</ele>
        <time>2024-04-14T07:32:32Z</time>
      </trkpt>
      <trkpt lat="45.12327" lon="0.57165">
        <ele>198.9</ele>
        <time>2024-04-14T07:32:34Z</time>
      </trkpt>
      <trkpt lat="45.12325" lon="0.57166">
        <ele>199</ele>
        <time>2024-04-14T07:32:36Z</time>
      </trkpt>
      <trkpt lat="45.12322" lon="0.57168">
        <ele>199.1</ele>
        <time>2024-04-14T07:32:38Z</time>
      </trkpt>
      <trkpt lat="45.12319" lon="0.5717">
        <ele>199.2</ele>
        <time>2024-04-14T07:32:40Z</time>
      </trkpt>
      <trkpt lat="45.12316" lon="0.57175">
        <ele>199.4</ele>
        <time>2024-04-14T07:32:42Z</time>
      </trkpt>
      <trkpt lat="45.12313" lon="0.57179">
        <ele>199.5</ele>
        <time>2024-04-14T07:32:44Z</time>
      </trkpt>
      <trkpt lat="45.12309" lon="0.57183">
        <ele>199.6</ele>
        <time>2024-04-14T07:32:46Z</time>
      </trkpt>
      <trkpt lat="45.12307" lon="0.57187">
        <ele>199.7</ele>
        <time>2024-04-14T07:32:48Z</time>
      </trkpt>
      <trkpt lat="45.12303" lon="0.57191">
        <ele>199.8</ele>
        <time>2024-04-14T07:32:50Z</time>
      </trkpt>
      <trkpt lat="45.12299" lon="0.57196">
        <ele>200</ele>
        <time>2024-04-14T07:32:52Z</time>
      </trkpt>
      <trkpt lat="45.12296" lon="0.572">
        <ele>200.1</ele>
        <time>2024-04-14T07:32:54Z</time>
      </trkpt>
      <trkpt lat="45.12292" lon="0.57205">
        <ele>200.2</ele>
        <time>2024-04-14T07:32:56Z</time>
      </trkpt>
      <trkpt lat="45.12287" lon="0.57208">
        <ele>200.3</ele>
        <time>2024-04-14T07:32:58Z</time>
      </trkpt>
      <trkpt lat="45.12284" lon="0.57211">
        <ele>200.4</ele>
        <time>2024-04-14T07:33:00Z</time>
      </trkpt>
      <trkpt lat="45.12281" lon="0.57214">
        <ele>200.5</ele>
        <time>2024-04-14T07:33:01Z</time>
      </trkpt>
      <trkpt lat="45.12279" lon="0.57217">
        <ele>200.6</ele>
        <time>2024-04-14T07:33:02Z</time>
      </trkpt>
      <trkpt lat="45.12274" lon="0.57222">
        <ele>200.7</ele>
        <time>2024-04-14T07:33:04Z</time>
      </trkpt>
      <trkpt lat="45.1227" lon="0.57225">
        <ele>200.8</ele>
        <time>2024-04-14T07:33:06Z</time>
      </trkpt>
      <trkpt lat="45.12266" lon="0.57228">
        <ele>200.9</ele>
        <time>2024-04-14T07:33:08Z</time>
      </trkpt>
      <trkpt lat="45.12261" lon="0.57231">
        <ele>201</ele>
        <time>2024-04-14T07:33:10Z</time>
      </trkpt>
      <trkpt lat="45.12257" lon="0.57233">
        <ele>201.1</ele>
        <time>2024-04-14T07:33:12Z</time>
      </trkpt>
      <trkpt lat="45.12254" lon="0.57234">
        <ele>201.1</ele>
        <time>2024-04-14T07:33:13Z</time>
      </trkpt>
      <trkpt lat="45.12251" lon="0.57235">
        <ele>201.1</ele>
        <time>2024-04-14T07:33:14Z</time>
      </trkpt>
      <trkpt lat="45.12245" lon="0.57238">
        <ele>201.3</ele>
        <time>2024-04-14T07:33:16Z</time>
      </trkpt>
      <trkpt lat="45.12242" lon="0.57239">
        <ele>201.3</ele>
        <time>2024-04-14T07:33:17Z</time>
      </trkpt>
      <trkpt lat="45.12238" lon="0.5724">
        <ele>201.4</ele>
        <time>2024-04-14T07:33:18Z</time>
      </trkpt>
      <trkpt lat="45.1223" lon="0.57245">
        <ele>201.5</ele>
        <time>2024-04-14T07:33:20Z</time>
      </trkpt>
      <trkpt lat="45.12225" lon="0.57246">
        <ele>201.6</ele>
        <time>2024-04-14T07:33:22Z</time>
      </trkpt>
      <trkpt lat="45.12222" lon="0.57247">
        <ele>201.6</ele>
        <time>2024-04-14T07:33:23Z</time>
      </trkpt>
      <trkpt lat="45.1222" lon="0.57248">
        <ele>201.7</ele>
        <time>2024-04-14T07:33:24Z</time>
      </trkpt>
      <trkpt lat="45.12215" lon="0.5725">
        <ele>201.7</ele>
        <time>2024-04-14T07:33:26Z</time>
      </trkpt>
      <trkpt lat="45.12208" lon="0.57251">
        <ele>201.8</ele>
        <time>2024-04-14T07:33:28Z</time>
      </trkpt>
      <trkpt lat="45.12205" lon="0.5725">
        <ele>201.8</ele>
        <time>2024-04-14T07:33:29Z</time>
      </trkpt>
      <trkpt lat="45.12202" lon="0.57251">
        <ele>201.8</ele>
        <time>2024-04-14T07:33:30Z</time>
      </trkpt>
      <trkpt lat="45.12195" lon="0.57255">
        <ele>201.7</ele>
        <time>2024-04-14T07:33:32Z</time>
      </trkpt>
      <trkpt lat="45.12192" lon="0.57258">
        <ele>201.7</ele>
        <time>2024-04-14T07:33:33Z</time>
      </trkpt>
      <trkpt lat="45.12188" lon="0.57261">
        <ele>201.6</ele>
        <time>2024-04-14T07:33:34Z</time>
      </trkpt>
      <trkpt lat="45.12181" lon="0.57265">
        <ele>201.4</ele>
        <time>2024-04-14T07:33:36Z</time>
      </trkpt>
      <trkpt lat="45.12177" lon="0.57267">
        <ele>201.3</ele>
        <time>2024-04-14T07:33:37Z</time>
      </trkpt>
      <trkpt lat="45.12174" lon="0.57269">
        <ele>201.2</ele>
        <time>2024-04-14T07:33:38Z</time>
      </trkpt>
      <trkpt lat="45.12168" lon="0.57271">
        <ele>200.9</ele>
        <time>2024-04-14T07:33:40Z</time>
      </trkpt>
      <trkpt lat="45.12165" lon="0.57273">
        <ele>200.9</ele>
        <time>2024-04-14T07:33:41Z</time>
      </trkpt>
      <trkpt lat="45.12162" lon="0.57274">
        <ele>200.8</ele>
        <time>2024-04-14T07:33:42Z</time>
      </trkpt>
      <trkpt lat="45.12156" lon="0.57275">
        <ele>200.6</ele>
        <time>2024-04-14T07:33:44Z</time>
      </trkpt>
      <trkpt lat="45.12149" lon="0.57277">
        <ele>200.4</ele>
        <time>2024-04-14T07:33:46Z</time>
      </trkpt>
      <trkpt lat="45.12142" lon="0.57278">
        <ele>200.3</ele>
        <time>2024-04-14T07:33:48Z</time>
      </trkpt>
      <trkpt lat="45.12136" lon="0.57281">
        <ele>200.1</ele>
        <time>2024-04-14T07:33:50Z</time>
      </trkpt>
      <trkpt lat="45.12132" lon="0.57283">
        <ele>200.1</ele>
        <time>2024-04-14T07:33:51Z</time>
      </trkpt>
      <trkpt lat="45.12128" lon="0.57285">
        <ele>200</ele>
        <time>2024-04-14T07:33:52Z</time>
      </trkpt>
      <trkpt lat="45.12121" lon="0.5729">
        <ele>199.8</ele>
        <time>2024-04-14T07:33:54Z</time>
      </trkpt>
      <trkpt lat="45.12113" lon="0.57294">
        <ele>199.6</ele>
        <time>2024-04-14T07:33:56Z</time>
      </trkpt>
      <trkpt lat="45.12106" lon="0.57299">
        <ele>199.5</ele>
        <time>2024-04-14T07:33:58Z</time>
      </trkpt>
      <trkpt lat="45.121" lon="0.57303">
        <ele>199.3</ele>
        <time>2024-04-14T07:34:00Z</time>
      </trkpt>
      <trkpt lat="45.12092" lon="0.57306">
        <ele>199.1</ele>
        <time>2024-04-14T07:34:02Z</time>
      </trkpt>
      <trkpt lat="45.12088" lon="0.57308">
        <ele>199.1</ele>
        <time>2024-04-14T07:34:03Z</time>
      </trkpt>
      <trkpt lat="45.12084" lon="0.5731">
        <ele>199</ele>
        <time>2024-04-14T07:34:04Z</time>
      </trkpt>
      <trkpt lat="45.12076" lon="0.57313">
        <ele>199</ele>
        <time>2024-04-14T07:34:06Z</time>
      </trkpt>
      <trkpt lat="45.12069" lon="0.57317">
        <ele>198.9</ele>
        <time>2024-04-14T07:34:08Z</time>
      </trkpt>
      <trkpt lat="45.12062" lon="0.57318">
        <ele>198.9</ele>
        <time>2024-04-14T07:34:10Z</time>
      </trkpt>
      <trkpt lat="45.12054" lon="0.57318">
        <ele>198.9</ele>
        <time>2024-04-14T07:34:12Z</time>
      </trkpt>
      <trkpt lat="45.1205" lon="0.57319">
        <ele>198.9</ele>
        <time>2024-04-14T07:34:13Z</time>
      </trkpt>
      <trkpt lat="45.12046" lon="0.5732">
        <ele>199</ele>
        <time>2024-04-14T07:34:14Z</time>
      </trkpt>
      <trkpt lat="45.12038" lon="0.57324">
        <ele>199</ele>
        <time>2024-04-14T07:34:16Z</time>
      </trkpt>
      <trkpt lat="45.12029" lon="0.5733">
        <ele>199.1</ele>
        <time>2024-04-14T07:34:18Z</time>
      </trkpt>
      <trkpt lat="45.1202" lon="0.57335">
        <ele>199.2</ele>
        <time>2024-04-14T07:34:20Z</time>
      </trkpt>
      <trkpt lat="45.12012" lon="0.57342">
        <ele>199.3</ele>
        <time>2024-04-14T07:34:22Z</time>
      </trkpt>
      <trkpt lat="45.12008" lon="0.57345">
        <ele>199.4</ele>
        <time>2024-04-14T07:34:23Z</time>
      </trkpt>
      <trkpt lat="45.12004" lon="0.57349">
        <ele>199.4</ele>
        <time>2024-04-14T07:34:24Z</time>
      </trkpt>
      <trkpt lat="45.11997" lon="0.57357">
        <ele>199.5</ele>
        <time>2024-04-14T07:34:26Z</time>
      </trkpt>
      <trkpt lat="45.1199" lon="0.57362">
        <ele>199.6</ele>
        <time>2024-04-14T07:34:28Z</time>
      </trkpt>
      <trkpt lat="45.11986" lon="0.57367">
        <ele>199.7</ele>
        <time>2024-04-14T07:34:29Z</time>
      </trkpt>
      <trkpt lat="45.11982" lon="0.57372">
        <ele>199.8</ele>
        <time>2024-04-14T07:34:30Z</time>
      </trkpt>
      <trkpt lat="45.11975" lon="0.57378">
        <ele>199.9</ele>
        <time>2024-04-14T07:34:32Z</time>
      </trkpt>
      <trkpt lat="45.11969" lon="0.57382">
        <ele>200.1</ele>
        <time>2024-04-14T07:34:34Z</time>
      </trkpt>
      <trkpt lat="45.11961" lon="0.57389">
        <ele>200.3</ele>
        <time>2024-04-14T07:34:36Z</time>
      </trkpt>
      <trkpt lat="45.11952" lon="0.57395">
        <ele>200.5</ele>
        <time>2024-04-14T07:34:38Z</time>
      </trkpt>
      <trkpt lat="45.1195" lon="0.57399">
        <ele>200.6</ele>
        <time>2024-04-14T07:34:39Z</time>
      </trkpt>
      <trkpt lat="45.11946" lon="0.57402">
        <ele>200.7</ele>
        <time>2024-04-14T07:34:40Z</time>
      </trkpt>
      <trkpt lat="45.11942" lon="0.5741">
        <ele>200.9</ele>
        <time>2024-04-14T07:34:42Z</time>
      </trkpt>
      <trkpt lat="45.11938" lon="0.57417">
        <ele>201.1</ele>
        <time>2024-04-14T07:34:44Z</time>
      </trkpt>
      <trkpt lat="45.11934" lon="0.57426">
        <ele>201.4</ele>
        <time>2024-04-14T07:34:46Z</time>
      </trkpt>
      <trkpt lat="45.11929" lon="0.57433">
        <ele>201.6</ele>
        <time>2024-04-14T07:34:48Z</time>
      </trkpt>
      <trkpt lat="45.11926" lon="0.57436">
        <ele>201.7</ele>
        <time>2024-04-14T07:34:49Z</time>
      </trkpt>
      <trkpt lat="45.11923" lon="0.57438">
        <ele>201.8</ele>
        <time>2024-04-14T07:34:50Z</time>
      </trkpt>
      <trkpt lat="45.11921" lon="0.57439">
        <ele>201.9</ele>
        <time>2024-04-14T07:34:51Z</time>
      </trkpt>
      <trkpt lat="45.11919" lon="0.5744">
        <ele>202</ele>
        <time>2024-04-14T07:34:52Z</time>
      </trkpt>
      <trkpt lat="45.11915" lon="0.57447">
        <ele>202.2</ele>
        <time>2024-04-14T07:34:54Z</time>
      </trkpt>
      <trkpt lat="45.11913" lon="0.57451">
        <ele>202.3</ele>
        <time>2024-04-14T07:34:55Z</time>
      </trkpt>
      <trkpt lat="45.11911" lon="0.57454">
        <ele>202.4</ele>
        <time>2024-04-14T07:34:56Z</time>
      </trkpt>
      <trkpt lat="45.11905" lon="0.5746">
        <ele>202.5</ele>
        <time>2024-04-14T07:34:58Z</time>
      </trkpt>
      <trkpt lat="45.11899" lon="0.57467">
        <ele>202.7</ele>
        <time>2024-04-14T07:35:00Z</time>
      </trkpt>
      <trkpt lat="45.11895" lon="0.57475">
        <ele>202.9</ele>
        <time>2024-04-14T07:35:02Z</time>
      </trkpt>
      <trkpt lat="45.11894" lon="0.57475">
        <ele>202.9</ele>
        <time>2024-04-14T07:35:03Z</time>
      </trkpt>
      <trkpt lat="45.11893" lon="0.57478">
        <ele>203</ele>
        <time>2024-04-14T07:35:04Z</time>
      </trkpt>
      <trkpt lat="45.11887" lon="0.57491">
        <ele>203.3</ele>
        <time>2024-04-14T07:35:06Z</time>
      </trkpt>
      <trkpt lat="45.11883" lon="0.57501">
        <ele>203.6</ele>
        <time>2024-04-14T07:35:08Z</time>
      </trkpt>
      <trkpt lat="45.11878" lon="0.57509">
        <ele>203.7</ele>
        <time>2024-04-14T07:35:10Z</time>
      </trkpt>
      <trkpt lat="45.11876" lon="0.57512">
        <ele>203.8</ele>
        <time>2024-04-14T07:35:11Z</time>
      </trkpt>
      <trkpt lat="45.11874" lon="0.57514">
        <ele>203.9</ele>
        <time>2024-04-14T07:35:12Z</time>
      </trkpt>
      <trkpt lat="45.11871" lon="0.57518">
        <ele>204</ele>
        <time>2024-04-14T07:35:13Z</time>
      </trkpt>
      <trkpt lat="45.11869" lon="0.5752">
        <ele>204</ele>
        <time>2024-04-14T07:35:14Z</time>
      </trkpt>
      <trkpt lat="45.11867" lon="0.57523">
        <ele>204.1</ele>
        <time>2024-04-14T07:35:15Z</time>
      </trkpt>
      <trkpt lat="45.11866" lon="0.57526">
        <ele>204.1</ele>
        <time>2024-04-14T07:35:16Z</time>
      </trkpt>
      <trkpt lat="45.11865" lon="0.57528">
        <ele>204.2</ele>
        <time>2024-04-14T07:35:18Z</time>
      </trkpt>
      <trkpt lat="45.11851" lon="0.57548">
        <ele>204.7</ele>
        <time>2024-04-14T07:40:03Z</time>
      </trkpt>
      <trkpt lat="45.11849" lon="0.5755">
        <ele>204.7</ele>
        <time>2024-04-14T07:40:04Z</time>
      </trkpt>
      <trkpt lat="45.11847" lon="0.57554">
        <ele>204.8</ele>
        <time>2024-04-14T07:40:06Z</time>
      </trkpt>
      <trkpt lat="45.11844" lon="0.57559">
        <ele>204.9</ele>
        <time>2024-04-14T07:40:08Z</time>
      </trkpt>
      <trkpt lat="45.11842" lon="0.57562">
        <ele>205</ele>
        <time>2024-04-14T07:40:09Z</time>
      </trkpt>
      <trkpt lat="45.11839" lon="0.57565">
        <ele>205</ele>
        <time>2024-04-14T07:40:10Z</time>
      </trkpt>
      <trkpt lat="45.11834" lon="0.57569">
        <ele>205.1</ele>
        <time>2024-04-14T07:40:12Z</time>
      </trkpt>
      <trkpt lat="45.11829" lon="0.57571">
        <ele>205.2</ele>
        <time>2024-04-14T07:40:14Z</time>
      </trkpt>
      <trkpt lat="45.11822" lon="0.57572">
        <ele>205.3</ele>
        <time>2024-04-14T07:40:16Z</time>
      </trkpt>
      <trkpt lat="45.11819" lon="0.57572">
        <ele>205.3</ele>
        <time>2024-04-14T07:40:17Z</time>
      </trkpt>
      <trkpt lat="45.11816" lon="0.57572">
        <ele>205.3</ele>
        <time>2024-04-14T07:40:18Z</time>
      </trkpt>
      <trkpt lat="45.1181" lon="0.57573">
        <ele>205.3</ele>
        <time>2024-04-14T07:40:20Z</time>
      </trkpt>
      <trkpt lat="45.11806" lon="0.57573">
        <ele>205.4</ele>
        <time>2024-04-14T07:40:21Z</time>
      </trkpt>
      <trkpt lat="45.11803" lon="0.57572">
        <ele>205.4</ele>
        <time>2024-04-14T07:40:22Z</time>
      </trkpt>
      <trkpt lat="45.11797" lon="0.5757">
        <ele>205.3</ele>
        <time>2024-04-14T07:40:24Z</time>
      </trkpt>
      <trkpt lat="45.11791" lon="0.57568">
        <ele>205.3</ele>
        <time>2024-04-14T07:40:26Z</time>
      </trkpt>
      <trkpt lat="45.11785" lon="0.57565">
        <ele>205.2</ele>
        <time>2024-04-14T07:40:28Z</time>
      </trkpt>
      <trkpt lat="45.11779" lon="0.57561">
        <ele>205.1</ele>
        <time>2024-04-14T07:40:30Z</time>
      </trkpt>
      <trkpt lat="45.11773" lon="0.57558">
        <ele>205.1</ele>
        <time>2024-04-14T07:40:32Z</time>
      </trkpt>
      <trkpt lat="45.11767" lon="0.57554">
        <ele>205</ele>
        <time>2024-04-14T07:40:34Z</time>
      </trkpt>
      <trkpt lat="45.1176" lon="0.57552">
        <ele>205.2</ele>
        <time>2024-04-14T07:40:36Z</time>
      </trkpt>
      <trkpt lat="45.11755" lon="0.57549">
        <ele>205.2</ele>
        <time>2024-04-14T07:40:38Z</time>
      </trkpt>
      <trkpt lat="45.11751" lon="0.57544">
        <ele>205.2</ele>
        <time>2024-04-14T07:40:40Z</time>
      </trkpt>
      <trkpt lat="45.11747" lon="0.57541">
        <ele>205.1</ele>
        <time>2024-04-14T07:40:42Z</time>
      </trkpt>
      <trkpt lat="45.11744" lon="0.57538">
        <ele>205.2</ele>
        <time>2024-04-14T07:40:44Z</time>
      </trkpt>
      <trkpt lat="45.11743" lon="0.57537">
        <ele>205.2</ele>
        <time>2024-04-14T07:40:45Z</time>
      </trkpt>
      <trkpt lat="45.11743" lon="0.57535">
        <ele>205.1</ele>
        <time>2024-04-14T07:40:46Z</time>
      </trkpt>
      <trkpt lat="45.11743" lon="0.5753">
        <ele>205</ele>
        <time>2024-04-14T07:40:48Z</time>
      </trkpt>
      <trkpt lat="45.11745" lon="0.57524">
        <ele>204.9</ele>
        <time>2024-04-14T07:40:50Z</time>
      </trkpt>
      <trkpt lat="45.11748" lon="0.57514">
        <ele>204.7</ele>
        <time>2024-04-14T07:40:52Z</time>
      </trkpt>
      <trkpt lat="45.1175" lon="0.57509">
        <ele>204.6</ele>
        <time>2024-04-14T07:40:53Z</time>
      </trkpt>
      <trkpt lat="45.11751" lon="0.57504">
        <ele>204.5</ele>
        <time>2024-04-14T07:40:54Z</time>
      </trkpt>
      <trkpt lat="45.11754" lon="0.57492">
        <ele>204.3</ele>
        <time>2024-04-14T07:40:56Z</time>
      </trkpt>
      <trkpt lat="45.11759" lon="0.57478">
        <ele>203.9</ele>
        <time>2024-04-14T07:40:58Z</time>
      </trkpt>
      <trkpt lat="45.11763" lon="0.57463">
        <ele>203.4</ele>
        <time>2024-04-14T07:41:00Z</time>
      </trkpt>
      <trkpt lat="45.11768" lon="0.57448">
        <ele>202.9</ele>
        <time>2024-04-14T07:41:02Z</time>
      </trkpt>
      <trkpt lat="45.11773" lon="0.57433">
        <ele>202.5</ele>
        <time>2024-04-14T07:41:04Z</time>
      </trkpt>
      <trkpt lat="45.11778" lon="0.57417">
        <ele>202.1</ele>
        <time>2024-04-14T07:41:06Z</time>
      </trkpt>
      <trkpt lat="45.1178" lon="0.57409">
        <ele>201.8</ele>
        <time>2024-04-14T07:41:07Z</time>
      </trkpt>
      <trkpt lat="45.11783" lon="0.574">
        <ele>201.5</ele>
        <time>2024-04-14T07:41:08Z</time>
      </trkpt>
      <trkpt lat="45.11787" lon="0.57383">
        <ele>201</ele>
        <time>2024-04-14T07:41:10Z</time>
      </trkpt>
      <trkpt lat="45.11792" lon="0.57366">
        <ele>200.5</ele>
        <time>2024-04-14T07:41:12Z</time>
      </trkpt>
      <trkpt lat="45.11794" lon="0.57348">
        <ele>200</ele>
        <time>2024-04-14T07:41:14Z</time>
      </trkpt>
      <trkpt lat="45.11796" lon="0.5733">
        <ele>199.3</ele>
        <time>2024-04-14T07:41:16Z</time>
      </trkpt>
      <trkpt lat="45.11796" lon="0.57312">
        <ele>198.4</ele>
        <time>2024-04-14T07:41:18Z</time>
      </trkpt>
      <trkpt lat="45.11795" lon="0.57294">
        <ele>197.4</ele>
        <time>2024-04-14T07:41:20Z</time>
      </trkpt>
      <trkpt lat="45.11794" lon="0.57274">
        <ele>196.6</ele>
        <time>2024-04-14T07:41:22Z</time>
      </trkpt>
      <trkpt lat="45.11793" lon="0.57253">
        <ele>196</ele>
        <time>2024-04-14T07:41:24Z</time>
      </trkpt>
      <trkpt lat="45.11791" lon="0.57231">
        <ele>195.4</ele>
        <time>2024-04-14T07:41:26Z</time>
      </trkpt>
      <trkpt lat="45.1179" lon="0.5721">
        <ele>194.8</ele>
        <time>2024-04-14T07:41:28Z</time>
      </trkpt>
      <trkpt lat="45.11789" lon="0.57189">
        <ele>194.5</ele>
        <time>2024-04-14T07:41:30Z</time>
      </trkpt>
      <trkpt lat="45.11789" lon="0.57168">
        <ele>194.2</ele>
        <time>2024-04-14T07:41:32Z</time>
      </trkpt>
      <trkpt lat="45.11788" lon="0.57149">
        <ele>194.1</ele>
        <time>2024-04-14T07:41:34Z</time>
      </trkpt>
      <trkpt lat="45.11788" lon="0.57139">
        <ele>194</ele>
        <time>2024-04-14T07:41:35Z</time>
      </trkpt>
      <trkpt lat="45.11787" lon="0.5713">
        <ele>193.9</ele>
        <time>2024-04-14T07:41:36Z</time>
      </trkpt>
      <trkpt lat="45.11786" lon="0.57111">
        <ele>193.8</ele>
        <time>2024-04-14T07:41:38Z</time>
      </trkpt>
      <trkpt lat="45.11784" lon="0.57093">
        <ele>193.8</ele>
        <time>2024-04-14T07:41:40Z</time>
      </trkpt>
      <trkpt lat="45.11783" lon="0.57075">
        <ele>193.7</ele>
        <time>2024-04-14T07:41:42Z</time>
      </trkpt>
      <trkpt lat="45.11782" lon="0.57067">
        <ele>193.7</ele>
        <time>2024-04-14T07:41:43Z</time>
      </trkpt>
      <trkpt lat="45.11781" lon="0.57058">
        <ele>193.7</ele>
        <time>2024-04-14T07:41:44Z</time>
      </trkpt>
      <trkpt lat="45.11779" lon="0.57041">
        <ele>193.6</ele>
        <time>2024-04-14T07:41:46Z</time>
      </trkpt>
      <trkpt lat="45.11778" lon="0.57025">
        <ele>193.6</ele>
        <time>2024-04-14T07:41:48Z</time>
      </trkpt>
      <trkpt lat="45.11777" lon="0.57018">
        <ele>193.5</ele>
        <time>2024-04-14T07:41:49Z</time>
      </trkpt>
      <trkpt lat="45.11776" lon="0.5701">
        <ele>193.5</ele>
        <time>2024-04-14T07:41:50Z</time>
      </trkpt>
      <trkpt lat="45.11774" lon="0.56994">
        <ele>193.4</ele>
        <time>2024-04-14T07:41:52Z</time>
      </trkpt>
      <trkpt lat="45.11773" lon="0.56979">
        <ele>193.4</ele>
        <time>2024-04-14T07:41:54Z</time>
      </trkpt>
      <trkpt lat="45.11771" lon="0.56963">
        <ele>193.5</ele>
        <time>2024-04-14T07:41:56Z</time>
      </trkpt>
      <trkpt lat="45.1177" lon="0.56947">
        <ele>193.5</ele>
        <time>2024-04-14T07:41:58Z</time>
      </trkpt>
      <trkpt lat="45.11768" lon="0.56932">
        <ele>193.5</ele>
        <time>2024-04-14T07:42:00Z</time>
      </trkpt>
      <trkpt lat="45.11767" lon="0.56916">
        <ele>193.5</ele>
        <time>2024-04-14T07:42:02Z</time>
      </trkpt>
      <trkpt lat="45.11766" lon="0.569">
        <ele>193.6</ele>
        <time>2024-04-14T07:42:04Z</time>
      </trkpt>
      <trkpt lat="45.11766" lon="0.56893">
        <ele>193.6</ele>
        <time>2024-04-14T07:42:05Z</time>
      </trkpt>
      <trkpt lat="45.11768" lon="0.56887">
        <ele>193.7</ele>
        <time>2024-04-14T07:42:06Z</time>
      </trkpt>
      <trkpt lat="45.11771" lon="0.56882">
        <ele>193.8</ele>
        <time>2024-04-14T07:42:07Z</time>
      </trkpt>
      <trkpt lat="45.11775" lon="0.56879">
        <ele>193.9</ele>
        <time>2024-04-14T07:42:08Z</time>
      </trkpt>
      <trkpt lat="45.11779" lon="0.56877">
        <ele>194</ele>
        <time>2024-04-14T07:42:09Z</time>
      </trkpt>
      <trkpt lat="45.11783" lon="0.56873">
        <ele>194</ele>
        <time>2024-04-14T07:42:10Z</time>
      </trkpt>
      <trkpt lat="45.11789" lon="0.56865">
        <ele>194.2</ele>
        <time>2024-04-14T07:42:12Z</time>
      </trkpt>
      <trkpt lat="45.11791" lon="0.56861">
        <ele>194.3</ele>
        <time>2024-04-14T07:42:13Z</time>
      </trkpt>
      <trkpt lat="45.11794" lon="0.56857">
        <ele>194.3</ele>
        <time>2024-04-14T07:42:14Z</time>
      </trkpt>
      <trkpt lat="45.11799" lon="0.56846">
        <ele>194.3</ele>
        <time>2024-04-14T07:42:16Z</time>
      </trkpt>
      <trkpt lat="45.11803" lon="0.56835">
        <ele>194.2</ele>
        <time>2024-04-14T07:42:18Z</time>
      </trkpt>
      <trkpt lat="45.11805" lon="0.56829">
        <ele>194.2</ele>
        <time>2024-04-14T07:42:19Z</time>
      </trkpt>
      <trkpt lat="45.11806" lon="0.56822">
        <ele>194.1</ele>
        <time>2024-04-14T07:42:20Z</time>
      </trkpt>
      <trkpt lat="45.11805" lon="0.56808">
        <ele>194.1</ele>
        <time>2024-04-14T07:42:22Z</time>
      </trkpt>
      <trkpt lat="45.11805" lon="0.56802">
        <ele>194.1</ele>
        <time>2024-04-14T07:42:23Z</time>
      </trkpt>
      <trkpt lat="45.11806" lon="0.56795">
        <ele>194</ele>
        <time>2024-04-14T07:42:24Z</time>
      </trkpt>
      <trkpt lat="45.11808" lon="0.56781">
        <ele>194</ele>
        <time>2024-04-14T07:42:26Z</time>
      </trkpt>
      <trkpt lat="45.11808" lon="0.56766">
        <ele>194</ele>
        <time>2024-04-14T07:42:28Z</time>
      </trkpt>
      <trkpt lat="45.11809" lon="0.56752">
        <ele>194</ele>
        <time>2024-04-14T07:42:30Z</time>
      </trkpt>
      <trkpt lat="45.11808" lon="0.56738">
        <ele>194</ele>
        <time>2024-04-14T07:42:32Z</time>
      </trkpt>
      <trkpt lat="45.11806" lon="0.56724">
        <ele>194</ele>
        <time>2024-04-14T07:42:34Z</time>
      </trkpt>
      <trkpt lat="45.11806" lon="0.56717">
        <ele>194</ele>
        <time>2024-04-14T07:42:35Z</time>
      </trkpt>
      <trkpt lat="45.11806" lon="0.56711">
        <ele>193.9</ele>
        <time>2024-04-14T07:42:36Z</time>
      </trkpt>
      <trkpt lat="45.11806" lon="0.56705">
        <ele>193.9</ele>
        <time>2024-04-14T07:42:37Z</time>
      </trkpt>
      <trkpt lat="45.11807" lon="0.56698">
        <ele>193.9</ele>
        <time>2024-04-14T07:42:38Z</time>
      </trkpt>
      <trkpt lat="45.11812" lon="0.56685">
        <ele>193.9</ele>
        <time>2024-04-14T07:42:40Z</time>
      </trkpt>
      <trkpt lat="45.11816" lon="0.56672">
        <ele>194</ele>
        <time>2024-04-14T07:42:42Z</time>
      </trkpt>
      <trkpt lat="45.1182" lon="0.5666">
        <ele>194.1</ele>
        <time>2024-04-14T07:42:44Z</time>
      </trkpt>
      <trkpt lat="45.11823" lon="0.56653">
        <ele>194.1</ele>
        <time>2024-04-14T07:42:45Z</time>
      </trkpt>
      <trkpt lat="45.11824" lon="0.56647">
        <ele>194.2</ele>
        <time>2024-04-14T07:42:46Z</time>
      </trkpt>
      <trkpt lat="45.11828" lon="0.56635">
        <ele>194.3</ele>
        <time>2024-04-14T07:42:48Z</time>
      </trkpt>
      <trkpt lat="45.11832" lon="0.56623">
        <ele>194.4</ele>
        <time>2024-04-14T07:42:50Z</time>
      </trkpt>
      <trkpt lat="45.11834" lon="0.56616">
        <ele>194.5</ele>
        <time>2024-04-14T07:42:51Z</time>
      </trkpt>
      <trkpt lat="45.11836" lon="0.5661">
        <ele>194.5</ele>
        <time>2024-04-14T07:42:52Z</time>
      </trkpt>
      <trkpt lat="45.1184" lon="0.56598">
        <ele>194.1</ele>
        <time>2024-04-14T07:42:54Z</time>
      </trkpt>
      <trkpt lat="45.11842" lon="0.56592">
        <ele>193.8</ele>
        <time>2024-04-14T07:42:55Z</time>
      </trkpt>
      <trkpt lat="45.11843" lon="0.56585">
        <ele>193.5</ele>
        <time>2024-04-14T07:42:56Z</time>
      </trkpt>
      <trkpt lat="45.11843" lon="0.56578">
        <ele>193.7</ele>
        <time>2024-04-14T07:42:57Z</time>
      </trkpt>
      <trkpt lat="45.11843" lon="0.56573">
        <ele>193.9</ele>
        <time>2024-04-14T07:42:58Z</time>
      </trkpt>
      <trkpt lat="45.11843" lon="0.56563">
        <ele>194.1</ele>
        <time>2024-04-14T07:43:00Z</time>
      </trkpt>
      <trkpt lat="45.11842" lon="0.56554">
        <ele>194.4</ele>
        <time>2024-04-14T07:43:02Z</time>
      </trkpt>
      <trkpt lat="45.1184" lon="0.56543">
        <ele>194.7</ele>
        <time>2024-04-14T07:43:04Z</time>
      </trkpt>
      <trkpt lat="45.11839" lon="0.56532">
        <ele>195.1</ele>
        <time>2024-04-14T07:43:06Z</time>
      </trkpt>
      <trkpt lat="45.11838" lon="0.56522">
        <ele>195.3</ele>
        <time>2024-04-14T07:43:08Z</time>
      </trkpt>
      <trkpt lat="45.11838" lon="0.56513">
        <ele>195.6</ele>
        <time>2024-04-14T07:43:10Z</time>
      </trkpt>
      <trkpt lat="45.11837" lon="0.56505">
        <ele>195.9</ele>
        <time>2024-04-14T07:43:12Z</time>
      </trkpt>
      <trkpt lat="45.11837" lon="0.56493">
        <ele>196.4</ele>
        <time>2024-04-14T07:43:14Z</time>
      </trkpt>
      <trkpt lat="45.11836" lon="0.56481">
        <ele>196.8</ele>
        <time>2024-04-14T07:43:16Z</time>
      </trkpt>
      <trkpt lat="45.11837" lon="0.56469">
        <ele>197.1</ele>
        <time>2024-04-14T07:43:18Z</time>
      </trkpt>
      <trkpt lat="45.11836" lon="0.56458">
        <ele>197.5</ele>
        <time>2024-04-14T07:43:20Z</time>
      </trkpt>
      <trkpt lat="45.11836" lon="0.56446">
        <ele>197.9</ele>
        <time>2024-04-14T07:43:22Z</time>
      </trkpt>
      <trkpt lat="45.11836" lon="0.56435">
        <ele>198.1</ele>
        <time>2024-04-14T07:43:24Z</time>
      </trkpt>
      <trkpt lat="45.11836" lon="0.5643">
        <ele>197.8</ele>
        <time>2024-04-14T07:43:25Z</time>
      </trkpt>
      <trkpt lat="45.11835" lon="0.56424">
        <ele>197.9</ele>
        <time>2024-04-14T07:43:26Z</time>
      </trkpt>
      <trkpt lat="45.11836" lon="0.56413">
        <ele>198.5</ele>
        <time>2024-04-14T07:43:28Z</time>
      </trkpt>
      <trkpt lat="45.11836" lon="0.56401">
        <ele>198.5</ele>
        <time>2024-04-14T07:43:30Z</time>
      </trkpt>
      <trkpt lat="45.11836" lon="0.56387">
        <ele>198.5</ele>
        <time>2024-04-14T07:43:32Z</time>
      </trkpt>
      <trkpt lat="45.11836" lon="0.56381">
        <ele>198.4</ele>
        <time>2024-04-14T07:43:33Z</time>
      </trkpt>
      <trkpt lat="45.11836" lon="0.56374">
        <ele>198.3</ele>
        <time>2024-04-14T07:43:34Z</time>
      </trkpt>
      <trkpt lat="45.11836" lon="0.56359">
        <ele>198.1</ele>
        <time>2024-04-14T07:43:36Z</time>
      </trkpt>
      <trkpt lat="45.11837" lon="0.56345">
        <ele>197.9</ele>
        <time>2024-04-14T07:43:38Z</time>
      </trkpt>
      <trkpt lat="45.11839" lon="0.56331">
        <ele>197.7</ele>
        <time>2024-04-14T07:43:40Z</time>
      </trkpt>
      <trkpt lat="45.1184" lon="0.56316">
        <ele>197.3</ele>
        <time>2024-04-14T07:43:42Z</time>
      </trkpt>
      <trkpt lat="45.11841" lon="0.563">
        <ele>196.5</ele>
        <time>2024-04-14T07:43:44Z</time>
      </trkpt>
      <trkpt lat="45.11842" lon="0.56292">
        <ele>196.1</ele>
        <time>2024-04-14T07:43:45Z</time>
      </trkpt>
      <trkpt lat="45.11842" lon="0.56284">
        <ele>196.1</ele>
        <time>2024-04-14T07:43:46Z</time>
      </trkpt>
      <trkpt lat="45.11842" lon="0.56267">
        <ele>195.4</ele>
        <time>2024-04-14T07:43:48Z</time>
      </trkpt>
      <trkpt lat="45.11842" lon="0.56259">
        <ele>195</ele>
        <time>2024-04-14T07:43:49Z</time>
      </trkpt>
      <trkpt lat="45.11843" lon="0.56251">
        <ele>194.6</ele>
        <time>2024-04-14T07:43:50Z</time>
      </trkpt>
      <trkpt lat="45.11845" lon="0.56233">
        <ele>194</ele>
        <time>2024-04-14T07:43:52Z</time>
      </trkpt>
      <trkpt lat="45.11846" lon="0.56223">
        <ele>193.5</ele>
        <time>2024-04-14T07:43:53Z</time>
      </trkpt>
      <trkpt lat="45.11848" lon="0.56212">
        <ele>193.1</ele>
        <time>2024-04-14T07:43:54Z</time>
      </trkpt>
      <trkpt lat="45.11849" lon="0.56189">
        <ele>192.3</ele>
        <time>2024-04-14T07:43:56Z</time>
      </trkpt>
      <trkpt lat="45.11848" lon="0.56177">
        <ele>192</ele>
        <time>2024-04-14T07:43:57Z</time>
      </trkpt>
      <trkpt lat="45.11847" lon="0.56165">
        <ele>191.5</ele>
        <time>2024-04-14T07:43:58Z</time>
      </trkpt>
      <trkpt lat="45.11843" lon="0.56141">
        <ele>190.6</ele>
        <time>2024-04-14T07:44:00Z</time>
      </trkpt>
      <trkpt lat="45.11842" lon="0.56128">
        <ele>190</ele>
        <time>2024-04-14T07:44:01Z</time>
      </trkpt>
      <trkpt lat="45.11842" lon="0.56115">
        <ele>189.1</ele>
        <time>2024-04-14T07:44:02Z</time>
      </trkpt>
      <trkpt lat="45.11845" lon="0.56094">
        <ele>187.2</ele>
        <time>2024-04-14T07:44:04Z</time>
      </trkpt>
      <trkpt lat="45.1184" lon="0.56076">
        <ele>185.6</ele>
        <time>2024-04-14T07:44:06Z</time>
      </trkpt>
      <trkpt lat="45.11837" lon="0.56067">
        <ele>184.9</ele>
        <time>2024-04-14T07:44:07Z</time>
      </trkpt>
      <trkpt lat="45.11835" lon="0.56057">
        <ele>184.2</ele>
        <time>2024-04-14T07:44:08Z</time>
      </trkpt>
      <trkpt lat="45.11832" lon="0.56048">
        <ele>183.4</ele>
        <time>2024-04-14T07:44:09Z</time>
      </trkpt>
      <trkpt lat="45.1183" lon="0.5604">
        <ele>182.5</ele>
        <time>2024-04-14T07:44:10Z</time>
      </trkpt>
      <trkpt lat="45.11827" lon="0.56032">
        <ele>181.4</ele>
        <time>2024-04-14T07:44:11Z</time>
      </trkpt>
      <trkpt lat="45.11825" lon="0.56024">
        <ele>180</ele>
        <time>2024-04-14T07:44:12Z</time>
      </trkpt>
      <trkpt lat="45.11824" lon="0.5601">
        <ele>178.7</ele>
        <time>2024-04-14T07:44:14Z</time>
      </trkpt>
      <trkpt lat="45.11827" lon="0.55995">
        <ele>177.5</ele>
        <time>2024-04-14T07:44:16Z</time>
      </trkpt>
      <trkpt lat="45.11829" lon="0.55979">
        <ele>176.9</ele>
        <time>2024-04-14T07:44:18Z</time>
      </trkpt>
      <trkpt lat="45.11829" lon="0.55972">
        <ele>176.7</ele>
        <time>2024-04-14T07:44:19Z</time>
      </trkpt>
      <trkpt lat="45.11828" lon="0.55965">
        <ele>176.5</ele>
        <time>2024-04-14T07:44:20Z</time>
      </trkpt>
      <trkpt lat="45.11827" lon="0.55952">
        <ele>176.3</ele>
        <time>2024-04-14T07:44:22Z</time>
      </trkpt>
      <trkpt lat="45.11827" lon="0.55945">
        <ele>176.3</ele>
        <time>2024-04-14T07:44:23Z</time>
      </trkpt>
      <trkpt lat="45.11828" lon="0.55938">
        <ele>176.3</ele>
        <time>2024-04-14T07:44:24Z</time>
      </trkpt>
      <trkpt lat="45.11831" lon="0.55928">
        <ele>176.3</ele>
        <time>2024-04-14T07:44:26Z</time>
      </trkpt>
      <trkpt lat="45.11834" lon="0.55923">
        <ele>176.3</ele>
        <time>2024-04-14T07:44:27Z</time>
      </trkpt>
      <trkpt lat="45.11837" lon="0.55918">
        <ele>176.3</ele>
        <time>2024-04-14T07:44:28Z</time>
      </trkpt>
      <trkpt lat="45.11841" lon="0.55912">
        <ele>176.2</ele>
        <time>2024-04-14T07:44:29Z</time>
      </trkpt>
      <trkpt lat="45.11843" lon="0.55906">
        <ele>176</ele>
        <time>2024-04-14T07:44:30Z</time>
      </trkpt>
      <trkpt lat="45.11848" lon="0.55895">
        <ele>175.8</ele>
        <time>2024-04-14T07:44:32Z</time>
      </trkpt>
      <trkpt lat="45.11853" lon="0.55883">
        <ele>175.6</ele>
        <time>2024-04-14T07:44:34Z</time>
      </trkpt>
      <trkpt lat="45.11859" lon="0.55872">
        <ele>175.2</ele>
        <time>2024-04-14T07:44:36Z</time>
      </trkpt>
      <trkpt lat="45.11864" lon="0.55861">
        <ele>174.7</ele>
        <time>2024-04-14T07:44:38Z</time>
      </trkpt>
      <trkpt lat="45.11869" lon="0.5585">
        <ele>174.5</ele>
        <time>2024-04-14T07:44:40Z</time>
      </trkpt>
      <trkpt lat="45.11872" lon="0.55839">
        <ele>174</ele>
        <time>2024-04-14T07:44:42Z</time>
      </trkpt>
      <trkpt lat="45.11874" lon="0.55834">
        <ele>173.9</ele>
        <time>2024-04-14T07:44:43Z</time>
      </trkpt>
      <trkpt lat="45.11875" lon="0.55827">
        <ele>173.8</ele>
        <time>2024-04-14T07:44:44Z</time>
      </trkpt>
      <trkpt lat="45.11876" lon="0.55821">
        <ele>173.5</ele>
        <time>2024-04-14T07:44:45Z</time>
      </trkpt>
      <trkpt lat="45.11876" lon="0.55815">
        <ele>173.5</ele>
        <time>2024-04-14T07:44:46Z</time>
      </trkpt>
      <trkpt lat="45.11878" lon="0.55806">
        <ele>173.4</ele>
        <time>2024-04-14T07:44:48Z</time>
      </trkpt>
      <trkpt lat="45.11879" lon="0.55802">
        <ele>173.4</ele>
        <time>2024-04-14T07:44:49Z</time>
      </trkpt>
      <trkpt lat="45.1188" lon="0.55798">
        <ele>173.4</ele>
        <time>2024-04-14T07:44:50Z</time>
      </trkpt>
      <trkpt lat="45.11882" lon="0.55795">
        <ele>173.3</ele>
        <time>2024-04-14T07:44:51Z</time>
      </trkpt>
      <trkpt lat="45.11882" lon="0.55795">
        <ele>173.3</ele>
        <time>2024-04-14T07:44:52Z</time>
      </trkpt>
      <trkpt lat="45.11887" lon="0.55785">
        <ele>173.6</ele>
        <time>2024-04-14T07:44:54Z</time>
      </trkpt>
      <trkpt lat="45.1189" lon="0.55779">
        <ele>173.6</ele>
        <time>2024-04-14T07:44:55Z</time>
      </trkpt>
      <trkpt lat="45.11893" lon="0.55773">
        <ele>173.7</ele>
        <time>2024-04-14T07:44:56Z</time>
      </trkpt>
      <trkpt lat="45.11896" lon="0.55767">
        <ele>173.7</ele>
        <time>2024-04-14T07:44:57Z</time>
      </trkpt>
      <trkpt lat="45.11898" lon="0.55761">
        <ele>173.6</ele>
        <time>2024-04-14T07:44:58Z</time>
      </trkpt>
      <trkpt lat="45.119" lon="0.55754">
        <ele>173.4</ele>
        <time>2024-04-14T07:44:59Z</time>
      </trkpt>
      <trkpt lat="45.11902" lon="0.55747">
        <ele>173.3</ele>
        <time>2024-04-14T07:45:00Z</time>
      </trkpt>
      <trkpt lat="45.11904" lon="0.5574">
        <ele>173.1</ele>
        <time>2024-04-14T07:45:01Z</time>
      </trkpt>
      <trkpt lat="45.11906" lon="0.55731">
        <ele>172.8</ele>
        <time>2024-04-14T07:45:02Z</time>
      </trkpt>
      <trkpt lat="45.11908" lon="0.55722">
        <ele>172.8</ele>
        <time>2024-04-14T07:45:03Z</time>
      </trkpt>
      <trkpt lat="45.1191" lon="0.55713">
        <ele>172.7</ele>
        <time>2024-04-14T07:45:04Z</time>
      </trkpt>
      <trkpt lat="45.11911" lon="0.55705">
        <ele>172.7</ele>
        <time>2024-04-14T07:45:05Z</time>
      </trkpt>
      <trkpt lat="45.11913" lon="0.55696">
        <ele>172.5</ele>
        <time>2024-04-14T07:45:06Z</time>
      </trkpt>
      <trkpt lat="45.11919" lon="0.55678">
        <ele>171.6</ele>
        <time>2024-04-14T07:45:08Z</time>
      </trkpt>
      <trkpt lat="45.11922" lon="0.55669">
        <ele>171.2</ele>
        <time>2024-04-14T07:45:09Z</time>
      </trkpt>
      <trkpt lat="45.11926" lon="0.5566">
        <ele>171</ele>
        <time>2024-04-14T07:45:10Z</time>
      </trkpt>
      <trkpt lat="45.11932" lon="0.55652">
        <ele>170.6</ele>
        <time>2024-04-14T07:45:11Z</time>
      </trkpt>
      <trkpt lat="45.1194" lon="0.55644">
        <ele>169.7</ele>
        <time>2024-04-14T07:45:12Z</time>
      </trkpt>
      <trkpt lat="45.11953" lon="0.55629">
        <ele>168.7</ele>
        <time>2024-04-14T07:45:14Z</time>
      </trkpt>
      <trkpt lat="45.11968" lon="0.55618">
        <ele>167.7</ele>
        <time>2024-04-14T07:45:16Z</time>
      </trkpt>
      <trkpt lat="45.11984" lon="0.55605">
        <ele>167.3</ele>
        <time>2024-04-14T07:45:18Z</time>
      </trkpt>
      <trkpt lat="45.11992" lon="0.55597">
        <ele>167.1</ele>
        <time>2024-04-14T07:45:19Z</time>
      </trkpt>
      <trkpt lat="45.12001" lon="0.5559">
        <ele>167.1</ele>
        <time>2024-04-14T07:45:20Z</time>
      </trkpt>
      <trkpt lat="45.12016" lon="0.55578">
        <ele>166.1</ele>
        <time>2024-04-14T07:45:22Z</time>
      </trkpt>
      <trkpt lat="45.12032" lon="0.55564">
        <ele>165.6</ele>
        <time>2024-04-14T07:45:24Z</time>
      </trkpt>
      <trkpt lat="45.1204" lon="0.55557">
        <ele>165.2</ele>
        <time>2024-04-14T07:45:25Z</time>
      </trkpt>
      <trkpt lat="45.12047" lon="0.55549">
        <ele>164.9</ele>
        <time>2024-04-14T07:45:26Z</time>
      </trkpt>
      <trkpt lat="45.1206" lon="0.55534">
        <ele>164.5</ele>
        <time>2024-04-14T07:45:28Z</time>
      </trkpt>
      <trkpt lat="45.12073" lon="0.5552">
        <ele>163.9</ele>
        <time>2024-04-14T07:45:30Z</time>
      </trkpt>
      <trkpt lat="45.12085" lon="0.55506">
        <ele>163.5</ele>
        <time>2024-04-14T07:45:32Z</time>
      </trkpt>
      <trkpt lat="45.12096" lon="0.55492">
        <ele>162.5</ele>
        <time>2024-04-14T07:45:34Z</time>
      </trkpt>
      <trkpt lat="45.12107" lon="0.55479">
        <ele>162</ele>
        <time>2024-04-14T07:45:36Z</time>
      </trkpt>
      <trkpt lat="45.12112" lon="0.55473">
        <ele>161.6</ele>
        <time>2024-04-14T07:45:37Z</time>
      </trkpt>
      <trkpt lat="45.12118" lon="0.55467">
        <ele>161.2</ele>
        <time>2024-04-14T07:45:38Z</time>
      </trkpt>
      <trkpt lat="45.12131" lon="0.55457">
        <ele>160.5</ele>
        <time>2024-04-14T07:45:40Z</time>
      </trkpt>
      <trkpt lat="45.12143" lon="0.55447">
        <ele>160.1</ele>
        <time>2024-04-14T07:45:42Z</time>
      </trkpt>
      <trkpt lat="45.12149" lon="0.55443">
        <ele>160</ele>
        <time>2024-04-14T07:45:43Z</time>
      </trkpt>
      <trkpt lat="45.12155" lon="0.55438">
        <ele>159.8</ele>
        <time>2024-04-14T07:45:44Z</time>
      </trkpt>
      <trkpt lat="45.12167" lon="0.55428">
        <ele>159.7</ele>
        <time>2024-04-14T07:45:46Z</time>
      </trkpt>
      <trkpt lat="45.12178" lon="0.55415">
        <ele>159.2</ele>
        <time>2024-04-14T07:45:48Z</time>
      </trkpt>
      <trkpt lat="45.1219" lon="0.55402">
        <ele>158.9</ele>
        <time>2024-04-14T07:45:50Z</time>
      </trkpt>
      <trkpt lat="45.12201" lon="0.55388">
        <ele>159.1</ele>
        <time>2024-04-14T07:45:52Z</time>
      </trkpt>
      <trkpt lat="45.12212" lon="0.55375">
        <ele>158.9</ele>
        <time>2024-04-14T07:45:54Z</time>
      </trkpt>
      <trkpt lat="45.12218" lon="0.5537">
        <ele>158.8</ele>
        <time>2024-04-14T07:45:55Z</time>
      </trkpt>
      <trkpt lat="45.12224" lon="0.55365">
        <ele>158.8</ele>
        <time>2024-04-14T07:45:56Z</time>
      </trkpt>
      <trkpt lat="45.12235" lon="0.55356">
        <ele>158.9</ele>
        <time>2024-04-14T07:45:58Z</time>
      </trkpt>
      <trkpt lat="45.12245" lon="0.55348">
        <ele>159</ele>
        <time>2024-04-14T07:46:00Z</time>
      </trkpt>
      <trkpt lat="45.12256" lon="0.55341">
        <ele>159.2</ele>
        <time>2024-04-14T07:46:02Z</time>
      </trkpt>
      <trkpt lat="45.12266" lon="0.55335">
        <ele>159.2</ele>
        <time>2024-04-14T07:46:04Z</time>
      </trkpt>
      <trkpt lat="45.1228" lon="0.55329">
        <ele>159.1</ele>
        <time>2024-04-14T07:46:06Z</time>
      </trkpt>
      <trkpt lat="45.12294" lon="0.55321">
        <ele>159</ele>
        <time>2024-04-14T07:46:08Z</time>
      </trkpt>
      <trkpt lat="45.12301" lon="0.55315">
        <ele>158.9</ele>
        <time>2024-04-14T07:46:09Z</time>
      </trkpt>
      <trkpt lat="45.12306" lon="0.55309">
        <ele>158.8</ele>
        <time>2024-04-14T07:46:10Z</time>
      </trkpt>
      <trkpt lat="45.1231" lon="0.55303">
        <ele>159.2</ele>
        <time>2024-04-14T07:46:11Z</time>
      </trkpt>
      <trkpt lat="45.12316" lon="0.55298">
        <ele>159.3</ele>
        <time>2024-04-14T07:46:12Z</time>
      </trkpt>
      <trkpt lat="45.12326" lon="0.55287">
        <ele>159.8</ele>
        <time>2024-04-14T07:46:14Z</time>
      </trkpt>
      <trkpt lat="45.12331" lon="0.55282">
        <ele>159.6</ele>
        <time>2024-04-14T07:46:15Z</time>
      </trkpt>
      <trkpt lat="45.12336" lon="0.55277">
        <ele>159.4</ele>
        <time>2024-04-14T07:46:16Z</time>
      </trkpt>
      <trkpt lat="45.1234" lon="0.55272">
        <ele>159.4</ele>
        <time>2024-04-14T07:46:17Z</time>
      </trkpt>
      <trkpt lat="45.12344" lon="0.55266">
        <ele>159.6</ele>
        <time>2024-04-14T07:46:18Z</time>
      </trkpt>
      <trkpt lat="45.12348" lon="0.55261">
        <ele>159.6</ele>
        <time>2024-04-14T07:46:19Z</time>
      </trkpt>
      <trkpt lat="45.12352" lon="0.55257">
        <ele>159.6</ele>
        <time>2024-04-14T07:46:20Z</time>
      </trkpt>
      <trkpt lat="45.12359" lon="0.55248">
        <ele>159.8</ele>
        <time>2024-04-14T07:46:22Z</time>
      </trkpt>
      <trkpt lat="45.12367" lon="0.55238">
        <ele>159.9</ele>
        <time>2024-04-14T07:46:24Z</time>
      </trkpt>
      <trkpt lat="45.12371" lon="0.55233">
        <ele>159.9</ele>
        <time>2024-04-14T07:46:25Z</time>
      </trkpt>
      <trkpt lat="45.12374" lon="0.55228">
        <ele>159.9</ele>
        <time>2024-04-14T07:46:26Z</time>
      </trkpt>
      <trkpt lat="45.12381" lon="0.55219">
        <ele>159.7</ele>
        <time>2024-04-14T07:46:28Z</time>
      </trkpt>
      <trkpt lat="45.1239" lon="0.55213">
        <ele>159.2</ele>
        <time>2024-04-14T07:46:30Z</time>
      </trkpt>
      <trkpt lat="45.12401" lon="0.55209">
        <ele>158.7</ele>
        <time>2024-04-14T07:46:32Z</time>
      </trkpt>
      <trkpt lat="45.12417" lon="0.55205">
        <ele>157.8</ele>
        <time>2024-04-14T07:46:34Z</time>
      </trkpt>
      <trkpt lat="45.12435" lon="0.552">
        <ele>156.1</ele>
        <time>2024-04-14T07:46:36Z</time>
      </trkpt>
      <trkpt lat="45.12443" lon="0.55195">
        <ele>155</ele>
        <time>2024-04-14T07:46:37Z</time>
      </trkpt>
      <trkpt lat="45.1245" lon="0.55189">
        <ele>154.4</ele>
        <time>2024-04-14T07:46:38Z</time>
      </trkpt>
      <trkpt lat="45.12455" lon="0.55182">
        <ele>153.7</ele>
        <time>2024-04-14T07:46:39Z</time>
      </trkpt>
      <trkpt lat="45.1246" lon="0.55174">
        <ele>153.1</ele>
        <time>2024-04-14T07:46:40Z</time>
      </trkpt>
      <trkpt lat="45.12464" lon="0.55167">
        <ele>152.9</ele>
        <time>2024-04-14T07:46:41Z</time>
      </trkpt>
      <trkpt lat="45.12469" lon="0.5516">
        <ele>152.2</ele>
        <time>2024-04-14T07:46:42Z</time>
      </trkpt>
      <trkpt lat="45.12474" lon="0.55155">
        <ele>151.8</ele>
        <time>2024-04-14T07:46:43Z</time>
      </trkpt>
      <trkpt lat="45.12476" lon="0.55149">
        <ele>151.4</ele>
        <time>2024-04-14T07:46:44Z</time>
      </trkpt>
      <trkpt lat="45.12478" lon="0.55143">
        <ele>150.9</ele>
        <time>2024-04-14T07:46:45Z</time>
      </trkpt>
      <trkpt lat="45.12478" lon="0.55138">
        <ele>150.9</ele>
        <time>2024-04-14T07:46:46Z</time>
      </trkpt>
      <trkpt lat="45.12478" lon="0.55134">
        <ele>151</ele>
        <time>2024-04-14T07:46:47Z</time>
      </trkpt>
      <trkpt lat="45.12478" lon="0.55131">
        <ele>151.4</ele>
        <time>2024-04-14T07:46:48Z</time>
      </trkpt>
      <trkpt lat="45.12476" lon="0.55127">
        <ele>151.8</ele>
        <time>2024-04-14T07:46:50Z</time>
      </trkpt>
      <trkpt lat="45.12474" lon="0.55124">
        <ele>152.1</ele>
        <time>2024-04-14T07:46:51Z</time>
      </trkpt>
      <trkpt lat="45.12472" lon="0.5512">
        <ele>152.5</ele>
        <time>2024-04-14T07:46:52Z</time>
      </trkpt>
      <trkpt lat="45.1247" lon="0.55115">
        <ele>153</ele>
        <time>2024-04-14T07:46:54Z</time>
      </trkpt>
      <trkpt lat="45.12468" lon="0.55111">
        <ele>153.4</ele>
        <time>2024-04-14T07:46:56Z</time>
      </trkpt>
      <trkpt lat="45.12465" lon="0.55107">
        <ele>153.9</ele>
        <time>2024-04-14T07:46:58Z</time>
      </trkpt>
      <trkpt lat="45.12463" lon="0.55103">
        <ele>154.5</ele>
        <time>2024-04-14T07:47:00Z</time>
      </trkpt>
      <trkpt lat="45.12461" lon="0.55099">
        <ele>154.9</ele>
        <time>2024-04-14T07:47:02Z</time>
      </trkpt>
      <trkpt lat="45.12458" lon="0.55097">
        <ele>155.3</ele>
        <time>2024-04-14T07:47:04Z</time>
      </trkpt>
      <trkpt lat="45.12458" lon="0.55096">
        <ele>155.4</ele>
        <time>2024-04-14T07:47:05Z</time>
      </trkpt>
      <trkpt lat="45.12457" lon="0.55095">
        <ele>155.5</ele>
        <time>2024-04-14T07:47:06Z</time>
      </trkpt>
      <trkpt lat="45.12456" lon="0.55093">
        <ele>155.7</ele>
        <time>2024-04-14T07:47:07Z</time>
      </trkpt>
      <trkpt lat="45.12455" lon="0.55093">
        <ele>155.8</ele>
        <time>2024-04-14T07:47:08Z</time>
      </trkpt>
      <trkpt lat="45.12453" lon="0.55091">
        <ele>156.2</ele>
        <time>2024-04-14T07:47:10Z</time>
      </trkpt>
      <trkpt lat="45.1245" lon="0.55088">
        <ele>156.6</ele>
        <time>2024-04-14T07:47:12Z</time>
      </trkpt>
      <trkpt lat="45.12447" lon="0.55086">
        <ele>156.9</ele>
        <time>2024-04-14T07:47:14Z</time>
      </trkpt>
      <trkpt lat="45.12446" lon="0.55086">
        <ele>157.1</ele>
        <time>2024-04-14T07:47:15Z</time>
      </trkpt>
      <trkpt lat="45.12444" lon="0.55085">
        <ele>157.3</ele>
        <time>2024-04-14T07:47:16Z</time>
      </trkpt>
      <trkpt lat="45.12441" lon="0.55084">
        <ele>157.6</ele>
        <time>2024-04-14T07:47:18Z</time>
      </trkpt>
      <trkpt lat="45.12437" lon="0.55083">
        <ele>157.8</ele>
        <time>2024-04-14T07:47:20Z</time>
      </trkpt>
      <trkpt lat="45.12436" lon="0.55082">
        <ele>157.9</ele>
        <time>2024-04-14T07:47:21Z</time>
      </trkpt>
      <trkpt lat="45.12434" lon="0.55082">
        <ele>158</ele>
        <time>2024-04-14T07:47:22Z</time>
      </trkpt>
      <trkpt lat="45.12432" lon="0.55081">
        <ele>158.2</ele>
        <time>2024-04-14T07:47:24Z</time>
      </trkpt>
      <trkpt lat="45.12431" lon="0.55081">
        <ele>158.3</ele>
        <time>2024-04-14T07:47:25Z</time>
      </trkpt>
      <trkpt lat="45.12429" lon="0.55079">
        <ele>158.3</ele>
        <time>2024-04-14T07:47:26Z</time>
      </trkpt>
      <trkpt lat="45.12428" lon="0.55078">
        <ele>158.4</ele>
        <time>2024-04-14T07:47:27Z</time>
      </trkpt>
      <trkpt lat="45.12426" lon="0.55076">
        <ele>158.4</ele>
        <time>2024-04-14T07:47:28Z</time>
      </trkpt>
      <trkpt lat="45.12424" lon="0.55074">
        <ele>158.5</ele>
        <time>2024-04-14T07:47:30Z</time>
      </trkpt>
      <trkpt lat="45.12422" lon="0.55072">
        <ele>158.5</ele>
        <time>2024-04-14T07:47:31Z</time>
      </trkpt>
      <trkpt lat="45.12421" lon="0.5507">
        <ele>158.5</ele>
        <time>2024-04-14T07:47:32Z</time>
      </trkpt>
      <trkpt lat="45.12421" lon="0.55068">
        <ele>158.4</ele>
        <time>2024-04-14T07:47:33Z</time>
      </trkpt>
      <trkpt lat="45.1242" lon="0.55066">
        <ele>158.4</ele>
        <time>2024-04-14T07:47:34Z</time>
      </trkpt>
      <trkpt lat="45.12418" lon="0.55059">
        <ele>158.2</ele>
        <time>2024-04-14T07:47:36Z</time>
      </trkpt>
      <trkpt lat="45.12416" lon="0.55056">
        <ele>158</ele>
        <time>2024-04-14T07:47:37Z</time>
      </trkpt>
      <trkpt lat="45.12413" lon="0.55054">
        <ele>157.7</ele>
        <time>2024-04-14T07:47:38Z</time>
      </trkpt>
      <trkpt lat="45.12408" lon="0.55053">
        <ele>157.3</ele>
        <time>2024-04-14T07:47:39Z</time>
      </trkpt>
      <trkpt lat="45.12404" lon="0.55052">
        <ele>156.8</ele>
        <time>2024-04-14T07:47:40Z</time>
      </trkpt>
      <trkpt lat="45.12393" lon="0.55053">
        <ele>155.3</ele>
        <time>2024-04-14T07:47:42Z</time>
      </trkpt>
      <trkpt lat="45.12381" lon="0.55058">
        <ele>153.3</ele>
        <time>2024-04-14T07:47:44Z</time>
      </trkpt>
      <trkpt lat="45.12369" lon="0.55069">
        <ele>151.2</ele>
        <time>2024-04-14T07:47:46Z</time>
      </trkpt>
      <trkpt lat="45.12363" lon="0.55075">
        <ele>150.1</ele>
        <time>2024-04-14T07:47:47Z</time>
      </trkpt>
      <trkpt lat="45.12357" lon="0.5508">
        <ele>149.1</ele>
        <time>2024-04-14T07:47:48Z</time>
      </trkpt>
      <trkpt lat="45.12344" lon="0.55091">
        <ele>147</ele>
        <time>2024-04-14T07:47:50Z</time>
      </trkpt>
      <trkpt lat="45.12337" lon="0.55095">
        <ele>145.8</ele>
        <time>2024-04-14T07:47:51Z</time>
      </trkpt>
      <trkpt lat="45.12329" lon="0.551">
        <ele>144.4</ele>
        <time>2024-04-14T07:47:52Z</time>
      </trkpt>
      <trkpt lat="45.12312" lon="0.55111">
        <ele>141.6</ele>
        <time>2024-04-14T07:47:54Z</time>
      </trkpt>
      <trkpt lat="45.12294" lon="0.55123">
        <ele>138.9</ele>
        <time>2024-04-14T07:47:56Z</time>
      </trkpt>
      <trkpt lat="45.12276" lon="0.55135">
        <ele>136.4</ele>
        <time>2024-04-14T07:47:58Z</time>
      </trkpt>
      <trkpt lat="45.12259" lon="0.55147">
        <ele>134.4</ele>
        <time>2024-04-14T07:48:00Z</time>
      </trkpt>
      <trkpt lat="45.12251" lon="0.55153">
        <ele>133.6</ele>
        <time>2024-04-14T07:48:01Z</time>
      </trkpt>
      <trkpt lat="45.12243" lon="0.5516">
        <ele>132.9</ele>
        <time>2024-04-14T07:48:02Z</time>
      </trkpt>
      <trkpt lat="45.12227" lon="0.55174">
        <ele>131.6</ele>
        <time>2024-04-14T07:48:04Z</time>
      </trkpt>
      <trkpt lat="45.1222" lon="0.55179">
        <ele>130.8</ele>
        <time>2024-04-14T07:48:05Z</time>
      </trkpt>
      <trkpt lat="45.12212" lon="0.55181">
        <ele>129.8</ele>
        <time>2024-04-14T07:48:06Z</time>
      </trkpt>
      <trkpt lat="45.12194" lon="0.55184">
        <ele>127.6</ele>
        <time>2024-04-14T07:48:08Z</time>
      </trkpt>
      <trkpt lat="45.12175" lon="0.5519">
        <ele>125.5</ele>
        <time>2024-04-14T07:48:10Z</time>
      </trkpt>
      <trkpt lat="45.12165" lon="0.55193">
        <ele>124.3</ele>
        <time>2024-04-14T07:48:11Z</time>
      </trkpt>
      <trkpt lat="45.12155" lon="0.55197">
        <ele>123.3</ele>
        <time>2024-04-14T07:48:12Z</time>
      </trkpt>
      <trkpt lat="45.12136" lon="0.55206">
        <ele>121.4</ele>
        <time>2024-04-14T07:48:14Z</time>
      </trkpt>
      <trkpt lat="45.12127" lon="0.5521">
        <ele>120.5</ele>
        <time>2024-04-14T07:48:15Z</time>
      </trkpt>
      <trkpt lat="45.12117" lon="0.55214">
        <ele>119.6</ele>
        <time>2024-04-14T07:48:16Z</time>
      </trkpt>
      <trkpt lat="45.12098" lon="0.55223">
        <ele>118</ele>
        <time>2024-04-14T07:48:18Z</time>
      </trkpt>
      <trkpt lat="45.12088" lon="0.55229">
        <ele>117.3</ele>
        <time>2024-04-14T07:48:19Z</time>
      </trkpt>
      <trkpt lat="45.12079" lon="0.55235">
        <ele>116.7</ele>
        <time>2024-04-14T07:48:20Z</time>
      </trkpt>
      <trkpt lat="45.12061" lon="0.55247">
        <ele>115.7</ele>
        <time>2024-04-14T07:48:22Z</time>
      </trkpt>
      <trkpt lat="45.12053" lon="0.55252">
        <ele>115.4</ele>
        <time>2024-04-14T07:48:23Z</time>
      </trkpt>
      <trkpt lat="45.12047" lon="0.55258">
        <ele>115.1</ele>
        <time>2024-04-14T07:48:24Z</time>
      </trkpt>
      <trkpt lat="45.12043" lon="0.55262">
        <ele>114.9</ele>
        <time>2024-04-14T07:48:25Z</time>
      </trkpt>
      <trkpt lat="45.1204" lon="0.55264">
        <ele>114.8</ele>
        <time>2024-04-14T07:48:26Z</time>
      </trkpt>
      <trkpt lat="45.12038" lon="0.55265">
        <ele>114.8</ele>
        <time>2024-04-14T07:48:27Z</time>
      </trkpt>
      <trkpt lat="45.12035" lon="0.55266">
        <ele>114.8</ele>
        <time>2024-04-14T07:48:28Z</time>
      </trkpt>
      <trkpt lat="45.12032" lon="0.55267">
        <ele>114.7</ele>
        <time>2024-04-14T07:48:30Z</time>
      </trkpt>
      <trkpt lat="45.1203" lon="0.55268">
        <ele>114.7</ele>
        <time>2024-04-14T07:48:31Z</time>
      </trkpt>
      <trkpt lat="45.12028" lon="0.55271">
        <ele>114.7</ele>
        <time>2024-04-14T07:48:32Z</time>
      </trkpt>
      <trkpt lat="45.12026" lon="0.55273">
        <ele>114.8</ele>
        <time>2024-04-14T07:48:34Z</time>
      </trkpt>
      <trkpt lat="45.12025" lon="0.55274">
        <ele>114.8</ele>
        <time>2024-04-14T07:48:35Z</time>
      </trkpt>
      <trkpt lat="45.12024" lon="0.55276">
        <ele>114.9</ele>
        <time>2024-04-14T07:48:36Z</time>
      </trkpt>
      <trkpt lat="45.1202" lon="0.55281">
        <ele>115.1</ele>
        <time>2024-04-14T07:48:38Z</time>
      </trkpt>
      <trkpt lat="45.12018" lon="0.55284">
        <ele>115.3</ele>
        <time>2024-04-14T07:48:40Z</time>
      </trkpt>
      <trkpt lat="45.12015" lon="0.55286">
        <ele>115.4</ele>
        <time>2024-04-14T07:48:42Z</time>
      </trkpt>
      <trkpt lat="45.12011" lon="0.55289">
        <ele>115.6</ele>
        <time>2024-04-14T07:48:44Z</time>
      </trkpt>
      <trkpt lat="45.12008" lon="0.55292">
        <ele>115.7</ele>
        <time>2024-04-14T07:48:46Z</time>
      </trkpt>
      <trkpt lat="45.12005" lon="0.55296">
        <ele>115.9</ele>
        <time>2024-04-14T07:48:48Z</time>
      </trkpt>
      <trkpt lat="45.12002" lon="0.553">
        <ele>116.1</ele>
        <time>2024-04-14T07:48:50Z</time>
      </trkpt>
      <trkpt lat="45.11998" lon="0.55304">
        <ele>116.3</ele>
        <time>2024-04-14T07:48:52Z</time>
      </trkpt>
      <trkpt lat="45.11995" lon="0.55308">
        <ele>116.5</ele>
        <time>2024-04-14T07:48:54Z</time>
      </trkpt>
      <trkpt lat="45.11994" lon="0.5531">
        <ele>116.5</ele>
        <time>2024-04-14T07:48:55Z</time>
      </trkpt>
      <trkpt lat="45.11992" lon="0.55312">
        <ele>116.6</ele>
        <time>2024-04-14T07:48:56Z</time>
      </trkpt>
      <trkpt lat="45.11989" lon="0.55315">
        <ele>116.8</ele>
        <time>2024-04-14T07:48:58Z</time>
      </trkpt>
      <trkpt lat="45.11986" lon="0.55319">
        <ele>117</ele>
        <time>2024-04-14T07:49:00Z</time>
      </trkpt>
      <trkpt lat="45.11984" lon="0.55321">
        <ele>117.1</ele>
        <time>2024-04-14T07:49:01Z</time>
      </trkpt>
      <trkpt lat="45.11983" lon="0.55324">
        <ele>117.2</ele>
        <time>2024-04-14T07:49:02Z</time>
      </trkpt>
      <trkpt lat="45.1198" lon="0.55327">
        <ele>117.4</ele>
        <time>2024-04-14T07:49:04Z</time>
      </trkpt>
      <trkpt lat="45.11977" lon="0.5533">
        <ele>117.5</ele>
        <time>2024-04-14T07:49:06Z</time>
      </trkpt>
      <trkpt lat="45.11976" lon="0.55333">
        <ele>117.7</ele>
        <time>2024-04-14T07:49:07Z</time>
      </trkpt>
      <trkpt lat="45.11974" lon="0.55336">
        <ele>117.8</ele>
        <time>2024-04-14T07:49:08Z</time>
      </trkpt>
      <trkpt lat="45.11971" lon="0.55339">
        <ele>118</ele>
        <time>2024-04-14T07:49:10Z</time>
      </trkpt>
      <trkpt lat="45.11968" lon="0.55343">
        <ele>118.2</ele>
        <time>2024-04-14T07:49:12Z</time>
      </trkpt>
      <trkpt lat="45.11964" lon="0.55346">
        <ele>118.4</ele>
        <time>2024-04-14T07:49:14Z</time>
      </trkpt>
      <trkpt lat="45.1196" lon="0.55351">
        <ele>118.6</ele>
        <time>2024-04-14T07:49:16Z</time>
      </trkpt>
      <trkpt lat="45.11956" lon="0.55359">
        <ele>119</ele>
        <time>2024-04-14T07:49:18Z</time>
      </trkpt>
      <trkpt lat="45.11951" lon="0.55361">
        <ele>119.2</ele>
        <time>2024-04-14T07:49:20Z</time>
      </trkpt>
      <trkpt lat="45.11945" lon="0.55365">
        <ele>119.5</ele>
        <time>2024-04-14T07:49:22Z</time>
      </trkpt>
      <trkpt lat="45.11936" lon="0.55371">
        <ele>120</ele>
        <time>2024-04-14T07:49:24Z</time>
      </trkpt>
      <trkpt lat="45.11931" lon="0.55374">
        <ele>119.7</ele>
        <time>2024-04-14T07:49:25Z</time>
      </trkpt>
      <trkpt lat="45.11925" lon="0.55377">
        <ele>119.3</ele>
        <time>2024-04-14T07:49:26Z</time>
      </trkpt>
      <trkpt lat="45.11919" lon="0.55382">
        <ele>118.8</ele>
        <time>2024-04-14T07:49:27Z</time>
      </trkpt>
      <trkpt lat="45.11913" lon="0.55387">
        <ele>118.1</ele>
        <time>2024-04-14T07:49:28Z</time>
      </trkpt>
      <trkpt lat="45.11906" lon="0.55392">
        <ele>117.4</ele>
        <time>2024-04-14T07:49:29Z</time>
      </trkpt>
      <trkpt lat="45.11898" lon="0.55398">
        <ele>116.6</ele>
        <time>2024-04-14T07:49:30Z</time>
      </trkpt>
      <trkpt lat="45.11884" lon="0.55411">
        <ele>114.8</ele>
        <time>2024-04-14T07:49:32Z</time>
      </trkpt>
      <trkpt lat="45.11868" lon="0.55422">
        <ele>113.4</ele>
        <time>2024-04-14T07:49:34Z</time>
      </trkpt>
      <trkpt lat="45.11852" lon="0.55433">
        <ele>112.2</ele>
        <time>2024-04-14T07:49:36Z</time>
      </trkpt>
      <trkpt lat="45.11837" lon="0.55445">
        <ele>110.9</ele>
        <time>2024-04-14T07:49:38Z</time>
      </trkpt>
      <trkpt lat="45.1182" lon="0.55459">
        <ele>109.1</ele>
        <time>2024-04-14T07:49:40Z</time>
      </trkpt>
      <trkpt lat="45.11812" lon="0.55466">
        <ele>108.4</ele>
        <time>2024-04-14T07:49:41Z</time>
      </trkpt>
      <trkpt lat="45.11805" lon="0.55474">
        <ele>107.9</ele>
        <time>2024-04-14T07:49:42Z</time>
      </trkpt>
      <trkpt lat="45.11792" lon="0.55491">
        <ele>107</ele>
        <time>2024-04-14T07:49:44Z</time>
      </trkpt>
      <trkpt lat="45.11785" lon="0.55496">
        <ele>106.7</ele>
        <time>2024-04-14T07:49:45Z</time>
      </trkpt>
      <trkpt lat="45.11778" lon="0.55501">
        <ele>106.3</ele>
        <time>2024-04-14T07:49:46Z</time>
      </trkpt>
      <trkpt lat="45.1177" lon="0.55505">
        <ele>105.9</ele>
        <time>2024-04-14T07:49:47Z</time>
      </trkpt>
      <trkpt lat="45.11763" lon="0.55508">
        <ele>105.5</ele>
        <time>2024-04-14T07:49:48Z</time>
      </trkpt>
      <trkpt lat="45.11748" lon="0.55516">
        <ele>104.8</ele>
        <time>2024-04-14T07:49:50Z</time>
      </trkpt>
      <trkpt lat="45.11741" lon="0.55517">
        <ele>104.4</ele>
        <time>2024-04-14T07:49:51Z</time>
      </trkpt>
      <trkpt lat="45.11733" lon="0.55519">
        <ele>104</ele>
        <time>2024-04-14T07:49:52Z</time>
      </trkpt>
      <trkpt lat="45.11718" lon="0.55518">
        <ele>103.4</ele>
        <time>2024-04-14T07:49:54Z</time>
      </trkpt>
      <trkpt lat="45.11711" lon="0.55518">
        <ele>103.2</ele>
        <time>2024-04-14T07:49:56Z</time>
      </trkpt>
      <trkpt lat="45.11709" lon="0.55518">
        <ele>103.2</ele>
        <time>2024-04-14T07:49:57Z</time>
      </trkpt>
      <trkpt lat="45.11705" lon="0.55518">
        <ele>103.1</ele>
        <time>2024-04-14T07:49:58Z</time>
      </trkpt>
      <trkpt lat="45.11701" lon="0.55519">
        <ele>103.1</ele>
        <time>2024-04-14T07:50:00Z</time>
      </trkpt>
      <trkpt lat="45.11699" lon="0.55519">
        <ele>103.1</ele>
        <time>2024-04-14T07:50:01Z</time>
      </trkpt>
      <trkpt lat="45.11696" lon="0.55518">
        <ele>103.1</ele>
        <time>2024-04-14T07:50:02Z</time>
      </trkpt>
      <trkpt lat="45.11692" lon="0.55518">
        <ele>103.2</ele>
        <time>2024-04-14T07:50:04Z</time>
      </trkpt>
      <trkpt lat="45.11688" lon="0.55518">
        <ele>103.4</ele>
        <time>2024-04-14T07:50:06Z</time>
      </trkpt>
      <trkpt lat="45.11684" lon="0.55517">
        <ele>103.6</ele>
        <time>2024-04-14T07:50:08Z</time>
      </trkpt>
      <trkpt lat="45.1168" lon="0.55515">
        <ele>103.9</ele>
        <time>2024-04-14T07:50:10Z</time>
      </trkpt>
      <trkpt lat="45.11675" lon="0.55515">
        <ele>104.2</ele>
        <time>2024-04-14T07:50:12Z</time>
      </trkpt>
      <trkpt lat="45.11669" lon="0.55513">
        <ele>104.7</ele>
        <time>2024-04-14T07:50:14Z</time>
      </trkpt>
      <trkpt lat="45.11663" lon="0.55511">
        <ele>105</ele>
        <time>2024-04-14T07:50:16Z</time>
      </trkpt>
      <trkpt lat="45.11658" lon="0.55511">
        <ele>105.4</ele>
        <time>2024-04-14T07:50:18Z</time>
      </trkpt>
      <trkpt lat="45.11653" lon="0.5551">
        <ele>105.7</ele>
        <time>2024-04-14T07:50:20Z</time>
      </trkpt>
      <trkpt lat="45.11649" lon="0.55511">
        <ele>106</ele>
        <time>2024-04-14T07:50:22Z</time>
      </trkpt>
      <trkpt lat="45.11645" lon="0.55512">
        <ele>106.3</ele>
        <time>2024-04-14T07:50:24Z</time>
      </trkpt>
      <trkpt lat="45.11643" lon="0.55512">
        <ele>106.5</ele>
        <time>2024-04-14T07:50:25Z</time>
      </trkpt>
      <trkpt lat="45.11642" lon="0.55513">
        <ele>106.6</ele>
        <time>2024-04-14T07:50:26Z</time>
      </trkpt>
      <trkpt lat="45.11638" lon="0.55513">
        <ele>106.9</ele>
        <time>2024-04-14T07:50:28Z</time>
      </trkpt>
      <trkpt lat="45.11635" lon="0.55513">
        <ele>107.2</ele>
        <time>2024-04-14T07:50:30Z</time>
      </trkpt>
      <trkpt lat="45.11632" lon="0.55514">
        <ele>107.5</ele>
        <time>2024-04-14T07:50:31Z</time>
      </trkpt>
      <trkpt lat="45.1163" lon="0.55514">
        <ele>107.7</ele>
        <time>2024-04-14T07:50:32Z</time>
      </trkpt>
      <trkpt lat="45.11624" lon="0.55515">
        <ele>108.2</ele>
        <time>2024-04-14T07:50:34Z</time>
      </trkpt>
      <trkpt lat="45.11618" lon="0.55517">
        <ele>108.7</ele>
        <time>2024-04-14T07:50:36Z</time>
      </trkpt>
      <trkpt lat="45.11616" lon="0.55517">
        <ele>109</ele>
        <time>2024-04-14T07:50:37Z</time>
      </trkpt>
      <trkpt lat="45.11613" lon="0.55518">
        <ele>109.2</ele>
        <time>2024-04-14T07:50:38Z</time>
      </trkpt>
      <trkpt lat="45.11609" lon="0.55518">
        <ele>109.6</ele>
        <time>2024-04-14T07:50:40Z</time>
      </trkpt>
      <trkpt lat="45.11605" lon="0.55518">
        <ele>110</ele>
        <time>2024-04-14T07:50:42Z</time>
      </trkpt>
      <trkpt lat="45.11604" lon="0.55519">
        <ele>110.1</ele>
        <time>2024-04-14T07:50:43Z</time>
      </trkpt>
      <trkpt lat="45.11602" lon="0.55519">
        <ele>110.3</ele>
        <time>2024-04-14T07:50:44Z</time>
      </trkpt>
      <trkpt lat="45.11599" lon="0.55518">
        <ele>110.6</ele>
        <time>2024-04-14T07:50:46Z</time>
      </trkpt>
      <trkpt lat="45.11596" lon="0.55518">
        <ele>110.9</ele>
        <time>2024-04-14T07:50:48Z</time>
      </trkpt>
      <trkpt lat="45.11595" lon="0.55517">
        <ele>111.1</ele>
        <time>2024-04-14T07:50:49Z</time>
      </trkpt>
      <trkpt lat="45.11593" lon="0.55517">
        <ele>111.2</ele>
        <time>2024-04-14T07:50:50Z</time>
      </trkpt>
      <trkpt lat="45.11589" lon="0.55517">
        <ele>111.6</ele>
        <time>2024-04-14T07:50:52Z</time>
      </trkpt>
      <trkpt lat="45.11585" lon="0.55517">
        <ele>112.1</ele>
        <time>2024-04-14T07:50:54Z</time>
      </trkpt>
      <trkpt lat="45.11583" lon="0.55517">
        <ele>112.4</ele>
        <time>2024-04-14T07:50:55Z</time>
      </trkpt>
      <trkpt lat="45.11581" lon="0.55517">
        <ele>112.6</ele>
        <time>2024-04-14T07:50:56Z</time>
      </trkpt>
      <trkpt lat="45.11578" lon="0.55516">
        <ele>113</ele>
        <time>2024-04-14T07:50:58Z</time>
      </trkpt>
      <trkpt lat="45.11574" lon="0.55516">
        <ele>113.4</ele>
        <time>2024-04-14T07:51:00Z</time>
      </trkpt>
      <trkpt lat="45.11571" lon="0.55515">
        <ele>113.8</ele>
        <time>2024-04-14T07:51:02Z</time>
      </trkpt>
      <trkpt lat="45.11569" lon="0.55514">
        <ele>114</ele>
        <time>2024-04-14T07:51:03Z</time>
      </trkpt>
      <trkpt lat="45.11568" lon="0.55514">
        <ele>114.1</ele>
        <time>2024-04-14T07:51:04Z</time>
      </trkpt>
      <trkpt lat="45.11565" lon="0.55514">
        <ele>114.5</ele>
        <time>2024-04-14T07:51:06Z</time>
      </trkpt>
      <trkpt lat="45.11562" lon="0.55512">
        <ele>114.8</ele>
        <time>2024-04-14T07:51:08Z</time>
      </trkpt>
      <trkpt lat="45.11561" lon="0.55511">
        <ele>114.9</ele>
        <time>2024-04-14T07:51:09Z</time>
      </trkpt>
      <trkpt lat="45.1156" lon="0.55511">
        <ele>115.1</ele>
        <time>2024-04-14T07:51:10Z</time>
      </trkpt>
      <trkpt lat="45.11558" lon="0.5551">
        <ele>115.3</ele>
        <time>2024-04-14T07:51:12Z</time>
      </trkpt>
      <trkpt lat="45.11555" lon="0.55509">
        <ele>115.7</ele>
        <time>2024-04-14T07:51:14Z</time>
      </trkpt>
      <trkpt lat="45.11552" lon="0.55508">
        <ele>116</ele>
        <time>2024-04-14T07:51:16Z</time>
      </trkpt>
      <trkpt lat="45.11548" lon="0.55508">
        <ele>116.4</ele>
        <time>2024-04-14T07:51:18Z</time>
      </trkpt>
      <trkpt lat="45.11545" lon="0.55507">
        <ele>116.7</ele>
        <time>2024-04-14T07:51:20Z</time>
      </trkpt>
      <trkpt lat="45.11542" lon="0.55506">
        <ele>117.1</ele>
        <time>2024-04-14T07:51:22Z</time>
      </trkpt>
      <trkpt lat="45.11539" lon="0.55504">
        <ele>117.4</ele>
        <time>2024-04-14T07:51:24Z</time>
      </trkpt>
      <trkpt lat="45.11536" lon="0.55503">
        <ele>117.7</ele>
        <time>2024-04-14T07:51:26Z</time>
      </trkpt>
      <trkpt lat="45.11533" lon="0.55502">
        <ele>118</ele>
        <time>2024-04-14T07:51:28Z</time>
      </trkpt>
      <trkpt lat="45.11532" lon="0.55501">
        <ele>118.2</ele>
        <time>2024-04-14T07:51:29Z</time>
      </trkpt>
      <trkpt lat="45.11531" lon="0.55501">
        <ele>118.3</ele>
        <time>2024-04-14T07:51:30Z</time>
      </trkpt>
      <trkpt lat="45.11528" lon="0.555">
        <ele>118.6</ele>
        <time>2024-04-14T07:51:32Z</time>
      </trkpt>
      <trkpt lat="45.11526" lon="0.55498">
        <ele>118.9</ele>
        <time>2024-04-14T07:51:34Z</time>
      </trkpt>
      <trkpt lat="45.11523" lon="0.55498">
        <ele>119.2</ele>
        <time>2024-04-14T07:51:36Z</time>
      </trkpt>
      <trkpt lat="45.11522" lon="0.55497">
        <ele>119.3</ele>
        <time>2024-04-14T07:51:37Z</time>
      </trkpt>
      <trkpt lat="45.11521" lon="0.55496">
        <ele>119.4</ele>
        <time>2024-04-14T07:51:38Z</time>
      </trkpt>
      <trkpt lat="45.11518" lon="0.55495">
        <ele>119.7</ele>
        <time>2024-04-14T07:51:40Z</time>
      </trkpt>
      <trkpt lat="45.11515" lon="0.55494">
        <ele>120.1</ele>
        <time>2024-04-14T07:51:42Z</time>
      </trkpt>
      <trkpt lat="45.11512" lon="0.55493">
        <ele>120.4</ele>
        <time>2024-04-14T07:51:44Z</time>
      </trkpt>
      <trkpt lat="45.1151" lon="0.55492">
        <ele>120.7</ele>
        <time>2024-04-14T07:51:46Z</time>
      </trkpt>
      <trkpt lat="45.11507" lon="0.55491">
        <ele>121</ele>
        <time>2024-04-14T07:51:48Z</time>
      </trkpt>
      <trkpt lat="45.11504" lon="0.5549">
        <ele>121.3</ele>
        <time>2024-04-14T07:51:50Z</time>
      </trkpt>
      <trkpt lat="45.11503" lon="0.55489">
        <ele>121.5</ele>
        <time>2024-04-14T07:51:51Z</time>
      </trkpt>
      <trkpt lat="45.11501" lon="0.55489">
        <ele>121.7</ele>
        <time>2024-04-14T07:51:52Z</time>
      </trkpt>
      <trkpt lat="45.11498" lon="0.55488">
        <ele>122</ele>
        <time>2024-04-14T07:51:54Z</time>
      </trkpt>
      <trkpt lat="45.11495" lon="0.55488">
        <ele>122.4</ele>
        <time>2024-04-14T07:51:56Z</time>
      </trkpt>
      <trkpt lat="45.11492" lon="0.55487">
        <ele>122.7</ele>
        <time>2024-04-14T07:51:58Z</time>
      </trkpt>
      <trkpt lat="45.11489" lon="0.55487">
        <ele>123</ele>
        <time>2024-04-14T07:52:00Z</time>
      </trkpt>
      <trkpt lat="45.11487" lon="0.55486">
        <ele>123.3</ele>
        <time>2024-04-14T07:52:02Z</time>
      </trkpt>
      <trkpt lat="45.11485" lon="0.55486">
        <ele>123.6</ele>
        <time>2024-04-14T07:52:04Z</time>
      </trkpt>
      <trkpt lat="45.11481" lon="0.55486">
        <ele>123.9</ele>
        <time>2024-04-14T07:52:06Z</time>
      </trkpt>
      <trkpt lat="45.11479" lon="0.55486">
        <ele>124.2</ele>
        <time>2024-04-14T07:52:08Z</time>
      </trkpt>
      <trkpt lat="45.11476" lon="0.55486">
        <ele>124.5</ele>
        <time>2024-04-14T07:52:10Z</time>
      </trkpt>
      <trkpt lat="45.11473" lon="0.55486">
        <ele>124.8</ele>
        <time>2024-04-14T07:52:12Z</time>
      </trkpt>
      <trkpt lat="45.11472" lon="0.55486">
        <ele>124.9</ele>
        <time>2024-04-14T07:52:13Z</time>
      </trkpt>
      <trkpt lat="45.1147" lon="0.55486">
        <ele>125.1</ele>
        <time>2024-04-14T07:52:14Z</time>
      </trkpt>
      <trkpt lat="45.11467" lon="0.55486">
        <ele>125.4</ele>
        <time>2024-04-14T07:52:16Z</time>
      </trkpt>
      <trkpt lat="45.11464" lon="0.55486">
        <ele>125.7</ele>
        <time>2024-04-14T07:52:18Z</time>
      </trkpt>
      <trkpt lat="45.1146" lon="0.55486">
        <ele>126</ele>
        <time>2024-04-14T07:52:20Z</time>
      </trkpt>
      <trkpt lat="45.11459" lon="0.55486">
        <ele>126.2</ele>
        <time>2024-04-14T07:52:21Z</time>
      </trkpt>
      <trkpt lat="45.11457" lon="0.55486">
        <ele>126.3</ele>
        <time>2024-04-14T07:52:22Z</time>
      </trkpt>
      <trkpt lat="45.11453" lon="0.55486">
        <ele>126.6</ele>
        <time>2024-04-14T07:52:24Z</time>
      </trkpt>
      <trkpt lat="45.1145" lon="0.55487">
        <ele>126.9</ele>
        <time>2024-04-14T07:52:26Z</time>
      </trkpt>
      <trkpt lat="45.11448" lon="0.55487">
        <ele>127.1</ele>
        <time>2024-04-14T07:52:27Z</time>
      </trkpt>
      <trkpt lat="45.11446" lon="0.55488">
        <ele>127.3</ele>
        <time>2024-04-14T07:52:28Z</time>
      </trkpt>
      <trkpt lat="45.11443" lon="0.55489">
        <ele>127.6</ele>
        <time>2024-04-14T07:52:30Z</time>
      </trkpt>
      <trkpt lat="45.11439" lon="0.55491">
        <ele>128</ele>
        <time>2024-04-14T07:52:32Z</time>
      </trkpt>
      <trkpt lat="45.11436" lon="0.55492">
        <ele>128.3</ele>
        <time>2024-04-14T07:52:34Z</time>
      </trkpt>
      <trkpt lat="45.11432" lon="0.55495">
        <ele>128.7</ele>
        <time>2024-04-14T07:52:36Z</time>
      </trkpt>
      <trkpt lat="45.11429" lon="0.55498">
        <ele>129.2</ele>
        <time>2024-04-14T07:52:38Z</time>
      </trkpt>
      <trkpt lat="45.11428" lon="0.555">
        <ele>129.3</ele>
        <time>2024-04-14T07:52:39Z</time>
      </trkpt>
      <trkpt lat="45.11426" lon="0.555">
        <ele>129.5</ele>
        <time>2024-04-14T07:52:40Z</time>
      </trkpt>
      <trkpt lat="45.11424" lon="0.55502">
        <ele>129.8</ele>
        <time>2024-04-14T07:52:42Z</time>
      </trkpt>
      <trkpt lat="45.11421" lon="0.55504">
        <ele>130.2</ele>
        <time>2024-04-14T07:52:44Z</time>
      </trkpt>
      <trkpt lat="45.1142" lon="0.55505">
        <ele>130.3</ele>
        <time>2024-04-14T07:52:45Z</time>
      </trkpt>
      <trkpt lat="45.11419" lon="0.55506">
        <ele>130.5</ele>
        <time>2024-04-14T07:52:46Z</time>
      </trkpt>
      <trkpt lat="45.11416" lon="0.55508">
        <ele>130.8</ele>
        <time>2024-04-14T07:52:48Z</time>
      </trkpt>
      <trkpt lat="45.11414" lon="0.5551">
        <ele>131.1</ele>
        <time>2024-04-14T07:52:50Z</time>
      </trkpt>
      <trkpt lat="45.11413" lon="0.55512">
        <ele>131.3</ele>
        <time>2024-04-14T07:52:51Z</time>
      </trkpt>
      <trkpt lat="45.11412" lon="0.55513">
        <ele>131.5</ele>
        <time>2024-04-14T07:52:52Z</time>
      </trkpt>
      <trkpt lat="45.1141" lon="0.55515">
        <ele>131.8</ele>
        <time>2024-04-14T07:52:54Z</time>
      </trkpt>
      <trkpt lat="45.11407" lon="0.55517">
        <ele>132.1</ele>
        <time>2024-04-14T07:52:56Z</time>
      </trkpt>
      <trkpt lat="45.11405" lon="0.55519">
        <ele>132.4</ele>
        <time>2024-04-14T07:52:58Z</time>
      </trkpt>
      <trkpt lat="45.11404" lon="0.5552">
        <ele>132.6</ele>
        <time>2024-04-14T07:52:59Z</time>
      </trkpt>
      <trkpt lat="45.11403" lon="0.55521">
        <ele>132.7</ele>
        <time>2024-04-14T07:53:00Z</time>
      </trkpt>
      <trkpt lat="45.11401" lon="0.55524">
        <ele>133</ele>
        <time>2024-04-14T07:53:02Z</time>
      </trkpt>
      <trkpt lat="45.11399" lon="0.55526">
        <ele>133.4</ele>
        <time>2024-04-14T07:53:04Z</time>
      </trkpt>
      <trkpt lat="45.11397" lon="0.55529">
        <ele>133.7</ele>
        <time>2024-04-14T07:53:06Z</time>
      </trkpt>
      <trkpt lat="45.11395" lon="0.55532">
        <ele>134</ele>
        <time>2024-04-14T07:53:08Z</time>
      </trkpt>
      <trkpt lat="45.11395" lon="0.55533">
        <ele>134.1</ele>
        <time>2024-04-14T07:53:09Z</time>
      </trkpt>
      <trkpt lat="45.11394" lon="0.55534">
        <ele>134.3</ele>
        <time>2024-04-14T07:53:10Z</time>
      </trkpt>
      <trkpt lat="45.11392" lon="0.55537">
        <ele>134.7</ele>
        <time>2024-04-14T07:53:12Z</time>
      </trkpt>
      <trkpt lat="45.11391" lon="0.55539">
        <ele>134.9</ele>
        <time>2024-04-14T07:53:13Z</time>
      </trkpt>
      <trkpt lat="45.1139" lon="0.5554">
        <ele>135</ele>
        <time>2024-04-14T07:53:14Z</time>
      </trkpt>
      <trkpt lat="45.11388" lon="0.55544">
        <ele>135.4</ele>
        <time>2024-04-14T07:53:16Z</time>
      </trkpt>
      <trkpt lat="45.11386" lon="0.55546">
        <ele>135.8</ele>
        <time>2024-04-14T07:53:18Z</time>
      </trkpt>
      <trkpt lat="45.11384" lon="0.55549">
        <ele>136.1</ele>
        <time>2024-04-14T07:53:20Z</time>
      </trkpt>
      <trkpt lat="45.11382" lon="0.55552">
        <ele>136.5</ele>
        <time>2024-04-14T07:53:22Z</time>
      </trkpt>
      <trkpt lat="45.1138" lon="0.55555">
        <ele>136.8</ele>
        <time>2024-04-14T07:53:24Z</time>
      </trkpt>
      <trkpt lat="45.11378" lon="0.55558">
        <ele>137.2</ele>
        <time>2024-04-14T07:53:26Z</time>
      </trkpt>
      <trkpt lat="45.11376" lon="0.55561">
        <ele>137.5</ele>
        <time>2024-04-14T07:53:28Z</time>
      </trkpt>
      <trkpt lat="45.11376" lon="0.55562">
        <ele>137.7</ele>
        <time>2024-04-14T07:53:29Z</time>
      </trkpt>
      <trkpt lat="45.11375" lon="0.55563">
        <ele>137.8</ele>
        <time>2024-04-14T07:53:30Z</time>
      </trkpt>
      <trkpt lat="45.11373" lon="0.55566">
        <ele>138.1</ele>
        <time>2024-04-14T07:53:32Z</time>
      </trkpt>
      <trkpt lat="45.11371" lon="0.55569">
        <ele>138.4</ele>
        <time>2024-04-14T07:53:34Z</time>
      </trkpt>
      <trkpt lat="45.11369" lon="0.55571">
        <ele>138.7</ele>
        <time>2024-04-14T07:53:36Z</time>
      </trkpt>
      <trkpt lat="45.11369" lon="0.55573">
        <ele>138.9</ele>
        <time>2024-04-14T07:53:37Z</time>
      </trkpt>
      <trkpt lat="45.11368" lon="0.55574">
        <ele>139</ele>
        <time>2024-04-14T07:53:38Z</time>
      </trkpt>
      <trkpt lat="45.11366" lon="0.55577">
        <ele>139.4</ele>
        <time>2024-04-14T07:53:40Z</time>
      </trkpt>
      <trkpt lat="45.11364" lon="0.5558">
        <ele>139.7</ele>
        <time>2024-04-14T07:53:42Z</time>
      </trkpt>
      <trkpt lat="45.11363" lon="0.55582">
        <ele>139.9</ele>
        <time>2024-04-14T07:53:43Z</time>
      </trkpt>
      <trkpt lat="45.11362" lon="0.55583">
        <ele>140</ele>
        <time>2024-04-14T07:53:44Z</time>
      </trkpt>
      <trkpt lat="45.1136" lon="0.55586">
        <ele>140.4</ele>
        <time>2024-04-14T07:53:46Z</time>
      </trkpt>
      <trkpt lat="45.11358" lon="0.55588">
        <ele>140.6</ele>
        <time>2024-04-14T07:53:48Z</time>
      </trkpt>
      <trkpt lat="45.11356" lon="0.5559">
        <ele>140.9</ele>
        <time>2024-04-14T07:53:50Z</time>
      </trkpt>
      <trkpt lat="45.11355" lon="0.55592">
        <ele>141.1</ele>
        <time>2024-04-14T07:53:51Z</time>
      </trkpt>
      <trkpt lat="45.11354" lon="0.55593">
        <ele>141.2</ele>
        <time>2024-04-14T07:53:52Z</time>
      </trkpt>
      <trkpt lat="45.11352" lon="0.55596">
        <ele>141.6</ele>
        <time>2024-04-14T07:53:54Z</time>
      </trkpt>
      <trkpt lat="45.1135" lon="0.55598">
        <ele>141.9</ele>
        <time>2024-04-14T07:53:56Z</time>
      </trkpt>
      <trkpt lat="45.11349" lon="0.55599">
        <ele>142</ele>
        <time>2024-04-14T07:53:57Z</time>
      </trkpt>
      <trkpt lat="45.11348" lon="0.556">
        <ele>142.2</ele>
        <time>2024-04-14T07:53:58Z</time>
      </trkpt>
      <trkpt lat="45.11346" lon="0.55602">
        <ele>142.5</ele>
        <time>2024-04-14T07:54:00Z</time>
      </trkpt>
      <trkpt lat="45.11343" lon="0.55604">
        <ele>142.8</ele>
        <time>2024-04-14T07:54:02Z</time>
      </trkpt>
      <trkpt lat="45.11341" lon="0.55606">
        <ele>143.1</ele>
        <time>2024-04-14T07:54:04Z</time>
      </trkpt>
      <trkpt lat="45.11338" lon="0.55608">
        <ele>143.4</ele>
        <time>2024-04-14T07:54:06Z</time>
      </trkpt>
      <trkpt lat="45.11336" lon="0.5561">
        <ele>143.7</ele>
        <time>2024-04-14T07:54:08Z</time>
      </trkpt>
      <trkpt lat="45.11333" lon="0.55612">
        <ele>144</ele>
        <time>2024-04-14T07:54:10Z</time>
      </trkpt>
      <trkpt lat="45.11331" lon="0.55614">
        <ele>144.3</ele>
        <time>2024-04-14T07:54:12Z</time>
      </trkpt>
      <trkpt lat="45.11328" lon="0.55617">
        <ele>144.6</ele>
        <time>2024-04-14T07:54:14Z</time>
      </trkpt>
      <trkpt lat="45.11326" lon="0.55619">
        <ele>144.9</ele>
        <time>2024-04-14T07:54:16Z</time>
      </trkpt>
      <trkpt lat="45.11323" lon="0.55621">
        <ele>145.2</ele>
        <time>2024-04-14T07:54:18Z</time>
      </trkpt>
      <trkpt lat="45.11321" lon="0.55622">
        <ele>145.5</ele>
        <time>2024-04-14T07:54:20Z</time>
      </trkpt>
      <trkpt lat="45.11319" lon="0.55623">
        <ele>145.7</ele>
        <time>2024-04-14T07:54:21Z</time>
      </trkpt>
      <trkpt lat="45.11318" lon="0.55624">
        <ele>145.9</ele>
        <time>2024-04-14T07:54:22Z</time>
      </trkpt>
      <trkpt lat="45.11315" lon="0.55625">
        <ele>146.2</ele>
        <time>2024-04-14T07:54:24Z</time>
      </trkpt>
      <trkpt lat="45.11313" lon="0.55627">
        <ele>146.5</ele>
        <time>2024-04-14T07:54:26Z</time>
      </trkpt>
      <trkpt lat="45.1131" lon="0.55629">
        <ele>146.9</ele>
        <time>2024-04-14T07:54:28Z</time>
      </trkpt>
      <trkpt lat="45.11307" lon="0.5563">
        <ele>147.3</ele>
        <time>2024-04-14T07:54:30Z</time>
      </trkpt>
      <trkpt lat="45.11305" lon="0.55632">
        <ele>147.6</ele>
        <time>2024-04-14T07:54:32Z</time>
      </trkpt>
      <trkpt lat="45.11302" lon="0.55634">
        <ele>148</ele>
        <time>2024-04-14T07:54:34Z</time>
      </trkpt>
      <trkpt lat="45.113" lon="0.55636">
        <ele>148.4</ele>
        <time>2024-04-14T07:54:36Z</time>
      </trkpt>
      <trkpt lat="45.11298" lon="0.55638">
        <ele>148.7</ele>
        <time>2024-04-14T07:54:38Z</time>
      </trkpt>
      <trkpt lat="45.11296" lon="0.5564">
        <ele>149.1</ele>
        <time>2024-04-14T07:54:40Z</time>
      </trkpt>
      <trkpt lat="45.11294" lon="0.55642">
        <ele>149.5</ele>
        <time>2024-04-14T07:54:42Z</time>
      </trkpt>
      <trkpt lat="45.11292" lon="0.55644">
        <ele>149.9</ele>
        <time>2024-04-14T07:54:44Z</time>
      </trkpt>
      <trkpt lat="45.1129" lon="0.55646">
        <ele>150.2</ele>
        <time>2024-04-14T07:54:46Z</time>
      </trkpt>
      <trkpt lat="45.11287" lon="0.55647">
        <ele>150.6</ele>
        <time>2024-04-14T07:54:48Z</time>
      </trkpt>
      <trkpt lat="45.11285" lon="0.5565">
        <ele>151.1</ele>
        <time>2024-04-14T07:54:50Z</time>
      </trkpt>
      <trkpt lat="45.11283" lon="0.55652">
        <ele>151.5</ele>
        <time>2024-04-14T07:54:52Z</time>
      </trkpt>
      <trkpt lat="45.11281" lon="0.55652">
        <ele>151.7</ele>
        <time>2024-04-14T07:54:53Z</time>
      </trkpt>
      <trkpt lat="45.1128" lon="0.55653">
        <ele>151.9</ele>
        <time>2024-04-14T07:54:54Z</time>
      </trkpt>
      <trkpt lat="45.11278" lon="0.55654">
        <ele>152.3</ele>
        <time>2024-04-14T07:54:56Z</time>
      </trkpt>
      <trkpt lat="45.11276" lon="0.55656">
        <ele>152.7</ele>
        <time>2024-04-14T07:54:58Z</time>
      </trkpt>
      <trkpt lat="45.11273" lon="0.55658">
        <ele>153.1</ele>
        <time>2024-04-14T07:55:00Z</time>
      </trkpt>
      <trkpt lat="45.11271" lon="0.55659">
        <ele>153.5</ele>
        <time>2024-04-14T07:55:02Z</time>
      </trkpt>
      <trkpt lat="45.11269" lon="0.55661">
        <ele>153.8</ele>
        <time>2024-04-14T07:55:04Z</time>
      </trkpt>
      <trkpt lat="45.11267" lon="0.55662">
        <ele>154.2</ele>
        <time>2024-04-14T07:55:06Z</time>
      </trkpt>
      <trkpt lat="45.11266" lon="0.55664">
        <ele>154.6</ele>
        <time>2024-04-14T07:55:08Z</time>
      </trkpt>
      <trkpt lat="45.11264" lon="0.55666">
        <ele>154.9</ele>
        <time>2024-04-14T07:55:10Z</time>
      </trkpt>
      <trkpt lat="45.11262" lon="0.55668">
        <ele>155.3</ele>
        <time>2024-04-14T07:55:12Z</time>
      </trkpt>
      <trkpt lat="45.11261" lon="0.55669">
        <ele>155.6</ele>
        <time>2024-04-14T07:55:14Z</time>
      </trkpt>
      <trkpt lat="45.1126" lon="0.5567">
        <ele>155.8</ele>
        <time>2024-04-14T07:55:15Z</time>
      </trkpt>
      <trkpt lat="45.11259" lon="0.55671">
        <ele>156.1</ele>
        <time>2024-04-14T07:55:16Z</time>
      </trkpt>
      <trkpt lat="45.11257" lon="0.55673">
        <ele>156.5</ele>
        <time>2024-04-14T07:55:18Z</time>
      </trkpt>
      <trkpt lat="45.11255" lon="0.55676">
        <ele>157</ele>
        <time>2024-04-14T07:55:20Z</time>
      </trkpt>
      <trkpt lat="45.11254" lon="0.55678">
        <ele>157.4</ele>
        <time>2024-04-14T07:55:22Z</time>
      </trkpt>
      <trkpt lat="45.11253" lon="0.55679">
        <ele>157.6</ele>
        <time>2024-04-14T07:55:23Z</time>
      </trkpt>
      <trkpt lat="45.11252" lon="0.55681">
        <ele>157.8</ele>
        <time>2024-04-14T07:55:24Z</time>
      </trkpt>
      <trkpt lat="45.1125" lon="0.55683">
        <ele>158.3</ele>
        <time>2024-04-14T07:55:26Z</time>
      </trkpt>
      <trkpt lat="45.11249" lon="0.55687">
        <ele>158.8</ele>
        <time>2024-04-14T07:55:28Z</time>
      </trkpt>
      <trkpt lat="45.11248" lon="0.5569">
        <ele>159.3</ele>
        <time>2024-04-14T07:55:30Z</time>
      </trkpt>
      <trkpt lat="45.11246" lon="0.55693">
        <ele>159.8</ele>
        <time>2024-04-14T07:55:32Z</time>
      </trkpt>
      <trkpt lat="45.11245" lon="0.55695">
        <ele>160.1</ele>
        <time>2024-04-14T07:55:34Z</time>
      </trkpt>
      <trkpt lat="45.11244" lon="0.55699">
        <ele>160.5</ele>
        <time>2024-04-14T07:55:36Z</time>
      </trkpt>
      <trkpt lat="45.11243" lon="0.55701">
        <ele>160.9</ele>
        <time>2024-04-14T07:55:38Z</time>
      </trkpt>
      <trkpt lat="45.11242" lon="0.55703">
        <ele>161.2</ele>
        <time>2024-04-14T07:55:39Z</time>
      </trkpt>
      <trkpt lat="45.11242" lon="0.55705">
        <ele>161.4</ele>
        <time>2024-04-14T07:55:40Z</time>
      </trkpt>
      <trkpt lat="45.11241" lon="0.55707">
        <ele>161.7</ele>
        <time>2024-04-14T07:55:42Z</time>
      </trkpt>
      <trkpt lat="45.11239" lon="0.5571">
        <ele>162.1</ele>
        <time>2024-04-14T07:55:44Z</time>
      </trkpt>
      <trkpt lat="45.11238" lon="0.55713">
        <ele>162.4</ele>
        <time>2024-04-14T07:55:46Z</time>
      </trkpt>
      <trkpt lat="45.11237" lon="0.55716">
        <ele>162.7</ele>
        <time>2024-04-14T07:55:48Z</time>
      </trkpt>
      <trkpt lat="45.11236" lon="0.55719">
        <ele>163</ele>
        <time>2024-04-14T07:55:50Z</time>
      </trkpt>
      <trkpt lat="45.11235" lon="0.55721">
        <ele>163.3</ele>
        <time>2024-04-14T07:55:52Z</time>
      </trkpt>
      <trkpt lat="45.11234" lon="0.55724">
        <ele>163.6</ele>
        <time>2024-04-14T07:55:54Z</time>
      </trkpt>
      <trkpt lat="45.11232" lon="0.55727">
        <ele>163.9</ele>
        <time>2024-04-14T07:55:56Z</time>
      </trkpt>
      <trkpt lat="45.11232" lon="0.55729">
        <ele>164.1</ele>
        <time>2024-04-14T07:55:57Z</time>
      </trkpt>
      <trkpt lat="45.11231" lon="0.55731">
        <ele>164.3</ele>
        <time>2024-04-14T07:55:58Z</time>
      </trkpt>
      <trkpt lat="45.1123" lon="0.55734">
        <ele>164.6</ele>
        <time>2024-04-14T07:56:00Z</time>
      </trkpt>
      <trkpt lat="45.11229" lon="0.55737">
        <ele>164.9</ele>
        <time>2024-04-14T07:56:02Z</time>
      </trkpt>
      <trkpt lat="45.11228" lon="0.5574">
        <ele>165.2</ele>
        <time>2024-04-14T07:56:04Z</time>
      </trkpt>
      <trkpt lat="45.11228" lon="0.55742">
        <ele>165.3</ele>
        <time>2024-04-14T07:56:05Z</time>
      </trkpt>
      <trkpt lat="45.11227" lon="0.55743">
        <ele>165.4</ele>
        <time>2024-04-14T07:56:06Z</time>
      </trkpt>
      <trkpt lat="45.11226" lon="0.55746">
        <ele>165.8</ele>
        <time>2024-04-14T07:56:08Z</time>
      </trkpt>
      <trkpt lat="45.11225" lon="0.55749">
        <ele>166.1</ele>
        <time>2024-04-14T07:56:10Z</time>
      </trkpt>
      <trkpt lat="45.11224" lon="0.55751">
        <ele>166.2</ele>
        <time>2024-04-14T07:56:11Z</time>
      </trkpt>
      <trkpt lat="45.11223" lon="0.55752">
        <ele>166.3</ele>
        <time>2024-04-14T07:56:12Z</time>
      </trkpt>
      <trkpt lat="45.11222" lon="0.55752">
        <ele>166.5</ele>
        <time>2024-04-14T07:56:14Z</time>
      </trkpt>
      <trkpt lat="45.1122" lon="0.55753">
        <ele>166.7</ele>
        <time>2024-04-14T07:56:16Z</time>
      </trkpt>
      <trkpt lat="45.11217" lon="0.55755">
        <ele>167</ele>
        <time>2024-04-14T07:56:18Z</time>
      </trkpt>
      <trkpt lat="45.11214" lon="0.55755">
        <ele>167.2</ele>
        <time>2024-04-14T07:56:20Z</time>
      </trkpt>
      <trkpt lat="45.11213" lon="0.55755">
        <ele>167.3</ele>
        <time>2024-04-14T07:56:21Z</time>
      </trkpt>
      <trkpt lat="45.11212" lon="0.55755">
        <ele>167.4</ele>
        <time>2024-04-14T07:56:22Z</time>
      </trkpt>
      <trkpt lat="45.11209" lon="0.55755">
        <ele>167.7</ele>
        <time>2024-04-14T07:56:24Z</time>
      </trkpt>
      <trkpt lat="45.11205" lon="0.55756">
        <ele>167.9</ele>
        <time>2024-04-14T07:56:26Z</time>
      </trkpt>
      <trkpt lat="45.11203" lon="0.55756">
        <ele>168</ele>
        <time>2024-04-14T07:56:27Z</time>
      </trkpt>
      <trkpt lat="45.11202" lon="0.55756">
        <ele>168.1</ele>
        <time>2024-04-14T07:56:28Z</time>
      </trkpt>
      <trkpt lat="45.11199" lon="0.55756">
        <ele>168.3</ele>
        <time>2024-04-14T07:56:30Z</time>
      </trkpt>
      <trkpt lat="45.11197" lon="0.55756">
        <ele>168.3</ele>
        <time>2024-04-14T07:56:31Z</time>
      </trkpt>
      <trkpt lat="45.11196" lon="0.55755">
        <ele>168.4</ele>
        <time>2024-04-14T07:56:32Z</time>
      </trkpt>
      <trkpt lat="45.11195" lon="0.55754">
        <ele>168.5</ele>
        <time>2024-04-14T07:56:33Z</time>
      </trkpt>
      <trkpt lat="45.11194" lon="0.55753">
        <ele>168.5</ele>
        <time>2024-04-14T07:56:34Z</time>
      </trkpt>
      <trkpt lat="45.11192" lon="0.55753">
        <ele>168.6</ele>
        <time>2024-04-14T07:56:36Z</time>
      </trkpt>
      <trkpt lat="45.11189" lon="0.55752">
        <ele>168.6</ele>
        <time>2024-04-14T07:56:38Z</time>
      </trkpt>
      <trkpt lat="45.11186" lon="0.5575">
        <ele>168.7</ele>
        <time>2024-04-14T07:56:40Z</time>
      </trkpt>
      <trkpt lat="45.11182" lon="0.55751">
        <ele>168.8</ele>
        <time>2024-04-14T07:56:42Z</time>
      </trkpt>
      <trkpt lat="45.11178" lon="0.55752">
        <ele>168.9</ele>
        <time>2024-04-14T07:56:44Z</time>
      </trkpt>
      <trkpt lat="45.11175" lon="0.55753">
        <ele>169.1</ele>
        <time>2024-04-14T07:56:46Z</time>
      </trkpt>
      <trkpt lat="45.11171" lon="0.55754">
        <ele>169.3</ele>
        <time>2024-04-14T07:56:48Z</time>
      </trkpt>
      <trkpt lat="45.11169" lon="0.55754">
        <ele>169.4</ele>
        <time>2024-04-14T07:56:49Z</time>
      </trkpt>
      <trkpt lat="45.11167" lon="0.55755">
        <ele>169.5</ele>
        <time>2024-04-14T07:56:50Z</time>
      </trkpt>
      <trkpt lat="45.11164" lon="0.55755">
        <ele>169.6</ele>
        <time>2024-04-14T07:56:52Z</time>
      </trkpt>
      <trkpt lat="45.11162" lon="0.55756">
        <ele>169.7</ele>
        <time>2024-04-14T07:56:53Z</time>
      </trkpt>
      <trkpt lat="45.1116" lon="0.55757">
        <ele>169.9</ele>
        <time>2024-04-14T07:56:54Z</time>
      </trkpt>
      <trkpt lat="45.11156" lon="0.55759">
        <ele>170.1</ele>
        <time>2024-04-14T07:56:56Z</time>
      </trkpt>
      <trkpt lat="45.11151" lon="0.55762">
        <ele>170.4</ele>
        <time>2024-04-14T07:56:58Z</time>
      </trkpt>
      <trkpt lat="45.11146" lon="0.55764">
        <ele>170.7</ele>
        <time>2024-04-14T07:57:00Z</time>
      </trkpt>
      <trkpt lat="45.11141" lon="0.55766">
        <ele>171</ele>
        <time>2024-04-14T07:57:02Z</time>
      </trkpt>
      <trkpt lat="45.11136" lon="0.55768">
        <ele>171.3</ele>
        <time>2024-04-14T07:57:04Z</time>
      </trkpt>
      <trkpt lat="45.11132" lon="0.5577">
        <ele>171.6</ele>
        <time>2024-04-14T07:57:06Z</time>
      </trkpt>
      <trkpt lat="45.11127" lon="0.55772">
        <ele>171.9</ele>
        <time>2024-04-14T07:57:08Z</time>
      </trkpt>
      <trkpt lat="45.11124" lon="0.55773">
        <ele>172</ele>
        <time>2024-04-14T07:57:09Z</time>
      </trkpt>
      <trkpt lat="45.11122" lon="0.55773">
        <ele>172.1</ele>
        <time>2024-04-14T07:57:10Z</time>
      </trkpt>
      <trkpt lat="45.11118" lon="0.55774">
        <ele>172.3</ele>
        <time>2024-04-14T07:57:12Z</time>
      </trkpt>
      <trkpt lat="45.11114" lon="0.55775">
        <ele>172.5</ele>
        <time>2024-04-14T07:57:14Z</time>
      </trkpt>
      <trkpt lat="45.11109" lon="0.55776">
        <ele>172.6</ele>
        <time>2024-04-14T07:57:16Z</time>
      </trkpt>
      <trkpt lat="45.11105" lon="0.55777">
        <ele>172.8</ele>
        <time>2024-04-14T07:57:18Z</time>
      </trkpt>
      <trkpt lat="45.11101" lon="0.55778">
        <ele>173</ele>
        <time>2024-04-14T07:57:20Z</time>
      </trkpt>
      <trkpt lat="45.11095" lon="0.55779">
        <ele>173.2</ele>
        <time>2024-04-14T07:57:22Z</time>
      </trkpt>
      <trkpt lat="45.11092" lon="0.5578">
        <ele>173.3</ele>
        <time>2024-04-14T07:57:23Z</time>
      </trkpt>
      <trkpt lat="45.1109" lon="0.5578">
        <ele>173.5</ele>
        <time>2024-04-14T07:57:24Z</time>
      </trkpt>
      <trkpt lat="45.11084" lon="0.55782">
        <ele>173.7</ele>
        <time>2024-04-14T07:57:26Z</time>
      </trkpt>
      <trkpt lat="45.11079" lon="0.55784">
        <ele>173.9</ele>
        <time>2024-04-14T07:57:28Z</time>
      </trkpt>
      <trkpt lat="45.11073" lon="0.55785">
        <ele>174.1</ele>
        <time>2024-04-14T07:57:30Z</time>
      </trkpt>
      <trkpt lat="45.11071" lon="0.55786">
        <ele>174.3</ele>
        <time>2024-04-14T07:57:31Z</time>
      </trkpt>
      <trkpt lat="45.11068" lon="0.55787">
        <ele>174.4</ele>
        <time>2024-04-14T07:57:32Z</time>
      </trkpt>
      <trkpt lat="45.11062" lon="0.5579">
        <ele>174.6</ele>
        <time>2024-04-14T07:57:34Z</time>
      </trkpt>
      <trkpt lat="45.11056" lon="0.55791">
        <ele>174.8</ele>
        <time>2024-04-14T07:57:36Z</time>
      </trkpt>
      <trkpt lat="45.1105" lon="0.55793">
        <ele>175</ele>
        <time>2024-04-14T07:57:38Z</time>
      </trkpt>
      <trkpt lat="45.11045" lon="0.55793">
        <ele>175.2</ele>
        <time>2024-04-14T07:57:40Z</time>
      </trkpt>
      <trkpt lat="45.11041" lon="0.5579">
        <ele>175.3</ele>
        <time>2024-04-14T07:57:42Z</time>
      </trkpt>
      <trkpt lat="45.11039" lon="0.55787">
        <ele>175.4</ele>
        <time>2024-04-14T07:57:43Z</time>
      </trkpt>
      <trkpt lat="45.11037" lon="0.55784">
        <ele>175</ele>
        <time>2024-04-14T07:57:44Z</time>
      </trkpt>
      <trkpt lat="45.11033" lon="0.55782">
        <ele>174.5</ele>
        <time>2024-04-14T07:57:45Z</time>
      </trkpt>
      <trkpt lat="45.11029" lon="0.55779">
        <ele>173.9</ele>
        <time>2024-04-14T07:57:46Z</time>
      </trkpt>
      <trkpt lat="45.11018" lon="0.55772">
        <ele>172.4</ele>
        <time>2024-04-14T07:57:48Z</time>
      </trkpt>
      <trkpt lat="45.11006" lon="0.55766">
        <ele>170.6</ele>
        <time>2024-04-14T07:57:50Z</time>
      </trkpt>
      <trkpt lat="45.11001" lon="0.55764">
        <ele>169.7</ele>
        <time>2024-04-14T07:57:51Z</time>
      </trkpt>
      <trkpt lat="45.10998" lon="0.55762">
        <ele>169</ele>
        <time>2024-04-14T07:57:52Z</time>
      </trkpt>
      <trkpt lat="45.10996" lon="0.55761">
        <ele>168.8</ele>
        <time>2024-04-14T07:57:53Z</time>
      </trkpt>
      <trkpt lat="45.10996" lon="0.55761">
        <ele>168.6</ele>
        <time>2024-04-14T07:57:54Z</time>
      </trkpt>
      <trkpt lat="45.10993" lon="0.55759">
        <ele>168.1</ele>
        <time>2024-04-14T07:58:00Z</time>
      </trkpt>
      <trkpt lat="45.10991" lon="0.55758">
        <ele>167.6</ele>
        <time>2024-04-14T07:58:01Z</time>
      </trkpt>
      <trkpt lat="45.10987" lon="0.55756">
        <ele>166.9</ele>
        <time>2024-04-14T07:58:02Z</time>
      </trkpt>
      <trkpt lat="45.1098" lon="0.55753">
        <ele>165.4</ele>
        <time>2024-04-14T07:58:04Z</time>
      </trkpt>
      <trkpt lat="45.10975" lon="0.55747">
        <ele>164.2</ele>
        <time>2024-04-14T07:58:05Z</time>
      </trkpt>
      <trkpt lat="45.1097" lon="0.5574">
        <ele>163.2</ele>
        <time>2024-04-14T07:58:06Z</time>
      </trkpt>
      <trkpt lat="45.10961" lon="0.55722">
        <ele>161.2</ele>
        <time>2024-04-14T07:58:08Z</time>
      </trkpt>
      <trkpt lat="45.10952" lon="0.55705">
        <ele>159.1</ele>
        <time>2024-04-14T07:58:10Z</time>
      </trkpt>
      <trkpt lat="45.10946" lon="0.55696">
        <ele>158</ele>
        <time>2024-04-14T07:58:11Z</time>
      </trkpt>
      <trkpt lat="45.1094" lon="0.55688">
        <ele>156.9</ele>
        <time>2024-04-14T07:58:12Z</time>
      </trkpt>
      <trkpt lat="45.10934" lon="0.55681">
        <ele>155.9</ele>
        <time>2024-04-14T07:58:13Z</time>
      </trkpt>
      <trkpt lat="45.10929" lon="0.55673">
        <ele>155</ele>
        <time>2024-04-14T07:58:14Z</time>
      </trkpt>
      <trkpt lat="45.10924" lon="0.55664">
        <ele>154.3</ele>
        <time>2024-04-14T07:58:15Z</time>
      </trkpt>
      <trkpt lat="45.10918" lon="0.55658">
        <ele>153.6</ele>
        <time>2024-04-14T07:58:16Z</time>
      </trkpt>
      <trkpt lat="45.10909" lon="0.5565">
        <ele>152.8</ele>
        <time>2024-04-14T07:58:18Z</time>
      </trkpt>
      <trkpt lat="45.10902" lon="0.55646">
        <ele>152.7</ele>
        <time>2024-04-14T07:58:20Z</time>
      </trkpt>
      <trkpt lat="45.10897" lon="0.55644">
        <ele>152.8</ele>
        <time>2024-04-14T07:58:22Z</time>
      </trkpt>
      <trkpt lat="45.10892" lon="0.55643">
        <ele>153.1</ele>
        <time>2024-04-14T07:58:24Z</time>
      </trkpt>
      <trkpt lat="45.10889" lon="0.55642">
        <ele>153.3</ele>
        <time>2024-04-14T07:58:25Z</time>
      </trkpt>
      <trkpt lat="45.10886" lon="0.55642">
        <ele>153.6</ele>
        <time>2024-04-14T07:58:26Z</time>
      </trkpt>
      <trkpt lat="45.10884" lon="0.5564">
        <ele>153.8</ele>
        <time>2024-04-14T07:58:27Z</time>
      </trkpt>
      <trkpt lat="45.10882" lon="0.5564">
        <ele>154</ele>
        <time>2024-04-14T07:58:28Z</time>
      </trkpt>
      <trkpt lat="45.10879" lon="0.55639">
        <ele>154.3</ele>
        <time>2024-04-14T07:58:30Z</time>
      </trkpt>
      <trkpt lat="45.10875" lon="0.55642">
        <ele>154.7</ele>
        <time>2024-04-14T07:58:32Z</time>
      </trkpt>
      <trkpt lat="45.10871" lon="0.55644">
        <ele>155.2</ele>
        <time>2024-04-14T07:58:34Z</time>
      </trkpt>
      <trkpt lat="45.10867" lon="0.55647">
        <ele>155.7</ele>
        <time>2024-04-14T07:58:36Z</time>
      </trkpt>
      <trkpt lat="45.10865" lon="0.55647">
        <ele>155.9</ele>
        <time>2024-04-14T07:58:37Z</time>
      </trkpt>
      <trkpt lat="45.10864" lon="0.55648">
        <ele>156.1</ele>
        <time>2024-04-14T07:58:38Z</time>
      </trkpt>
      <trkpt lat="45.10863" lon="0.55649">
        <ele>156.2</ele>
        <time>2024-04-14T07:58:40Z</time>
      </trkpt>
      <trkpt lat="45.1086" lon="0.55651">
        <ele>156.6</ele>
        <time>2024-04-14T07:58:42Z</time>
      </trkpt>
      <trkpt lat="45.10858" lon="0.55652">
        <ele>156.8</ele>
        <time>2024-04-14T07:58:44Z</time>
      </trkpt>
      <trkpt lat="45.10855" lon="0.55654">
        <ele>157.3</ele>
        <time>2024-04-14T07:58:46Z</time>
      </trkpt>
      <trkpt lat="45.10854" lon="0.55655">
        <ele>157.5</ele>
        <time>2024-04-14T07:58:47Z</time>
      </trkpt>
      <trkpt lat="45.10852" lon="0.55656">
        <ele>157.7</ele>
        <time>2024-04-14T07:58:48Z</time>
      </trkpt>
      <trkpt lat="45.10851" lon="0.55658">
        <ele>157.9</ele>
        <time>2024-04-14T07:58:50Z</time>
      </trkpt>
      <trkpt lat="45.1085" lon="0.55659">
        <ele>158.2</ele>
        <time>2024-04-14T07:58:52Z</time>
      </trkpt>
      <trkpt lat="45.10848" lon="0.55659">
        <ele>158.4</ele>
        <time>2024-04-14T07:58:54Z</time>
      </trkpt>
      <trkpt lat="45.10847" lon="0.55661">
        <ele>158.6</ele>
        <time>2024-04-14T07:58:56Z</time>
      </trkpt>
      <trkpt lat="45.10846" lon="0.55661">
        <ele>158.8</ele>
        <time>2024-04-14T07:58:58Z</time>
      </trkpt>
      <trkpt lat="45.10846" lon="0.55661">
        <ele>158.8</ele>
        <time>2024-04-14T07:59:00Z</time>
      </trkpt>
      <trkpt lat="45.10846" lon="0.55661">
        <ele>158.8</ele>
        <time>2024-04-14T07:59:02Z</time>
      </trkpt>
      <trkpt lat="45.10846" lon="0.55661">
        <ele>158.8</ele>
        <time>2024-04-14T07:59:04Z</time>
      </trkpt>
      <trkpt lat="45.10846" lon="0.55661">
        <ele>158.8</ele>
        <time>2024-04-14T07:59:06Z</time>
      </trkpt>
      <trkpt lat="45.10846" lon="0.55661">
        <ele>158.8</ele>
        <time>2024-04-14T07:59:08Z</time>
      </trkpt>
      <trkpt lat="45.10846" lon="0.55661">
        <ele>158.8</ele>
        <time>2024-04-14T07:59:10Z</time>
      </trkpt>
      <trkpt lat="45.10846" lon="0.55661">
        <ele>158.8</ele>
        <time>2024-04-14T07:59:11Z</time>
      </trkpt>
      <trkpt lat="45.10846" lon="0.55661">
        <ele>158.8</ele>
        <time>2024-04-14T07:59:12Z</time>
      </trkpt>
      <trkpt lat="45.10844" lon="0.55661">
        <ele>158.9</ele>
        <time>2024-04-14T07:59:14Z</time>
      </trkpt>
      <trkpt lat="45.10844" lon="0.55661">
        <ele>158.9</ele>
        <time>2024-04-14T07:59:16Z</time>
      </trkpt>
      <trkpt lat="45.10789" lon="0.55673">
        <ele>169.9</ele>
        <time>2024-04-14T08:00:49Z</time>
      </trkpt>
      <trkpt lat="45.10786" lon="0.55673">
        <ele>170.4</ele>
        <time>2024-04-14T08:00:50Z</time>
      </trkpt>
      <trkpt lat="45.10784" lon="0.55679">
        <ele>171.5</ele>
        <time>2024-04-14T08:00:52Z</time>
      </trkpt>
      <trkpt lat="45.10784" lon="0.55679">
        <ele>172.4</ele>
        <time>2024-04-14T08:00:53Z</time>
      </trkpt>
      <trkpt lat="45.10764" lon="0.55681">
        <ele>175.3</ele>
        <time>2024-04-14T08:01:11Z</time>
      </trkpt>
      <trkpt lat="45.10763" lon="0.55679">
        <ele>176.3</ele>
        <time>2024-04-14T08:01:12Z</time>
      </trkpt>
      <trkpt lat="45.10763" lon="0.55675">
        <ele>177.5</ele>
        <time>2024-04-14T08:01:14Z</time>
      </trkpt>
      <trkpt lat="45.10764" lon="0.55671">
        <ele>178.4</ele>
        <time>2024-04-14T08:01:16Z</time>
      </trkpt>
      <trkpt lat="45.10765" lon="0.55665">
        <ele>179.8</ele>
        <time>2024-04-14T08:01:18Z</time>
      </trkpt>
      <trkpt lat="45.10765" lon="0.5566">
        <ele>180.9</ele>
        <time>2024-04-14T08:01:20Z</time>
      </trkpt>
      <trkpt lat="45.10767" lon="0.55654">
        <ele>181.7</ele>
        <time>2024-04-14T08:01:22Z</time>
      </trkpt>
      <trkpt lat="45.10771" lon="0.55649">
        <ele>181.6</ele>
        <time>2024-04-14T08:01:24Z</time>
      </trkpt>
      <trkpt lat="45.10773" lon="0.55644">
        <ele>181.4</ele>
        <time>2024-04-14T08:01:26Z</time>
      </trkpt>
      <trkpt lat="45.10775" lon="0.55637">
        <ele>181.2</ele>
        <time>2024-04-14T08:01:28Z</time>
      </trkpt>
      <trkpt lat="45.10778" lon="0.55632">
        <ele>180.9</ele>
        <time>2024-04-14T08:01:30Z</time>
      </trkpt>
      <trkpt lat="45.10779" lon="0.55629">
        <ele>180.8</ele>
        <time>2024-04-14T08:01:31Z</time>
      </trkpt>
      <trkpt lat="45.10782" lon="0.55626">
        <ele>180.7</ele>
        <time>2024-04-14T08:01:32Z</time>
      </trkpt>
      <trkpt lat="45.10787" lon="0.5562">
        <ele>180.2</ele>
        <time>2024-04-14T08:01:34Z</time>
      </trkpt>
      <trkpt lat="45.10793" lon="0.55615">
        <ele>179.7</ele>
        <time>2024-04-14T08:01:36Z</time>
      </trkpt>
      <trkpt lat="45.10797" lon="0.55612">
        <ele>179.4</ele>
        <time>2024-04-14T08:01:37Z</time>
      </trkpt>
      <trkpt lat="45.108" lon="0.55608">
        <ele>179</ele>
        <time>2024-04-14T08:01:38Z</time>
      </trkpt>
      <trkpt lat="45.10808" lon="0.55602">
        <ele>178</ele>
        <time>2024-04-14T08:01:40Z</time>
      </trkpt>
      <trkpt lat="45.10818" lon="0.55596">
        <ele>176.8</ele>
        <time>2024-04-14T08:01:42Z</time>
      </trkpt>
      <trkpt lat="45.10828" lon="0.55591">
        <ele>175.4</ele>
        <time>2024-04-14T08:01:44Z</time>
      </trkpt>
      <trkpt lat="45.1084" lon="0.55588">
        <ele>173.8</ele>
        <time>2024-04-14T08:01:46Z</time>
      </trkpt>
      <trkpt lat="45.10849" lon="0.55583">
        <ele>172.5</ele>
        <time>2024-04-14T08:01:48Z</time>
      </trkpt>
      <trkpt lat="45.10851" lon="0.55581">
        <ele>172.2</ele>
        <time>2024-04-14T08:01:49Z</time>
      </trkpt>
      <trkpt lat="45.10854" lon="0.55578">
        <ele>171.7</ele>
        <time>2024-04-14T08:01:50Z</time>
      </trkpt>
      <trkpt lat="45.10857" lon="0.55577">
        <ele>171.4</ele>
        <time>2024-04-14T08:01:51Z</time>
      </trkpt>
      <trkpt lat="45.10861" lon="0.55578">
        <ele>170.9</ele>
        <time>2024-04-14T08:01:52Z</time>
      </trkpt>
      <trkpt lat="45.10867" lon="0.55576">
        <ele>170.2</ele>
        <time>2024-04-14T08:01:53Z</time>
      </trkpt>
      <trkpt lat="45.1087" lon="0.55575">
        <ele>169.9</ele>
        <time>2024-04-14T08:01:54Z</time>
      </trkpt>
      <trkpt lat="45.10878" lon="0.55572">
        <ele>169.4</ele>
        <time>2024-04-14T08:01:55Z</time>
      </trkpt>
      <trkpt lat="45.10882" lon="0.55568">
        <ele>169.1</ele>
        <time>2024-04-14T08:01:56Z</time>
      </trkpt>
      <trkpt lat="45.10884" lon="0.55564">
        <ele>169</ele>
        <time>2024-04-14T08:01:57Z</time>
      </trkpt>
      <trkpt lat="45.10888" lon="0.5556">
        <ele>168.8</ele>
        <time>2024-04-14T08:01:58Z</time>
      </trkpt>
      <trkpt lat="45.10891" lon="0.55555">
        <ele>168.6</ele>
        <time>2024-04-14T08:01:59Z</time>
      </trkpt>
      <trkpt lat="45.10891" lon="0.5555">
        <ele>168.3</ele>
        <time>2024-04-14T08:02:00Z</time>
      </trkpt>
      <trkpt lat="45.1089" lon="0.55541">
        <ele>167.7</ele>
        <time>2024-04-14T08:02:02Z</time>
      </trkpt>
      <trkpt lat="45.10888" lon="0.55527">
        <ele>166.3</ele>
        <time>2024-04-14T08:02:04Z</time>
      </trkpt>
      <trkpt lat="45.10887" lon="0.55519">
        <ele>165.3</ele>
        <time>2024-04-14T08:02:05Z</time>
      </trkpt>
      <trkpt lat="45.10885" lon="0.55509">
        <ele>164</ele>
        <time>2024-04-14T08:02:06Z</time>
      </trkpt>
      <trkpt lat="45.10881" lon="0.55499">
        <ele>162.3</ele>
        <time>2024-04-14T08:02:07Z</time>
      </trkpt>
      <trkpt lat="45.10876" lon="0.55488">
        <ele>160.7</ele>
        <time>2024-04-14T08:02:08Z</time>
      </trkpt>
      <trkpt lat="45.10872" lon="0.55479">
        <ele>159.6</ele>
        <time>2024-04-14T08:02:09Z</time>
      </trkpt>
      <trkpt lat="45.10867" lon="0.5547">
        <ele>158.9</ele>
        <time>2024-04-14T08:02:10Z</time>
      </trkpt>
      <trkpt lat="45.10861" lon="0.55464">
        <ele>158.3</ele>
        <time>2024-04-14T08:02:11Z</time>
      </trkpt>
      <trkpt lat="45.10855" lon="0.55461">
        <ele>158.1</ele>
        <time>2024-04-14T08:02:12Z</time>
      </trkpt>
      <trkpt lat="45.10851" lon="0.55459">
        <ele>158.1</ele>
        <time>2024-04-14T08:02:13Z</time>
      </trkpt>
      <trkpt lat="45.10846" lon="0.55457">
        <ele>158.1</ele>
        <time>2024-04-14T08:02:14Z</time>
      </trkpt>
      <trkpt lat="45.10843" lon="0.55455">
        <ele>158.1</ele>
        <time>2024-04-14T08:02:15Z</time>
      </trkpt>
      <trkpt lat="45.10839" lon="0.55454">
        <ele>158.1</ele>
        <time>2024-04-14T08:02:16Z</time>
      </trkpt>
      <trkpt lat="45.10829" lon="0.55453">
        <ele>158.1</ele>
        <time>2024-04-14T08:02:18Z</time>
      </trkpt>
      <trkpt lat="45.10819" lon="0.55451">
        <ele>158</ele>
        <time>2024-04-14T08:02:20Z</time>
      </trkpt>
      <trkpt lat="45.10808" lon="0.5545">
        <ele>157.6</ele>
        <time>2024-04-14T08:02:22Z</time>
      </trkpt>
      <trkpt lat="45.10798" lon="0.55447">
        <ele>157.2</ele>
        <time>2024-04-14T08:02:24Z</time>
      </trkpt>
      <trkpt lat="45.10793" lon="0.55446">
        <ele>156.9</ele>
        <time>2024-04-14T08:02:25Z</time>
      </trkpt>
      <trkpt lat="45.10787" lon="0.55444">
        <ele>156.7</ele>
        <time>2024-04-14T08:02:26Z</time>
      </trkpt>
      <trkpt lat="45.10776" lon="0.55442">
        <ele>156.1</ele>
        <time>2024-04-14T08:02:28Z</time>
      </trkpt>
      <trkpt lat="45.10766" lon="0.55441">
        <ele>155.7</ele>
        <time>2024-04-14T08:02:30Z</time>
      </trkpt>
      <trkpt lat="45.10762" lon="0.55441">
        <ele>155.8</ele>
        <time>2024-04-14T08:02:31Z</time>
      </trkpt>
      <trkpt lat="45.10758" lon="0.5544">
        <ele>156.1</ele>
        <time>2024-04-14T08:02:32Z</time>
      </trkpt>
      <trkpt lat="45.10752" lon="0.5544">
        <ele>157.1</ele>
        <time>2024-04-14T08:02:34Z</time>
      </trkpt>
      <trkpt lat="45.10747" lon="0.55439">
        <ele>158.2</ele>
        <time>2024-04-14T08:02:36Z</time>
      </trkpt>
      <trkpt lat="45.10743" lon="0.55439">
        <ele>159.4</ele>
        <time>2024-04-14T08:02:38Z</time>
      </trkpt>
      <trkpt lat="45.10742" lon="0.55439">
        <ele>159.6</ele>
        <time>2024-04-14T08:02:40Z</time>
      </trkpt>
      <trkpt lat="45.10742" lon="0.55441">
        <ele>159.8</ele>
        <time>2024-04-14T08:02:41Z</time>
      </trkpt>
      <trkpt lat="45.10743" lon="0.55442">
        <ele>160.2</ele>
        <time>2024-04-14T08:02:42Z</time>
      </trkpt>
      <trkpt lat="45.10744" lon="0.55443">
        <ele>160.6</ele>
        <time>2024-04-14T08:02:43Z</time>
      </trkpt>
      <trkpt lat="45.10746" lon="0.55445">
        <ele>161.3</ele>
        <time>2024-04-14T08:02:44Z</time>
      </trkpt>
      <trkpt lat="45.10747" lon="0.55447">
        <ele>161.8</ele>
        <time>2024-04-14T08:02:45Z</time>
      </trkpt>
      <trkpt lat="45.10748" lon="0.55447">
        <ele>162.1</ele>
        <time>2024-04-14T08:02:46Z</time>
      </trkpt>
      <trkpt lat="45.10749" lon="0.55447">
        <ele>162.6</ele>
        <time>2024-04-14T08:02:48Z</time>
      </trkpt>
      <trkpt lat="45.1075" lon="0.55447">
        <ele>162.9</ele>
        <time>2024-04-14T08:02:49Z</time>
      </trkpt>
      <trkpt lat="45.10752" lon="0.55447">
        <ele>163.4</ele>
        <time>2024-04-14T08:02:50Z</time>
      </trkpt>
      <trkpt lat="45.10752" lon="0.55448">
        <ele>163.7</ele>
        <time>2024-04-14T08:02:52Z</time>
      </trkpt>
      <trkpt lat="45.10754" lon="0.5545">
        <ele>164.3</ele>
        <time>2024-04-14T08:02:54Z</time>
      </trkpt>
      <trkpt lat="45.10754" lon="0.5545">
        <ele>164.5</ele>
        <time>2024-04-14T08:02:56Z</time>
      </trkpt>
      <trkpt lat="45.10742" lon="0.55454">
        <ele>167.9</ele>
        <time>2024-04-14T08:04:00Z</time>
      </trkpt>
      <trkpt lat="45.10739" lon="0.55455">
        <ele>168.6</ele>
        <time>2024-04-14T08:04:02Z</time>
      </trkpt>
      <trkpt lat="45.10737" lon="0.55457">
        <ele>169.2</ele>
        <time>2024-04-14T08:04:04Z</time>
      </trkpt>
      <trkpt lat="45.10735" lon="0.55457">
        <ele>169.4</ele>
        <time>2024-04-14T08:04:05Z</time>
      </trkpt>
      <trkpt lat="45.10733" lon="0.55458">
        <ele>169.7</ele>
        <time>2024-04-14T08:04:06Z</time>
      </trkpt>
      <trkpt lat="45.1073" lon="0.5546">
        <ele>170.2</ele>
        <time>2024-04-14T08:04:08Z</time>
      </trkpt>
      <trkpt lat="45.10727" lon="0.55461">
        <ele>170.5</ele>
        <time>2024-04-14T08:04:10Z</time>
      </trkpt>
      <trkpt lat="45.10726" lon="0.55461">
        <ele>170.7</ele>
        <time>2024-04-14T08:04:11Z</time>
      </trkpt>
      <trkpt lat="45.10725" lon="0.55461">
        <ele>170.9</ele>
        <time>2024-04-14T08:04:12Z</time>
      </trkpt>
      <trkpt lat="45.1072" lon="0.55463">
        <ele>171.3</ele>
        <time>2024-04-14T08:04:14Z</time>
      </trkpt>
      <trkpt lat="45.10715" lon="0.55463">
        <ele>171.8</ele>
        <time>2024-04-14T08:04:16Z</time>
      </trkpt>
      <trkpt lat="45.10712" lon="0.55462">
        <ele>172</ele>
        <time>2024-04-14T08:04:18Z</time>
      </trkpt>
      <trkpt lat="45.10707" lon="0.55465">
        <ele>172.5</ele>
        <time>2024-04-14T08:04:20Z</time>
      </trkpt>
      <trkpt lat="45.10703" lon="0.55467">
        <ele>172.8</ele>
        <time>2024-04-14T08:04:22Z</time>
      </trkpt>
      <trkpt lat="45.10701" lon="0.55467">
        <ele>172.9</ele>
        <time>2024-04-14T08:04:23Z</time>
      </trkpt>
      <trkpt lat="45.10698" lon="0.55467">
        <ele>173.1</ele>
        <time>2024-04-14T08:04:24Z</time>
      </trkpt>
      <trkpt lat="45.10695" lon="0.55468">
        <ele>173.3</ele>
        <time>2024-04-14T08:04:25Z</time>
      </trkpt>
      <trkpt lat="45.10692" lon="0.55469">
        <ele>173.4</ele>
        <time>2024-04-14T08:04:26Z</time>
      </trkpt>
      <trkpt lat="45.10686" lon="0.55469">
        <ele>173.7</ele>
        <time>2024-04-14T08:04:28Z</time>
      </trkpt>
      <trkpt lat="45.10681" lon="0.55469">
        <ele>173.9</ele>
        <time>2024-04-14T08:04:30Z</time>
      </trkpt>
      <trkpt lat="45.10678" lon="0.55469">
        <ele>174</ele>
        <time>2024-04-14T08:04:31Z</time>
      </trkpt>
      <trkpt lat="45.10677" lon="0.55468">
        <ele>174.1</ele>
        <time>2024-04-14T08:04:32Z</time>
      </trkpt>
      <trkpt lat="45.10675" lon="0.55467">
        <ele>174.2</ele>
        <time>2024-04-14T08:04:33Z</time>
      </trkpt>
      <trkpt lat="45.10673" lon="0.55467">
        <ele>174.3</ele>
        <time>2024-04-14T08:04:34Z</time>
      </trkpt>
      <trkpt lat="45.10671" lon="0.55468">
        <ele>174.3</ele>
        <time>2024-04-14T08:04:35Z</time>
      </trkpt>
      <trkpt lat="45.10669" lon="0.55467">
        <ele>174.4</ele>
        <time>2024-04-14T08:04:36Z</time>
      </trkpt>
      <trkpt lat="45.10664" lon="0.55467">
        <ele>174.7</ele>
        <time>2024-04-14T08:04:38Z</time>
      </trkpt>
      <trkpt lat="45.10662" lon="0.55467">
        <ele>174.8</ele>
        <time>2024-04-14T08:04:39Z</time>
      </trkpt>
      <trkpt lat="45.1066" lon="0.55466">
        <ele>174.9</ele>
        <time>2024-04-14T08:04:40Z</time>
      </trkpt>
      <trkpt lat="45.10655" lon="0.55466">
        <ele>175.1</ele>
        <time>2024-04-14T08:04:42Z</time>
      </trkpt>
      <trkpt lat="45.10653" lon="0.55465">
        <ele>175.3</ele>
        <time>2024-04-14T08:04:43Z</time>
      </trkpt>
      <trkpt lat="45.1065" lon="0.55465">
        <ele>175.4</ele>
        <time>2024-04-14T08:04:44Z</time>
      </trkpt>
      <trkpt lat="45.10646" lon="0.55465">
        <ele>175.7</ele>
        <time>2024-04-14T08:04:46Z</time>
      </trkpt>
      <trkpt lat="45.10644" lon="0.55464">
        <ele>175.8</ele>
        <time>2024-04-14T08:04:47Z</time>
      </trkpt>
      <trkpt lat="45.10643" lon="0.55463">
        <ele>175.9</ele>
        <time>2024-04-14T08:04:48Z</time>
      </trkpt>
      <trkpt lat="45.10637" lon="0.55463">
        <ele>176.4</ele>
        <time>2024-04-14T08:04:50Z</time>
      </trkpt>
      <trkpt lat="45.10635" lon="0.55463">
        <ele>176.6</ele>
        <time>2024-04-14T08:04:52Z</time>
      </trkpt>
      <trkpt lat="45.10634" lon="0.55463">
        <ele>176.7</ele>
        <time>2024-04-14T08:04:53Z</time>
      </trkpt>
      <trkpt lat="45.10632" lon="0.55464">
        <ele>176.9</ele>
        <time>2024-04-14T08:04:54Z</time>
      </trkpt>
      <trkpt lat="45.10631" lon="0.55465">
        <ele>177</ele>
        <time>2024-04-14T08:04:55Z</time>
      </trkpt>
      <trkpt lat="45.10629" lon="0.55466">
        <ele>177.2</ele>
        <time>2024-04-14T08:04:56Z</time>
      </trkpt>
      <trkpt lat="45.10628" lon="0.55466">
        <ele>177.4</ele>
        <time>2024-04-14T08:04:57Z</time>
      </trkpt>
      <trkpt lat="45.10627" lon="0.55467">
        <ele>177.5</ele>
        <time>2024-04-14T08:04:58Z</time>
      </trkpt>
      <trkpt lat="45.10626" lon="0.55467">
        <ele>177.6</ele>
        <time>2024-04-14T08:04:59Z</time>
      </trkpt>
      <trkpt lat="45.10625" lon="0.55467">
        <ele>177.7</ele>
        <time>2024-04-14T08:05:00Z</time>
      </trkpt>
      <trkpt lat="45.10623" lon="0.55468">
        <ele>178.1</ele>
        <time>2024-04-14T08:05:02Z</time>
      </trkpt>
      <trkpt lat="45.10621" lon="0.55468">
        <ele>178.2</ele>
        <time>2024-04-14T08:05:03Z</time>
      </trkpt>
      <trkpt lat="45.1062" lon="0.55468">
        <ele>178.4</ele>
        <time>2024-04-14T08:05:04Z</time>
      </trkpt>
      <trkpt lat="45.10618" lon="0.55468">
        <ele>178.6</ele>
        <time>2024-04-14T08:05:05Z</time>
      </trkpt>
      <trkpt lat="45.10616" lon="0.55467">
        <ele>178.8</ele>
        <time>2024-04-14T08:05:06Z</time>
      </trkpt>
      <trkpt lat="45.10615" lon="0.55466">
        <ele>179</ele>
        <time>2024-04-14T08:05:07Z</time>
      </trkpt>
      <trkpt lat="45.10614" lon="0.55466">
        <ele>179.1</ele>
        <time>2024-04-14T08:05:08Z</time>
      </trkpt>
      <trkpt lat="45.10614" lon="0.55466">
        <ele>179.2</ele>
        <time>2024-04-14T08:05:10Z</time>
      </trkpt>
      <trkpt lat="45.10589" lon="0.55469">
        <ele>182.5</ele>
        <time>2024-04-14T08:05:29Z</time>
      </trkpt>
      <trkpt lat="45.10587" lon="0.55468">
        <ele>182.8</ele>
        <time>2024-04-14T08:05:30Z</time>
      </trkpt>
      <trkpt lat="45.10583" lon="0.55466">
        <ele>183.3</ele>
        <time>2024-04-14T08:05:32Z</time>
      </trkpt>
      <trkpt lat="45.10581" lon="0.55464">
        <ele>183.5</ele>
        <time>2024-04-14T08:05:33Z</time>
      </trkpt>
      <trkpt lat="45.10578" lon="0.55464">
        <ele>183.8</ele>
        <time>2024-04-14T08:05:34Z</time>
      </trkpt>
      <trkpt lat="45.10571" lon="0.55464">
        <ele>184.3</ele>
        <time>2024-04-14T08:05:36Z</time>
      </trkpt>
      <trkpt lat="45.10565" lon="0.55463">
        <ele>184.5</ele>
        <time>2024-04-14T08:05:38Z</time>
      </trkpt>
      <trkpt lat="45.10561" lon="0.55461">
        <ele>184.6</ele>
        <time>2024-04-14T08:05:40Z</time>
      </trkpt>
      <trkpt lat="45.10559" lon="0.55462">
        <ele>184.6</ele>
        <time>2024-04-14T08:05:41Z</time>
      </trkpt>
      <trkpt lat="45.10557" lon="0.55462">
        <ele>184.7</ele>
        <time>2024-04-14T08:05:42Z</time>
      </trkpt>
      <trkpt lat="45.10553" lon="0.55463">
        <ele>184.7</ele>
        <time>2024-04-14T08:05:44Z</time>
      </trkpt>
      <trkpt lat="45.10549" lon="0.55462">
        <ele>184.8</ele>
        <time>2024-04-14T08:05:46Z</time>
      </trkpt>
      <trkpt lat="45.10544" lon="0.55461">
        <ele>184.9</ele>
        <time>2024-04-14T08:05:48Z</time>
      </trkpt>
      <trkpt lat="45.10541" lon="0.5546">
        <ele>185</ele>
        <time>2024-04-14T08:05:49Z</time>
      </trkpt>
      <trkpt lat="45.10538" lon="0.5546">
        <ele>185.1</ele>
        <time>2024-04-14T08:05:50Z</time>
      </trkpt>
      <trkpt lat="45.10535" lon="0.55459">
        <ele>185.2</ele>
        <time>2024-04-14T08:05:51Z</time>
      </trkpt>
      <trkpt lat="45.10532" lon="0.55458">
        <ele>185.3</ele>
        <time>2024-04-14T08:05:52Z</time>
      </trkpt>
      <trkpt lat="45.10525" lon="0.55455">
        <ele>185.5</ele>
        <time>2024-04-14T08:05:54Z</time>
      </trkpt>
      <trkpt lat="45.10518" lon="0.55455">
        <ele>185.6</ele>
        <time>2024-04-14T08:05:56Z</time>
      </trkpt>
      <trkpt lat="45.10515" lon="0.55455">
        <ele>185.7</ele>
        <time>2024-04-14T08:05:57Z</time>
      </trkpt>
      <trkpt lat="45.1051" lon="0.55456">
        <ele>185.8</ele>
        <time>2024-04-14T08:05:58Z</time>
      </trkpt>
      <trkpt lat="45.10502" lon="0.55457">
        <ele>186</ele>
        <time>2024-04-14T08:06:00Z</time>
      </trkpt>
      <trkpt lat="45.10497" lon="0.55456">
        <ele>186.2</ele>
        <time>2024-04-14T08:06:02Z</time>
      </trkpt>
      <trkpt lat="45.10491" lon="0.55456">
        <ele>186.3</ele>
        <time>2024-04-14T08:06:04Z</time>
      </trkpt>
      <trkpt lat="45.10485" lon="0.55457">
        <ele>186.5</ele>
        <time>2024-04-14T08:06:06Z</time>
      </trkpt>
      <trkpt lat="45.10483" lon="0.55458">
        <ele>186.6</ele>
        <time>2024-04-14T08:06:07Z</time>
      </trkpt>
      <trkpt lat="45.10481" lon="0.5546">
        <ele>186.8</ele>
        <time>2024-04-14T08:06:08Z</time>
      </trkpt>
      <trkpt lat="45.10476" lon="0.55462">
        <ele>187.1</ele>
        <time>2024-04-14T08:06:10Z</time>
      </trkpt>
      <trkpt lat="45.10474" lon="0.55465">
        <ele>187.3</ele>
        <time>2024-04-14T08:06:11Z</time>
      </trkpt>
      <trkpt lat="45.10471" lon="0.55467">
        <ele>187.5</ele>
        <time>2024-04-14T08:06:12Z</time>
      </trkpt>
      <trkpt lat="45.10468" lon="0.5547">
        <ele>187.9</ele>
        <time>2024-04-14T08:06:13Z</time>
      </trkpt>
      <trkpt lat="45.10469" lon="0.55472">
        <ele>188</ele>
        <time>2024-04-14T08:06:14Z</time>
      </trkpt>
      <trkpt lat="45.10467" lon="0.55474">
        <ele>188.2</ele>
        <time>2024-04-14T08:06:15Z</time>
      </trkpt>
      <trkpt lat="45.10466" lon="0.55476">
        <ele>188.4</ele>
        <time>2024-04-14T08:06:16Z</time>
      </trkpt>
      <trkpt lat="45.10463" lon="0.55479">
        <ele>188.7</ele>
        <time>2024-04-14T08:06:18Z</time>
      </trkpt>
      <trkpt lat="45.10462" lon="0.55481">
        <ele>188.9</ele>
        <time>2024-04-14T08:06:19Z</time>
      </trkpt>
      <trkpt lat="45.10462" lon="0.55482">
        <ele>188.9</ele>
        <time>2024-04-14T08:06:20Z</time>
      </trkpt>
      <trkpt lat="45.10461" lon="0.55489">
        <ele>189.5</ele>
        <time>2024-04-14T08:06:22Z</time>
      </trkpt>
      <trkpt lat="45.10461" lon="0.55496">
        <ele>190.1</ele>
        <time>2024-04-14T08:06:24Z</time>
      </trkpt>
      <trkpt lat="45.1046" lon="0.55502">
        <ele>190.5</ele>
        <time>2024-04-14T08:06:26Z</time>
      </trkpt>
      <trkpt lat="45.1046" lon="0.55508">
        <ele>190.9</ele>
        <time>2024-04-14T08:06:28Z</time>
      </trkpt>
      <trkpt lat="45.10458" lon="0.55516">
        <ele>191.5</ele>
        <time>2024-04-14T08:06:30Z</time>
      </trkpt>
      <trkpt lat="45.10458" lon="0.5552">
        <ele>191.7</ele>
        <time>2024-04-14T08:06:31Z</time>
      </trkpt>
      <trkpt lat="45.10457" lon="0.55522">
        <ele>191.9</ele>
        <time>2024-04-14T08:06:32Z</time>
      </trkpt>
      <trkpt lat="45.10458" lon="0.55524">
        <ele>192</ele>
        <time>2024-04-14T08:06:33Z</time>
      </trkpt>
      <trkpt lat="45.10456" lon="0.55526">
        <ele>192.2</ele>
        <time>2024-04-14T08:06:34Z</time>
      </trkpt>
      <trkpt lat="45.10455" lon="0.55529">
        <ele>192.3</ele>
        <time>2024-04-14T08:06:35Z</time>
      </trkpt>
      <trkpt lat="45.10454" lon="0.5553">
        <ele>192.5</ele>
        <time>2024-04-14T08:06:36Z</time>
      </trkpt>
      <trkpt lat="45.10453" lon="0.55533">
        <ele>192.6</ele>
        <time>2024-04-14T08:06:37Z</time>
      </trkpt>
      <trkpt lat="45.10453" lon="0.55535">
        <ele>192.7</ele>
        <time>2024-04-14T08:06:38Z</time>
      </trkpt>
      <trkpt lat="45.10453" lon="0.5554">
        <ele>193</ele>
        <time>2024-04-14T08:06:40Z</time>
      </trkpt>
      <trkpt lat="45.10453" lon="0.55543">
        <ele>193.1</ele>
        <time>2024-04-14T08:06:41Z</time>
      </trkpt>
      <trkpt lat="45.10453" lon="0.55545">
        <ele>193.2</ele>
        <time>2024-04-14T08:06:42Z</time>
      </trkpt>
      <trkpt lat="45.10454" lon="0.55548">
        <ele>193.4</ele>
        <time>2024-04-14T08:06:44Z</time>
      </trkpt>
      <trkpt lat="45.10452" lon="0.55552">
        <ele>193.6</ele>
        <time>2024-04-14T08:06:45Z</time>
      </trkpt>
      <trkpt lat="45.10453" lon="0.55554">
        <ele>193.7</ele>
        <time>2024-04-14T08:06:46Z</time>
      </trkpt>
      <trkpt lat="45.10454" lon="0.55558">
        <ele>193.8</ele>
        <time>2024-04-14T08:06:48Z</time>
      </trkpt>
      <trkpt lat="45.10454" lon="0.55564">
        <ele>194</ele>
        <time>2024-04-14T08:06:50Z</time>
      </trkpt>
      <trkpt lat="45.10454" lon="0.55567">
        <ele>194.1</ele>
        <time>2024-04-14T08:06:51Z</time>
      </trkpt>
      <trkpt lat="45.10455" lon="0.5557">
        <ele>194.2</ele>
        <time>2024-04-14T08:06:52Z</time>
      </trkpt>
      <trkpt lat="45.10456" lon="0.55576">
        <ele>194.3</ele>
        <time>2024-04-14T08:06:54Z</time>
      </trkpt>
      <trkpt lat="45.10457" lon="0.55582">
        <ele>194.3</ele>
        <time>2024-04-14T08:06:56Z</time>
      </trkpt>
      <trkpt lat="45.10458" lon="0.55589">
        <ele>194.3</ele>
        <time>2024-04-14T08:06:58Z</time>
      </trkpt>
      <trkpt lat="45.1046" lon="0.55594">
        <ele>194.1</ele>
        <time>2024-04-14T08:06:59Z</time>
      </trkpt>
      <trkpt lat="45.10462" lon="0.556">
        <ele>193.9</ele>
        <time>2024-04-14T08:07:00Z</time>
      </trkpt>
      <trkpt lat="45.10465" lon="0.55618">
        <ele>192.6</ele>
        <time>2024-04-14T08:07:02Z</time>
      </trkpt>
      <trkpt lat="45.10471" lon="0.55634">
        <ele>191.5</ele>
        <time>2024-04-14T08:07:04Z</time>
      </trkpt>
      <trkpt lat="45.10473" lon="0.55637">
        <ele>191.5</ele>
        <time>2024-04-14T08:07:05Z</time>
      </trkpt>
      <trkpt lat="45.10475" lon="0.55639">
        <ele>191.5</ele>
        <time>2024-04-14T08:07:06Z</time>
      </trkpt>
      <trkpt lat="45.10476" lon="0.55648">
        <ele>191.9</ele>
        <time>2024-04-14T08:07:08Z</time>
      </trkpt>
      <trkpt lat="45.10478" lon="0.55652">
        <ele>192.3</ele>
        <time>2024-04-14T08:07:09Z</time>
      </trkpt>
      <trkpt lat="45.1048" lon="0.55656">
        <ele>192.7</ele>
        <time>2024-04-14T08:07:10Z</time>
      </trkpt>
      <trkpt lat="45.10482" lon="0.55661">
        <ele>193.2</ele>
        <time>2024-04-14T08:07:12Z</time>
      </trkpt>
      <trkpt lat="45.10484" lon="0.55668">
        <ele>194</ele>
        <time>2024-04-14T08:07:14Z</time>
      </trkpt>
      <trkpt lat="45.10486" lon="0.55673">
        <ele>194.4</ele>
        <time>2024-04-14T08:07:16Z</time>
      </trkpt>
      <trkpt lat="45.10486" lon="0.55676">
        <ele>194.6</ele>
        <time>2024-04-14T08:07:17Z</time>
      </trkpt>
      <trkpt lat="45.10487" lon="0.55679">
        <ele>194.8</ele>
        <time>2024-04-14T08:07:18Z</time>
      </trkpt>
      <trkpt lat="45.10487" lon="0.55685">
        <ele>195.2</ele>
        <time>2024-04-14T08:07:20Z</time>
      </trkpt>
      <trkpt lat="45.10486" lon="0.55689">
        <ele>195.3</ele>
        <time>2024-04-14T08:07:22Z</time>
      </trkpt>
      <trkpt lat="45.10485" lon="0.55691">
        <ele>195.4</ele>
        <time>2024-04-14T08:07:23Z</time>
      </trkpt>
      <trkpt lat="45.10484" lon="0.55692">
        <ele>195.5</ele>
        <time>2024-04-14T08:07:24Z</time>
      </trkpt>
      <trkpt lat="45.10483" lon="0.55693">
        <ele>195.6</ele>
        <time>2024-04-14T08:07:25Z</time>
      </trkpt>
      <trkpt lat="45.10482" lon="0.55694">
        <ele>195.6</ele>
        <time>2024-04-14T08:07:26Z</time>
      </trkpt>
      <trkpt lat="45.10482" lon="0.55695">
        <ele>195.7</ele>
        <time>2024-04-14T08:07:27Z</time>
      </trkpt>
      <trkpt lat="45.1048" lon="0.55696">
        <ele>195.7</ele>
        <time>2024-04-14T08:07:28Z</time>
      </trkpt>
      <trkpt lat="45.10479" lon="0.55698">
        <ele>195.8</ele>
        <time>2024-04-14T08:07:30Z</time>
      </trkpt>
      <trkpt lat="45.10477" lon="0.55699">
        <ele>195.8</ele>
        <time>2024-04-14T08:07:32Z</time>
      </trkpt>
      <trkpt lat="45.10475" lon="0.557">
        <ele>195.9</ele>
        <time>2024-04-14T08:07:34Z</time>
      </trkpt>
      <trkpt lat="45.10474" lon="0.55701">
        <ele>195.9</ele>
        <time>2024-04-14T08:07:36Z</time>
      </trkpt>
      <trkpt lat="45.10461" lon="0.55711">
        <ele>196.2</ele>
        <time>2024-04-14T08:07:49Z</time>
      </trkpt>
      <trkpt lat="45.10459" lon="0.55713">
        <ele>196.2</ele>
        <time>2024-04-14T08:07:50Z</time>
      </trkpt>
      <trkpt lat="45.10456" lon="0.55715">
        <ele>196.3</ele>
        <time>2024-04-14T08:07:52Z</time>
      </trkpt>
      <trkpt lat="45.10453" lon="0.55716">
        <ele>196.4</ele>
        <time>2024-04-14T08:07:54Z</time>
      </trkpt>
      <trkpt lat="45.10451" lon="0.55716">
        <ele>196.4</ele>
        <time>2024-04-14T08:07:55Z</time>
      </trkpt>
      <trkpt lat="45.10449" lon="0.55716">
        <ele>196.4</ele>
        <time>2024-04-14T08:07:56Z</time>
      </trkpt>
      <trkpt lat="45.10448" lon="0.55717">
        <ele>196.5</ele>
        <time>2024-04-14T08:07:57Z</time>
      </trkpt>
      <trkpt lat="45.10446" lon="0.55718">
        <ele>196.5</ele>
        <time>2024-04-14T08:07:58Z</time>
      </trkpt>
      <trkpt lat="45.10443" lon="0.55717">
        <ele>196.5</ele>
        <time>2024-04-14T08:08:00Z</time>
      </trkpt>
      <trkpt lat="45.10437" lon="0.55718">
        <ele>196.6</ele>
        <time>2024-04-14T08:08:02Z</time>
      </trkpt>
      <trkpt lat="45.10433" lon="0.55719">
        <ele>196.6</ele>
        <time>2024-04-14T08:08:04Z</time>
      </trkpt>
      <trkpt lat="45.10428" lon="0.55719">
        <ele>196.7</ele>
        <time>2024-04-14T08:08:06Z</time>
      </trkpt>
      <trkpt lat="45.10422" lon="0.55721">
        <ele>196.7</ele>
        <time>2024-04-14T08:08:08Z</time>
      </trkpt>
      <trkpt lat="45.10419" lon="0.55722">
        <ele>196.7</ele>
        <time>2024-04-14T08:08:09Z</time>
      </trkpt>
      <trkpt lat="45.10416" lon="0.55723">
        <ele>196.6</ele>
        <time>2024-04-14T08:08:10Z</time>
      </trkpt>
      <trkpt lat="45.10409" lon="0.55722">
        <ele>196.6</ele>
        <time>2024-04-14T08:08:12Z</time>
      </trkpt>
      <trkpt lat="45.10406" lon="0.55722">
        <ele>196.6</ele>
        <time>2024-04-14T08:08:13Z</time>
      </trkpt>
      <trkpt lat="45.10402" lon="0.55723">
        <ele>196.6</ele>
        <time>2024-04-14T08:08:14Z</time>
      </trkpt>
      <trkpt lat="45.10395" lon="0.55724">
        <ele>196.5</ele>
        <time>2024-04-14T08:08:16Z</time>
      </trkpt>
      <trkpt lat="45.10391" lon="0.55724">
        <ele>196.5</ele>
        <time>2024-04-14T08:08:17Z</time>
      </trkpt>
      <trkpt lat="45.10387" lon="0.55724">
        <ele>196.5</ele>
        <time>2024-04-14T08:08:18Z</time>
      </trkpt>
      <trkpt lat="45.10379" lon="0.55724">
        <ele>196.6</ele>
        <time>2024-04-14T08:08:20Z</time>
      </trkpt>
      <trkpt lat="45.10375" lon="0.55723">
        <ele>196.6</ele>
        <time>2024-04-14T08:08:21Z</time>
      </trkpt>
      <trkpt lat="45.10371" lon="0.55722">
        <ele>196.6</ele>
        <time>2024-04-14T08:08:22Z</time>
      </trkpt>
      <trkpt lat="45.10364" lon="0.55722">
        <ele>196.7</ele>
        <time>2024-04-14T08:08:24Z</time>
      </trkpt>
      <trkpt lat="45.10358" lon="0.55724">
        <ele>196.8</ele>
        <time>2024-04-14T08:08:26Z</time>
      </trkpt>
      <trkpt lat="45.10351" lon="0.55729">
        <ele>196.9</ele>
        <time>2024-04-14T08:08:28Z</time>
      </trkpt>
      <trkpt lat="45.10347" lon="0.55732">
        <ele>197</ele>
        <time>2024-04-14T08:08:29Z</time>
      </trkpt>
      <trkpt lat="45.10344" lon="0.55734">
        <ele>197.1</ele>
        <time>2024-04-14T08:08:30Z</time>
      </trkpt>
      <trkpt lat="45.10337" lon="0.5574">
        <ele>197.3</ele>
        <time>2024-04-14T08:08:32Z</time>
      </trkpt>
      <trkpt lat="45.10334" lon="0.55742">
        <ele>197.3</ele>
        <time>2024-04-14T08:08:33Z</time>
      </trkpt>
      <trkpt lat="45.10332" lon="0.55744">
        <ele>197.4</ele>
        <time>2024-04-14T08:08:34Z</time>
      </trkpt>
      <trkpt lat="45.10329" lon="0.55744">
        <ele>197.5</ele>
        <time>2024-04-14T08:08:36Z</time>
      </trkpt>
      <trkpt lat="45.10329" lon="0.55738">
        <ele>197.6</ele>
        <time>2024-04-14T08:08:37Z</time>
      </trkpt>
      <trkpt lat="45.10328" lon="0.55738">
        <ele>197.6</ele>
        <time>2024-04-14T08:08:38Z</time>
      </trkpt>
      <trkpt lat="45.10325" lon="0.5574">
        <ele>197.7</ele>
        <time>2024-04-14T08:08:39Z</time>
      </trkpt>
      <trkpt lat="45.10324" lon="0.55741">
        <ele>197.7</ele>
        <time>2024-04-14T08:08:40Z</time>
      </trkpt>
      <trkpt lat="45.10323" lon="0.5574">
        <ele>197.7</ele>
        <time>2024-04-14T08:08:41Z</time>
      </trkpt>
      <trkpt lat="45.10323" lon="0.55739">
        <ele>197.7</ele>
        <time>2024-04-14T08:08:42Z</time>
      </trkpt>
      <trkpt lat="45.10322" lon="0.55738">
        <ele>197.7</ele>
        <time>2024-04-14T08:08:43Z</time>
      </trkpt>
      <trkpt lat="45.10322" lon="0.55735">
        <ele>197.7</ele>
        <time>2024-04-14T08:08:44Z</time>
      </trkpt>
      <trkpt lat="45.10322" lon="0.55731">
        <ele>197.7</ele>
        <time>2024-04-14T08:08:45Z</time>
      </trkpt>
      <trkpt lat="45.10321" lon="0.55728">
        <ele>197.7</ele>
        <time>2024-04-14T08:08:46Z</time>
      </trkpt>
      <trkpt lat="45.1032" lon="0.5572">
        <ele>197.6</ele>
        <time>2024-04-14T08:08:48Z</time>
      </trkpt>
      <trkpt lat="45.10318" lon="0.55711">
        <ele>197.4</ele>
        <time>2024-04-14T08:08:50Z</time>
      </trkpt>
      <trkpt lat="45.10317" lon="0.55706">
        <ele>197.3</ele>
        <time>2024-04-14T08:08:51Z</time>
      </trkpt>
      <trkpt lat="45.10315" lon="0.55701">
        <ele>197.2</ele>
        <time>2024-04-14T08:08:52Z</time>
      </trkpt>
      <trkpt lat="45.10312" lon="0.55692">
        <ele>197</ele>
        <time>2024-04-14T08:08:54Z</time>
      </trkpt>
      <trkpt lat="45.10309" lon="0.55687">
        <ele>196.9</ele>
        <time>2024-04-14T08:08:55Z</time>
      </trkpt>
      <trkpt lat="45.10306" lon="0.55683">
        <ele>196.8</ele>
        <time>2024-04-14T08:08:56Z</time>
      </trkpt>
      <trkpt lat="45.10298" lon="0.55675">
        <ele>196.4</ele>
        <time>2024-04-14T08:08:58Z</time>
      </trkpt>
      <trkpt lat="45.10289" lon="0.55667">
        <ele>196</ele>
        <time>2024-04-14T08:09:00Z</time>
      </trkpt>
      <trkpt lat="45.10285" lon="0.55662">
        <ele>195.8</ele>
        <time>2024-04-14T08:09:01Z</time>
      </trkpt>
      <trkpt lat="45.10281" lon="0.55658">
        <ele>195.6</ele>
        <time>2024-04-14T08:09:02Z</time>
      </trkpt>
      <trkpt lat="45.10271" lon="0.5565">
        <ele>195.2</ele>
        <time>2024-04-14T08:09:04Z</time>
      </trkpt>
      <trkpt lat="45.1026" lon="0.55644">
        <ele>194.8</ele>
        <time>2024-04-14T08:09:06Z</time>
      </trkpt>
      <trkpt lat="45.10249" lon="0.55635">
        <ele>194.6</ele>
        <time>2024-04-14T08:09:08Z</time>
      </trkpt>
      <trkpt lat="45.10245" lon="0.5563">
        <ele>194.5</ele>
        <time>2024-04-14T08:09:09Z</time>
      </trkpt>
      <trkpt lat="45.1024" lon="0.55626">
        <ele>194.5</ele>
        <time>2024-04-14T08:09:10Z</time>
      </trkpt>
      <trkpt lat="45.10236" lon="0.55621">
        <ele>194.5</ele>
        <time>2024-04-14T08:09:11Z</time>
      </trkpt>
      <trkpt lat="45.10233" lon="0.55615">
        <ele>194.5</ele>
        <time>2024-04-14T08:09:12Z</time>
      </trkpt>
      <trkpt lat="45.1023" lon="0.5561">
        <ele>194.6</ele>
        <time>2024-04-14T08:09:13Z</time>
      </trkpt>
      <trkpt lat="45.10227" lon="0.55604">
        <ele>194.6</ele>
        <time>2024-04-14T08:09:14Z</time>
      </trkpt>
      <trkpt lat="45.10224" lon="0.55592">
        <ele>194.9</ele>
        <time>2024-04-14T08:09:16Z</time>
      </trkpt>
      <trkpt lat="45.10221" lon="0.55582">
        <ele>195.1</ele>
        <time>2024-04-14T08:09:18Z</time>
      </trkpt>
      <trkpt lat="45.10219" lon="0.55572">
        <ele>195.4</ele>
        <time>2024-04-14T08:09:20Z</time>
      </trkpt>
      <trkpt lat="45.10217" lon="0.55564">
        <ele>195.6</ele>
        <time>2024-04-14T08:09:22Z</time>
      </trkpt>
      <trkpt lat="45.10216" lon="0.55559">
        <ele>195.8</ele>
        <time>2024-04-14T08:09:23Z</time>
      </trkpt>
      <trkpt lat="45.10215" lon="0.55555">
        <ele>195.9</ele>
        <time>2024-04-14T08:09:24Z</time>
      </trkpt>
      <trkpt lat="45.10213" lon="0.55551">
        <ele>196</ele>
        <time>2024-04-14T08:09:25Z</time>
      </trkpt>
      <trkpt lat="45.10213" lon="0.55547">
        <ele>196.2</ele>
        <time>2024-04-14T08:09:26Z</time>
      </trkpt>
      <trkpt lat="45.10211" lon="0.55539">
        <ele>196.4</ele>
        <time>2024-04-14T08:09:28Z</time>
      </trkpt>
      <trkpt lat="45.10211" lon="0.55529">
        <ele>196.7</ele>
        <time>2024-04-14T08:09:30Z</time>
      </trkpt>
      <trkpt lat="45.10213" lon="0.55522">
        <ele>197</ele>
        <time>2024-04-14T08:09:32Z</time>
      </trkpt>
      <trkpt lat="45.10217" lon="0.55514">
        <ele>196.8</ele>
        <time>2024-04-14T08:09:34Z</time>
      </trkpt>
      <trkpt lat="45.10221" lon="0.55504">
        <ele>196.5</ele>
        <time>2024-04-14T08:09:36Z</time>
      </trkpt>
      <trkpt lat="45.10224" lon="0.555">
        <ele>196.3</ele>
        <time>2024-04-14T08:09:37Z</time>
      </trkpt>
      <trkpt lat="45.10227" lon="0.55496">
        <ele>196.2</ele>
        <time>2024-04-14T08:09:38Z</time>
      </trkpt>
      <trkpt lat="45.10231" lon="0.55488">
        <ele>195.9</ele>
        <time>2024-04-14T08:09:40Z</time>
      </trkpt>
      <trkpt lat="45.10236" lon="0.55479">
        <ele>195.6</ele>
        <time>2024-04-14T08:09:42Z</time>
      </trkpt>
      <trkpt lat="45.10239" lon="0.55474">
        <ele>195.5</ele>
        <time>2024-04-14T08:09:43Z</time>
      </trkpt>
      <trkpt lat="45.10241" lon="0.55469">
        <ele>195.3</ele>
        <time>2024-04-14T08:09:44Z</time>
      </trkpt>
      <trkpt lat="45.10247" lon="0.55459">
        <ele>195</ele>
        <time>2024-04-14T08:09:46Z</time>
      </trkpt>
      <trkpt lat="45.10252" lon="0.5545">
        <ele>194.8</ele>
        <time>2024-04-14T08:09:48Z</time>
      </trkpt>
      <trkpt lat="45.10257" lon="0.55439">
        <ele>194.5</ele>
        <time>2024-04-14T08:09:50Z</time>
      </trkpt>
      <trkpt lat="45.1026" lon="0.55431">
        <ele>194.3</ele>
        <time>2024-04-14T08:09:52Z</time>
      </trkpt>
      <trkpt lat="45.1026" lon="0.55425">
        <ele>194.1</ele>
        <time>2024-04-14T08:09:53Z</time>
      </trkpt>
      <trkpt lat="45.10257" lon="0.55419">
        <ele>194</ele>
        <time>2024-04-14T08:09:54Z</time>
      </trkpt>
      <trkpt lat="45.10252" lon="0.55407">
        <ele>193.7</ele>
        <time>2024-04-14T08:09:56Z</time>
      </trkpt>
      <trkpt lat="45.1025" lon="0.55401">
        <ele>193.9</ele>
        <time>2024-04-14T08:09:57Z</time>
      </trkpt>
      <trkpt lat="45.10248" lon="0.55395">
        <ele>194.1</ele>
        <time>2024-04-14T08:09:58Z</time>
      </trkpt>
      <trkpt lat="45.10246" lon="0.55389">
        <ele>194.3</ele>
        <time>2024-04-14T08:09:59Z</time>
      </trkpt>
      <trkpt lat="45.10244" lon="0.55382">
        <ele>194.6</ele>
        <time>2024-04-14T08:10:00Z</time>
      </trkpt>
      <trkpt lat="45.10241" lon="0.55371">
        <ele>195.1</ele>
        <time>2024-04-14T08:10:02Z</time>
      </trkpt>
      <trkpt lat="45.10238" lon="0.5536">
        <ele>195.6</ele>
        <time>2024-04-14T08:10:04Z</time>
      </trkpt>
      <trkpt lat="45.10233" lon="0.55349">
        <ele>196.2</ele>
        <time>2024-04-14T08:10:06Z</time>
      </trkpt>
      <trkpt lat="45.10231" lon="0.55338">
        <ele>196.7</ele>
        <time>2024-04-14T08:10:08Z</time>
      </trkpt>
      <trkpt lat="45.10228" lon="0.55329">
        <ele>197.2</ele>
        <time>2024-04-14T08:10:10Z</time>
      </trkpt>
      <trkpt lat="45.10226" lon="0.55319">
        <ele>197.7</ele>
        <time>2024-04-14T08:10:12Z</time>
      </trkpt>
      <trkpt lat="45.10223" lon="0.5531">
        <ele>198.1</ele>
        <time>2024-04-14T08:10:14Z</time>
      </trkpt>
      <trkpt lat="45.10222" lon="0.55302">
        <ele>198.4</ele>
        <time>2024-04-14T08:10:16Z</time>
      </trkpt>
      <trkpt lat="45.10223" lon="0.55296">
        <ele>198.7</ele>
        <time>2024-04-14T08:10:18Z</time>
      </trkpt>
      <trkpt lat="45.10226" lon="0.55288">
        <ele>198.9</ele>
        <time>2024-04-14T08:10:20Z</time>
      </trkpt>
      <trkpt lat="45.10229" lon="0.5528">
        <ele>198.9</ele>
        <time>2024-04-14T08:10:22Z</time>
      </trkpt>
      <trkpt lat="45.10232" lon="0.55271">
        <ele>198.9</ele>
        <time>2024-04-14T08:10:24Z</time>
      </trkpt>
      <trkpt lat="45.10235" lon="0.55263">
        <ele>198.9</ele>
        <time>2024-04-14T08:10:26Z</time>
      </trkpt>
      <trkpt lat="45.10238" lon="0.55254">
        <ele>198.9</ele>
        <time>2024-04-14T08:10:28Z</time>
      </trkpt>
      <trkpt lat="45.10242" lon="0.55246">
        <ele>198.9</ele>
        <time>2024-04-14T08:10:30Z</time>
      </trkpt>
      <trkpt lat="45.10243" lon="0.55242">
        <ele>198.9</ele>
        <time>2024-04-14T08:10:31Z</time>
      </trkpt>
      <trkpt lat="45.10245" lon="0.55238">
        <ele>198.9</ele>
        <time>2024-04-14T08:10:32Z</time>
      </trkpt>
      <trkpt lat="45.10248" lon="0.55229">
        <ele>198.8</ele>
        <time>2024-04-14T08:10:34Z</time>
      </trkpt>
      <trkpt lat="45.10251" lon="0.55222">
        <ele>198.8</ele>
        <time>2024-04-14T08:10:36Z</time>
      </trkpt>
      <trkpt lat="45.10256" lon="0.55215">
        <ele>198.8</ele>
        <time>2024-04-14T08:10:38Z</time>
      </trkpt>
      <trkpt lat="45.1026" lon="0.5521">
        <ele>198.8</ele>
        <time>2024-04-14T08:10:39Z</time>
      </trkpt>
      <trkpt lat="45.10264" lon="0.55207">
        <ele>198.8</ele>
        <time>2024-04-14T08:10:40Z</time>
      </trkpt>
      <trkpt lat="45.10271" lon="0.55199">
        <ele>198.6</ele>
        <time>2024-04-14T08:10:42Z</time>
      </trkpt>
      <trkpt lat="45.10275" lon="0.55196">
        <ele>198.5</ele>
        <time>2024-04-14T08:10:43Z</time>
      </trkpt>
      <trkpt lat="45.10279" lon="0.55193">
        <ele>198.5</ele>
        <time>2024-04-14T08:10:44Z</time>
      </trkpt>
      <trkpt lat="45.10288" lon="0.55184">
        <ele>198.4</ele>
        <time>2024-04-14T08:10:46Z</time>
      </trkpt>
      <trkpt lat="45.10296" lon="0.55175">
        <ele>198.3</ele>
        <time>2024-04-14T08:10:48Z</time>
      </trkpt>
      <trkpt lat="45.10304" lon="0.55165">
        <ele>198.3</ele>
        <time>2024-04-14T08:10:50Z</time>
      </trkpt>
      <trkpt lat="45.10313" lon="0.55157">
        <ele>198.4</ele>
        <time>2024-04-14T08:10:52Z</time>
      </trkpt>
      <trkpt lat="45.10321" lon="0.55149">
        <ele>198.3</ele>
        <time>2024-04-14T08:10:54Z</time>
      </trkpt>
      <trkpt lat="45.10329" lon="0.55139">
        <ele>198.3</ele>
        <time>2024-04-14T08:10:56Z</time>
      </trkpt>
      <trkpt lat="45.10333" lon="0.55133">
        <ele>198.2</ele>
        <time>2024-04-14T08:10:57Z</time>
      </trkpt>
      <trkpt lat="45.10338" lon="0.55129">
        <ele>198.1</ele>
        <time>2024-04-14T08:10:58Z</time>
      </trkpt>
      <trkpt lat="45.10348" lon="0.55121">
        <ele>198</ele>
        <time>2024-04-14T08:11:00Z</time>
      </trkpt>
      <trkpt lat="45.10353" lon="0.55117">
        <ele>197.9</ele>
        <time>2024-04-14T08:11:01Z</time>
      </trkpt>
      <trkpt lat="45.10358" lon="0.55115">
        <ele>197.7</ele>
        <time>2024-04-14T08:11:02Z</time>
      </trkpt>
      <trkpt lat="45.10363" lon="0.55112">
        <ele>197.6</ele>
        <time>2024-04-14T08:11:03Z</time>
      </trkpt>
      <trkpt lat="45.10368" lon="0.5511">
        <ele>197.5</ele>
        <time>2024-04-14T08:11:04Z</time>
      </trkpt>
      <trkpt lat="45.10379" lon="0.55107">
        <ele>197.1</ele>
        <time>2024-04-14T08:11:06Z</time>
      </trkpt>
      <trkpt lat="45.10389" lon="0.55103">
        <ele>196.8</ele>
        <time>2024-04-14T08:11:08Z</time>
      </trkpt>
      <trkpt lat="45.10394" lon="0.55101">
        <ele>196.6</ele>
        <time>2024-04-14T08:11:09Z</time>
      </trkpt>
      <trkpt lat="45.104" lon="0.551">
        <ele>196.4</ele>
        <time>2024-04-14T08:11:10Z</time>
      </trkpt>
      <trkpt lat="45.10411" lon="0.55096">
        <ele>196</ele>
        <time>2024-04-14T08:11:12Z</time>
      </trkpt>
      <trkpt lat="45.10422" lon="0.55094">
        <ele>195.6</ele>
        <time>2024-04-14T08:11:14Z</time>
      </trkpt>
      <trkpt lat="45.10428" lon="0.55093">
        <ele>195.4</ele>
        <time>2024-04-14T08:11:15Z</time>
      </trkpt>
      <trkpt lat="45.10434" lon="0.55092">
        <ele>195.2</ele>
        <time>2024-04-14T08:11:16Z</time>
      </trkpt>
      <trkpt lat="45.1044" lon="0.5509">
        <ele>195.1</ele>
        <time>2024-04-14T08:11:17Z</time>
      </trkpt>
      <trkpt lat="45.10444" lon="0.55085">
        <ele>195</ele>
        <time>2024-04-14T08:11:18Z</time>
      </trkpt>
      <trkpt lat="45.10448" lon="0.5508">
        <ele>195</ele>
        <time>2024-04-14T08:11:19Z</time>
      </trkpt>
      <trkpt lat="45.10452" lon="0.55074">
        <ele>194.9</ele>
        <time>2024-04-14T08:11:20Z</time>
      </trkpt>
      <trkpt lat="45.10453" lon="0.55067">
        <ele>194.9</ele>
        <time>2024-04-14T08:11:21Z</time>
      </trkpt>
      <trkpt lat="45.10455" lon="0.55061">
        <ele>194.8</ele>
        <time>2024-04-14T08:11:22Z</time>
      </trkpt>
      <trkpt lat="45.10457" lon="0.55055">
        <ele>194.8</ele>
        <time>2024-04-14T08:11:23Z</time>
      </trkpt>
      <trkpt lat="45.10458" lon="0.55048">
        <ele>194.8</ele>
        <time>2024-04-14T08:11:24Z</time>
      </trkpt>
      <trkpt lat="45.10463" lon="0.55035">
        <ele>194.7</ele>
        <time>2024-04-14T08:11:26Z</time>
      </trkpt>
      <trkpt lat="45.10465" lon="0.55029">
        <ele>194.7</ele>
        <time>2024-04-14T08:11:27Z</time>
      </trkpt>
      <trkpt lat="45.10468" lon="0.55022">
        <ele>194.7</ele>
        <time>2024-04-14T08:11:28Z</time>
      </trkpt>
      <trkpt lat="45.10473" lon="0.55009">
        <ele>194.8</ele>
        <time>2024-04-14T08:11:30Z</time>
      </trkpt>
      <trkpt lat="45.10478" lon="0.54996">
        <ele>194.8</ele>
        <time>2024-04-14T08:11:32Z</time>
      </trkpt>
      <trkpt lat="45.10482" lon="0.54984">
        <ele>194.8</ele>
        <time>2024-04-14T08:11:34Z</time>
      </trkpt>
      <trkpt lat="45.10484" lon="0.54971">
        <ele>194.8</ele>
        <time>2024-04-14T08:11:36Z</time>
      </trkpt>
      <trkpt lat="45.10485" lon="0.54964">
        <ele>194.8</ele>
        <time>2024-04-14T08:11:37Z</time>
      </trkpt>
      <trkpt lat="45.10485" lon="0.54957">
        <ele>194.8</ele>
        <time>2024-04-14T08:11:38Z</time>
      </trkpt>
      <trkpt lat="45.10483" lon="0.54943">
        <ele>194.8</ele>
        <time>2024-04-14T08:11:40Z</time>
      </trkpt>
      <trkpt lat="45.10482" lon="0.54936">
        <ele>194.8</ele>
        <time>2024-04-14T08:11:41Z</time>
      </trkpt>
      <trkpt lat="45.1048" lon="0.54929">
        <ele>194.8</ele>
        <time>2024-04-14T08:11:42Z</time>
      </trkpt>
      <trkpt lat="45.10475" lon="0.54918">
        <ele>194.9</ele>
        <time>2024-04-14T08:11:44Z</time>
      </trkpt>
      <trkpt lat="45.10469" lon="0.54907">
        <ele>195</ele>
        <time>2024-04-14T08:11:46Z</time>
      </trkpt>
      <trkpt lat="45.10464" lon="0.54896">
        <ele>195.1</ele>
        <time>2024-04-14T08:11:48Z</time>
      </trkpt>
      <trkpt lat="45.10458" lon="0.54886">
        <ele>195.2</ele>
        <time>2024-04-14T08:11:50Z</time>
      </trkpt>
      <trkpt lat="45.10452" lon="0.54877">
        <ele>195.3</ele>
        <time>2024-04-14T08:11:52Z</time>
      </trkpt>
      <trkpt lat="45.10449" lon="0.54873">
        <ele>195.4</ele>
        <time>2024-04-14T08:11:53Z</time>
      </trkpt>
      <trkpt lat="45.10447" lon="0.54867">
        <ele>195.5</ele>
        <time>2024-04-14T08:11:54Z</time>
      </trkpt>
      <trkpt lat="45.10443" lon="0.54856">
        <ele>195.7</ele>
        <time>2024-04-14T08:11:56Z</time>
      </trkpt>
      <trkpt lat="45.10441" lon="0.54844">
        <ele>195.9</ele>
        <time>2024-04-14T08:11:58Z</time>
      </trkpt>
      <trkpt lat="45.10439" lon="0.54832">
        <ele>196.1</ele>
        <time>2024-04-14T08:12:00Z</time>
      </trkpt>
      <trkpt lat="45.10439" lon="0.5482">
        <ele>196.2</ele>
        <time>2024-04-14T08:12:02Z</time>
      </trkpt>
      <trkpt lat="45.10439" lon="0.54815">
        <ele>196.3</ele>
        <time>2024-04-14T08:12:03Z</time>
      </trkpt>
      <trkpt lat="45.10438" lon="0.54809">
        <ele>196.4</ele>
        <time>2024-04-14T08:12:04Z</time>
      </trkpt>
      <trkpt lat="45.10438" lon="0.54798">
        <ele>196.6</ele>
        <time>2024-04-14T08:12:06Z</time>
      </trkpt>
      <trkpt lat="45.10438" lon="0.54787">
        <ele>196.7</ele>
        <time>2024-04-14T08:12:08Z</time>
      </trkpt>
      <trkpt lat="45.10437" lon="0.54775">
        <ele>196.7</ele>
        <time>2024-04-14T08:12:10Z</time>
      </trkpt>
      <trkpt lat="45.10436" lon="0.5477">
        <ele>196.8</ele>
        <time>2024-04-14T08:12:11Z</time>
      </trkpt>
      <trkpt lat="45.10435" lon="0.54764">
        <ele>196.8</ele>
        <time>2024-04-14T08:12:12Z</time>
      </trkpt>
      <trkpt lat="45.10433" lon="0.54751">
        <ele>196.7</ele>
        <time>2024-04-14T08:12:14Z</time>
      </trkpt>
      <trkpt lat="45.10432" lon="0.54738">
        <ele>196.6</ele>
        <time>2024-04-14T08:12:16Z</time>
      </trkpt>
      <trkpt lat="45.1043" lon="0.54726">
        <ele>196.5</ele>
        <time>2024-04-14T08:12:18Z</time>
      </trkpt>
      <trkpt lat="45.1043" lon="0.5472">
        <ele>196.4</ele>
        <time>2024-04-14T08:12:19Z</time>
      </trkpt>
      <trkpt lat="45.1043" lon="0.54714">
        <ele>196.3</ele>
        <time>2024-04-14T08:12:20Z</time>
      </trkpt>
      <trkpt lat="45.10432" lon="0.54701">
        <ele>196</ele>
        <time>2024-04-14T08:12:22Z</time>
      </trkpt>
      <trkpt lat="45.10434" lon="0.54687">
        <ele>195.6</ele>
        <time>2024-04-14T08:12:24Z</time>
      </trkpt>
      <trkpt lat="45.10436" lon="0.54671">
        <ele>195</ele>
        <time>2024-04-14T08:12:26Z</time>
      </trkpt>
      <trkpt lat="45.1044" lon="0.54653">
        <ele>193.9</ele>
        <time>2024-04-14T08:12:28Z</time>
      </trkpt>
      <trkpt lat="45.10442" lon="0.54643">
        <ele>193.2</ele>
        <time>2024-04-14T08:12:29Z</time>
      </trkpt>
      <trkpt lat="45.10444" lon="0.54632">
        <ele>192.4</ele>
        <time>2024-04-14T08:12:30Z</time>
      </trkpt>
      <trkpt lat="45.10449" lon="0.54609">
        <ele>190.8</ele>
        <time>2024-04-14T08:12:32Z</time>
      </trkpt>
      <trkpt lat="45.10453" lon="0.54598">
        <ele>189.9</ele>
        <time>2024-04-14T08:12:33Z</time>
      </trkpt>
      <trkpt lat="45.10457" lon="0.54588">
        <ele>189.1</ele>
        <time>2024-04-14T08:12:34Z</time>
      </trkpt>
      <trkpt lat="45.10464" lon="0.54566">
        <ele>187.6</ele>
        <time>2024-04-14T08:12:36Z</time>
      </trkpt>
      <trkpt lat="45.10467" lon="0.54555">
        <ele>186.9</ele>
        <time>2024-04-14T08:12:37Z</time>
      </trkpt>
      <trkpt lat="45.10469" lon="0.54544">
        <ele>186.2</ele>
        <time>2024-04-14T08:12:38Z</time>
      </trkpt>
      <trkpt lat="45.10472" lon="0.54519">
        <ele>184.8</ele>
        <time>2024-04-14T08:12:40Z</time>
      </trkpt>
      <trkpt lat="45.10473" lon="0.54506">
        <ele>184.1</ele>
        <time>2024-04-14T08:12:41Z</time>
      </trkpt>
      <trkpt lat="45.10473" lon="0.54492">
        <ele>183.5</ele>
        <time>2024-04-14T08:12:42Z</time>
      </trkpt>
      <trkpt lat="45.10473" lon="0.54479">
        <ele>182.8</ele>
        <time>2024-04-14T08:12:43Z</time>
      </trkpt>
      <trkpt lat="45.10473" lon="0.54466">
        <ele>182.2</ele>
        <time>2024-04-14T08:12:44Z</time>
      </trkpt>
      <trkpt lat="45.10471" lon="0.5444">
        <ele>181</ele>
        <time>2024-04-14T08:12:46Z</time>
      </trkpt>
      <trkpt lat="45.10471" lon="0.54412">
        <ele>179.8</ele>
        <time>2024-04-14T08:12:48Z</time>
      </trkpt>
      <trkpt lat="45.10471" lon="0.54398">
        <ele>179.2</ele>
        <time>2024-04-14T08:12:49Z</time>
      </trkpt>
      <trkpt lat="45.10473" lon="0.54385">
        <ele>178.8</ele>
        <time>2024-04-14T08:12:50Z</time>
      </trkpt>
      <trkpt lat="45.10474" lon="0.54372">
        <ele>178.4</ele>
        <time>2024-04-14T08:12:51Z</time>
      </trkpt>
      <trkpt lat="45.10477" lon="0.5436">
        <ele>178.2</ele>
        <time>2024-04-14T08:12:52Z</time>
      </trkpt>
      <trkpt lat="45.10479" lon="0.54348">
        <ele>177.9</ele>
        <time>2024-04-14T08:12:53Z</time>
      </trkpt>
      <trkpt lat="45.10482" lon="0.54337">
        <ele>177.7</ele>
        <time>2024-04-14T08:12:54Z</time>
      </trkpt>
      <trkpt lat="45.10487" lon="0.54314">
        <ele>177.4</ele>
        <time>2024-04-14T08:12:56Z</time>
      </trkpt>
      <trkpt lat="45.10488" lon="0.54304">
        <ele>177.3</ele>
        <time>2024-04-14T08:12:57Z</time>
      </trkpt>
      <trkpt lat="45.10488" lon="0.54292">
        <ele>177.2</ele>
        <time>2024-04-14T08:12:58Z</time>
      </trkpt>
      <trkpt lat="45.10487" lon="0.54281">
        <ele>177.3</ele>
        <time>2024-04-14T08:12:59Z</time>
      </trkpt>
      <trkpt lat="45.10484" lon="0.54273">
        <ele>177.5</ele>
        <time>2024-04-14T08:13:00Z</time>
      </trkpt>
      <trkpt lat="45.1048" lon="0.54266">
        <ele>177.8</ele>
        <time>2024-04-14T08:13:01Z</time>
      </trkpt>
      <trkpt lat="45.10477" lon="0.54259">
        <ele>178</ele>
        <time>2024-04-14T08:13:02Z</time>
      </trkpt>
      <trkpt lat="45.10474" lon="0.54253">
        <ele>178.3</ele>
        <time>2024-04-14T08:13:03Z</time>
      </trkpt>
      <trkpt lat="45.1047" lon="0.54252">
        <ele>178.5</ele>
        <time>2024-04-14T08:13:04Z</time>
      </trkpt>
      <trkpt lat="45.10465" lon="0.54247">
        <ele>178.8</ele>
        <time>2024-04-14T08:13:06Z</time>
      </trkpt>
      <trkpt lat="45.1046" lon="0.54239">
        <ele>179.2</ele>
        <time>2024-04-14T08:13:08Z</time>
      </trkpt>
      <trkpt lat="45.10455" lon="0.5423">
        <ele>179.6</ele>
        <time>2024-04-14T08:13:10Z</time>
      </trkpt>
      <trkpt lat="45.10451" lon="0.54222">
        <ele>180</ele>
        <time>2024-04-14T08:13:12Z</time>
      </trkpt>
      <trkpt lat="45.10448" lon="0.54218">
        <ele>180.3</ele>
        <time>2024-04-14T08:13:13Z</time>
      </trkpt>
      <trkpt lat="45.10445" lon="0.54215">
        <ele>180.5</ele>
        <time>2024-04-14T08:13:14Z</time>
      </trkpt>
      <trkpt lat="45.1044" lon="0.54208">
        <ele>180.9</ele>
        <time>2024-04-14T08:13:16Z</time>
      </trkpt>
      <trkpt lat="45.10435" lon="0.54203">
        <ele>181.3</ele>
        <time>2024-04-14T08:13:18Z</time>
      </trkpt>
      <trkpt lat="45.10433" lon="0.54201">
        <ele>181.5</ele>
        <time>2024-04-14T08:13:19Z</time>
      </trkpt>
      <trkpt lat="45.1043" lon="0.54198">
        <ele>181.8</ele>
        <time>2024-04-14T08:13:20Z</time>
      </trkpt>
      <trkpt lat="45.10426" lon="0.54192">
        <ele>182.2</ele>
        <time>2024-04-14T08:13:22Z</time>
      </trkpt>
      <trkpt lat="45.10422" lon="0.54186">
        <ele>182.6</ele>
        <time>2024-04-14T08:13:24Z</time>
      </trkpt>
      <trkpt lat="45.1042" lon="0.54182">
        <ele>182.9</ele>
        <time>2024-04-14T08:13:25Z</time>
      </trkpt>
      <trkpt lat="45.1042" lon="0.54176">
        <ele>183.2</ele>
        <time>2024-04-14T08:13:26Z</time>
      </trkpt>
      <trkpt lat="45.10419" lon="0.54166">
        <ele>183.8</ele>
        <time>2024-04-14T08:13:28Z</time>
      </trkpt>
      <trkpt lat="45.10418" lon="0.54156">
        <ele>184.4</ele>
        <time>2024-04-14T08:13:30Z</time>
      </trkpt>
      <trkpt lat="45.10418" lon="0.54149">
        <ele>184.9</ele>
        <time>2024-04-14T08:13:32Z</time>
      </trkpt>
      <trkpt lat="45.10418" lon="0.54141">
        <ele>185.4</ele>
        <time>2024-04-14T08:13:34Z</time>
      </trkpt>
      <trkpt lat="45.10418" lon="0.54137">
        <ele>185.6</ele>
        <time>2024-04-14T08:13:35Z</time>
      </trkpt>
      <trkpt lat="45.10417" lon="0.54134">
        <ele>185.8</ele>
        <time>2024-04-14T08:13:36Z</time>
      </trkpt>
      <trkpt lat="45.10417" lon="0.54127">
        <ele>186.2</ele>
        <time>2024-04-14T08:13:38Z</time>
      </trkpt>
      <trkpt lat="45.10417" lon="0.5412">
        <ele>186.6</ele>
        <time>2024-04-14T08:13:40Z</time>
      </trkpt>
      <trkpt lat="45.10417" lon="0.54116">
        <ele>186.8</ele>
        <time>2024-04-14T08:13:41Z</time>
      </trkpt>
      <trkpt lat="45.10417" lon="0.54113">
        <ele>186.9</ele>
        <time>2024-04-14T08:13:42Z</time>
      </trkpt>
      <trkpt lat="45.10416" lon="0.54106">
        <ele>187.1</ele>
        <time>2024-04-14T08:13:44Z</time>
      </trkpt>
      <trkpt lat="45.10413" lon="0.54101">
        <ele>187.3</ele>
        <time>2024-04-14T08:13:46Z</time>
      </trkpt>
      <trkpt lat="45.10409" lon="0.54095">
        <ele>187.6</ele>
        <time>2024-04-14T08:13:48Z</time>
      </trkpt>
      <trkpt lat="45.10405" lon="0.54091">
        <ele>187.7</ele>
        <time>2024-04-14T08:13:50Z</time>
      </trkpt>
      <trkpt lat="45.10402" lon="0.5409">
        <ele>187.8</ele>
        <time>2024-04-14T08:13:51Z</time>
      </trkpt>
      <trkpt lat="45.104" lon="0.54088">
        <ele>187.8</ele>
        <time>2024-04-14T08:13:52Z</time>
      </trkpt>
      <trkpt lat="45.10395" lon="0.54085">
        <ele>188</ele>
        <time>2024-04-14T08:13:54Z</time>
      </trkpt>
      <trkpt lat="45.1039" lon="0.54083">
        <ele>188.1</ele>
        <time>2024-04-14T08:13:56Z</time>
      </trkpt>
      <trkpt lat="45.10385" lon="0.54081">
        <ele>188.3</ele>
        <time>2024-04-14T08:13:58Z</time>
      </trkpt>
      <trkpt lat="45.10382" lon="0.54081">
        <ele>188.3</ele>
        <time>2024-04-14T08:13:59Z</time>
      </trkpt>
      <trkpt lat="45.10379" lon="0.54081">
        <ele>188.5</ele>
        <time>2024-04-14T08:14:00Z</time>
      </trkpt>
      <trkpt lat="45.10374" lon="0.5408">
        <ele>188.6</ele>
        <time>2024-04-14T08:14:02Z</time>
      </trkpt>
      <trkpt lat="45.1037" lon="0.54079">
        <ele>188.8</ele>
        <time>2024-04-14T08:14:04Z</time>
      </trkpt>
      <trkpt lat="45.10365" lon="0.54076">
        <ele>189</ele>
        <time>2024-04-14T08:14:06Z</time>
      </trkpt>
      <trkpt lat="45.1036" lon="0.54074">
        <ele>189.3</ele>
        <time>2024-04-14T08:14:08Z</time>
      </trkpt>
      <trkpt lat="45.10357" lon="0.54073">
        <ele>189.4</ele>
        <time>2024-04-14T08:14:09Z</time>
      </trkpt>
      <trkpt lat="45.10354" lon="0.54073">
        <ele>189.6</ele>
        <time>2024-04-14T08:14:10Z</time>
      </trkpt>
      <trkpt lat="45.10348" lon="0.54073">
        <ele>189.9</ele>
        <time>2024-04-14T08:14:12Z</time>
      </trkpt>
      <trkpt lat="45.10343" lon="0.54071">
        <ele>190.2</ele>
        <time>2024-04-14T08:14:14Z</time>
      </trkpt>
      <trkpt lat="45.10338" lon="0.5407">
        <ele>190.5</ele>
        <time>2024-04-14T08:14:16Z</time>
      </trkpt>
      <trkpt lat="45.10336" lon="0.5407">
        <ele>190.7</ele>
        <time>2024-04-14T08:14:17Z</time>
      </trkpt>
      <trkpt lat="45.10333" lon="0.5407">
        <ele>190.8</ele>
        <time>2024-04-14T08:14:18Z</time>
      </trkpt>
      <trkpt lat="45.10328" lon="0.54071">
        <ele>191.1</ele>
        <time>2024-04-14T08:14:20Z</time>
      </trkpt>
      <trkpt lat="45.10323" lon="0.54073">
        <ele>191.4</ele>
        <time>2024-04-14T08:14:22Z</time>
      </trkpt>
      <trkpt lat="45.10318" lon="0.54074">
        <ele>191.7</ele>
        <time>2024-04-14T08:14:24Z</time>
      </trkpt>
      <trkpt lat="45.10312" lon="0.54075">
        <ele>192</ele>
        <time>2024-04-14T08:14:26Z</time>
      </trkpt>
      <trkpt lat="45.10307" lon="0.54076">
        <ele>192.3</ele>
        <time>2024-04-14T08:14:28Z</time>
      </trkpt>
      <trkpt lat="45.10305" lon="0.54076">
        <ele>192.5</ele>
        <time>2024-04-14T08:14:29Z</time>
      </trkpt>
      <trkpt lat="45.10303" lon="0.54077">
        <ele>192.6</ele>
        <time>2024-04-14T08:14:30Z</time>
      </trkpt>
      <trkpt lat="45.10298" lon="0.54077">
        <ele>192.9</ele>
        <time>2024-04-14T08:14:32Z</time>
      </trkpt>
      <trkpt lat="45.10292" lon="0.54078">
        <ele>193.2</ele>
        <time>2024-04-14T08:14:34Z</time>
      </trkpt>
      <trkpt lat="45.10286" lon="0.54079">
        <ele>193.4</ele>
        <time>2024-04-14T08:14:36Z</time>
      </trkpt>
      <trkpt lat="45.10281" lon="0.54079">
        <ele>193.6</ele>
        <time>2024-04-14T08:14:38Z</time>
      </trkpt>
      <trkpt lat="45.10276" lon="0.54078">
        <ele>193.7</ele>
        <time>2024-04-14T08:14:40Z</time>
      </trkpt>
      <trkpt lat="45.1027" lon="0.54078">
        <ele>193.8</ele>
        <time>2024-04-14T08:14:42Z</time>
      </trkpt>
      <trkpt lat="45.10266" lon="0.54079">
        <ele>193.9</ele>
        <time>2024-04-14T08:14:44Z</time>
      </trkpt>
      <trkpt lat="45.10262" lon="0.54078">
        <ele>193.9</ele>
        <time>2024-04-14T08:14:46Z</time>
      </trkpt>
      <trkpt lat="45.10256" lon="0.54079">
        <ele>193.8</ele>
        <time>2024-04-14T08:14:48Z</time>
      </trkpt>
      <trkpt lat="45.10248" lon="0.54079">
        <ele>193.5</ele>
        <time>2024-04-14T08:14:50Z</time>
      </trkpt>
      <trkpt lat="45.10241" lon="0.54078">
        <ele>193.2</ele>
        <time>2024-04-14T08:14:52Z</time>
      </trkpt>
      <trkpt lat="45.10234" lon="0.54077">
        <ele>193</ele>
        <time>2024-04-14T08:14:54Z</time>
      </trkpt>
      <trkpt lat="45.10231" lon="0.54076">
        <ele>192.9</ele>
        <time>2024-04-14T08:14:55Z</time>
      </trkpt>
      <trkpt lat="45.10226" lon="0.54077">
        <ele>192.7</ele>
        <time>2024-04-14T08:14:56Z</time>
      </trkpt>
      <trkpt lat="45.10221" lon="0.54078">
        <ele>192.6</ele>
        <time>2024-04-14T08:14:57Z</time>
      </trkpt>
      <trkpt lat="45.10216" lon="0.54079">
        <ele>192.4</ele>
        <time>2024-04-14T08:14:58Z</time>
      </trkpt>
      <trkpt lat="45.10212" lon="0.54079">
        <ele>192.2</ele>
        <time>2024-04-14T08:14:59Z</time>
      </trkpt>
      <trkpt lat="45.10207" lon="0.54079">
        <ele>192</ele>
        <time>2024-04-14T08:15:00Z</time>
      </trkpt>
      <trkpt lat="45.10202" lon="0.54078">
        <ele>191.8</ele>
        <time>2024-04-14T08:15:01Z</time>
      </trkpt>
      <trkpt lat="45.10196" lon="0.54077">
        <ele>191.5</ele>
        <time>2024-04-14T08:15:02Z</time>
      </trkpt>
      <trkpt lat="45.10185" lon="0.54074">
        <ele>191</ele>
        <time>2024-04-14T08:15:04Z</time>
      </trkpt>
      <trkpt lat="45.10171" lon="0.54072">
        <ele>190.2</ele>
        <time>2024-04-14T08:15:06Z</time>
      </trkpt>
      <trkpt lat="45.10164" lon="0.54071">
        <ele>189.8</ele>
        <time>2024-04-14T08:15:07Z</time>
      </trkpt>
      <trkpt lat="45.10157" lon="0.54069">
        <ele>189.3</ele>
        <time>2024-04-14T08:15:08Z</time>
      </trkpt>
      <trkpt lat="45.10149" lon="0.54066">
        <ele>188.7</ele>
        <time>2024-04-14T08:15:09Z</time>
      </trkpt>
      <trkpt lat="45.10143" lon="0.5406">
        <ele>188.2</ele>
        <time>2024-04-14T08:15:10Z</time>
      </trkpt>
      <trkpt lat="45.10133" lon="0.5405">
        <ele>187</ele>
        <time>2024-04-14T08:15:12Z</time>
      </trkpt>
      <trkpt lat="45.10126" lon="0.54047">
        <ele>186.2</ele>
        <time>2024-04-14T08:15:13Z</time>
      </trkpt>
      <trkpt lat="45.10119" lon="0.54044">
        <ele>185.3</ele>
        <time>2024-04-14T08:15:14Z</time>
      </trkpt>
      <trkpt lat="45.10107" lon="0.54037">
        <ele>183.5</ele>
        <time>2024-04-14T08:15:16Z</time>
      </trkpt>
      <trkpt lat="45.10101" lon="0.54033">
        <ele>182.6</ele>
        <time>2024-04-14T08:15:17Z</time>
      </trkpt>
      <trkpt lat="45.10095" lon="0.5403">
        <ele>181.8</ele>
        <time>2024-04-14T08:15:18Z</time>
      </trkpt>
      <trkpt lat="45.10091" lon="0.54027">
        <ele>181.2</ele>
        <time>2024-04-14T08:15:19Z</time>
      </trkpt>
      <trkpt lat="45.10089" lon="0.54025">
        <ele>180.9</ele>
        <time>2024-04-14T08:15:20Z</time>
      </trkpt>
      <trkpt lat="45.10084" lon="0.54024">
        <ele>180.2</ele>
        <time>2024-04-14T08:15:22Z</time>
      </trkpt>
      <trkpt lat="45.1008" lon="0.54024">
        <ele>179.7</ele>
        <time>2024-04-14T08:15:23Z</time>
      </trkpt>
      <trkpt lat="45.10078" lon="0.54024">
        <ele>179.4</ele>
        <time>2024-04-14T08:15:24Z</time>
      </trkpt>
      <trkpt lat="45.10073" lon="0.54026">
        <ele>178.8</ele>
        <time>2024-04-14T08:15:26Z</time>
      </trkpt>
      <trkpt lat="45.10069" lon="0.54031">
        <ele>178.2</ele>
        <time>2024-04-14T08:15:28Z</time>
      </trkpt>
      <trkpt lat="45.10066" lon="0.54036">
        <ele>178</ele>
        <time>2024-04-14T08:15:30Z</time>
      </trkpt>
      <trkpt lat="45.10059" lon="0.54039">
        <ele>177.7</ele>
        <time>2024-04-14T08:15:32Z</time>
      </trkpt>
      <trkpt lat="45.10057" lon="0.54041">
        <ele>177.7</ele>
        <time>2024-04-14T08:15:33Z</time>
      </trkpt>
      <trkpt lat="45.10054" lon="0.54043">
        <ele>177.6</ele>
        <time>2024-04-14T08:15:34Z</time>
      </trkpt>
      <trkpt lat="45.10045" lon="0.54047">
        <ele>177.5</ele>
        <time>2024-04-14T08:15:36Z</time>
      </trkpt>
      <trkpt lat="45.10037" lon="0.5405">
        <ele>177.5</ele>
        <time>2024-04-14T08:15:38Z</time>
      </trkpt>
      <trkpt lat="45.10029" lon="0.54053">
        <ele>177.6</ele>
        <time>2024-04-14T08:15:40Z</time>
      </trkpt>
      <trkpt lat="45.1002" lon="0.54057">
        <ele>177.7</ele>
        <time>2024-04-14T08:15:42Z</time>
      </trkpt>
      <trkpt lat="45.1001" lon="0.54059">
        <ele>177.8</ele>
        <time>2024-04-14T08:15:44Z</time>
      </trkpt>
      <trkpt lat="45.1" lon="0.5406">
        <ele>177.7</ele>
        <time>2024-04-14T08:15:46Z</time>
      </trkpt>
      <trkpt lat="45.09992" lon="0.54061">
        <ele>177.5</ele>
        <time>2024-04-14T08:15:48Z</time>
      </trkpt>
      <trkpt lat="45.09987" lon="0.54061">
        <ele>177.4</ele>
        <time>2024-04-14T08:15:49Z</time>
      </trkpt>
      <trkpt lat="45.09982" lon="0.54063">
        <ele>177.2</ele>
        <time>2024-04-14T08:15:50Z</time>
      </trkpt>
      <trkpt lat="45.09977" lon="0.54065">
        <ele>177.1</ele>
        <time>2024-04-14T08:15:51Z</time>
      </trkpt>
      <trkpt lat="45.09974" lon="0.54066">
        <ele>177</ele>
        <time>2024-04-14T08:15:52Z</time>
      </trkpt>
      <trkpt lat="45.09965" lon="0.54069">
        <ele>176.7</ele>
        <time>2024-04-14T08:15:54Z</time>
      </trkpt>
      <trkpt lat="45.09959" lon="0.54071">
        <ele>176.5</ele>
        <time>2024-04-14T08:15:55Z</time>
      </trkpt>
      <trkpt lat="45.09956" lon="0.5407">
        <ele>176.4</ele>
        <time>2024-04-14T08:15:56Z</time>
      </trkpt>
      <trkpt lat="45.09954" lon="0.54068">
        <ele>176.3</ele>
        <time>2024-04-14T08:15:57Z</time>
      </trkpt>
      <trkpt lat="45.09952" lon="0.54065">
        <ele>176.3</ele>
        <time>2024-04-14T08:15:58Z</time>
      </trkpt>
      <trkpt lat="45.09945" lon="0.54063">
        <ele>176.1</ele>
        <time>2024-04-14T08:16:00Z</time>
      </trkpt>
      <trkpt lat="45.09933" lon="0.54072">
        <ele>175.8</ele>
        <time>2024-04-14T08:16:02Z</time>
      </trkpt>
      <trkpt lat="45.09928" lon="0.54073">
        <ele>175.6</ele>
        <time>2024-04-14T08:16:03Z</time>
      </trkpt>
      <trkpt lat="45.09923" lon="0.54073">
        <ele>175.4</ele>
        <time>2024-04-14T08:16:04Z</time>
      </trkpt>
      <trkpt lat="45.09918" lon="0.54075">
        <ele>175.2</ele>
        <time>2024-04-14T08:16:06Z</time>
      </trkpt>
      <trkpt lat="45.09915" lon="0.54077">
        <ele>175.1</ele>
        <time>2024-04-14T08:16:07Z</time>
      </trkpt>
      <trkpt lat="45.0991" lon="0.54077">
        <ele>174.8</ele>
        <time>2024-04-14T08:16:12Z</time>
      </trkpt>
      <trkpt lat="45.09908" lon="0.54076">
        <ele>174.7</ele>
        <time>2024-04-14T08:16:13Z</time>
      </trkpt>
      <trkpt lat="45.09906" lon="0.54076">
        <ele>174.6</ele>
        <time>2024-04-14T08:16:14Z</time>
      </trkpt>
      <trkpt lat="45.09893" lon="0.54074">
        <ele>174</ele>
        <time>2024-04-14T08:16:16Z</time>
      </trkpt>
      <trkpt lat="45.09882" lon="0.54072">
        <ele>173.5</ele>
        <time>2024-04-14T08:16:18Z</time>
      </trkpt>
      <trkpt lat="45.09872" lon="0.54069">
        <ele>173</ele>
        <time>2024-04-14T08:16:20Z</time>
      </trkpt>
      <trkpt lat="45.09868" lon="0.54068">
        <ele>172.9</ele>
        <time>2024-04-14T08:16:21Z</time>
      </trkpt>
      <trkpt lat="45.09864" lon="0.54067">
        <ele>172.8</ele>
        <time>2024-04-14T08:16:22Z</time>
      </trkpt>
      <trkpt lat="45.09862" lon="0.54067">
        <ele>172.7</ele>
        <time>2024-04-14T08:16:23Z</time>
      </trkpt>
      <trkpt lat="45.09858" lon="0.54065">
        <ele>172.7</ele>
        <time>2024-04-14T08:16:24Z</time>
      </trkpt>
      <trkpt lat="45.09856" lon="0.54064">
        <ele>172.8</ele>
        <time>2024-04-14T08:16:25Z</time>
      </trkpt>
      <trkpt lat="45.09852" lon="0.54062">
        <ele>172.9</ele>
        <time>2024-04-14T08:16:26Z</time>
      </trkpt>
      <trkpt lat="45.09847" lon="0.54059">
        <ele>173</ele>
        <time>2024-04-14T08:16:27Z</time>
      </trkpt>
      <trkpt lat="45.09841" lon="0.54056">
        <ele>173.2</ele>
        <time>2024-04-14T08:16:28Z</time>
      </trkpt>
      <trkpt lat="45.09828" lon="0.54051">
        <ele>173.5</ele>
        <time>2024-04-14T08:16:30Z</time>
      </trkpt>
      <trkpt lat="45.09814" lon="0.54045">
        <ele>173.5</ele>
        <time>2024-04-14T08:16:32Z</time>
      </trkpt>
      <trkpt lat="45.09808" lon="0.54043">
        <ele>173.4</ele>
        <time>2024-04-14T08:16:33Z</time>
      </trkpt>
      <trkpt lat="45.09803" lon="0.54041">
        <ele>173.4</ele>
        <time>2024-04-14T08:16:34Z</time>
      </trkpt>
      <trkpt lat="45.09792" lon="0.54036">
        <ele>173.3</ele>
        <time>2024-04-14T08:16:36Z</time>
      </trkpt>
      <trkpt lat="45.09787" lon="0.54032">
        <ele>173.2</ele>
        <time>2024-04-14T08:16:37Z</time>
      </trkpt>
      <trkpt lat="45.09781" lon="0.54028">
        <ele>173.1</ele>
        <time>2024-04-14T08:16:38Z</time>
      </trkpt>
      <trkpt lat="45.0977" lon="0.54023">
        <ele>172.8</ele>
        <time>2024-04-14T08:16:40Z</time>
      </trkpt>
      <trkpt lat="45.0976" lon="0.54019">
        <ele>172.4</ele>
        <time>2024-04-14T08:16:42Z</time>
      </trkpt>
      <trkpt lat="45.09754" lon="0.54017">
        <ele>172.2</ele>
        <time>2024-04-14T08:16:43Z</time>
      </trkpt>
      <trkpt lat="45.09748" lon="0.54016">
        <ele>171.9</ele>
        <time>2024-04-14T08:16:44Z</time>
      </trkpt>
      <trkpt lat="45.09742" lon="0.54016">
        <ele>171.7</ele>
        <time>2024-04-14T08:16:45Z</time>
      </trkpt>
      <trkpt lat="45.09736" lon="0.54015">
        <ele>171.5</ele>
        <time>2024-04-14T08:16:46Z</time>
      </trkpt>
      <trkpt lat="45.09728" lon="0.54013">
        <ele>171.4</ele>
        <time>2024-04-14T08:16:48Z</time>
      </trkpt>
      <trkpt lat="45.09724" lon="0.5401">
        <ele>171.3</ele>
        <time>2024-04-14T08:16:49Z</time>
      </trkpt>
      <trkpt lat="45.09723" lon="0.54009">
        <ele>171.2</ele>
        <time>2024-04-14T08:16:50Z</time>
      </trkpt>
      <trkpt lat="45.09719" lon="0.54007">
        <ele>171.2</ele>
        <time>2024-04-14T08:16:51Z</time>
      </trkpt>
      <trkpt lat="45.09717" lon="0.54007">
        <ele>171.1</ele>
        <time>2024-04-14T08:16:52Z</time>
      </trkpt>
      <trkpt lat="45.09715" lon="0.54007">
        <ele>171.1</ele>
        <time>2024-04-14T08:16:53Z</time>
      </trkpt>
      <trkpt lat="45.09712" lon="0.54007">
        <ele>171</ele>
        <time>2024-04-14T08:16:54Z</time>
      </trkpt>
      <trkpt lat="45.09705" lon="0.54005">
        <ele>171</ele>
        <time>2024-04-14T08:16:56Z</time>
      </trkpt>
      <trkpt lat="45.09702" lon="0.54005">
        <ele>171</ele>
        <time>2024-04-14T08:16:57Z</time>
      </trkpt>
      <trkpt lat="45.09699" lon="0.54005">
        <ele>171</ele>
        <time>2024-04-14T08:16:58Z</time>
      </trkpt>
      <trkpt lat="45.09694" lon="0.54004">
        <ele>171.1</ele>
        <time>2024-04-14T08:17:00Z</time>
      </trkpt>
      <trkpt lat="45.09689" lon="0.54003">
        <ele>171.2</ele>
        <time>2024-04-14T08:17:02Z</time>
      </trkpt>
      <trkpt lat="45.09683" lon="0.54003">
        <ele>171.5</ele>
        <time>2024-04-14T08:17:04Z</time>
      </trkpt>
      <trkpt lat="45.09676" lon="0.54">
        <ele>171.9</ele>
        <time>2024-04-14T08:17:06Z</time>
      </trkpt>
      <trkpt lat="45.09673" lon="0.53998">
        <ele>172.2</ele>
        <time>2024-04-14T08:17:07Z</time>
      </trkpt>
      <trkpt lat="45.0967" lon="0.53997">
        <ele>172.4</ele>
        <time>2024-04-14T08:17:08Z</time>
      </trkpt>
      <trkpt lat="45.09665" lon="0.53993">
        <ele>172.9</ele>
        <time>2024-04-14T08:17:10Z</time>
      </trkpt>
      <trkpt lat="45.09659" lon="0.5399">
        <ele>173.4</ele>
        <time>2024-04-14T08:17:12Z</time>
      </trkpt>
      <trkpt lat="45.09653" lon="0.5399">
        <ele>173.8</ele>
        <time>2024-04-14T08:17:14Z</time>
      </trkpt>
      <trkpt lat="45.09648" lon="0.53988">
        <ele>174.3</ele>
        <time>2024-04-14T08:17:16Z</time>
      </trkpt>
      <trkpt lat="45.09643" lon="0.53989">
        <ele>174.7</ele>
        <time>2024-04-14T08:17:18Z</time>
      </trkpt>
      <trkpt lat="45.09636" lon="0.5399">
        <ele>175.3</ele>
        <time>2024-04-14T08:17:20Z</time>
      </trkpt>
      <trkpt lat="45.0963" lon="0.53989">
        <ele>175.8</ele>
        <time>2024-04-14T08:17:22Z</time>
      </trkpt>
      <trkpt lat="45.09627" lon="0.5399">
        <ele>176.1</ele>
        <time>2024-04-14T08:17:23Z</time>
      </trkpt>
      <trkpt lat="45.09623" lon="0.53991">
        <ele>176.3</ele>
        <time>2024-04-14T08:17:24Z</time>
      </trkpt>
      <trkpt lat="45.09618" lon="0.53991">
        <ele>176.7</ele>
        <time>2024-04-14T08:17:25Z</time>
      </trkpt>
      <trkpt lat="45.09613" lon="0.53991">
        <ele>177</ele>
        <time>2024-04-14T08:17:26Z</time>
      </trkpt>
      <trkpt lat="45.09607" lon="0.53992">
        <ele>177.3</ele>
        <time>2024-04-14T08:17:27Z</time>
      </trkpt>
      <trkpt lat="45.09601" lon="0.5399">
        <ele>177.4</ele>
        <time>2024-04-14T08:17:28Z</time>
      </trkpt>
      <trkpt lat="45.09589" lon="0.53988">
        <ele>176.7</ele>
        <time>2024-04-14T08:17:30Z</time>
      </trkpt>
      <trkpt lat="45.09576" lon="0.53985">
        <ele>176</ele>
        <time>2024-04-14T08:17:32Z</time>
      </trkpt>
      <trkpt lat="45.09569" lon="0.53985">
        <ele>175.6</ele>
        <time>2024-04-14T08:17:33Z</time>
      </trkpt>
      <trkpt lat="45.09562" lon="0.53985">
        <ele>175.2</ele>
        <time>2024-04-14T08:17:34Z</time>
      </trkpt>
      <trkpt lat="45.09554" lon="0.53985">
        <ele>174.7</ele>
        <time>2024-04-14T08:17:35Z</time>
      </trkpt>
      <trkpt lat="45.09547" lon="0.53984">
        <ele>174.2</ele>
        <time>2024-04-14T08:17:36Z</time>
      </trkpt>
      <trkpt lat="45.0953" lon="0.53981">
        <ele>173.2</ele>
        <time>2024-04-14T08:17:38Z</time>
      </trkpt>
      <trkpt lat="45.09512" lon="0.53979">
        <ele>172</ele>
        <time>2024-04-14T08:17:40Z</time>
      </trkpt>
      <trkpt lat="45.09494" lon="0.53978">
        <ele>170.8</ele>
        <time>2024-04-14T08:17:42Z</time>
      </trkpt>
      <trkpt lat="45.09484" lon="0.53978">
        <ele>170.1</ele>
        <time>2024-04-14T08:17:43Z</time>
      </trkpt>
      <trkpt lat="45.09475" lon="0.53979">
        <ele>169.5</ele>
        <time>2024-04-14T08:17:44Z</time>
      </trkpt>
      <trkpt lat="45.09456" lon="0.5398">
        <ele>168.2</ele>
        <time>2024-04-14T08:17:46Z</time>
      </trkpt>
      <trkpt lat="45.09436" lon="0.53978">
        <ele>167.2</ele>
        <time>2024-04-14T08:17:48Z</time>
      </trkpt>
      <trkpt lat="45.09417" lon="0.53973">
        <ele>166.1</ele>
        <time>2024-04-14T08:17:50Z</time>
      </trkpt>
      <trkpt lat="45.09408" lon="0.53971">
        <ele>165.5</ele>
        <time>2024-04-14T08:17:51Z</time>
      </trkpt>
      <trkpt lat="45.09399" lon="0.53971">
        <ele>164.9</ele>
        <time>2024-04-14T08:17:52Z</time>
      </trkpt>
      <trkpt lat="45.09391" lon="0.53971">
        <ele>164.4</ele>
        <time>2024-04-14T08:17:53Z</time>
      </trkpt>
      <trkpt lat="45.09385" lon="0.53973">
        <ele>164</ele>
        <time>2024-04-14T08:17:54Z</time>
      </trkpt>
      <trkpt lat="45.09381" lon="0.53976">
        <ele>163.7</ele>
        <time>2024-04-14T08:17:55Z</time>
      </trkpt>
      <trkpt lat="45.09379" lon="0.5398">
        <ele>163.5</ele>
        <time>2024-04-14T08:17:56Z</time>
      </trkpt>
      <trkpt lat="45.09379" lon="0.53984">
        <ele>163.3</ele>
        <time>2024-04-14T08:17:57Z</time>
      </trkpt>
      <trkpt lat="45.09379" lon="0.53987">
        <ele>163.1</ele>
        <time>2024-04-14T08:17:58Z</time>
      </trkpt>
      <trkpt lat="45.09381" lon="0.53988">
        <ele>163</ele>
        <time>2024-04-14T08:17:59Z</time>
      </trkpt>
      <trkpt lat="45.09382" lon="0.53989">
        <ele>162.9</ele>
        <time>2024-04-14T08:18:00Z</time>
      </trkpt>
      <trkpt lat="45.09385" lon="0.53992">
        <ele>162.7</ele>
        <time>2024-04-14T08:18:02Z</time>
      </trkpt>
      <trkpt lat="45.09389" lon="0.53993">
        <ele>162.4</ele>
        <time>2024-04-14T08:18:04Z</time>
      </trkpt>
      <trkpt lat="45.09391" lon="0.53994">
        <ele>162.2</ele>
        <time>2024-04-14T08:18:05Z</time>
      </trkpt>
      <trkpt lat="45.09394" lon="0.53994">
        <ele>162</ele>
        <time>2024-04-14T08:18:06Z</time>
      </trkpt>
      <trkpt lat="45.094" lon="0.53997">
        <ele>161.6</ele>
        <time>2024-04-14T08:18:08Z</time>
      </trkpt>
      <trkpt lat="45.09405" lon="0.53999">
        <ele>161.2</ele>
        <time>2024-04-14T08:18:10Z</time>
      </trkpt>
      <trkpt lat="45.0941" lon="0.53999">
        <ele>160.8</ele>
        <time>2024-04-14T08:18:12Z</time>
      </trkpt>
      <trkpt lat="45.09415" lon="0.53999">
        <ele>160.4</ele>
        <time>2024-04-14T08:18:14Z</time>
      </trkpt>
      <trkpt lat="45.09421" lon="0.53999">
        <ele>160</ele>
        <time>2024-04-14T08:18:16Z</time>
      </trkpt>
      <trkpt lat="45.09422" lon="0.54001">
        <ele>159.8</ele>
        <time>2024-04-14T08:18:17Z</time>
      </trkpt>
      <trkpt lat="45.09423" lon="0.54004">
        <ele>159.6</ele>
        <time>2024-04-14T08:18:18Z</time>
      </trkpt>
      <trkpt lat="45.09418" lon="0.5401">
        <ele>158.9</ele>
        <time>2024-04-14T08:18:20Z</time>
      </trkpt>
      <trkpt lat="45.09414" lon="0.54013">
        <ele>158.4</ele>
        <time>2024-04-14T08:18:21Z</time>
      </trkpt>
      <trkpt lat="45.09409" lon="0.54015">
        <ele>157.9</ele>
        <time>2024-04-14T08:18:22Z</time>
      </trkpt>
      <trkpt lat="45.094" lon="0.54021">
        <ele>156.7</ele>
        <time>2024-04-14T08:18:24Z</time>
      </trkpt>
      <trkpt lat="45.09389" lon="0.54029">
        <ele>155.2</ele>
        <time>2024-04-14T08:18:26Z</time>
      </trkpt>
      <trkpt lat="45.09377" lon="0.54038">
        <ele>153.5</ele>
        <time>2024-04-14T08:18:28Z</time>
      </trkpt>
      <trkpt lat="45.0937" lon="0.54043">
        <ele>152.5</ele>
        <time>2024-04-14T08:18:29Z</time>
      </trkpt>
      <trkpt lat="45.09364" lon="0.54048">
        <ele>151.4</ele>
        <time>2024-04-14T08:18:30Z</time>
      </trkpt>
      <trkpt lat="45.09349" lon="0.54058">
        <ele>148.9</ele>
        <time>2024-04-14T08:18:32Z</time>
      </trkpt>
      <trkpt lat="45.09333" lon="0.5407">
        <ele>146.1</ele>
        <time>2024-04-14T08:18:34Z</time>
      </trkpt>
      <trkpt lat="45.09326" lon="0.54076">
        <ele>144.9</ele>
        <time>2024-04-14T08:18:35Z</time>
      </trkpt>
      <trkpt lat="45.09318" lon="0.54081">
        <ele>143.7</ele>
        <time>2024-04-14T08:18:36Z</time>
      </trkpt>
      <trkpt lat="45.093" lon="0.54089">
        <ele>140.9</ele>
        <time>2024-04-14T08:18:38Z</time>
      </trkpt>
      <trkpt lat="45.09279" lon="0.54094">
        <ele>138</ele>
        <time>2024-04-14T08:18:40Z</time>
      </trkpt>
      <trkpt lat="45.09255" lon="0.54099">
        <ele>134.7</ele>
        <time>2024-04-14T08:18:42Z</time>
      </trkpt>
      <trkpt lat="45.09243" lon="0.54103">
        <ele>133</ele>
        <time>2024-04-14T08:18:43Z</time>
      </trkpt>
      <trkpt lat="45.09231" lon="0.54108">
        <ele>131.6</ele>
        <time>2024-04-14T08:18:44Z</time>
      </trkpt>
      <trkpt lat="45.09219" lon="0.54113">
        <ele>130.2</ele>
        <time>2024-04-14T08:18:45Z</time>
      </trkpt>
      <trkpt lat="45.09208" lon="0.54119">
        <ele>128.8</ele>
        <time>2024-04-14T08:18:46Z</time>
      </trkpt>
      <trkpt lat="45.09184" lon="0.5413">
        <ele>125.9</ele>
        <time>2024-04-14T08:18:48Z</time>
      </trkpt>
      <trkpt lat="45.09172" lon="0.54136">
        <ele>124.2</ele>
        <time>2024-04-14T08:18:49Z</time>
      </trkpt>
      <trkpt lat="45.0916" lon="0.5414">
        <ele>122.4</ele>
        <time>2024-04-14T08:18:50Z</time>
      </trkpt>
      <trkpt lat="45.09139" lon="0.54147">
        <ele>119.1</ele>
        <time>2024-04-14T08:18:52Z</time>
      </trkpt>
      <trkpt lat="45.09129" lon="0.54149">
        <ele>117.5</ele>
        <time>2024-04-14T08:18:53Z</time>
      </trkpt>
      <trkpt lat="45.09119" lon="0.5415">
        <ele>115.8</ele>
        <time>2024-04-14T08:18:54Z</time>
      </trkpt>
      <trkpt lat="45.09099" lon="0.54152">
        <ele>112.4</ele>
        <time>2024-04-14T08:18:56Z</time>
      </trkpt>
      <trkpt lat="45.09089" lon="0.54152">
        <ele>110.6</ele>
        <time>2024-04-14T08:18:57Z</time>
      </trkpt>
      <trkpt lat="45.09079" lon="0.54152">
        <ele>108.7</ele>
        <time>2024-04-14T08:18:58Z</time>
      </trkpt>
      <trkpt lat="45.09059" lon="0.54152">
        <ele>104.9</ele>
        <time>2024-04-14T08:19:00Z</time>
      </trkpt>
      <trkpt lat="45.09037" lon="0.54155">
        <ele>101.2</ele>
        <time>2024-04-14T08:19:02Z</time>
      </trkpt>
      <trkpt lat="45.09015" lon="0.54159">
        <ele>98.1</ele>
        <time>2024-04-14T08:19:04Z</time>
      </trkpt>
      <trkpt lat="45.08992" lon="0.54163">
        <ele>95.7</ele>
        <time>2024-04-14T08:19:06Z</time>
      </trkpt>
      <trkpt lat="45.08981" lon="0.54164">
        <ele>94.4</ele>
        <time>2024-04-14T08:19:07Z</time>
      </trkpt>
      <trkpt lat="45.08969" lon="0.54166">
        <ele>93.3</ele>
        <time>2024-04-14T08:19:08Z</time>
      </trkpt>
      <trkpt lat="45.08945" lon="0.54169">
        <ele>91.4</ele>
        <time>2024-04-14T08:19:10Z</time>
      </trkpt>
      <trkpt lat="45.08922" lon="0.54173">
        <ele>89.9</ele>
        <time>2024-04-14T08:19:12Z</time>
      </trkpt>
      <trkpt lat="45.08899" lon="0.54177">
        <ele>88.6</ele>
        <time>2024-04-14T08:19:14Z</time>
      </trkpt>
      <trkpt lat="45.08878" lon="0.54181">
        <ele>87.5</ele>
        <time>2024-04-14T08:19:16Z</time>
      </trkpt>
      <trkpt lat="45.08861" lon="0.54185">
        <ele>86.9</ele>
        <time>2024-04-14T08:19:18Z</time>
      </trkpt>
      <trkpt lat="45.08856" lon="0.54187">
        <ele>86.7</ele>
        <time>2024-04-14T08:19:19Z</time>
      </trkpt>
      <trkpt lat="45.08853" lon="0.54187">
        <ele>86.5</ele>
        <time>2024-04-14T08:19:20Z</time>
      </trkpt>
      <trkpt lat="45.08851" lon="0.54186">
        <ele>86.5</ele>
        <time>2024-04-14T08:19:21Z</time>
      </trkpt>
      <trkpt lat="45.08851" lon="0.54184">
        <ele>86.4</ele>
        <time>2024-04-14T08:19:22Z</time>
      </trkpt>
      <trkpt lat="45.08848" lon="0.54183">
        <ele>86.3</ele>
        <time>2024-04-14T08:19:24Z</time>
      </trkpt>
      <trkpt lat="45.08845" lon="0.54184">
        <ele>86.2</ele>
        <time>2024-04-14T08:19:25Z</time>
      </trkpt>
      <trkpt lat="45.08842" lon="0.54186">
        <ele>86</ele>
        <time>2024-04-14T08:19:26Z</time>
      </trkpt>
      <trkpt lat="45.08834" lon="0.54188">
        <ele>85.8</ele>
        <time>2024-04-14T08:19:28Z</time>
      </trkpt>
      <trkpt lat="45.0883" lon="0.54188">
        <ele>85.7</ele>
        <time>2024-04-14T08:19:29Z</time>
      </trkpt>
      <trkpt lat="45.08825" lon="0.54187">
        <ele>85.6</ele>
        <time>2024-04-14T08:19:30Z</time>
      </trkpt>
      <trkpt lat="45.08815" lon="0.54185">
        <ele>85.3</ele>
        <time>2024-04-14T08:19:32Z</time>
      </trkpt>
      <trkpt lat="45.08805" lon="0.54184">
        <ele>85.1</ele>
        <time>2024-04-14T08:19:34Z</time>
      </trkpt>
      <trkpt lat="45.08794" lon="0.54183">
        <ele>84.8</ele>
        <time>2024-04-14T08:19:36Z</time>
      </trkpt>
      <trkpt lat="45.08783" lon="0.54181">
        <ele>84.5</ele>
        <time>2024-04-14T08:19:38Z</time>
      </trkpt>
      <trkpt lat="45.08771" lon="0.5418">
        <ele>84.2</ele>
        <time>2024-04-14T08:19:40Z</time>
      </trkpt>
      <trkpt lat="45.08758" lon="0.54178">
        <ele>83.8</ele>
        <time>2024-04-14T08:19:42Z</time>
      </trkpt>
      <trkpt lat="45.08745" lon="0.54176">
        <ele>83.5</ele>
        <time>2024-04-14T08:19:44Z</time>
      </trkpt>
      <trkpt lat="45.08732" lon="0.54174">
        <ele>83.2</ele>
        <time>2024-04-14T08:19:46Z</time>
      </trkpt>
      <trkpt lat="45.08719" lon="0.54173">
        <ele>82.9</ele>
        <time>2024-04-14T08:19:48Z</time>
      </trkpt>
      <trkpt lat="45.08713" lon="0.54172">
        <ele>82.7</ele>
        <time>2024-04-14T08:19:49Z</time>
      </trkpt>
      <trkpt lat="45.08706" lon="0.54171">
        <ele>82.5</ele>
        <time>2024-04-14T08:19:50Z</time>
      </trkpt>
      <trkpt lat="45.08693" lon="0.54168">
        <ele>82.2</ele>
        <time>2024-04-14T08:19:52Z</time>
      </trkpt>
      <trkpt lat="45.0868" lon="0.54166">
        <ele>81.9</ele>
        <time>2024-04-14T08:19:54Z</time>
      </trkpt>
      <trkpt lat="45.08667" lon="0.54164">
        <ele>81.6</ele>
        <time>2024-04-14T08:19:56Z</time>
      </trkpt>
      <trkpt lat="45.08654" lon="0.54162">
        <ele>81.4</ele>
        <time>2024-04-14T08:19:58Z</time>
      </trkpt>
      <trkpt lat="45.08641" lon="0.5416">
        <ele>81.2</ele>
        <time>2024-04-14T08:20:00Z</time>
      </trkpt>
      <trkpt lat="45.08629" lon="0.54159">
        <ele>81</ele>
        <time>2024-04-14T08:20:02Z</time>
      </trkpt>
      <trkpt lat="45.08617" lon="0.54157">
        <ele>80.9</ele>
        <time>2024-04-14T08:20:04Z</time>
      </trkpt>
      <trkpt lat="45.0861" lon="0.54156">
        <ele>80.8</ele>
        <time>2024-04-14T08:20:05Z</time>
      </trkpt>
      <trkpt lat="45.08604" lon="0.54155">
        <ele>80.7</ele>
        <time>2024-04-14T08:20:06Z</time>
      </trkpt>
      <trkpt lat="45.08592" lon="0.54153">
        <ele>80.6</ele>
        <time>2024-04-14T08:20:08Z</time>
      </trkpt>
      <trkpt lat="45.0858" lon="0.54151">
        <ele>80.5</ele>
        <time>2024-04-14T08:20:10Z</time>
      </trkpt>
      <trkpt lat="45.08567" lon="0.5415">
        <ele>80.5</ele>
        <time>2024-04-14T08:20:12Z</time>
      </trkpt>
      <trkpt lat="45.08555" lon="0.54147">
        <ele>80.4</ele>
        <time>2024-04-14T08:20:14Z</time>
      </trkpt>
      <trkpt lat="45.08543" lon="0.54145">
        <ele>80.4</ele>
        <time>2024-04-14T08:20:16Z</time>
      </trkpt>
      <trkpt lat="45.0853" lon="0.54143">
        <ele>80.4</ele>
        <time>2024-04-14T08:20:18Z</time>
      </trkpt>
      <trkpt lat="45.08517" lon="0.54141">
        <ele>80.3</ele>
        <time>2024-04-14T08:20:20Z</time>
      </trkpt>
      <trkpt lat="45.08504" lon="0.54141">
        <ele>80.3</ele>
        <time>2024-04-14T08:20:22Z</time>
      </trkpt>
      <trkpt lat="45.08498" lon="0.5414">
        <ele>80.2</ele>
        <time>2024-04-14T08:20:23Z</time>
      </trkpt>
      <trkpt lat="45.08492" lon="0.5414">
        <ele>80.2</ele>
        <time>2024-04-14T08:20:24Z</time>
      </trkpt>
      <trkpt lat="45.0848" lon="0.54138">
        <ele>80.2</ele>
        <time>2024-04-14T08:20:26Z</time>
      </trkpt>
      <trkpt lat="45.08467" lon="0.54138">
        <ele>80.2</ele>
        <time>2024-04-14T08:20:28Z</time>
      </trkpt>
      <trkpt lat="45.08461" lon="0.54138">
        <ele>80.2</ele>
        <time>2024-04-14T08:20:29Z</time>
      </trkpt>
      <trkpt lat="45.08454" lon="0.54139">
        <ele>80.2</ele>
        <time>2024-04-14T08:20:30Z</time>
      </trkpt>
      <trkpt lat="45.08443" lon="0.54138">
        <ele>80.3</ele>
        <time>2024-04-14T08:20:32Z</time>
      </trkpt>
      <trkpt lat="45.08437" lon="0.54138">
        <ele>80.3</ele>
        <time>2024-04-14T08:20:33Z</time>
      </trkpt>
      <trkpt lat="45.08431" lon="0.54138">
        <ele>80.3</ele>
        <time>2024-04-14T08:20:34Z</time>
      </trkpt>
      <trkpt lat="45.0842" lon="0.54138">
        <ele>80.3</ele>
        <time>2024-04-14T08:20:36Z</time>
      </trkpt>
      <trkpt lat="45.08408" lon="0.54138">
        <ele>80.2</ele>
        <time>2024-04-14T08:20:38Z</time>
      </trkpt>
      <trkpt lat="45.08398" lon="0.54139">
        <ele>80.2</ele>
        <time>2024-04-14T08:20:40Z</time>
      </trkpt>
      <trkpt lat="45.08388" lon="0.54138">
        <ele>80.1</ele>
        <time>2024-04-14T08:20:42Z</time>
      </trkpt>
      <trkpt lat="45.08378" lon="0.54137">
        <ele>80.1</ele>
        <time>2024-04-14T08:20:44Z</time>
      </trkpt>
      <trkpt lat="45.08367" lon="0.54138">
        <ele>80.1</ele>
        <time>2024-04-14T08:20:46Z</time>
      </trkpt>
      <trkpt lat="45.08357" lon="0.54138">
        <ele>80.1</ele>
        <time>2024-04-14T08:20:48Z</time>
      </trkpt>
      <trkpt lat="45.08352" lon="0.54138">
        <ele>80.1</ele>
        <time>2024-04-14T08:20:49Z</time>
      </trkpt>
      <trkpt lat="45.08347" lon="0.54138">
        <ele>80.2</ele>
        <time>2024-04-14T08:20:50Z</time>
      </trkpt>
      <trkpt lat="45.08338" lon="0.54138">
        <ele>80.3</ele>
        <time>2024-04-14T08:20:52Z</time>
      </trkpt>
      <trkpt lat="45.0833" lon="0.54136">
        <ele>80.5</ele>
        <time>2024-04-14T08:20:54Z</time>
      </trkpt>
      <trkpt lat="45.08326" lon="0.54135">
        <ele>80.6</ele>
        <time>2024-04-14T08:20:55Z</time>
      </trkpt>
      <trkpt lat="45.08323" lon="0.54132">
        <ele>80.6</ele>
        <time>2024-04-14T08:20:56Z</time>
      </trkpt>
      <trkpt lat="45.08321" lon="0.54123">
        <ele>80.6</ele>
        <time>2024-04-14T08:20:58Z</time>
      </trkpt>
      <trkpt lat="45.08321" lon="0.54111">
        <ele>80.7</ele>
        <time>2024-04-14T08:21:00Z</time>
      </trkpt>
      <trkpt lat="45.0832" lon="0.541">
        <ele>80.8</ele>
        <time>2024-04-14T08:21:02Z</time>
      </trkpt>
      <trkpt lat="45.0832" lon="0.54089">
        <ele>80.8</ele>
        <time>2024-04-14T08:21:04Z</time>
      </trkpt>
      <trkpt lat="45.0832" lon="0.54083">
        <ele>80.9</ele>
        <time>2024-04-14T08:21:05Z</time>
      </trkpt>
      <trkpt lat="45.0832" lon="0.54078">
        <ele>80.9</ele>
        <time>2024-04-14T08:21:06Z</time>
      </trkpt>
      <trkpt lat="45.0832" lon="0.54066">
        <ele>81.1</ele>
        <time>2024-04-14T08:21:08Z</time>
      </trkpt>
      <trkpt lat="45.0832" lon="0.54055">
        <ele>81.2</ele>
        <time>2024-04-14T08:21:10Z</time>
      </trkpt>
      <trkpt lat="45.08321" lon="0.54043">
        <ele>81.4</ele>
        <time>2024-04-14T08:21:12Z</time>
      </trkpt>
      <trkpt lat="45.08321" lon="0.54037">
        <ele>81.5</ele>
        <time>2024-04-14T08:21:13Z</time>
      </trkpt>
      <trkpt lat="45.08321" lon="0.54031">
        <ele>81.6</ele>
        <time>2024-04-14T08:21:14Z</time>
      </trkpt>
      <trkpt lat="45.08322" lon="0.5402">
        <ele>81.8</ele>
        <time>2024-04-14T08:21:16Z</time>
      </trkpt>
      <trkpt lat="45.08322" lon="0.5401">
        <ele>82.1</ele>
        <time>2024-04-14T08:21:18Z</time>
      </trkpt>
      <trkpt lat="45.08322" lon="0.54">
        <ele>82.3</ele>
        <time>2024-04-14T08:21:20Z</time>
      </trkpt>
      <trkpt lat="45.08322" lon="0.53995">
        <ele>82.5</ele>
        <time>2024-04-14T08:21:21Z</time>
      </trkpt>
      <trkpt lat="45.08321" lon="0.53991">
        <ele>82.6</ele>
        <time>2024-04-14T08:21:22Z</time>
      </trkpt>
      <trkpt lat="45.0832" lon="0.53981">
        <ele>82.8</ele>
        <time>2024-04-14T08:21:24Z</time>
      </trkpt>
      <trkpt lat="45.08317" lon="0.53971">
        <ele>83.1</ele>
        <time>2024-04-14T08:21:26Z</time>
      </trkpt>
      <trkpt lat="45.08314" lon="0.53963">
        <ele>83.4</ele>
        <time>2024-04-14T08:21:28Z</time>
      </trkpt>
      <trkpt lat="45.08311" lon="0.53955">
        <ele>83.6</ele>
        <time>2024-04-14T08:21:30Z</time>
      </trkpt>
      <trkpt lat="45.08307" lon="0.53947">
        <ele>84</ele>
        <time>2024-04-14T08:21:32Z</time>
      </trkpt>
      <trkpt lat="45.08305" lon="0.53944">
        <ele>84.1</ele>
        <time>2024-04-14T08:21:33Z</time>
      </trkpt>
      <trkpt lat="45.08302" lon="0.53942">
        <ele>84.3</ele>
        <time>2024-04-14T08:21:34Z</time>
      </trkpt>
      <trkpt lat="45.08295" lon="0.53938">
        <ele>84.6</ele>
        <time>2024-04-14T08:21:36Z</time>
      </trkpt>
      <trkpt lat="45.08289" lon="0.53935">
        <ele>84.8</ele>
        <time>2024-04-14T08:21:38Z</time>
      </trkpt>
      <trkpt lat="45.08283" lon="0.53932">
        <ele>85</ele>
        <time>2024-04-14T08:21:40Z</time>
      </trkpt>
      <trkpt lat="45.08277" lon="0.53929">
        <ele>85.2</ele>
        <time>2024-04-14T08:21:42Z</time>
      </trkpt>
      <trkpt lat="45.08271" lon="0.53929">
        <ele>85.5</ele>
        <time>2024-04-14T08:21:44Z</time>
      </trkpt>
      <trkpt lat="45.08265" lon="0.53929">
        <ele>85.7</ele>
        <time>2024-04-14T08:21:46Z</time>
      </trkpt>
      <trkpt lat="45.08259" lon="0.5393">
        <ele>85.9</ele>
        <time>2024-04-14T08:21:48Z</time>
      </trkpt>
      <trkpt lat="45.08253" lon="0.53932">
        <ele>86.2</ele>
        <time>2024-04-14T08:21:50Z</time>
      </trkpt>
      <trkpt lat="45.08247" lon="0.53934">
        <ele>86.4</ele>
        <time>2024-04-14T08:21:52Z</time>
      </trkpt>
      <trkpt lat="45.08241" lon="0.53935">
        <ele>86.6</ele>
        <time>2024-04-14T08:21:54Z</time>
      </trkpt>
      <trkpt lat="45.08238" lon="0.53936">
        <ele>86.8</ele>
        <time>2024-04-14T08:21:55Z</time>
      </trkpt>
      <trkpt lat="45.08235" lon="0.53937">
        <ele>86.9</ele>
        <time>2024-04-14T08:21:56Z</time>
      </trkpt>
      <trkpt lat="45.08229" lon="0.53939">
        <ele>87.1</ele>
        <time>2024-04-14T08:21:58Z</time>
      </trkpt>
      <trkpt lat="45.08222" lon="0.5394">
        <ele>87.4</ele>
        <time>2024-04-14T08:22:00Z</time>
      </trkpt>
      <trkpt lat="45.08216" lon="0.53943">
        <ele>87.7</ele>
        <time>2024-04-14T08:22:02Z</time>
      </trkpt>
      <trkpt lat="45.08213" lon="0.53944">
        <ele>87.8</ele>
        <time>2024-04-14T08:22:03Z</time>
      </trkpt>
      <trkpt lat="45.08209" lon="0.53945">
        <ele>88</ele>
        <time>2024-04-14T08:22:04Z</time>
      </trkpt>
      <trkpt lat="45.08204" lon="0.53947">
        <ele>88.4</ele>
        <time>2024-04-14T08:22:06Z</time>
      </trkpt>
      <trkpt lat="45.08201" lon="0.53954">
        <ele>88.7</ele>
        <time>2024-04-14T08:22:08Z</time>
      </trkpt>
      <trkpt lat="45.08201" lon="0.53963">
        <ele>89.1</ele>
        <time>2024-04-14T08:22:10Z</time>
      </trkpt>
      <trkpt lat="45.08202" lon="0.53971">
        <ele>89.5</ele>
        <time>2024-04-14T08:22:12Z</time>
      </trkpt>
      <trkpt lat="45.08202" lon="0.53975">
        <ele>89.7</ele>
        <time>2024-04-14T08:22:13Z</time>
      </trkpt>
      <trkpt lat="45.08202" lon="0.53979">
        <ele>89.9</ele>
        <time>2024-04-14T08:22:14Z</time>
      </trkpt>
      <trkpt lat="45.08201" lon="0.53982">
        <ele>90</ele>
        <time>2024-04-14T08:22:15Z</time>
      </trkpt>
      <trkpt lat="45.08199" lon="0.53984">
        <ele>90.1</ele>
        <time>2024-04-14T08:22:16Z</time>
      </trkpt>
      <trkpt lat="45.08196" lon="0.53986">
        <ele>90.2</ele>
        <time>2024-04-14T08:22:17Z</time>
      </trkpt>
      <trkpt lat="45.08193" lon="0.53987">
        <ele>90.3</ele>
        <time>2024-04-14T08:22:18Z</time>
      </trkpt>
      <trkpt lat="45.08187" lon="0.53989">
        <ele>90.6</ele>
        <time>2024-04-14T08:22:20Z</time>
      </trkpt>
      <trkpt lat="45.0818" lon="0.5399">
        <ele>90.8</ele>
        <time>2024-04-14T08:22:22Z</time>
      </trkpt>
      <trkpt lat="45.08177" lon="0.53991">
        <ele>90.9</ele>
        <time>2024-04-14T08:22:23Z</time>
      </trkpt>
      <trkpt lat="45.08174" lon="0.53992">
        <ele>91.1</ele>
        <time>2024-04-14T08:22:24Z</time>
      </trkpt>
      <trkpt lat="45.08168" lon="0.53993">
        <ele>91.3</ele>
        <time>2024-04-14T08:22:26Z</time>
      </trkpt>
      <trkpt lat="45.08163" lon="0.53996">
        <ele>91.5</ele>
        <time>2024-04-14T08:22:28Z</time>
      </trkpt>
      <trkpt lat="45.08158" lon="0.53998">
        <ele>91.8</ele>
        <time>2024-04-14T08:22:30Z</time>
      </trkpt>
      <trkpt lat="45.08154" lon="0.54002">
        <ele>92</ele>
        <time>2024-04-14T08:22:32Z</time>
      </trkpt>
      <trkpt lat="45.08152" lon="0.54006">
        <ele>92.2</ele>
        <time>2024-04-14T08:22:34Z</time>
      </trkpt>
      <trkpt lat="45.08151" lon="0.54007">
        <ele>92.3</ele>
        <time>2024-04-14T08:22:35Z</time>
      </trkpt>
      <trkpt lat="45.0815" lon="0.54009">
        <ele>92.4</ele>
        <time>2024-04-14T08:22:36Z</time>
      </trkpt>
      <trkpt lat="45.08147" lon="0.54013">
        <ele>92.6</ele>
        <time>2024-04-14T08:22:38Z</time>
      </trkpt>
      <trkpt lat="45.08145" lon="0.54018">
        <ele>92.8</ele>
        <time>2024-04-14T08:22:40Z</time>
      </trkpt>
      <trkpt lat="45.08142" lon="0.54023">
        <ele>93</ele>
        <time>2024-04-14T08:22:42Z</time>
      </trkpt>
      <trkpt lat="45.08141" lon="0.54026">
        <ele>93.2</ele>
        <time>2024-04-14T08:22:43Z</time>
      </trkpt>
      <trkpt lat="45.0814" lon="0.54028">
        <ele>93.3</ele>
        <time>2024-04-14T08:22:44Z</time>
      </trkpt>
      <trkpt lat="45.08138" lon="0.54032">
        <ele>93.5</ele>
        <time>2024-04-14T08:22:46Z</time>
      </trkpt>
      <trkpt lat="45.08136" lon="0.54038">
        <ele>93.8</ele>
        <time>2024-04-14T08:22:48Z</time>
      </trkpt>
      <trkpt lat="45.08133" lon="0.54042">
        <ele>94.1</ele>
        <time>2024-04-14T08:22:50Z</time>
      </trkpt>
      <trkpt lat="45.08131" lon="0.54047">
        <ele>94.4</ele>
        <time>2024-04-14T08:22:52Z</time>
      </trkpt>
      <trkpt lat="45.08128" lon="0.54051">
        <ele>94.7</ele>
        <time>2024-04-14T08:22:54Z</time>
      </trkpt>
      <trkpt lat="45.08125" lon="0.54055">
        <ele>95</ele>
        <time>2024-04-14T08:22:56Z</time>
      </trkpt>
      <trkpt lat="45.08123" lon="0.54059">
        <ele>95.2</ele>
        <time>2024-04-14T08:22:58Z</time>
      </trkpt>
      <trkpt lat="45.0812" lon="0.54062">
        <ele>95.5</ele>
        <time>2024-04-14T08:23:00Z</time>
      </trkpt>
      <trkpt lat="45.08118" lon="0.54067">
        <ele>95.7</ele>
        <time>2024-04-14T08:23:02Z</time>
      </trkpt>
      <trkpt lat="45.08115" lon="0.54071">
        <ele>96</ele>
        <time>2024-04-14T08:23:04Z</time>
      </trkpt>
      <trkpt lat="45.08113" lon="0.54074">
        <ele>96.2</ele>
        <time>2024-04-14T08:23:06Z</time>
      </trkpt>
      <trkpt lat="45.0811" lon="0.54079">
        <ele>96.5</ele>
        <time>2024-04-14T08:23:08Z</time>
      </trkpt>
      <trkpt lat="45.08107" lon="0.54082">
        <ele>96.7</ele>
        <time>2024-04-14T08:23:10Z</time>
      </trkpt>
      <trkpt lat="45.08104" lon="0.54085">
        <ele>97</ele>
        <time>2024-04-14T08:23:12Z</time>
      </trkpt>
      <trkpt lat="45.08103" lon="0.54087">
        <ele>97.1</ele>
        <time>2024-04-14T08:23:13Z</time>
      </trkpt>
      <trkpt lat="45.08101" lon="0.54088">
        <ele>97.2</ele>
        <time>2024-04-14T08:23:14Z</time>
      </trkpt>
      <trkpt lat="45.08098" lon="0.54092">
        <ele>97.5</ele>
        <time>2024-04-14T08:23:16Z</time>
      </trkpt>
      <trkpt lat="45.08095" lon="0.54096">
        <ele>97.8</ele>
        <time>2024-04-14T08:23:18Z</time>
      </trkpt>
      <trkpt lat="45.08091" lon="0.54099">
        <ele>98</ele>
        <time>2024-04-14T08:23:20Z</time>
      </trkpt>
      <trkpt lat="45.0809" lon="0.54101">
        <ele>98.2</ele>
        <time>2024-04-14T08:23:21Z</time>
      </trkpt>
      <trkpt lat="45.08088" lon="0.54103">
        <ele>98.3</ele>
        <time>2024-04-14T08:23:22Z</time>
      </trkpt>
      <trkpt lat="45.08084" lon="0.54107">
        <ele>98.6</ele>
        <time>2024-04-14T08:23:24Z</time>
      </trkpt>
      <trkpt lat="45.08081" lon="0.54111">
        <ele>98.9</ele>
        <time>2024-04-14T08:23:26Z</time>
      </trkpt>
      <trkpt lat="45.08079" lon="0.54113">
        <ele>99</ele>
        <time>2024-04-14T08:23:27Z</time>
      </trkpt>
      <trkpt lat="45.08077" lon="0.54115">
        <ele>99.2</ele>
        <time>2024-04-14T08:23:28Z</time>
      </trkpt>
      <trkpt lat="45.08073" lon="0.54118">
        <ele>99.4</ele>
        <time>2024-04-14T08:23:30Z</time>
      </trkpt>
      <trkpt lat="45.0807" lon="0.5412">
        <ele>99.7</ele>
        <time>2024-04-14T08:23:32Z</time>
      </trkpt>
      <trkpt lat="45.08067" lon="0.54122">
        <ele>99.9</ele>
        <time>2024-04-14T08:23:34Z</time>
      </trkpt>
      <trkpt lat="45.08065" lon="0.54122">
        <ele>100.1</ele>
        <time>2024-04-14T08:23:36Z</time>
      </trkpt>
      <trkpt lat="45.08062" lon="0.54124">
        <ele>100.2</ele>
        <time>2024-04-14T08:23:38Z</time>
      </trkpt>
      <trkpt lat="45.08059" lon="0.54126">
        <ele>100.5</ele>
        <time>2024-04-14T08:23:40Z</time>
      </trkpt>
      <trkpt lat="45.08058" lon="0.54127">
        <ele>100.6</ele>
        <time>2024-04-14T08:23:41Z</time>
      </trkpt>
      <trkpt lat="45.08056" lon="0.54127">
        <ele>100.7</ele>
        <time>2024-04-14T08:23:42Z</time>
      </trkpt>
      <trkpt lat="45.08054" lon="0.54129">
        <ele>100.8</ele>
        <time>2024-04-14T08:23:44Z</time>
      </trkpt>
      <trkpt lat="45.08052" lon="0.5413">
        <ele>101</ele>
        <time>2024-04-14T08:23:46Z</time>
      </trkpt>
      <trkpt lat="45.08051" lon="0.54131">
        <ele>101</ele>
        <time>2024-04-14T08:23:47Z</time>
      </trkpt>
      <trkpt lat="45.0805" lon="0.54132">
        <ele>101.1</ele>
        <time>2024-04-14T08:23:48Z</time>
      </trkpt>
      <trkpt lat="45.08048" lon="0.54134">
        <ele>101.3</ele>
        <time>2024-04-14T08:23:50Z</time>
      </trkpt>
      <trkpt lat="45.08046" lon="0.54136">
        <ele>101.5</ele>
        <time>2024-04-14T08:23:52Z</time>
      </trkpt>
      <trkpt lat="45.08044" lon="0.54139">
        <ele>101.7</ele>
        <time>2024-04-14T08:23:54Z</time>
      </trkpt>
      <trkpt lat="45.08041" lon="0.54141">
        <ele>101.9</ele>
        <time>2024-04-14T08:23:56Z</time>
      </trkpt>
      <trkpt lat="45.08038" lon="0.54142">
        <ele>102.1</ele>
        <time>2024-04-14T08:23:58Z</time>
      </trkpt>
      <trkpt lat="45.08037" lon="0.54143">
        <ele>102.1</ele>
        <time>2024-04-14T08:23:59Z</time>
      </trkpt>
      <trkpt lat="45.08036" lon="0.54144">
        <ele>102.2</ele>
        <time>2024-04-14T08:24:00Z</time>
      </trkpt>
      <trkpt lat="45.08034" lon="0.54145">
        <ele>102.3</ele>
        <time>2024-04-14T08:24:02Z</time>
      </trkpt>
      <trkpt lat="45.08033" lon="0.54145">
        <ele>102.4</ele>
        <time>2024-04-14T08:24:03Z</time>
      </trkpt>
      <trkpt lat="45.08032" lon="0.54146">
        <ele>102.5</ele>
        <time>2024-04-14T08:24:04Z</time>
      </trkpt>
      <trkpt lat="45.0803" lon="0.54147">
        <ele>102.6</ele>
        <time>2024-04-14T08:24:06Z</time>
      </trkpt>
      <trkpt lat="45.08028" lon="0.54149">
        <ele>102.8</ele>
        <time>2024-04-14T08:24:08Z</time>
      </trkpt>
      <trkpt lat="45.08027" lon="0.5415">
        <ele>102.9</ele>
        <time>2024-04-14T08:24:10Z</time>
      </trkpt>
      <trkpt lat="45.08025" lon="0.54152">
        <ele>103</ele>
        <time>2024-04-14T08:24:12Z</time>
      </trkpt>
      <trkpt lat="45.08024" lon="0.54154">
        <ele>103.2</ele>
        <time>2024-04-14T08:24:14Z</time>
      </trkpt>
      <trkpt lat="45.08022" lon="0.54155">
        <ele>103.3</ele>
        <time>2024-04-14T08:24:16Z</time>
      </trkpt>
      <trkpt lat="45.07957" lon="0.54218">
        <ele>113.4</ele>
        <time>2024-04-14T08:25:22Z</time>
      </trkpt>
      <trkpt lat="45.07954" lon="0.54221">
        <ele>113.6</ele>
        <time>2024-04-14T08:25:24Z</time>
      </trkpt>
      <trkpt lat="45.07951" lon="0.54224">
        <ele>113.9</ele>
        <time>2024-04-14T08:25:26Z</time>
      </trkpt>
      <trkpt lat="45.07949" lon="0.54228">
        <ele>114.1</ele>
        <time>2024-04-14T08:25:28Z</time>
      </trkpt>
      <trkpt lat="45.07947" lon="0.5423">
        <ele>114.4</ele>
        <time>2024-04-14T08:25:30Z</time>
      </trkpt>
      <trkpt lat="45.07945" lon="0.54231">
        <ele>114.5</ele>
        <time>2024-04-14T08:25:32Z</time>
      </trkpt>
      <trkpt lat="45.07943" lon="0.54232">
        <ele>114.7</ele>
        <time>2024-04-14T08:25:33Z</time>
      </trkpt>
      <trkpt lat="45.07941" lon="0.54232">
        <ele>114.9</ele>
        <time>2024-04-14T08:25:34Z</time>
      </trkpt>
      <trkpt lat="45.07938" lon="0.54233">
        <ele>115.1</ele>
        <time>2024-04-14T08:25:36Z</time>
      </trkpt>
      <trkpt lat="45.07936" lon="0.54234">
        <ele>115.2</ele>
        <time>2024-04-14T08:25:38Z</time>
      </trkpt>
      <trkpt lat="45.07935" lon="0.54234">
        <ele>115.4</ele>
        <time>2024-04-14T08:25:40Z</time>
      </trkpt>
      <trkpt lat="45.07934" lon="0.54235">
        <ele>115.5</ele>
        <time>2024-04-14T08:25:42Z</time>
      </trkpt>
      <trkpt lat="45.07933" lon="0.54236">
        <ele>115.5</ele>
        <time>2024-04-14T08:25:43Z</time>
      </trkpt>
      <trkpt lat="45.07932" lon="0.54237">
        <ele>115.6</ele>
        <time>2024-04-14T08:25:44Z</time>
      </trkpt>
      <trkpt lat="45.0793" lon="0.54238">
        <ele>115.9</ele>
        <time>2024-04-14T08:25:46Z</time>
      </trkpt>
      <trkpt lat="45.07928" lon="0.54239">
        <ele>116</ele>
        <time>2024-04-14T08:25:48Z</time>
      </trkpt>
      <trkpt lat="45.07926" lon="0.5424">
        <ele>116.3</ele>
        <time>2024-04-14T08:25:50Z</time>
      </trkpt>
      <trkpt lat="45.07923" lon="0.54241">
        <ele>116.5</ele>
        <time>2024-04-14T08:25:52Z</time>
      </trkpt>
      <trkpt lat="45.07921" lon="0.54241">
        <ele>116.7</ele>
        <time>2024-04-14T08:25:53Z</time>
      </trkpt>
      <trkpt lat="45.07919" lon="0.54242">
        <ele>116.9</ele>
        <time>2024-04-14T08:25:54Z</time>
      </trkpt>
      <trkpt lat="45.07916" lon="0.54245">
        <ele>117.2</ele>
        <time>2024-04-14T08:25:56Z</time>
      </trkpt>
      <trkpt lat="45.07914" lon="0.54248">
        <ele>117.5</ele>
        <time>2024-04-14T08:25:58Z</time>
      </trkpt>
      <trkpt lat="45.07912" lon="0.54248">
        <ele>117.6</ele>
        <time>2024-04-14T08:25:59Z</time>
      </trkpt>
      <trkpt lat="45.07911" lon="0.5425">
        <ele>117.8</ele>
        <time>2024-04-14T08:26:00Z</time>
      </trkpt>
      <trkpt lat="45.0791" lon="0.54252">
        <ele>117.9</ele>
        <time>2024-04-14T08:26:02Z</time>
      </trkpt>
      <trkpt lat="45.07687" lon="0.54443">
        <ele>145.1</ele>
        <time>2024-04-14T08:29:20Z</time>
      </trkpt>
      <trkpt lat="45.07685" lon="0.54445">
        <ele>145.3</ele>
        <time>2024-04-14T08:29:22Z</time>
      </trkpt>
      <trkpt lat="45.07684" lon="0.54447">
        <ele>145.5</ele>
        <time>2024-04-14T08:29:23Z</time>
      </trkpt>
      <trkpt lat="45.07683" lon="0.54448">
        <ele>145.6</ele>
        <time>2024-04-14T08:29:24Z</time>
      </trkpt>
      <trkpt lat="45.07683" lon="0.54449">
        <ele>145.7</ele>
        <time>2024-04-14T08:29:25Z</time>
      </trkpt>
      <trkpt lat="45.07682" lon="0.54449">
        <ele>145.8</ele>
        <time>2024-04-14T08:29:26Z</time>
      </trkpt>
      <trkpt lat="45.07681" lon="0.5445">
        <ele>145.9</ele>
        <time>2024-04-14T08:29:27Z</time>
      </trkpt>
      <trkpt lat="45.0768" lon="0.54451">
        <ele>146</ele>
        <time>2024-04-14T08:29:28Z</time>
      </trkpt>
      <trkpt lat="45.07679" lon="0.54453">
        <ele>146.2</ele>
        <time>2024-04-14T08:29:30Z</time>
      </trkpt>
      <trkpt lat="45.07677" lon="0.54455">
        <ele>146.5</ele>
        <time>2024-04-14T08:29:32Z</time>
      </trkpt>
      <trkpt lat="45.07675" lon="0.54457">
        <ele>146.8</ele>
        <time>2024-04-14T08:29:34Z</time>
      </trkpt>
      <trkpt lat="45.07673" lon="0.54458">
        <ele>146.9</ele>
        <time>2024-04-14T08:29:35Z</time>
      </trkpt>
      <trkpt lat="45.07672" lon="0.54459">
        <ele>147.1</ele>
        <time>2024-04-14T08:29:36Z</time>
      </trkpt>
      <trkpt lat="45.0767" lon="0.54462">
        <ele>147.4</ele>
        <time>2024-04-14T08:29:38Z</time>
      </trkpt>
      <trkpt lat="45.07667" lon="0.54466">
        <ele>147.7</ele>
        <time>2024-04-14T08:29:40Z</time>
      </trkpt>
      <trkpt lat="45.07665" lon="0.54471">
        <ele>148.1</ele>
        <time>2024-04-14T08:29:42Z</time>
      </trkpt>
      <trkpt lat="45.07662" lon="0.54475">
        <ele>148.5</ele>
        <time>2024-04-14T08:29:44Z</time>
      </trkpt>
      <trkpt lat="45.07661" lon="0.54477">
        <ele>148.6</ele>
        <time>2024-04-14T08:29:45Z</time>
      </trkpt>
      <trkpt lat="45.07659" lon="0.54478">
        <ele>148.8</ele>
        <time>2024-04-14T08:29:46Z</time>
      </trkpt>
      <trkpt lat="45.07658" lon="0.5448">
        <ele>148.9</ele>
        <time>2024-04-14T08:29:47Z</time>
      </trkpt>
      <trkpt lat="45.07657" lon="0.54482">
        <ele>149.1</ele>
        <time>2024-04-14T08:29:48Z</time>
      </trkpt>
      <trkpt lat="45.07655" lon="0.54486">
        <ele>149.3</ele>
        <time>2024-04-14T08:29:50Z</time>
      </trkpt>
      <trkpt lat="45.07652" lon="0.54488">
        <ele>149.6</ele>
        <time>2024-04-14T08:29:52Z</time>
      </trkpt>
      <trkpt lat="45.07649" lon="0.54491">
        <ele>149.9</ele>
        <time>2024-04-14T08:29:54Z</time>
      </trkpt>
      <trkpt lat="45.07646" lon="0.54494">
        <ele>150.2</ele>
        <time>2024-04-14T08:29:56Z</time>
      </trkpt>
      <trkpt lat="45.07643" lon="0.54495">
        <ele>150.4</ele>
        <time>2024-04-14T08:29:58Z</time>
      </trkpt>
      <trkpt lat="45.07642" lon="0.54495">
        <ele>150.6</ele>
        <time>2024-04-14T08:30:00Z</time>
      </trkpt>
      <trkpt lat="45.0764" lon="0.54496">
        <ele>150.7</ele>
        <time>2024-04-14T08:30:01Z</time>
      </trkpt>
      <trkpt lat="45.07639" lon="0.54498">
        <ele>150.9</ele>
        <time>2024-04-14T08:30:02Z</time>
      </trkpt>
      <trkpt lat="45.07635" lon="0.54501">
        <ele>151.3</ele>
        <time>2024-04-14T08:30:04Z</time>
      </trkpt>
      <trkpt lat="45.07634" lon="0.54503">
        <ele>151.4</ele>
        <time>2024-04-14T08:30:05Z</time>
      </trkpt>
      <trkpt lat="45.07633" lon="0.54504">
        <ele>151.5</ele>
        <time>2024-04-14T08:30:06Z</time>
      </trkpt>
      <trkpt lat="45.0763" lon="0.54509">
        <ele>151.9</ele>
        <time>2024-04-14T08:30:08Z</time>
      </trkpt>
      <trkpt lat="45.0763" lon="0.5451">
        <ele>152</ele>
        <time>2024-04-14T08:30:09Z</time>
      </trkpt>
      <trkpt lat="45.07629" lon="0.54512">
        <ele>152.1</ele>
        <time>2024-04-14T08:30:10Z</time>
      </trkpt>
      <trkpt lat="45.07627" lon="0.54515">
        <ele>152.4</ele>
        <time>2024-04-14T08:30:12Z</time>
      </trkpt>
      <trkpt lat="45.07626" lon="0.54518">
        <ele>152.6</ele>
        <time>2024-04-14T08:30:14Z</time>
      </trkpt>
      <trkpt lat="45.07622" lon="0.54522">
        <ele>152.9</ele>
        <time>2024-04-14T08:30:16Z</time>
      </trkpt>
      <trkpt lat="45.07619" lon="0.54525">
        <ele>153.2</ele>
        <time>2024-04-14T08:30:18Z</time>
      </trkpt>
      <trkpt lat="45.07616" lon="0.5453">
        <ele>153.5</ele>
        <time>2024-04-14T08:30:20Z</time>
      </trkpt>
      <trkpt lat="45.07612" lon="0.54535">
        <ele>153.9</ele>
        <time>2024-04-14T08:30:22Z</time>
      </trkpt>
      <trkpt lat="45.07609" lon="0.5454">
        <ele>154.2</ele>
        <time>2024-04-14T08:30:24Z</time>
      </trkpt>
      <trkpt lat="45.07606" lon="0.54545">
        <ele>154.6</ele>
        <time>2024-04-14T08:30:26Z</time>
      </trkpt>
      <trkpt lat="45.07604" lon="0.54548">
        <ele>154.8</ele>
        <time>2024-04-14T08:30:28Z</time>
      </trkpt>
      <trkpt lat="45.07602" lon="0.54552">
        <ele>155</ele>
        <time>2024-04-14T08:30:30Z</time>
      </trkpt>
      <trkpt lat="45.07598" lon="0.54555">
        <ele>155.3</ele>
        <time>2024-04-14T08:30:32Z</time>
      </trkpt>
      <trkpt lat="45.07595" lon="0.54561">
        <ele>155.7</ele>
        <time>2024-04-14T08:30:34Z</time>
      </trkpt>
      <trkpt lat="45.07592" lon="0.54566">
        <ele>156</ele>
        <time>2024-04-14T08:30:36Z</time>
      </trkpt>
      <trkpt lat="45.07591" lon="0.54568">
        <ele>156.1</ele>
        <time>2024-04-14T08:30:37Z</time>
      </trkpt>
      <trkpt lat="45.0759" lon="0.5457">
        <ele>156.2</ele>
        <time>2024-04-14T08:30:38Z</time>
      </trkpt>
      <trkpt lat="45.07586" lon="0.54575">
        <ele>156.6</ele>
        <time>2024-04-14T08:30:40Z</time>
      </trkpt>
      <trkpt lat="45.07585" lon="0.54578">
        <ele>156.8</ele>
        <time>2024-04-14T08:30:41Z</time>
      </trkpt>
      <trkpt lat="45.07583" lon="0.54581">
        <ele>157</ele>
        <time>2024-04-14T08:30:42Z</time>
      </trkpt>
      <trkpt lat="45.07579" lon="0.54586">
        <ele>157.5</ele>
        <time>2024-04-14T08:30:44Z</time>
      </trkpt>
      <trkpt lat="45.07575" lon="0.5459">
        <ele>157.8</ele>
        <time>2024-04-14T08:30:46Z</time>
      </trkpt>
      <trkpt lat="45.07574" lon="0.54592">
        <ele>158</ele>
        <time>2024-04-14T08:30:47Z</time>
      </trkpt>
      <trkpt lat="45.07572" lon="0.54593">
        <ele>158.1</ele>
        <time>2024-04-14T08:30:48Z</time>
      </trkpt>
      <trkpt lat="45.07525" lon="0.54624">
        <ele>165.7</ele>
        <time>2024-04-14T08:32:44Z</time>
      </trkpt>
      <trkpt lat="45.07521" lon="0.54625">
        <ele>166.2</ele>
        <time>2024-04-14T08:32:46Z</time>
      </trkpt>
      <trkpt lat="45.0752" lon="0.54627">
        <ele>166.5</ele>
        <time>2024-04-14T08:32:47Z</time>
      </trkpt>
      <trkpt lat="45.07518" lon="0.54627">
        <ele>166.9</ele>
        <time>2024-04-14T08:32:48Z</time>
      </trkpt>
      <trkpt lat="45.07514" lon="0.5463">
        <ele>167.4</ele>
        <time>2024-04-14T08:32:50Z</time>
      </trkpt>
      <trkpt lat="45.07512" lon="0.5463">
        <ele>167.9</ele>
        <time>2024-04-14T08:32:51Z</time>
      </trkpt>
      <trkpt lat="45.07509" lon="0.54632">
        <ele>168.2</ele>
        <time>2024-04-14T08:32:52Z</time>
      </trkpt>
      <trkpt lat="45.07504" lon="0.54634">
        <ele>168.7</ele>
        <time>2024-04-14T08:32:54Z</time>
      </trkpt>
      <trkpt lat="45.07501" lon="0.54635">
        <ele>169.1</ele>
        <time>2024-04-14T08:32:55Z</time>
      </trkpt>
      <trkpt lat="45.07499" lon="0.54635">
        <ele>169.6</ele>
        <time>2024-04-14T08:32:56Z</time>
      </trkpt>
      <trkpt lat="45.07494" lon="0.54638">
        <ele>170.2</ele>
        <time>2024-04-14T08:32:58Z</time>
      </trkpt>
      <trkpt lat="45.07492" lon="0.54639">
        <ele>170.5</ele>
        <time>2024-04-14T08:32:59Z</time>
      </trkpt>
      <trkpt lat="45.07489" lon="0.5464">
        <ele>171</ele>
        <time>2024-04-14T08:33:00Z</time>
      </trkpt>
      <trkpt lat="45.07486" lon="0.54641">
        <ele>171.4</ele>
        <time>2024-04-14T08:33:02Z</time>
      </trkpt>
      <trkpt lat="45.07482" lon="0.54643">
        <ele>172</ele>
        <time>2024-04-14T08:33:04Z</time>
      </trkpt>
      <trkpt lat="45.07478" lon="0.54646">
        <ele>172.5</ele>
        <time>2024-04-14T08:33:06Z</time>
      </trkpt>
      <trkpt lat="45.07477" lon="0.54647">
        <ele>172.8</ele>
        <time>2024-04-14T08:33:07Z</time>
      </trkpt>
      <trkpt lat="45.07475" lon="0.54648">
        <ele>173.3</ele>
        <time>2024-04-14T08:33:08Z</time>
      </trkpt>
      <trkpt lat="45.07471" lon="0.5465">
        <ele>173.9</ele>
        <time>2024-04-14T08:33:10Z</time>
      </trkpt>
      <trkpt lat="45.07469" lon="0.54651">
        <ele>174.5</ele>
        <time>2024-04-14T08:33:11Z</time>
      </trkpt>
      <trkpt lat="45.07466" lon="0.54652">
        <ele>175</ele>
        <time>2024-04-14T08:33:12Z</time>
      </trkpt>
      <trkpt lat="45.07464" lon="0.54653">
        <ele>175.6</ele>
        <time>2024-04-14T08:33:13Z</time>
      </trkpt>
      <trkpt lat="45.07462" lon="0.54654">
        <ele>176</ele>
        <time>2024-04-14T08:33:14Z</time>
      </trkpt>
      <trkpt lat="45.07457" lon="0.54658">
        <ele>176.8</ele>
        <time>2024-04-14T08:33:16Z</time>
      </trkpt>
      <trkpt lat="45.07454" lon="0.54659">
        <ele>177.3</ele>
        <time>2024-04-14T08:33:17Z</time>
      </trkpt>
      <trkpt lat="45.07453" lon="0.5466">
        <ele>177.7</ele>
        <time>2024-04-14T08:33:18Z</time>
      </trkpt>
      <trkpt lat="45.07451" lon="0.54668">
        <ele>177.9</ele>
        <time>2024-04-14T08:33:20Z</time>
      </trkpt>
      <trkpt lat="45.0745" lon="0.54674">
        <ele>177.8</ele>
        <time>2024-04-14T08:33:21Z</time>
      </trkpt>
      <trkpt lat="45.07449" lon="0.54678">
        <ele>177.6</ele>
        <time>2024-04-14T08:33:22Z</time>
      </trkpt>
      <trkpt lat="45.07446" lon="0.54689">
        <ele>177.3</ele>
        <time>2024-04-14T08:33:24Z</time>
      </trkpt>
      <trkpt lat="45.07439" lon="0.54702">
        <ele>176.9</ele>
        <time>2024-04-14T08:33:26Z</time>
      </trkpt>
      <trkpt lat="45.07436" lon="0.54709">
        <ele>176.7</ele>
        <time>2024-04-14T08:33:27Z</time>
      </trkpt>
      <trkpt lat="45.07433" lon="0.54717">
        <ele>176.5</ele>
        <time>2024-04-14T08:33:28Z</time>
      </trkpt>
      <trkpt lat="45.07431" lon="0.54725">
        <ele>176.4</ele>
        <time>2024-04-14T08:33:29Z</time>
      </trkpt>
      <trkpt lat="45.07429" lon="0.54732">
        <ele>176.3</ele>
        <time>2024-04-14T08:33:30Z</time>
      </trkpt>
      <trkpt lat="45.07428" lon="0.54741">
        <ele>176.4</ele>
        <time>2024-04-14T08:33:31Z</time>
      </trkpt>
      <trkpt lat="45.07428" lon="0.54747">
        <ele>176.4</ele>
        <time>2024-04-14T08:33:32Z</time>
      </trkpt>
      <trkpt lat="45.07428" lon="0.54761">
        <ele>176.7</ele>
        <time>2024-04-14T08:33:34Z</time>
      </trkpt>
      <trkpt lat="45.07426" lon="0.54774">
        <ele>177</ele>
        <time>2024-04-14T08:33:36Z</time>
      </trkpt>
      <trkpt lat="45.07421" lon="0.54785">
        <ele>177.7</ele>
        <time>2024-04-14T08:33:38Z</time>
      </trkpt>
      <trkpt lat="45.07423" lon="0.54792">
        <ele>178.3</ele>
        <time>2024-04-14T08:33:40Z</time>
      </trkpt>
      <trkpt lat="45.07423" lon="0.54797">
        <ele>178.8</ele>
        <time>2024-04-14T08:33:41Z</time>
      </trkpt>
      <trkpt lat="45.07423" lon="0.548">
        <ele>179</ele>
        <time>2024-04-14T08:33:42Z</time>
      </trkpt>
      <trkpt lat="45.0742" lon="0.54805">
        <ele>179.7</ele>
        <time>2024-04-14T08:33:44Z</time>
      </trkpt>
      <trkpt lat="45.0742" lon="0.54808">
        <ele>180</ele>
        <time>2024-04-14T08:33:45Z</time>
      </trkpt>
      <trkpt lat="45.07419" lon="0.54811">
        <ele>180.2</ele>
        <time>2024-04-14T08:33:46Z</time>
      </trkpt>
      <trkpt lat="45.07418" lon="0.54814">
        <ele>180.5</ele>
        <time>2024-04-14T08:33:47Z</time>
      </trkpt>
      <trkpt lat="45.07418" lon="0.54816">
        <ele>180.7</ele>
        <time>2024-04-14T08:33:48Z</time>
      </trkpt>
      <trkpt lat="45.07416" lon="0.54821">
        <ele>181.1</ele>
        <time>2024-04-14T08:33:50Z</time>
      </trkpt>
      <trkpt lat="45.07416" lon="0.54821">
        <ele>181.1</ele>
        <time>2024-04-14T08:33:51Z</time>
      </trkpt>
      <trkpt lat="45.07416" lon="0.54824">
        <ele>181.2</ele>
        <time>2024-04-14T08:33:52Z</time>
      </trkpt>
      <trkpt lat="45.07415" lon="0.54827">
        <ele>181.4</ele>
        <time>2024-04-14T08:33:53Z</time>
      </trkpt>
      <trkpt lat="45.07414" lon="0.5483">
        <ele>181.5</ele>
        <time>2024-04-14T08:33:54Z</time>
      </trkpt>
      <trkpt lat="45.07412" lon="0.54837">
        <ele>181.8</ele>
        <time>2024-04-14T08:33:56Z</time>
      </trkpt>
      <trkpt lat="45.07412" lon="0.54841">
        <ele>182</ele>
        <time>2024-04-14T08:33:57Z</time>
      </trkpt>
      <trkpt lat="45.07412" lon="0.54844">
        <ele>182.2</ele>
        <time>2024-04-14T08:33:58Z</time>
      </trkpt>
      <trkpt lat="45.07412" lon="0.54847">
        <ele>182.3</ele>
        <time>2024-04-14T08:33:59Z</time>
      </trkpt>
      <trkpt lat="45.07414" lon="0.5485">
        <ele>182.6</ele>
        <time>2024-04-14T08:34:00Z</time>
      </trkpt>
      <trkpt lat="45.07416" lon="0.54856">
        <ele>183</ele>
        <time>2024-04-14T08:34:02Z</time>
      </trkpt>
      <trkpt lat="45.07417" lon="0.54858">
        <ele>183.2</ele>
        <time>2024-04-14T08:34:03Z</time>
      </trkpt>
      <trkpt lat="45.07419" lon="0.5486">
        <ele>183.4</ele>
        <time>2024-04-14T08:34:04Z</time>
      </trkpt>
      <trkpt lat="45.07421" lon="0.54864">
        <ele>183.7</ele>
        <time>2024-04-14T08:34:06Z</time>
      </trkpt>
      <trkpt lat="45.07424" lon="0.54867">
        <ele>184</ele>
        <time>2024-04-14T08:34:08Z</time>
      </trkpt>
      <trkpt lat="45.07428" lon="0.5487">
        <ele>184.4</ele>
        <time>2024-04-14T08:34:10Z</time>
      </trkpt>
      <trkpt lat="45.07432" lon="0.54871">
        <ele>184.7</ele>
        <time>2024-04-14T08:34:12Z</time>
      </trkpt>
      <trkpt lat="45.07436" lon="0.54872">
        <ele>185.1</ele>
        <time>2024-04-14T08:34:14Z</time>
      </trkpt>
      <trkpt lat="45.0744" lon="0.54875">
        <ele>185.4</ele>
        <time>2024-04-14T08:34:16Z</time>
      </trkpt>
      <trkpt lat="45.07444" lon="0.54876">
        <ele>185.7</ele>
        <time>2024-04-14T08:34:18Z</time>
      </trkpt>
      <trkpt lat="45.07448" lon="0.54878">
        <ele>185.9</ele>
        <time>2024-04-14T08:34:20Z</time>
      </trkpt>
      <trkpt lat="45.0745" lon="0.54879">
        <ele>186</ele>
        <time>2024-04-14T08:34:21Z</time>
      </trkpt>
      <trkpt lat="45.07452" lon="0.5488">
        <ele>186.1</ele>
        <time>2024-04-14T08:34:22Z</time>
      </trkpt>
      <trkpt lat="45.07458" lon="0.54883">
        <ele>186.3</ele>
        <time>2024-04-14T08:34:24Z</time>
      </trkpt>
      <trkpt lat="45.07462" lon="0.54884">
        <ele>186.4</ele>
        <time>2024-04-14T08:34:26Z</time>
      </trkpt>
      <trkpt lat="45.07466" lon="0.54887">
        <ele>186.5</ele>
        <time>2024-04-14T08:34:28Z</time>
      </trkpt>
      <trkpt lat="45.07471" lon="0.5489">
        <ele>186.5</ele>
        <time>2024-04-14T08:34:30Z</time>
      </trkpt>
      <trkpt lat="45.07475" lon="0.54892">
        <ele>186.5</ele>
        <time>2024-04-14T08:34:32Z</time>
      </trkpt>
      <trkpt lat="45.07478" lon="0.54893">
        <ele>186.5</ele>
        <time>2024-04-14T08:34:33Z</time>
      </trkpt>
      <trkpt lat="45.0748" lon="0.54894">
        <ele>186.5</ele>
        <time>2024-04-14T08:34:34Z</time>
      </trkpt>
      <trkpt lat="45.07486" lon="0.54896">
        <ele>186.6</ele>
        <time>2024-04-14T08:34:36Z</time>
      </trkpt>
      <trkpt lat="45.07491" lon="0.54898">
        <ele>186.6</ele>
        <time>2024-04-14T08:34:38Z</time>
      </trkpt>
      <trkpt lat="45.07494" lon="0.54902">
        <ele>186.5</ele>
        <time>2024-04-14T08:34:40Z</time>
      </trkpt>
      <trkpt lat="45.07496" lon="0.54904">
        <ele>186.5</ele>
        <time>2024-04-14T08:34:42Z</time>
      </trkpt>
      <trkpt lat="45.075" lon="0.54906">
        <ele>186.5</ele>
        <time>2024-04-14T08:34:43Z</time>
      </trkpt>
      <trkpt lat="45.07504" lon="0.54907">
        <ele>186.5</ele>
        <time>2024-04-14T08:34:44Z</time>
      </trkpt>
      <trkpt lat="45.07509" lon="0.54911">
        <ele>186.5</ele>
        <time>2024-04-14T08:34:46Z</time>
      </trkpt>
      <trkpt lat="45.07513" lon="0.54914">
        <ele>186.5</ele>
        <time>2024-04-14T08:34:48Z</time>
      </trkpt>
      <trkpt lat="45.07516" lon="0.54916">
        <ele>186.6</ele>
        <time>2024-04-14T08:34:49Z</time>
      </trkpt>
      <trkpt lat="45.07518" lon="0.54917">
        <ele>186.6</ele>
        <time>2024-04-14T08:34:50Z</time>
      </trkpt>
      <trkpt lat="45.07524" lon="0.5492">
        <ele>186.6</ele>
        <time>2024-04-14T08:34:52Z</time>
      </trkpt>
      <trkpt lat="45.07529" lon="0.54921">
        <ele>186.7</ele>
        <time>2024-04-14T08:34:54Z</time>
      </trkpt>
      <trkpt lat="45.07534" lon="0.54923">
        <ele>186.7</ele>
        <time>2024-04-14T08:34:56Z</time>
      </trkpt>
      <trkpt lat="45.07538" lon="0.54925">
        <ele>186.8</ele>
        <time>2024-04-14T08:34:58Z</time>
      </trkpt>
      <trkpt lat="45.07541" lon="0.54926">
        <ele>186.8</ele>
        <time>2024-04-14T08:34:59Z</time>
      </trkpt>
      <trkpt lat="45.07543" lon="0.54926">
        <ele>186.8</ele>
        <time>2024-04-14T08:35:00Z</time>
      </trkpt>
      <trkpt lat="45.07548" lon="0.54928">
        <ele>186.9</ele>
        <time>2024-04-14T08:35:02Z</time>
      </trkpt>
      <trkpt lat="45.07553" lon="0.5493">
        <ele>186.9</ele>
        <time>2024-04-14T08:35:04Z</time>
      </trkpt>
      <trkpt lat="45.07559" lon="0.54931">
        <ele>187</ele>
        <time>2024-04-14T08:35:06Z</time>
      </trkpt>
      <trkpt lat="45.07563" lon="0.54933">
        <ele>187.2</ele>
        <time>2024-04-14T08:35:08Z</time>
      </trkpt>
      <trkpt lat="45.07566" lon="0.54934">
        <ele>187.3</ele>
        <time>2024-04-14T08:35:09Z</time>
      </trkpt>
      <trkpt lat="45.07568" lon="0.54935">
        <ele>187.4</ele>
        <time>2024-04-14T08:35:10Z</time>
      </trkpt>
      <trkpt lat="45.07571" lon="0.5494">
        <ele>187.6</ele>
        <time>2024-04-14T08:35:12Z</time>
      </trkpt>
      <trkpt lat="45.07575" lon="0.54946">
        <ele>187.8</ele>
        <time>2024-04-14T08:35:14Z</time>
      </trkpt>
      <trkpt lat="45.07576" lon="0.54948">
        <ele>188</ele>
        <time>2024-04-14T08:35:15Z</time>
      </trkpt>
      <trkpt lat="45.07576" lon="0.54951">
        <ele>188.1</ele>
        <time>2024-04-14T08:35:16Z</time>
      </trkpt>
      <trkpt lat="45.07579" lon="0.54958">
        <ele>188.4</ele>
        <time>2024-04-14T08:35:18Z</time>
      </trkpt>
      <trkpt lat="45.0758" lon="0.54964">
        <ele>188.7</ele>
        <time>2024-04-14T08:35:20Z</time>
      </trkpt>
      <trkpt lat="45.07581" lon="0.54967">
        <ele>188.8</ele>
        <time>2024-04-14T08:35:21Z</time>
      </trkpt>
      <trkpt lat="45.07581" lon="0.54971">
        <ele>189</ele>
        <time>2024-04-14T08:35:22Z</time>
      </trkpt>
      <trkpt lat="45.0758" lon="0.54973">
        <ele>189.1</ele>
        <time>2024-04-14T08:35:23Z</time>
      </trkpt>
      <trkpt lat="45.0758" lon="0.54975">
        <ele>189.2</ele>
        <time>2024-04-14T08:35:24Z</time>
      </trkpt>
      <trkpt lat="45.07578" lon="0.54979">
        <ele>189.4</ele>
        <time>2024-04-14T08:35:26Z</time>
      </trkpt>
      <trkpt lat="45.07575" lon="0.54982">
        <ele>189.6</ele>
        <time>2024-04-14T08:35:28Z</time>
      </trkpt>
      <trkpt lat="45.07574" lon="0.54984">
        <ele>189.7</ele>
        <time>2024-04-14T08:35:29Z</time>
      </trkpt>
      <trkpt lat="45.07573" lon="0.54985">
        <ele>189.7</ele>
        <time>2024-04-14T08:35:30Z</time>
      </trkpt>
      <trkpt lat="45.07571" lon="0.54988">
        <ele>189.9</ele>
        <time>2024-04-14T08:35:32Z</time>
      </trkpt>
      <trkpt lat="45.07568" lon="0.5499">
        <ele>190.1</ele>
        <time>2024-04-14T08:35:34Z</time>
      </trkpt>
      <trkpt lat="45.07566" lon="0.54991">
        <ele>190.2</ele>
        <time>2024-04-14T08:35:35Z</time>
      </trkpt>
      <trkpt lat="45.07564" lon="0.54992">
        <ele>190.3</ele>
        <time>2024-04-14T08:35:36Z</time>
      </trkpt>
      <trkpt lat="45.0756" lon="0.54993">
        <ele>190.6</ele>
        <time>2024-04-14T08:35:38Z</time>
      </trkpt>
      <trkpt lat="45.07556" lon="0.54992">
        <ele>190.7</ele>
        <time>2024-04-14T08:35:40Z</time>
      </trkpt>
      <trkpt lat="45.07555" lon="0.54992">
        <ele>190.8</ele>
        <time>2024-04-14T08:35:41Z</time>
      </trkpt>
      <trkpt lat="45.07552" lon="0.54993">
        <ele>191</ele>
        <time>2024-04-14T08:35:42Z</time>
      </trkpt>
      <trkpt lat="45.07549" lon="0.54994">
        <ele>191.2</ele>
        <time>2024-04-14T08:35:44Z</time>
      </trkpt>
      <trkpt lat="45.07545" lon="0.54996">
        <ele>191.5</ele>
        <time>2024-04-14T08:35:46Z</time>
      </trkpt>
      <trkpt lat="45.07541" lon="0.54997">
        <ele>191.8</ele>
        <time>2024-04-14T08:35:48Z</time>
      </trkpt>
      <trkpt lat="45.07537" lon="0.54998">
        <ele>192</ele>
        <time>2024-04-14T08:35:50Z</time>
      </trkpt>
      <trkpt lat="45.07534" lon="0.54998">
        <ele>192.2</ele>
        <time>2024-04-14T08:35:52Z</time>
      </trkpt>
      <trkpt lat="45.0753" lon="0.55">
        <ele>192.5</ele>
        <time>2024-04-14T08:35:54Z</time>
      </trkpt>
      <trkpt lat="45.07526" lon="0.55">
        <ele>192.7</ele>
        <time>2024-04-14T08:35:56Z</time>
      </trkpt>
      <trkpt lat="45.07521" lon="0.55001">
        <ele>193</ele>
        <time>2024-04-14T08:35:58Z</time>
      </trkpt>
      <trkpt lat="45.07516" lon="0.55003">
        <ele>193.4</ele>
        <time>2024-04-14T08:36:00Z</time>
      </trkpt>
      <trkpt lat="45.07512" lon="0.55004">
        <ele>193.7</ele>
        <time>2024-04-14T08:36:02Z</time>
      </trkpt>
      <trkpt lat="45.07507" lon="0.55006">
        <ele>194</ele>
        <time>2024-04-14T08:36:04Z</time>
      </trkpt>
      <trkpt lat="45.07502" lon="0.55007">
        <ele>194.4</ele>
        <time>2024-04-14T08:36:06Z</time>
      </trkpt>
      <trkpt lat="45.07498" lon="0.55008">
        <ele>194.7</ele>
        <time>2024-04-14T08:36:08Z</time>
      </trkpt>
      <trkpt lat="45.07494" lon="0.55013">
        <ele>195.4</ele>
        <time>2024-04-14T08:36:10Z</time>
      </trkpt>
      <trkpt lat="45.07492" lon="0.55019">
        <ele>195.7</ele>
        <time>2024-04-14T08:36:12Z</time>
      </trkpt>
      <trkpt lat="45.07492" lon="0.55027">
        <ele>196</ele>
        <time>2024-04-14T08:36:14Z</time>
      </trkpt>
      <trkpt lat="45.07493" lon="0.55034">
        <ele>196.3</ele>
        <time>2024-04-14T08:36:16Z</time>
      </trkpt>
      <trkpt lat="45.07495" lon="0.55041">
        <ele>196.5</ele>
        <time>2024-04-14T08:36:18Z</time>
      </trkpt>
      <trkpt lat="45.07496" lon="0.55048">
        <ele>196.8</ele>
        <time>2024-04-14T08:36:20Z</time>
      </trkpt>
      <trkpt lat="45.07496" lon="0.55053">
        <ele>197</ele>
        <time>2024-04-14T08:36:22Z</time>
      </trkpt>
      <trkpt lat="45.07496" lon="0.55059">
        <ele>197.2</ele>
        <time>2024-04-14T08:36:24Z</time>
      </trkpt>
      <trkpt lat="45.07498" lon="0.55064">
        <ele>197.5</ele>
        <time>2024-04-14T08:36:26Z</time>
      </trkpt>
      <trkpt lat="45.07499" lon="0.5507">
        <ele>197.7</ele>
        <time>2024-04-14T08:36:28Z</time>
      </trkpt>
      <trkpt lat="45.075" lon="0.55076">
        <ele>197.9</ele>
        <time>2024-04-14T08:36:30Z</time>
      </trkpt>
      <trkpt lat="45.07501" lon="0.5508">
        <ele>198</ele>
        <time>2024-04-14T08:36:32Z</time>
      </trkpt>
      <trkpt lat="45.07501" lon="0.55082">
        <ele>198.1</ele>
        <time>2024-04-14T08:36:33Z</time>
      </trkpt>
      <trkpt lat="45.07501" lon="0.55083">
        <ele>198.1</ele>
        <time>2024-04-14T08:36:34Z</time>
      </trkpt>
      <trkpt lat="45.07501" lon="0.55083">
        <ele>198.1</ele>
        <time>2024-04-14T08:36:35Z</time>
      </trkpt>
      <trkpt lat="45.07487" lon="0.55097">
        <ele>198.7</ele>
        <time>2024-04-14T08:42:39Z</time>
      </trkpt>
      <trkpt lat="45.07485" lon="0.55098">
        <ele>198.7</ele>
        <time>2024-04-14T08:42:40Z</time>
      </trkpt>
      <trkpt lat="45.07481" lon="0.55099">
        <ele>198.9</ele>
        <time>2024-04-14T08:42:42Z</time>
      </trkpt>
      <trkpt lat="45.07476" lon="0.55101">
        <ele>199</ele>
        <time>2024-04-14T08:42:44Z</time>
      </trkpt>
      <trkpt lat="45.07472" lon="0.55101">
        <ele>199.2</ele>
        <time>2024-04-14T08:42:46Z</time>
      </trkpt>
      <trkpt lat="45.07467" lon="0.55104">
        <ele>199.3</ele>
        <time>2024-04-14T08:42:48Z</time>
      </trkpt>
      <trkpt lat="45.07463" lon="0.55106">
        <ele>199.5</ele>
        <time>2024-04-14T08:42:50Z</time>
      </trkpt>
      <trkpt lat="45.07458" lon="0.55108">
        <ele>199.6</ele>
        <time>2024-04-14T08:42:52Z</time>
      </trkpt>
      <trkpt lat="45.07453" lon="0.55109">
        <ele>199.8</ele>
        <time>2024-04-14T08:42:54Z</time>
      </trkpt>
      <trkpt lat="45.07448" lon="0.55111">
        <ele>200</ele>
        <time>2024-04-14T08:42:56Z</time>
      </trkpt>
      <trkpt lat="45.07442" lon="0.55112">
        <ele>200.2</ele>
        <time>2024-04-14T08:42:58Z</time>
      </trkpt>
      <trkpt lat="45.07439" lon="0.55113">
        <ele>200.3</ele>
        <time>2024-04-14T08:42:59Z</time>
      </trkpt>
      <trkpt lat="45.07436" lon="0.55115">
        <ele>200.5</ele>
        <time>2024-04-14T08:43:00Z</time>
      </trkpt>
      <trkpt lat="45.07429" lon="0.55116">
        <ele>200.7</ele>
        <time>2024-04-14T08:43:02Z</time>
      </trkpt>
      <trkpt lat="45.07424" lon="0.55117">
        <ele>200.9</ele>
        <time>2024-04-14T08:43:04Z</time>
      </trkpt>
      <trkpt lat="45.07417" lon="0.55118">
        <ele>201.1</ele>
        <time>2024-04-14T08:43:06Z</time>
      </trkpt>
      <trkpt lat="45.07415" lon="0.55118">
        <ele>201.2</ele>
        <time>2024-04-14T08:43:07Z</time>
      </trkpt>
      <trkpt lat="45.07413" lon="0.55118">
        <ele>201.2</ele>
        <time>2024-04-14T08:43:08Z</time>
      </trkpt>
      <trkpt lat="45.07407" lon="0.55119">
        <ele>201.4</ele>
        <time>2024-04-14T08:43:10Z</time>
      </trkpt>
      <trkpt lat="45.07404" lon="0.55121">
        <ele>201.5</ele>
        <time>2024-04-14T08:43:11Z</time>
      </trkpt>
      <trkpt lat="45.074" lon="0.55123">
        <ele>201.6</ele>
        <time>2024-04-14T08:43:12Z</time>
      </trkpt>
      <trkpt lat="45.07392" lon="0.55127">
        <ele>201.8</ele>
        <time>2024-04-14T08:43:14Z</time>
      </trkpt>
      <trkpt lat="45.07385" lon="0.55131">
        <ele>201.9</ele>
        <time>2024-04-14T08:43:16Z</time>
      </trkpt>
      <trkpt lat="45.0738" lon="0.55134">
        <ele>202.1</ele>
        <time>2024-04-14T08:43:18Z</time>
      </trkpt>
      <trkpt lat="45.07375" lon="0.55138">
        <ele>202.2</ele>
        <time>2024-04-14T08:43:20Z</time>
      </trkpt>
      <trkpt lat="45.07371" lon="0.55142">
        <ele>202.2</ele>
        <time>2024-04-14T08:43:21Z</time>
      </trkpt>
      <trkpt lat="45.07369" lon="0.55146">
        <ele>202.3</ele>
        <time>2024-04-14T08:43:22Z</time>
      </trkpt>
      <trkpt lat="45.07367" lon="0.55151">
        <ele>202.3</ele>
        <time>2024-04-14T08:43:23Z</time>
      </trkpt>
      <trkpt lat="45.07364" lon="0.55155">
        <ele>202.4</ele>
        <time>2024-04-14T08:43:24Z</time>
      </trkpt>
      <trkpt lat="45.07362" lon="0.55158">
        <ele>202.4</ele>
        <time>2024-04-14T08:43:25Z</time>
      </trkpt>
      <trkpt lat="45.0736" lon="0.55163">
        <ele>202.4</ele>
        <time>2024-04-14T08:43:26Z</time>
      </trkpt>
      <trkpt lat="45.07354" lon="0.55174">
        <ele>202.4</ele>
        <time>2024-04-14T08:43:28Z</time>
      </trkpt>
      <trkpt lat="45.07351" lon="0.5518">
        <ele>202.4</ele>
        <time>2024-04-14T08:43:29Z</time>
      </trkpt>
      <trkpt lat="45.07348" lon="0.55186">
        <ele>202.3</ele>
        <time>2024-04-14T08:43:30Z</time>
      </trkpt>
      <trkpt lat="45.07344" lon="0.55195">
        <ele>202.2</ele>
        <time>2024-04-14T08:43:32Z</time>
      </trkpt>
      <trkpt lat="45.07342" lon="0.552">
        <ele>202.2</ele>
        <time>2024-04-14T08:43:33Z</time>
      </trkpt>
      <trkpt lat="45.07339" lon="0.55206">
        <ele>202.1</ele>
        <time>2024-04-14T08:43:34Z</time>
      </trkpt>
      <trkpt lat="45.07334" lon="0.55219">
        <ele>202</ele>
        <time>2024-04-14T08:43:36Z</time>
      </trkpt>
      <trkpt lat="45.0733" lon="0.55232">
        <ele>201.9</ele>
        <time>2024-04-14T08:43:38Z</time>
      </trkpt>
      <trkpt lat="45.07328" lon="0.55238">
        <ele>201.9</ele>
        <time>2024-04-14T08:43:39Z</time>
      </trkpt>
      <trkpt lat="45.07327" lon="0.55244">
        <ele>201.9</ele>
        <time>2024-04-14T08:43:40Z</time>
      </trkpt>
      <trkpt lat="45.07324" lon="0.55256">
        <ele>201.8</ele>
        <time>2024-04-14T08:43:42Z</time>
      </trkpt>
      <trkpt lat="45.07321" lon="0.55267">
        <ele>201.7</ele>
        <time>2024-04-14T08:43:44Z</time>
      </trkpt>
      <trkpt lat="45.07319" lon="0.55273">
        <ele>201.7</ele>
        <time>2024-04-14T08:43:45Z</time>
      </trkpt>
      <trkpt lat="45.07317" lon="0.55278">
        <ele>201.7</ele>
        <time>2024-04-14T08:43:46Z</time>
      </trkpt>
      <trkpt lat="45.07313" lon="0.5529">
        <ele>201.6</ele>
        <time>2024-04-14T08:43:48Z</time>
      </trkpt>
      <trkpt lat="45.07308" lon="0.55301">
        <ele>201.6</ele>
        <time>2024-04-14T08:43:50Z</time>
      </trkpt>
      <trkpt lat="45.07305" lon="0.55307">
        <ele>201.5</ele>
        <time>2024-04-14T08:43:51Z</time>
      </trkpt>
      <trkpt lat="45.07302" lon="0.55312">
        <ele>201.5</ele>
        <time>2024-04-14T08:43:52Z</time>
      </trkpt>
      <trkpt lat="45.07297" lon="0.55322">
        <ele>201.5</ele>
        <time>2024-04-14T08:43:54Z</time>
      </trkpt>
      <trkpt lat="45.07295" lon="0.55327">
        <ele>201.5</ele>
        <time>2024-04-14T08:43:55Z</time>
      </trkpt>
      <trkpt lat="45.07293" lon="0.55333">
        <ele>201.5</ele>
        <time>2024-04-14T08:43:56Z</time>
      </trkpt>
      <trkpt lat="45.07289" lon="0.55345">
        <ele>201.5</ele>
        <time>2024-04-14T08:43:58Z</time>
      </trkpt>
      <trkpt lat="45.07283" lon="0.55359">
        <ele>201.5</ele>
        <time>2024-04-14T08:44:00Z</time>
      </trkpt>
      <trkpt lat="45.07278" lon="0.55372">
        <ele>201.4</ele>
        <time>2024-04-14T08:44:02Z</time>
      </trkpt>
      <trkpt lat="45.07273" lon="0.55385">
        <ele>201.2</ele>
        <time>2024-04-14T08:44:04Z</time>
      </trkpt>
      <trkpt lat="45.0727" lon="0.55391">
        <ele>201.1</ele>
        <time>2024-04-14T08:44:05Z</time>
      </trkpt>
      <trkpt lat="45.07267" lon="0.55398">
        <ele>201</ele>
        <time>2024-04-14T08:44:06Z</time>
      </trkpt>
      <trkpt lat="45.07262" lon="0.55411">
        <ele>200.7</ele>
        <time>2024-04-14T08:44:08Z</time>
      </trkpt>
      <trkpt lat="45.07259" lon="0.55418">
        <ele>200.5</ele>
        <time>2024-04-14T08:44:09Z</time>
      </trkpt>
      <trkpt lat="45.07256" lon="0.55425">
        <ele>200.3</ele>
        <time>2024-04-14T08:44:10Z</time>
      </trkpt>
      <trkpt lat="45.07252" lon="0.55432">
        <ele>200.1</ele>
        <time>2024-04-14T08:44:11Z</time>
      </trkpt>
      <trkpt lat="45.07249" lon="0.55439">
        <ele>199.9</ele>
        <time>2024-04-14T08:44:12Z</time>
      </trkpt>
      <trkpt lat="45.07246" lon="0.55445">
        <ele>199.8</ele>
        <time>2024-04-14T08:44:13Z</time>
      </trkpt>
      <trkpt lat="45.07245" lon="0.5545">
        <ele>199.6</ele>
        <time>2024-04-14T08:44:14Z</time>
      </trkpt>
      <trkpt lat="45.07245" lon="0.55454">
        <ele>199.5</ele>
        <time>2024-04-14T08:44:15Z</time>
      </trkpt>
      <trkpt lat="45.07246" lon="0.55458">
        <ele>199.4</ele>
        <time>2024-04-14T08:44:16Z</time>
      </trkpt>
      <trkpt lat="45.07247" lon="0.55462">
        <ele>199.4</ele>
        <time>2024-04-14T08:44:17Z</time>
      </trkpt>
      <trkpt lat="45.0725" lon="0.55466">
        <ele>199.5</ele>
        <time>2024-04-14T08:44:18Z</time>
      </trkpt>
      <trkpt lat="45.07256" lon="0.55472">
        <ele>199.6</ele>
        <time>2024-04-14T08:44:20Z</time>
      </trkpt>
      <trkpt lat="45.0726" lon="0.55475">
        <ele>199.6</ele>
        <time>2024-04-14T08:44:21Z</time>
      </trkpt>
      <trkpt lat="45.07264" lon="0.55477">
        <ele>199.7</ele>
        <time>2024-04-14T08:44:22Z</time>
      </trkpt>
      <trkpt lat="45.07272" lon="0.55481">
        <ele>199.7</ele>
        <time>2024-04-14T08:44:24Z</time>
      </trkpt>
      <trkpt lat="45.0728" lon="0.55484">
        <ele>199.8</ele>
        <time>2024-04-14T08:44:26Z</time>
      </trkpt>
      <trkpt lat="45.07288" lon="0.55488">
        <ele>199.7</ele>
        <time>2024-04-14T08:44:28Z</time>
      </trkpt>
      <trkpt lat="45.07292" lon="0.5549">
        <ele>199.6</ele>
        <time>2024-04-14T08:44:29Z</time>
      </trkpt>
      <trkpt lat="45.07296" lon="0.55492">
        <ele>199.4</ele>
        <time>2024-04-14T08:44:30Z</time>
      </trkpt>
      <trkpt lat="45.073" lon="0.55496">
        <ele>199.3</ele>
        <time>2024-04-14T08:44:31Z</time>
      </trkpt>
      <trkpt lat="45.07304" lon="0.555">
        <ele>199.2</ele>
        <time>2024-04-14T08:44:32Z</time>
      </trkpt>
      <trkpt lat="45.07311" lon="0.55507">
        <ele>198.9</ele>
        <time>2024-04-14T08:44:34Z</time>
      </trkpt>
      <trkpt lat="45.07317" lon="0.55515">
        <ele>198.6</ele>
        <time>2024-04-14T08:44:36Z</time>
      </trkpt>
      <trkpt lat="45.07325" lon="0.55523">
        <ele>198.2</ele>
        <time>2024-04-14T08:44:38Z</time>
      </trkpt>
      <trkpt lat="45.0733" lon="0.55529">
        <ele>197.9</ele>
        <time>2024-04-14T08:44:40Z</time>
      </trkpt>
      <trkpt lat="45.07334" lon="0.55536">
        <ele>197.6</ele>
        <time>2024-04-14T08:44:42Z</time>
      </trkpt>
      <trkpt lat="45.07339" lon="0.55544">
        <ele>197.3</ele>
        <time>2024-04-14T08:44:44Z</time>
      </trkpt>
      <trkpt lat="45.07342" lon="0.55549">
        <ele>197.1</ele>
        <time>2024-04-14T08:44:45Z</time>
      </trkpt>
      <trkpt lat="45.07346" lon="0.55553">
        <ele>196.8</ele>
        <time>2024-04-14T08:44:46Z</time>
      </trkpt>
      <trkpt lat="45.07358" lon="0.5556">
        <ele>195.9</ele>
        <time>2024-04-14T08:44:48Z</time>
      </trkpt>
      <trkpt lat="45.07369" lon="0.55565">
        <ele>195</ele>
        <time>2024-04-14T08:44:50Z</time>
      </trkpt>
      <trkpt lat="45.0738" lon="0.55575">
        <ele>193.8</ele>
        <time>2024-04-14T08:44:52Z</time>
      </trkpt>
      <trkpt lat="45.07391" lon="0.55586">
        <ele>192.5</ele>
        <time>2024-04-14T08:44:54Z</time>
      </trkpt>
      <trkpt lat="45.07404" lon="0.55596">
        <ele>191.4</ele>
        <time>2024-04-14T08:44:56Z</time>
      </trkpt>
      <trkpt lat="45.07417" lon="0.55609">
        <ele>189.9</ele>
        <time>2024-04-14T08:44:58Z</time>
      </trkpt>
      <trkpt lat="45.07428" lon="0.55621">
        <ele>188.6</ele>
        <time>2024-04-14T08:45:00Z</time>
      </trkpt>
      <trkpt lat="45.07441" lon="0.55634">
        <ele>187.3</ele>
        <time>2024-04-14T08:45:02Z</time>
      </trkpt>
      <trkpt lat="45.07448" lon="0.55641">
        <ele>186.5</ele>
        <time>2024-04-14T08:45:03Z</time>
      </trkpt>
      <trkpt lat="45.07455" lon="0.55647">
        <ele>185.9</ele>
        <time>2024-04-14T08:45:04Z</time>
      </trkpt>
      <trkpt lat="45.07461" lon="0.55651">
        <ele>185.3</ele>
        <time>2024-04-14T08:45:05Z</time>
      </trkpt>
      <trkpt lat="45.07466" lon="0.55652">
        <ele>184.8</ele>
        <time>2024-04-14T08:45:06Z</time>
      </trkpt>
      <trkpt lat="45.07472" lon="0.55653">
        <ele>184.1</ele>
        <time>2024-04-14T08:45:07Z</time>
      </trkpt>
      <trkpt lat="45.07479" lon="0.55653">
        <ele>183.4</ele>
        <time>2024-04-14T08:45:08Z</time>
      </trkpt>
      <trkpt lat="45.07486" lon="0.55652">
        <ele>182.6</ele>
        <time>2024-04-14T08:45:09Z</time>
      </trkpt>
      <trkpt lat="45.07494" lon="0.5565">
        <ele>181.7</ele>
        <time>2024-04-14T08:45:10Z</time>
      </trkpt>
      <trkpt lat="45.07502" lon="0.55649">
        <ele>180.8</ele>
        <time>2024-04-14T08:45:11Z</time>
      </trkpt>
      <trkpt lat="45.07511" lon="0.55649">
        <ele>180</ele>
        <time>2024-04-14T08:45:12Z</time>
      </trkpt>
      <trkpt lat="45.07519" lon="0.55648">
        <ele>179.2</ele>
        <time>2024-04-14T08:45:13Z</time>
      </trkpt>
      <trkpt lat="45.07526" lon="0.55646">
        <ele>178.6</ele>
        <time>2024-04-14T08:45:14Z</time>
      </trkpt>
      <trkpt lat="45.0754" lon="0.55642">
        <ele>177.4</ele>
        <time>2024-04-14T08:45:16Z</time>
      </trkpt>
      <trkpt lat="45.07546" lon="0.55639">
        <ele>176.7</ele>
        <time>2024-04-14T08:45:17Z</time>
      </trkpt>
      <trkpt lat="45.07553" lon="0.55635">
        <ele>175.9</ele>
        <time>2024-04-14T08:45:18Z</time>
      </trkpt>
      <trkpt lat="45.07568" lon="0.55629">
        <ele>174</ele>
        <time>2024-04-14T08:45:20Z</time>
      </trkpt>
      <trkpt lat="45.07574" lon="0.55625">
        <ele>173</ele>
        <time>2024-04-14T08:45:21Z</time>
      </trkpt>
      <trkpt lat="45.0758" lon="0.55621">
        <ele>172.1</ele>
        <time>2024-04-14T08:45:22Z</time>
      </trkpt>
      <trkpt lat="45.07594" lon="0.55613">
        <ele>170.3</ele>
        <time>2024-04-14T08:45:24Z</time>
      </trkpt>
      <trkpt lat="45.076" lon="0.5561">
        <ele>169.4</ele>
        <time>2024-04-14T08:45:25Z</time>
      </trkpt>
      <trkpt lat="45.07607" lon="0.55608">
        <ele>168.5</ele>
        <time>2024-04-14T08:45:26Z</time>
      </trkpt>
      <trkpt lat="45.07622" lon="0.55601">
        <ele>166.2</ele>
        <time>2024-04-14T08:45:28Z</time>
      </trkpt>
      <trkpt lat="45.07636" lon="0.55593">
        <ele>164</ele>
        <time>2024-04-14T08:45:30Z</time>
      </trkpt>
      <trkpt lat="45.07642" lon="0.5559">
        <ele>163.1</ele>
        <time>2024-04-14T08:45:31Z</time>
      </trkpt>
      <trkpt lat="45.07647" lon="0.55589">
        <ele>162.3</ele>
        <time>2024-04-14T08:45:32Z</time>
      </trkpt>
      <trkpt lat="45.07654" lon="0.55589">
        <ele>161.3</ele>
        <time>2024-04-14T08:45:34Z</time>
      </trkpt>
      <trkpt lat="45.07656" lon="0.55588">
        <ele>161</ele>
        <time>2024-04-14T08:45:35Z</time>
      </trkpt>
      <trkpt lat="45.07658" lon="0.55584">
        <ele>160.4</ele>
        <time>2024-04-14T08:45:36Z</time>
      </trkpt>
      <trkpt lat="45.07663" lon="0.55573">
        <ele>158.5</ele>
        <time>2024-04-14T08:45:38Z</time>
      </trkpt>
      <trkpt lat="45.0767" lon="0.55564">
        <ele>156.5</ele>
        <time>2024-04-14T08:45:40Z</time>
      </trkpt>
      <trkpt lat="45.07686" lon="0.55558">
        <ele>153.2</ele>
        <time>2024-04-14T08:45:42Z</time>
      </trkpt>
      <trkpt lat="45.07694" lon="0.55557">
        <ele>151.4</ele>
        <time>2024-04-14T08:45:43Z</time>
      </trkpt>
      <trkpt lat="45.07703" lon="0.55557">
        <ele>149.8</ele>
        <time>2024-04-14T08:45:44Z</time>
      </trkpt>
      <trkpt lat="45.0772" lon="0.55562">
        <ele>146.8</ele>
        <time>2024-04-14T08:45:46Z</time>
      </trkpt>
      <trkpt lat="45.07728" lon="0.55565">
        <ele>145.3</ele>
        <time>2024-04-14T08:45:47Z</time>
      </trkpt>
      <trkpt lat="45.07737" lon="0.55568">
        <ele>143.7</ele>
        <time>2024-04-14T08:45:48Z</time>
      </trkpt>
      <trkpt lat="45.07747" lon="0.55569">
        <ele>141.9</ele>
        <time>2024-04-14T08:45:49Z</time>
      </trkpt>
      <trkpt lat="45.07759" lon="0.55568">
        <ele>139.7</ele>
        <time>2024-04-14T08:45:50Z</time>
      </trkpt>
      <trkpt lat="45.07769" lon="0.55566">
        <ele>137.7</ele>
        <time>2024-04-14T08:45:51Z</time>
      </trkpt>
      <trkpt lat="45.07778" lon="0.55563">
        <ele>135.8</ele>
        <time>2024-04-14T08:45:52Z</time>
      </trkpt>
      <trkpt lat="45.0779" lon="0.55559">
        <ele>133.4</ele>
        <time>2024-04-14T08:45:53Z</time>
      </trkpt>
      <trkpt lat="45.07801" lon="0.55555">
        <ele>131.1</ele>
        <time>2024-04-14T08:45:54Z</time>
      </trkpt>
      <trkpt lat="45.07822" lon="0.55549">
        <ele>127.5</ele>
        <time>2024-04-14T08:45:56Z</time>
      </trkpt>
      <trkpt lat="45.0783" lon="0.55548">
        <ele>126.4</ele>
        <time>2024-04-14T08:45:57Z</time>
      </trkpt>
      <trkpt lat="45.07839" lon="0.55548">
        <ele>125.6</ele>
        <time>2024-04-14T08:45:58Z</time>
      </trkpt>
      <trkpt lat="45.07847" lon="0.5555">
        <ele>124.9</ele>
        <time>2024-04-14T08:45:59Z</time>
      </trkpt>
      <trkpt lat="45.07855" lon="0.55554">
        <ele>124.2</ele>
        <time>2024-04-14T08:46:00Z</time>
      </trkpt>
      <trkpt lat="45.07871" lon="0.55565">
        <ele>122.8</ele>
        <time>2024-04-14T08:46:02Z</time>
      </trkpt>
      <trkpt lat="45.07888" lon="0.55575">
        <ele>120.3</ele>
        <time>2024-04-14T08:46:04Z</time>
      </trkpt>
      <trkpt lat="45.07907" lon="0.55582">
        <ele>117.4</ele>
        <time>2024-04-14T08:46:06Z</time>
      </trkpt>
      <trkpt lat="45.07928" lon="0.55588">
        <ele>114</ele>
        <time>2024-04-14T08:46:08Z</time>
      </trkpt>
      <trkpt lat="45.0795" lon="0.55596">
        <ele>110.3</ele>
        <time>2024-04-14T08:46:10Z</time>
      </trkpt>
      <trkpt lat="45.07962" lon="0.55598">
        <ele>108.3</ele>
        <time>2024-04-14T08:46:11Z</time>
      </trkpt>
      <trkpt lat="45.07977" lon="0.55599">
        <ele>106.2</ele>
        <time>2024-04-14T08:46:12Z</time>
      </trkpt>
      <trkpt lat="45.08005" lon="0.55599">
        <ele>102.5</ele>
        <time>2024-04-14T08:46:14Z</time>
      </trkpt>
      <trkpt lat="45.08016" lon="0.556">
        <ele>101</ele>
        <time>2024-04-14T08:46:15Z</time>
      </trkpt>
      <trkpt lat="45.08026" lon="0.55599">
        <ele>99.7</ele>
        <time>2024-04-14T08:46:16Z</time>
      </trkpt>
      <trkpt lat="45.08043" lon="0.55597">
        <ele>97.5</ele>
        <time>2024-04-14T08:46:18Z</time>
      </trkpt>
      <trkpt lat="45.08055" lon="0.55599">
        <ele>96</ele>
        <time>2024-04-14T08:46:20Z</time>
      </trkpt>
      <trkpt lat="45.08059" lon="0.55599">
        <ele>95.5</ele>
        <time>2024-04-14T08:46:21Z</time>
      </trkpt>
      <trkpt lat="45.08063" lon="0.55598">
        <ele>95</ele>
        <time>2024-04-14T08:46:22Z</time>
      </trkpt>
      <trkpt lat="45.08067" lon="0.55588">
        <ele>94.8</ele>
        <time>2024-04-14T08:46:24Z</time>
      </trkpt>
      <trkpt lat="45.08067" lon="0.55582">
        <ele>94.7</ele>
        <time>2024-04-14T08:46:25Z</time>
      </trkpt>
      <trkpt lat="45.08067" lon="0.55575">
        <ele>94.6</ele>
        <time>2024-04-14T08:46:26Z</time>
      </trkpt>
      <trkpt lat="45.0807" lon="0.55558">
        <ele>94.3</ele>
        <time>2024-04-14T08:46:28Z</time>
      </trkpt>
      <trkpt lat="45.08074" lon="0.55542">
        <ele>94.1</ele>
        <time>2024-04-14T08:46:30Z</time>
      </trkpt>
      <trkpt lat="45.0808" lon="0.55528">
        <ele>94</ele>
        <time>2024-04-14T08:46:32Z</time>
      </trkpt>
      <trkpt lat="45.08087" lon="0.55518">
        <ele>93.8</ele>
        <time>2024-04-14T08:46:34Z</time>
      </trkpt>
      <trkpt lat="45.08094" lon="0.55509">
        <ele>93.7</ele>
        <time>2024-04-14T08:46:36Z</time>
      </trkpt>
      <trkpt lat="45.081" lon="0.555">
        <ele>93.6</ele>
        <time>2024-04-14T08:46:38Z</time>
      </trkpt>
      <trkpt lat="45.08106" lon="0.5549">
        <ele>93.4</ele>
        <time>2024-04-14T08:46:40Z</time>
      </trkpt>
      <trkpt lat="45.08108" lon="0.55484">
        <ele>93.2</ele>
        <time>2024-04-14T08:46:41Z</time>
      </trkpt>
      <trkpt lat="45.08111" lon="0.55479">
        <ele>93.1</ele>
        <time>2024-04-14T08:46:42Z</time>
      </trkpt>
      <trkpt lat="45.08116" lon="0.55465">
        <ele>92.8</ele>
        <time>2024-04-14T08:46:44Z</time>
      </trkpt>
      <trkpt lat="45.08119" lon="0.55458">
        <ele>92.6</ele>
        <time>2024-04-14T08:46:45Z</time>
      </trkpt>
      <trkpt lat="45.08121" lon="0.55452">
        <ele>92.4</ele>
        <time>2024-04-14T08:46:46Z</time>
      </trkpt>
      <trkpt lat="45.08124" lon="0.55446">
        <ele>92.3</ele>
        <time>2024-04-14T08:46:47Z</time>
      </trkpt>
      <trkpt lat="45.08129" lon="0.55443">
        <ele>92.1</ele>
        <time>2024-04-14T08:46:48Z</time>
      </trkpt>
      <trkpt lat="45.08142" lon="0.55435">
        <ele>89.9</ele>
        <time>2024-04-14T08:46:50Z</time>
      </trkpt>
      <trkpt lat="45.08158" lon="0.55427">
        <ele>88.3</ele>
        <time>2024-04-14T08:46:52Z</time>
      </trkpt>
      <trkpt lat="45.08174" lon="0.55417">
        <ele>87.1</ele>
        <time>2024-04-14T08:46:54Z</time>
      </trkpt>
      <trkpt lat="45.08189" lon="0.55405">
        <ele>86.2</ele>
        <time>2024-04-14T08:46:56Z</time>
      </trkpt>
      <trkpt lat="45.08201" lon="0.55392">
        <ele>85.5</ele>
        <time>2024-04-14T08:46:58Z</time>
      </trkpt>
      <trkpt lat="45.08213" lon="0.55379">
        <ele>85.1</ele>
        <time>2024-04-14T08:47:00Z</time>
      </trkpt>
      <trkpt lat="45.08225" lon="0.55366">
        <ele>84.8</ele>
        <time>2024-04-14T08:47:02Z</time>
      </trkpt>
      <trkpt lat="45.08236" lon="0.55354">
        <ele>84.5</ele>
        <time>2024-04-14T08:47:04Z</time>
      </trkpt>
      <trkpt lat="45.08242" lon="0.55348">
        <ele>84.4</ele>
        <time>2024-04-14T08:47:05Z</time>
      </trkpt>
      <trkpt lat="45.08247" lon="0.55341">
        <ele>84.3</ele>
        <time>2024-04-14T08:47:06Z</time>
      </trkpt>
      <trkpt lat="45.08252" lon="0.55335">
        <ele>84.3</ele>
        <time>2024-04-14T08:47:07Z</time>
      </trkpt>
      <trkpt lat="45.08257" lon="0.55329">
        <ele>84.2</ele>
        <time>2024-04-14T08:47:08Z</time>
      </trkpt>
      <trkpt lat="45.08261" lon="0.55322">
        <ele>84.2</ele>
        <time>2024-04-14T08:47:09Z</time>
      </trkpt>
      <trkpt lat="45.08265" lon="0.55315">
        <ele>84.1</ele>
        <time>2024-04-14T08:47:10Z</time>
      </trkpt>
      <trkpt lat="45.08273" lon="0.55302">
        <ele>84</ele>
        <time>2024-04-14T08:47:12Z</time>
      </trkpt>
      <trkpt lat="45.08281" lon="0.55289">
        <ele>83.8</ele>
        <time>2024-04-14T08:47:14Z</time>
      </trkpt>
      <trkpt lat="45.0829" lon="0.55275">
        <ele>83.6</ele>
        <time>2024-04-14T08:47:16Z</time>
      </trkpt>
      <trkpt lat="45.083" lon="0.55262">
        <ele>83.6</ele>
        <time>2024-04-14T08:47:18Z</time>
      </trkpt>
      <trkpt lat="45.08304" lon="0.55255">
        <ele>83.6</ele>
        <time>2024-04-14T08:47:19Z</time>
      </trkpt>
      <trkpt lat="45.08308" lon="0.55249">
        <ele>83.5</ele>
        <time>2024-04-14T08:47:20Z</time>
      </trkpt>
      <trkpt lat="45.08316" lon="0.55236">
        <ele>83.5</ele>
        <time>2024-04-14T08:47:22Z</time>
      </trkpt>
      <trkpt lat="45.08325" lon="0.55223">
        <ele>83.4</ele>
        <time>2024-04-14T08:47:24Z</time>
      </trkpt>
      <trkpt lat="45.08333" lon="0.55211">
        <ele>83.4</ele>
        <time>2024-04-14T08:47:26Z</time>
      </trkpt>
      <trkpt lat="45.08337" lon="0.55204">
        <ele>83.4</ele>
        <time>2024-04-14T08:47:27Z</time>
      </trkpt>
      <trkpt lat="45.0834" lon="0.55197">
        <ele>83.4</ele>
        <time>2024-04-14T08:47:28Z</time>
      </trkpt>
      <trkpt lat="45.08344" lon="0.55181">
        <ele>83.2</ele>
        <time>2024-04-14T08:47:30Z</time>
      </trkpt>
      <trkpt lat="45.08345" lon="0.55173">
        <ele>83.1</ele>
        <time>2024-04-14T08:47:31Z</time>
      </trkpt>
      <trkpt lat="45.08347" lon="0.55166">
        <ele>83</ele>
        <time>2024-04-14T08:47:32Z</time>
      </trkpt>
      <trkpt lat="45.0835" lon="0.55151">
        <ele>83</ele>
        <time>2024-04-14T08:47:34Z</time>
      </trkpt>
      <trkpt lat="45.08351" lon="0.55143">
        <ele>83</ele>
        <time>2024-04-14T08:47:35Z</time>
      </trkpt>
      <trkpt lat="45.08353" lon="0.55136">
        <ele>82.9</ele>
        <time>2024-04-14T08:47:36Z</time>
      </trkpt>
      <trkpt lat="45.08355" lon="0.55129">
        <ele>82.9</ele>
        <time>2024-04-14T08:47:37Z</time>
      </trkpt>
      <trkpt lat="45.08356" lon="0.55122">
        <ele>82.8</ele>
        <time>2024-04-14T08:47:38Z</time>
      </trkpt>
      <trkpt lat="45.0836" lon="0.55107">
        <ele>82.7</ele>
        <time>2024-04-14T08:47:40Z</time>
      </trkpt>
      <trkpt lat="45.08363" lon="0.55093">
        <ele>82.5</ele>
        <time>2024-04-14T08:47:42Z</time>
      </trkpt>
      <trkpt lat="45.08366" lon="0.55087">
        <ele>82.5</ele>
        <time>2024-04-14T08:47:43Z</time>
      </trkpt>
      <trkpt lat="45.08369" lon="0.55082">
        <ele>82.3</ele>
        <time>2024-04-14T08:47:44Z</time>
      </trkpt>
      <trkpt lat="45.08374" lon="0.55079">
        <ele>82.2</ele>
        <time>2024-04-14T08:47:45Z</time>
      </trkpt>
      <trkpt lat="45.08379" lon="0.55076">
        <ele>82.1</ele>
        <time>2024-04-14T08:47:46Z</time>
      </trkpt>
      <trkpt lat="45.0839" lon="0.55072">
        <ele>82</ele>
        <time>2024-04-14T08:47:48Z</time>
      </trkpt>
      <trkpt lat="45.08395" lon="0.55071">
        <ele>81.9</ele>
        <time>2024-04-14T08:47:49Z</time>
      </trkpt>
      <trkpt lat="45.084" lon="0.5507">
        <ele>81.8</ele>
        <time>2024-04-14T08:47:50Z</time>
      </trkpt>
      <trkpt lat="45.0841" lon="0.55068">
        <ele>81.8</ele>
        <time>2024-04-14T08:47:52Z</time>
      </trkpt>
      <trkpt lat="45.08418" lon="0.55059">
        <ele>81.8</ele>
        <time>2024-04-14T08:47:54Z</time>
      </trkpt>
      <trkpt lat="45.08425" lon="0.55047">
        <ele>81.7</ele>
        <time>2024-04-14T08:47:56Z</time>
      </trkpt>
      <trkpt lat="45.08432" lon="0.55036">
        <ele>81.6</ele>
        <time>2024-04-14T08:47:58Z</time>
      </trkpt>
      <trkpt lat="45.08436" lon="0.55031">
        <ele>81.6</ele>
        <time>2024-04-14T08:47:59Z</time>
      </trkpt>
      <trkpt lat="45.08439" lon="0.55025">
        <ele>81.6</ele>
        <time>2024-04-14T08:48:00Z</time>
      </trkpt>
      <trkpt lat="45.08445" lon="0.55013">
        <ele>81.6</ele>
        <time>2024-04-14T08:48:02Z</time>
      </trkpt>
      <trkpt lat="45.08451" lon="0.55001">
        <ele>81.5</ele>
        <time>2024-04-14T08:48:04Z</time>
      </trkpt>
      <trkpt lat="45.08458" lon="0.5499">
        <ele>81.5</ele>
        <time>2024-04-14T08:48:06Z</time>
      </trkpt>
      <trkpt lat="45.08463" lon="0.54978">
        <ele>81.4</ele>
        <time>2024-04-14T08:48:08Z</time>
      </trkpt>
      <trkpt lat="45.08465" lon="0.54971">
        <ele>81.4</ele>
        <time>2024-04-14T08:48:09Z</time>
      </trkpt>
      <trkpt lat="45.08467" lon="0.54965">
        <ele>81.4</ele>
        <time>2024-04-14T08:48:10Z</time>
      </trkpt>
      <trkpt lat="45.0847" lon="0.54951">
        <ele>81.3</ele>
        <time>2024-04-14T08:48:12Z</time>
      </trkpt>
      <trkpt lat="45.08472" lon="0.54938">
        <ele>81.3</ele>
        <time>2024-04-14T08:48:14Z</time>
      </trkpt>
      <trkpt lat="45.08474" lon="0.54932">
        <ele>81.3</ele>
        <time>2024-04-14T08:48:15Z</time>
      </trkpt>
      <trkpt lat="45.08475" lon="0.54925">
        <ele>81.3</ele>
        <time>2024-04-14T08:48:16Z</time>
      </trkpt>
      <trkpt lat="45.08478" lon="0.54912">
        <ele>81.3</ele>
        <time>2024-04-14T08:48:18Z</time>
      </trkpt>
      <trkpt lat="45.08481" lon="0.54898">
        <ele>81.2</ele>
        <time>2024-04-14T08:48:20Z</time>
      </trkpt>
      <trkpt lat="45.08484" lon="0.54887">
        <ele>81.2</ele>
        <time>2024-04-14T08:48:22Z</time>
      </trkpt>
      <trkpt lat="45.08486" lon="0.54876">
        <ele>81.1</ele>
        <time>2024-04-14T08:48:24Z</time>
      </trkpt>
      <trkpt lat="45.08488" lon="0.54863">
        <ele>81.1</ele>
        <time>2024-04-14T08:48:26Z</time>
      </trkpt>
      <trkpt lat="45.08491" lon="0.54851">
        <ele>81.2</ele>
        <time>2024-04-14T08:48:28Z</time>
      </trkpt>
      <trkpt lat="45.08493" lon="0.54838">
        <ele>81.4</ele>
        <time>2024-04-14T08:48:30Z</time>
      </trkpt>
      <trkpt lat="45.08496" lon="0.54827">
        <ele>81.7</ele>
        <time>2024-04-14T08:48:32Z</time>
      </trkpt>
      <trkpt lat="45.08499" lon="0.54815">
        <ele>82.1</ele>
        <time>2024-04-14T08:48:34Z</time>
      </trkpt>
      <trkpt lat="45.085" lon="0.54811">
        <ele>82.3</ele>
        <time>2024-04-14T08:48:35Z</time>
      </trkpt>
      <trkpt lat="45.08501" lon="0.54807">
        <ele>82.4</ele>
        <time>2024-04-14T08:48:36Z</time>
      </trkpt>
      <trkpt lat="45.08504" lon="0.54804">
        <ele>82.5</ele>
        <time>2024-04-14T08:48:37Z</time>
      </trkpt>
      <trkpt lat="45.08507" lon="0.54802">
        <ele>82.5</ele>
        <time>2024-04-14T08:48:38Z</time>
      </trkpt>
      <trkpt lat="45.0851" lon="0.54801">
        <ele>82.5</ele>
        <time>2024-04-14T08:48:39Z</time>
      </trkpt>
      <trkpt lat="45.08513" lon="0.54799">
        <ele>82.6</ele>
        <time>2024-04-14T08:48:40Z</time>
      </trkpt>
      <trkpt lat="45.08519" lon="0.54795">
        <ele>82.6</ele>
        <time>2024-04-14T08:48:42Z</time>
      </trkpt>
      <trkpt lat="45.08526" lon="0.5479">
        <ele>82.7</ele>
        <time>2024-04-14T08:48:44Z</time>
      </trkpt>
      <trkpt lat="45.08529" lon="0.54787">
        <ele>82.8</ele>
        <time>2024-04-14T08:48:45Z</time>
      </trkpt>
      <trkpt lat="45.08532" lon="0.54785">
        <ele>82.8</ele>
        <time>2024-04-14T08:48:46Z</time>
      </trkpt>
      <trkpt lat="45.08538" lon="0.5478">
        <ele>82.9</ele>
        <time>2024-04-14T08:48:48Z</time>
      </trkpt>
      <trkpt lat="45.08545" lon="0.54775">
        <ele>82.9</ele>
        <time>2024-04-14T08:48:50Z</time>
      </trkpt>
      <trkpt lat="45.08551" lon="0.5477">
        <ele>83</ele>
        <time>2024-04-14T08:48:52Z</time>
      </trkpt>
      <trkpt lat="45.08558" lon="0.54765">
        <ele>83</ele>
        <time>2024-04-14T08:48:54Z</time>
      </trkpt>
      <trkpt lat="45.08561" lon="0.54763">
        <ele>83</ele>
        <time>2024-04-14T08:48:55Z</time>
      </trkpt>
      <trkpt lat="45.08564" lon="0.5476">
        <ele>83</ele>
        <time>2024-04-14T08:48:56Z</time>
      </trkpt>
      <trkpt lat="45.08571" lon="0.54755">
        <ele>82.9</ele>
        <time>2024-04-14T08:48:58Z</time>
      </trkpt>
      <trkpt lat="45.08579" lon="0.5475">
        <ele>82.8</ele>
        <time>2024-04-14T08:49:00Z</time>
      </trkpt>
      <trkpt lat="45.08582" lon="0.54747">
        <ele>82.8</ele>
        <time>2024-04-14T08:49:01Z</time>
      </trkpt>
      <trkpt lat="45.08586" lon="0.54744">
        <ele>82.7</ele>
        <time>2024-04-14T08:49:02Z</time>
      </trkpt>
      <trkpt lat="45.08594" lon="0.54738">
        <ele>82.6</ele>
        <time>2024-04-14T08:49:04Z</time>
      </trkpt>
      <trkpt lat="45.08602" lon="0.54731">
        <ele>82.4</ele>
        <time>2024-04-14T08:49:06Z</time>
      </trkpt>
      <trkpt lat="45.08607" lon="0.54727">
        <ele>82.4</ele>
        <time>2024-04-14T08:49:07Z</time>
      </trkpt>
      <trkpt lat="45.08611" lon="0.54724">
        <ele>82.3</ele>
        <time>2024-04-14T08:49:08Z</time>
      </trkpt>
      <trkpt lat="45.0862" lon="0.54717">
        <ele>82.3</ele>
        <time>2024-04-14T08:49:10Z</time>
      </trkpt>
      <trkpt lat="45.0863" lon="0.54715">
        <ele>82.3</ele>
        <time>2024-04-14T08:49:12Z</time>
      </trkpt>
      <trkpt lat="45.08639" lon="0.54718">
        <ele>82.3</ele>
        <time>2024-04-14T08:49:14Z</time>
      </trkpt>
      <trkpt lat="45.08643" lon="0.54722">
        <ele>82.3</ele>
        <time>2024-04-14T08:49:15Z</time>
      </trkpt>
      <trkpt lat="45.08646" lon="0.54727">
        <ele>82.3</ele>
        <time>2024-04-14T08:49:16Z</time>
      </trkpt>
      <trkpt lat="45.08649" lon="0.54731">
        <ele>82.3</ele>
        <time>2024-04-14T08:49:17Z</time>
      </trkpt>
      <trkpt lat="45.08652" lon="0.54736">
        <ele>82.3</ele>
        <time>2024-04-14T08:49:18Z</time>
      </trkpt>
      <trkpt lat="45.08657" lon="0.54746">
        <ele>82.4</ele>
        <time>2024-04-14T08:49:20Z</time>
      </trkpt>
      <trkpt lat="45.08661" lon="0.54756">
        <ele>82.5</ele>
        <time>2024-04-14T08:49:22Z</time>
      </trkpt>
      <trkpt lat="45.08665" lon="0.54765">
        <ele>82.6</ele>
        <time>2024-04-14T08:49:24Z</time>
      </trkpt>
      <trkpt lat="45.08669" lon="0.54775">
        <ele>82.7</ele>
        <time>2024-04-14T08:49:26Z</time>
      </trkpt>
      <trkpt lat="45.08673" lon="0.54785">
        <ele>82.8</ele>
        <time>2024-04-14T08:49:28Z</time>
      </trkpt>
      <trkpt lat="45.08677" lon="0.54795">
        <ele>82.9</ele>
        <time>2024-04-14T08:49:30Z</time>
      </trkpt>
      <trkpt lat="45.0868" lon="0.54804">
        <ele>83</ele>
        <time>2024-04-14T08:49:32Z</time>
      </trkpt>
      <trkpt lat="45.08685" lon="0.54814">
        <ele>83.2</ele>
        <time>2024-04-14T08:49:34Z</time>
      </trkpt>
      <trkpt lat="45.08686" lon="0.54818">
        <ele>83.3</ele>
        <time>2024-04-14T08:49:35Z</time>
      </trkpt>
      <trkpt lat="45.08688" lon="0.54823">
        <ele>83.4</ele>
        <time>2024-04-14T08:49:36Z</time>
      </trkpt>
      <trkpt lat="45.0869" lon="0.54828">
        <ele>83.4</ele>
        <time>2024-04-14T08:49:37Z</time>
      </trkpt>
      <trkpt lat="45.08692" lon="0.54833">
        <ele>83.5</ele>
        <time>2024-04-14T08:49:38Z</time>
      </trkpt>
      <trkpt lat="45.08695" lon="0.54842">
        <ele>83.7</ele>
        <time>2024-04-14T08:49:40Z</time>
      </trkpt>
      <trkpt lat="45.08698" lon="0.54852">
        <ele>83.8</ele>
        <time>2024-04-14T08:49:42Z</time>
      </trkpt>
      <trkpt lat="45.08701" lon="0.54862">
        <ele>84</ele>
        <time>2024-04-14T08:49:44Z</time>
      </trkpt>
      <trkpt lat="45.08704" lon="0.54871">
        <ele>84.1</ele>
        <time>2024-04-14T08:49:46Z</time>
      </trkpt>
      <trkpt lat="45.08706" lon="0.54881">
        <ele>84.2</ele>
        <time>2024-04-14T08:49:48Z</time>
      </trkpt>
      <trkpt lat="45.08709" lon="0.54891">
        <ele>84.3</ele>
        <time>2024-04-14T08:49:50Z</time>
      </trkpt>
      <trkpt lat="45.08712" lon="0.549">
        <ele>84.5</ele>
        <time>2024-04-14T08:49:52Z</time>
      </trkpt>
      <trkpt lat="45.08714" lon="0.5491">
        <ele>84.6</ele>
        <time>2024-04-14T08:49:54Z</time>
      </trkpt>
      <trkpt lat="45.08715" lon="0.54914">
        <ele>84.7</ele>
        <time>2024-04-14T08:49:55Z</time>
      </trkpt>
      <trkpt lat="45.08716" lon="0.54919">
        <ele>84.7</ele>
        <time>2024-04-14T08:49:56Z</time>
      </trkpt>
      <trkpt lat="45.08718" lon="0.54927">
        <ele>84.8</ele>
        <time>2024-04-14T08:49:58Z</time>
      </trkpt>
      <trkpt lat="45.08722" lon="0.54935">
        <ele>84.9</ele>
        <time>2024-04-14T08:50:00Z</time>
      </trkpt>
      <trkpt lat="45.08724" lon="0.54938">
        <ele>85</ele>
        <time>2024-04-14T08:50:01Z</time>
      </trkpt>
      <trkpt lat="45.08727" lon="0.54941">
        <ele>85</ele>
        <time>2024-04-14T08:50:02Z</time>
      </trkpt>
      <trkpt lat="45.08735" lon="0.54943">
        <ele>84.9</ele>
        <time>2024-04-14T08:50:04Z</time>
      </trkpt>
      <trkpt lat="45.08738" lon="0.54943">
        <ele>84.9</ele>
        <time>2024-04-14T08:50:05Z</time>
      </trkpt>
      <trkpt lat="45.08742" lon="0.54943">
        <ele>84.9</ele>
        <time>2024-04-14T08:50:06Z</time>
      </trkpt>
      <trkpt lat="45.0875" lon="0.54943">
        <ele>84.8</ele>
        <time>2024-04-14T08:50:08Z</time>
      </trkpt>
      <trkpt lat="45.08759" lon="0.54943">
        <ele>84.8</ele>
        <time>2024-04-14T08:50:10Z</time>
      </trkpt>
      <trkpt lat="45.08766" lon="0.54943">
        <ele>84.7</ele>
        <time>2024-04-14T08:50:12Z</time>
      </trkpt>
      <trkpt lat="45.08774" lon="0.54943">
        <ele>84.7</ele>
        <time>2024-04-14T08:50:14Z</time>
      </trkpt>
      <trkpt lat="45.08781" lon="0.54943">
        <ele>84.7</ele>
        <time>2024-04-14T08:50:16Z</time>
      </trkpt>
      <trkpt lat="45.08788" lon="0.54942">
        <ele>84.6</ele>
        <time>2024-04-14T08:50:18Z</time>
      </trkpt>
      <trkpt lat="45.08796" lon="0.54942">
        <ele>84.6</ele>
        <time>2024-04-14T08:50:20Z</time>
      </trkpt>
      <trkpt lat="45.08803" lon="0.54941">
        <ele>84.6</ele>
        <time>2024-04-14T08:50:22Z</time>
      </trkpt>
      <trkpt lat="45.0881" lon="0.5494">
        <ele>84.6</ele>
        <time>2024-04-14T08:50:24Z</time>
      </trkpt>
      <trkpt lat="45.08818" lon="0.5494">
        <ele>84.6</ele>
        <time>2024-04-14T08:50:26Z</time>
      </trkpt>
      <trkpt lat="45.08821" lon="0.5494">
        <ele>84.6</ele>
        <time>2024-04-14T08:50:27Z</time>
      </trkpt>
      <trkpt lat="45.08825" lon="0.54939">
        <ele>84.7</ele>
        <time>2024-04-14T08:50:28Z</time>
      </trkpt>
      <trkpt lat="45.08832" lon="0.54938">
        <ele>84.8</ele>
        <time>2024-04-14T08:50:30Z</time>
      </trkpt>
      <trkpt lat="45.08838" lon="0.54938">
        <ele>85</ele>
        <time>2024-04-14T08:50:32Z</time>
      </trkpt>
      <trkpt lat="45.08844" lon="0.54938">
        <ele>85.3</ele>
        <time>2024-04-14T08:50:34Z</time>
      </trkpt>
      <trkpt lat="45.08851" lon="0.54937">
        <ele>85.6</ele>
        <time>2024-04-14T08:50:36Z</time>
      </trkpt>
      <trkpt lat="45.08857" lon="0.54937">
        <ele>85.9</ele>
        <time>2024-04-14T08:50:38Z</time>
      </trkpt>
      <trkpt lat="45.08863" lon="0.54937">
        <ele>86.3</ele>
        <time>2024-04-14T08:50:40Z</time>
      </trkpt>
      <trkpt lat="45.08869" lon="0.54937">
        <ele>86.6</ele>
        <time>2024-04-14T08:50:42Z</time>
      </trkpt>
      <trkpt lat="45.08875" lon="0.54936">
        <ele>86.9</ele>
        <time>2024-04-14T08:50:44Z</time>
      </trkpt>
      <trkpt lat="45.08878" lon="0.54937">
        <ele>87.1</ele>
        <time>2024-04-14T08:50:45Z</time>
      </trkpt>
      <trkpt lat="45.08881" lon="0.54937">
        <ele>87.2</ele>
        <time>2024-04-14T08:50:46Z</time>
      </trkpt>
      <trkpt lat="45.08887" lon="0.54937">
        <ele>87.5</ele>
        <time>2024-04-14T08:50:48Z</time>
      </trkpt>
      <trkpt lat="45.08893" lon="0.54937">
        <ele>87.9</ele>
        <time>2024-04-14T08:50:50Z</time>
      </trkpt>
      <trkpt lat="45.08899" lon="0.54938">
        <ele>88.2</ele>
        <time>2024-04-14T08:50:52Z</time>
      </trkpt>
      <trkpt lat="45.08902" lon="0.54938">
        <ele>88.4</ele>
        <time>2024-04-14T08:50:53Z</time>
      </trkpt>
      <trkpt lat="45.08904" lon="0.54938">
        <ele>88.5</ele>
        <time>2024-04-14T08:50:54Z</time>
      </trkpt>
      <trkpt lat="45.0891" lon="0.54939">
        <ele>88.9</ele>
        <time>2024-04-14T08:50:56Z</time>
      </trkpt>
      <trkpt lat="45.08915" lon="0.5494">
        <ele>89.2</ele>
        <time>2024-04-14T08:50:58Z</time>
      </trkpt>
      <trkpt lat="45.0892" lon="0.54941">
        <ele>89.5</ele>
        <time>2024-04-14T08:51:00Z</time>
      </trkpt>
      <trkpt lat="45.08922" lon="0.54941">
        <ele>89.7</ele>
        <time>2024-04-14T08:51:01Z</time>
      </trkpt>
      <trkpt lat="45.08924" lon="0.54941">
        <ele>89.8</ele>
        <time>2024-04-14T08:51:02Z</time>
      </trkpt>
      <trkpt lat="45.08928" lon="0.54942">
        <ele>90.1</ele>
        <time>2024-04-14T08:51:04Z</time>
      </trkpt>
      <trkpt lat="45.08931" lon="0.54944">
        <ele>90.4</ele>
        <time>2024-04-14T08:51:06Z</time>
      </trkpt>
      <trkpt lat="45.08935" lon="0.54946">
        <ele>90.7</ele>
        <time>2024-04-14T08:51:08Z</time>
      </trkpt>
      <trkpt lat="45.08939" lon="0.54947">
        <ele>91</ele>
        <time>2024-04-14T08:51:10Z</time>
      </trkpt>
      <trkpt lat="45.08943" lon="0.54948">
        <ele>91.4</ele>
        <time>2024-04-14T08:51:12Z</time>
      </trkpt>
      <trkpt lat="45.08947" lon="0.54948">
        <ele>91.7</ele>
        <time>2024-04-14T08:51:14Z</time>
      </trkpt>
      <trkpt lat="45.08951" lon="0.54949">
        <ele>92</ele>
        <time>2024-04-14T08:51:16Z</time>
      </trkpt>
      <trkpt lat="45.08955" lon="0.5495">
        <ele>92.2</ele>
        <time>2024-04-14T08:51:18Z</time>
      </trkpt>
      <trkpt lat="45.08958" lon="0.5495">
        <ele>92.5</ele>
        <time>2024-04-14T08:51:20Z</time>
      </trkpt>
      <trkpt lat="45.08962" lon="0.54951">
        <ele>92.7</ele>
        <time>2024-04-14T08:51:22Z</time>
      </trkpt>
      <trkpt lat="45.08963" lon="0.54952">
        <ele>92.8</ele>
        <time>2024-04-14T08:51:23Z</time>
      </trkpt>
      <trkpt lat="45.08964" lon="0.54952">
        <ele>92.9</ele>
        <time>2024-04-14T08:51:24Z</time>
      </trkpt>
      <trkpt lat="45.08968" lon="0.54954">
        <ele>93.3</ele>
        <time>2024-04-14T08:51:26Z</time>
      </trkpt>
      <trkpt lat="45.0897" lon="0.54954">
        <ele>93.4</ele>
        <time>2024-04-14T08:51:27Z</time>
      </trkpt>
      <trkpt lat="45.08972" lon="0.54955">
        <ele>93.6</ele>
        <time>2024-04-14T08:51:28Z</time>
      </trkpt>
      <trkpt lat="45.08975" lon="0.54956">
        <ele>93.8</ele>
        <time>2024-04-14T08:51:30Z</time>
      </trkpt>
      <trkpt lat="45.08977" lon="0.54956">
        <ele>94</ele>
        <time>2024-04-14T08:51:31Z</time>
      </trkpt>
      <trkpt lat="45.08978" lon="0.54957">
        <ele>94.1</ele>
        <time>2024-04-14T08:51:32Z</time>
      </trkpt>
      <trkpt lat="45.08981" lon="0.54958">
        <ele>94.4</ele>
        <time>2024-04-14T08:51:34Z</time>
      </trkpt>
      <trkpt lat="45.08983" lon="0.54959">
        <ele>94.6</ele>
        <time>2024-04-14T08:51:36Z</time>
      </trkpt>
      <trkpt lat="45.08985" lon="0.54959">
        <ele>94.7</ele>
        <time>2024-04-14T08:51:37Z</time>
      </trkpt>
      <trkpt lat="45.08986" lon="0.5496">
        <ele>94.8</ele>
        <time>2024-04-14T08:51:38Z</time>
      </trkpt>
      <trkpt lat="45.08988" lon="0.54961">
        <ele>95.1</ele>
        <time>2024-04-14T08:51:40Z</time>
      </trkpt>
      <trkpt lat="45.08991" lon="0.54962">
        <ele>95.3</ele>
        <time>2024-04-14T08:51:42Z</time>
      </trkpt>
      <trkpt lat="45.08993" lon="0.54964">
        <ele>95.6</ele>
        <time>2024-04-14T08:51:44Z</time>
      </trkpt>
      <trkpt lat="45.08995" lon="0.54964">
        <ele>95.7</ele>
        <time>2024-04-14T08:51:45Z</time>
      </trkpt>
      <trkpt lat="45.08996" lon="0.54965">
        <ele>95.9</ele>
        <time>2024-04-14T08:51:46Z</time>
      </trkpt>
      <trkpt lat="45.08999" lon="0.54966">
        <ele>96.3</ele>
        <time>2024-04-14T08:51:48Z</time>
      </trkpt>
      <trkpt lat="45.09002" lon="0.54967">
        <ele>96.6</ele>
        <time>2024-04-14T08:51:50Z</time>
      </trkpt>
      <trkpt lat="45.09005" lon="0.54967">
        <ele>96.9</ele>
        <time>2024-04-14T08:51:52Z</time>
      </trkpt>
      <trkpt lat="45.09006" lon="0.54968">
        <ele>97.1</ele>
        <time>2024-04-14T08:51:53Z</time>
      </trkpt>
      <trkpt lat="45.09008" lon="0.54969">
        <ele>97.3</ele>
        <time>2024-04-14T08:51:54Z</time>
      </trkpt>
      <trkpt lat="45.09011" lon="0.5497">
        <ele>97.6</ele>
        <time>2024-04-14T08:51:56Z</time>
      </trkpt>
      <trkpt lat="45.09013" lon="0.54972">
        <ele>97.9</ele>
        <time>2024-04-14T08:51:58Z</time>
      </trkpt>
      <trkpt lat="45.09015" lon="0.54975">
        <ele>98.3</ele>
        <time>2024-04-14T08:52:00Z</time>
      </trkpt>
      <trkpt lat="45.09018" lon="0.54977">
        <ele>98.7</ele>
        <time>2024-04-14T08:52:02Z</time>
      </trkpt>
      <trkpt lat="45.09019" lon="0.54979">
        <ele>98.8</ele>
        <time>2024-04-14T08:52:03Z</time>
      </trkpt>
      <trkpt lat="45.0902" lon="0.54981">
        <ele>99</ele>
        <time>2024-04-14T08:52:04Z</time>
      </trkpt>
      <trkpt lat="45.09021" lon="0.54984">
        <ele>99.3</ele>
        <time>2024-04-14T08:52:06Z</time>
      </trkpt>
      <trkpt lat="45.09021" lon="0.54985">
        <ele>99.4</ele>
        <time>2024-04-14T08:52:07Z</time>
      </trkpt>
      <trkpt lat="45.09022" lon="0.54987">
        <ele>99.6</ele>
        <time>2024-04-14T08:52:08Z</time>
      </trkpt>
      <trkpt lat="45.09023" lon="0.54991">
        <ele>100</ele>
        <time>2024-04-14T08:52:10Z</time>
      </trkpt>
      <trkpt lat="45.09024" lon="0.54994">
        <ele>100.3</ele>
        <time>2024-04-14T08:52:12Z</time>
      </trkpt>
      <trkpt lat="45.09025" lon="0.54998">
        <ele>100.7</ele>
        <time>2024-04-14T08:52:14Z</time>
      </trkpt>
      <trkpt lat="45.09026" lon="0.55002">
        <ele>101.1</ele>
        <time>2024-04-14T08:52:16Z</time>
      </trkpt>
      <trkpt lat="45.09026" lon="0.55003">
        <ele>101.3</ele>
        <time>2024-04-14T08:52:17Z</time>
      </trkpt>
      <trkpt lat="45.09027" lon="0.55005">
        <ele>101.5</ele>
        <time>2024-04-14T08:52:18Z</time>
      </trkpt>
      <trkpt lat="45.09028" lon="0.55008">
        <ele>101.8</ele>
        <time>2024-04-14T08:52:20Z</time>
      </trkpt>
      <trkpt lat="45.0903" lon="0.55011">
        <ele>102.2</ele>
        <time>2024-04-14T08:52:22Z</time>
      </trkpt>
      <trkpt lat="45.0903" lon="0.55012">
        <ele>102.4</ele>
        <time>2024-04-14T08:52:23Z</time>
      </trkpt>
      <trkpt lat="45.09031" lon="0.55013">
        <ele>102.7</ele>
        <time>2024-04-14T08:52:24Z</time>
      </trkpt>
      <trkpt lat="45.09033" lon="0.55017">
        <ele>103.1</ele>
        <time>2024-04-14T08:52:26Z</time>
      </trkpt>
      <trkpt lat="45.09033" lon="0.55019">
        <ele>103.4</ele>
        <time>2024-04-14T08:52:27Z</time>
      </trkpt>
      <trkpt lat="45.09034" lon="0.5502">
        <ele>103.7</ele>
        <time>2024-04-14T08:52:28Z</time>
      </trkpt>
      <trkpt lat="45.09035" lon="0.55024">
        <ele>104.2</ele>
        <time>2024-04-14T08:52:30Z</time>
      </trkpt>
      <trkpt lat="45.09037" lon="0.55026">
        <ele>104.7</ele>
        <time>2024-04-14T08:52:32Z</time>
      </trkpt>
      <trkpt lat="45.09037" lon="0.55028">
        <ele>105</ele>
        <time>2024-04-14T08:52:34Z</time>
      </trkpt>
      <trkpt lat="45.09036" lon="0.55027">
        <ele>105.2</ele>
        <time>2024-04-14T08:52:35Z</time>
      </trkpt>
      <trkpt lat="45.0928" lon="0.55448">
        <ele>182.8</ele>
        <time>2024-04-14T09:00:36Z</time>
      </trkpt>
      <trkpt lat="45.09281" lon="0.55451">
        <ele>183.2</ele>
        <time>2024-04-14T09:00:38Z</time>
      </trkpt>
      <trkpt lat="45.09281" lon="0.55452">
        <ele>183.3</ele>
        <time>2024-04-14T09:00:39Z</time>
      </trkpt>
      <trkpt lat="45.09282" lon="0.55454">
        <ele>183.5</ele>
        <time>2024-04-14T09:00:40Z</time>
      </trkpt>
      <trkpt lat="45.09282" lon="0.55457">
        <ele>183.8</ele>
        <time>2024-04-14T09:00:42Z</time>
      </trkpt>
      <trkpt lat="45.09282" lon="0.55461">
        <ele>184.2</ele>
        <time>2024-04-14T09:00:44Z</time>
      </trkpt>
      <trkpt lat="45.09285" lon="0.55464">
        <ele>184.7</ele>
        <time>2024-04-14T09:00:46Z</time>
      </trkpt>
      <trkpt lat="45.09286" lon="0.55467">
        <ele>185.1</ele>
        <time>2024-04-14T09:00:48Z</time>
      </trkpt>
      <trkpt lat="45.09287" lon="0.55469">
        <ele>185.3</ele>
        <time>2024-04-14T09:00:49Z</time>
      </trkpt>
      <trkpt lat="45.09288" lon="0.5547">
        <ele>185.5</ele>
        <time>2024-04-14T09:00:50Z</time>
      </trkpt>
      <trkpt lat="45.09288" lon="0.55472">
        <ele>185.6</ele>
        <time>2024-04-14T09:00:51Z</time>
      </trkpt>
      <trkpt lat="45.09288" lon="0.55474">
        <ele>185.8</ele>
        <time>2024-04-14T09:00:52Z</time>
      </trkpt>
      <trkpt lat="45.09287" lon="0.55476">
        <ele>186.1</ele>
        <time>2024-04-14T09:00:54Z</time>
      </trkpt>
      <trkpt lat="45.09287" lon="0.5548">
        <ele>186.5</ele>
        <time>2024-04-14T09:00:56Z</time>
      </trkpt>
      <trkpt lat="45.09287" lon="0.55484">
        <ele>186.8</ele>
        <time>2024-04-14T09:00:58Z</time>
      </trkpt>
      <trkpt lat="45.09288" lon="0.55486">
        <ele>187.1</ele>
        <time>2024-04-14T09:00:59Z</time>
      </trkpt>
      <trkpt lat="45.09288" lon="0.55488">
        <ele>187.2</ele>
        <time>2024-04-14T09:01:00Z</time>
      </trkpt>
      <trkpt lat="45.09287" lon="0.55492">
        <ele>187.6</ele>
        <time>2024-04-14T09:01:02Z</time>
      </trkpt>
      <trkpt lat="45.09287" lon="0.55495">
        <ele>188</ele>
        <time>2024-04-14T09:01:04Z</time>
      </trkpt>
      <trkpt lat="45.09289" lon="0.55499">
        <ele>188.4</ele>
        <time>2024-04-14T09:01:06Z</time>
      </trkpt>
      <trkpt lat="45.0929" lon="0.55504">
        <ele>188.8</ele>
        <time>2024-04-14T09:01:08Z</time>
      </trkpt>
      <trkpt lat="45.0929" lon="0.55507">
        <ele>189</ele>
        <time>2024-04-14T09:01:09Z</time>
      </trkpt>
      <trkpt lat="45.09291" lon="0.55509">
        <ele>189.2</ele>
        <time>2024-04-14T09:01:10Z</time>
      </trkpt>
      <trkpt lat="45.09292" lon="0.55512">
        <ele>189.4</ele>
        <time>2024-04-14T09:01:11Z</time>
      </trkpt>
      <trkpt lat="45.09293" lon="0.55514">
        <ele>189.6</ele>
        <time>2024-04-14T09:01:12Z</time>
      </trkpt>
      <trkpt lat="45.09293" lon="0.55516">
        <ele>189.8</ele>
        <time>2024-04-14T09:01:13Z</time>
      </trkpt>
      <trkpt lat="45.09293" lon="0.55519">
        <ele>190</ele>
        <time>2024-04-14T09:01:14Z</time>
      </trkpt>
      <trkpt lat="45.09293" lon="0.55521">
        <ele>190.1</ele>
        <time>2024-04-14T09:01:15Z</time>
      </trkpt>
      <trkpt lat="45.09294" lon="0.55523">
        <ele>190.3</ele>
        <time>2024-04-14T09:01:16Z</time>
      </trkpt>
      <trkpt lat="45.09295" lon="0.55527">
        <ele>190.7</ele>
        <time>2024-04-14T09:01:18Z</time>
      </trkpt>
      <trkpt lat="45.09297" lon="0.55531">
        <ele>191.1</ele>
        <time>2024-04-14T09:01:20Z</time>
      </trkpt>
      <trkpt lat="45.09298" lon="0.55534">
        <ele>191.3</ele>
        <time>2024-04-14T09:01:21Z</time>
      </trkpt>
      <trkpt lat="45.09299" lon="0.55536">
        <ele>191.6</ele>
        <time>2024-04-14T09:01:22Z</time>
      </trkpt>
      <trkpt lat="45.09301" lon="0.55539">
        <ele>191.9</ele>
        <time>2024-04-14T09:01:24Z</time>
      </trkpt>
      <trkpt lat="45.09302" lon="0.55541">
        <ele>192.1</ele>
        <time>2024-04-14T09:01:25Z</time>
      </trkpt>
      <trkpt lat="45.09303" lon="0.55543">
        <ele>192.3</ele>
        <time>2024-04-14T09:01:26Z</time>
      </trkpt>
      <trkpt lat="45.09304" lon="0.55544">
        <ele>192.5</ele>
        <time>2024-04-14T09:01:27Z</time>
      </trkpt>
      <trkpt lat="45.09306" lon="0.55546">
        <ele>192.7</ele>
        <time>2024-04-14T09:01:28Z</time>
      </trkpt>
      <trkpt lat="45.09309" lon="0.55549">
        <ele>193.2</ele>
        <time>2024-04-14T09:01:30Z</time>
      </trkpt>
      <trkpt lat="45.09312" lon="0.55553">
        <ele>193.7</ele>
        <time>2024-04-14T09:01:32Z</time>
      </trkpt>
      <trkpt lat="45.09312" lon="0.55556">
        <ele>193.9</ele>
        <time>2024-04-14T09:01:33Z</time>
      </trkpt>
      <trkpt lat="45.09313" lon="0.55558">
        <ele>194</ele>
        <time>2024-04-14T09:01:34Z</time>
      </trkpt>
      <trkpt lat="45.09315" lon="0.55562">
        <ele>194.4</ele>
        <time>2024-04-14T09:01:36Z</time>
      </trkpt>
      <trkpt lat="45.09316" lon="0.55563">
        <ele>194.5</ele>
        <time>2024-04-14T09:01:37Z</time>
      </trkpt>
      <trkpt lat="45.09317" lon="0.55565">
        <ele>194.7</ele>
        <time>2024-04-14T09:01:38Z</time>
      </trkpt>
      <trkpt lat="45.0932" lon="0.55568">
        <ele>195</ele>
        <time>2024-04-14T09:01:40Z</time>
      </trkpt>
      <trkpt lat="45.09322" lon="0.55571">
        <ele>195.3</ele>
        <time>2024-04-14T09:01:42Z</time>
      </trkpt>
      <trkpt lat="45.09324" lon="0.55574">
        <ele>195.6</ele>
        <time>2024-04-14T09:01:44Z</time>
      </trkpt>
      <trkpt lat="45.09326" lon="0.55578">
        <ele>195.9</ele>
        <time>2024-04-14T09:01:46Z</time>
      </trkpt>
      <trkpt lat="45.09326" lon="0.55581">
        <ele>196.2</ele>
        <time>2024-04-14T09:01:48Z</time>
      </trkpt>
      <trkpt lat="45.09328" lon="0.55584">
        <ele>196.4</ele>
        <time>2024-04-14T09:01:50Z</time>
      </trkpt>
      <trkpt lat="45.09331" lon="0.55586">
        <ele>196.8</ele>
        <time>2024-04-14T09:01:52Z</time>
      </trkpt>
      <trkpt lat="45.09332" lon="0.55587">
        <ele>196.9</ele>
        <time>2024-04-14T09:01:53Z</time>
      </trkpt>
      <trkpt lat="45.09333" lon="0.55589">
        <ele>197.1</ele>
        <time>2024-04-14T09:01:54Z</time>
      </trkpt>
      <trkpt lat="45.09335" lon="0.55591">
        <ele>197.3</ele>
        <time>2024-04-14T09:01:56Z</time>
      </trkpt>
      <trkpt lat="45.09336" lon="0.55593">
        <ele>197.4</ele>
        <time>2024-04-14T09:01:57Z</time>
      </trkpt>
      <trkpt lat="45.09338" lon="0.55594">
        <ele>197.6</ele>
        <time>2024-04-14T09:01:58Z</time>
      </trkpt>
      <trkpt lat="45.09341" lon="0.55597">
        <ele>198</ele>
        <time>2024-04-14T09:02:00Z</time>
      </trkpt>
      <trkpt lat="45.09343" lon="0.55599">
        <ele>198.2</ele>
        <time>2024-04-14T09:02:02Z</time>
      </trkpt>
      <trkpt lat="45.09345" lon="0.556">
        <ele>198.3</ele>
        <time>2024-04-14T09:02:03Z</time>
      </trkpt>
      <trkpt lat="45.09347" lon="0.55601">
        <ele>198.5</ele>
        <time>2024-04-14T09:02:04Z</time>
      </trkpt>
      <trkpt lat="45.09352" lon="0.55601">
        <ele>198.7</ele>
        <time>2024-04-14T09:02:06Z</time>
      </trkpt>
      <trkpt lat="45.09356" lon="0.55602">
        <ele>198.8</ele>
        <time>2024-04-14T09:02:08Z</time>
      </trkpt>
      <trkpt lat="45.0936" lon="0.55603">
        <ele>198.8</ele>
        <time>2024-04-14T09:02:10Z</time>
      </trkpt>
      <trkpt lat="45.09366" lon="0.55603">
        <ele>198.8</ele>
        <time>2024-04-14T09:02:12Z</time>
      </trkpt>
      <trkpt lat="45.09372" lon="0.55606">
        <ele>198.6</ele>
        <time>2024-04-14T09:02:14Z</time>
      </trkpt>
      <trkpt lat="45.09376" lon="0.55608">
        <ele>198.6</ele>
        <time>2024-04-14T09:02:16Z</time>
      </trkpt>
      <trkpt lat="45.09378" lon="0.55609">
        <ele>198.6</ele>
        <time>2024-04-14T09:02:17Z</time>
      </trkpt>
      <trkpt lat="45.0938" lon="0.5561">
        <ele>198.5</ele>
        <time>2024-04-14T09:02:18Z</time>
      </trkpt>
      <trkpt lat="45.09384" lon="0.55612">
        <ele>198.5</ele>
        <time>2024-04-14T09:02:20Z</time>
      </trkpt>
      <trkpt lat="45.09387" lon="0.55612">
        <ele>198.5</ele>
        <time>2024-04-14T09:02:22Z</time>
      </trkpt>
      <trkpt lat="45.09389" lon="0.55613">
        <ele>198.5</ele>
        <time>2024-04-14T09:02:23Z</time>
      </trkpt>
      <trkpt lat="45.09391" lon="0.55615">
        <ele>198.4</ele>
        <time>2024-04-14T09:02:24Z</time>
      </trkpt>
      <trkpt lat="45.09396" lon="0.55617">
        <ele>198.4</ele>
        <time>2024-04-14T09:02:26Z</time>
      </trkpt>
      <trkpt lat="45.094" lon="0.55618">
        <ele>198.3</ele>
        <time>2024-04-14T09:02:28Z</time>
      </trkpt>
      <trkpt lat="45.09405" lon="0.5562">
        <ele>198.3</ele>
        <time>2024-04-14T09:02:30Z</time>
      </trkpt>
      <trkpt lat="45.09411" lon="0.55621">
        <ele>198.2</ele>
        <time>2024-04-14T09:02:32Z</time>
      </trkpt>
      <trkpt lat="45.09413" lon="0.55622">
        <ele>198.2</ele>
        <time>2024-04-14T09:02:33Z</time>
      </trkpt>
      <trkpt lat="45.09416" lon="0.55623">
        <ele>198.2</ele>
        <time>2024-04-14T09:02:34Z</time>
      </trkpt>
      <trkpt lat="45.0942" lon="0.55626">
        <ele>198.2</ele>
        <time>2024-04-14T09:02:36Z</time>
      </trkpt>
      <trkpt lat="45.09424" lon="0.55628">
        <ele>198.2</ele>
        <time>2024-04-14T09:02:38Z</time>
      </trkpt>
      <trkpt lat="45.09431" lon="0.5563">
        <ele>198.2</ele>
        <time>2024-04-14T09:02:40Z</time>
      </trkpt>
      <trkpt lat="45.09436" lon="0.55631">
        <ele>198.2</ele>
        <time>2024-04-14T09:02:42Z</time>
      </trkpt>
      <trkpt lat="45.09441" lon="0.55634">
        <ele>198.3</ele>
        <time>2024-04-14T09:02:44Z</time>
      </trkpt>
      <trkpt lat="45.09446" lon="0.55637">
        <ele>198.3</ele>
        <time>2024-04-14T09:02:46Z</time>
      </trkpt>
      <trkpt lat="45.09448" lon="0.55638">
        <ele>198.4</ele>
        <time>2024-04-14T09:02:47Z</time>
      </trkpt>
      <trkpt lat="45.09451" lon="0.55639">
        <ele>198.4</ele>
        <time>2024-04-14T09:02:48Z</time>
      </trkpt>
      <trkpt lat="45.09457" lon="0.55642">
        <ele>198.6</ele>
        <time>2024-04-14T09:02:50Z</time>
      </trkpt>
      <trkpt lat="45.09463" lon="0.55644">
        <ele>198.7</ele>
        <time>2024-04-14T09:02:52Z</time>
      </trkpt>
      <trkpt lat="45.09467" lon="0.55646">
        <ele>198.8</ele>
        <time>2024-04-14T09:02:54Z</time>
      </trkpt>
      <trkpt lat="45.09472" lon="0.55649">
        <ele>198.9</ele>
        <time>2024-04-14T09:02:56Z</time>
      </trkpt>
      <trkpt lat="45.09474" lon="0.55649">
        <ele>199</ele>
        <time>2024-04-14T09:02:57Z</time>
      </trkpt>
      <trkpt lat="45.09478" lon="0.5565">
        <ele>199</ele>
        <time>2024-04-14T09:02:58Z</time>
      </trkpt>
      <trkpt lat="45.09483" lon="0.55653">
        <ele>199.2</ele>
        <time>2024-04-14T09:03:00Z</time>
      </trkpt>
      <trkpt lat="45.0949" lon="0.55656">
        <ele>199.3</ele>
        <time>2024-04-14T09:03:02Z</time>
      </trkpt>
      <trkpt lat="45.09495" lon="0.55659">
        <ele>199.5</ele>
        <time>2024-04-14T09:03:04Z</time>
      </trkpt>
      <trkpt lat="45.09499" lon="0.5566">
        <ele>199.6</ele>
        <time>2024-04-14T09:03:06Z</time>
      </trkpt>
      <trkpt lat="45.09503" lon="0.55663">
        <ele>199.8</ele>
        <time>2024-04-14T09:03:08Z</time>
      </trkpt>
      <trkpt lat="45.09507" lon="0.55664">
        <ele>199.9</ele>
        <time>2024-04-14T09:03:10Z</time>
      </trkpt>
      <trkpt lat="45.09514" lon="0.55668">
        <ele>200.2</ele>
        <time>2024-04-14T09:03:12Z</time>
      </trkpt>
      <trkpt lat="45.09521" lon="0.55671">
        <ele>200.4</ele>
        <time>2024-04-14T09:03:14Z</time>
      </trkpt>
      <trkpt lat="45.09528" lon="0.55674">
        <ele>200.7</ele>
        <time>2024-04-14T09:03:16Z</time>
      </trkpt>
      <trkpt lat="45.09531" lon="0.55675">
        <ele>200.8</ele>
        <time>2024-04-14T09:03:17Z</time>
      </trkpt>
      <trkpt lat="45.09534" lon="0.55677">
        <ele>200.9</ele>
        <time>2024-04-14T09:03:18Z</time>
      </trkpt>
      <trkpt lat="45.0954" lon="0.5568">
        <ele>201.1</ele>
        <time>2024-04-14T09:03:20Z</time>
      </trkpt>
      <trkpt lat="45.09545" lon="0.55684">
        <ele>201.2</ele>
        <time>2024-04-14T09:03:22Z</time>
      </trkpt>
      <trkpt lat="45.09547" lon="0.55686">
        <ele>201.3</ele>
        <time>2024-04-14T09:03:23Z</time>
      </trkpt>
      <trkpt lat="45.0955" lon="0.55688">
        <ele>201.4</ele>
        <time>2024-04-14T09:03:24Z</time>
      </trkpt>
      <trkpt lat="45.09556" lon="0.55692">
        <ele>201.7</ele>
        <time>2024-04-14T09:03:26Z</time>
      </trkpt>
      <trkpt lat="45.09562" lon="0.55696">
        <ele>201.9</ele>
        <time>2024-04-14T09:03:28Z</time>
      </trkpt>
      <trkpt lat="45.09565" lon="0.55697">
        <ele>202</ele>
        <time>2024-04-14T09:03:29Z</time>
      </trkpt>
      <trkpt lat="45.09568" lon="0.55699">
        <ele>202.1</ele>
        <time>2024-04-14T09:03:30Z</time>
      </trkpt>
      <trkpt lat="45.09574" lon="0.55704">
        <ele>202.3</ele>
        <time>2024-04-14T09:03:32Z</time>
      </trkpt>
      <trkpt lat="45.0958" lon="0.55709">
        <ele>202.6</ele>
        <time>2024-04-14T09:03:34Z</time>
      </trkpt>
      <trkpt lat="45.09583" lon="0.55711">
        <ele>202.7</ele>
        <time>2024-04-14T09:03:35Z</time>
      </trkpt>
      <trkpt lat="45.09586" lon="0.55713">
        <ele>202.8</ele>
        <time>2024-04-14T09:03:36Z</time>
      </trkpt>
      <trkpt lat="45.09592" lon="0.55718">
        <ele>203.1</ele>
        <time>2024-04-14T09:03:38Z</time>
      </trkpt>
      <trkpt lat="45.09599" lon="0.55723">
        <ele>203.4</ele>
        <time>2024-04-14T09:03:40Z</time>
      </trkpt>
      <trkpt lat="45.09601" lon="0.55726">
        <ele>203.5</ele>
        <time>2024-04-14T09:03:41Z</time>
      </trkpt>
      <trkpt lat="45.09603" lon="0.55728">
        <ele>203.6</ele>
        <time>2024-04-14T09:03:42Z</time>
      </trkpt>
      <trkpt lat="45.09608" lon="0.55732">
        <ele>203.8</ele>
        <time>2024-04-14T09:03:44Z</time>
      </trkpt>
      <trkpt lat="45.09611" lon="0.55734">
        <ele>203.9</ele>
        <time>2024-04-14T09:03:45Z</time>
      </trkpt>
      <trkpt lat="45.09614" lon="0.55736">
        <ele>204</ele>
        <time>2024-04-14T09:03:46Z</time>
      </trkpt>
      <trkpt lat="45.0962" lon="0.55741">
        <ele>204.2</ele>
        <time>2024-04-14T09:03:48Z</time>
      </trkpt>
      <trkpt lat="45.09625" lon="0.55746">
        <ele>204.4</ele>
        <time>2024-04-14T09:03:50Z</time>
      </trkpt>
      <trkpt lat="45.09631" lon="0.5575">
        <ele>204.7</ele>
        <time>2024-04-14T09:03:52Z</time>
      </trkpt>
      <trkpt lat="45.09636" lon="0.55756">
        <ele>204.8</ele>
        <time>2024-04-14T09:03:54Z</time>
      </trkpt>
      <trkpt lat="45.09642" lon="0.55762">
        <ele>205</ele>
        <time>2024-04-14T09:03:56Z</time>
      </trkpt>
      <trkpt lat="45.09647" lon="0.55768">
        <ele>205.3</ele>
        <time>2024-04-14T09:03:58Z</time>
      </trkpt>
      <trkpt lat="45.0965" lon="0.5577">
        <ele>205.4</ele>
        <time>2024-04-14T09:03:59Z</time>
      </trkpt>
      <trkpt lat="45.09653" lon="0.55773">
        <ele>205.5</ele>
        <time>2024-04-14T09:04:00Z</time>
      </trkpt>
      <trkpt lat="45.09659" lon="0.55779">
        <ele>205.8</ele>
        <time>2024-04-14T09:04:02Z</time>
      </trkpt>
      <trkpt lat="45.09666" lon="0.55785">
        <ele>206.2</ele>
        <time>2024-04-14T09:04:04Z</time>
      </trkpt>
      <trkpt lat="45.09672" lon="0.5579">
        <ele>206.4</ele>
        <time>2024-04-14T09:04:06Z</time>
      </trkpt>
      <trkpt lat="45.09676" lon="0.55792">
        <ele>206.5</ele>
        <time>2024-04-14T09:04:07Z</time>
      </trkpt>
      <trkpt lat="45.09679" lon="0.55795">
        <ele>206.6</ele>
        <time>2024-04-14T09:04:08Z</time>
      </trkpt>
      <trkpt lat="45.09684" lon="0.558">
        <ele>206.7</ele>
        <time>2024-04-14T09:04:10Z</time>
      </trkpt>
      <trkpt lat="45.09691" lon="0.55806">
        <ele>206.9</ele>
        <time>2024-04-14T09:04:12Z</time>
      </trkpt>
      <trkpt lat="45.09697" lon="0.55812">
        <ele>207.1</ele>
        <time>2024-04-14T09:04:14Z</time>
      </trkpt>
      <trkpt lat="45.09703" lon="0.55818">
        <ele>207.2</ele>
        <time>2024-04-14T09:04:16Z</time>
      </trkpt>
      <trkpt lat="45.09709" lon="0.55824">
        <ele>207.4</ele>
        <time>2024-04-14T09:04:18Z</time>
      </trkpt>
      <trkpt lat="45.09715" lon="0.55829">
        <ele>207.5</ele>
        <time>2024-04-14T09:04:20Z</time>
      </trkpt>
      <trkpt lat="45.09722" lon="0.55834">
        <ele>207.5</ele>
        <time>2024-04-14T09:04:22Z</time>
      </trkpt>
      <trkpt lat="45.0973" lon="0.55838">
        <ele>207.6</ele>
        <time>2024-04-14T09:04:24Z</time>
      </trkpt>
      <trkpt lat="45.09738" lon="0.55842">
        <ele>207.6</ele>
        <time>2024-04-14T09:04:26Z</time>
      </trkpt>
      <trkpt lat="45.09747" lon="0.55846">
        <ele>207.5</ele>
        <time>2024-04-14T09:04:28Z</time>
      </trkpt>
      <trkpt lat="45.09755" lon="0.55849">
        <ele>207.5</ele>
        <time>2024-04-14T09:04:30Z</time>
      </trkpt>
      <trkpt lat="45.09763" lon="0.55852">
        <ele>207.5</ele>
        <time>2024-04-14T09:04:32Z</time>
      </trkpt>
      <trkpt lat="45.09767" lon="0.55853">
        <ele>207.5</ele>
        <time>2024-04-14T09:04:33Z</time>
      </trkpt>
      <trkpt lat="45.09771" lon="0.55855">
        <ele>207.5</ele>
        <time>2024-04-14T09:04:34Z</time>
      </trkpt>
      <trkpt lat="45.09779" lon="0.55858">
        <ele>207.5</ele>
        <time>2024-04-14T09:04:36Z</time>
      </trkpt>
      <trkpt lat="45.09788" lon="0.55862">
        <ele>207.5</ele>
        <time>2024-04-14T09:04:38Z</time>
      </trkpt>
      <trkpt lat="45.09796" lon="0.55867">
        <ele>207.5</ele>
        <time>2024-04-14T09:04:40Z</time>
      </trkpt>
      <trkpt lat="45.09803" lon="0.5587">
        <ele>207.5</ele>
        <time>2024-04-14T09:04:42Z</time>
      </trkpt>
      <trkpt lat="45.09806" lon="0.55873">
        <ele>207.5</ele>
        <time>2024-04-14T09:04:43Z</time>
      </trkpt>
      <trkpt lat="45.0981" lon="0.55876">
        <ele>207.5</ele>
        <time>2024-04-14T09:04:44Z</time>
      </trkpt>
      <trkpt lat="45.09817" lon="0.55882">
        <ele>207.4</ele>
        <time>2024-04-14T09:04:46Z</time>
      </trkpt>
      <trkpt lat="45.09822" lon="0.55889">
        <ele>207.3</ele>
        <time>2024-04-14T09:04:48Z</time>
      </trkpt>
      <trkpt lat="45.0983" lon="0.55897">
        <ele>207.2</ele>
        <time>2024-04-14T09:04:50Z</time>
      </trkpt>
      <trkpt lat="45.09838" lon="0.55904">
        <ele>207</ele>
        <time>2024-04-14T09:04:52Z</time>
      </trkpt>
      <trkpt lat="45.09842" lon="0.55909">
        <ele>206.8</ele>
        <time>2024-04-14T09:04:53Z</time>
      </trkpt>
      <trkpt lat="45.09846" lon="0.55913">
        <ele>206.7</ele>
        <time>2024-04-14T09:04:54Z</time>
      </trkpt>
      <trkpt lat="45.09854" lon="0.55922">
        <ele>206.5</ele>
        <time>2024-04-14T09:04:56Z</time>
      </trkpt>
      <trkpt lat="45.09862" lon="0.55931">
        <ele>206.2</ele>
        <time>2024-04-14T09:04:58Z</time>
      </trkpt>
      <trkpt lat="45.0987" lon="0.55939">
        <ele>205.9</ele>
        <time>2024-04-14T09:05:00Z</time>
      </trkpt>
      <trkpt lat="45.09878" lon="0.55947">
        <ele>205.7</ele>
        <time>2024-04-14T09:05:02Z</time>
      </trkpt>
      <trkpt lat="45.09882" lon="0.55951">
        <ele>205.6</ele>
        <time>2024-04-14T09:05:03Z</time>
      </trkpt>
      <trkpt lat="45.09887" lon="0.55954">
        <ele>205.5</ele>
        <time>2024-04-14T09:05:04Z</time>
      </trkpt>
      <trkpt lat="45.09896" lon="0.5596">
        <ele>205.3</ele>
        <time>2024-04-14T09:05:06Z</time>
      </trkpt>
      <trkpt lat="45.09901" lon="0.55962">
        <ele>205.2</ele>
        <time>2024-04-14T09:05:07Z</time>
      </trkpt>
      <trkpt lat="45.09906" lon="0.55963">
        <ele>205.2</ele>
        <time>2024-04-14T09:05:08Z</time>
      </trkpt>
      <trkpt lat="45.09912" lon="0.55969">
        <ele>205.2</ele>
        <time>2024-04-14T09:05:10Z</time>
      </trkpt>
      <trkpt lat="45.09914" lon="0.55977">
        <ele>203.1</ele>
        <time>2024-04-14T09:05:12Z</time>
      </trkpt>
      <trkpt lat="45.09913" lon="0.5598">
        <ele>202.9</ele>
        <time>2024-04-14T09:05:13Z</time>
      </trkpt>
      <trkpt lat="45.09911" lon="0.55982">
        <ele>202.7</ele>
        <time>2024-04-14T09:05:14Z</time>
      </trkpt>
      <trkpt lat="45.0991" lon="0.55985">
        <ele>202.5</ele>
        <time>2024-04-14T09:05:15Z</time>
      </trkpt>
      <trkpt lat="45.09907" lon="0.55988">
        <ele>202.1</ele>
        <time>2024-04-14T09:05:16Z</time>
      </trkpt>
      <trkpt lat="45.09904" lon="0.55992">
        <ele>201.7</ele>
        <time>2024-04-14T09:05:17Z</time>
      </trkpt>
      <trkpt lat="45.099" lon="0.55998">
        <ele>201</ele>
        <time>2024-04-14T09:05:18Z</time>
      </trkpt>
      <trkpt lat="45.09896" lon="0.56004">
        <ele>200.3</ele>
        <time>2024-04-14T09:05:19Z</time>
      </trkpt>
      <trkpt lat="45.09891" lon="0.5601">
        <ele>199.4</ele>
        <time>2024-04-14T09:05:20Z</time>
      </trkpt>
      <trkpt lat="45.0988" lon="0.56026">
        <ele>197.6</ele>
        <time>2024-04-14T09:05:22Z</time>
      </trkpt>
      <trkpt lat="45.09873" lon="0.56034">
        <ele>196.6</ele>
        <time>2024-04-14T09:05:23Z</time>
      </trkpt>
      <trkpt lat="45.09866" lon="0.56042">
        <ele>195.8</ele>
        <time>2024-04-14T09:05:24Z</time>
      </trkpt>
      <trkpt lat="45.09853" lon="0.56057">
        <ele>194.7</ele>
        <time>2024-04-14T09:05:26Z</time>
      </trkpt>
      <trkpt lat="45.09841" lon="0.56071">
        <ele>194.4</ele>
        <time>2024-04-14T09:05:28Z</time>
      </trkpt>
      <trkpt lat="45.09829" lon="0.56082">
        <ele>194.5</ele>
        <time>2024-04-14T09:05:30Z</time>
      </trkpt>
      <trkpt lat="45.09817" lon="0.56091">
        <ele>194.8</ele>
        <time>2024-04-14T09:05:32Z</time>
      </trkpt>
      <trkpt lat="45.09806" lon="0.561">
        <ele>195.1</ele>
        <time>2024-04-14T09:05:34Z</time>
      </trkpt>
      <trkpt lat="45.09796" lon="0.56108">
        <ele>195.3</ele>
        <time>2024-04-14T09:05:36Z</time>
      </trkpt>
      <trkpt lat="45.0979" lon="0.56115">
        <ele>195.4</ele>
        <time>2024-04-14T09:05:38Z</time>
      </trkpt>
      <trkpt lat="45.09785" lon="0.56118">
        <ele>195.3</ele>
        <time>2024-04-14T09:05:40Z</time>
      </trkpt>
      <trkpt lat="45.09777" lon="0.56123">
        <ele>195.2</ele>
        <time>2024-04-14T09:05:42Z</time>
      </trkpt>
      <trkpt lat="45.09768" lon="0.56131">
        <ele>195</ele>
        <time>2024-04-14T09:05:44Z</time>
      </trkpt>
      <trkpt lat="45.09763" lon="0.56136">
        <ele>194.8</ele>
        <time>2024-04-14T09:05:45Z</time>
      </trkpt>
      <trkpt lat="45.09759" lon="0.5614">
        <ele>194.7</ele>
        <time>2024-04-14T09:05:46Z</time>
      </trkpt>
      <trkpt lat="45.09754" lon="0.56144">
        <ele>194.5</ele>
        <time>2024-04-14T09:05:47Z</time>
      </trkpt>
      <trkpt lat="45.09748" lon="0.56148">
        <ele>194.4</ele>
        <time>2024-04-14T09:05:48Z</time>
      </trkpt>
      <trkpt lat="45.09742" lon="0.56153">
        <ele>194.2</ele>
        <time>2024-04-14T09:05:49Z</time>
      </trkpt>
      <trkpt lat="45.09737" lon="0.56158">
        <ele>194</ele>
        <time>2024-04-14T09:05:50Z</time>
      </trkpt>
      <trkpt lat="45.09732" lon="0.56162">
        <ele>193.9</ele>
        <time>2024-04-14T09:05:51Z</time>
      </trkpt>
      <trkpt lat="45.09728" lon="0.56166">
        <ele>193.8</ele>
        <time>2024-04-14T09:05:52Z</time>
      </trkpt>
      <trkpt lat="45.09723" lon="0.5617">
        <ele>193.7</ele>
        <time>2024-04-14T09:05:53Z</time>
      </trkpt>
      <trkpt lat="45.09718" lon="0.56174">
        <ele>193.6</ele>
        <time>2024-04-14T09:05:54Z</time>
      </trkpt>
      <trkpt lat="45.09709" lon="0.56182">
        <ele>193.4</ele>
        <time>2024-04-14T09:05:56Z</time>
      </trkpt>
      <trkpt lat="45.09699" lon="0.56192">
        <ele>193.2</ele>
        <time>2024-04-14T09:05:58Z</time>
      </trkpt>
      <trkpt lat="45.0969" lon="0.56202">
        <ele>192.9</ele>
        <time>2024-04-14T09:06:00Z</time>
      </trkpt>
      <trkpt lat="45.09683" lon="0.5621">
        <ele>192.6</ele>
        <time>2024-04-14T09:06:02Z</time>
      </trkpt>
      <trkpt lat="45.09679" lon="0.56215">
        <ele>192.4</ele>
        <time>2024-04-14T09:06:03Z</time>
      </trkpt>
      <trkpt lat="45.09674" lon="0.5622">
        <ele>192.1</ele>
        <time>2024-04-14T09:06:04Z</time>
      </trkpt>
      <trkpt lat="45.09663" lon="0.56232">
        <ele>191.5</ele>
        <time>2024-04-14T09:06:06Z</time>
      </trkpt>
      <trkpt lat="45.09657" lon="0.56237">
        <ele>191.1</ele>
        <time>2024-04-14T09:06:07Z</time>
      </trkpt>
      <trkpt lat="45.09651" lon="0.56242">
        <ele>190.8</ele>
        <time>2024-04-14T09:06:08Z</time>
      </trkpt>
      <trkpt lat="45.09645" lon="0.56247">
        <ele>190.4</ele>
        <time>2024-04-14T09:06:09Z</time>
      </trkpt>
      <trkpt lat="45.09638" lon="0.56252">
        <ele>190</ele>
        <time>2024-04-14T09:06:10Z</time>
      </trkpt>
      <trkpt lat="45.09632" lon="0.56256">
        <ele>189.6</ele>
        <time>2024-04-14T09:06:11Z</time>
      </trkpt>
      <trkpt lat="45.09626" lon="0.56259">
        <ele>189.2</ele>
        <time>2024-04-14T09:06:12Z</time>
      </trkpt>
      <trkpt lat="45.09615" lon="0.56266">
        <ele>188.3</ele>
        <time>2024-04-14T09:06:14Z</time>
      </trkpt>
      <trkpt lat="45.09605" lon="0.56275">
        <ele>187.2</ele>
        <time>2024-04-14T09:06:16Z</time>
      </trkpt>
      <trkpt lat="45.09592" lon="0.56291">
        <ele>185.8</ele>
        <time>2024-04-14T09:06:18Z</time>
      </trkpt>
      <trkpt lat="45.09586" lon="0.56301">
        <ele>185</ele>
        <time>2024-04-14T09:06:19Z</time>
      </trkpt>
      <trkpt lat="45.09581" lon="0.56311">
        <ele>184.6</ele>
        <time>2024-04-14T09:06:20Z</time>
      </trkpt>
      <trkpt lat="45.09572" lon="0.56332">
        <ele>183.9</ele>
        <time>2024-04-14T09:06:22Z</time>
      </trkpt>
      <trkpt lat="45.09563" lon="0.56352">
        <ele>183</ele>
        <time>2024-04-14T09:06:24Z</time>
      </trkpt>
      <trkpt lat="45.09559" lon="0.56363">
        <ele>182.4</ele>
        <time>2024-04-14T09:06:25Z</time>
      </trkpt>
      <trkpt lat="45.09554" lon="0.56374">
        <ele>181.8</ele>
        <time>2024-04-14T09:06:26Z</time>
      </trkpt>
      <trkpt lat="45.09542" lon="0.56396">
        <ele>180.2</ele>
        <time>2024-04-14T09:06:28Z</time>
      </trkpt>
      <trkpt lat="45.09536" lon="0.56406">
        <ele>179.3</ele>
        <time>2024-04-14T09:06:29Z</time>
      </trkpt>
      <trkpt lat="45.09528" lon="0.56416">
        <ele>178.4</ele>
        <time>2024-04-14T09:06:30Z</time>
      </trkpt>
      <trkpt lat="45.09514" lon="0.5643">
        <ele>176.9</ele>
        <time>2024-04-14T09:06:32Z</time>
      </trkpt>
      <trkpt lat="45.09505" lon="0.56436">
        <ele>176.2</ele>
        <time>2024-04-14T09:06:34Z</time>
      </trkpt>
      <trkpt lat="45.09504" lon="0.56439">
        <ele>176.1</ele>
        <time>2024-04-14T09:06:35Z</time>
      </trkpt>
      <trkpt lat="45.09506" lon="0.56442">
        <ele>175.6</ele>
        <time>2024-04-14T09:06:36Z</time>
      </trkpt>
      <trkpt lat="45.09508" lon="0.56444">
        <ele>175.3</ele>
        <time>2024-04-14T09:06:37Z</time>
      </trkpt>
      <trkpt lat="45.0951" lon="0.56445">
        <ele>175</ele>
        <time>2024-04-14T09:06:38Z</time>
      </trkpt>
      <trkpt lat="45.0952" lon="0.56448">
        <ele>173.9</ele>
        <time>2024-04-14T09:06:40Z</time>
      </trkpt>
      <trkpt lat="45.09525" lon="0.5645">
        <ele>173.1</ele>
        <time>2024-04-14T09:06:41Z</time>
      </trkpt>
      <trkpt lat="45.09532" lon="0.56452">
        <ele>172.2</ele>
        <time>2024-04-14T09:06:42Z</time>
      </trkpt>
      <trkpt lat="45.09539" lon="0.56454">
        <ele>171.3</ele>
        <time>2024-04-14T09:06:43Z</time>
      </trkpt>
      <trkpt lat="45.09546" lon="0.56455">
        <ele>170.2</ele>
        <time>2024-04-14T09:06:44Z</time>
      </trkpt>
      <trkpt lat="45.09554" lon="0.56458">
        <ele>169.1</ele>
        <time>2024-04-14T09:06:45Z</time>
      </trkpt>
      <trkpt lat="45.09562" lon="0.56461">
        <ele>167.9</ele>
        <time>2024-04-14T09:06:46Z</time>
      </trkpt>
      <trkpt lat="45.09577" lon="0.56467">
        <ele>165.8</ele>
        <time>2024-04-14T09:06:48Z</time>
      </trkpt>
      <trkpt lat="45.09584" lon="0.56471">
        <ele>164.8</ele>
        <time>2024-04-14T09:06:49Z</time>
      </trkpt>
      <trkpt lat="45.09591" lon="0.56474">
        <ele>164</ele>
        <time>2024-04-14T09:06:50Z</time>
      </trkpt>
      <trkpt lat="45.09605" lon="0.56477">
        <ele>162</ele>
        <time>2024-04-14T09:06:52Z</time>
      </trkpt>
      <trkpt lat="45.09613" lon="0.56476">
        <ele>160.8</ele>
        <time>2024-04-14T09:06:53Z</time>
      </trkpt>
      <trkpt lat="45.09619" lon="0.56474">
        <ele>159.8</ele>
        <time>2024-04-14T09:06:54Z</time>
      </trkpt>
      <trkpt lat="45.09624" lon="0.56473">
        <ele>158.9</ele>
        <time>2024-04-14T09:06:55Z</time>
      </trkpt>
      <trkpt lat="45.09629" lon="0.56475">
        <ele>158.1</ele>
        <time>2024-04-14T09:06:56Z</time>
      </trkpt>
      <trkpt lat="45.09634" lon="0.56479">
        <ele>157.1</ele>
        <time>2024-04-14T09:06:57Z</time>
      </trkpt>
      <trkpt lat="45.09637" lon="0.56486">
        <ele>156.3</ele>
        <time>2024-04-14T09:06:58Z</time>
      </trkpt>
      <trkpt lat="45.09638" lon="0.56495">
        <ele>155.5</ele>
        <time>2024-04-14T09:06:59Z</time>
      </trkpt>
      <trkpt lat="45.09634" lon="0.56504">
        <ele>154.6</ele>
        <time>2024-04-14T09:07:00Z</time>
      </trkpt>
      <trkpt lat="45.09626" lon="0.56525">
        <ele>153.3</ele>
        <time>2024-04-14T09:07:02Z</time>
      </trkpt>
      <trkpt lat="45.09623" lon="0.56543">
        <ele>152.5</ele>
        <time>2024-04-14T09:07:04Z</time>
      </trkpt>
      <trkpt lat="45.09621" lon="0.56551">
        <ele>152.1</ele>
        <time>2024-04-14T09:07:05Z</time>
      </trkpt>
      <trkpt lat="45.0962" lon="0.56559">
        <ele>151.8</ele>
        <time>2024-04-14T09:07:06Z</time>
      </trkpt>
      <trkpt lat="45.09618" lon="0.56576">
        <ele>151.2</ele>
        <time>2024-04-14T09:07:08Z</time>
      </trkpt>
      <trkpt lat="45.09615" lon="0.56585">
        <ele>150.8</ele>
        <time>2024-04-14T09:07:09Z</time>
      </trkpt>
      <trkpt lat="45.09611" lon="0.56594">
        <ele>150.5</ele>
        <time>2024-04-14T09:07:10Z</time>
      </trkpt>
      <trkpt lat="45.09608" lon="0.56602">
        <ele>150.2</ele>
        <time>2024-04-14T09:07:11Z</time>
      </trkpt>
      <trkpt lat="45.09606" lon="0.56611">
        <ele>150</ele>
        <time>2024-04-14T09:07:12Z</time>
      </trkpt>
      <trkpt lat="45.09604" lon="0.56627">
        <ele>149.8</ele>
        <time>2024-04-14T09:07:14Z</time>
      </trkpt>
      <trkpt lat="45.09605" lon="0.56642">
        <ele>149.6</ele>
        <time>2024-04-14T09:07:16Z</time>
      </trkpt>
      <trkpt lat="45.09605" lon="0.5666">
        <ele>149.5</ele>
        <time>2024-04-14T09:07:18Z</time>
      </trkpt>
      <trkpt lat="45.09605" lon="0.56675">
        <ele>149.4</ele>
        <time>2024-04-14T09:07:20Z</time>
      </trkpt>
      <trkpt lat="45.09604" lon="0.56684">
        <ele>149.3</ele>
        <time>2024-04-14T09:07:21Z</time>
      </trkpt>
      <trkpt lat="45.09601" lon="0.56694">
        <ele>149.1</ele>
        <time>2024-04-14T09:07:22Z</time>
      </trkpt>
      <trkpt lat="45.09596" lon="0.5671">
        <ele>148.9</ele>
        <time>2024-04-14T09:07:24Z</time>
      </trkpt>
      <trkpt lat="45.09595" lon="0.56717">
        <ele>148.8</ele>
        <time>2024-04-14T09:07:25Z</time>
      </trkpt>
      <trkpt lat="45.09594" lon="0.56724">
        <ele>148.8</ele>
        <time>2024-04-14T09:07:26Z</time>
      </trkpt>
      <trkpt lat="45.09593" lon="0.56734">
        <ele>148.8</ele>
        <time>2024-04-14T09:07:28Z</time>
      </trkpt>
      <trkpt lat="45.09589" lon="0.56747">
        <ele>149.2</ele>
        <time>2024-04-14T09:07:30Z</time>
      </trkpt>
      <trkpt lat="45.09582" lon="0.56755">
        <ele>149.7</ele>
        <time>2024-04-14T09:07:31Z</time>
      </trkpt>
      <trkpt lat="45.09581" lon="0.56759">
        <ele>150</ele>
        <time>2024-04-14T09:07:32Z</time>
      </trkpt>
      <trkpt lat="45.09578" lon="0.56768">
        <ele>150.6</ele>
        <time>2024-04-14T09:07:34Z</time>
      </trkpt>
      <trkpt lat="45.09576" lon="0.56776">
        <ele>151.2</ele>
        <time>2024-04-14T09:07:36Z</time>
      </trkpt>
      <trkpt lat="45.09574" lon="0.56781">
        <ele>151.6</ele>
        <time>2024-04-14T09:07:37Z</time>
      </trkpt>
      <trkpt lat="45.09573" lon="0.56785">
        <ele>151.9</ele>
        <time>2024-04-14T09:07:38Z</time>
      </trkpt>
      <trkpt lat="45.09572" lon="0.56789">
        <ele>152.2</ele>
        <time>2024-04-14T09:07:39Z</time>
      </trkpt>
      <trkpt lat="45.09573" lon="0.56792">
        <ele>152.4</ele>
        <time>2024-04-14T09:07:40Z</time>
      </trkpt>
      <trkpt lat="45.09578" lon="0.56795">
        <ele>152.8</ele>
        <time>2024-04-14T09:07:42Z</time>
      </trkpt>
      <trkpt lat="45.09579" lon="0.56798">
        <ele>153</ele>
        <time>2024-04-14T09:07:43Z</time>
      </trkpt>
      <trkpt lat="45.09578" lon="0.56801">
        <ele>153.2</ele>
        <time>2024-04-14T09:07:44Z</time>
      </trkpt>
      <trkpt lat="45.09577" lon="0.56805">
        <ele>153.3</ele>
        <time>2024-04-14T09:07:45Z</time>
      </trkpt>
      <trkpt lat="45.09576" lon="0.56809">
        <ele>153.5</ele>
        <time>2024-04-14T09:07:46Z</time>
      </trkpt>
      <trkpt lat="45.09575" lon="0.56813">
        <ele>153.7</ele>
        <time>2024-04-14T09:07:47Z</time>
      </trkpt>
      <trkpt lat="45.09572" lon="0.56818">
        <ele>153.8</ele>
        <time>2024-04-14T09:07:48Z</time>
      </trkpt>
      <trkpt lat="45.09568" lon="0.56828">
        <ele>154.1</ele>
        <time>2024-04-14T09:07:50Z</time>
      </trkpt>
      <trkpt lat="45.09567" lon="0.56833">
        <ele>154.3</ele>
        <time>2024-04-14T09:07:51Z</time>
      </trkpt>
      <trkpt lat="45.09566" lon="0.56837">
        <ele>154.4</ele>
        <time>2024-04-14T09:07:52Z</time>
      </trkpt>
      <trkpt lat="45.09566" lon="0.56846">
        <ele>154.5</ele>
        <time>2024-04-14T09:07:54Z</time>
      </trkpt>
      <trkpt lat="45.09565" lon="0.56851">
        <ele>154.6</ele>
        <time>2024-04-14T09:07:55Z</time>
      </trkpt>
      <trkpt lat="45.09564" lon="0.56856">
        <ele>154.7</ele>
        <time>2024-04-14T09:07:56Z</time>
      </trkpt>
      <trkpt lat="45.09564" lon="0.5686">
        <ele>154.7</ele>
        <time>2024-04-14T09:07:57Z</time>
      </trkpt>
      <trkpt lat="45.09564" lon="0.56863">
        <ele>154.8</ele>
        <time>2024-04-14T09:07:58Z</time>
      </trkpt>
      <trkpt lat="45.09564" lon="0.56867">
        <ele>154.8</ele>
        <time>2024-04-14T09:07:59Z</time>
      </trkpt>
      <trkpt lat="45.09563" lon="0.56871">
        <ele>154.9</ele>
        <time>2024-04-14T09:08:00Z</time>
      </trkpt>
      <trkpt lat="45.0956" lon="0.56881">
        <ele>155</ele>
        <time>2024-04-14T09:08:02Z</time>
      </trkpt>
      <trkpt lat="45.09557" lon="0.56891">
        <ele>155.2</ele>
        <time>2024-04-14T09:08:04Z</time>
      </trkpt>
      <trkpt lat="45.09553" lon="0.569">
        <ele>155.4</ele>
        <time>2024-04-14T09:08:06Z</time>
      </trkpt>
      <trkpt lat="45.09552" lon="0.56905">
        <ele>155.5</ele>
        <time>2024-04-14T09:08:07Z</time>
      </trkpt>
      <trkpt lat="45.09551" lon="0.56909">
        <ele>155.6</ele>
        <time>2024-04-14T09:08:08Z</time>
      </trkpt>
      <trkpt lat="45.09548" lon="0.56919">
        <ele>155.8</ele>
        <time>2024-04-14T09:08:10Z</time>
      </trkpt>
      <trkpt lat="45.09546" lon="0.56926">
        <ele>156</ele>
        <time>2024-04-14T09:08:12Z</time>
      </trkpt>
      <trkpt lat="45.09542" lon="0.56935">
        <ele>156.2</ele>
        <time>2024-04-14T09:08:14Z</time>
      </trkpt>
      <trkpt lat="45.09539" lon="0.56944">
        <ele>156.4</ele>
        <time>2024-04-14T09:08:16Z</time>
      </trkpt>
      <trkpt lat="45.09538" lon="0.56949">
        <ele>156.5</ele>
        <time>2024-04-14T09:08:17Z</time>
      </trkpt>
      <trkpt lat="45.09536" lon="0.56953">
        <ele>156.6</ele>
        <time>2024-04-14T09:08:18Z</time>
      </trkpt>
      <trkpt lat="45.09534" lon="0.56957">
        <ele>156.7</ele>
        <time>2024-04-14T09:08:19Z</time>
      </trkpt>
      <trkpt lat="45.09532" lon="0.56962">
        <ele>156.9</ele>
        <time>2024-04-14T09:08:20Z</time>
      </trkpt>
      <trkpt lat="45.09532" lon="0.56966">
        <ele>157</ele>
        <time>2024-04-14T09:08:21Z</time>
      </trkpt>
      <trkpt lat="45.0953" lon="0.56969">
        <ele>157.2</ele>
        <time>2024-04-14T09:08:22Z</time>
      </trkpt>
      <trkpt lat="45.09527" lon="0.56973">
        <ele>157.4</ele>
        <time>2024-04-14T09:08:23Z</time>
      </trkpt>
      <trkpt lat="45.09526" lon="0.56977">
        <ele>157.6</ele>
        <time>2024-04-14T09:08:24Z</time>
      </trkpt>
      <trkpt lat="45.09525" lon="0.56983">
        <ele>157.9</ele>
        <time>2024-04-14T09:08:26Z</time>
      </trkpt>
      <trkpt lat="45.09523" lon="0.56991">
        <ele>158.6</ele>
        <time>2024-04-14T09:08:28Z</time>
      </trkpt>
      <trkpt lat="45.09522" lon="0.56999">
        <ele>159.1</ele>
        <time>2024-04-14T09:08:30Z</time>
      </trkpt>
      <trkpt lat="45.09521" lon="0.57002">
        <ele>159.4</ele>
        <time>2024-04-14T09:08:31Z</time>
      </trkpt>
      <trkpt lat="45.09519" lon="0.57005">
        <ele>159.8</ele>
        <time>2024-04-14T09:08:32Z</time>
      </trkpt>
      <trkpt lat="45.09516" lon="0.57012">
        <ele>160.5</ele>
        <time>2024-04-14T09:08:34Z</time>
      </trkpt>
      <trkpt lat="45.09513" lon="0.57019">
        <ele>161.2</ele>
        <time>2024-04-14T09:08:36Z</time>
      </trkpt>
      <trkpt lat="45.0951" lon="0.57027">
        <ele>161.9</ele>
        <time>2024-04-14T09:08:38Z</time>
      </trkpt>
      <trkpt lat="45.09509" lon="0.57031">
        <ele>162.2</ele>
        <time>2024-04-14T09:08:39Z</time>
      </trkpt>
      <trkpt lat="45.09508" lon="0.57034">
        <ele>162.5</ele>
        <time>2024-04-14T09:08:40Z</time>
      </trkpt>
      <trkpt lat="45.09505" lon="0.5704">
        <ele>163</ele>
        <time>2024-04-14T09:08:42Z</time>
      </trkpt>
      <trkpt lat="45.09504" lon="0.57047">
        <ele>163.5</ele>
        <time>2024-04-14T09:08:44Z</time>
      </trkpt>
      <trkpt lat="45.09502" lon="0.57054">
        <ele>164</ele>
        <time>2024-04-14T09:08:46Z</time>
      </trkpt>
      <trkpt lat="45.095" lon="0.57058">
        <ele>164.2</ele>
        <time>2024-04-14T09:08:47Z</time>
      </trkpt>
      <trkpt lat="45.095" lon="0.57061">
        <ele>164.4</ele>
        <time>2024-04-14T09:08:48Z</time>
      </trkpt>
      <trkpt lat="45.09499" lon="0.57064">
        <ele>164.6</ele>
        <time>2024-04-14T09:08:49Z</time>
      </trkpt>
      <trkpt lat="45.09497" lon="0.57068">
        <ele>164.9</ele>
        <time>2024-04-14T09:08:50Z</time>
      </trkpt>
      <trkpt lat="45.09494" lon="0.57073">
        <ele>165.3</ele>
        <time>2024-04-14T09:08:52Z</time>
      </trkpt>
      <trkpt lat="45.09494" lon="0.57076">
        <ele>165.5</ele>
        <time>2024-04-14T09:08:53Z</time>
      </trkpt>
      <trkpt lat="45.09493" lon="0.57079">
        <ele>165.7</ele>
        <time>2024-04-14T09:08:54Z</time>
      </trkpt>
      <trkpt lat="45.09491" lon="0.57086">
        <ele>166.2</ele>
        <time>2024-04-14T09:08:56Z</time>
      </trkpt>
      <trkpt lat="45.09491" lon="0.57088">
        <ele>166.5</ele>
        <time>2024-04-14T09:08:57Z</time>
      </trkpt>
      <trkpt lat="45.0949" lon="0.57091">
        <ele>166.7</ele>
        <time>2024-04-14T09:08:58Z</time>
      </trkpt>
      <trkpt lat="45.09491" lon="0.57094">
        <ele>166.9</ele>
        <time>2024-04-14T09:08:59Z</time>
      </trkpt>
      <trkpt lat="45.0949" lon="0.57097">
        <ele>167.2</ele>
        <time>2024-04-14T09:09:00Z</time>
      </trkpt>
      <trkpt lat="45.0949" lon="0.57101">
        <ele>167.5</ele>
        <time>2024-04-14T09:09:01Z</time>
      </trkpt>
      <trkpt lat="45.0949" lon="0.57104">
        <ele>167.7</ele>
        <time>2024-04-14T09:09:02Z</time>
      </trkpt>
      <trkpt lat="45.09489" lon="0.57109">
        <ele>168.1</ele>
        <time>2024-04-14T09:09:04Z</time>
      </trkpt>
      <trkpt lat="45.09489" lon="0.57113">
        <ele>168.5</ele>
        <time>2024-04-14T09:09:06Z</time>
      </trkpt>
      <trkpt lat="45.09489" lon="0.57118">
        <ele>168.8</ele>
        <time>2024-04-14T09:09:08Z</time>
      </trkpt>
      <trkpt lat="45.09488" lon="0.57121">
        <ele>169</ele>
        <time>2024-04-14T09:09:10Z</time>
      </trkpt>
      <trkpt lat="45.09488" lon="0.57125">
        <ele>169.2</ele>
        <time>2024-04-14T09:09:12Z</time>
      </trkpt>
      <trkpt lat="45.09487" lon="0.57127">
        <ele>169.4</ele>
        <time>2024-04-14T09:09:13Z</time>
      </trkpt>
      <trkpt lat="45.09487" lon="0.57129">
        <ele>169.5</ele>
        <time>2024-04-14T09:09:14Z</time>
      </trkpt>
      <trkpt lat="45.09486" lon="0.5713">
        <ele>169.6</ele>
        <time>2024-04-14T09:09:15Z</time>
      </trkpt>
      <trkpt lat="45.09487" lon="0.57133">
        <ele>169.7</ele>
        <time>2024-04-14T09:09:16Z</time>
      </trkpt>
      <trkpt lat="45.09487" lon="0.57138">
        <ele>169.9</ele>
        <time>2024-04-14T09:09:18Z</time>
      </trkpt>
      <trkpt lat="45.09487" lon="0.57145">
        <ele>170.1</ele>
        <time>2024-04-14T09:09:20Z</time>
      </trkpt>
      <trkpt lat="45.09488" lon="0.57147">
        <ele>170.2</ele>
        <time>2024-04-14T09:09:21Z</time>
      </trkpt>
      <trkpt lat="45.09488" lon="0.57149">
        <ele>170.3</ele>
        <time>2024-04-14T09:09:22Z</time>
      </trkpt>
      <trkpt lat="45.09489" lon="0.57155">
        <ele>170.4</ele>
        <time>2024-04-14T09:09:24Z</time>
      </trkpt>
      <trkpt lat="45.09488" lon="0.57159">
        <ele>170.5</ele>
        <time>2024-04-14T09:09:25Z</time>
      </trkpt>
      <trkpt lat="45.09487" lon="0.57163">
        <ele>170.5</ele>
        <time>2024-04-14T09:09:26Z</time>
      </trkpt>
      <trkpt lat="45.09485" lon="0.57171">
        <ele>170.6</ele>
        <time>2024-04-14T09:09:28Z</time>
      </trkpt>
      <trkpt lat="45.09486" lon="0.57174">
        <ele>170.7</ele>
        <time>2024-04-14T09:09:29Z</time>
      </trkpt>
      <trkpt lat="45.09485" lon="0.57178">
        <ele>170.7</ele>
        <time>2024-04-14T09:09:30Z</time>
      </trkpt>
      <trkpt lat="45.09485" lon="0.57182">
        <ele>170.7</ele>
        <time>2024-04-14T09:09:31Z</time>
      </trkpt>
      <trkpt lat="45.09484" lon="0.57186">
        <ele>170.7</ele>
        <time>2024-04-14T09:09:32Z</time>
      </trkpt>
      <trkpt lat="45.09484" lon="0.57189">
        <ele>170.7</ele>
        <time>2024-04-14T09:09:33Z</time>
      </trkpt>
      <trkpt lat="45.09484" lon="0.57192">
        <ele>170.6</ele>
        <time>2024-04-14T09:09:34Z</time>
      </trkpt>
      <trkpt lat="45.09487" lon="0.57199">
        <ele>170.5</ele>
        <time>2024-04-14T09:09:36Z</time>
      </trkpt>
      <trkpt lat="45.09489" lon="0.57202">
        <ele>170.4</ele>
        <time>2024-04-14T09:09:37Z</time>
      </trkpt>
      <trkpt lat="45.09492" lon="0.57204">
        <ele>170.4</ele>
        <time>2024-04-14T09:09:38Z</time>
      </trkpt>
      <trkpt lat="45.09497" lon="0.57203">
        <ele>170.1</ele>
        <time>2024-04-14T09:09:40Z</time>
      </trkpt>
      <trkpt lat="45.09498" lon="0.57203">
        <ele>170</ele>
        <time>2024-04-14T09:09:41Z</time>
      </trkpt>
      <trkpt lat="45.09499" lon="0.57203">
        <ele>169.9</ele>
        <time>2024-04-14T09:09:42Z</time>
      </trkpt>
      <trkpt lat="45.095" lon="0.57203">
        <ele>169.9</ele>
        <time>2024-04-14T09:09:43Z</time>
      </trkpt>
      <trkpt lat="45.09502" lon="0.57204">
        <ele>169.7</ele>
        <time>2024-04-14T09:09:44Z</time>
      </trkpt>
      <trkpt lat="45.09503" lon="0.57204">
        <ele>169.6</ele>
        <time>2024-04-14T09:09:45Z</time>
      </trkpt>
      <trkpt lat="45.09505" lon="0.57207">
        <ele>169.4</ele>
        <time>2024-04-14T09:09:46Z</time>
      </trkpt>
      <trkpt lat="45.09508" lon="0.57213">
        <ele>168.7</ele>
        <time>2024-04-14T09:09:48Z</time>
      </trkpt>
      <trkpt lat="45.0951" lon="0.57216">
        <ele>168.3</ele>
        <time>2024-04-14T09:09:49Z</time>
      </trkpt>
      <trkpt lat="45.09512" lon="0.5722">
        <ele>167.8</ele>
        <time>2024-04-14T09:09:50Z</time>
      </trkpt>
      <trkpt lat="45.09515" lon="0.57228">
        <ele>166.7</ele>
        <time>2024-04-14T09:09:52Z</time>
      </trkpt>
      <trkpt lat="45.09518" lon="0.57238">
        <ele>165.5</ele>
        <time>2024-04-14T09:09:54Z</time>
      </trkpt>
      <trkpt lat="45.09519" lon="0.57243">
        <ele>164.9</ele>
        <time>2024-04-14T09:09:55Z</time>
      </trkpt>
      <trkpt lat="45.0952" lon="0.57248">
        <ele>164.4</ele>
        <time>2024-04-14T09:09:56Z</time>
      </trkpt>
      <trkpt lat="45.09523" lon="0.57256">
        <ele>163.3</ele>
        <time>2024-04-14T09:09:58Z</time>
      </trkpt>
      <trkpt lat="45.09525" lon="0.57259">
        <ele>162.9</ele>
        <time>2024-04-14T09:09:59Z</time>
      </trkpt>
      <trkpt lat="45.09527" lon="0.57261">
        <ele>162.5</ele>
        <time>2024-04-14T09:10:00Z</time>
      </trkpt>
      <trkpt lat="45.09528" lon="0.57264">
        <ele>162.2</ele>
        <time>2024-04-14T09:10:01Z</time>
      </trkpt>
      <trkpt lat="45.09527" lon="0.57267">
        <ele>161.9</ele>
        <time>2024-04-14T09:10:02Z</time>
      </trkpt>
      <trkpt lat="45.09526" lon="0.5727">
        <ele>161.5</ele>
        <time>2024-04-14T09:10:04Z</time>
      </trkpt>
      <trkpt lat="45.09527" lon="0.57274">
        <ele>161</ele>
        <time>2024-04-14T09:10:06Z</time>
      </trkpt>
      <trkpt lat="45.09529" lon="0.57277">
        <ele>160.5</ele>
        <time>2024-04-14T09:10:07Z</time>
      </trkpt>
      <trkpt lat="45.09531" lon="0.57282">
        <ele>160</ele>
        <time>2024-04-14T09:10:08Z</time>
      </trkpt>
      <trkpt lat="45.09536" lon="0.5729">
        <ele>158.8</ele>
        <time>2024-04-14T09:10:10Z</time>
      </trkpt>
      <trkpt lat="45.09541" lon="0.57299">
        <ele>157.6</ele>
        <time>2024-04-14T09:10:12Z</time>
      </trkpt>
      <trkpt lat="45.09545" lon="0.57303">
        <ele>157</ele>
        <time>2024-04-14T09:10:13Z</time>
      </trkpt>
      <trkpt lat="45.09548" lon="0.57308">
        <ele>156.3</ele>
        <time>2024-04-14T09:10:14Z</time>
      </trkpt>
      <trkpt lat="45.0955" lon="0.57313">
        <ele>155.8</ele>
        <time>2024-04-14T09:10:15Z</time>
      </trkpt>
      <trkpt lat="45.0955" lon="0.57318">
        <ele>155.4</ele>
        <time>2024-04-14T09:10:16Z</time>
      </trkpt>
      <trkpt lat="45.09553" lon="0.57325">
        <ele>154.7</ele>
        <time>2024-04-14T09:10:18Z</time>
      </trkpt>
      <trkpt lat="45.09555" lon="0.57326">
        <ele>154.4</ele>
        <time>2024-04-14T09:10:19Z</time>
      </trkpt>
      <trkpt lat="45.09557" lon="0.57326">
        <ele>154.3</ele>
        <time>2024-04-14T09:10:20Z</time>
      </trkpt>
      <trkpt lat="45.09563" lon="0.57325">
        <ele>154</ele>
        <time>2024-04-14T09:10:22Z</time>
      </trkpt>
      <trkpt lat="45.09569" lon="0.57321">
        <ele>153.8</ele>
        <time>2024-04-14T09:10:24Z</time>
      </trkpt>
      <trkpt lat="45.09571" lon="0.57319">
        <ele>153.7</ele>
        <time>2024-04-14T09:10:25Z</time>
      </trkpt>
      <trkpt lat="45.09572" lon="0.57316">
        <ele>153.7</ele>
        <time>2024-04-14T09:10:26Z</time>
      </trkpt>
      <trkpt lat="45.09578" lon="0.57312">
        <ele>153.6</ele>
        <time>2024-04-14T09:10:28Z</time>
      </trkpt>
      <trkpt lat="45.09583" lon="0.57307">
        <ele>153.6</ele>
        <time>2024-04-14T09:10:30Z</time>
      </trkpt>
      <trkpt lat="45.09586" lon="0.57305">
        <ele>153.6</ele>
        <time>2024-04-14T09:10:31Z</time>
      </trkpt>
      <trkpt lat="45.09589" lon="0.57302">
        <ele>153.7</ele>
        <time>2024-04-14T09:10:32Z</time>
      </trkpt>
      <trkpt lat="45.09595" lon="0.57296">
        <ele>153.7</ele>
        <time>2024-04-14T09:10:34Z</time>
      </trkpt>
      <trkpt lat="45.096" lon="0.57293">
        <ele>153.7</ele>
        <time>2024-04-14T09:10:35Z</time>
      </trkpt>
      <trkpt lat="45.09603" lon="0.57291">
        <ele>153.7</ele>
        <time>2024-04-14T09:10:36Z</time>
      </trkpt>
      <trkpt lat="45.0961" lon="0.57284">
        <ele>153.7</ele>
        <time>2024-04-14T09:10:38Z</time>
      </trkpt>
      <trkpt lat="45.09616" lon="0.57281">
        <ele>153.7</ele>
        <time>2024-04-14T09:10:40Z</time>
      </trkpt>
      <trkpt lat="45.09619" lon="0.5728">
        <ele>153.7</ele>
        <time>2024-04-14T09:10:41Z</time>
      </trkpt>
      <trkpt lat="45.09621" lon="0.57278">
        <ele>153.7</ele>
        <time>2024-04-14T09:10:42Z</time>
      </trkpt>
      <trkpt lat="45.09626" lon="0.57277">
        <ele>153.6</ele>
        <time>2024-04-14T09:10:44Z</time>
      </trkpt>
      <trkpt lat="45.09628" lon="0.57278">
        <ele>153.6</ele>
        <time>2024-04-14T09:10:45Z</time>
      </trkpt>
      <trkpt lat="45.09632" lon="0.5728">
        <ele>153.5</ele>
        <time>2024-04-14T09:10:46Z</time>
      </trkpt>
      <trkpt lat="45.09642" lon="0.57282">
        <ele>153.3</ele>
        <time>2024-04-14T09:10:48Z</time>
      </trkpt>
      <trkpt lat="45.09649" lon="0.57281">
        <ele>152.5</ele>
        <time>2024-04-14T09:10:49Z</time>
      </trkpt>
      <trkpt lat="45.09655" lon="0.5728">
        <ele>151.8</ele>
        <time>2024-04-14T09:10:50Z</time>
      </trkpt>
      <trkpt lat="45.09669" lon="0.57277">
        <ele>150.5</ele>
        <time>2024-04-14T09:10:52Z</time>
      </trkpt>
      <trkpt lat="45.09684" lon="0.57277">
        <ele>149</ele>
        <time>2024-04-14T09:10:54Z</time>
      </trkpt>
      <trkpt lat="45.097" lon="0.57272">
        <ele>147</ele>
        <time>2024-04-14T09:10:56Z</time>
      </trkpt>
      <trkpt lat="45.09707" lon="0.5727">
        <ele>146</ele>
        <time>2024-04-14T09:10:57Z</time>
      </trkpt>
      <trkpt lat="45.09712" lon="0.57273">
        <ele>145.2</ele>
        <time>2024-04-14T09:10:58Z</time>
      </trkpt>
      <trkpt lat="45.09719" lon="0.57289">
        <ele>143.2</ele>
        <time>2024-04-14T09:11:00Z</time>
      </trkpt>
      <trkpt lat="45.0972" lon="0.57299">
        <ele>142.1</ele>
        <time>2024-04-14T09:11:01Z</time>
      </trkpt>
      <trkpt lat="45.09722" lon="0.57309">
        <ele>140.9</ele>
        <time>2024-04-14T09:11:02Z</time>
      </trkpt>
      <trkpt lat="45.09725" lon="0.5732">
        <ele>139.7</ele>
        <time>2024-04-14T09:11:03Z</time>
      </trkpt>
      <trkpt lat="45.0973" lon="0.57329">
        <ele>138.6</ele>
        <time>2024-04-14T09:11:04Z</time>
      </trkpt>
      <trkpt lat="45.09736" lon="0.57335">
        <ele>137.5</ele>
        <time>2024-04-14T09:11:05Z</time>
      </trkpt>
      <trkpt lat="45.09744" lon="0.57337">
        <ele>136.6</ele>
        <time>2024-04-14T09:11:06Z</time>
      </trkpt>
      <trkpt lat="45.09751" lon="0.57339">
        <ele>136.1</ele>
        <time>2024-04-14T09:11:07Z</time>
      </trkpt>
      <trkpt lat="45.09757" lon="0.57343">
        <ele>136</ele>
        <time>2024-04-14T09:11:08Z</time>
      </trkpt>
      <trkpt lat="45.09763" lon="0.57348">
        <ele>136.1</ele>
        <time>2024-04-14T09:11:09Z</time>
      </trkpt>
      <trkpt lat="45.09767" lon="0.57352">
        <ele>136.3</ele>
        <time>2024-04-14T09:11:10Z</time>
      </trkpt>
      <trkpt lat="45.09772" lon="0.57357">
        <ele>136.6</ele>
        <time>2024-04-14T09:11:12Z</time>
      </trkpt>
      <trkpt lat="45.09775" lon="0.57364">
        <ele>136.9</ele>
        <time>2024-04-14T09:11:14Z</time>
      </trkpt>
      <trkpt lat="45.09776" lon="0.57371">
        <ele>137.2</ele>
        <time>2024-04-14T09:11:16Z</time>
      </trkpt>
      <trkpt lat="45.09776" lon="0.57375">
        <ele>137.4</ele>
        <time>2024-04-14T09:11:17Z</time>
      </trkpt>
      <trkpt lat="45.09776" lon="0.57379">
        <ele>137.6</ele>
        <time>2024-04-14T09:11:18Z</time>
      </trkpt>
      <trkpt lat="45.09774" lon="0.57387">
        <ele>137.9</ele>
        <time>2024-04-14T09:11:20Z</time>
      </trkpt>
      <trkpt lat="45.09773" lon="0.57395">
        <ele>138.2</ele>
        <time>2024-04-14T09:11:22Z</time>
      </trkpt>
      <trkpt lat="45.09771" lon="0.57403">
        <ele>138.3</ele>
        <time>2024-04-14T09:11:24Z</time>
      </trkpt>
      <trkpt lat="45.0977" lon="0.57408">
        <ele>138.4</ele>
        <time>2024-04-14T09:11:25Z</time>
      </trkpt>
      <trkpt lat="45.09769" lon="0.57412">
        <ele>138.5</ele>
        <time>2024-04-14T09:11:26Z</time>
      </trkpt>
      <trkpt lat="45.09767" lon="0.57417">
        <ele>138.5</ele>
        <time>2024-04-14T09:11:27Z</time>
      </trkpt>
      <trkpt lat="45.09766" lon="0.57421">
        <ele>138.6</ele>
        <time>2024-04-14T09:11:28Z</time>
      </trkpt>
      <trkpt lat="45.09765" lon="0.57425">
        <ele>138.6</ele>
        <time>2024-04-14T09:11:29Z</time>
      </trkpt>
      <trkpt lat="45.09764" lon="0.57429">
        <ele>138.7</ele>
        <time>2024-04-14T09:11:30Z</time>
      </trkpt>
      <trkpt lat="45.0976" lon="0.57437">
        <ele>138.7</ele>
        <time>2024-04-14T09:11:32Z</time>
      </trkpt>
      <trkpt lat="45.09757" lon="0.57444">
        <ele>138.8</ele>
        <time>2024-04-14T09:11:34Z</time>
      </trkpt>
      <trkpt lat="45.09756" lon="0.57447">
        <ele>138.8</ele>
        <time>2024-04-14T09:11:35Z</time>
      </trkpt>
      <trkpt lat="45.09755" lon="0.5745">
        <ele>138.8</ele>
        <time>2024-04-14T09:11:36Z</time>
      </trkpt>
      <trkpt lat="45.09755" lon="0.57453">
        <ele>138.9</ele>
        <time>2024-04-14T09:11:37Z</time>
      </trkpt>
      <trkpt lat="45.09753" lon="0.57456">
        <ele>138.9</ele>
        <time>2024-04-14T09:11:38Z</time>
      </trkpt>
      <trkpt lat="45.09752" lon="0.57463">
        <ele>138.9</ele>
        <time>2024-04-14T09:11:40Z</time>
      </trkpt>
      <trkpt lat="45.09749" lon="0.5747">
        <ele>139</ele>
        <time>2024-04-14T09:11:42Z</time>
      </trkpt>
      <trkpt lat="45.09744" lon="0.57477">
        <ele>139.2</ele>
        <time>2024-04-14T09:11:44Z</time>
      </trkpt>
      <trkpt lat="45.09739" lon="0.57485">
        <ele>139.3</ele>
        <time>2024-04-14T09:11:46Z</time>
      </trkpt>
      <trkpt lat="45.09737" lon="0.57488">
        <ele>139.4</ele>
        <time>2024-04-14T09:11:47Z</time>
      </trkpt>
      <trkpt lat="45.09734" lon="0.57492">
        <ele>139.4</ele>
        <time>2024-04-14T09:11:48Z</time>
      </trkpt>
      <trkpt lat="45.0973" lon="0.57499">
        <ele>139.6</ele>
        <time>2024-04-14T09:11:50Z</time>
      </trkpt>
      <trkpt lat="45.09727" lon="0.57503">
        <ele>139.6</ele>
        <time>2024-04-14T09:11:51Z</time>
      </trkpt>
      <trkpt lat="45.09725" lon="0.57507">
        <ele>139.7</ele>
        <time>2024-04-14T09:11:52Z</time>
      </trkpt>
      <trkpt lat="45.0972" lon="0.57514">
        <ele>139.8</ele>
        <time>2024-04-14T09:11:54Z</time>
      </trkpt>
      <trkpt lat="45.09716" lon="0.57519">
        <ele>139.8</ele>
        <time>2024-04-14T09:11:55Z</time>
      </trkpt>
      <trkpt lat="45.09713" lon="0.57523">
        <ele>139.8</ele>
        <time>2024-04-14T09:11:56Z</time>
      </trkpt>
      <trkpt lat="45.09709" lon="0.57531">
        <ele>139.6</ele>
        <time>2024-04-14T09:11:58Z</time>
      </trkpt>
      <trkpt lat="45.09705" lon="0.57539">
        <ele>139.7</ele>
        <time>2024-04-14T09:12:00Z</time>
      </trkpt>
      <trkpt lat="45.09702" lon="0.57547">
        <ele>140.8</ele>
        <time>2024-04-14T09:12:02Z</time>
      </trkpt>
      <trkpt lat="45.09701" lon="0.57552">
        <ele>141.5</ele>
        <time>2024-04-14T09:12:04Z</time>
      </trkpt>
      <trkpt lat="45.097" lon="0.57554">
        <ele>141.7</ele>
        <time>2024-04-14T09:12:05Z</time>
      </trkpt>
      <trkpt lat="45.097" lon="0.57557">
        <ele>142.1</ele>
        <time>2024-04-14T09:12:06Z</time>
      </trkpt>
      <trkpt lat="45.097" lon="0.57559">
        <ele>142.3</ele>
        <time>2024-04-14T09:12:07Z</time>
      </trkpt>
      <trkpt lat="45.09699" lon="0.57561">
        <ele>142.6</ele>
        <time>2024-04-14T09:12:08Z</time>
      </trkpt>
      <trkpt lat="45.09699" lon="0.57563">
        <ele>142.9</ele>
        <time>2024-04-14T09:12:09Z</time>
      </trkpt>
      <trkpt lat="45.09699" lon="0.57565">
        <ele>143.1</ele>
        <time>2024-04-14T09:12:10Z</time>
      </trkpt>
      <trkpt lat="45.09697" lon="0.5757">
        <ele>143.7</ele>
        <time>2024-04-14T09:12:12Z</time>
      </trkpt>
      <trkpt lat="45.09697" lon="0.57572">
        <ele>144</ele>
        <time>2024-04-14T09:12:13Z</time>
      </trkpt>
      <trkpt lat="45.09697" lon="0.57574">
        <ele>144.3</ele>
        <time>2024-04-14T09:12:14Z</time>
      </trkpt>
      <trkpt lat="45.09696" lon="0.57577">
        <ele>144.7</ele>
        <time>2024-04-14T09:12:16Z</time>
      </trkpt>
      <trkpt lat="45.09696" lon="0.57579">
        <ele>144.9</ele>
        <time>2024-04-14T09:12:17Z</time>
      </trkpt>
      <trkpt lat="45.09695" lon="0.57581">
        <ele>145.2</ele>
        <time>2024-04-14T09:12:18Z</time>
      </trkpt>
      <trkpt lat="45.09695" lon="0.57583">
        <ele>145.4</ele>
        <time>2024-04-14T09:12:19Z</time>
      </trkpt>
      <trkpt lat="45.09694" lon="0.57584">
        <ele>145.6</ele>
        <time>2024-04-14T09:12:20Z</time>
      </trkpt>
      <trkpt lat="45.09693" lon="0.57588">
        <ele>146.2</ele>
        <time>2024-04-14T09:12:22Z</time>
      </trkpt>
      <trkpt lat="45.09693" lon="0.57592">
        <ele>146.6</ele>
        <time>2024-04-14T09:12:24Z</time>
      </trkpt>
      <trkpt lat="45.09692" lon="0.57596">
        <ele>147.2</ele>
        <time>2024-04-14T09:12:26Z</time>
      </trkpt>
      <trkpt lat="45.09691" lon="0.576">
        <ele>147.7</ele>
        <time>2024-04-14T09:12:28Z</time>
      </trkpt>
      <trkpt lat="45.0969" lon="0.57604">
        <ele>148.2</ele>
        <time>2024-04-14T09:12:30Z</time>
      </trkpt>
      <trkpt lat="45.0969" lon="0.57607">
        <ele>148.6</ele>
        <time>2024-04-14T09:12:32Z</time>
      </trkpt>
      <trkpt lat="45.0969" lon="0.57609">
        <ele>148.8</ele>
        <time>2024-04-14T09:12:33Z</time>
      </trkpt>
      <trkpt lat="45.09689" lon="0.57611">
        <ele>149</ele>
        <time>2024-04-14T09:12:34Z</time>
      </trkpt>
      <trkpt lat="45.09689" lon="0.57614">
        <ele>149.5</ele>
        <time>2024-04-14T09:12:36Z</time>
      </trkpt>
      <trkpt lat="45.09688" lon="0.57618">
        <ele>150</ele>
        <time>2024-04-14T09:12:38Z</time>
      </trkpt>
      <trkpt lat="45.09687" lon="0.57621">
        <ele>150.4</ele>
        <time>2024-04-14T09:12:40Z</time>
      </trkpt>
      <trkpt lat="45.09687" lon="0.57623">
        <ele>150.6</ele>
        <time>2024-04-14T09:12:41Z</time>
      </trkpt>
      <trkpt lat="45.09687" lon="0.57625">
        <ele>150.9</ele>
        <time>2024-04-14T09:12:42Z</time>
      </trkpt>
      <trkpt lat="45.09686" lon="0.57629">
        <ele>151.4</ele>
        <time>2024-04-14T09:12:44Z</time>
      </trkpt>
      <trkpt lat="45.09686" lon="0.57633">
        <ele>151.9</ele>
        <time>2024-04-14T09:12:46Z</time>
      </trkpt>
      <trkpt lat="45.09686" lon="0.57635">
        <ele>152.1</ele>
        <time>2024-04-14T09:12:47Z</time>
      </trkpt>
      <trkpt lat="45.09686" lon="0.57637">
        <ele>152.3</ele>
        <time>2024-04-14T09:12:48Z</time>
      </trkpt>
      <trkpt lat="45.09687" lon="0.57638">
        <ele>152.5</ele>
        <time>2024-04-14T09:12:49Z</time>
      </trkpt>
      <trkpt lat="45.09687" lon="0.5764">
        <ele>152.8</ele>
        <time>2024-04-14T09:12:50Z</time>
      </trkpt>
      <trkpt lat="45.09688" lon="0.57644">
        <ele>153.2</ele>
        <time>2024-04-14T09:12:52Z</time>
      </trkpt>
      <trkpt lat="45.09689" lon="0.57646">
        <ele>153.7</ele>
        <time>2024-04-14T09:12:54Z</time>
      </trkpt>
      <trkpt lat="45.0969" lon="0.57649">
        <ele>154.1</ele>
        <time>2024-04-14T09:12:56Z</time>
      </trkpt>
      <trkpt lat="45.09692" lon="0.57652">
        <ele>154.5</ele>
        <time>2024-04-14T09:12:58Z</time>
      </trkpt>
      <trkpt lat="45.09692" lon="0.57653">
        <ele>154.6</ele>
        <time>2024-04-14T09:12:59Z</time>
      </trkpt>
      <trkpt lat="45.09684" lon="0.57656">
        <ele>152.5</ele>
        <time>2024-04-14T09:13:05Z</time>
      </trkpt>
      <trkpt lat="45.09681" lon="0.57658">
        <ele>151.7</ele>
        <time>2024-04-14T09:13:06Z</time>
      </trkpt>
      <trkpt lat="45.09674" lon="0.57661">
        <ele>149.7</ele>
        <time>2024-04-14T09:13:08Z</time>
      </trkpt>
      <trkpt lat="45.09663" lon="0.57665">
        <ele>147</ele>
        <time>2024-04-14T09:13:10Z</time>
      </trkpt>
      <trkpt lat="45.09649" lon="0.5767">
        <ele>143.7</ele>
        <time>2024-04-14T09:13:12Z</time>
      </trkpt>
      <trkpt lat="45.09633" lon="0.57677">
        <ele>140.4</ele>
        <time>2024-04-14T09:13:14Z</time>
      </trkpt>
      <trkpt lat="45.09617" lon="0.57688">
        <ele>138.3</ele>
        <time>2024-04-14T09:13:16Z</time>
      </trkpt>
      <trkpt lat="45.09602" lon="0.57698">
        <ele>138.6</ele>
        <time>2024-04-14T09:13:18Z</time>
      </trkpt>
      <trkpt lat="45.09587" lon="0.57708">
        <ele>138</ele>
        <time>2024-04-14T09:13:20Z</time>
      </trkpt>
      <trkpt lat="45.09574" lon="0.57717">
        <ele>137.3</ele>
        <time>2024-04-14T09:13:22Z</time>
      </trkpt>
      <trkpt lat="45.09561" lon="0.57724">
        <ele>136.9</ele>
        <time>2024-04-14T09:13:24Z</time>
      </trkpt>
      <trkpt lat="45.09554" lon="0.57727">
        <ele>136.7</ele>
        <time>2024-04-14T09:13:25Z</time>
      </trkpt>
      <trkpt lat="45.09547" lon="0.57729">
        <ele>136.5</ele>
        <time>2024-04-14T09:13:26Z</time>
      </trkpt>
      <trkpt lat="45.09532" lon="0.57734">
        <ele>136.2</ele>
        <time>2024-04-14T09:13:28Z</time>
      </trkpt>
      <trkpt lat="45.09518" lon="0.5774">
        <ele>135.9</ele>
        <time>2024-04-14T09:13:30Z</time>
      </trkpt>
      <trkpt lat="45.09505" lon="0.57746">
        <ele>135.8</ele>
        <time>2024-04-14T09:13:32Z</time>
      </trkpt>
      <trkpt lat="45.09499" lon="0.57749">
        <ele>135.7</ele>
        <time>2024-04-14T09:13:33Z</time>
      </trkpt>
      <trkpt lat="45.09494" lon="0.57753">
        <ele>135.6</ele>
        <time>2024-04-14T09:13:34Z</time>
      </trkpt>
      <trkpt lat="45.09482" lon="0.57762">
        <ele>135.4</ele>
        <time>2024-04-14T09:13:36Z</time>
      </trkpt>
      <trkpt lat="45.09469" lon="0.57773">
        <ele>135.4</ele>
        <time>2024-04-14T09:13:38Z</time>
      </trkpt>
      <trkpt lat="45.09458" lon="0.57782">
        <ele>135.4</ele>
        <time>2024-04-14T09:13:40Z</time>
      </trkpt>
      <trkpt lat="45.09447" lon="0.57792">
        <ele>135.6</ele>
        <time>2024-04-14T09:13:42Z</time>
      </trkpt>
      <trkpt lat="45.09443" lon="0.57796">
        <ele>135.6</ele>
        <time>2024-04-14T09:13:43Z</time>
      </trkpt>
      <trkpt lat="45.09439" lon="0.57801">
        <ele>135.6</ele>
        <time>2024-04-14T09:13:44Z</time>
      </trkpt>
      <trkpt lat="45.09432" lon="0.57813">
        <ele>135.6</ele>
        <time>2024-04-14T09:13:46Z</time>
      </trkpt>
      <trkpt lat="45.0942" lon="0.57825">
        <ele>135.4</ele>
        <time>2024-04-14T09:13:48Z</time>
      </trkpt>
      <trkpt lat="45.09411" lon="0.57837">
        <ele>135.1</ele>
        <time>2024-04-14T09:13:50Z</time>
      </trkpt>
      <trkpt lat="45.094" lon="0.57847">
        <ele>134.8</ele>
        <time>2024-04-14T09:13:52Z</time>
      </trkpt>
      <trkpt lat="45.09392" lon="0.57853">
        <ele>134.6</ele>
        <time>2024-04-14T09:13:53Z</time>
      </trkpt>
      <trkpt lat="45.09386" lon="0.57859">
        <ele>134.3</ele>
        <time>2024-04-14T09:13:54Z</time>
      </trkpt>
      <trkpt lat="45.09381" lon="0.57866">
        <ele>134</ele>
        <time>2024-04-14T09:13:55Z</time>
      </trkpt>
      <trkpt lat="45.09376" lon="0.57874">
        <ele>133.6</ele>
        <time>2024-04-14T09:13:56Z</time>
      </trkpt>
      <trkpt lat="45.09372" lon="0.57884">
        <ele>133</ele>
        <time>2024-04-14T09:13:57Z</time>
      </trkpt>
      <trkpt lat="45.09368" lon="0.57893">
        <ele>132.5</ele>
        <time>2024-04-14T09:13:58Z</time>
      </trkpt>
      <trkpt lat="45.09364" lon="0.57902">
        <ele>132</ele>
        <time>2024-04-14T09:13:59Z</time>
      </trkpt>
      <trkpt lat="45.09362" lon="0.57912">
        <ele>131.7</ele>
        <time>2024-04-14T09:14:00Z</time>
      </trkpt>
      <trkpt lat="45.09358" lon="0.57932">
        <ele>130.9</ele>
        <time>2024-04-14T09:14:02Z</time>
      </trkpt>
      <trkpt lat="45.09353" lon="0.57953">
        <ele>130</ele>
        <time>2024-04-14T09:14:04Z</time>
      </trkpt>
      <trkpt lat="45.0935" lon="0.57964">
        <ele>129.4</ele>
        <time>2024-04-14T09:14:05Z</time>
      </trkpt>
      <trkpt lat="45.09347" lon="0.57977">
        <ele>128.5</ele>
        <time>2024-04-14T09:14:06Z</time>
      </trkpt>
      <trkpt lat="45.0934" lon="0.58005">
        <ele>126.2</ele>
        <time>2024-04-14T09:14:08Z</time>
      </trkpt>
      <trkpt lat="45.09331" lon="0.58036">
        <ele>123.3</ele>
        <time>2024-04-14T09:14:10Z</time>
      </trkpt>
      <trkpt lat="45.09322" lon="0.58066">
        <ele>120.8</ele>
        <time>2024-04-14T09:14:12Z</time>
      </trkpt>
      <trkpt lat="45.09319" lon="0.5808">
        <ele>120</ele>
        <time>2024-04-14T09:14:13Z</time>
      </trkpt>
      <trkpt lat="45.09314" lon="0.58091">
        <ele>119.4</ele>
        <time>2024-04-14T09:14:14Z</time>
      </trkpt>
      <trkpt lat="45.09309" lon="0.58101">
        <ele>118.9</ele>
        <time>2024-04-14T09:14:15Z</time>
      </trkpt>
      <trkpt lat="45.09304" lon="0.5811">
        <ele>118.5</ele>
        <time>2024-04-14T09:14:16Z</time>
      </trkpt>
      <trkpt lat="45.09298" lon="0.58118">
        <ele>118</ele>
        <time>2024-04-14T09:14:17Z</time>
      </trkpt>
      <trkpt lat="45.09292" lon="0.58125">
        <ele>117.7</ele>
        <time>2024-04-14T09:14:18Z</time>
      </trkpt>
      <trkpt lat="45.09287" lon="0.58131">
        <ele>117.4</ele>
        <time>2024-04-14T09:14:19Z</time>
      </trkpt>
      <trkpt lat="45.09281" lon="0.58136">
        <ele>117.2</ele>
        <time>2024-04-14T09:14:20Z</time>
      </trkpt>
      <trkpt lat="45.09276" lon="0.5814">
        <ele>117</ele>
        <time>2024-04-14T09:14:21Z</time>
      </trkpt>
      <trkpt lat="45.09272" lon="0.58145">
        <ele>116.8</ele>
        <time>2024-04-14T09:14:22Z</time>
      </trkpt>
      <trkpt lat="45.09265" lon="0.58153">
        <ele>116.5</ele>
        <time>2024-04-14T09:14:24Z</time>
      </trkpt>
      <trkpt lat="45.09262" lon="0.58157">
        <ele>116.4</ele>
        <time>2024-04-14T09:14:25Z</time>
      </trkpt>
      <trkpt lat="45.09259" lon="0.5816">
        <ele>116.3</ele>
        <time>2024-04-14T09:14:26Z</time>
      </trkpt>
      <trkpt lat="45.09253" lon="0.58167">
        <ele>116.1</ele>
        <time>2024-04-14T09:14:28Z</time>
      </trkpt>
      <trkpt lat="45.09246" lon="0.58176">
        <ele>115.8</ele>
        <time>2024-04-14T09:14:30Z</time>
      </trkpt>
      <trkpt lat="45.09243" lon="0.5818">
        <ele>115.7</ele>
        <time>2024-04-14T09:14:31Z</time>
      </trkpt>
      <trkpt lat="45.0924" lon="0.58184">
        <ele>115.5</ele>
        <time>2024-04-14T09:14:32Z</time>
      </trkpt>
      <trkpt lat="45.09234" lon="0.58192">
        <ele>115.1</ele>
        <time>2024-04-14T09:14:34Z</time>
      </trkpt>
      <trkpt lat="45.09228" lon="0.58199">
        <ele>114.7</ele>
        <time>2024-04-14T09:14:36Z</time>
      </trkpt>
      <trkpt lat="45.09221" lon="0.58206">
        <ele>114.2</ele>
        <time>2024-04-14T09:14:38Z</time>
      </trkpt>
      <trkpt lat="45.09218" lon="0.5821">
        <ele>113.9</ele>
        <time>2024-04-14T09:14:39Z</time>
      </trkpt>
      <trkpt lat="45.09214" lon="0.58213">
        <ele>113.6</ele>
        <time>2024-04-14T09:14:40Z</time>
      </trkpt>
      <trkpt lat="45.09203" lon="0.58219">
        <ele>112.9</ele>
        <time>2024-04-14T09:14:42Z</time>
      </trkpt>
      <trkpt lat="45.09197" lon="0.58223">
        <ele>112.5</ele>
        <time>2024-04-14T09:14:43Z</time>
      </trkpt>
      <trkpt lat="45.0919" lon="0.58226">
        <ele>112.2</ele>
        <time>2024-04-14T09:14:44Z</time>
      </trkpt>
      <trkpt lat="45.09177" lon="0.58234">
        <ele>112.1</ele>
        <time>2024-04-14T09:14:46Z</time>
      </trkpt>
      <trkpt lat="45.09168" lon="0.58244">
        <ele>112.5</ele>
        <time>2024-04-14T09:14:48Z</time>
      </trkpt>
      <trkpt lat="45.09161" lon="0.58252">
        <ele>113</ele>
        <time>2024-04-14T09:14:50Z</time>
      </trkpt>
      <trkpt lat="45.09158" lon="0.58257">
        <ele>113.4</ele>
        <time>2024-04-14T09:14:52Z</time>
      </trkpt>
      <trkpt lat="45.09157" lon="0.58259">
        <ele>113.6</ele>
        <time>2024-04-14T09:14:54Z</time>
      </trkpt>
      <trkpt lat="45.09155" lon="0.58262">
        <ele>114</ele>
        <time>2024-04-14T09:14:56Z</time>
      </trkpt>
      <trkpt lat="45.09154" lon="0.58263">
        <ele>114.1</ele>
        <time>2024-04-14T09:14:57Z</time>
      </trkpt>
      <trkpt lat="45.09153" lon="0.58265">
        <ele>114.3</ele>
        <time>2024-04-14T09:14:58Z</time>
      </trkpt>
      <trkpt lat="45.09151" lon="0.58267">
        <ele>114.6</ele>
        <time>2024-04-14T09:15:00Z</time>
      </trkpt>
      <trkpt lat="45.09149" lon="0.58269">
        <ele>115</ele>
        <time>2024-04-14T09:15:02Z</time>
      </trkpt>
      <trkpt lat="45.09147" lon="0.58271">
        <ele>115.3</ele>
        <time>2024-04-14T09:15:04Z</time>
      </trkpt>
      <trkpt lat="45.09146" lon="0.58274">
        <ele>115.7</ele>
        <time>2024-04-14T09:15:06Z</time>
      </trkpt>
      <trkpt lat="45.09145" lon="0.58277">
        <ele>116.1</ele>
        <time>2024-04-14T09:15:08Z</time>
      </trkpt>
      <trkpt lat="45.09143" lon="0.58279">
        <ele>116.5</ele>
        <time>2024-04-14T09:15:10Z</time>
      </trkpt>
      <trkpt lat="45.0914" lon="0.5828">
        <ele>117</ele>
        <time>2024-04-14T09:15:12Z</time>
      </trkpt>
      <trkpt lat="45.09139" lon="0.58281">
        <ele>117.2</ele>
        <time>2024-04-14T09:15:14Z</time>
      </trkpt>
      <trkpt lat="45.09067" lon="0.58395">
        <ele>139</ele>
        <time>2024-04-14T09:17:19Z</time>
      </trkpt>
      <trkpt lat="45.09066" lon="0.58398">
        <ele>138.9</ele>
        <time>2024-04-14T09:17:20Z</time>
      </trkpt>
      <trkpt lat="45.09062" lon="0.58404">
        <ele>138.7</ele>
        <time>2024-04-14T09:17:22Z</time>
      </trkpt>
      <trkpt lat="45.09061" lon="0.58409">
        <ele>138.4</ele>
        <time>2024-04-14T09:17:23Z</time>
      </trkpt>
      <trkpt lat="45.09059" lon="0.58414">
        <ele>138</ele>
        <time>2024-04-14T09:17:24Z</time>
      </trkpt>
      <trkpt lat="45.09047" lon="0.58429">
        <ele>135.9</ele>
        <time>2024-04-14T09:17:26Z</time>
      </trkpt>
      <trkpt lat="45.09034" lon="0.58446">
        <ele>133.7</ele>
        <time>2024-04-14T09:17:28Z</time>
      </trkpt>
      <trkpt lat="45.09021" lon="0.58462">
        <ele>131.6</ele>
        <time>2024-04-14T09:17:30Z</time>
      </trkpt>
      <trkpt lat="45.09013" lon="0.58475">
        <ele>129.7</ele>
        <time>2024-04-14T09:17:32Z</time>
      </trkpt>
      <trkpt lat="45.09006" lon="0.58486">
        <ele>128</ele>
        <time>2024-04-14T09:17:34Z</time>
      </trkpt>
      <trkpt lat="45.09004" lon="0.58491">
        <ele>127.3</ele>
        <time>2024-04-14T09:17:35Z</time>
      </trkpt>
      <trkpt lat="45.09" lon="0.58496">
        <ele>126.5</ele>
        <time>2024-04-14T09:17:36Z</time>
      </trkpt>
      <trkpt lat="45.08993" lon="0.58506">
        <ele>124.9</ele>
        <time>2024-04-14T09:17:38Z</time>
      </trkpt>
      <trkpt lat="45.08987" lon="0.58516">
        <ele>123.4</ele>
        <time>2024-04-14T09:17:40Z</time>
      </trkpt>
      <trkpt lat="45.08984" lon="0.58522">
        <ele>122.5</ele>
        <time>2024-04-14T09:17:41Z</time>
      </trkpt>
      <trkpt lat="45.08981" lon="0.58529">
        <ele>121.6</ele>
        <time>2024-04-14T09:17:42Z</time>
      </trkpt>
      <trkpt lat="45.08974" lon="0.58542">
        <ele>119.7</ele>
        <time>2024-04-14T09:17:44Z</time>
      </trkpt>
      <trkpt lat="45.08967" lon="0.58557">
        <ele>117.8</ele>
        <time>2024-04-14T09:17:46Z</time>
      </trkpt>
      <trkpt lat="45.08963" lon="0.58564">
        <ele>116.9</ele>
        <time>2024-04-14T09:17:47Z</time>
      </trkpt>
      <trkpt lat="45.0896" lon="0.5857">
        <ele>116.2</ele>
        <time>2024-04-14T09:17:48Z</time>
      </trkpt>
      <trkpt lat="45.08953" lon="0.58582">
        <ele>114.8</ele>
        <time>2024-04-14T09:17:50Z</time>
      </trkpt>
      <trkpt lat="45.08949" lon="0.58587">
        <ele>114.1</ele>
        <time>2024-04-14T09:17:51Z</time>
      </trkpt>
      <trkpt lat="45.08944" lon="0.58594">
        <ele>113.2</ele>
        <time>2024-04-14T09:17:52Z</time>
      </trkpt>
      <trkpt lat="45.08941" lon="0.586">
        <ele>112.4</ele>
        <time>2024-04-14T09:17:53Z</time>
      </trkpt>
      <trkpt lat="45.08939" lon="0.58607">
        <ele>111.7</ele>
        <time>2024-04-14T09:17:54Z</time>
      </trkpt>
      <trkpt lat="45.08937" lon="0.58613">
        <ele>111</ele>
        <time>2024-04-14T09:17:55Z</time>
      </trkpt>
      <trkpt lat="45.08934" lon="0.5862">
        <ele>110.3</ele>
        <time>2024-04-14T09:17:56Z</time>
      </trkpt>
      <trkpt lat="45.08932" lon="0.58629">
        <ele>109.2</ele>
        <time>2024-04-14T09:17:58Z</time>
      </trkpt>
      <trkpt lat="45.08932" lon="0.58633">
        <ele>108.8</ele>
        <time>2024-04-14T09:17:59Z</time>
      </trkpt>
      <trkpt lat="45.08927" lon="0.58636">
        <ele>102</ele>
        <time>2024-04-14T09:18:00Z</time>
      </trkpt>
      <trkpt lat="45.08922" lon="0.58637">
        <ele>100.9</ele>
        <time>2024-04-14T09:18:02Z</time>
      </trkpt>
      <trkpt lat="45.08916" lon="0.58636">
        <ele>100.9</ele>
        <time>2024-04-14T09:18:04Z</time>
      </trkpt>
      <trkpt lat="45.08912" lon="0.58634">
        <ele>100.8</ele>
        <time>2024-04-14T09:18:06Z</time>
      </trkpt>
      <trkpt lat="45.0891" lon="0.58632">
        <ele>100.8</ele>
        <time>2024-04-14T09:18:07Z</time>
      </trkpt>
      <trkpt lat="45.08907" lon="0.58631">
        <ele>100.8</ele>
        <time>2024-04-14T09:18:08Z</time>
      </trkpt>
      <trkpt lat="45.08901" lon="0.58629">
        <ele>100.8</ele>
        <time>2024-04-14T09:18:10Z</time>
      </trkpt>
      <trkpt lat="45.08896" lon="0.58629">
        <ele>100.8</ele>
        <time>2024-04-14T09:18:12Z</time>
      </trkpt>
      <trkpt lat="45.08893" lon="0.58629">
        <ele>100.8</ele>
        <time>2024-04-14T09:18:13Z</time>
      </trkpt>
      <trkpt lat="45.0889" lon="0.58631">
        <ele>100.8</ele>
        <time>2024-04-14T09:18:14Z</time>
      </trkpt>
      <trkpt lat="45.08885" lon="0.58636">
        <ele>100.8</ele>
        <time>2024-04-14T09:18:16Z</time>
      </trkpt>
      <trkpt lat="45.08883" lon="0.5864">
        <ele>100.8</ele>
        <time>2024-04-14T09:18:17Z</time>
      </trkpt>
      <trkpt lat="45.08881" lon="0.58644">
        <ele>100.8</ele>
        <time>2024-04-14T09:18:18Z</time>
      </trkpt>
      <trkpt lat="45.08876" lon="0.58651">
        <ele>100.7</ele>
        <time>2024-04-14T09:18:20Z</time>
      </trkpt>
      <trkpt lat="45.08871" lon="0.58659">
        <ele>100.8</ele>
        <time>2024-04-14T09:18:22Z</time>
      </trkpt>
      <trkpt lat="45.08866" lon="0.58666">
        <ele>101</ele>
        <time>2024-04-14T09:18:24Z</time>
      </trkpt>
      <trkpt lat="45.08863" lon="0.58674">
        <ele>101.2</ele>
        <time>2024-04-14T09:18:26Z</time>
      </trkpt>
      <trkpt lat="45.08861" lon="0.5868">
        <ele>101.2</ele>
        <time>2024-04-14T09:18:28Z</time>
      </trkpt>
      <trkpt lat="45.0886" lon="0.58685">
        <ele>101.3</ele>
        <time>2024-04-14T09:18:30Z</time>
      </trkpt>
      <trkpt lat="45.08859" lon="0.5869">
        <ele>101.4</ele>
        <time>2024-04-14T09:18:32Z</time>
      </trkpt>
      <trkpt lat="45.08859" lon="0.58692">
        <ele>101.4</ele>
        <time>2024-04-14T09:18:33Z</time>
      </trkpt>
      <trkpt lat="45.08859" lon="0.58695">
        <ele>101.5</ele>
        <time>2024-04-14T09:18:34Z</time>
      </trkpt>
      <trkpt lat="45.08858" lon="0.58699">
        <ele>101.7</ele>
        <time>2024-04-14T09:18:36Z</time>
      </trkpt>
      <trkpt lat="45.08858" lon="0.58702">
        <ele>102</ele>
        <time>2024-04-14T09:18:38Z</time>
      </trkpt>
      <trkpt lat="45.08857" lon="0.58704">
        <ele>102.1</ele>
        <time>2024-04-14T09:18:39Z</time>
      </trkpt>
      <trkpt lat="45.08857" lon="0.58706">
        <ele>102.3</ele>
        <time>2024-04-14T09:18:40Z</time>
      </trkpt>
      <trkpt lat="45.08855" lon="0.5871">
        <ele>102.6</ele>
        <time>2024-04-14T09:18:42Z</time>
      </trkpt>
      <trkpt lat="45.08854" lon="0.58713">
        <ele>103</ele>
        <time>2024-04-14T09:18:44Z</time>
      </trkpt>
      <trkpt lat="45.08853" lon="0.58716">
        <ele>103.3</ele>
        <time>2024-04-14T09:18:46Z</time>
      </trkpt>
      <trkpt lat="45.08851" lon="0.58719">
        <ele>103.6</ele>
        <time>2024-04-14T09:18:48Z</time>
      </trkpt>
      <trkpt lat="45.0885" lon="0.58723">
        <ele>104.1</ele>
        <time>2024-04-14T09:18:50Z</time>
      </trkpt>
      <trkpt lat="45.0885" lon="0.58726">
        <ele>104.4</ele>
        <time>2024-04-14T09:18:52Z</time>
      </trkpt>
      <trkpt lat="45.0885" lon="0.58727">
        <ele>104.6</ele>
        <time>2024-04-14T09:18:53Z</time>
      </trkpt>
      <trkpt lat="45.0885" lon="0.58729">
        <ele>104.8</ele>
        <time>2024-04-14T09:18:54Z</time>
      </trkpt>
      <trkpt lat="45.0885" lon="0.58732">
        <ele>105.1</ele>
        <time>2024-04-14T09:18:56Z</time>
      </trkpt>
      <trkpt lat="45.08849" lon="0.58733">
        <ele>105.3</ele>
        <time>2024-04-14T09:18:57Z</time>
      </trkpt>
      <trkpt lat="45.08849" lon="0.58734">
        <ele>105.4</ele>
        <time>2024-04-14T09:18:58Z</time>
      </trkpt>
      <trkpt lat="45.08848" lon="0.58736">
        <ele>105.8</ele>
        <time>2024-04-14T09:19:00Z</time>
      </trkpt>
      <trkpt lat="45.08847" lon="0.58739">
        <ele>106.1</ele>
        <time>2024-04-14T09:19:02Z</time>
      </trkpt>
      <trkpt lat="45.08847" lon="0.58739">
        <ele>106.2</ele>
        <time>2024-04-14T09:19:03Z</time>
      </trkpt>
      <trkpt lat="45.08848" lon="0.5874">
        <ele>106.4</ele>
        <time>2024-04-14T09:19:04Z</time>
      </trkpt>
      <trkpt lat="45.08849" lon="0.58743">
        <ele>106.8</ele>
        <time>2024-04-14T09:19:06Z</time>
      </trkpt>
      <trkpt lat="45.0885" lon="0.58745">
        <ele>107.1</ele>
        <time>2024-04-14T09:19:08Z</time>
      </trkpt>
      <trkpt lat="45.08848" lon="0.58746">
        <ele>107.4</ele>
        <time>2024-04-14T09:19:10Z</time>
      </trkpt>
      <trkpt lat="45.08847" lon="0.58747">
        <ele>107.7</ele>
        <time>2024-04-14T09:19:12Z</time>
      </trkpt>
      <trkpt lat="45.08807" lon="0.59045">
        <ele>148.8</ele>
        <time>2024-04-14T09:25:21Z</time>
      </trkpt>
      <trkpt lat="45.08808" lon="0.59047">
        <ele>149.1</ele>
        <time>2024-04-14T09:25:22Z</time>
      </trkpt>
      <trkpt lat="45.08809" lon="0.59051">
        <ele>149.5</ele>
        <time>2024-04-14T09:25:24Z</time>
      </trkpt>
      <trkpt lat="45.08809" lon="0.59056">
        <ele>150.1</ele>
        <time>2024-04-14T09:25:26Z</time>
      </trkpt>
      <trkpt lat="45.0881" lon="0.59059">
        <ele>150.5</ele>
        <time>2024-04-14T09:25:28Z</time>
      </trkpt>
      <trkpt lat="45.0881" lon="0.59059">
        <ele>150.5</ele>
        <time>2024-04-14T09:25:29Z</time>
      </trkpt>
      <trkpt lat="45.08809" lon="0.59075">
        <ele>152.2</ele>
        <time>2024-04-14T09:25:37Z</time>
      </trkpt>
      <trkpt lat="45.0881" lon="0.59076">
        <ele>152.4</ele>
        <time>2024-04-14T09:25:38Z</time>
      </trkpt>
      <trkpt lat="45.08812" lon="0.59079">
        <ele>152.8</ele>
        <time>2024-04-14T09:25:40Z</time>
      </trkpt>
      <trkpt lat="45.08814" lon="0.59082">
        <ele>153.2</ele>
        <time>2024-04-14T09:25:42Z</time>
      </trkpt>
      <trkpt lat="45.08815" lon="0.59085">
        <ele>153.6</ele>
        <time>2024-04-14T09:25:44Z</time>
      </trkpt>
      <trkpt lat="45.08814" lon="0.59088">
        <ele>153.9</ele>
        <time>2024-04-14T09:25:46Z</time>
      </trkpt>
      <trkpt lat="45.08814" lon="0.59091">
        <ele>154.2</ele>
        <time>2024-04-14T09:25:48Z</time>
      </trkpt>
      <trkpt lat="45.08814" lon="0.59095">
        <ele>154.6</ele>
        <time>2024-04-14T09:25:50Z</time>
      </trkpt>
      <trkpt lat="45.08814" lon="0.591">
        <ele>155</ele>
        <time>2024-04-14T09:25:52Z</time>
      </trkpt>
      <trkpt lat="45.08814" lon="0.59104">
        <ele>155.3</ele>
        <time>2024-04-14T09:25:54Z</time>
      </trkpt>
      <trkpt lat="45.08813" lon="0.59107">
        <ele>155.5</ele>
        <time>2024-04-14T09:25:55Z</time>
      </trkpt>
      <trkpt lat="45.08813" lon="0.59109">
        <ele>155.7</ele>
        <time>2024-04-14T09:25:56Z</time>
      </trkpt>
      <trkpt lat="45.08813" lon="0.59112">
        <ele>155.8</ele>
        <time>2024-04-14T09:25:57Z</time>
      </trkpt>
      <trkpt lat="45.08814" lon="0.59114">
        <ele>156</ele>
        <time>2024-04-14T09:25:58Z</time>
      </trkpt>
      <trkpt lat="45.08814" lon="0.59116">
        <ele>156.1</ele>
        <time>2024-04-14T09:25:59Z</time>
      </trkpt>
      <trkpt lat="45.08815" lon="0.59118">
        <ele>156.3</ele>
        <time>2024-04-14T09:26:00Z</time>
      </trkpt>
      <trkpt lat="45.08817" lon="0.5912">
        <ele>156.5</ele>
        <time>2024-04-14T09:26:02Z</time>
      </trkpt>
      <trkpt lat="45.08816" lon="0.59122">
        <ele>156.6</ele>
        <time>2024-04-14T09:26:03Z</time>
      </trkpt>
      <trkpt lat="45.08816" lon="0.59123">
        <ele>156.6</ele>
        <time>2024-04-14T09:26:04Z</time>
      </trkpt>
      <trkpt lat="45.08816" lon="0.59125">
        <ele>156.8</ele>
        <time>2024-04-14T09:26:06Z</time>
      </trkpt>
      <trkpt lat="45.08817" lon="0.59129">
        <ele>157</ele>
        <time>2024-04-14T09:26:08Z</time>
      </trkpt>
      <trkpt lat="45.08817" lon="0.5913">
        <ele>157.1</ele>
        <time>2024-04-14T09:26:09Z</time>
      </trkpt>
      <trkpt lat="45.08818" lon="0.59132">
        <ele>157.2</ele>
        <time>2024-04-14T09:26:10Z</time>
      </trkpt>
      <trkpt lat="45.08819" lon="0.59134">
        <ele>157.4</ele>
        <time>2024-04-14T09:26:11Z</time>
      </trkpt>
      <trkpt lat="45.0882" lon="0.59136">
        <ele>157.5</ele>
        <time>2024-04-14T09:26:12Z</time>
      </trkpt>
      <trkpt lat="45.0882" lon="0.59138">
        <ele>157.7</ele>
        <time>2024-04-14T09:26:13Z</time>
      </trkpt>
      <trkpt lat="45.08821" lon="0.5914">
        <ele>157.8</ele>
        <time>2024-04-14T09:26:14Z</time>
      </trkpt>
      <trkpt lat="45.08821" lon="0.59142">
        <ele>157.9</ele>
        <time>2024-04-14T09:26:15Z</time>
      </trkpt>
      <trkpt lat="45.08822" lon="0.59143">
        <ele>158</ele>
        <time>2024-04-14T09:26:16Z</time>
      </trkpt>
      <trkpt lat="45.08823" lon="0.59148">
        <ele>158.4</ele>
        <time>2024-04-14T09:26:18Z</time>
      </trkpt>
      <trkpt lat="45.08823" lon="0.59151">
        <ele>158.6</ele>
        <time>2024-04-14T09:26:20Z</time>
      </trkpt>
      <trkpt lat="45.08824" lon="0.59152">
        <ele>158.7</ele>
        <time>2024-04-14T09:26:21Z</time>
      </trkpt>
      <trkpt lat="45.08825" lon="0.59154">
        <ele>158.8</ele>
        <time>2024-04-14T09:26:22Z</time>
      </trkpt>
      <trkpt lat="45.08827" lon="0.59157">
        <ele>159.1</ele>
        <time>2024-04-14T09:26:24Z</time>
      </trkpt>
      <trkpt lat="45.08828" lon="0.5916">
        <ele>159.3</ele>
        <time>2024-04-14T09:26:26Z</time>
      </trkpt>
      <trkpt lat="45.0883" lon="0.59164">
        <ele>159.6</ele>
        <time>2024-04-14T09:26:28Z</time>
      </trkpt>
      <trkpt lat="45.08831" lon="0.59166">
        <ele>159.8</ele>
        <time>2024-04-14T09:26:30Z</time>
      </trkpt>
      <trkpt lat="45.08832" lon="0.59168">
        <ele>159.9</ele>
        <time>2024-04-14T09:26:31Z</time>
      </trkpt>
      <trkpt lat="45.08833" lon="0.59169">
        <ele>160</ele>
        <time>2024-04-14T09:26:32Z</time>
      </trkpt>
      <trkpt lat="45.08835" lon="0.59172">
        <ele>160.3</ele>
        <time>2024-04-14T09:26:34Z</time>
      </trkpt>
      <trkpt lat="45.08838" lon="0.59176">
        <ele>160.6</ele>
        <time>2024-04-14T09:26:36Z</time>
      </trkpt>
      <trkpt lat="45.08839" lon="0.59177">
        <ele>160.7</ele>
        <time>2024-04-14T09:26:37Z</time>
      </trkpt>
      <trkpt lat="45.0884" lon="0.59179">
        <ele>160.9</ele>
        <time>2024-04-14T09:26:38Z</time>
      </trkpt>
      <trkpt lat="45.08842" lon="0.59181">
        <ele>161.1</ele>
        <time>2024-04-14T09:26:40Z</time>
      </trkpt>
      <trkpt lat="45.08843" lon="0.59183">
        <ele>161.2</ele>
        <time>2024-04-14T09:26:41Z</time>
      </trkpt>
      <trkpt lat="45.08844" lon="0.59185">
        <ele>161.3</ele>
        <time>2024-04-14T09:26:42Z</time>
      </trkpt>
      <trkpt lat="45.08845" lon="0.59189">
        <ele>161.6</ele>
        <time>2024-04-14T09:26:44Z</time>
      </trkpt>
      <trkpt lat="45.08847" lon="0.59191">
        <ele>161.8</ele>
        <time>2024-04-14T09:26:46Z</time>
      </trkpt>
      <trkpt lat="45.08849" lon="0.59194">
        <ele>162.1</ele>
        <time>2024-04-14T09:26:48Z</time>
      </trkpt>
      <trkpt lat="45.08853" lon="0.59196">
        <ele>162.4</ele>
        <time>2024-04-14T09:26:50Z</time>
      </trkpt>
      <trkpt lat="45.08854" lon="0.59198">
        <ele>162.5</ele>
        <time>2024-04-14T09:26:51Z</time>
      </trkpt>
      <trkpt lat="45.08855" lon="0.59199">
        <ele>162.7</ele>
        <time>2024-04-14T09:26:52Z</time>
      </trkpt>
      <trkpt lat="45.08857" lon="0.59202">
        <ele>163</ele>
        <time>2024-04-14T09:26:54Z</time>
      </trkpt>
      <trkpt lat="45.08858" lon="0.59203">
        <ele>163.1</ele>
        <time>2024-04-14T09:26:55Z</time>
      </trkpt>
      <trkpt lat="45.0886" lon="0.59205">
        <ele>163.3</ele>
        <time>2024-04-14T09:26:56Z</time>
      </trkpt>
      <trkpt lat="45.08863" lon="0.59208">
        <ele>163.7</ele>
        <time>2024-04-14T09:26:58Z</time>
      </trkpt>
      <trkpt lat="45.08866" lon="0.59211">
        <ele>164</ele>
        <time>2024-04-14T09:27:00Z</time>
      </trkpt>
      <trkpt lat="45.08869" lon="0.59214">
        <ele>164.4</ele>
        <time>2024-04-14T09:27:02Z</time>
      </trkpt>
      <trkpt lat="45.08872" lon="0.59217">
        <ele>164.7</ele>
        <time>2024-04-14T09:27:04Z</time>
      </trkpt>
      <trkpt lat="45.08877" lon="0.5922">
        <ele>165.2</ele>
        <time>2024-04-14T09:27:06Z</time>
      </trkpt>
      <trkpt lat="45.08879" lon="0.59223">
        <ele>165.5</ele>
        <time>2024-04-14T09:27:08Z</time>
      </trkpt>
      <trkpt lat="45.08883" lon="0.59225">
        <ele>165.9</ele>
        <time>2024-04-14T09:27:10Z</time>
      </trkpt>
      <trkpt lat="45.08886" lon="0.59228">
        <ele>166.2</ele>
        <time>2024-04-14T09:27:12Z</time>
      </trkpt>
      <trkpt lat="45.08888" lon="0.59231">
        <ele>166.5</ele>
        <time>2024-04-14T09:27:14Z</time>
      </trkpt>
      <trkpt lat="45.08891" lon="0.59233">
        <ele>166.9</ele>
        <time>2024-04-14T09:27:16Z</time>
      </trkpt>
      <trkpt lat="45.08894" lon="0.59235">
        <ele>167.2</ele>
        <time>2024-04-14T09:27:18Z</time>
      </trkpt>
      <trkpt lat="45.08899" lon="0.59238">
        <ele>167.7</ele>
        <time>2024-04-14T09:27:20Z</time>
      </trkpt>
      <trkpt lat="45.089" lon="0.5924">
        <ele>167.9</ele>
        <time>2024-04-14T09:27:21Z</time>
      </trkpt>
      <trkpt lat="45.08902" lon="0.59241">
        <ele>168.1</ele>
        <time>2024-04-14T09:27:22Z</time>
      </trkpt>
      <trkpt lat="45.08904" lon="0.59245">
        <ele>168.4</ele>
        <time>2024-04-14T09:27:24Z</time>
      </trkpt>
      <trkpt lat="45.08907" lon="0.59246">
        <ele>168.7</ele>
        <time>2024-04-14T09:27:25Z</time>
      </trkpt>
      <trkpt lat="45.0891" lon="0.59251">
        <ele>169.1</ele>
        <time>2024-04-14T09:27:28Z</time>
      </trkpt>
      <trkpt lat="45.08913" lon="0.59254">
        <ele>169.5</ele>
        <time>2024-04-14T09:27:30Z</time>
      </trkpt>
      <trkpt lat="45.08915" lon="0.59257">
        <ele>169.8</ele>
        <time>2024-04-14T09:27:32Z</time>
      </trkpt>
      <trkpt lat="45.08918" lon="0.5926">
        <ele>170</ele>
        <time>2024-04-14T09:27:34Z</time>
      </trkpt>
      <trkpt lat="45.08919" lon="0.59261">
        <ele>170.1</ele>
        <time>2024-04-14T09:27:35Z</time>
      </trkpt>
      <trkpt lat="45.0892" lon="0.59263">
        <ele>170.3</ele>
        <time>2024-04-14T09:27:36Z</time>
      </trkpt>
      <trkpt lat="45.0892" lon="0.59264">
        <ele>170.4</ele>
        <time>2024-04-14T09:27:37Z</time>
      </trkpt>
      <trkpt lat="45.08922" lon="0.59266">
        <ele>170.6</ele>
        <time>2024-04-14T09:27:38Z</time>
      </trkpt>
      <trkpt lat="45.08924" lon="0.59271">
        <ele>170.9</ele>
        <time>2024-04-14T09:27:40Z</time>
      </trkpt>
      <trkpt lat="45.08927" lon="0.59274">
        <ele>171.2</ele>
        <time>2024-04-14T09:27:42Z</time>
      </trkpt>
      <trkpt lat="45.08929" lon="0.59278">
        <ele>171.5</ele>
        <time>2024-04-14T09:27:44Z</time>
      </trkpt>
      <trkpt lat="45.08931" lon="0.59282">
        <ele>171.8</ele>
        <time>2024-04-14T09:27:46Z</time>
      </trkpt>
      <trkpt lat="45.08933" lon="0.59285">
        <ele>172.1</ele>
        <time>2024-04-14T09:27:48Z</time>
      </trkpt>
      <trkpt lat="45.08934" lon="0.59289">
        <ele>172.3</ele>
        <time>2024-04-14T09:27:50Z</time>
      </trkpt>
      <trkpt lat="45.08934" lon="0.59292">
        <ele>172.5</ele>
        <time>2024-04-14T09:27:52Z</time>
      </trkpt>
      <trkpt lat="45.08935" lon="0.59298">
        <ele>172.9</ele>
        <time>2024-04-14T09:27:54Z</time>
      </trkpt>
      <trkpt lat="45.08938" lon="0.59302">
        <ele>173.2</ele>
        <time>2024-04-14T09:27:56Z</time>
      </trkpt>
      <trkpt lat="45.08938" lon="0.59304">
        <ele>173.4</ele>
        <time>2024-04-14T09:27:57Z</time>
      </trkpt>
      <trkpt lat="45.08939" lon="0.59307">
        <ele>173.6</ele>
        <time>2024-04-14T09:27:58Z</time>
      </trkpt>
      <trkpt lat="45.08942" lon="0.59311">
        <ele>173.9</ele>
        <time>2024-04-14T09:28:00Z</time>
      </trkpt>
      <trkpt lat="45.08943" lon="0.59316">
        <ele>174.3</ele>
        <time>2024-04-14T09:28:02Z</time>
      </trkpt>
      <trkpt lat="45.08944" lon="0.59319">
        <ele>174.4</ele>
        <time>2024-04-14T09:28:03Z</time>
      </trkpt>
      <trkpt lat="45.08944" lon="0.59321">
        <ele>174.6</ele>
        <time>2024-04-14T09:28:04Z</time>
      </trkpt>
      <trkpt lat="45.08944" lon="0.59323">
        <ele>174.7</ele>
        <time>2024-04-14T09:28:05Z</time>
      </trkpt>
      <trkpt lat="45.08944" lon="0.59325">
        <ele>174.8</ele>
        <time>2024-04-14T09:28:06Z</time>
      </trkpt>
      <trkpt lat="45.08944" lon="0.59328">
        <ele>174.9</ele>
        <time>2024-04-14T09:28:07Z</time>
      </trkpt>
      <trkpt lat="45.08944" lon="0.5933">
        <ele>175.1</ele>
        <time>2024-04-14T09:28:08Z</time>
      </trkpt>
      <trkpt lat="45.08945" lon="0.59335">
        <ele>175.3</ele>
        <time>2024-04-14T09:28:10Z</time>
      </trkpt>
      <trkpt lat="45.08946" lon="0.5934">
        <ele>175.6</ele>
        <time>2024-04-14T09:28:12Z</time>
      </trkpt>
      <trkpt lat="45.08948" lon="0.59345">
        <ele>175.9</ele>
        <time>2024-04-14T09:28:14Z</time>
      </trkpt>
      <trkpt lat="45.0895" lon="0.5935">
        <ele>176.3</ele>
        <time>2024-04-14T09:28:16Z</time>
      </trkpt>
      <trkpt lat="45.08951" lon="0.59352">
        <ele>176.4</ele>
        <time>2024-04-14T09:28:17Z</time>
      </trkpt>
      <trkpt lat="45.08952" lon="0.59354">
        <ele>176.6</ele>
        <time>2024-04-14T09:28:18Z</time>
      </trkpt>
      <trkpt lat="45.08952" lon="0.59357">
        <ele>176.7</ele>
        <time>2024-04-14T09:28:19Z</time>
      </trkpt>
      <trkpt lat="45.08952" lon="0.59359">
        <ele>176.8</ele>
        <time>2024-04-14T09:28:20Z</time>
      </trkpt>
      <trkpt lat="45.08952" lon="0.5936">
        <ele>176.9</ele>
        <time>2024-04-14T09:28:21Z</time>
      </trkpt>
      <trkpt lat="45.08952" lon="0.59362">
        <ele>177</ele>
        <time>2024-04-14T09:28:22Z</time>
      </trkpt>
      <trkpt lat="45.08953" lon="0.59366">
        <ele>177.3</ele>
        <time>2024-04-14T09:28:24Z</time>
      </trkpt>
      <trkpt lat="45.08951" lon="0.59368">
        <ele>177.4</ele>
        <time>2024-04-14T09:28:25Z</time>
      </trkpt>
      <trkpt lat="45.08951" lon="0.5937">
        <ele>177.6</ele>
        <time>2024-04-14T09:28:26Z</time>
      </trkpt>
      <trkpt lat="45.08951" lon="0.59372">
        <ele>177.7</ele>
        <time>2024-04-14T09:28:27Z</time>
      </trkpt>
      <trkpt lat="45.08953" lon="0.59373">
        <ele>177.8</ele>
        <time>2024-04-14T09:28:28Z</time>
      </trkpt>
      <trkpt lat="45.08954" lon="0.59375">
        <ele>178</ele>
        <time>2024-04-14T09:28:29Z</time>
      </trkpt>
      <trkpt lat="45.08955" lon="0.59377">
        <ele>178.1</ele>
        <time>2024-04-14T09:28:30Z</time>
      </trkpt>
      <trkpt lat="45.08952" lon="0.59381">
        <ele>178.4</ele>
        <time>2024-04-14T09:28:32Z</time>
      </trkpt>
      <trkpt lat="45.08953" lon="0.59384">
        <ele>178.6</ele>
        <time>2024-04-14T09:28:33Z</time>
      </trkpt>
      <trkpt lat="45.08954" lon="0.59386">
        <ele>178.7</ele>
        <time>2024-04-14T09:28:34Z</time>
      </trkpt>
      <trkpt lat="45.08954" lon="0.59388">
        <ele>178.8</ele>
        <time>2024-04-14T09:28:35Z</time>
      </trkpt>
      <trkpt lat="45.08953" lon="0.59391">
        <ele>179</ele>
        <time>2024-04-14T09:28:36Z</time>
      </trkpt>
      <trkpt lat="45.08952" lon="0.59393">
        <ele>179.1</ele>
        <time>2024-04-14T09:28:37Z</time>
      </trkpt>
      <trkpt lat="45.0895" lon="0.59395">
        <ele>179.3</ele>
        <time>2024-04-14T09:28:38Z</time>
      </trkpt>
      <trkpt lat="45.08953" lon="0.59401">
        <ele>179.6</ele>
        <time>2024-04-14T09:28:40Z</time>
      </trkpt>
      <trkpt lat="45.08955" lon="0.59405">
        <ele>179.8</ele>
        <time>2024-04-14T09:28:42Z</time>
      </trkpt>
      <trkpt lat="45.08954" lon="0.59407">
        <ele>180</ele>
        <time>2024-04-14T09:28:43Z</time>
      </trkpt>
      <trkpt lat="45.08954" lon="0.5941">
        <ele>180.1</ele>
        <time>2024-04-14T09:28:44Z</time>
      </trkpt>
      <trkpt lat="45.08954" lon="0.59416">
        <ele>180.4</ele>
        <time>2024-04-14T09:28:46Z</time>
      </trkpt>
      <trkpt lat="45.08954" lon="0.59421">
        <ele>180.7</ele>
        <time>2024-04-14T09:28:48Z</time>
      </trkpt>
      <trkpt lat="45.08955" lon="0.59426">
        <ele>180.9</ele>
        <time>2024-04-14T09:28:50Z</time>
      </trkpt>
      <trkpt lat="45.08955" lon="0.59427">
        <ele>181</ele>
        <time>2024-04-14T09:28:51Z</time>
      </trkpt>
      <trkpt lat="45.08954" lon="0.5943">
        <ele>181.1</ele>
        <time>2024-04-14T09:28:52Z</time>
      </trkpt>
      <trkpt lat="45.08954" lon="0.59435">
        <ele>181.4</ele>
        <time>2024-04-14T09:28:54Z</time>
      </trkpt>
      <trkpt lat="45.08954" lon="0.5944">
        <ele>181.7</ele>
        <time>2024-04-14T09:28:56Z</time>
      </trkpt>
      <trkpt lat="45.08952" lon="0.59446">
        <ele>182.1</ele>
        <time>2024-04-14T09:28:58Z</time>
      </trkpt>
      <trkpt lat="45.08952" lon="0.5945">
        <ele>182.3</ele>
        <time>2024-04-14T09:28:59Z</time>
      </trkpt>
      <trkpt lat="45.08952" lon="0.59453">
        <ele>182.5</ele>
        <time>2024-04-14T09:29:00Z</time>
      </trkpt>
      <trkpt lat="45.08953" lon="0.59458">
        <ele>182.9</ele>
        <time>2024-04-14T09:29:02Z</time>
      </trkpt>
      <trkpt lat="45.08954" lon="0.59462">
        <ele>183.2</ele>
        <time>2024-04-14T09:29:04Z</time>
      </trkpt>
      <trkpt lat="45.08955" lon="0.59464">
        <ele>183.4</ele>
        <time>2024-04-14T09:29:05Z</time>
      </trkpt>
      <trkpt lat="45.08955" lon="0.59466">
        <ele>183.5</ele>
        <time>2024-04-14T09:29:06Z</time>
      </trkpt>
      <trkpt lat="45.08956" lon="0.59468">
        <ele>183.7</ele>
        <time>2024-04-14T09:29:07Z</time>
      </trkpt>
      <trkpt lat="45.08958" lon="0.5947">
        <ele>183.9</ele>
        <time>2024-04-14T09:29:08Z</time>
      </trkpt>
      <trkpt lat="45.08958" lon="0.59472">
        <ele>184.1</ele>
        <time>2024-04-14T09:29:09Z</time>
      </trkpt>
      <trkpt lat="45.08959" lon="0.59474">
        <ele>184.2</ele>
        <time>2024-04-14T09:29:10Z</time>
      </trkpt>
      <trkpt lat="45.08959" lon="0.59476">
        <ele>184.4</ele>
        <time>2024-04-14T09:29:11Z</time>
      </trkpt>
      <trkpt lat="45.08958" lon="0.59478">
        <ele>184.5</ele>
        <time>2024-04-14T09:29:12Z</time>
      </trkpt>
      <trkpt lat="45.08958" lon="0.5948">
        <ele>184.6</ele>
        <time>2024-04-14T09:29:13Z</time>
      </trkpt>
      <trkpt lat="45.08959" lon="0.59482">
        <ele>184.8</ele>
        <time>2024-04-14T09:29:14Z</time>
      </trkpt>
      <trkpt lat="45.0896" lon="0.59487">
        <ele>185.1</ele>
        <time>2024-04-14T09:29:16Z</time>
      </trkpt>
      <trkpt lat="45.0896" lon="0.59489">
        <ele>185.3</ele>
        <time>2024-04-14T09:29:17Z</time>
      </trkpt>
      <trkpt lat="45.0896" lon="0.59492">
        <ele>185.4</ele>
        <time>2024-04-14T09:29:18Z</time>
      </trkpt>
      <trkpt lat="45.08962" lon="0.59496">
        <ele>185.7</ele>
        <time>2024-04-14T09:29:20Z</time>
      </trkpt>
      <trkpt lat="45.08961" lon="0.595">
        <ele>186</ele>
        <time>2024-04-14T09:29:22Z</time>
      </trkpt>
      <trkpt lat="45.08963" lon="0.59505">
        <ele>186.3</ele>
        <time>2024-04-14T09:29:24Z</time>
      </trkpt>
      <trkpt lat="45.08966" lon="0.5951">
        <ele>186.7</ele>
        <time>2024-04-14T09:29:26Z</time>
      </trkpt>
      <trkpt lat="45.08966" lon="0.59512">
        <ele>186.7</ele>
        <time>2024-04-14T09:29:27Z</time>
      </trkpt>
      <trkpt lat="45.08966" lon="0.59514">
        <ele>186.9</ele>
        <time>2024-04-14T09:29:28Z</time>
      </trkpt>
      <trkpt lat="45.08968" lon="0.5952">
        <ele>187.2</ele>
        <time>2024-04-14T09:29:30Z</time>
      </trkpt>
      <trkpt lat="45.0897" lon="0.59526">
        <ele>187.4</ele>
        <time>2024-04-14T09:29:32Z</time>
      </trkpt>
      <trkpt lat="45.08971" lon="0.59531">
        <ele>187.7</ele>
        <time>2024-04-14T09:29:34Z</time>
      </trkpt>
      <trkpt lat="45.08973" lon="0.59537">
        <ele>188</ele>
        <time>2024-04-14T09:29:36Z</time>
      </trkpt>
      <trkpt lat="45.08976" lon="0.59542">
        <ele>188.3</ele>
        <time>2024-04-14T09:29:38Z</time>
      </trkpt>
      <trkpt lat="45.08975" lon="0.59544">
        <ele>188.4</ele>
        <time>2024-04-14T09:29:40Z</time>
      </trkpt>
      <trkpt lat="45.08977" lon="0.59548">
        <ele>188.6</ele>
        <time>2024-04-14T09:29:42Z</time>
      </trkpt>
      <trkpt lat="45.08976" lon="0.59549">
        <ele>188.6</ele>
        <time>2024-04-14T09:29:43Z</time>
      </trkpt>
      <trkpt lat="45.08983" lon="0.59561">
        <ele>189.3</ele>
        <time>2024-04-14T09:29:55Z</time>
      </trkpt>
      <trkpt lat="45.08984" lon="0.59562">
        <ele>189.4</ele>
        <time>2024-04-14T09:29:56Z</time>
      </trkpt>
      <trkpt lat="45.08986" lon="0.59564">
        <ele>189.6</ele>
        <time>2024-04-14T09:29:58Z</time>
      </trkpt>
      <trkpt lat="45.08989" lon="0.59568">
        <ele>189.8</ele>
        <time>2024-04-14T09:30:00Z</time>
      </trkpt>
      <trkpt lat="45.08992" lon="0.59571">
        <ele>190.1</ele>
        <time>2024-04-14T09:30:02Z</time>
      </trkpt>
      <trkpt lat="45.08995" lon="0.59574">
        <ele>190.3</ele>
        <time>2024-04-14T09:30:04Z</time>
      </trkpt>
      <trkpt lat="45.08998" lon="0.59575">
        <ele>190.5</ele>
        <time>2024-04-14T09:30:05Z</time>
      </trkpt>
      <trkpt lat="45.09" lon="0.59577">
        <ele>190.6</ele>
        <time>2024-04-14T09:30:06Z</time>
      </trkpt>
      <trkpt lat="45.09001" lon="0.59578">
        <ele>190.7</ele>
        <time>2024-04-14T09:30:07Z</time>
      </trkpt>
      <trkpt lat="45.09002" lon="0.5958">
        <ele>190.8</ele>
        <time>2024-04-14T09:30:08Z</time>
      </trkpt>
      <trkpt lat="45.09004" lon="0.59582">
        <ele>191</ele>
        <time>2024-04-14T09:30:09Z</time>
      </trkpt>
      <trkpt lat="45.09007" lon="0.59583">
        <ele>191.2</ele>
        <time>2024-04-14T09:30:10Z</time>
      </trkpt>
      <trkpt lat="45.09008" lon="0.59585">
        <ele>191.3</ele>
        <time>2024-04-14T09:30:11Z</time>
      </trkpt>
      <trkpt lat="45.09009" lon="0.59587">
        <ele>191.4</ele>
        <time>2024-04-14T09:30:12Z</time>
      </trkpt>
      <trkpt lat="45.09011" lon="0.59591">
        <ele>191.7</ele>
        <time>2024-04-14T09:30:14Z</time>
      </trkpt>
      <trkpt lat="45.09014" lon="0.59595">
        <ele>191.9</ele>
        <time>2024-04-14T09:30:16Z</time>
      </trkpt>
      <trkpt lat="45.09015" lon="0.59598">
        <ele>192.1</ele>
        <time>2024-04-14T09:30:18Z</time>
      </trkpt>
      <trkpt lat="45.09016" lon="0.59599">
        <ele>192.2</ele>
        <time>2024-04-14T09:30:19Z</time>
      </trkpt>
      <trkpt lat="45.09017" lon="0.59602">
        <ele>192.3</ele>
        <time>2024-04-14T09:30:20Z</time>
      </trkpt>
      <trkpt lat="45.09018" lon="0.59604">
        <ele>192.4</ele>
        <time>2024-04-14T09:30:21Z</time>
      </trkpt>
      <trkpt lat="45.0902" lon="0.59606">
        <ele>192.6</ele>
        <time>2024-04-14T09:30:22Z</time>
      </trkpt>
      <trkpt lat="45.09022" lon="0.59608">
        <ele>192.7</ele>
        <time>2024-04-14T09:30:23Z</time>
      </trkpt>
      <trkpt lat="45.09024" lon="0.5961">
        <ele>192.9</ele>
        <time>2024-04-14T09:30:24Z</time>
      </trkpt>
      <trkpt lat="45.09026" lon="0.59614">
        <ele>193</ele>
        <time>2024-04-14T09:30:26Z</time>
      </trkpt>
      <trkpt lat="45.09028" lon="0.59616">
        <ele>193.2</ele>
        <time>2024-04-14T09:30:27Z</time>
      </trkpt>
      <trkpt lat="45.09029" lon="0.59619">
        <ele>193.3</ele>
        <time>2024-04-14T09:30:28Z</time>
      </trkpt>
      <trkpt lat="45.09032" lon="0.59623">
        <ele>193.5</ele>
        <time>2024-04-14T09:30:30Z</time>
      </trkpt>
      <trkpt lat="45.09037" lon="0.59628">
        <ele>193.7</ele>
        <time>2024-04-14T09:30:32Z</time>
      </trkpt>
      <trkpt lat="45.09038" lon="0.5963">
        <ele>193.7</ele>
        <time>2024-04-14T09:30:33Z</time>
      </trkpt>
      <trkpt lat="45.09039" lon="0.59632">
        <ele>193.8</ele>
        <time>2024-04-14T09:30:34Z</time>
      </trkpt>
      <trkpt lat="45.0904" lon="0.59634">
        <ele>193.8</ele>
        <time>2024-04-14T09:30:35Z</time>
      </trkpt>
      <trkpt lat="45.09041" lon="0.59635">
        <ele>193.9</ele>
        <time>2024-04-14T09:30:36Z</time>
      </trkpt>
      <trkpt lat="45.09043" lon="0.59639">
        <ele>193.9</ele>
        <time>2024-04-14T09:30:38Z</time>
      </trkpt>
      <trkpt lat="45.09045" lon="0.59644">
        <ele>194</ele>
        <time>2024-04-14T09:30:40Z</time>
      </trkpt>
      <trkpt lat="45.09048" lon="0.59649">
        <ele>194.1</ele>
        <time>2024-04-14T09:30:42Z</time>
      </trkpt>
      <trkpt lat="45.09052" lon="0.59652">
        <ele>194.2</ele>
        <time>2024-04-14T09:30:44Z</time>
      </trkpt>
      <trkpt lat="45.09055" lon="0.59655">
        <ele>194.2</ele>
        <time>2024-04-14T09:30:46Z</time>
      </trkpt>
      <trkpt lat="45.09058" lon="0.59658">
        <ele>194.2</ele>
        <time>2024-04-14T09:30:48Z</time>
      </trkpt>
      <trkpt lat="45.09061" lon="0.59663">
        <ele>194.3</ele>
        <time>2024-04-14T09:30:50Z</time>
      </trkpt>
      <trkpt lat="45.09065" lon="0.59667">
        <ele>194.3</ele>
        <time>2024-04-14T09:30:52Z</time>
      </trkpt>
      <trkpt lat="45.0907" lon="0.59671">
        <ele>194.3</ele>
        <time>2024-04-14T09:30:54Z</time>
      </trkpt>
      <trkpt lat="45.09073" lon="0.59675">
        <ele>194.3</ele>
        <time>2024-04-14T09:30:56Z</time>
      </trkpt>
      <trkpt lat="45.09077" lon="0.59679">
        <ele>194.2</ele>
        <time>2024-04-14T09:30:58Z</time>
      </trkpt>
      <trkpt lat="45.0908" lon="0.59682">
        <ele>194.2</ele>
        <time>2024-04-14T09:31:00Z</time>
      </trkpt>
      <trkpt lat="45.09082" lon="0.59684">
        <ele>194.2</ele>
        <time>2024-04-14T09:31:01Z</time>
      </trkpt>
      <trkpt lat="45.09083" lon="0.59685">
        <ele>194.2</ele>
        <time>2024-04-14T09:31:02Z</time>
      </trkpt>
      <trkpt lat="45.09086" lon="0.59687">
        <ele>194.2</ele>
        <time>2024-04-14T09:31:04Z</time>
      </trkpt>
      <trkpt lat="45.09087" lon="0.59689">
        <ele>194.1</ele>
        <time>2024-04-14T09:31:05Z</time>
      </trkpt>
      <trkpt lat="45.09089" lon="0.59691">
        <ele>194.1</ele>
        <time>2024-04-14T09:31:06Z</time>
      </trkpt>
      <trkpt lat="45.09095" lon="0.59695">
        <ele>194</ele>
        <time>2024-04-14T09:31:08Z</time>
      </trkpt>
      <trkpt lat="45.09099" lon="0.59702">
        <ele>193.7</ele>
        <time>2024-04-14T09:31:10Z</time>
      </trkpt>
      <trkpt lat="45.09105" lon="0.59709">
        <ele>193.5</ele>
        <time>2024-04-14T09:31:12Z</time>
      </trkpt>
      <trkpt lat="45.09111" lon="0.59713">
        <ele>193.3</ele>
        <time>2024-04-14T09:31:14Z</time>
      </trkpt>
      <trkpt lat="45.09116" lon="0.59715">
        <ele>193.1</ele>
        <time>2024-04-14T09:31:16Z</time>
      </trkpt>
      <trkpt lat="45.09119" lon="0.59716">
        <ele>193.1</ele>
        <time>2024-04-14T09:31:17Z</time>
      </trkpt>
      <trkpt lat="45.09121" lon="0.59719">
        <ele>193</ele>
        <time>2024-04-14T09:31:18Z</time>
      </trkpt>
      <trkpt lat="45.09125" lon="0.59724">
        <ele>193</ele>
        <time>2024-04-14T09:31:20Z</time>
      </trkpt>
      <trkpt lat="45.09128" lon="0.59727">
        <ele>193</ele>
        <time>2024-04-14T09:31:21Z</time>
      </trkpt>
      <trkpt lat="45.09131" lon="0.5973">
        <ele>193</ele>
        <time>2024-04-14T09:31:22Z</time>
      </trkpt>
      <trkpt lat="45.09137" lon="0.59736">
        <ele>193</ele>
        <time>2024-04-14T09:31:24Z</time>
      </trkpt>
      <trkpt lat="45.09144" lon="0.59743">
        <ele>193</ele>
        <time>2024-04-14T09:31:26Z</time>
      </trkpt>
      <trkpt lat="45.09147" lon="0.59746">
        <ele>193</ele>
        <time>2024-04-14T09:31:27Z</time>
      </trkpt>
      <trkpt lat="45.0915" lon="0.59749">
        <ele>193</ele>
        <time>2024-04-14T09:31:28Z</time>
      </trkpt>
      <trkpt lat="45.09156" lon="0.59755">
        <ele>193</ele>
        <time>2024-04-14T09:31:30Z</time>
      </trkpt>
      <trkpt lat="45.09161" lon="0.59761">
        <ele>193</ele>
        <time>2024-04-14T09:31:32Z</time>
      </trkpt>
      <trkpt lat="45.09166" lon="0.59766">
        <ele>193.1</ele>
        <time>2024-04-14T09:31:34Z</time>
      </trkpt>
      <trkpt lat="45.09171" lon="0.59771">
        <ele>193.1</ele>
        <time>2024-04-14T09:31:36Z</time>
      </trkpt>
      <trkpt lat="45.09176" lon="0.59777">
        <ele>193.1</ele>
        <time>2024-04-14T09:31:38Z</time>
      </trkpt>
      <trkpt lat="45.0918" lon="0.59782">
        <ele>193.2</ele>
        <time>2024-04-14T09:31:40Z</time>
      </trkpt>
      <trkpt lat="45.09183" lon="0.59785">
        <ele>193.2</ele>
        <time>2024-04-14T09:31:41Z</time>
      </trkpt>
      <trkpt lat="45.09186" lon="0.59788">
        <ele>193.2</ele>
        <time>2024-04-14T09:31:42Z</time>
      </trkpt>
      <trkpt lat="45.09191" lon="0.59794">
        <ele>193.3</ele>
        <time>2024-04-14T09:31:44Z</time>
      </trkpt>
      <trkpt lat="45.09197" lon="0.598">
        <ele>193.4</ele>
        <time>2024-04-14T09:31:46Z</time>
      </trkpt>
      <trkpt lat="45.09203" lon="0.59806">
        <ele>193.4</ele>
        <time>2024-04-14T09:31:48Z</time>
      </trkpt>
      <trkpt lat="45.09206" lon="0.59809">
        <ele>193.4</ele>
        <time>2024-04-14T09:31:49Z</time>
      </trkpt>
      <trkpt lat="45.09209" lon="0.59812">
        <ele>193.4</ele>
        <time>2024-04-14T09:31:50Z</time>
      </trkpt>
      <trkpt lat="45.09215" lon="0.59818">
        <ele>193.4</ele>
        <time>2024-04-14T09:31:52Z</time>
      </trkpt>
      <trkpt lat="45.09222" lon="0.59825">
        <ele>193.3</ele>
        <time>2024-04-14T09:31:54Z</time>
      </trkpt>
      <trkpt lat="45.09229" lon="0.59831">
        <ele>193.2</ele>
        <time>2024-04-14T09:31:56Z</time>
      </trkpt>
      <trkpt lat="45.09236" lon="0.59838">
        <ele>193</ele>
        <time>2024-04-14T09:31:58Z</time>
      </trkpt>
      <trkpt lat="45.09239" lon="0.59842">
        <ele>192.9</ele>
        <time>2024-04-14T09:31:59Z</time>
      </trkpt>
      <trkpt lat="45.09242" lon="0.59846">
        <ele>192.7</ele>
        <time>2024-04-14T09:32:00Z</time>
      </trkpt>
      <trkpt lat="45.09246" lon="0.59849">
        <ele>192.6</ele>
        <time>2024-04-14T09:32:01Z</time>
      </trkpt>
      <trkpt lat="45.09249" lon="0.59852">
        <ele>192.5</ele>
        <time>2024-04-14T09:32:02Z</time>
      </trkpt>
      <trkpt lat="45.09257" lon="0.59857">
        <ele>192.1</ele>
        <time>2024-04-14T09:32:04Z</time>
      </trkpt>
      <trkpt lat="45.09261" lon="0.59859">
        <ele>191.9</ele>
        <time>2024-04-14T09:32:05Z</time>
      </trkpt>
      <trkpt lat="45.09266" lon="0.59863">
        <ele>191.6</ele>
        <time>2024-04-14T09:32:06Z</time>
      </trkpt>
      <trkpt lat="45.09274" lon="0.59872">
        <ele>191</ele>
        <time>2024-04-14T09:32:08Z</time>
      </trkpt>
      <trkpt lat="45.09279" lon="0.59877">
        <ele>190.6</ele>
        <time>2024-04-14T09:32:09Z</time>
      </trkpt>
      <trkpt lat="45.09284" lon="0.59883">
        <ele>190.2</ele>
        <time>2024-04-14T09:32:10Z</time>
      </trkpt>
      <trkpt lat="45.09295" lon="0.59892">
        <ele>189.2</ele>
        <time>2024-04-14T09:32:12Z</time>
      </trkpt>
      <trkpt lat="45.09301" lon="0.59897">
        <ele>188.7</ele>
        <time>2024-04-14T09:32:13Z</time>
      </trkpt>
      <trkpt lat="45.09307" lon="0.59902">
        <ele>188.1</ele>
        <time>2024-04-14T09:32:14Z</time>
      </trkpt>
      <trkpt lat="45.09313" lon="0.59908">
        <ele>187.4</ele>
        <time>2024-04-14T09:32:15Z</time>
      </trkpt>
      <trkpt lat="45.09319" lon="0.59916">
        <ele>186.7</ele>
        <time>2024-04-14T09:32:16Z</time>
      </trkpt>
      <trkpt lat="45.09325" lon="0.59924">
        <ele>185.8</ele>
        <time>2024-04-14T09:32:17Z</time>
      </trkpt>
      <trkpt lat="45.09331" lon="0.59932">
        <ele>184.9</ele>
        <time>2024-04-14T09:32:18Z</time>
      </trkpt>
      <trkpt lat="45.09345" lon="0.5995">
        <ele>182.4</ele>
        <time>2024-04-14T09:32:20Z</time>
      </trkpt>
      <trkpt lat="45.09353" lon="0.59959">
        <ele>181</ele>
        <time>2024-04-14T09:32:21Z</time>
      </trkpt>
      <trkpt lat="45.09363" lon="0.59967">
        <ele>179.4</ele>
        <time>2024-04-14T09:32:22Z</time>
      </trkpt>
      <trkpt lat="45.09383" lon="0.59979">
        <ele>177.6</ele>
        <time>2024-04-14T09:32:24Z</time>
      </trkpt>
      <trkpt lat="45.09393" lon="0.59985">
        <ele>177</ele>
        <time>2024-04-14T09:32:25Z</time>
      </trkpt>
      <trkpt lat="45.09401" lon="0.59993">
        <ele>176.6</ele>
        <time>2024-04-14T09:32:26Z</time>
      </trkpt>
      <trkpt lat="45.09409" lon="0.60002">
        <ele>176.4</ele>
        <time>2024-04-14T09:32:27Z</time>
      </trkpt>
      <trkpt lat="45.09415" lon="0.60011">
        <ele>176.2</ele>
        <time>2024-04-14T09:32:28Z</time>
      </trkpt>
      <trkpt lat="45.09426" lon="0.60026">
        <ele>176.1</ele>
        <time>2024-04-14T09:32:30Z</time>
      </trkpt>
      <trkpt lat="45.09431" lon="0.60033">
        <ele>176.1</ele>
        <time>2024-04-14T09:32:31Z</time>
      </trkpt>
      <trkpt lat="45.09436" lon="0.60039">
        <ele>176.2</ele>
        <time>2024-04-14T09:32:32Z</time>
      </trkpt>
      <trkpt lat="45.09445" lon="0.60052">
        <ele>176.4</ele>
        <time>2024-04-14T09:32:34Z</time>
      </trkpt>
      <trkpt lat="45.09449" lon="0.60058">
        <ele>176.6</ele>
        <time>2024-04-14T09:32:35Z</time>
      </trkpt>
      <trkpt lat="45.09452" lon="0.60064">
        <ele>176.8</ele>
        <time>2024-04-14T09:32:36Z</time>
      </trkpt>
      <trkpt lat="45.09455" lon="0.60069">
        <ele>176.9</ele>
        <time>2024-04-14T09:32:37Z</time>
      </trkpt>
      <trkpt lat="45.09457" lon="0.60072">
        <ele>177.1</ele>
        <time>2024-04-14T09:32:38Z</time>
      </trkpt>
      <trkpt lat="45.09458" lon="0.60074">
        <ele>177.1</ele>
        <time>2024-04-14T09:32:40Z</time>
      </trkpt>
      <trkpt lat="45.09461" lon="0.60079">
        <ele>177.4</ele>
        <time>2024-04-14T09:32:55Z</time>
      </trkpt>
      <trkpt lat="45.09463" lon="0.60081">
        <ele>177.5</ele>
        <time>2024-04-14T09:32:56Z</time>
      </trkpt>
      <trkpt lat="45.09465" lon="0.60086">
        <ele>177.7</ele>
        <time>2024-04-14T09:32:58Z</time>
      </trkpt>
      <trkpt lat="45.09469" lon="0.60091">
        <ele>178</ele>
        <time>2024-04-14T09:33:00Z</time>
      </trkpt>
      <trkpt lat="45.0947" lon="0.60094">
        <ele>178.2</ele>
        <time>2024-04-14T09:33:01Z</time>
      </trkpt>
      <trkpt lat="45.09472" lon="0.60096">
        <ele>178.3</ele>
        <time>2024-04-14T09:33:02Z</time>
      </trkpt>
      <trkpt lat="45.09475" lon="0.60101">
        <ele>178.6</ele>
        <time>2024-04-14T09:33:04Z</time>
      </trkpt>
      <trkpt lat="45.09479" lon="0.60107">
        <ele>178.9</ele>
        <time>2024-04-14T09:33:06Z</time>
      </trkpt>
      <trkpt lat="45.09481" lon="0.6011">
        <ele>179.1</ele>
        <time>2024-04-14T09:33:07Z</time>
      </trkpt>
      <trkpt lat="45.09483" lon="0.60113">
        <ele>179.3</ele>
        <time>2024-04-14T09:33:08Z</time>
      </trkpt>
      <trkpt lat="45.09487" lon="0.60119">
        <ele>179.7</ele>
        <time>2024-04-14T09:33:10Z</time>
      </trkpt>
      <trkpt lat="45.09491" lon="0.60125">
        <ele>180.1</ele>
        <time>2024-04-14T09:33:12Z</time>
      </trkpt>
      <trkpt lat="45.09495" lon="0.6013">
        <ele>180.5</ele>
        <time>2024-04-14T09:33:14Z</time>
      </trkpt>
      <trkpt lat="45.09499" lon="0.60136">
        <ele>181</ele>
        <time>2024-04-14T09:33:16Z</time>
      </trkpt>
      <trkpt lat="45.09502" lon="0.60141">
        <ele>181.4</ele>
        <time>2024-04-14T09:33:18Z</time>
      </trkpt>
      <trkpt lat="45.09506" lon="0.60147">
        <ele>181.9</ele>
        <time>2024-04-14T09:33:20Z</time>
      </trkpt>
      <trkpt lat="45.09509" lon="0.60152">
        <ele>182.3</ele>
        <time>2024-04-14T09:33:22Z</time>
      </trkpt>
      <trkpt lat="45.09513" lon="0.60157">
        <ele>182.8</ele>
        <time>2024-04-14T09:33:24Z</time>
      </trkpt>
      <trkpt lat="45.09515" lon="0.6016">
        <ele>183</ele>
        <time>2024-04-14T09:33:25Z</time>
      </trkpt>
      <trkpt lat="45.09516" lon="0.60162">
        <ele>183.2</ele>
        <time>2024-04-14T09:33:26Z</time>
      </trkpt>
      <trkpt lat="45.0952" lon="0.60166">
        <ele>183.6</ele>
        <time>2024-04-14T09:33:28Z</time>
      </trkpt>
      <trkpt lat="45.09523" lon="0.60168">
        <ele>184.1</ele>
        <time>2024-04-14T09:33:30Z</time>
      </trkpt>
      <trkpt lat="45.09524" lon="0.60167">
        <ele>184.1</ele>
        <time>2024-04-14T09:33:31Z</time>
      </trkpt>
      <trkpt lat="45.09525" lon="0.60166">
        <ele>184.1</ele>
        <time>2024-04-14T09:33:32Z</time>
      </trkpt>
      <trkpt lat="45.09527" lon="0.60162">
        <ele>184.1</ele>
        <time>2024-04-14T09:33:34Z</time>
      </trkpt>
      <trkpt lat="45.09528" lon="0.60161">
        <ele>184.1</ele>
        <time>2024-04-14T09:33:36Z</time>
      </trkpt>
      <trkpt lat="45.09528" lon="0.60161">
        <ele>184.1</ele>
        <time>2024-04-14T09:33:37Z</time>
      </trkpt>
      <trkpt lat="45.09529" lon="0.60157">
        <ele>184.2</ele>
        <time>2024-04-14T09:41:07Z</time>
      </trkpt>
      <trkpt lat="45.0953" lon="0.60155">
        <ele>184.2</ele>
        <time>2024-04-14T09:41:08Z</time>
      </trkpt>
      <trkpt lat="45.0953" lon="0.60153">
        <ele>184.3</ele>
        <time>2024-04-14T09:41:09Z</time>
      </trkpt>
      <trkpt lat="45.09531" lon="0.60151">
        <ele>184.3</ele>
        <time>2024-04-14T09:41:10Z</time>
      </trkpt>
      <trkpt lat="45.09533" lon="0.60146">
        <ele>184.4</ele>
        <time>2024-04-14T09:41:12Z</time>
      </trkpt>
      <trkpt lat="45.09534" lon="0.60143">
        <ele>184.5</ele>
        <time>2024-04-14T09:41:13Z</time>
      </trkpt>
      <trkpt lat="45.09535" lon="0.6014">
        <ele>184.6</ele>
        <time>2024-04-14T09:41:14Z</time>
      </trkpt>
      <trkpt lat="45.0954" lon="0.60135">
        <ele>184.9</ele>
        <time>2024-04-14T09:41:16Z</time>
      </trkpt>
      <trkpt lat="45.09545" lon="0.6013">
        <ele>185.1</ele>
        <time>2024-04-14T09:41:18Z</time>
      </trkpt>
      <trkpt lat="45.09548" lon="0.60128">
        <ele>185.3</ele>
        <time>2024-04-14T09:41:19Z</time>
      </trkpt>
      <trkpt lat="45.0955" lon="0.60126">
        <ele>185.4</ele>
        <time>2024-04-14T09:41:20Z</time>
      </trkpt>
      <trkpt lat="45.09555" lon="0.60123">
        <ele>185.6</ele>
        <time>2024-04-14T09:41:22Z</time>
      </trkpt>
      <trkpt lat="45.09561" lon="0.60119">
        <ele>185.8</ele>
        <time>2024-04-14T09:41:24Z</time>
      </trkpt>
      <trkpt lat="45.09563" lon="0.60118">
        <ele>185.9</ele>
        <time>2024-04-14T09:41:25Z</time>
      </trkpt>
      <trkpt lat="45.09565" lon="0.60116">
        <ele>186</ele>
        <time>2024-04-14T09:41:26Z</time>
      </trkpt>
      <trkpt lat="45.0957" lon="0.60115">
        <ele>186.3</ele>
        <time>2024-04-14T09:41:28Z</time>
      </trkpt>
      <trkpt lat="45.09575" lon="0.60112">
        <ele>186.5</ele>
        <time>2024-04-14T09:41:30Z</time>
      </trkpt>
      <trkpt lat="45.09581" lon="0.60108">
        <ele>186.7</ele>
        <time>2024-04-14T09:41:32Z</time>
      </trkpt>
      <trkpt lat="45.09583" lon="0.60106">
        <ele>186.8</ele>
        <time>2024-04-14T09:41:33Z</time>
      </trkpt>
      <trkpt lat="45.09586" lon="0.60103">
        <ele>186.9</ele>
        <time>2024-04-14T09:41:34Z</time>
      </trkpt>
      <trkpt lat="45.09592" lon="0.60099">
        <ele>187.1</ele>
        <time>2024-04-14T09:41:36Z</time>
      </trkpt>
      <trkpt lat="45.09599" lon="0.60094">
        <ele>187.1</ele>
        <time>2024-04-14T09:41:38Z</time>
      </trkpt>
      <trkpt lat="45.09606" lon="0.60091">
        <ele>187.2</ele>
        <time>2024-04-14T09:41:40Z</time>
      </trkpt>
      <trkpt lat="45.09612" lon="0.60088">
        <ele>187.1</ele>
        <time>2024-04-14T09:41:42Z</time>
      </trkpt>
      <trkpt lat="45.09619" lon="0.60086">
        <ele>186.9</ele>
        <time>2024-04-14T09:41:44Z</time>
      </trkpt>
      <trkpt lat="45.09627" lon="0.60083">
        <ele>186.7</ele>
        <time>2024-04-14T09:41:46Z</time>
      </trkpt>
      <trkpt lat="45.09631" lon="0.6008">
        <ele>186.5</ele>
        <time>2024-04-14T09:41:47Z</time>
      </trkpt>
      <trkpt lat="45.09635" lon="0.60076">
        <ele>186.3</ele>
        <time>2024-04-14T09:41:48Z</time>
      </trkpt>
      <trkpt lat="45.09644" lon="0.60067">
        <ele>185.9</ele>
        <time>2024-04-14T09:41:50Z</time>
      </trkpt>
      <trkpt lat="45.09649" lon="0.60066">
        <ele>185.7</ele>
        <time>2024-04-14T09:41:51Z</time>
      </trkpt>
      <trkpt lat="45.09655" lon="0.60066">
        <ele>185.4</ele>
        <time>2024-04-14T09:41:52Z</time>
      </trkpt>
      <trkpt lat="45.09665" lon="0.60072">
        <ele>185</ele>
        <time>2024-04-14T09:41:54Z</time>
      </trkpt>
      <trkpt lat="45.09674" lon="0.60081">
        <ele>185.1</ele>
        <time>2024-04-14T09:41:56Z</time>
      </trkpt>
      <trkpt lat="45.09679" lon="0.60085">
        <ele>185.3</ele>
        <time>2024-04-14T09:41:57Z</time>
      </trkpt>
      <trkpt lat="45.09683" lon="0.60089">
        <ele>185.2</ele>
        <time>2024-04-14T09:41:58Z</time>
      </trkpt>
      <trkpt lat="45.09688" lon="0.60093">
        <ele>185.1</ele>
        <time>2024-04-14T09:41:59Z</time>
      </trkpt>
      <trkpt lat="45.09692" lon="0.60098">
        <ele>184.8</ele>
        <time>2024-04-14T09:42:00Z</time>
      </trkpt>
      <trkpt lat="45.097" lon="0.60108">
        <ele>184.2</ele>
        <time>2024-04-14T09:42:02Z</time>
      </trkpt>
      <trkpt lat="45.09706" lon="0.60118">
        <ele>184.1</ele>
        <time>2024-04-14T09:42:04Z</time>
      </trkpt>
      <trkpt lat="45.09712" lon="0.60129">
        <ele>183.9</ele>
        <time>2024-04-14T09:42:06Z</time>
      </trkpt>
      <trkpt lat="45.09716" lon="0.60135">
        <ele>183.6</ele>
        <time>2024-04-14T09:42:07Z</time>
      </trkpt>
      <trkpt lat="45.09718" lon="0.60141">
        <ele>183.3</ele>
        <time>2024-04-14T09:42:08Z</time>
      </trkpt>
      <trkpt lat="45.09725" lon="0.60152">
        <ele>182.7</ele>
        <time>2024-04-14T09:42:10Z</time>
      </trkpt>
      <trkpt lat="45.09735" lon="0.60164">
        <ele>182.7</ele>
        <time>2024-04-14T09:42:12Z</time>
      </trkpt>
      <trkpt lat="45.09746" lon="0.60177">
        <ele>182.1</ele>
        <time>2024-04-14T09:42:14Z</time>
      </trkpt>
      <trkpt lat="45.09753" lon="0.60184">
        <ele>181.2</ele>
        <time>2024-04-14T09:42:15Z</time>
      </trkpt>
      <trkpt lat="45.09759" lon="0.60192">
        <ele>179.8</ele>
        <time>2024-04-14T09:42:16Z</time>
      </trkpt>
      <trkpt lat="45.09772" lon="0.60211">
        <ele>178.1</ele>
        <time>2024-04-14T09:42:18Z</time>
      </trkpt>
      <trkpt lat="45.09778" lon="0.6022">
        <ele>177.4</ele>
        <time>2024-04-14T09:42:19Z</time>
      </trkpt>
      <trkpt lat="45.09783" lon="0.60229">
        <ele>176.5</ele>
        <time>2024-04-14T09:42:20Z</time>
      </trkpt>
      <trkpt lat="45.09788" lon="0.60237">
        <ele>175.9</ele>
        <time>2024-04-14T09:42:21Z</time>
      </trkpt>
      <trkpt lat="45.09794" lon="0.60244">
        <ele>175.5</ele>
        <time>2024-04-14T09:42:22Z</time>
      </trkpt>
      <trkpt lat="45.09799" lon="0.6025">
        <ele>175</ele>
        <time>2024-04-14T09:42:23Z</time>
      </trkpt>
      <trkpt lat="45.09807" lon="0.60255">
        <ele>174.4</ele>
        <time>2024-04-14T09:42:24Z</time>
      </trkpt>
      <trkpt lat="45.09822" lon="0.60266">
        <ele>172.6</ele>
        <time>2024-04-14T09:42:26Z</time>
      </trkpt>
      <trkpt lat="45.0983" lon="0.60271">
        <ele>171.3</ele>
        <time>2024-04-14T09:42:27Z</time>
      </trkpt>
      <trkpt lat="45.09837" lon="0.60275">
        <ele>170.5</ele>
        <time>2024-04-14T09:42:28Z</time>
      </trkpt>
      <trkpt lat="45.09852" lon="0.60285">
        <ele>169.9</ele>
        <time>2024-04-14T09:42:30Z</time>
      </trkpt>
      <trkpt lat="45.09867" lon="0.60298">
        <ele>168.3</ele>
        <time>2024-04-14T09:42:32Z</time>
      </trkpt>
      <trkpt lat="45.09875" lon="0.60304">
        <ele>167.1</ele>
        <time>2024-04-14T09:42:33Z</time>
      </trkpt>
      <trkpt lat="45.09881" lon="0.60309">
        <ele>166.8</ele>
        <time>2024-04-14T09:42:34Z</time>
      </trkpt>
      <trkpt lat="45.09894" lon="0.6032">
        <ele>163.9</ele>
        <time>2024-04-14T09:42:36Z</time>
      </trkpt>
      <trkpt lat="45.09904" lon="0.6033">
        <ele>159.2</ele>
        <time>2024-04-14T09:42:38Z</time>
      </trkpt>
      <trkpt lat="45.09915" lon="0.60327">
        <ele>154.7</ele>
        <time>2024-04-14T09:42:40Z</time>
      </trkpt>
      <trkpt lat="45.09923" lon="0.60316">
        <ele>150.7</ele>
        <time>2024-04-14T09:42:42Z</time>
      </trkpt>
      <trkpt lat="45.09926" lon="0.60308">
        <ele>148.1</ele>
        <time>2024-04-14T09:42:43Z</time>
      </trkpt>
      <trkpt lat="45.0993" lon="0.60301">
        <ele>145.1</ele>
        <time>2024-04-14T09:42:44Z</time>
      </trkpt>
      <trkpt lat="45.09934" lon="0.60286">
        <ele>144.4</ele>
        <time>2024-04-14T09:42:46Z</time>
      </trkpt>
      <trkpt lat="45.09935" lon="0.60279">
        <ele>144</ele>
        <time>2024-04-14T09:42:47Z</time>
      </trkpt>
      <trkpt lat="45.09935" lon="0.60272">
        <ele>143.6</ele>
        <time>2024-04-14T09:42:48Z</time>
      </trkpt>
      <trkpt lat="45.09929" lon="0.60259">
        <ele>142.8</ele>
        <time>2024-04-14T09:42:50Z</time>
      </trkpt>
      <trkpt lat="45.09921" lon="0.60244">
        <ele>141.8</ele>
        <time>2024-04-14T09:42:52Z</time>
      </trkpt>
      <trkpt lat="45.09913" lon="0.60228">
        <ele>141</ele>
        <time>2024-04-14T09:42:54Z</time>
      </trkpt>
      <trkpt lat="45.09909" lon="0.6022">
        <ele>140.6</ele>
        <time>2024-04-14T09:42:55Z</time>
      </trkpt>
      <trkpt lat="45.09907" lon="0.60211">
        <ele>140.2</ele>
        <time>2024-04-14T09:42:56Z</time>
      </trkpt>
      <trkpt lat="45.09905" lon="0.60193">
        <ele>139.3</ele>
        <time>2024-04-14T09:42:58Z</time>
      </trkpt>
      <trkpt lat="45.09905" lon="0.60183">
        <ele>138.8</ele>
        <time>2024-04-14T09:42:59Z</time>
      </trkpt>
      <trkpt lat="45.09906" lon="0.60175">
        <ele>138.4</ele>
        <time>2024-04-14T09:43:00Z</time>
      </trkpt>
      <trkpt lat="45.0991" lon="0.60166">
        <ele>137.8</ele>
        <time>2024-04-14T09:43:01Z</time>
      </trkpt>
      <trkpt lat="45.09913" lon="0.60157">
        <ele>137.1</ele>
        <time>2024-04-14T09:43:02Z</time>
      </trkpt>
      <trkpt lat="45.09918" lon="0.60137">
        <ele>135.7</ele>
        <time>2024-04-14T09:43:04Z</time>
      </trkpt>
      <trkpt lat="45.09923" lon="0.60117">
        <ele>134.5</ele>
        <time>2024-04-14T09:43:06Z</time>
      </trkpt>
      <trkpt lat="45.09924" lon="0.60106">
        <ele>133.8</ele>
        <time>2024-04-14T09:43:07Z</time>
      </trkpt>
      <trkpt lat="45.09924" lon="0.60094">
        <ele>133.2</ele>
        <time>2024-04-14T09:43:08Z</time>
      </trkpt>
      <trkpt lat="45.0992" lon="0.6007">
        <ele>132.1</ele>
        <time>2024-04-14T09:43:10Z</time>
      </trkpt>
      <trkpt lat="45.09912" lon="0.60046">
        <ele>131.2</ele>
        <time>2024-04-14T09:43:12Z</time>
      </trkpt>
      <trkpt lat="45.09905" lon="0.60025">
        <ele>130.2</ele>
        <time>2024-04-14T09:43:14Z</time>
      </trkpt>
      <trkpt lat="45.09903" lon="0.60002">
        <ele>129</ele>
        <time>2024-04-14T09:43:16Z</time>
      </trkpt>
      <trkpt lat="45.09904" lon="0.5999">
        <ele>128.3</ele>
        <time>2024-04-14T09:43:17Z</time>
      </trkpt>
      <trkpt lat="45.09906" lon="0.59979">
        <ele>127.6</ele>
        <time>2024-04-14T09:43:18Z</time>
      </trkpt>
      <trkpt lat="45.0991" lon="0.59954">
        <ele>125.9</ele>
        <time>2024-04-14T09:43:20Z</time>
      </trkpt>
      <trkpt lat="45.09916" lon="0.59925">
        <ele>123.8</ele>
        <time>2024-04-14T09:43:22Z</time>
      </trkpt>
      <trkpt lat="45.09919" lon="0.59898">
        <ele>121.4</ele>
        <time>2024-04-14T09:43:24Z</time>
      </trkpt>
      <trkpt lat="45.0992" lon="0.59872">
        <ele>119.3</ele>
        <time>2024-04-14T09:43:26Z</time>
      </trkpt>
      <trkpt lat="45.09919" lon="0.5985">
        <ele>117.6</ele>
        <time>2024-04-14T09:43:28Z</time>
      </trkpt>
      <trkpt lat="45.09919" lon="0.59841">
        <ele>117</ele>
        <time>2024-04-14T09:43:29Z</time>
      </trkpt>
      <trkpt lat="45.0992" lon="0.59833">
        <ele>116.6</ele>
        <time>2024-04-14T09:43:30Z</time>
      </trkpt>
      <trkpt lat="45.09921" lon="0.59826">
        <ele>116.3</ele>
        <time>2024-04-14T09:43:31Z</time>
      </trkpt>
      <trkpt lat="45.09927" lon="0.59821">
        <ele>116</ele>
        <time>2024-04-14T09:43:32Z</time>
      </trkpt>
      <trkpt lat="45.09936" lon="0.5982">
        <ele>115.8</ele>
        <time>2024-04-14T09:43:34Z</time>
      </trkpt>
      <trkpt lat="45.0994" lon="0.59821">
        <ele>115.8</ele>
        <time>2024-04-14T09:43:35Z</time>
      </trkpt>
      <trkpt lat="45.09944" lon="0.5982">
        <ele>115.8</ele>
        <time>2024-04-14T09:43:36Z</time>
      </trkpt>
      <trkpt lat="45.09951" lon="0.59815">
        <ele>115.9</ele>
        <time>2024-04-14T09:43:38Z</time>
      </trkpt>
      <trkpt lat="45.09958" lon="0.59811">
        <ele>116.1</ele>
        <time>2024-04-14T09:43:40Z</time>
      </trkpt>
      <trkpt lat="45.09959" lon="0.59809">
        <ele>116.2</ele>
        <time>2024-04-14T09:43:41Z</time>
      </trkpt>
      <trkpt lat="45.09964" lon="0.59804">
        <ele>116.5</ele>
        <time>2024-04-14T09:43:43Z</time>
      </trkpt>
      <trkpt lat="45.09968" lon="0.59805">
        <ele>116.8</ele>
        <time>2024-04-14T09:43:44Z</time>
      </trkpt>
      <trkpt lat="45.09975" lon="0.59806">
        <ele>117.1</ele>
        <time>2024-04-14T09:43:45Z</time>
      </trkpt>
      <trkpt lat="45.09979" lon="0.59808">
        <ele>117.2</ele>
        <time>2024-04-14T09:43:46Z</time>
      </trkpt>
      <trkpt lat="45.09984" lon="0.59814">
        <ele>117.3</ele>
        <time>2024-04-14T09:43:48Z</time>
      </trkpt>
      <trkpt lat="45.09989" lon="0.59821">
        <ele>117.4</ele>
        <time>2024-04-14T09:43:50Z</time>
      </trkpt>
      <trkpt lat="45.09994" lon="0.59829">
        <ele>117.5</ele>
        <time>2024-04-14T09:43:52Z</time>
      </trkpt>
      <trkpt lat="45.09997" lon="0.59836">
        <ele>117.6</ele>
        <time>2024-04-14T09:43:54Z</time>
      </trkpt>
      <trkpt lat="45.1" lon="0.59843">
        <ele>117.7</ele>
        <time>2024-04-14T09:43:56Z</time>
      </trkpt>
      <trkpt lat="45.10004" lon="0.59851">
        <ele>117.8</ele>
        <time>2024-04-14T09:43:58Z</time>
      </trkpt>
      <trkpt lat="45.10007" lon="0.59858">
        <ele>117.9</ele>
        <time>2024-04-14T09:44:00Z</time>
      </trkpt>
      <trkpt lat="45.10008" lon="0.59863">
        <ele>117.9</ele>
        <time>2024-04-14T09:44:01Z</time>
      </trkpt>
      <trkpt lat="45.1001" lon="0.59866">
        <ele>118</ele>
        <time>2024-04-14T09:44:02Z</time>
      </trkpt>
      <trkpt lat="45.10014" lon="0.59874">
        <ele>118.1</ele>
        <time>2024-04-14T09:44:04Z</time>
      </trkpt>
      <trkpt lat="45.10017" lon="0.59882">
        <ele>118.1</ele>
        <time>2024-04-14T09:44:06Z</time>
      </trkpt>
      <trkpt lat="45.10022" lon="0.5989">
        <ele>118.2</ele>
        <time>2024-04-14T09:44:08Z</time>
      </trkpt>
      <trkpt lat="45.10023" lon="0.59894">
        <ele>118.3</ele>
        <time>2024-04-14T09:44:09Z</time>
      </trkpt>
      <trkpt lat="45.10025" lon="0.59897">
        <ele>118.3</ele>
        <time>2024-04-14T09:44:10Z</time>
      </trkpt>
      <trkpt lat="45.10028" lon="0.59905">
        <ele>118.4</ele>
        <time>2024-04-14T09:44:12Z</time>
      </trkpt>
      <trkpt lat="45.10032" lon="0.59912">
        <ele>118.4</ele>
        <time>2024-04-14T09:44:14Z</time>
      </trkpt>
      <trkpt lat="45.10035" lon="0.5992">
        <ele>118.5</ele>
        <time>2024-04-14T09:44:16Z</time>
      </trkpt>
      <trkpt lat="45.10038" lon="0.59928">
        <ele>118.6</ele>
        <time>2024-04-14T09:44:18Z</time>
      </trkpt>
      <trkpt lat="45.10041" lon="0.59935">
        <ele>118.7</ele>
        <time>2024-04-14T09:44:20Z</time>
      </trkpt>
      <trkpt lat="45.10045" lon="0.59943">
        <ele>118.8</ele>
        <time>2024-04-14T09:44:22Z</time>
      </trkpt>
      <trkpt lat="45.10048" lon="0.59951">
        <ele>118.9</ele>
        <time>2024-04-14T09:44:24Z</time>
      </trkpt>
      <trkpt lat="45.10051" lon="0.5996">
        <ele>119</ele>
        <time>2024-04-14T09:44:26Z</time>
      </trkpt>
      <trkpt lat="45.10052" lon="0.59964">
        <ele>119</ele>
        <time>2024-04-14T09:44:27Z</time>
      </trkpt>
      <trkpt lat="45.10054" lon="0.59967">
        <ele>119.1</ele>
        <time>2024-04-14T09:44:28Z</time>
      </trkpt>
      <trkpt lat="45.10058" lon="0.59975">
        <ele>119.1</ele>
        <time>2024-04-14T09:44:30Z</time>
      </trkpt>
      <trkpt lat="45.10062" lon="0.59983">
        <ele>119.2</ele>
        <time>2024-04-14T09:44:32Z</time>
      </trkpt>
      <trkpt lat="45.10065" lon="0.59992">
        <ele>119.3</ele>
        <time>2024-04-14T09:44:34Z</time>
      </trkpt>
      <trkpt lat="45.10067" lon="0.59996">
        <ele>119.3</ele>
        <time>2024-04-14T09:44:35Z</time>
      </trkpt>
      <trkpt lat="45.10069" lon="0.6">
        <ele>119.4</ele>
        <time>2024-04-14T09:44:36Z</time>
      </trkpt>
      <trkpt lat="45.10072" lon="0.60009">
        <ele>119.4</ele>
        <time>2024-04-14T09:44:38Z</time>
      </trkpt>
      <trkpt lat="45.10076" lon="0.60017">
        <ele>119.5</ele>
        <time>2024-04-14T09:44:40Z</time>
      </trkpt>
      <trkpt lat="45.1008" lon="0.60025">
        <ele>119.6</ele>
        <time>2024-04-14T09:44:42Z</time>
      </trkpt>
      <trkpt lat="45.10081" lon="0.60029">
        <ele>119.6</ele>
        <time>2024-04-14T09:44:43Z</time>
      </trkpt>
      <trkpt lat="45.10083" lon="0.60033">
        <ele>119.6</ele>
        <time>2024-04-14T09:44:44Z</time>
      </trkpt>
      <trkpt lat="45.10087" lon="0.60042">
        <ele>119.7</ele>
        <time>2024-04-14T09:44:46Z</time>
      </trkpt>
      <trkpt lat="45.10091" lon="0.60049">
        <ele>119.8</ele>
        <time>2024-04-14T09:44:48Z</time>
      </trkpt>
      <trkpt lat="45.10096" lon="0.60057">
        <ele>119.9</ele>
        <time>2024-04-14T09:44:50Z</time>
      </trkpt>
      <trkpt lat="45.10098" lon="0.60059">
        <ele>119.9</ele>
        <time>2024-04-14T09:44:51Z</time>
      </trkpt>
      <trkpt lat="45.10102" lon="0.60061">
        <ele>120</ele>
        <time>2024-04-14T09:44:52Z</time>
      </trkpt>
      <trkpt lat="45.10107" lon="0.60059">
        <ele>120.7</ele>
        <time>2024-04-14T09:44:54Z</time>
      </trkpt>
      <trkpt lat="45.10112" lon="0.60057">
        <ele>121.1</ele>
        <time>2024-04-14T09:44:56Z</time>
      </trkpt>
      <trkpt lat="45.10115" lon="0.60056">
        <ele>121.5</ele>
        <time>2024-04-14T09:44:58Z</time>
      </trkpt>
      <trkpt lat="45.10117" lon="0.60056">
        <ele>121.8</ele>
        <time>2024-04-14T09:44:59Z</time>
      </trkpt>
      <trkpt lat="45.10118" lon="0.60057">
        <ele>121.9</ele>
        <time>2024-04-14T09:45:00Z</time>
      </trkpt>
      <trkpt lat="45.1012" lon="0.60058">
        <ele>122.2</ele>
        <time>2024-04-14T09:45:02Z</time>
      </trkpt>
      <trkpt lat="45.10123" lon="0.60059">
        <ele>122.6</ele>
        <time>2024-04-14T09:45:03Z</time>
      </trkpt>
      <trkpt lat="45.10126" lon="0.60061">
        <ele>122.9</ele>
        <time>2024-04-14T09:45:04Z</time>
      </trkpt>
      <trkpt lat="45.10129" lon="0.60062">
        <ele>123.3</ele>
        <time>2024-04-14T09:45:06Z</time>
      </trkpt>
      <trkpt lat="45.1013" lon="0.60063">
        <ele>123.5</ele>
        <time>2024-04-14T09:45:07Z</time>
      </trkpt>
      <trkpt lat="45.10132" lon="0.60064">
        <ele>123.6</ele>
        <time>2024-04-14T09:45:08Z</time>
      </trkpt>
      <trkpt lat="45.10135" lon="0.60066">
        <ele>124</ele>
        <time>2024-04-14T09:45:10Z</time>
      </trkpt>
      <trkpt lat="45.10136" lon="0.60067">
        <ele>124.1</ele>
        <time>2024-04-14T09:45:11Z</time>
      </trkpt>
      <trkpt lat="45.10137" lon="0.60068">
        <ele>124.3</ele>
        <time>2024-04-14T09:45:12Z</time>
      </trkpt>
      <trkpt lat="45.1014" lon="0.6007">
        <ele>124.6</ele>
        <time>2024-04-14T09:45:14Z</time>
      </trkpt>
      <trkpt lat="45.10142" lon="0.60071">
        <ele>124.8</ele>
        <time>2024-04-14T09:45:15Z</time>
      </trkpt>
      <trkpt lat="45.10144" lon="0.60072">
        <ele>125.1</ele>
        <time>2024-04-14T09:45:16Z</time>
      </trkpt>
      <trkpt lat="45.10146" lon="0.60073">
        <ele>125.3</ele>
        <time>2024-04-14T09:45:17Z</time>
      </trkpt>
      <trkpt lat="45.10147" lon="0.60075">
        <ele>125.4</ele>
        <time>2024-04-14T09:45:18Z</time>
      </trkpt>
      <trkpt lat="45.10151" lon="0.60078">
        <ele>125.8</ele>
        <time>2024-04-14T09:45:20Z</time>
      </trkpt>
      <trkpt lat="45.10154" lon="0.6008">
        <ele>126.1</ele>
        <time>2024-04-14T09:45:22Z</time>
      </trkpt>
      <trkpt lat="45.10157" lon="0.60082">
        <ele>126.4</ele>
        <time>2024-04-14T09:45:24Z</time>
      </trkpt>
      <trkpt lat="45.1016" lon="0.60084">
        <ele>126.8</ele>
        <time>2024-04-14T09:45:26Z</time>
      </trkpt>
      <trkpt lat="45.10161" lon="0.60085">
        <ele>126.9</ele>
        <time>2024-04-14T09:45:27Z</time>
      </trkpt>
      <trkpt lat="45.10163" lon="0.60086">
        <ele>127</ele>
        <time>2024-04-14T09:45:28Z</time>
      </trkpt>
      <trkpt lat="45.10166" lon="0.60087">
        <ele>127.4</ele>
        <time>2024-04-14T09:45:30Z</time>
      </trkpt>
      <trkpt lat="45.10167" lon="0.60088">
        <ele>127.5</ele>
        <time>2024-04-14T09:45:31Z</time>
      </trkpt>
      <trkpt lat="45.10167" lon="0.60088">
        <ele>127.5</ele>
        <time>2024-04-14T09:45:32Z</time>
      </trkpt>
      <trkpt lat="45.10169" lon="0.60092">
        <ele>127.8</ele>
        <time>2024-04-14T09:45:34Z</time>
      </trkpt>
      <trkpt lat="45.10173" lon="0.60094">
        <ele>128.2</ele>
        <time>2024-04-14T09:45:36Z</time>
      </trkpt>
      <trkpt lat="45.10176" lon="0.60095">
        <ele>128.5</ele>
        <time>2024-04-14T09:45:38Z</time>
      </trkpt>
      <trkpt lat="45.1018" lon="0.60098">
        <ele>128.9</ele>
        <time>2024-04-14T09:45:43Z</time>
      </trkpt>
      <trkpt lat="45.10181" lon="0.60098">
        <ele>129.1</ele>
        <time>2024-04-14T09:45:44Z</time>
      </trkpt>
      <trkpt lat="45.10184" lon="0.601">
        <ele>129.3</ele>
        <time>2024-04-14T09:45:46Z</time>
      </trkpt>
      <trkpt lat="45.10185" lon="0.60101">
        <ele>129.5</ele>
        <time>2024-04-14T09:45:47Z</time>
      </trkpt>
      <trkpt lat="45.10187" lon="0.60101">
        <ele>129.7</ele>
        <time>2024-04-14T09:45:48Z</time>
      </trkpt>
      <trkpt lat="45.10189" lon="0.60102">
        <ele>130</ele>
        <time>2024-04-14T09:45:50Z</time>
      </trkpt>
      <trkpt lat="45.1019" lon="0.60103">
        <ele>130.1</ele>
        <time>2024-04-14T09:45:51Z</time>
      </trkpt>
      <trkpt lat="45.10191" lon="0.60103">
        <ele>130.2</ele>
        <time>2024-04-14T09:45:52Z</time>
      </trkpt>
      <trkpt lat="45.10191" lon="0.60104">
        <ele>130.2</ele>
        <time>2024-04-14T09:45:53Z</time>
      </trkpt>
      <trkpt lat="45.10199" lon="0.60106">
        <ele>131</ele>
        <time>2024-04-14T09:45:59Z</time>
      </trkpt>
      <trkpt lat="45.102" lon="0.60107">
        <ele>131.2</ele>
        <time>2024-04-14T09:46:00Z</time>
      </trkpt>
      <trkpt lat="45.10202" lon="0.60109">
        <ele>131.4</ele>
        <time>2024-04-14T09:46:01Z</time>
      </trkpt>
      <trkpt lat="45.10203" lon="0.6011">
        <ele>131.5</ele>
        <time>2024-04-14T09:46:02Z</time>
      </trkpt>
      <trkpt lat="45.10205" lon="0.60112">
        <ele>131.7</ele>
        <time>2024-04-14T09:46:03Z</time>
      </trkpt>
      <trkpt lat="45.10207" lon="0.60113">
        <ele>131.9</ele>
        <time>2024-04-14T09:46:04Z</time>
      </trkpt>
      <trkpt lat="45.10209" lon="0.60115">
        <ele>132.1</ele>
        <time>2024-04-14T09:46:06Z</time>
      </trkpt>
      <trkpt lat="45.10212" lon="0.60118">
        <ele>132.4</ele>
        <time>2024-04-14T09:46:08Z</time>
      </trkpt>
      <trkpt lat="45.10214" lon="0.6012">
        <ele>132.5</ele>
        <time>2024-04-14T09:46:09Z</time>
      </trkpt>
      <trkpt lat="45.10216" lon="0.60122">
        <ele>132.7</ele>
        <time>2024-04-14T09:46:10Z</time>
      </trkpt>
      <trkpt lat="45.10217" lon="0.60124">
        <ele>132.9</ele>
        <time>2024-04-14T09:46:11Z</time>
      </trkpt>
      <trkpt lat="45.10219" lon="0.60125">
        <ele>133</ele>
        <time>2024-04-14T09:46:12Z</time>
      </trkpt>
      <trkpt lat="45.1022" lon="0.60127">
        <ele>133.1</ele>
        <time>2024-04-14T09:46:13Z</time>
      </trkpt>
      <trkpt lat="45.10221" lon="0.60128">
        <ele>133.2</ele>
        <time>2024-04-14T09:46:14Z</time>
      </trkpt>
      <trkpt lat="45.10221" lon="0.6013">
        <ele>133.4</ele>
        <time>2024-04-14T09:46:15Z</time>
      </trkpt>
      <trkpt lat="45.10222" lon="0.60133">
        <ele>133.5</ele>
        <time>2024-04-14T09:46:16Z</time>
      </trkpt>
      <trkpt lat="45.10225" lon="0.60136">
        <ele>133.8</ele>
        <time>2024-04-14T09:46:18Z</time>
      </trkpt>
      <trkpt lat="45.10229" lon="0.6014">
        <ele>134.3</ele>
        <time>2024-04-14T09:46:20Z</time>
      </trkpt>
      <trkpt lat="45.10233" lon="0.60144">
        <ele>134.7</ele>
        <time>2024-04-14T09:46:22Z</time>
      </trkpt>
      <trkpt lat="45.10234" lon="0.60146">
        <ele>135</ele>
        <time>2024-04-14T09:46:23Z</time>
      </trkpt>
      <trkpt lat="45.10235" lon="0.60148">
        <ele>135.2</ele>
        <time>2024-04-14T09:46:24Z</time>
      </trkpt>
      <trkpt lat="45.10237" lon="0.60153">
        <ele>135.6</ele>
        <time>2024-04-14T09:46:26Z</time>
      </trkpt>
      <trkpt lat="45.10239" lon="0.60156">
        <ele>136</ele>
        <time>2024-04-14T09:46:28Z</time>
      </trkpt>
      <trkpt lat="45.10242" lon="0.60159">
        <ele>136.4</ele>
        <time>2024-04-14T09:46:30Z</time>
      </trkpt>
      <trkpt lat="45.10243" lon="0.60161">
        <ele>136.7</ele>
        <time>2024-04-14T09:46:31Z</time>
      </trkpt>
      <trkpt lat="45.10245" lon="0.60162">
        <ele>137</ele>
        <time>2024-04-14T09:46:32Z</time>
      </trkpt>
      <trkpt lat="45.10248" lon="0.60164">
        <ele>137.4</ele>
        <time>2024-04-14T09:46:34Z</time>
      </trkpt>
      <trkpt lat="45.10249" lon="0.60166">
        <ele>137.6</ele>
        <time>2024-04-14T09:46:35Z</time>
      </trkpt>
      <trkpt lat="45.10249" lon="0.60167">
        <ele>137.8</ele>
        <time>2024-04-14T09:46:36Z</time>
      </trkpt>
      <trkpt lat="45.10252" lon="0.60169">
        <ele>138.2</ele>
        <time>2024-04-14T09:46:38Z</time>
      </trkpt>
      <trkpt lat="45.10253" lon="0.60172">
        <ele>138.5</ele>
        <time>2024-04-14T09:46:40Z</time>
      </trkpt>
      <trkpt lat="45.10254" lon="0.60173">
        <ele>138.7</ele>
        <time>2024-04-14T09:46:41Z</time>
      </trkpt>
      <trkpt lat="45.10255" lon="0.60175">
        <ele>138.8</ele>
        <time>2024-04-14T09:46:42Z</time>
      </trkpt>
      <trkpt lat="45.10259" lon="0.60177">
        <ele>139.5</ele>
        <time>2024-04-14T09:46:44Z</time>
      </trkpt>
      <trkpt lat="45.10261" lon="0.6018">
        <ele>139.8</ele>
        <time>2024-04-14T09:46:46Z</time>
      </trkpt>
      <trkpt lat="45.10262" lon="0.6018">
        <ele>140.1</ele>
        <time>2024-04-14T09:46:47Z</time>
      </trkpt>
      <trkpt lat="45.10264" lon="0.60181">
        <ele>140.3</ele>
        <time>2024-04-14T09:46:48Z</time>
      </trkpt>
      <trkpt lat="45.10266" lon="0.60182">
        <ele>140.7</ele>
        <time>2024-04-14T09:46:50Z</time>
      </trkpt>
      <trkpt lat="45.10269" lon="0.60182">
        <ele>141</ele>
        <time>2024-04-14T09:46:52Z</time>
      </trkpt>
      <trkpt lat="45.10269" lon="0.60183">
        <ele>141.2</ele>
        <time>2024-04-14T09:46:53Z</time>
      </trkpt>
      <trkpt lat="45.1027" lon="0.60185">
        <ele>141.3</ele>
        <time>2024-04-14T09:46:54Z</time>
      </trkpt>
      <trkpt lat="45.10271" lon="0.60187">
        <ele>141.6</ele>
        <time>2024-04-14T09:46:56Z</time>
      </trkpt>
      <trkpt lat="45.10273" lon="0.60189">
        <ele>141.9</ele>
        <time>2024-04-14T09:46:58Z</time>
      </trkpt>
      <trkpt lat="45.10274" lon="0.6019">
        <ele>142</ele>
        <time>2024-04-14T09:46:59Z</time>
      </trkpt>
      <trkpt lat="45.10275" lon="0.60191">
        <ele>142.2</ele>
        <time>2024-04-14T09:47:00Z</time>
      </trkpt>
      <trkpt lat="45.10277" lon="0.60192">
        <ele>142.5</ele>
        <time>2024-04-14T09:47:02Z</time>
      </trkpt>
      <trkpt lat="45.10278" lon="0.60193">
        <ele>142.6</ele>
        <time>2024-04-14T09:47:03Z</time>
      </trkpt>
      <trkpt lat="45.10278" lon="0.60193">
        <ele>142.7</ele>
        <time>2024-04-14T09:47:04Z</time>
      </trkpt>
      <trkpt lat="45.10279" lon="0.60194">
        <ele>142.8</ele>
        <time>2024-04-14T09:47:05Z</time>
      </trkpt>
      <trkpt lat="45.1028" lon="0.60195">
        <ele>143</ele>
        <time>2024-04-14T09:47:06Z</time>
      </trkpt>
      <trkpt lat="45.10282" lon="0.60197">
        <ele>143.3</ele>
        <time>2024-04-14T09:47:08Z</time>
      </trkpt>
      <trkpt lat="45.10284" lon="0.602">
        <ele>143.6</ele>
        <time>2024-04-14T09:47:10Z</time>
      </trkpt>
      <trkpt lat="45.10285" lon="0.60202">
        <ele>143.8</ele>
        <time>2024-04-14T09:47:12Z</time>
      </trkpt>
      <trkpt lat="45.10287" lon="0.60204">
        <ele>144.2</ele>
        <time>2024-04-14T09:47:14Z</time>
      </trkpt>
      <trkpt lat="45.10289" lon="0.60206">
        <ele>144.5</ele>
        <time>2024-04-14T09:47:16Z</time>
      </trkpt>
      <trkpt lat="45.10291" lon="0.60207">
        <ele>144.8</ele>
        <time>2024-04-14T09:47:18Z</time>
      </trkpt>
      <trkpt lat="45.10293" lon="0.60208">
        <ele>144.9</ele>
        <time>2024-04-14T09:47:19Z</time>
      </trkpt>
      <trkpt lat="45.10294" lon="0.60209">
        <ele>145.1</ele>
        <time>2024-04-14T09:47:20Z</time>
      </trkpt>
      <trkpt lat="45.10295" lon="0.60211">
        <ele>145.2</ele>
        <time>2024-04-14T09:47:21Z</time>
      </trkpt>
      <trkpt lat="45.10296" lon="0.60212">
        <ele>145.4</ele>
        <time>2024-04-14T09:47:22Z</time>
      </trkpt>
      <trkpt lat="45.10299" lon="0.60213">
        <ele>145.7</ele>
        <time>2024-04-14T09:47:24Z</time>
      </trkpt>
      <trkpt lat="45.10302" lon="0.60215">
        <ele>146</ele>
        <time>2024-04-14T09:47:26Z</time>
      </trkpt>
      <trkpt lat="45.10304" lon="0.60217">
        <ele>146.3</ele>
        <time>2024-04-14T09:47:28Z</time>
      </trkpt>
      <trkpt lat="45.10306" lon="0.60219">
        <ele>146.6</ele>
        <time>2024-04-14T09:47:30Z</time>
      </trkpt>
      <trkpt lat="45.10307" lon="0.60221">
        <ele>146.8</ele>
        <time>2024-04-14T09:47:32Z</time>
      </trkpt>
      <trkpt lat="45.10309" lon="0.60223">
        <ele>146.9</ele>
        <time>2024-04-14T09:47:34Z</time>
      </trkpt>
      <trkpt lat="45.1031" lon="0.60225">
        <ele>147.1</ele>
        <time>2024-04-14T09:47:36Z</time>
      </trkpt>
      <trkpt lat="45.10311" lon="0.60225">
        <ele>147.2</ele>
        <time>2024-04-14T09:47:37Z</time>
      </trkpt>
      <trkpt lat="45.10312" lon="0.60226">
        <ele>147.3</ele>
        <time>2024-04-14T09:47:38Z</time>
      </trkpt>
      <trkpt lat="45.10315" lon="0.60227">
        <ele>147.5</ele>
        <time>2024-04-14T09:47:40Z</time>
      </trkpt>
      <trkpt lat="45.10318" lon="0.60228">
        <ele>147.6</ele>
        <time>2024-04-14T09:47:42Z</time>
      </trkpt>
      <trkpt lat="45.10319" lon="0.6023">
        <ele>147.7</ele>
        <time>2024-04-14T09:47:43Z</time>
      </trkpt>
      <trkpt lat="45.1032" lon="0.6023">
        <ele>147.8</ele>
        <time>2024-04-14T09:47:44Z</time>
      </trkpt>
      <trkpt lat="45.10323" lon="0.60232">
        <ele>147.9</ele>
        <time>2024-04-14T09:47:46Z</time>
      </trkpt>
      <trkpt lat="45.10326" lon="0.60234">
        <ele>148</ele>
        <time>2024-04-14T09:47:48Z</time>
      </trkpt>
      <trkpt lat="45.10329" lon="0.60236">
        <ele>148.2</ele>
        <time>2024-04-14T09:47:50Z</time>
      </trkpt>
      <trkpt lat="45.10332" lon="0.60238">
        <ele>148.3</ele>
        <time>2024-04-14T09:47:52Z</time>
      </trkpt>
      <trkpt lat="45.10332" lon="0.60239">
        <ele>148.4</ele>
        <time>2024-04-14T09:47:53Z</time>
      </trkpt>
      <trkpt lat="45.10334" lon="0.6024">
        <ele>148.5</ele>
        <time>2024-04-14T09:47:54Z</time>
      </trkpt>
      <trkpt lat="45.10337" lon="0.60243">
        <ele>148.7</ele>
        <time>2024-04-14T09:47:56Z</time>
      </trkpt>
      <trkpt lat="45.1034" lon="0.60245">
        <ele>148.8</ele>
        <time>2024-04-14T09:47:58Z</time>
      </trkpt>
      <trkpt lat="45.10341" lon="0.60247">
        <ele>149</ele>
        <time>2024-04-14T09:48:00Z</time>
      </trkpt>
      <trkpt lat="45.10343" lon="0.60248">
        <ele>149.1</ele>
        <time>2024-04-14T09:48:01Z</time>
      </trkpt>
      <trkpt lat="45.10344" lon="0.60249">
        <ele>149.2</ele>
        <time>2024-04-14T09:48:02Z</time>
      </trkpt>
      <trkpt lat="45.10347" lon="0.60251">
        <ele>149.5</ele>
        <time>2024-04-14T09:48:04Z</time>
      </trkpt>
      <trkpt lat="45.10349" lon="0.60254">
        <ele>149.7</ele>
        <time>2024-04-14T09:48:06Z</time>
      </trkpt>
      <trkpt lat="45.10353" lon="0.60257">
        <ele>150.2</ele>
        <time>2024-04-14T09:48:08Z</time>
      </trkpt>
      <trkpt lat="45.10355" lon="0.6026">
        <ele>150.6</ele>
        <time>2024-04-14T09:48:10Z</time>
      </trkpt>
      <trkpt lat="45.10355" lon="0.60262">
        <ele>150.7</ele>
        <time>2024-04-14T09:48:11Z</time>
      </trkpt>
      <trkpt lat="45.10356" lon="0.60263">
        <ele>150.9</ele>
        <time>2024-04-14T09:48:12Z</time>
      </trkpt>
      <trkpt lat="45.10358" lon="0.60265">
        <ele>151.2</ele>
        <time>2024-04-14T09:48:14Z</time>
      </trkpt>
      <trkpt lat="45.10359" lon="0.60266">
        <ele>151.4</ele>
        <time>2024-04-14T09:48:15Z</time>
      </trkpt>
      <trkpt lat="45.10361" lon="0.60267">
        <ele>151.7</ele>
        <time>2024-04-14T09:48:16Z</time>
      </trkpt>
      <trkpt lat="45.10364" lon="0.60269">
        <ele>152.3</ele>
        <time>2024-04-14T09:48:18Z</time>
      </trkpt>
      <trkpt lat="45.10365" lon="0.60269">
        <ele>152.4</ele>
        <time>2024-04-14T09:48:20Z</time>
      </trkpt>
      <trkpt lat="45.1037" lon="0.60271">
        <ele>153.2</ele>
        <time>2024-04-14T09:48:22Z</time>
      </trkpt>
      <trkpt lat="45.10374" lon="0.60273">
        <ele>153.9</ele>
        <time>2024-04-14T09:48:24Z</time>
      </trkpt>
      <trkpt lat="45.10376" lon="0.60275">
        <ele>154.4</ele>
        <time>2024-04-14T09:48:26Z</time>
      </trkpt>
      <trkpt lat="45.10376" lon="0.60275">
        <ele>154.4</ele>
        <time>2024-04-14T09:48:27Z</time>
      </trkpt>
      <trkpt lat="45.10445" lon="0.60173">
        <ele>169.4</ele>
        <time>2024-04-14T09:50:08Z</time>
      </trkpt>
      <trkpt lat="45.10448" lon="0.60171">
        <ele>169.5</ele>
        <time>2024-04-14T09:50:10Z</time>
      </trkpt>
      <trkpt lat="45.10449" lon="0.60167">
        <ele>169.5</ele>
        <time>2024-04-14T09:50:12Z</time>
      </trkpt>
      <trkpt lat="45.10451" lon="0.60165">
        <ele>169.4</ele>
        <time>2024-04-14T09:50:13Z</time>
      </trkpt>
      <trkpt lat="45.10453" lon="0.60163">
        <ele>169.4</ele>
        <time>2024-04-14T09:50:14Z</time>
      </trkpt>
      <trkpt lat="45.10453" lon="0.60155">
        <ele>169.8</ele>
        <time>2024-04-14T09:50:16Z</time>
      </trkpt>
      <trkpt lat="45.10454" lon="0.60152">
        <ele>169.9</ele>
        <time>2024-04-14T09:50:17Z</time>
      </trkpt>
      <trkpt lat="45.10454" lon="0.60149">
        <ele>170.1</ele>
        <time>2024-04-14T09:50:18Z</time>
      </trkpt>
      <trkpt lat="45.10455" lon="0.60145">
        <ele>170.4</ele>
        <time>2024-04-14T09:50:20Z</time>
      </trkpt>
      <trkpt lat="45.10456" lon="0.60142">
        <ele>170.6</ele>
        <time>2024-04-14T09:50:22Z</time>
      </trkpt>
      <trkpt lat="45.10458" lon="0.60138">
        <ele>170.8</ele>
        <time>2024-04-14T09:50:24Z</time>
      </trkpt>
      <trkpt lat="45.10459" lon="0.60134">
        <ele>171.1</ele>
        <time>2024-04-14T09:50:26Z</time>
      </trkpt>
      <trkpt lat="45.10461" lon="0.6013">
        <ele>171.4</ele>
        <time>2024-04-14T09:50:28Z</time>
      </trkpt>
      <trkpt lat="45.10463" lon="0.60128">
        <ele>171.5</ele>
        <time>2024-04-14T09:50:29Z</time>
      </trkpt>
      <trkpt lat="45.10464" lon="0.60125">
        <ele>171.7</ele>
        <time>2024-04-14T09:50:30Z</time>
      </trkpt>
      <trkpt lat="45.10466" lon="0.60124">
        <ele>171.8</ele>
        <time>2024-04-14T09:50:31Z</time>
      </trkpt>
      <trkpt lat="45.10467" lon="0.60122">
        <ele>171.9</ele>
        <time>2024-04-14T09:50:32Z</time>
      </trkpt>
      <trkpt lat="45.10471" lon="0.60118">
        <ele>172.2</ele>
        <time>2024-04-14T09:50:34Z</time>
      </trkpt>
      <trkpt lat="45.10472" lon="0.60116">
        <ele>172.3</ele>
        <time>2024-04-14T09:50:35Z</time>
      </trkpt>
      <trkpt lat="45.10473" lon="0.60113">
        <ele>172.4</ele>
        <time>2024-04-14T09:50:36Z</time>
      </trkpt>
      <trkpt lat="45.10472" lon="0.60107">
        <ele>172.7</ele>
        <time>2024-04-14T09:50:38Z</time>
      </trkpt>
      <trkpt lat="45.10473" lon="0.60104">
        <ele>172.8</ele>
        <time>2024-04-14T09:50:39Z</time>
      </trkpt>
      <trkpt lat="45.10473" lon="0.60102">
        <ele>172.9</ele>
        <time>2024-04-14T09:50:40Z</time>
      </trkpt>
      <trkpt lat="45.10475" lon="0.60097">
        <ele>173.1</ele>
        <time>2024-04-14T09:50:42Z</time>
      </trkpt>
      <trkpt lat="45.10478" lon="0.60092">
        <ele>173.4</ele>
        <time>2024-04-14T09:50:44Z</time>
      </trkpt>
      <trkpt lat="45.1048" lon="0.60088">
        <ele>173.7</ele>
        <time>2024-04-14T09:50:46Z</time>
      </trkpt>
      <trkpt lat="45.10478" lon="0.60083">
        <ele>174</ele>
        <time>2024-04-14T09:50:48Z</time>
      </trkpt>
      <trkpt lat="45.10478" lon="0.60081">
        <ele>174.2</ele>
        <time>2024-04-14T09:50:49Z</time>
      </trkpt>
      <trkpt lat="45.10477" lon="0.6008">
        <ele>174.3</ele>
        <time>2024-04-14T09:50:50Z</time>
      </trkpt>
      <trkpt lat="45.10474" lon="0.60078">
        <ele>174.6</ele>
        <time>2024-04-14T09:50:52Z</time>
      </trkpt>
      <trkpt lat="45.10472" lon="0.60076">
        <ele>174.8</ele>
        <time>2024-04-14T09:50:54Z</time>
      </trkpt>
      <trkpt lat="45.10468" lon="0.60074">
        <ele>175.2</ele>
        <time>2024-04-14T09:50:56Z</time>
      </trkpt>
      <trkpt lat="45.10466" lon="0.6007">
        <ele>175.6</ele>
        <time>2024-04-14T09:50:58Z</time>
      </trkpt>
      <trkpt lat="45.10465" lon="0.60068">
        <ele>175.8</ele>
        <time>2024-04-14T09:50:59Z</time>
      </trkpt>
      <trkpt lat="45.10464" lon="0.60066">
        <ele>176</ele>
        <time>2024-04-14T09:51:00Z</time>
      </trkpt>
      <trkpt lat="45.10462" lon="0.60064">
        <ele>176.3</ele>
        <time>2024-04-14T09:51:02Z</time>
      </trkpt>
      <trkpt lat="45.1046" lon="0.60062">
        <ele>176.5</ele>
        <time>2024-04-14T09:51:04Z</time>
      </trkpt>
      <trkpt lat="45.1046" lon="0.60061">
        <ele>176.6</ele>
        <time>2024-04-14T09:51:05Z</time>
      </trkpt>
      <trkpt lat="45.1046" lon="0.60059">
        <ele>176.7</ele>
        <time>2024-04-14T09:51:06Z</time>
      </trkpt>
      <trkpt lat="45.10459" lon="0.60055">
        <ele>177.1</ele>
        <time>2024-04-14T09:51:08Z</time>
      </trkpt>
      <trkpt lat="45.10457" lon="0.60051">
        <ele>177.5</ele>
        <time>2024-04-14T09:51:10Z</time>
      </trkpt>
      <trkpt lat="45.10456" lon="0.60048">
        <ele>177.7</ele>
        <time>2024-04-14T09:51:11Z</time>
      </trkpt>
      <trkpt lat="45.10455" lon="0.60046">
        <ele>177.9</ele>
        <time>2024-04-14T09:51:12Z</time>
      </trkpt>
      <trkpt lat="45.10453" lon="0.60041">
        <ele>178.3</ele>
        <time>2024-04-14T09:51:14Z</time>
      </trkpt>
      <trkpt lat="45.10452" lon="0.60039">
        <ele>178.5</ele>
        <time>2024-04-14T09:51:15Z</time>
      </trkpt>
      <trkpt lat="45.10451" lon="0.60037">
        <ele>178.7</ele>
        <time>2024-04-14T09:51:16Z</time>
      </trkpt>
      <trkpt lat="45.10449" lon="0.60033">
        <ele>179</ele>
        <time>2024-04-14T09:51:18Z</time>
      </trkpt>
      <trkpt lat="45.10449" lon="0.60029">
        <ele>179.2</ele>
        <time>2024-04-14T09:51:20Z</time>
      </trkpt>
      <trkpt lat="45.10449" lon="0.60028">
        <ele>179.3</ele>
        <time>2024-04-14T09:51:21Z</time>
      </trkpt>
      <trkpt lat="45.10448" lon="0.60027">
        <ele>179.4</ele>
        <time>2024-04-14T09:51:22Z</time>
      </trkpt>
      <trkpt lat="45.10447" lon="0.60022">
        <ele>179.7</ele>
        <time>2024-04-14T09:51:24Z</time>
      </trkpt>
      <trkpt lat="45.10446" lon="0.60018">
        <ele>180</ele>
        <time>2024-04-14T09:51:26Z</time>
      </trkpt>
      <trkpt lat="45.10446" lon="0.60013">
        <ele>180.3</ele>
        <time>2024-04-14T09:51:28Z</time>
      </trkpt>
      <trkpt lat="45.10446" lon="0.60008">
        <ele>180.6</ele>
        <time>2024-04-14T09:51:30Z</time>
      </trkpt>
      <trkpt lat="45.10446" lon="0.60005">
        <ele>180.8</ele>
        <time>2024-04-14T09:51:31Z</time>
      </trkpt>
      <trkpt lat="45.10445" lon="0.60003">
        <ele>180.9</ele>
        <time>2024-04-14T09:51:32Z</time>
      </trkpt>
      <trkpt lat="45.10444" lon="0.59997">
        <ele>181.3</ele>
        <time>2024-04-14T09:51:34Z</time>
      </trkpt>
      <trkpt lat="45.10442" lon="0.59993">
        <ele>181.5</ele>
        <time>2024-04-14T09:51:36Z</time>
      </trkpt>
      <trkpt lat="45.10442" lon="0.59991">
        <ele>181.6</ele>
        <time>2024-04-14T09:51:37Z</time>
      </trkpt>
      <trkpt lat="45.10441" lon="0.59989">
        <ele>181.8</ele>
        <time>2024-04-14T09:51:38Z</time>
      </trkpt>
      <trkpt lat="45.10439" lon="0.59984">
        <ele>182.1</ele>
        <time>2024-04-14T09:51:40Z</time>
      </trkpt>
      <trkpt lat="45.10438" lon="0.59979">
        <ele>182.4</ele>
        <time>2024-04-14T09:51:42Z</time>
      </trkpt>
      <trkpt lat="45.10436" lon="0.59974">
        <ele>182.7</ele>
        <time>2024-04-14T09:51:44Z</time>
      </trkpt>
      <trkpt lat="45.10435" lon="0.59969">
        <ele>183</ele>
        <time>2024-04-14T09:51:46Z</time>
      </trkpt>
      <trkpt lat="45.10433" lon="0.59966">
        <ele>183.2</ele>
        <time>2024-04-14T09:51:48Z</time>
      </trkpt>
      <trkpt lat="45.10432" lon="0.59961">
        <ele>183.5</ele>
        <time>2024-04-14T09:51:50Z</time>
      </trkpt>
      <trkpt lat="45.10431" lon="0.59955">
        <ele>183.9</ele>
        <time>2024-04-14T09:51:52Z</time>
      </trkpt>
      <trkpt lat="45.1043" lon="0.59948">
        <ele>184.3</ele>
        <time>2024-04-14T09:51:54Z</time>
      </trkpt>
      <trkpt lat="45.10428" lon="0.59942">
        <ele>184.7</ele>
        <time>2024-04-14T09:51:56Z</time>
      </trkpt>
      <trkpt lat="45.10426" lon="0.59938">
        <ele>185</ele>
        <time>2024-04-14T09:51:58Z</time>
      </trkpt>
      <trkpt lat="45.10425" lon="0.59933">
        <ele>185.2</ele>
        <time>2024-04-14T09:52:00Z</time>
      </trkpt>
      <trkpt lat="45.10424" lon="0.5993">
        <ele>185.4</ele>
        <time>2024-04-14T09:52:01Z</time>
      </trkpt>
      <trkpt lat="45.10424" lon="0.59928">
        <ele>185.5</ele>
        <time>2024-04-14T09:52:02Z</time>
      </trkpt>
      <trkpt lat="45.10422" lon="0.59924">
        <ele>185.7</ele>
        <time>2024-04-14T09:52:04Z</time>
      </trkpt>
      <trkpt lat="45.1042" lon="0.59919">
        <ele>186</ele>
        <time>2024-04-14T09:52:06Z</time>
      </trkpt>
      <trkpt lat="45.10419" lon="0.59917">
        <ele>186.1</ele>
        <time>2024-04-14T09:52:07Z</time>
      </trkpt>
      <trkpt lat="45.10418" lon="0.59914">
        <ele>186.3</ele>
        <time>2024-04-14T09:52:08Z</time>
      </trkpt>
      <trkpt lat="45.10416" lon="0.59909">
        <ele>186.6</ele>
        <time>2024-04-14T09:52:10Z</time>
      </trkpt>
      <trkpt lat="45.10414" lon="0.59903">
        <ele>186.9</ele>
        <time>2024-04-14T09:52:12Z</time>
      </trkpt>
      <trkpt lat="45.10412" lon="0.59896">
        <ele>187.2</ele>
        <time>2024-04-14T09:52:14Z</time>
      </trkpt>
      <trkpt lat="45.10409" lon="0.5989">
        <ele>187.6</ele>
        <time>2024-04-14T09:52:16Z</time>
      </trkpt>
      <trkpt lat="45.10407" lon="0.59885">
        <ele>187.9</ele>
        <time>2024-04-14T09:52:18Z</time>
      </trkpt>
      <trkpt lat="45.10405" lon="0.5988">
        <ele>188.2</ele>
        <time>2024-04-14T09:52:20Z</time>
      </trkpt>
      <trkpt lat="45.10404" lon="0.59877">
        <ele>188.4</ele>
        <time>2024-04-14T09:52:21Z</time>
      </trkpt>
      <trkpt lat="45.10403" lon="0.59874">
        <ele>188.6</ele>
        <time>2024-04-14T09:52:22Z</time>
      </trkpt>
      <trkpt lat="45.104" lon="0.59869">
        <ele>188.9</ele>
        <time>2024-04-14T09:52:24Z</time>
      </trkpt>
      <trkpt lat="45.10399" lon="0.59866">
        <ele>189.1</ele>
        <time>2024-04-14T09:52:25Z</time>
      </trkpt>
      <trkpt lat="45.10398" lon="0.59863">
        <ele>189.3</ele>
        <time>2024-04-14T09:52:26Z</time>
      </trkpt>
      <trkpt lat="45.10395" lon="0.59857">
        <ele>189.6</ele>
        <time>2024-04-14T09:52:28Z</time>
      </trkpt>
      <trkpt lat="45.10392" lon="0.59852">
        <ele>190</ele>
        <time>2024-04-14T09:52:30Z</time>
      </trkpt>
      <trkpt lat="45.10392" lon="0.59848">
        <ele>190.2</ele>
        <time>2024-04-14T09:52:31Z</time>
      </trkpt>
      <trkpt lat="45.10391" lon="0.59845">
        <ele>190.4</ele>
        <time>2024-04-14T09:52:32Z</time>
      </trkpt>
      <trkpt lat="45.10388" lon="0.59839">
        <ele>190.7</ele>
        <time>2024-04-14T09:52:34Z</time>
      </trkpt>
      <trkpt lat="45.10386" lon="0.59834">
        <ele>191</ele>
        <time>2024-04-14T09:52:36Z</time>
      </trkpt>
      <trkpt lat="45.10383" lon="0.59829">
        <ele>191.3</ele>
        <time>2024-04-14T09:52:38Z</time>
      </trkpt>
      <trkpt lat="45.1038" lon="0.59825">
        <ele>191.6</ele>
        <time>2024-04-14T09:52:40Z</time>
      </trkpt>
      <trkpt lat="45.10377" lon="0.59821">
        <ele>191.9</ele>
        <time>2024-04-14T09:52:42Z</time>
      </trkpt>
      <trkpt lat="45.10373" lon="0.59817">
        <ele>192.2</ele>
        <time>2024-04-14T09:52:44Z</time>
      </trkpt>
      <trkpt lat="45.1037" lon="0.59814">
        <ele>192.5</ele>
        <time>2024-04-14T09:52:46Z</time>
      </trkpt>
      <trkpt lat="45.10368" lon="0.59812">
        <ele>192.6</ele>
        <time>2024-04-14T09:52:47Z</time>
      </trkpt>
      <trkpt lat="45.10366" lon="0.59811">
        <ele>192.8</ele>
        <time>2024-04-14T09:52:48Z</time>
      </trkpt>
      <trkpt lat="45.10364" lon="0.59807">
        <ele>193.1</ele>
        <time>2024-04-14T09:52:50Z</time>
      </trkpt>
      <trkpt lat="45.10361" lon="0.59803">
        <ele>193.3</ele>
        <time>2024-04-14T09:52:52Z</time>
      </trkpt>
      <trkpt lat="45.10358" lon="0.59799">
        <ele>193.7</ele>
        <time>2024-04-14T09:52:54Z</time>
      </trkpt>
      <trkpt lat="45.10355" lon="0.59795">
        <ele>194</ele>
        <time>2024-04-14T09:52:56Z</time>
      </trkpt>
      <trkpt lat="45.10352" lon="0.59792">
        <ele>194.3</ele>
        <time>2024-04-14T09:52:58Z</time>
      </trkpt>
      <trkpt lat="45.10349" lon="0.59787">
        <ele>194.6</ele>
        <time>2024-04-14T09:53:00Z</time>
      </trkpt>
      <trkpt lat="45.10346" lon="0.59784">
        <ele>194.9</ele>
        <time>2024-04-14T09:53:02Z</time>
      </trkpt>
      <trkpt lat="45.10344" lon="0.59781">
        <ele>195.2</ele>
        <time>2024-04-14T09:53:04Z</time>
      </trkpt>
      <trkpt lat="45.10342" lon="0.59778">
        <ele>195.5</ele>
        <time>2024-04-14T09:53:06Z</time>
      </trkpt>
      <trkpt lat="45.1034" lon="0.59776">
        <ele>195.7</ele>
        <time>2024-04-14T09:53:07Z</time>
      </trkpt>
      <trkpt lat="45.10339" lon="0.59774">
        <ele>195.9</ele>
        <time>2024-04-14T09:53:08Z</time>
      </trkpt>
      <trkpt lat="45.10336" lon="0.59769">
        <ele>196.2</ele>
        <time>2024-04-14T09:53:10Z</time>
      </trkpt>
      <trkpt lat="45.10335" lon="0.59767">
        <ele>196.3</ele>
        <time>2024-04-14T09:53:11Z</time>
      </trkpt>
      <trkpt lat="45.10334" lon="0.59765">
        <ele>196.3</ele>
        <time>2024-04-14T09:53:12Z</time>
      </trkpt>
      <trkpt lat="45.10333" lon="0.59763">
        <ele>196.4</ele>
        <time>2024-04-14T09:53:13Z</time>
      </trkpt>
      <trkpt lat="45.10332" lon="0.59762">
        <ele>196.4</ele>
        <time>2024-04-14T09:53:14Z</time>
      </trkpt>
      <trkpt lat="45.10331" lon="0.59758">
        <ele>196.6</ele>
        <time>2024-04-14T09:53:16Z</time>
      </trkpt>
      <trkpt lat="45.10329" lon="0.59753">
        <ele>196.8</ele>
        <time>2024-04-14T09:53:18Z</time>
      </trkpt>
      <trkpt lat="45.10327" lon="0.5975">
        <ele>197.1</ele>
        <time>2024-04-14T09:53:20Z</time>
      </trkpt>
      <trkpt lat="45.10325" lon="0.59746">
        <ele>197.3</ele>
        <time>2024-04-14T09:53:22Z</time>
      </trkpt>
      <trkpt lat="45.10324" lon="0.59743">
        <ele>197.5</ele>
        <time>2024-04-14T09:53:24Z</time>
      </trkpt>
      <trkpt lat="45.10323" lon="0.5974">
        <ele>197.7</ele>
        <time>2024-04-14T09:53:26Z</time>
      </trkpt>
      <trkpt lat="45.10322" lon="0.59739">
        <ele>197.8</ele>
        <time>2024-04-14T09:53:27Z</time>
      </trkpt>
      <trkpt lat="45.10322" lon="0.59738">
        <ele>197.9</ele>
        <time>2024-04-14T09:53:28Z</time>
      </trkpt>
      <trkpt lat="45.10321" lon="0.59736">
        <ele>198.1</ele>
        <time>2024-04-14T09:53:30Z</time>
      </trkpt>
      <trkpt lat="45.1032" lon="0.59733">
        <ele>198.3</ele>
        <time>2024-04-14T09:53:32Z</time>
      </trkpt>
      <trkpt lat="45.10317" lon="0.59729">
        <ele>198.5</ele>
        <time>2024-04-14T09:53:34Z</time>
      </trkpt>
      <trkpt lat="45.10315" lon="0.59726">
        <ele>198.7</ele>
        <time>2024-04-14T09:53:36Z</time>
      </trkpt>
      <trkpt lat="45.10314" lon="0.59722">
        <ele>199</ele>
        <time>2024-04-14T09:53:38Z</time>
      </trkpt>
      <trkpt lat="45.10312" lon="0.59719">
        <ele>199.2</ele>
        <time>2024-04-14T09:53:40Z</time>
      </trkpt>
      <trkpt lat="45.1031" lon="0.59715">
        <ele>199.4</ele>
        <time>2024-04-14T09:53:42Z</time>
      </trkpt>
      <trkpt lat="45.10309" lon="0.59712">
        <ele>199.5</ele>
        <time>2024-04-14T09:53:44Z</time>
      </trkpt>
      <trkpt lat="45.10306" lon="0.59709">
        <ele>199.7</ele>
        <time>2024-04-14T09:53:46Z</time>
      </trkpt>
      <trkpt lat="45.10305" lon="0.59706">
        <ele>199.8</ele>
        <time>2024-04-14T09:53:48Z</time>
      </trkpt>
      <trkpt lat="45.10304" lon="0.59702">
        <ele>200</ele>
        <time>2024-04-14T09:53:50Z</time>
      </trkpt>
      <trkpt lat="45.10303" lon="0.597">
        <ele>200.1</ele>
        <time>2024-04-14T09:53:51Z</time>
      </trkpt>
      <trkpt lat="45.10302" lon="0.59697">
        <ele>200.2</ele>
        <time>2024-04-14T09:53:52Z</time>
      </trkpt>
      <trkpt lat="45.103" lon="0.59693">
        <ele>200.3</ele>
        <time>2024-04-14T09:53:54Z</time>
      </trkpt>
      <trkpt lat="45.10299" lon="0.5969">
        <ele>200.5</ele>
        <time>2024-04-14T09:53:56Z</time>
      </trkpt>
      <trkpt lat="45.10298" lon="0.59686">
        <ele>200.6</ele>
        <time>2024-04-14T09:53:58Z</time>
      </trkpt>
      <trkpt lat="45.10297" lon="0.59682">
        <ele>200.7</ele>
        <time>2024-04-14T09:54:00Z</time>
      </trkpt>
      <trkpt lat="45.10295" lon="0.59678">
        <ele>200.8</ele>
        <time>2024-04-14T09:54:02Z</time>
      </trkpt>
      <trkpt lat="45.10294" lon="0.59674">
        <ele>200.9</ele>
        <time>2024-04-14T09:54:04Z</time>
      </trkpt>
      <trkpt lat="45.10294" lon="0.59672">
        <ele>201</ele>
        <time>2024-04-14T09:54:05Z</time>
      </trkpt>
      <trkpt lat="45.10293" lon="0.59671">
        <ele>201</ele>
        <time>2024-04-14T09:54:06Z</time>
      </trkpt>
      <trkpt lat="45.10292" lon="0.59669">
        <ele>201.1</ele>
        <time>2024-04-14T09:54:07Z</time>
      </trkpt>
      <trkpt lat="45.10291" lon="0.59667">
        <ele>201.1</ele>
        <time>2024-04-14T09:54:08Z</time>
      </trkpt>
      <trkpt lat="45.10289" lon="0.59663">
        <ele>201.2</ele>
        <time>2024-04-14T09:54:10Z</time>
      </trkpt>
      <trkpt lat="45.10288" lon="0.5966">
        <ele>201.3</ele>
        <time>2024-04-14T09:54:12Z</time>
      </trkpt>
      <trkpt lat="45.10288" lon="0.59658">
        <ele>201.3</ele>
        <time>2024-04-14T09:54:13Z</time>
      </trkpt>
      <trkpt lat="45.10287" lon="0.59656">
        <ele>201.3</ele>
        <time>2024-04-14T09:54:14Z</time>
      </trkpt>
      <trkpt lat="45.10286" lon="0.59654">
        <ele>201.4</ele>
        <time>2024-04-14T09:54:15Z</time>
      </trkpt>
      <trkpt lat="45.10286" lon="0.59652">
        <ele>201.4</ele>
        <time>2024-04-14T09:54:16Z</time>
      </trkpt>
      <trkpt lat="45.10284" lon="0.59649">
        <ele>201.5</ele>
        <time>2024-04-14T09:54:18Z</time>
      </trkpt>
      <trkpt lat="45.10282" lon="0.59644">
        <ele>201.5</ele>
        <time>2024-04-14T09:54:20Z</time>
      </trkpt>
      <trkpt lat="45.10281" lon="0.59642">
        <ele>201.6</ele>
        <time>2024-04-14T09:54:21Z</time>
      </trkpt>
      <trkpt lat="45.1028" lon="0.5964">
        <ele>201.6</ele>
        <time>2024-04-14T09:54:22Z</time>
      </trkpt>
      <trkpt lat="45.10278" lon="0.59636">
        <ele>201.6</ele>
        <time>2024-04-14T09:54:24Z</time>
      </trkpt>
      <trkpt lat="45.10277" lon="0.59632">
        <ele>201.6</ele>
        <time>2024-04-14T09:54:26Z</time>
      </trkpt>
      <trkpt lat="45.10274" lon="0.59627">
        <ele>201.6</ele>
        <time>2024-04-14T09:54:28Z</time>
      </trkpt>
      <trkpt lat="45.10272" lon="0.59623">
        <ele>201.6</ele>
        <time>2024-04-14T09:54:30Z</time>
      </trkpt>
      <trkpt lat="45.10269" lon="0.59618">
        <ele>201.5</ele>
        <time>2024-04-14T09:54:32Z</time>
      </trkpt>
      <trkpt lat="45.10267" lon="0.59615">
        <ele>201.5</ele>
        <time>2024-04-14T09:54:34Z</time>
      </trkpt>
      <trkpt lat="45.10266" lon="0.59612">
        <ele>201.5</ele>
        <time>2024-04-14T09:54:35Z</time>
      </trkpt>
      <trkpt lat="45.10265" lon="0.5961">
        <ele>201.5</ele>
        <time>2024-04-14T09:54:36Z</time>
      </trkpt>
      <trkpt lat="45.10262" lon="0.59606">
        <ele>201.5</ele>
        <time>2024-04-14T09:54:38Z</time>
      </trkpt>
      <trkpt lat="45.10259" lon="0.59602">
        <ele>201.5</ele>
        <time>2024-04-14T09:54:40Z</time>
      </trkpt>
      <trkpt lat="45.10256" lon="0.59598">
        <ele>201.5</ele>
        <time>2024-04-14T09:54:42Z</time>
      </trkpt>
      <trkpt lat="45.10253" lon="0.59593">
        <ele>201.6</ele>
        <time>2024-04-14T09:54:44Z</time>
      </trkpt>
      <trkpt lat="45.1025" lon="0.59588">
        <ele>201.7</ele>
        <time>2024-04-14T09:54:46Z</time>
      </trkpt>
      <trkpt lat="45.10248" lon="0.59586">
        <ele>201.7</ele>
        <time>2024-04-14T09:54:47Z</time>
      </trkpt>
      <trkpt lat="45.10246" lon="0.59583">
        <ele>201.7</ele>
        <time>2024-04-14T09:54:48Z</time>
      </trkpt>
      <trkpt lat="45.10243" lon="0.59578">
        <ele>201.8</ele>
        <time>2024-04-14T09:54:50Z</time>
      </trkpt>
      <trkpt lat="45.1024" lon="0.59572">
        <ele>201.9</ele>
        <time>2024-04-14T09:54:52Z</time>
      </trkpt>
      <trkpt lat="45.10236" lon="0.59566">
        <ele>202</ele>
        <time>2024-04-14T09:54:54Z</time>
      </trkpt>
      <trkpt lat="45.10232" lon="0.5956">
        <ele>202.1</ele>
        <time>2024-04-14T09:54:56Z</time>
      </trkpt>
      <trkpt lat="45.1023" lon="0.59557">
        <ele>202.2</ele>
        <time>2024-04-14T09:54:57Z</time>
      </trkpt>
      <trkpt lat="45.10228" lon="0.59554">
        <ele>202.3</ele>
        <time>2024-04-14T09:54:58Z</time>
      </trkpt>
      <trkpt lat="45.10225" lon="0.59549">
        <ele>202.3</ele>
        <time>2024-04-14T09:55:00Z</time>
      </trkpt>
      <trkpt lat="45.10222" lon="0.59545">
        <ele>202.4</ele>
        <time>2024-04-14T09:55:02Z</time>
      </trkpt>
      <trkpt lat="45.1022" lon="0.59542">
        <ele>202.5</ele>
        <time>2024-04-14T09:55:04Z</time>
      </trkpt>
      <trkpt lat="45.10219" lon="0.5954">
        <ele>202.5</ele>
        <time>2024-04-14T09:55:05Z</time>
      </trkpt>
      <trkpt lat="45.10217" lon="0.59538">
        <ele>202.6</ele>
        <time>2024-04-14T09:55:06Z</time>
      </trkpt>
      <trkpt lat="45.10216" lon="0.59536">
        <ele>202.7</ele>
        <time>2024-04-14T09:55:07Z</time>
      </trkpt>
      <trkpt lat="45.10214" lon="0.59533">
        <ele>202.7</ele>
        <time>2024-04-14T09:55:08Z</time>
      </trkpt>
      <trkpt lat="45.1021" lon="0.5953">
        <ele>202.9</ele>
        <time>2024-04-14T09:55:10Z</time>
      </trkpt>
      <trkpt lat="45.10205" lon="0.59524">
        <ele>203</ele>
        <time>2024-04-14T09:55:12Z</time>
      </trkpt>
      <trkpt lat="45.10201" lon="0.59519">
        <ele>203.2</ele>
        <time>2024-04-14T09:55:14Z</time>
      </trkpt>
      <trkpt lat="45.10196" lon="0.59513">
        <ele>203.3</ele>
        <time>2024-04-14T09:55:16Z</time>
      </trkpt>
      <trkpt lat="45.10191" lon="0.59508">
        <ele>203.5</ele>
        <time>2024-04-14T09:55:18Z</time>
      </trkpt>
      <trkpt lat="45.10189" lon="0.59505">
        <ele>203.6</ele>
        <time>2024-04-14T09:55:19Z</time>
      </trkpt>
      <trkpt lat="45.10187" lon="0.59502">
        <ele>203.6</ele>
        <time>2024-04-14T09:55:20Z</time>
      </trkpt>
      <trkpt lat="45.10182" lon="0.59498">
        <ele>203.8</ele>
        <time>2024-04-14T09:55:22Z</time>
      </trkpt>
      <trkpt lat="45.10177" lon="0.59495">
        <ele>204</ele>
        <time>2024-04-14T09:55:24Z</time>
      </trkpt>
      <trkpt lat="45.10173" lon="0.59491">
        <ele>204.2</ele>
        <time>2024-04-14T09:55:26Z</time>
      </trkpt>
      <trkpt lat="45.1017" lon="0.59487">
        <ele>204.3</ele>
        <time>2024-04-14T09:55:28Z</time>
      </trkpt>
      <trkpt lat="45.1017" lon="0.59482">
        <ele>204.5</ele>
        <time>2024-04-14T09:55:30Z</time>
      </trkpt>
      <trkpt lat="45.1017" lon="0.59479">
        <ele>204.5</ele>
        <time>2024-04-14T09:55:31Z</time>
      </trkpt>
      <trkpt lat="45.10171" lon="0.59477">
        <ele>204.6</ele>
        <time>2024-04-14T09:55:32Z</time>
      </trkpt>
      <trkpt lat="45.10172" lon="0.59471">
        <ele>204.7</ele>
        <time>2024-04-14T09:55:34Z</time>
      </trkpt>
      <trkpt lat="45.10173" lon="0.59469">
        <ele>204.8</ele>
        <time>2024-04-14T09:55:35Z</time>
      </trkpt>
      <trkpt lat="45.10175" lon="0.59469">
        <ele>204.8</ele>
        <time>2024-04-14T09:55:36Z</time>
      </trkpt>
      <trkpt lat="45.10179" lon="0.5947">
        <ele>204.9</ele>
        <time>2024-04-14T09:55:38Z</time>
      </trkpt>
      <trkpt lat="45.10184" lon="0.59471">
        <ele>205</ele>
        <time>2024-04-14T09:55:40Z</time>
      </trkpt>
      <trkpt lat="45.10188" lon="0.59473">
        <ele>205.1</ele>
        <time>2024-04-14T09:55:42Z</time>
      </trkpt>
      <trkpt lat="45.10191" lon="0.59472">
        <ele>205.2</ele>
        <time>2024-04-14T09:55:44Z</time>
      </trkpt>
      <trkpt lat="45.10193" lon="0.59471">
        <ele>205.2</ele>
        <time>2024-04-14T09:55:45Z</time>
      </trkpt>
      <trkpt lat="45.10194" lon="0.59469">
        <ele>205.2</ele>
        <time>2024-04-14T09:55:46Z</time>
      </trkpt>
      <trkpt lat="45.10197" lon="0.59463">
        <ele>205.2</ele>
        <time>2024-04-14T09:55:48Z</time>
      </trkpt>
      <trkpt lat="45.10199" lon="0.59457">
        <ele>205.3</ele>
        <time>2024-04-14T09:55:50Z</time>
      </trkpt>
      <trkpt lat="45.10202" lon="0.5945">
        <ele>205.3</ele>
        <time>2024-04-14T09:55:52Z</time>
      </trkpt>
      <trkpt lat="45.10204" lon="0.59444">
        <ele>205.3</ele>
        <time>2024-04-14T09:55:54Z</time>
      </trkpt>
      <trkpt lat="45.10205" lon="0.5944">
        <ele>205.3</ele>
        <time>2024-04-14T09:55:55Z</time>
      </trkpt>
      <trkpt lat="45.10207" lon="0.59438">
        <ele>205.2</ele>
        <time>2024-04-14T09:55:56Z</time>
      </trkpt>
      <trkpt lat="45.10209" lon="0.59432">
        <ele>205.2</ele>
        <time>2024-04-14T09:55:58Z</time>
      </trkpt>
      <trkpt lat="45.10212" lon="0.59426">
        <ele>205.2</ele>
        <time>2024-04-14T09:56:00Z</time>
      </trkpt>
      <trkpt lat="45.10214" lon="0.59421">
        <ele>205.1</ele>
        <time>2024-04-14T09:56:02Z</time>
      </trkpt>
      <trkpt lat="45.10216" lon="0.59414">
        <ele>205.1</ele>
        <time>2024-04-14T09:56:04Z</time>
      </trkpt>
      <trkpt lat="45.10216" lon="0.59406">
        <ele>205</ele>
        <time>2024-04-14T09:56:06Z</time>
      </trkpt>
      <trkpt lat="45.10218" lon="0.59398">
        <ele>204.9</ele>
        <time>2024-04-14T09:56:08Z</time>
      </trkpt>
      <trkpt lat="45.10219" lon="0.59389">
        <ele>204.8</ele>
        <time>2024-04-14T09:56:10Z</time>
      </trkpt>
      <trkpt lat="45.10219" lon="0.5938">
        <ele>204.7</ele>
        <time>2024-04-14T09:56:12Z</time>
      </trkpt>
      <trkpt lat="45.1022" lon="0.59371">
        <ele>204.6</ele>
        <time>2024-04-14T09:56:14Z</time>
      </trkpt>
      <trkpt lat="45.10219" lon="0.59366">
        <ele>204.5</ele>
        <time>2024-04-14T09:56:15Z</time>
      </trkpt>
      <trkpt lat="45.10218" lon="0.59362">
        <ele>204.4</ele>
        <time>2024-04-14T09:56:16Z</time>
      </trkpt>
      <trkpt lat="45.10217" lon="0.59358">
        <ele>204.3</ele>
        <time>2024-04-14T09:56:17Z</time>
      </trkpt>
      <trkpt lat="45.10214" lon="0.59356">
        <ele>204.3</ele>
        <time>2024-04-14T09:56:18Z</time>
      </trkpt>
      <trkpt lat="45.10212" lon="0.59354">
        <ele>204.2</ele>
        <time>2024-04-14T09:56:19Z</time>
      </trkpt>
      <trkpt lat="45.10209" lon="0.59352">
        <ele>204.1</ele>
        <time>2024-04-14T09:56:20Z</time>
      </trkpt>
      <trkpt lat="45.10203" lon="0.59349">
        <ele>203.9</ele>
        <time>2024-04-14T09:56:22Z</time>
      </trkpt>
      <trkpt lat="45.10197" lon="0.59348">
        <ele>203.7</ele>
        <time>2024-04-14T09:56:24Z</time>
      </trkpt>
      <trkpt lat="45.10189" lon="0.59347">
        <ele>203.5</ele>
        <time>2024-04-14T09:56:26Z</time>
      </trkpt>
      <trkpt lat="45.10181" lon="0.59345">
        <ele>203.3</ele>
        <time>2024-04-14T09:56:28Z</time>
      </trkpt>
      <trkpt lat="45.10173" lon="0.59344">
        <ele>203.1</ele>
        <time>2024-04-14T09:56:30Z</time>
      </trkpt>
      <trkpt lat="45.10165" lon="0.59342">
        <ele>202.9</ele>
        <time>2024-04-14T09:56:32Z</time>
      </trkpt>
      <trkpt lat="45.10157" lon="0.59341">
        <ele>202.7</ele>
        <time>2024-04-14T09:56:34Z</time>
      </trkpt>
      <trkpt lat="45.10153" lon="0.59341">
        <ele>202.5</ele>
        <time>2024-04-14T09:56:35Z</time>
      </trkpt>
      <trkpt lat="45.10148" lon="0.5934">
        <ele>202.4</ele>
        <time>2024-04-14T09:56:36Z</time>
      </trkpt>
      <trkpt lat="45.1014" lon="0.5934">
        <ele>202.2</ele>
        <time>2024-04-14T09:56:38Z</time>
      </trkpt>
      <trkpt lat="45.10132" lon="0.59339">
        <ele>202</ele>
        <time>2024-04-14T09:56:40Z</time>
      </trkpt>
      <trkpt lat="45.10126" lon="0.59339">
        <ele>201.8</ele>
        <time>2024-04-14T09:56:42Z</time>
      </trkpt>
      <trkpt lat="45.10118" lon="0.59337">
        <ele>201.6</ele>
        <time>2024-04-14T09:56:44Z</time>
      </trkpt>
      <trkpt lat="45.10114" lon="0.59337">
        <ele>201.5</ele>
        <time>2024-04-14T09:56:45Z</time>
      </trkpt>
      <trkpt lat="45.1011" lon="0.59336">
        <ele>201.3</ele>
        <time>2024-04-14T09:56:46Z</time>
      </trkpt>
      <trkpt lat="45.10101" lon="0.59335">
        <ele>201</ele>
        <time>2024-04-14T09:56:48Z</time>
      </trkpt>
      <trkpt lat="45.10097" lon="0.59334">
        <ele>200.9</ele>
        <time>2024-04-14T09:56:49Z</time>
      </trkpt>
      <trkpt lat="45.10093" lon="0.59332">
        <ele>200.6</ele>
        <time>2024-04-14T09:56:50Z</time>
      </trkpt>
      <trkpt lat="45.10089" lon="0.5933">
        <ele>200.3</ele>
        <time>2024-04-14T09:56:51Z</time>
      </trkpt>
      <trkpt lat="45.10085" lon="0.59327">
        <ele>200</ele>
        <time>2024-04-14T09:56:52Z</time>
      </trkpt>
      <trkpt lat="45.10082" lon="0.59324">
        <ele>199.7</ele>
        <time>2024-04-14T09:56:53Z</time>
      </trkpt>
      <trkpt lat="45.10079" lon="0.59319">
        <ele>199.3</ele>
        <time>2024-04-14T09:56:54Z</time>
      </trkpt>
      <trkpt lat="45.10076" lon="0.59314">
        <ele>198.9</ele>
        <time>2024-04-14T09:56:55Z</time>
      </trkpt>
      <trkpt lat="45.10073" lon="0.59308">
        <ele>198.5</ele>
        <time>2024-04-14T09:56:56Z</time>
      </trkpt>
      <trkpt lat="45.10068" lon="0.59296">
        <ele>197.5</ele>
        <time>2024-04-14T09:56:58Z</time>
      </trkpt>
      <trkpt lat="45.10065" lon="0.59289">
        <ele>197</ele>
        <time>2024-04-14T09:56:59Z</time>
      </trkpt>
      <trkpt lat="45.10061" lon="0.59283">
        <ele>196.4</ele>
        <time>2024-04-14T09:57:00Z</time>
      </trkpt>
      <trkpt lat="45.10051" lon="0.59273">
        <ele>195.1</ele>
        <time>2024-04-14T09:57:02Z</time>
      </trkpt>
      <trkpt lat="45.10038" lon="0.5926">
        <ele>193.5</ele>
        <time>2024-04-14T09:57:04Z</time>
      </trkpt>
      <trkpt lat="45.10032" lon="0.59253">
        <ele>192.5</ele>
        <time>2024-04-14T09:57:05Z</time>
      </trkpt>
      <trkpt lat="45.10026" lon="0.59245">
        <ele>191.5</ele>
        <time>2024-04-14T09:57:06Z</time>
      </trkpt>
      <trkpt lat="45.10012" lon="0.59229">
        <ele>189.3</ele>
        <time>2024-04-14T09:57:08Z</time>
      </trkpt>
      <trkpt lat="45.09997" lon="0.59213">
        <ele>187.1</ele>
        <time>2024-04-14T09:57:10Z</time>
      </trkpt>
      <trkpt lat="45.09989" lon="0.59205">
        <ele>185.9</ele>
        <time>2024-04-14T09:57:11Z</time>
      </trkpt>
      <trkpt lat="45.09981" lon="0.59196">
        <ele>184.6</ele>
        <time>2024-04-14T09:57:12Z</time>
      </trkpt>
      <trkpt lat="45.09964" lon="0.59178">
        <ele>181.9</ele>
        <time>2024-04-14T09:57:14Z</time>
      </trkpt>
      <trkpt lat="45.09956" lon="0.59169">
        <ele>180.6</ele>
        <time>2024-04-14T09:57:15Z</time>
      </trkpt>
      <trkpt lat="45.09949" lon="0.5916">
        <ele>179.2</ele>
        <time>2024-04-14T09:57:16Z</time>
      </trkpt>
      <trkpt lat="45.09934" lon="0.59143">
        <ele>176.2</ele>
        <time>2024-04-14T09:57:18Z</time>
      </trkpt>
      <trkpt lat="45.09927" lon="0.59133">
        <ele>174.5</ele>
        <time>2024-04-14T09:57:19Z</time>
      </trkpt>
      <trkpt lat="45.09919" lon="0.59123">
        <ele>172.6</ele>
        <time>2024-04-14T09:57:20Z</time>
      </trkpt>
      <trkpt lat="45.099" lon="0.59103">
        <ele>168.8</ele>
        <time>2024-04-14T09:57:22Z</time>
      </trkpt>
      <trkpt lat="45.09891" lon="0.59093">
        <ele>167.4</ele>
        <time>2024-04-14T09:57:23Z</time>
      </trkpt>
      <trkpt lat="45.09881" lon="0.59084">
        <ele>166.1</ele>
        <time>2024-04-14T09:57:24Z</time>
      </trkpt>
      <trkpt lat="45.09862" lon="0.59068">
        <ele>163.8</ele>
        <time>2024-04-14T09:57:26Z</time>
      </trkpt>
      <trkpt lat="45.09851" lon="0.59062">
        <ele>162.6</ele>
        <time>2024-04-14T09:57:27Z</time>
      </trkpt>
      <trkpt lat="45.09841" lon="0.59056">
        <ele>161.4</ele>
        <time>2024-04-14T09:57:28Z</time>
      </trkpt>
      <trkpt lat="45.0982" lon="0.59045">
        <ele>159.1</ele>
        <time>2024-04-14T09:57:30Z</time>
      </trkpt>
      <trkpt lat="45.09799" lon="0.59034">
        <ele>157.6</ele>
        <time>2024-04-14T09:57:32Z</time>
      </trkpt>
      <trkpt lat="45.09778" lon="0.59022">
        <ele>156</ele>
        <time>2024-04-14T09:57:34Z</time>
      </trkpt>
      <trkpt lat="45.09769" lon="0.59016">
        <ele>155.2</ele>
        <time>2024-04-14T09:57:35Z</time>
      </trkpt>
      <trkpt lat="45.09759" lon="0.5901">
        <ele>154.5</ele>
        <time>2024-04-14T09:57:36Z</time>
      </trkpt>
      <trkpt lat="45.09743" lon="0.58999">
        <ele>153.1</ele>
        <time>2024-04-14T09:57:38Z</time>
      </trkpt>
      <trkpt lat="45.09738" lon="0.58995">
        <ele>152.6</ele>
        <time>2024-04-14T09:57:39Z</time>
      </trkpt>
      <trkpt lat="45.09732" lon="0.58991">
        <ele>152.1</ele>
        <time>2024-04-14T09:57:40Z</time>
      </trkpt>
      <trkpt lat="45.09722" lon="0.58983">
        <ele>151.1</ele>
        <time>2024-04-14T09:57:42Z</time>
      </trkpt>
      <trkpt lat="45.09716" lon="0.58979">
        <ele>150.5</ele>
        <time>2024-04-14T09:57:43Z</time>
      </trkpt>
      <trkpt lat="45.0971" lon="0.58975">
        <ele>149.9</ele>
        <time>2024-04-14T09:57:44Z</time>
      </trkpt>
      <trkpt lat="45.09703" lon="0.5897">
        <ele>149.2</ele>
        <time>2024-04-14T09:57:45Z</time>
      </trkpt>
      <trkpt lat="45.09696" lon="0.58965">
        <ele>148.4</ele>
        <time>2024-04-14T09:57:46Z</time>
      </trkpt>
      <trkpt lat="45.09681" lon="0.58951">
        <ele>146.8</ele>
        <time>2024-04-14T09:57:48Z</time>
      </trkpt>
      <trkpt lat="45.09665" lon="0.58937">
        <ele>145.2</ele>
        <time>2024-04-14T09:57:50Z</time>
      </trkpt>
      <trkpt lat="45.09649" lon="0.58922">
        <ele>143.7</ele>
        <time>2024-04-14T09:57:52Z</time>
      </trkpt>
      <trkpt lat="45.0964" lon="0.58914">
        <ele>143.1</ele>
        <time>2024-04-14T09:57:53Z</time>
      </trkpt>
      <trkpt lat="45.09631" lon="0.58906">
        <ele>142.5</ele>
        <time>2024-04-14T09:57:54Z</time>
      </trkpt>
      <trkpt lat="45.09614" lon="0.5889">
        <ele>141.5</ele>
        <time>2024-04-14T09:57:56Z</time>
      </trkpt>
      <trkpt lat="45.09598" lon="0.58875">
        <ele>140.7</ele>
        <time>2024-04-14T09:57:58Z</time>
      </trkpt>
      <trkpt lat="45.09591" lon="0.58867">
        <ele>140.4</ele>
        <time>2024-04-14T09:57:59Z</time>
      </trkpt>
      <trkpt lat="45.09586" lon="0.58859">
        <ele>140.1</ele>
        <time>2024-04-14T09:58:00Z</time>
      </trkpt>
      <trkpt lat="45.09581" lon="0.58852">
        <ele>139.9</ele>
        <time>2024-04-14T09:58:01Z</time>
      </trkpt>
      <trkpt lat="45.09579" lon="0.58846">
        <ele>139.7</ele>
        <time>2024-04-14T09:58:02Z</time>
      </trkpt>
      <trkpt lat="45.09576" lon="0.58835">
        <ele>139.5</ele>
        <time>2024-04-14T09:58:04Z</time>
      </trkpt>
      <trkpt lat="45.09573" lon="0.58825">
        <ele>139.2</ele>
        <time>2024-04-14T09:58:06Z</time>
      </trkpt>
      <trkpt lat="45.09573" lon="0.5882">
        <ele>139</ele>
        <time>2024-04-14T09:58:07Z</time>
      </trkpt>
      <trkpt lat="45.09573" lon="0.58816">
        <ele>138.9</ele>
        <time>2024-04-14T09:58:08Z</time>
      </trkpt>
      <trkpt lat="45.09572" lon="0.5881">
        <ele>138.6</ele>
        <time>2024-04-14T09:58:10Z</time>
      </trkpt>
      <trkpt lat="45.09571" lon="0.58807">
        <ele>138.5</ele>
        <time>2024-04-14T09:58:11Z</time>
      </trkpt>
      <trkpt lat="45.09569" lon="0.58805">
        <ele>138.4</ele>
        <time>2024-04-14T09:58:12Z</time>
      </trkpt>
      <trkpt lat="45.09564" lon="0.58802">
        <ele>138.1</ele>
        <time>2024-04-14T09:58:14Z</time>
      </trkpt>
      <trkpt lat="45.09561" lon="0.58801">
        <ele>137.9</ele>
        <time>2024-04-14T09:58:15Z</time>
      </trkpt>
      <trkpt lat="45.09557" lon="0.58801">
        <ele>137.7</ele>
        <time>2024-04-14T09:58:16Z</time>
      </trkpt>
      <trkpt lat="45.09549" lon="0.588">
        <ele>137.3</ele>
        <time>2024-04-14T09:58:18Z</time>
      </trkpt>
      <trkpt lat="45.0954" lon="0.58799">
        <ele>136.8</ele>
        <time>2024-04-14T09:58:20Z</time>
      </trkpt>
      <trkpt lat="45.0953" lon="0.58798">
        <ele>136.2</ele>
        <time>2024-04-14T09:58:22Z</time>
      </trkpt>
      <trkpt lat="45.09519" lon="0.58799">
        <ele>135.7</ele>
        <time>2024-04-14T09:58:24Z</time>
      </trkpt>
      <trkpt lat="45.09508" lon="0.58799">
        <ele>135.1</ele>
        <time>2024-04-14T09:58:26Z</time>
      </trkpt>
      <trkpt lat="45.09503" lon="0.588">
        <ele>134.8</ele>
        <time>2024-04-14T09:58:27Z</time>
      </trkpt>
      <trkpt lat="45.09498" lon="0.58801">
        <ele>134.5</ele>
        <time>2024-04-14T09:58:28Z</time>
      </trkpt>
      <trkpt lat="45.09488" lon="0.58801">
        <ele>133.9</ele>
        <time>2024-04-14T09:58:30Z</time>
      </trkpt>
      <trkpt lat="45.09478" lon="0.58801">
        <ele>133.4</ele>
        <time>2024-04-14T09:58:32Z</time>
      </trkpt>
      <trkpt lat="45.09469" lon="0.58801">
        <ele>132.9</ele>
        <time>2024-04-14T09:58:34Z</time>
      </trkpt>
      <trkpt lat="45.0946" lon="0.588">
        <ele>132.3</ele>
        <time>2024-04-14T09:58:36Z</time>
      </trkpt>
      <trkpt lat="45.09451" lon="0.58798">
        <ele>131.8</ele>
        <time>2024-04-14T09:58:38Z</time>
      </trkpt>
      <trkpt lat="45.09448" lon="0.58795">
        <ele>131.6</ele>
        <time>2024-04-14T09:58:39Z</time>
      </trkpt>
      <trkpt lat="45.09447" lon="0.5879">
        <ele>131.4</ele>
        <time>2024-04-14T09:58:40Z</time>
      </trkpt>
      <trkpt lat="45.09447" lon="0.58785">
        <ele>131.5</ele>
        <time>2024-04-14T09:58:41Z</time>
      </trkpt>
      <trkpt lat="45.09448" lon="0.58782">
        <ele>131.6</ele>
        <time>2024-04-14T09:58:42Z</time>
      </trkpt>
      <trkpt lat="45.0945" lon="0.58777">
        <ele>131.8</ele>
        <time>2024-04-14T09:58:44Z</time>
      </trkpt>
      <trkpt lat="45.09452" lon="0.58771">
        <ele>132.1</ele>
        <time>2024-04-14T09:58:46Z</time>
      </trkpt>
      <trkpt lat="45.09453" lon="0.58765">
        <ele>132.4</ele>
        <time>2024-04-14T09:58:48Z</time>
      </trkpt>
      <trkpt lat="45.09455" lon="0.5876">
        <ele>132.7</ele>
        <time>2024-04-14T09:58:50Z</time>
      </trkpt>
      <trkpt lat="45.09456" lon="0.58754">
        <ele>132.9</ele>
        <time>2024-04-14T09:58:52Z</time>
      </trkpt>
      <trkpt lat="45.09458" lon="0.58748">
        <ele>133.1</ele>
        <time>2024-04-14T09:58:54Z</time>
      </trkpt>
      <trkpt lat="45.0946" lon="0.58742">
        <ele>133.3</ele>
        <time>2024-04-14T09:58:56Z</time>
      </trkpt>
      <trkpt lat="45.09461" lon="0.58735">
        <ele>133.4</ele>
        <time>2024-04-14T09:58:58Z</time>
      </trkpt>
      <trkpt lat="45.09462" lon="0.58731">
        <ele>133.5</ele>
        <time>2024-04-14T09:58:59Z</time>
      </trkpt>
      <trkpt lat="45.09463" lon="0.58727">
        <ele>133.5</ele>
        <time>2024-04-14T09:59:00Z</time>
      </trkpt>
      <trkpt lat="45.09462" lon="0.58718">
        <ele>133.5</ele>
        <time>2024-04-14T09:59:02Z</time>
      </trkpt>
      <trkpt lat="45.09458" lon="0.58709">
        <ele>133.5</ele>
        <time>2024-04-14T09:59:04Z</time>
      </trkpt>
      <trkpt lat="45.09454" lon="0.587">
        <ele>133</ele>
        <time>2024-04-14T09:59:06Z</time>
      </trkpt>
      <trkpt lat="45.09456" lon="0.58691">
        <ele>132.5</ele>
        <time>2024-04-14T09:59:08Z</time>
      </trkpt>
      <trkpt lat="45.09463" lon="0.58688">
        <ele>131.8</ele>
        <time>2024-04-14T09:59:10Z</time>
      </trkpt>
      <trkpt lat="45.09467" lon="0.58689">
        <ele>131.5</ele>
        <time>2024-04-14T09:59:11Z</time>
      </trkpt>
      <trkpt lat="45.09471" lon="0.5869">
        <ele>131.1</ele>
        <time>2024-04-14T09:59:12Z</time>
      </trkpt>
      <trkpt lat="45.09481" lon="0.5869">
        <ele>130.3</ele>
        <time>2024-04-14T09:59:14Z</time>
      </trkpt>
      <trkpt lat="45.0949" lon="0.5869">
        <ele>129.5</ele>
        <time>2024-04-14T09:59:16Z</time>
      </trkpt>
      <trkpt lat="45.095" lon="0.58691">
        <ele>128.4</ele>
        <time>2024-04-14T09:59:18Z</time>
      </trkpt>
      <trkpt lat="45.09505" lon="0.58691">
        <ele>127.7</ele>
        <time>2024-04-14T09:59:19Z</time>
      </trkpt>
      <trkpt lat="45.09509" lon="0.58689">
        <ele>127.1</ele>
        <time>2024-04-14T09:59:20Z</time>
      </trkpt>
      <trkpt lat="45.09512" lon="0.58685">
        <ele>126.5</ele>
        <time>2024-04-14T09:59:21Z</time>
      </trkpt>
      <trkpt lat="45.09514" lon="0.58679">
        <ele>125.8</ele>
        <time>2024-04-14T09:59:22Z</time>
      </trkpt>
      <trkpt lat="45.09513" lon="0.58672">
        <ele>125.1</ele>
        <time>2024-04-14T09:59:23Z</time>
      </trkpt>
      <trkpt lat="45.0951" lon="0.58663">
        <ele>124.4</ele>
        <time>2024-04-14T09:59:24Z</time>
      </trkpt>
      <trkpt lat="45.09503" lon="0.58645">
        <ele>123.4</ele>
        <time>2024-04-14T09:59:26Z</time>
      </trkpt>
      <trkpt lat="45.09503" lon="0.58626">
        <ele>123.1</ele>
        <time>2024-04-14T09:59:28Z</time>
      </trkpt>
      <trkpt lat="45.09505" lon="0.58618">
        <ele>123.1</ele>
        <time>2024-04-14T09:59:29Z</time>
      </trkpt>
      <trkpt lat="45.09508" lon="0.58609">
        <ele>123.3</ele>
        <time>2024-04-14T09:59:30Z</time>
      </trkpt>
      <trkpt lat="45.09511" lon="0.58601">
        <ele>123.5</ele>
        <time>2024-04-14T09:59:31Z</time>
      </trkpt>
      <trkpt lat="45.09515" lon="0.58594">
        <ele>123.9</ele>
        <time>2024-04-14T09:59:32Z</time>
      </trkpt>
      <trkpt lat="45.09519" lon="0.58587">
        <ele>124.4</ele>
        <time>2024-04-14T09:59:33Z</time>
      </trkpt>
      <trkpt lat="45.09524" lon="0.58583">
        <ele>124.9</ele>
        <time>2024-04-14T09:59:34Z</time>
      </trkpt>
      <trkpt lat="45.09532" lon="0.58577">
        <ele>125.8</ele>
        <time>2024-04-14T09:59:36Z</time>
      </trkpt>
      <trkpt lat="45.09538" lon="0.58575">
        <ele>126.5</ele>
        <time>2024-04-14T09:59:38Z</time>
      </trkpt>
      <trkpt lat="45.09542" lon="0.58574">
        <ele>126.9</ele>
        <time>2024-04-14T09:59:40Z</time>
      </trkpt>
      <trkpt lat="45.09545" lon="0.58572">
        <ele>127.4</ele>
        <time>2024-04-14T09:59:42Z</time>
      </trkpt>
      <trkpt lat="45.09548" lon="0.58571">
        <ele>127.8</ele>
        <time>2024-04-14T09:59:44Z</time>
      </trkpt>
      <trkpt lat="45.09551" lon="0.58569">
        <ele>128.3</ele>
        <time>2024-04-14T09:59:46Z</time>
      </trkpt>
      <trkpt lat="45.09554" lon="0.58568">
        <ele>128.7</ele>
        <time>2024-04-14T09:59:48Z</time>
      </trkpt>
      <trkpt lat="45.09557" lon="0.58567">
        <ele>129.2</ele>
        <time>2024-04-14T09:59:50Z</time>
      </trkpt>
      <trkpt lat="45.09558" lon="0.58567">
        <ele>129.3</ele>
        <time>2024-04-14T09:59:52Z</time>
      </trkpt>
      <trkpt lat="45.09561" lon="0.58566">
        <ele>129.7</ele>
        <time>2024-04-14T09:59:54Z</time>
      </trkpt>
      <trkpt lat="45.09562" lon="0.58566">
        <ele>129.9</ele>
        <time>2024-04-14T09:59:56Z</time>
      </trkpt>
      <trkpt lat="45.09564" lon="0.58566">
        <ele>130.1</ele>
        <time>2024-04-14T09:59:57Z</time>
      </trkpt>
      <trkpt lat="45.09566" lon="0.58566">
        <ele>130.3</ele>
        <time>2024-04-14T09:59:58Z</time>
      </trkpt>
      <trkpt lat="45.09568" lon="0.58565">
        <ele>130.5</ele>
        <time>2024-04-14T10:00:00Z</time>
      </trkpt>
      <trkpt lat="45.09571" lon="0.58563">
        <ele>130.9</ele>
        <time>2024-04-14T10:00:02Z</time>
      </trkpt>
      <trkpt lat="45.09572" lon="0.58562">
        <ele>131</ele>
        <time>2024-04-14T10:00:03Z</time>
      </trkpt>
      <trkpt lat="45.09574" lon="0.58562">
        <ele>131.2</ele>
        <time>2024-04-14T10:00:04Z</time>
      </trkpt>
      <trkpt lat="45.09578" lon="0.5856">
        <ele>131.5</ele>
        <time>2024-04-14T10:00:06Z</time>
      </trkpt>
      <trkpt lat="45.09581" lon="0.58558">
        <ele>131.8</ele>
        <time>2024-04-14T10:00:08Z</time>
      </trkpt>
      <trkpt lat="45.09583" lon="0.58558">
        <ele>131.9</ele>
        <time>2024-04-14T10:00:09Z</time>
      </trkpt>
      <trkpt lat="45.09584" lon="0.58557">
        <ele>132</ele>
        <time>2024-04-14T10:00:10Z</time>
      </trkpt>
      <trkpt lat="45.09588" lon="0.58556">
        <ele>132.3</ele>
        <time>2024-04-14T10:00:12Z</time>
      </trkpt>
      <trkpt lat="45.09592" lon="0.58555">
        <ele>132.5</ele>
        <time>2024-04-14T10:00:14Z</time>
      </trkpt>
      <trkpt lat="45.09594" lon="0.58553">
        <ele>132.7</ele>
        <time>2024-04-14T10:00:15Z</time>
      </trkpt>
      <trkpt lat="45.09597" lon="0.58552">
        <ele>132.8</ele>
        <time>2024-04-14T10:00:16Z</time>
      </trkpt>
      <trkpt lat="45.09601" lon="0.58551">
        <ele>133.1</ele>
        <time>2024-04-14T10:00:18Z</time>
      </trkpt>
      <trkpt lat="45.09605" lon="0.5855">
        <ele>133.4</ele>
        <time>2024-04-14T10:00:20Z</time>
      </trkpt>
      <trkpt lat="45.09608" lon="0.58549">
        <ele>133.6</ele>
        <time>2024-04-14T10:00:22Z</time>
      </trkpt>
      <trkpt lat="45.09612" lon="0.58547">
        <ele>133.9</ele>
        <time>2024-04-14T10:00:24Z</time>
      </trkpt>
      <trkpt lat="45.09616" lon="0.58546">
        <ele>134.2</ele>
        <time>2024-04-14T10:00:26Z</time>
      </trkpt>
      <trkpt lat="45.09618" lon="0.58545">
        <ele>134.3</ele>
        <time>2024-04-14T10:00:27Z</time>
      </trkpt>
      <trkpt lat="45.0962" lon="0.58545">
        <ele>134.4</ele>
        <time>2024-04-14T10:00:28Z</time>
      </trkpt>
      <trkpt lat="45.09624" lon="0.58544">
        <ele>134.7</ele>
        <time>2024-04-14T10:00:30Z</time>
      </trkpt>
      <trkpt lat="45.09626" lon="0.58544">
        <ele>134.8</ele>
        <time>2024-04-14T10:00:31Z</time>
      </trkpt>
      <trkpt lat="45.09628" lon="0.58544">
        <ele>134.9</ele>
        <time>2024-04-14T10:00:32Z</time>
      </trkpt>
      <trkpt lat="45.09632" lon="0.58543">
        <ele>135.2</ele>
        <time>2024-04-14T10:00:34Z</time>
      </trkpt>
      <trkpt lat="45.09637" lon="0.58542">
        <ele>135.5</ele>
        <time>2024-04-14T10:00:36Z</time>
      </trkpt>
      <trkpt lat="45.09642" lon="0.58541">
        <ele>135.8</ele>
        <time>2024-04-14T10:00:38Z</time>
      </trkpt>
      <trkpt lat="45.09647" lon="0.58541">
        <ele>136</ele>
        <time>2024-04-14T10:00:40Z</time>
      </trkpt>
      <trkpt lat="45.09651" lon="0.58541">
        <ele>136.3</ele>
        <time>2024-04-14T10:00:42Z</time>
      </trkpt>
      <trkpt lat="45.09655" lon="0.58541">
        <ele>136.5</ele>
        <time>2024-04-14T10:00:44Z</time>
      </trkpt>
      <trkpt lat="45.09659" lon="0.5854">
        <ele>136.7</ele>
        <time>2024-04-14T10:00:46Z</time>
      </trkpt>
      <trkpt lat="45.09663" lon="0.58539">
        <ele>137</ele>
        <time>2024-04-14T10:00:48Z</time>
      </trkpt>
      <trkpt lat="45.09667" lon="0.58539">
        <ele>137.2</ele>
        <time>2024-04-14T10:00:50Z</time>
      </trkpt>
      <trkpt lat="45.09671" lon="0.58539">
        <ele>137.5</ele>
        <time>2024-04-14T10:00:52Z</time>
      </trkpt>
      <trkpt lat="45.09674" lon="0.58538">
        <ele>137.7</ele>
        <time>2024-04-14T10:00:54Z</time>
      </trkpt>
      <trkpt lat="45.09676" lon="0.58538">
        <ele>137.8</ele>
        <time>2024-04-14T10:00:55Z</time>
      </trkpt>
      <trkpt lat="45.09678" lon="0.58537">
        <ele>138</ele>
        <time>2024-04-14T10:00:56Z</time>
      </trkpt>
      <trkpt lat="45.09683" lon="0.58537">
        <ele>138.2</ele>
        <time>2024-04-14T10:00:58Z</time>
      </trkpt>
      <trkpt lat="45.09688" lon="0.58537">
        <ele>138.6</ele>
        <time>2024-04-14T10:01:00Z</time>
      </trkpt>
      <trkpt lat="45.09693" lon="0.58536">
        <ele>139</ele>
        <time>2024-04-14T10:01:02Z</time>
      </trkpt>
      <trkpt lat="45.09697" lon="0.58537">
        <ele>139.3</ele>
        <time>2024-04-14T10:01:04Z</time>
      </trkpt>
      <trkpt lat="45.09703" lon="0.58537">
        <ele>139.7</ele>
        <time>2024-04-14T10:01:06Z</time>
      </trkpt>
      <trkpt lat="45.09706" lon="0.58537">
        <ele>139.9</ele>
        <time>2024-04-14T10:01:07Z</time>
      </trkpt>
      <trkpt lat="45.09709" lon="0.58537">
        <ele>140</ele>
        <time>2024-04-14T10:01:08Z</time>
      </trkpt>
      <trkpt lat="45.09714" lon="0.58538">
        <ele>140.3</ele>
        <time>2024-04-14T10:01:10Z</time>
      </trkpt>
      <trkpt lat="45.09719" lon="0.58539">
        <ele>140.4</ele>
        <time>2024-04-14T10:01:12Z</time>
      </trkpt>
      <trkpt lat="45.09722" lon="0.58539">
        <ele>140.5</ele>
        <time>2024-04-14T10:01:13Z</time>
      </trkpt>
      <trkpt lat="45.09724" lon="0.5854">
        <ele>140.5</ele>
        <time>2024-04-14T10:01:14Z</time>
      </trkpt>
      <trkpt lat="45.0973" lon="0.58541">
        <ele>140.7</ele>
        <time>2024-04-14T10:01:16Z</time>
      </trkpt>
      <trkpt lat="45.09736" lon="0.58542">
        <ele>140.8</ele>
        <time>2024-04-14T10:01:18Z</time>
      </trkpt>
      <trkpt lat="45.09743" lon="0.58543">
        <ele>141</ele>
        <time>2024-04-14T10:01:20Z</time>
      </trkpt>
      <trkpt lat="45.09749" lon="0.58545">
        <ele>141.3</ele>
        <time>2024-04-14T10:01:22Z</time>
      </trkpt>
      <trkpt lat="45.09755" lon="0.58545">
        <ele>141.5</ele>
        <time>2024-04-14T10:01:24Z</time>
      </trkpt>
      <trkpt lat="45.09761" lon="0.58546">
        <ele>141.8</ele>
        <time>2024-04-14T10:01:26Z</time>
      </trkpt>
      <trkpt lat="45.09765" lon="0.58546">
        <ele>142</ele>
        <time>2024-04-14T10:01:28Z</time>
      </trkpt>
      <trkpt lat="45.09769" lon="0.58545">
        <ele>142.3</ele>
        <time>2024-04-14T10:01:30Z</time>
      </trkpt>
      <trkpt lat="45.09772" lon="0.58545">
        <ele>142.4</ele>
        <time>2024-04-14T10:01:31Z</time>
      </trkpt>
      <trkpt lat="45.09774" lon="0.58546">
        <ele>142.5</ele>
        <time>2024-04-14T10:01:32Z</time>
      </trkpt>
      <trkpt lat="45.09778" lon="0.58546">
        <ele>142.7</ele>
        <time>2024-04-14T10:01:34Z</time>
      </trkpt>
      <trkpt lat="45.09783" lon="0.58545">
        <ele>142.9</ele>
        <time>2024-04-14T10:01:36Z</time>
      </trkpt>
      <trkpt lat="45.09787" lon="0.58543">
        <ele>143.2</ele>
        <time>2024-04-14T10:01:38Z</time>
      </trkpt>
      <trkpt lat="45.09789" lon="0.58542">
        <ele>143.3</ele>
        <time>2024-04-14T10:01:39Z</time>
      </trkpt>
      <trkpt lat="45.09791" lon="0.58541">
        <ele>143.4</ele>
        <time>2024-04-14T10:01:40Z</time>
      </trkpt>
      <trkpt lat="45.09795" lon="0.58539">
        <ele>143.6</ele>
        <time>2024-04-14T10:01:42Z</time>
      </trkpt>
      <trkpt lat="45.09798" lon="0.58535">
        <ele>143.9</ele>
        <time>2024-04-14T10:01:44Z</time>
      </trkpt>
      <trkpt lat="45.09802" lon="0.58532">
        <ele>144.2</ele>
        <time>2024-04-14T10:01:46Z</time>
      </trkpt>
      <trkpt lat="45.09806" lon="0.5853">
        <ele>144.4</ele>
        <time>2024-04-14T10:01:48Z</time>
      </trkpt>
      <trkpt lat="45.0981" lon="0.58526">
        <ele>144.7</ele>
        <time>2024-04-14T10:01:50Z</time>
      </trkpt>
      <trkpt lat="45.09815" lon="0.58523">
        <ele>145</ele>
        <time>2024-04-14T10:01:52Z</time>
      </trkpt>
      <trkpt lat="45.0982" lon="0.58519">
        <ele>145.3</ele>
        <time>2024-04-14T10:01:54Z</time>
      </trkpt>
      <trkpt lat="45.09826" lon="0.58517">
        <ele>145.3</ele>
        <time>2024-04-14T10:01:56Z</time>
      </trkpt>
      <trkpt lat="45.09831" lon="0.58514">
        <ele>145.3</ele>
        <time>2024-04-14T10:01:58Z</time>
      </trkpt>
      <trkpt lat="45.09837" lon="0.58511">
        <ele>145.2</ele>
        <time>2024-04-14T10:02:00Z</time>
      </trkpt>
      <trkpt lat="45.09839" lon="0.58509">
        <ele>145.2</ele>
        <time>2024-04-14T10:02:01Z</time>
      </trkpt>
      <trkpt lat="45.09842" lon="0.58508">
        <ele>145.2</ele>
        <time>2024-04-14T10:02:02Z</time>
      </trkpt>
      <trkpt lat="45.09847" lon="0.58504">
        <ele>145.1</ele>
        <time>2024-04-14T10:02:04Z</time>
      </trkpt>
      <trkpt lat="45.09853" lon="0.58499">
        <ele>145.1</ele>
        <time>2024-04-14T10:02:06Z</time>
      </trkpt>
      <trkpt lat="45.09859" lon="0.58494">
        <ele>145.1</ele>
        <time>2024-04-14T10:02:08Z</time>
      </trkpt>
      <trkpt lat="45.09862" lon="0.58492">
        <ele>145.1</ele>
        <time>2024-04-14T10:02:09Z</time>
      </trkpt>
      <trkpt lat="45.09865" lon="0.5849">
        <ele>145</ele>
        <time>2024-04-14T10:02:10Z</time>
      </trkpt>
      <trkpt lat="45.09871" lon="0.58486">
        <ele>145</ele>
        <time>2024-04-14T10:02:12Z</time>
      </trkpt>
      <trkpt lat="45.09877" lon="0.58484">
        <ele>144.9</ele>
        <time>2024-04-14T10:02:14Z</time>
      </trkpt>
      <trkpt lat="45.0988" lon="0.58482">
        <ele>144.8</ele>
        <time>2024-04-14T10:02:15Z</time>
      </trkpt>
      <trkpt lat="45.09882" lon="0.5848">
        <ele>144.8</ele>
        <time>2024-04-14T10:02:16Z</time>
      </trkpt>
      <trkpt lat="45.09888" lon="0.58476">
        <ele>144.4</ele>
        <time>2024-04-14T10:02:18Z</time>
      </trkpt>
      <trkpt lat="45.09893" lon="0.58472">
        <ele>144.3</ele>
        <time>2024-04-14T10:02:20Z</time>
      </trkpt>
      <trkpt lat="45.09898" lon="0.58467">
        <ele>143.8</ele>
        <time>2024-04-14T10:02:22Z</time>
      </trkpt>
      <trkpt lat="45.09903" lon="0.58462">
        <ele>143.4</ele>
        <time>2024-04-14T10:02:24Z</time>
      </trkpt>
      <trkpt lat="45.09909" lon="0.58458">
        <ele>143.2</ele>
        <time>2024-04-14T10:02:26Z</time>
      </trkpt>
      <trkpt lat="45.09913" lon="0.58453">
        <ele>142.8</ele>
        <time>2024-04-14T10:02:28Z</time>
      </trkpt>
      <trkpt lat="45.09918" lon="0.58448">
        <ele>142.7</ele>
        <time>2024-04-14T10:02:30Z</time>
      </trkpt>
      <trkpt lat="45.09921" lon="0.58444">
        <ele>142.6</ele>
        <time>2024-04-14T10:02:32Z</time>
      </trkpt>
      <trkpt lat="45.09925" lon="0.5844">
        <ele>142.1</ele>
        <time>2024-04-14T10:02:34Z</time>
      </trkpt>
      <trkpt lat="45.09926" lon="0.58438">
        <ele>142.2</ele>
        <time>2024-04-14T10:02:35Z</time>
      </trkpt>
      <trkpt lat="45.09927" lon="0.58436">
        <ele>142.1</ele>
        <time>2024-04-14T10:02:36Z</time>
      </trkpt>
      <trkpt lat="45.0993" lon="0.5843">
        <ele>142</ele>
        <time>2024-04-14T10:02:38Z</time>
      </trkpt>
      <trkpt lat="45.09933" lon="0.58424">
        <ele>142.1</ele>
        <time>2024-04-14T10:02:40Z</time>
      </trkpt>
      <trkpt lat="45.09935" lon="0.5842">
        <ele>142</ele>
        <time>2024-04-14T10:02:41Z</time>
      </trkpt>
      <trkpt lat="45.09937" lon="0.58417">
        <ele>141.6</ele>
        <time>2024-04-14T10:02:42Z</time>
      </trkpt>
      <trkpt lat="45.0994" lon="0.58411">
        <ele>141.8</ele>
        <time>2024-04-14T10:02:44Z</time>
      </trkpt>
      <trkpt lat="45.09942" lon="0.58405">
        <ele>141.9</ele>
        <time>2024-04-14T10:02:46Z</time>
      </trkpt>
      <trkpt lat="45.09943" lon="0.58403">
        <ele>142.1</ele>
        <time>2024-04-14T10:02:47Z</time>
      </trkpt>
      <trkpt lat="45.09944" lon="0.584">
        <ele>141.7</ele>
        <time>2024-04-14T10:02:48Z</time>
      </trkpt>
      <trkpt lat="45.09948" lon="0.58394">
        <ele>142</ele>
        <time>2024-04-14T10:02:50Z</time>
      </trkpt>
      <trkpt lat="45.09951" lon="0.5839">
        <ele>142</ele>
        <time>2024-04-14T10:02:52Z</time>
      </trkpt>
      <trkpt lat="45.09955" lon="0.58384">
        <ele>142.1</ele>
        <time>2024-04-14T10:02:54Z</time>
      </trkpt>
      <trkpt lat="45.09958" lon="0.5838">
        <ele>142</ele>
        <time>2024-04-14T10:02:56Z</time>
      </trkpt>
      <trkpt lat="45.09961" lon="0.58376">
        <ele>142.3</ele>
        <time>2024-04-14T10:02:58Z</time>
      </trkpt>
      <trkpt lat="45.09964" lon="0.58371">
        <ele>142.4</ele>
        <time>2024-04-14T10:03:00Z</time>
      </trkpt>
      <trkpt lat="45.09966" lon="0.58368">
        <ele>142.9</ele>
        <time>2024-04-14T10:03:01Z</time>
      </trkpt>
      <trkpt lat="45.09968" lon="0.58366">
        <ele>142.5</ele>
        <time>2024-04-14T10:03:02Z</time>
      </trkpt>
      <trkpt lat="45.0997" lon="0.58364">
        <ele>142.6</ele>
        <time>2024-04-14T10:03:03Z</time>
      </trkpt>
      <trkpt lat="45.09972" lon="0.58362">
        <ele>142.6</ele>
        <time>2024-04-14T10:03:04Z</time>
      </trkpt>
      <trkpt lat="45.09975" lon="0.58359">
        <ele>142.7</ele>
        <time>2024-04-14T10:03:06Z</time>
      </trkpt>
      <trkpt lat="45.09979" lon="0.58355">
        <ele>142.8</ele>
        <time>2024-04-14T10:03:08Z</time>
      </trkpt>
      <trkpt lat="45.09982" lon="0.58351">
        <ele>142.7</ele>
        <time>2024-04-14T10:03:10Z</time>
      </trkpt>
      <trkpt lat="45.09986" lon="0.58348">
        <ele>142.4</ele>
        <time>2024-04-14T10:03:12Z</time>
      </trkpt>
      <trkpt lat="45.09989" lon="0.58344">
        <ele>142.6</ele>
        <time>2024-04-14T10:03:14Z</time>
      </trkpt>
      <trkpt lat="45.09991" lon="0.58341">
        <ele>142.9</ele>
        <time>2024-04-14T10:03:16Z</time>
      </trkpt>
      <trkpt lat="45.09993" lon="0.58339">
        <ele>143.4</ele>
        <time>2024-04-14T10:03:17Z</time>
      </trkpt>
      <trkpt lat="45.09995" lon="0.58338">
        <ele>143.1</ele>
        <time>2024-04-14T10:03:18Z</time>
      </trkpt>
      <trkpt lat="45.09999" lon="0.58335">
        <ele>142.8</ele>
        <time>2024-04-14T10:03:20Z</time>
      </trkpt>
      <trkpt lat="45.1" lon="0.58333">
        <ele>143.3</ele>
        <time>2024-04-14T10:03:21Z</time>
      </trkpt>
      <trkpt lat="45.10002" lon="0.58331">
        <ele>143.2</ele>
        <time>2024-04-14T10:03:22Z</time>
      </trkpt>
      <trkpt lat="45.10005" lon="0.58328">
        <ele>143.8</ele>
        <time>2024-04-14T10:03:24Z</time>
      </trkpt>
      <trkpt lat="45.10008" lon="0.58325">
        <ele>144.4</ele>
        <time>2024-04-14T10:03:26Z</time>
      </trkpt>
      <trkpt lat="45.10011" lon="0.58321">
        <ele>145</ele>
        <time>2024-04-14T10:03:28Z</time>
      </trkpt>
      <trkpt lat="45.10013" lon="0.58319">
        <ele>144.8</ele>
        <time>2024-04-14T10:03:29Z</time>
      </trkpt>
      <trkpt lat="45.10015" lon="0.58317">
        <ele>145.6</ele>
        <time>2024-04-14T10:03:30Z</time>
      </trkpt>
      <trkpt lat="45.10016" lon="0.58315">
        <ele>145.3</ele>
        <time>2024-04-14T10:03:31Z</time>
      </trkpt>
      <trkpt lat="45.10018" lon="0.58314">
        <ele>145.3</ele>
        <time>2024-04-14T10:03:32Z</time>
      </trkpt>
      <trkpt lat="45.1002" lon="0.58311">
        <ele>145.9</ele>
        <time>2024-04-14T10:03:34Z</time>
      </trkpt>
      <trkpt lat="45.10021" lon="0.5831">
        <ele>145.8</ele>
        <time>2024-04-14T10:03:35Z</time>
      </trkpt>
      <trkpt lat="45.10265" lon="0.58115">
        <ele>185</ele>
        <time>2024-04-14T10:07:31Z</time>
      </trkpt>
      <trkpt lat="45.10266" lon="0.58115">
        <ele>184.9</ele>
        <time>2024-04-14T10:07:32Z</time>
      </trkpt>
      <trkpt lat="45.10269" lon="0.58114">
        <ele>184.6</ele>
        <time>2024-04-14T10:07:34Z</time>
      </trkpt>
      <trkpt lat="45.10271" lon="0.58113">
        <ele>184.3</ele>
        <time>2024-04-14T10:07:35Z</time>
      </trkpt>
      <trkpt lat="45.10272" lon="0.58112">
        <ele>184.2</ele>
        <time>2024-04-14T10:07:36Z</time>
      </trkpt>
      <trkpt lat="45.10275" lon="0.5811">
        <ele>184.8</ele>
        <time>2024-04-14T10:07:38Z</time>
      </trkpt>
      <trkpt lat="45.10277" lon="0.58109">
        <ele>184.4</ele>
        <time>2024-04-14T10:07:40Z</time>
      </trkpt>
      <trkpt lat="45.10279" lon="0.58106">
        <ele>184.6</ele>
        <time>2024-04-14T10:07:42Z</time>
      </trkpt>
      <trkpt lat="45.1028" lon="0.58105">
        <ele>184.7</ele>
        <time>2024-04-14T10:07:43Z</time>
      </trkpt>
      <trkpt lat="45.10281" lon="0.58103">
        <ele>184.8</ele>
        <time>2024-04-14T10:07:44Z</time>
      </trkpt>
      <trkpt lat="45.10283" lon="0.58101">
        <ele>185</ele>
        <time>2024-04-14T10:07:46Z</time>
      </trkpt>
      <trkpt lat="45.10285" lon="0.58099">
        <ele>185.2</ele>
        <time>2024-04-14T10:07:48Z</time>
      </trkpt>
      <trkpt lat="45.10287" lon="0.58096">
        <ele>185.4</ele>
        <time>2024-04-14T10:07:50Z</time>
      </trkpt>
      <trkpt lat="45.10287" lon="0.58095">
        <ele>185.5</ele>
        <time>2024-04-14T10:07:51Z</time>
      </trkpt>
      <trkpt lat="45.10288" lon="0.58094">
        <ele>185.6</ele>
        <time>2024-04-14T10:07:52Z</time>
      </trkpt>
      <trkpt lat="45.1029" lon="0.58092">
        <ele>185.7</ele>
        <time>2024-04-14T10:07:54Z</time>
      </trkpt>
      <trkpt lat="45.10292" lon="0.5809">
        <ele>186</ele>
        <time>2024-04-14T10:07:56Z</time>
      </trkpt>
      <trkpt lat="45.10294" lon="0.58087">
        <ele>186.2</ele>
        <time>2024-04-14T10:07:58Z</time>
      </trkpt>
      <trkpt lat="45.10296" lon="0.58085">
        <ele>186.3</ele>
        <time>2024-04-14T10:08:00Z</time>
      </trkpt>
      <trkpt lat="45.10298" lon="0.58083">
        <ele>186.5</ele>
        <time>2024-04-14T10:08:02Z</time>
      </trkpt>
      <trkpt lat="45.10299" lon="0.5808">
        <ele>186.7</ele>
        <time>2024-04-14T10:08:04Z</time>
      </trkpt>
      <trkpt lat="45.10301" lon="0.58078">
        <ele>186.9</ele>
        <time>2024-04-14T10:08:06Z</time>
      </trkpt>
      <trkpt lat="45.10304" lon="0.58076">
        <ele>187.1</ele>
        <time>2024-04-14T10:08:08Z</time>
      </trkpt>
      <trkpt lat="45.10306" lon="0.58074">
        <ele>187.3</ele>
        <time>2024-04-14T10:08:10Z</time>
      </trkpt>
      <trkpt lat="45.10308" lon="0.58071">
        <ele>187.6</ele>
        <time>2024-04-14T10:08:12Z</time>
      </trkpt>
      <trkpt lat="45.10311" lon="0.58069">
        <ele>187.9</ele>
        <time>2024-04-14T10:08:14Z</time>
      </trkpt>
      <trkpt lat="45.10314" lon="0.58065">
        <ele>188.1</ele>
        <time>2024-04-14T10:08:16Z</time>
      </trkpt>
      <trkpt lat="45.10316" lon="0.58061">
        <ele>188.4</ele>
        <time>2024-04-14T10:08:18Z</time>
      </trkpt>
      <trkpt lat="45.10318" lon="0.58057">
        <ele>188.7</ele>
        <time>2024-04-14T10:08:20Z</time>
      </trkpt>
      <trkpt lat="45.10319" lon="0.58053">
        <ele>188.9</ele>
        <time>2024-04-14T10:08:22Z</time>
      </trkpt>
      <trkpt lat="45.1032" lon="0.58048">
        <ele>189.2</ele>
        <time>2024-04-14T10:08:24Z</time>
      </trkpt>
      <trkpt lat="45.10321" lon="0.58044">
        <ele>189.4</ele>
        <time>2024-04-14T10:08:26Z</time>
      </trkpt>
      <trkpt lat="45.10322" lon="0.58039">
        <ele>189.7</ele>
        <time>2024-04-14T10:08:28Z</time>
      </trkpt>
      <trkpt lat="45.10323" lon="0.58037">
        <ele>189.8</ele>
        <time>2024-04-14T10:08:29Z</time>
      </trkpt>
      <trkpt lat="45.10324" lon="0.58036">
        <ele>190</ele>
        <time>2024-04-14T10:08:30Z</time>
      </trkpt>
      <trkpt lat="45.10325" lon="0.58034">
        <ele>190.1</ele>
        <time>2024-04-14T10:08:31Z</time>
      </trkpt>
      <trkpt lat="45.10326" lon="0.58032">
        <ele>190.2</ele>
        <time>2024-04-14T10:08:32Z</time>
      </trkpt>
      <trkpt lat="45.10328" lon="0.58029">
        <ele>190.4</ele>
        <time>2024-04-14T10:08:34Z</time>
      </trkpt>
      <trkpt lat="45.10329" lon="0.58027">
        <ele>190.6</ele>
        <time>2024-04-14T10:08:35Z</time>
      </trkpt>
      <trkpt lat="45.1033" lon="0.58025">
        <ele>190.7</ele>
        <time>2024-04-14T10:08:36Z</time>
      </trkpt>
      <trkpt lat="45.10331" lon="0.58022">
        <ele>190.9</ele>
        <time>2024-04-14T10:08:38Z</time>
      </trkpt>
      <trkpt lat="45.10332" lon="0.58017">
        <ele>191.2</ele>
        <time>2024-04-14T10:08:40Z</time>
      </trkpt>
      <trkpt lat="45.10333" lon="0.58015">
        <ele>191.3</ele>
        <time>2024-04-14T10:08:41Z</time>
      </trkpt>
      <trkpt lat="45.10333" lon="0.58013">
        <ele>191.4</ele>
        <time>2024-04-14T10:08:42Z</time>
      </trkpt>
      <trkpt lat="45.10334" lon="0.58009">
        <ele>191.7</ele>
        <time>2024-04-14T10:08:44Z</time>
      </trkpt>
      <trkpt lat="45.10336" lon="0.58006">
        <ele>191.9</ele>
        <time>2024-04-14T10:08:46Z</time>
      </trkpt>
      <trkpt lat="45.10336" lon="0.58004">
        <ele>192</ele>
        <time>2024-04-14T10:08:47Z</time>
      </trkpt>
      <trkpt lat="45.10336" lon="0.58002">
        <ele>192.1</ele>
        <time>2024-04-14T10:08:48Z</time>
      </trkpt>
      <trkpt lat="45.10336" lon="0.57998">
        <ele>192.3</ele>
        <time>2024-04-14T10:08:50Z</time>
      </trkpt>
      <trkpt lat="45.10335" lon="0.57995">
        <ele>192.5</ele>
        <time>2024-04-14T10:08:52Z</time>
      </trkpt>
      <trkpt lat="45.10336" lon="0.5799">
        <ele>192.7</ele>
        <time>2024-04-14T10:08:54Z</time>
      </trkpt>
      <trkpt lat="45.10336" lon="0.57985">
        <ele>193</ele>
        <time>2024-04-14T10:08:56Z</time>
      </trkpt>
      <trkpt lat="45.10337" lon="0.57982">
        <ele>193.2</ele>
        <time>2024-04-14T10:08:58Z</time>
      </trkpt>
      <trkpt lat="45.10337" lon="0.57981">
        <ele>193.3</ele>
        <time>2024-04-14T10:08:59Z</time>
      </trkpt>
      <trkpt lat="45.10339" lon="0.57973">
        <ele>193.7</ele>
        <time>2024-04-14T10:09:40Z</time>
      </trkpt>
      <trkpt lat="45.1034" lon="0.5797">
        <ele>193.9</ele>
        <time>2024-04-14T10:09:41Z</time>
      </trkpt>
      <trkpt lat="45.10341" lon="0.57967">
        <ele>194.1</ele>
        <time>2024-04-14T10:09:42Z</time>
      </trkpt>
      <trkpt lat="45.10342" lon="0.57961">
        <ele>194.4</ele>
        <time>2024-04-14T10:09:44Z</time>
      </trkpt>
      <trkpt lat="45.10343" lon="0.57955">
        <ele>194.8</ele>
        <time>2024-04-14T10:09:46Z</time>
      </trkpt>
      <trkpt lat="45.10344" lon="0.57948">
        <ele>195</ele>
        <time>2024-04-14T10:09:48Z</time>
      </trkpt>
      <trkpt lat="45.10345" lon="0.57941">
        <ele>194.9</ele>
        <time>2024-04-14T10:09:50Z</time>
      </trkpt>
      <trkpt lat="45.10346" lon="0.57932">
        <ele>194.7</ele>
        <time>2024-04-14T10:09:52Z</time>
      </trkpt>
      <trkpt lat="45.10347" lon="0.57922">
        <ele>194.5</ele>
        <time>2024-04-14T10:09:54Z</time>
      </trkpt>
      <trkpt lat="45.10348" lon="0.57912">
        <ele>194.3</ele>
        <time>2024-04-14T10:09:56Z</time>
      </trkpt>
      <trkpt lat="45.1035" lon="0.57902">
        <ele>194</ele>
        <time>2024-04-14T10:09:58Z</time>
      </trkpt>
      <trkpt lat="45.10351" lon="0.57896">
        <ele>193.8</ele>
        <time>2024-04-14T10:09:59Z</time>
      </trkpt>
      <trkpt lat="45.10352" lon="0.5789">
        <ele>193.7</ele>
        <time>2024-04-14T10:10:00Z</time>
      </trkpt>
      <trkpt lat="45.10353" lon="0.57876">
        <ele>193.4</ele>
        <time>2024-04-14T10:10:02Z</time>
      </trkpt>
      <trkpt lat="45.10354" lon="0.57869">
        <ele>193.3</ele>
        <time>2024-04-14T10:10:03Z</time>
      </trkpt>
      <trkpt lat="45.10356" lon="0.57863">
        <ele>193.2</ele>
        <time>2024-04-14T10:10:04Z</time>
      </trkpt>
      <trkpt lat="45.10358" lon="0.57857">
        <ele>193.2</ele>
        <time>2024-04-14T10:10:05Z</time>
      </trkpt>
      <trkpt lat="45.1036" lon="0.57851">
        <ele>193.3</ele>
        <time>2024-04-14T10:10:06Z</time>
      </trkpt>
      <trkpt lat="45.10364" lon="0.57841">
        <ele>193.5</ele>
        <time>2024-04-14T10:10:08Z</time>
      </trkpt>
      <trkpt lat="45.10366" lon="0.57836">
        <ele>193.6</ele>
        <time>2024-04-14T10:10:09Z</time>
      </trkpt>
      <trkpt lat="45.10368" lon="0.57831">
        <ele>193.7</ele>
        <time>2024-04-14T10:10:10Z</time>
      </trkpt>
      <trkpt lat="45.10372" lon="0.57821">
        <ele>194.1</ele>
        <time>2024-04-14T10:10:12Z</time>
      </trkpt>
      <trkpt lat="45.10377" lon="0.57812">
        <ele>194.4</ele>
        <time>2024-04-14T10:10:14Z</time>
      </trkpt>
      <trkpt lat="45.10382" lon="0.57804">
        <ele>194.7</ele>
        <time>2024-04-14T10:10:16Z</time>
      </trkpt>
      <trkpt lat="45.10387" lon="0.57795">
        <ele>194.9</ele>
        <time>2024-04-14T10:10:18Z</time>
      </trkpt>
      <trkpt lat="45.10393" lon="0.57787">
        <ele>195.1</ele>
        <time>2024-04-14T10:10:20Z</time>
      </trkpt>
      <trkpt lat="45.10395" lon="0.57784">
        <ele>195.2</ele>
        <time>2024-04-14T10:10:21Z</time>
      </trkpt>
      <trkpt lat="45.10399" lon="0.57782">
        <ele>195.3</ele>
        <time>2024-04-14T10:10:22Z</time>
      </trkpt>
      <trkpt lat="45.10406" lon="0.57779">
        <ele>195.4</ele>
        <time>2024-04-14T10:10:24Z</time>
      </trkpt>
      <trkpt lat="45.10412" lon="0.57778">
        <ele>195.5</ele>
        <time>2024-04-14T10:10:26Z</time>
      </trkpt>
      <trkpt lat="45.10418" lon="0.5778">
        <ele>195.7</ele>
        <time>2024-04-14T10:10:28Z</time>
      </trkpt>
      <trkpt lat="45.10425" lon="0.57782">
        <ele>195.9</ele>
        <time>2024-04-14T10:10:30Z</time>
      </trkpt>
      <trkpt lat="45.10428" lon="0.57784">
        <ele>196</ele>
        <time>2024-04-14T10:10:31Z</time>
      </trkpt>
      <trkpt lat="45.10432" lon="0.57786">
        <ele>196.1</ele>
        <time>2024-04-14T10:10:32Z</time>
      </trkpt>
      <trkpt lat="45.10439" lon="0.5779">
        <ele>196.2</ele>
        <time>2024-04-14T10:10:34Z</time>
      </trkpt>
      <trkpt lat="45.10445" lon="0.57795">
        <ele>196.4</ele>
        <time>2024-04-14T10:10:36Z</time>
      </trkpt>
      <trkpt lat="45.10448" lon="0.57798">
        <ele>196.5</ele>
        <time>2024-04-14T10:10:37Z</time>
      </trkpt>
      <trkpt lat="45.1045" lon="0.57802">
        <ele>196.6</ele>
        <time>2024-04-14T10:10:38Z</time>
      </trkpt>
      <trkpt lat="45.10455" lon="0.57807">
        <ele>196.8</ele>
        <time>2024-04-14T10:10:40Z</time>
      </trkpt>
      <trkpt lat="45.10461" lon="0.57814">
        <ele>197</ele>
        <time>2024-04-14T10:10:42Z</time>
      </trkpt>
      <trkpt lat="45.10467" lon="0.5782">
        <ele>197.2</ele>
        <time>2024-04-14T10:10:44Z</time>
      </trkpt>
      <trkpt lat="45.10472" lon="0.57826">
        <ele>197.4</ele>
        <time>2024-04-14T10:10:46Z</time>
      </trkpt>
      <trkpt lat="45.10473" lon="0.5783">
        <ele>197.5</ele>
        <time>2024-04-14T10:10:47Z</time>
      </trkpt>
      <trkpt lat="45.10475" lon="0.57834">
        <ele>197.6</ele>
        <time>2024-04-14T10:10:48Z</time>
      </trkpt>
      <trkpt lat="45.10479" lon="0.57839">
        <ele>197.7</ele>
        <time>2024-04-14T10:10:51Z</time>
      </trkpt>
      <trkpt lat="45.10482" lon="0.57842">
        <ele>197.8</ele>
        <time>2024-04-14T10:10:52Z</time>
      </trkpt>
      <trkpt lat="45.10486" lon="0.57848">
        <ele>198</ele>
        <time>2024-04-14T10:10:54Z</time>
      </trkpt>
      <trkpt lat="45.10491" lon="0.57854">
        <ele>198.2</ele>
        <time>2024-04-14T10:10:56Z</time>
      </trkpt>
      <trkpt lat="45.10494" lon="0.57856">
        <ele>198.3</ele>
        <time>2024-04-14T10:10:57Z</time>
      </trkpt>
      <trkpt lat="45.10497" lon="0.57858">
        <ele>198.4</ele>
        <time>2024-04-14T10:10:58Z</time>
      </trkpt>
      <trkpt lat="45.10504" lon="0.5786">
        <ele>198.6</ele>
        <time>2024-04-14T10:11:00Z</time>
      </trkpt>
      <trkpt lat="45.10511" lon="0.57861">
        <ele>198.9</ele>
        <time>2024-04-14T10:11:02Z</time>
      </trkpt>
      <trkpt lat="45.10517" lon="0.5786">
        <ele>199.2</ele>
        <time>2024-04-14T10:11:04Z</time>
      </trkpt>
      <trkpt lat="45.10523" lon="0.57859">
        <ele>199.5</ele>
        <time>2024-04-14T10:11:06Z</time>
      </trkpt>
      <trkpt lat="45.10526" lon="0.57857">
        <ele>199.7</ele>
        <time>2024-04-14T10:11:07Z</time>
      </trkpt>
      <trkpt lat="45.10529" lon="0.57856">
        <ele>199.9</ele>
        <time>2024-04-14T10:11:08Z</time>
      </trkpt>
      <trkpt lat="45.10534" lon="0.57855">
        <ele>200.2</ele>
        <time>2024-04-14T10:11:10Z</time>
      </trkpt>
      <trkpt lat="45.1054" lon="0.57854">
        <ele>200.6</ele>
        <time>2024-04-14T10:11:12Z</time>
      </trkpt>
      <trkpt lat="45.10542" lon="0.57853">
        <ele>200.7</ele>
        <time>2024-04-14T10:11:13Z</time>
      </trkpt>
      <trkpt lat="45.10545" lon="0.57853">
        <ele>200.8</ele>
        <time>2024-04-14T10:11:14Z</time>
      </trkpt>
      <trkpt lat="45.10549" lon="0.57853">
        <ele>201</ele>
        <time>2024-04-14T10:11:16Z</time>
      </trkpt>
      <trkpt lat="45.10552" lon="0.57854">
        <ele>201.1</ele>
        <time>2024-04-14T10:11:17Z</time>
      </trkpt>
      <trkpt lat="45.10554" lon="0.57855">
        <ele>201.2</ele>
        <time>2024-04-14T10:11:18Z</time>
      </trkpt>
      <trkpt lat="45.1056" lon="0.57857">
        <ele>201.3</ele>
        <time>2024-04-14T10:11:20Z</time>
      </trkpt>
      <trkpt lat="45.10566" lon="0.57859">
        <ele>201.3</ele>
        <time>2024-04-14T10:11:22Z</time>
      </trkpt>
      <trkpt lat="45.10574" lon="0.57861">
        <ele>201.3</ele>
        <time>2024-04-14T10:11:24Z</time>
      </trkpt>
      <trkpt lat="45.10581" lon="0.5786">
        <ele>201.2</ele>
        <time>2024-04-14T10:11:26Z</time>
      </trkpt>
      <trkpt lat="45.10585" lon="0.5786">
        <ele>201.2</ele>
        <time>2024-04-14T10:11:27Z</time>
      </trkpt>
      <trkpt lat="45.10589" lon="0.5786">
        <ele>201.2</ele>
        <time>2024-04-14T10:11:28Z</time>
      </trkpt>
      <trkpt lat="45.10597" lon="0.5786">
        <ele>201.2</ele>
        <time>2024-04-14T10:11:30Z</time>
      </trkpt>
      <trkpt lat="45.10604" lon="0.57859">
        <ele>201.3</ele>
        <time>2024-04-14T10:11:32Z</time>
      </trkpt>
      <trkpt lat="45.1061" lon="0.57859">
        <ele>201.4</ele>
        <time>2024-04-14T10:11:34Z</time>
      </trkpt>
      <trkpt lat="45.10617" lon="0.57859">
        <ele>201.6</ele>
        <time>2024-04-14T10:11:36Z</time>
      </trkpt>
      <trkpt lat="45.10624" lon="0.5786">
        <ele>201.9</ele>
        <time>2024-04-14T10:11:38Z</time>
      </trkpt>
      <trkpt lat="45.1063" lon="0.57862">
        <ele>202.2</ele>
        <time>2024-04-14T10:11:40Z</time>
      </trkpt>
      <trkpt lat="45.10635" lon="0.57864">
        <ele>202.4</ele>
        <time>2024-04-14T10:11:42Z</time>
      </trkpt>
      <trkpt lat="45.10637" lon="0.57865">
        <ele>202.5</ele>
        <time>2024-04-14T10:11:43Z</time>
      </trkpt>
      <trkpt lat="45.1064" lon="0.57866">
        <ele>202.6</ele>
        <time>2024-04-14T10:11:44Z</time>
      </trkpt>
      <trkpt lat="45.10644" lon="0.57868">
        <ele>202.8</ele>
        <time>2024-04-14T10:11:46Z</time>
      </trkpt>
      <trkpt lat="45.10648" lon="0.57871">
        <ele>203.1</ele>
        <time>2024-04-14T10:11:48Z</time>
      </trkpt>
      <trkpt lat="45.1065" lon="0.57872">
        <ele>203.2</ele>
        <time>2024-04-14T10:11:49Z</time>
      </trkpt>
      <trkpt lat="45.10652" lon="0.57874">
        <ele>203.4</ele>
        <time>2024-04-14T10:11:50Z</time>
      </trkpt>
      <trkpt lat="45.10653" lon="0.57876">
        <ele>203.5</ele>
        <time>2024-04-14T10:11:51Z</time>
      </trkpt>
      <trkpt lat="45.10658" lon="0.5788">
        <ele>203.9</ele>
        <time>2024-04-14T10:11:54Z</time>
      </trkpt>
      <trkpt lat="45.1066" lon="0.57881">
        <ele>204</ele>
        <time>2024-04-14T10:11:55Z</time>
      </trkpt>
      <trkpt lat="45.10662" lon="0.57883">
        <ele>204.1</ele>
        <time>2024-04-14T10:11:56Z</time>
      </trkpt>
      <trkpt lat="45.10665" lon="0.57887">
        <ele>204.4</ele>
        <time>2024-04-14T10:11:58Z</time>
      </trkpt>
      <trkpt lat="45.10668" lon="0.5789">
        <ele>204.6</ele>
        <time>2024-04-14T10:12:00Z</time>
      </trkpt>
      <trkpt lat="45.10671" lon="0.57893">
        <ele>204.9</ele>
        <time>2024-04-14T10:12:02Z</time>
      </trkpt>
      <trkpt lat="45.10672" lon="0.57894">
        <ele>205</ele>
        <time>2024-04-14T10:12:03Z</time>
      </trkpt>
      <trkpt lat="45.10674" lon="0.57896">
        <ele>205.1</ele>
        <time>2024-04-14T10:12:04Z</time>
      </trkpt>
      <trkpt lat="45.10675" lon="0.57897">
        <ele>205.2</ele>
        <time>2024-04-14T10:12:05Z</time>
      </trkpt>
      <trkpt lat="45.10677" lon="0.57898">
        <ele>205.3</ele>
        <time>2024-04-14T10:12:06Z</time>
      </trkpt>
      <trkpt lat="45.10681" lon="0.57901">
        <ele>205.6</ele>
        <time>2024-04-14T10:12:08Z</time>
      </trkpt>
      <trkpt lat="45.10685" lon="0.57903">
        <ele>205.8</ele>
        <time>2024-04-14T10:12:10Z</time>
      </trkpt>
      <trkpt lat="45.10687" lon="0.57905">
        <ele>205.9</ele>
        <time>2024-04-14T10:12:11Z</time>
      </trkpt>
      <trkpt lat="45.10689" lon="0.57906">
        <ele>206</ele>
        <time>2024-04-14T10:12:12Z</time>
      </trkpt>
      <trkpt lat="45.10693" lon="0.57908">
        <ele>206.2</ele>
        <time>2024-04-14T10:12:14Z</time>
      </trkpt>
      <trkpt lat="45.10696" lon="0.57911">
        <ele>206.4</ele>
        <time>2024-04-14T10:12:16Z</time>
      </trkpt>
      <trkpt lat="45.107" lon="0.57914">
        <ele>206.6</ele>
        <time>2024-04-14T10:12:18Z</time>
      </trkpt>
      <trkpt lat="45.10704" lon="0.57917">
        <ele>206.7</ele>
        <time>2024-04-14T10:12:20Z</time>
      </trkpt>
      <trkpt lat="45.10709" lon="0.57919">
        <ele>206.9</ele>
        <time>2024-04-14T10:12:22Z</time>
      </trkpt>
      <trkpt lat="45.10713" lon="0.57922">
        <ele>207.1</ele>
        <time>2024-04-14T10:12:24Z</time>
      </trkpt>
      <trkpt lat="45.10717" lon="0.57925">
        <ele>207.2</ele>
        <time>2024-04-14T10:12:26Z</time>
      </trkpt>
      <trkpt lat="45.10721" lon="0.57929">
        <ele>207.3</ele>
        <time>2024-04-14T10:12:28Z</time>
      </trkpt>
      <trkpt lat="45.10725" lon="0.57932">
        <ele>207.4</ele>
        <time>2024-04-14T10:12:30Z</time>
      </trkpt>
      <trkpt lat="45.10732" lon="0.57936">
        <ele>207.5</ele>
        <time>2024-04-14T10:12:33Z</time>
      </trkpt>
      <trkpt lat="45.10737" lon="0.57939">
        <ele>207.6</ele>
        <time>2024-04-14T10:12:35Z</time>
      </trkpt>
      <trkpt lat="45.10741" lon="0.57942">
        <ele>207.7</ele>
        <time>2024-04-14T10:12:37Z</time>
      </trkpt>
      <trkpt lat="45.10746" lon="0.57945">
        <ele>207.7</ele>
        <time>2024-04-14T10:12:39Z</time>
      </trkpt>
      <trkpt lat="45.1075" lon="0.57949">
        <ele>207.8</ele>
        <time>2024-04-14T10:12:41Z</time>
      </trkpt>
      <trkpt lat="45.10755" lon="0.57952">
        <ele>207.8</ele>
        <time>2024-04-14T10:12:43Z</time>
      </trkpt>
      <trkpt lat="45.10758" lon="0.57953">
        <ele>207.9</ele>
        <time>2024-04-14T10:12:44Z</time>
      </trkpt>
      <trkpt lat="45.1076" lon="0.57955">
        <ele>207.9</ele>
        <time>2024-04-14T10:12:45Z</time>
      </trkpt>
      <trkpt lat="45.10766" lon="0.57959">
        <ele>207.9</ele>
        <time>2024-04-14T10:12:47Z</time>
      </trkpt>
      <trkpt lat="45.10771" lon="0.57962">
        <ele>208</ele>
        <time>2024-04-14T10:12:49Z</time>
      </trkpt>
      <trkpt lat="45.10776" lon="0.57965">
        <ele>208</ele>
        <time>2024-04-14T10:12:51Z</time>
      </trkpt>
      <trkpt lat="45.10782" lon="0.57969">
        <ele>208.1</ele>
        <time>2024-04-14T10:12:53Z</time>
      </trkpt>
      <trkpt lat="45.10788" lon="0.57973">
        <ele>208.1</ele>
        <time>2024-04-14T10:12:55Z</time>
      </trkpt>
      <trkpt lat="45.10793" lon="0.57977">
        <ele>208.2</ele>
        <time>2024-04-14T10:12:57Z</time>
      </trkpt>
      <trkpt lat="45.10798" lon="0.5798">
        <ele>208.2</ele>
        <time>2024-04-14T10:12:59Z</time>
      </trkpt>
      <trkpt lat="45.10803" lon="0.57985">
        <ele>208.2</ele>
        <time>2024-04-14T10:13:01Z</time>
      </trkpt>
      <trkpt lat="45.10807" lon="0.57991">
        <ele>208.2</ele>
        <time>2024-04-14T10:13:03Z</time>
      </trkpt>
      <trkpt lat="45.10809" lon="0.57997">
        <ele>208.4</ele>
        <time>2024-04-14T10:13:05Z</time>
      </trkpt>
      <trkpt lat="45.10811" lon="0.58003">
        <ele>208.5</ele>
        <time>2024-04-14T10:13:07Z</time>
      </trkpt>
      <trkpt lat="45.10812" lon="0.58009">
        <ele>208.7</ele>
        <time>2024-04-14T10:13:09Z</time>
      </trkpt>
      <trkpt lat="45.10813" lon="0.58014">
        <ele>208.8</ele>
        <time>2024-04-14T10:13:11Z</time>
      </trkpt>
      <trkpt lat="45.10815" lon="0.5802">
        <ele>209</ele>
        <time>2024-04-14T10:13:13Z</time>
      </trkpt>
      <trkpt lat="45.10818" lon="0.58027">
        <ele>209.1</ele>
        <time>2024-04-14T10:13:15Z</time>
      </trkpt>
      <trkpt lat="45.10821" lon="0.58032">
        <ele>209.3</ele>
        <time>2024-04-14T10:13:17Z</time>
      </trkpt>
      <trkpt lat="45.10822" lon="0.58035">
        <ele>209.4</ele>
        <time>2024-04-14T10:13:18Z</time>
      </trkpt>
      <trkpt lat="45.10824" lon="0.58036">
        <ele>209.5</ele>
        <time>2024-04-14T10:13:19Z</time>
      </trkpt>
      <trkpt lat="45.10825" lon="0.58037">
        <ele>209.6</ele>
        <time>2024-04-14T10:13:20Z</time>
      </trkpt>
      <trkpt lat="45.10827" lon="0.58038">
        <ele>209.6</ele>
        <time>2024-04-14T10:13:21Z</time>
      </trkpt>
      <trkpt lat="45.10828" lon="0.58039">
        <ele>209.7</ele>
        <time>2024-04-14T10:13:22Z</time>
      </trkpt>
      <trkpt lat="45.1083" lon="0.5804">
        <ele>209.8</ele>
        <time>2024-04-14T10:13:23Z</time>
      </trkpt>
      <trkpt lat="45.10834" lon="0.58041">
        <ele>209.9</ele>
        <time>2024-04-14T10:13:25Z</time>
      </trkpt>
      <trkpt lat="45.10837" lon="0.58042">
        <ele>210</ele>
        <time>2024-04-14T10:13:27Z</time>
      </trkpt>
      <trkpt lat="45.10841" lon="0.58043">
        <ele>210</ele>
        <time>2024-04-14T10:13:29Z</time>
      </trkpt>
      <trkpt lat="45.10843" lon="0.58044">
        <ele>210.1</ele>
        <time>2024-04-14T10:13:30Z</time>
      </trkpt>
      <trkpt lat="45.10844" lon="0.58044">
        <ele>210.1</ele>
        <time>2024-04-14T10:13:31Z</time>
      </trkpt>
      <trkpt lat="45.10847" lon="0.58045">
        <ele>210.2</ele>
        <time>2024-04-14T10:13:33Z</time>
      </trkpt>
      <trkpt lat="45.1085" lon="0.58047">
        <ele>210.2</ele>
        <time>2024-04-14T10:13:35Z</time>
      </trkpt>
      <trkpt lat="45.10855" lon="0.58047">
        <ele>210.3</ele>
        <time>2024-04-14T10:13:37Z</time>
      </trkpt>
      <trkpt lat="45.10859" lon="0.58048">
        <ele>210.3</ele>
        <time>2024-04-14T10:13:39Z</time>
      </trkpt>
      <trkpt lat="45.10861" lon="0.58048">
        <ele>210.3</ele>
        <time>2024-04-14T10:13:40Z</time>
      </trkpt>
      <trkpt lat="45.10863" lon="0.58049">
        <ele>210.4</ele>
        <time>2024-04-14T10:13:41Z</time>
      </trkpt>
      <trkpt lat="45.10865" lon="0.58049">
        <ele>210.4</ele>
        <time>2024-04-14T10:13:42Z</time>
      </trkpt>
      <trkpt lat="45.1087" lon="0.5805">
        <ele>210.4</ele>
        <time>2024-04-14T10:13:44Z</time>
      </trkpt>
      <trkpt lat="45.10874" lon="0.5805">
        <ele>210.5</ele>
        <time>2024-04-14T10:13:46Z</time>
      </trkpt>
      <trkpt lat="45.10876" lon="0.58051">
        <ele>210.5</ele>
        <time>2024-04-14T10:13:47Z</time>
      </trkpt>
      <trkpt lat="45.10878" lon="0.58052">
        <ele>210.5</ele>
        <time>2024-04-14T10:13:48Z</time>
      </trkpt>
      <trkpt lat="45.10883" lon="0.58053">
        <ele>210.6</ele>
        <time>2024-04-14T10:13:50Z</time>
      </trkpt>
      <trkpt lat="45.10887" lon="0.58054">
        <ele>210.7</ele>
        <time>2024-04-14T10:13:52Z</time>
      </trkpt>
      <trkpt lat="45.10893" lon="0.58056">
        <ele>210.7</ele>
        <time>2024-04-14T10:13:55Z</time>
      </trkpt>
      <trkpt lat="45.109" lon="0.58058">
        <ele>210.8</ele>
        <time>2024-04-14T10:13:58Z</time>
      </trkpt>
      <trkpt lat="45.10905" lon="0.58059">
        <ele>210.9</ele>
        <time>2024-04-14T10:14:00Z</time>
      </trkpt>
      <trkpt lat="45.1091" lon="0.58061">
        <ele>210.9</ele>
        <time>2024-04-14T10:14:02Z</time>
      </trkpt>
      <trkpt lat="45.10915" lon="0.58063">
        <ele>210.9</ele>
        <time>2024-04-14T10:14:04Z</time>
      </trkpt>
      <trkpt lat="45.10918" lon="0.58064">
        <ele>211</ele>
        <time>2024-04-14T10:14:05Z</time>
      </trkpt>
      <trkpt lat="45.1092" lon="0.58064">
        <ele>211</ele>
        <time>2024-04-14T10:14:06Z</time>
      </trkpt>
      <trkpt lat="45.10924" lon="0.58065">
        <ele>211</ele>
        <time>2024-04-14T10:14:08Z</time>
      </trkpt>
      <trkpt lat="45.10929" lon="0.58066">
        <ele>211</ele>
        <time>2024-04-14T10:14:10Z</time>
      </trkpt>
      <trkpt lat="45.10934" lon="0.58067">
        <ele>211</ele>
        <time>2024-04-14T10:14:12Z</time>
      </trkpt>
      <trkpt lat="45.10938" lon="0.58069">
        <ele>211</ele>
        <time>2024-04-14T10:14:14Z</time>
      </trkpt>
      <trkpt lat="45.1094" lon="0.5807">
        <ele>211</ele>
        <time>2024-04-14T10:14:15Z</time>
      </trkpt>
      <trkpt lat="45.10942" lon="0.5807">
        <ele>211</ele>
        <time>2024-04-14T10:14:16Z</time>
      </trkpt>
      <trkpt lat="45.10947" lon="0.58072">
        <ele>210.9</ele>
        <time>2024-04-14T10:14:18Z</time>
      </trkpt>
      <trkpt lat="45.10951" lon="0.58074">
        <ele>210.9</ele>
        <time>2024-04-14T10:14:20Z</time>
      </trkpt>
      <trkpt lat="45.10955" lon="0.58075">
        <ele>211</ele>
        <time>2024-04-14T10:14:22Z</time>
      </trkpt>
      <trkpt lat="45.1096" lon="0.58076">
        <ele>211</ele>
        <time>2024-04-14T10:14:24Z</time>
      </trkpt>
      <trkpt lat="45.10964" lon="0.58077">
        <ele>211</ele>
        <time>2024-04-14T10:14:26Z</time>
      </trkpt>
      <trkpt lat="45.10966" lon="0.58078">
        <ele>211.1</ele>
        <time>2024-04-14T10:14:27Z</time>
      </trkpt>
      <trkpt lat="45.10968" lon="0.58078">
        <ele>211.1</ele>
        <time>2024-04-14T10:14:28Z</time>
      </trkpt>
      <trkpt lat="45.10971" lon="0.58078">
        <ele>211.1</ele>
        <time>2024-04-14T10:14:29Z</time>
      </trkpt>
      <trkpt lat="45.10977" lon="0.5808">
        <ele>211.2</ele>
        <time>2024-04-14T10:14:32Z</time>
      </trkpt>
      <trkpt lat="45.10982" lon="0.5808">
        <ele>211.3</ele>
        <time>2024-04-14T10:14:34Z</time>
      </trkpt>
      <trkpt lat="45.10987" lon="0.58081">
        <ele>211.3</ele>
        <time>2024-04-14T10:14:36Z</time>
      </trkpt>
      <trkpt lat="45.10993" lon="0.5808">
        <ele>211.4</ele>
        <time>2024-04-14T10:14:38Z</time>
      </trkpt>
      <trkpt lat="45.10997" lon="0.58081">
        <ele>211.5</ele>
        <time>2024-04-14T10:14:40Z</time>
      </trkpt>
      <trkpt lat="45.11003" lon="0.58082">
        <ele>211.6</ele>
        <time>2024-04-14T10:14:42Z</time>
      </trkpt>
      <trkpt lat="45.11008" lon="0.58083">
        <ele>211.7</ele>
        <time>2024-04-14T10:14:44Z</time>
      </trkpt>
      <trkpt lat="45.11012" lon="0.58083">
        <ele>211.7</ele>
        <time>2024-04-14T10:14:46Z</time>
      </trkpt>
      <trkpt lat="45.11018" lon="0.58084">
        <ele>211.8</ele>
        <time>2024-04-14T10:14:48Z</time>
      </trkpt>
      <trkpt lat="45.11023" lon="0.58084">
        <ele>211.9</ele>
        <time>2024-04-14T10:14:50Z</time>
      </trkpt>
      <trkpt lat="45.11027" lon="0.58085">
        <ele>212</ele>
        <time>2024-04-14T10:14:52Z</time>
      </trkpt>
      <trkpt lat="45.11031" lon="0.58086">
        <ele>212</ele>
        <time>2024-04-14T10:14:54Z</time>
      </trkpt>
      <trkpt lat="45.11036" lon="0.58086">
        <ele>212.1</ele>
        <time>2024-04-14T10:14:56Z</time>
      </trkpt>
      <trkpt lat="45.11041" lon="0.58086">
        <ele>212.2</ele>
        <time>2024-04-14T10:14:58Z</time>
      </trkpt>
      <trkpt lat="45.11043" lon="0.58086">
        <ele>212.2</ele>
        <time>2024-04-14T10:14:59Z</time>
      </trkpt>
      <trkpt lat="45.11045" lon="0.58086">
        <ele>212.3</ele>
        <time>2024-04-14T10:15:00Z</time>
      </trkpt>
      <trkpt lat="45.1105" lon="0.58085">
        <ele>212.4</ele>
        <time>2024-04-14T10:15:02Z</time>
      </trkpt>
      <trkpt lat="45.11056" lon="0.58084">
        <ele>212.6</ele>
        <time>2024-04-14T10:15:04Z</time>
      </trkpt>
      <trkpt lat="45.1106" lon="0.58085">
        <ele>212.7</ele>
        <time>2024-04-14T10:15:06Z</time>
      </trkpt>
      <trkpt lat="45.11066" lon="0.58086">
        <ele>212.9</ele>
        <time>2024-04-14T10:15:08Z</time>
      </trkpt>
      <trkpt lat="45.11068" lon="0.58088">
        <ele>212.9</ele>
        <time>2024-04-14T10:15:09Z</time>
      </trkpt>
      <trkpt lat="45.11072" lon="0.58086">
        <ele>213.1</ele>
        <time>2024-04-14T10:15:10Z</time>
      </trkpt>
      <trkpt lat="45.11077" lon="0.58087">
        <ele>213.4</ele>
        <time>2024-04-14T10:15:12Z</time>
      </trkpt>
      <trkpt lat="45.1108" lon="0.58091">
        <ele>213.6</ele>
        <time>2024-04-14T10:15:14Z</time>
      </trkpt>
      <trkpt lat="45.11083" lon="0.58097">
        <ele>213.8</ele>
        <time>2024-04-14T10:15:16Z</time>
      </trkpt>
      <trkpt lat="45.11083" lon="0.58101">
        <ele>213.9</ele>
        <time>2024-04-14T10:15:17Z</time>
      </trkpt>
      <trkpt lat="45.11085" lon="0.58104">
        <ele>214</ele>
        <time>2024-04-14T10:15:18Z</time>
      </trkpt>
      <trkpt lat="45.11087" lon="0.58108">
        <ele>214.2</ele>
        <time>2024-04-14T10:15:20Z</time>
      </trkpt>
      <trkpt lat="45.11089" lon="0.58113">
        <ele>214.4</ele>
        <time>2024-04-14T10:15:22Z</time>
      </trkpt>
      <trkpt lat="45.1109" lon="0.58116">
        <ele>214.5</ele>
        <time>2024-04-14T10:15:23Z</time>
      </trkpt>
      <trkpt lat="45.1109" lon="0.58119">
        <ele>214.6</ele>
        <time>2024-04-14T10:15:24Z</time>
      </trkpt>
      <trkpt lat="45.11092" lon="0.58125">
        <ele>214.7</ele>
        <time>2024-04-14T10:15:26Z</time>
      </trkpt>
      <trkpt lat="45.11095" lon="0.58129">
        <ele>214.9</ele>
        <time>2024-04-14T10:15:28Z</time>
      </trkpt>
      <trkpt lat="45.11097" lon="0.58135">
        <ele>215.1</ele>
        <time>2024-04-14T10:15:30Z</time>
      </trkpt>
      <trkpt lat="45.11098" lon="0.58142">
        <ele>215.2</ele>
        <time>2024-04-14T10:15:32Z</time>
      </trkpt>
      <trkpt lat="45.111" lon="0.58149">
        <ele>215.3</ele>
        <time>2024-04-14T10:15:34Z</time>
      </trkpt>
      <trkpt lat="45.11101" lon="0.58153">
        <ele>215.4</ele>
        <time>2024-04-14T10:15:35Z</time>
      </trkpt>
      <trkpt lat="45.11102" lon="0.58156">
        <ele>215.4</ele>
        <time>2024-04-14T10:15:36Z</time>
      </trkpt>
      <trkpt lat="45.11104" lon="0.58163">
        <ele>215.5</ele>
        <time>2024-04-14T10:15:38Z</time>
      </trkpt>
      <trkpt lat="45.11106" lon="0.58169">
        <ele>215.6</ele>
        <time>2024-04-14T10:15:40Z</time>
      </trkpt>
      <trkpt lat="45.11107" lon="0.58172">
        <ele>215.6</ele>
        <time>2024-04-14T10:15:41Z</time>
      </trkpt>
      <trkpt lat="45.11108" lon="0.58176">
        <ele>215.7</ele>
        <time>2024-04-14T10:15:42Z</time>
      </trkpt>
      <trkpt lat="45.11109" lon="0.58183">
        <ele>215.7</ele>
        <time>2024-04-14T10:15:44Z</time>
      </trkpt>
      <trkpt lat="45.11111" lon="0.58191">
        <ele>215.8</ele>
        <time>2024-04-14T10:15:46Z</time>
      </trkpt>
      <trkpt lat="45.11113" lon="0.58198">
        <ele>215.8</ele>
        <time>2024-04-14T10:15:48Z</time>
      </trkpt>
      <trkpt lat="45.11114" lon="0.58202">
        <ele>215.8</ele>
        <time>2024-04-14T10:15:49Z</time>
      </trkpt>
      <trkpt lat="45.11114" lon="0.58206">
        <ele>215.8</ele>
        <time>2024-04-14T10:15:50Z</time>
      </trkpt>
      <trkpt lat="45.11117" lon="0.58213">
        <ele>215.7</ele>
        <time>2024-04-14T10:15:52Z</time>
      </trkpt>
      <trkpt lat="45.11119" lon="0.58214">
        <ele>215.7</ele>
        <time>2024-04-14T10:15:53Z</time>
      </trkpt>
      <trkpt lat="45.11121" lon="0.58216">
        <ele>215.6</ele>
        <time>2024-04-14T10:15:54Z</time>
      </trkpt>
      <trkpt lat="45.11124" lon="0.58221">
        <ele>215.6</ele>
        <time>2024-04-14T10:15:56Z</time>
      </trkpt>
      <trkpt lat="45.11128" lon="0.58229">
        <ele>215.4</ele>
        <time>2024-04-14T10:15:58Z</time>
      </trkpt>
      <trkpt lat="45.1113" lon="0.58232">
        <ele>215.3</ele>
        <time>2024-04-14T10:15:59Z</time>
      </trkpt>
      <trkpt lat="45.11132" lon="0.58235">
        <ele>215.3</ele>
        <time>2024-04-14T10:16:00Z</time>
      </trkpt>
      <trkpt lat="45.11136" lon="0.58243">
        <ele>215.1</ele>
        <time>2024-04-14T10:16:02Z</time>
      </trkpt>
      <trkpt lat="45.11139" lon="0.58253">
        <ele>214.9</ele>
        <time>2024-04-14T10:16:04Z</time>
      </trkpt>
      <trkpt lat="45.11144" lon="0.58261">
        <ele>214.7</ele>
        <time>2024-04-14T10:16:06Z</time>
      </trkpt>
      <trkpt lat="45.11147" lon="0.58265">
        <ele>214.6</ele>
        <time>2024-04-14T10:16:07Z</time>
      </trkpt>
      <trkpt lat="45.1115" lon="0.5827">
        <ele>214.5</ele>
        <time>2024-04-14T10:16:08Z</time>
      </trkpt>
      <trkpt lat="45.11154" lon="0.58274">
        <ele>214.4</ele>
        <time>2024-04-14T10:16:09Z</time>
      </trkpt>
      <trkpt lat="45.11156" lon="0.58277">
        <ele>214.4</ele>
        <time>2024-04-14T10:16:10Z</time>
      </trkpt>
      <trkpt lat="45.11161" lon="0.58283">
        <ele>214.3</ele>
        <time>2024-04-14T10:16:12Z</time>
      </trkpt>
      <trkpt lat="45.11162" lon="0.58287">
        <ele>214.3</ele>
        <time>2024-04-14T10:16:13Z</time>
      </trkpt>
      <trkpt lat="45.11163" lon="0.5829">
        <ele>214.2</ele>
        <time>2024-04-14T10:16:14Z</time>
      </trkpt>
      <trkpt lat="45.11162" lon="0.58296">
        <ele>213.9</ele>
        <time>2024-04-14T10:16:16Z</time>
      </trkpt>
      <trkpt lat="45.11165" lon="0.58298">
        <ele>213.6</ele>
        <time>2024-04-14T10:16:17Z</time>
      </trkpt>
      <trkpt lat="45.11168" lon="0.58303">
        <ele>213.2</ele>
        <time>2024-04-14T10:16:18Z</time>
      </trkpt>
      <trkpt lat="45.11171" lon="0.58309">
        <ele>212.8</ele>
        <time>2024-04-14T10:16:19Z</time>
      </trkpt>
      <trkpt lat="45.11173" lon="0.58314">
        <ele>212.4</ele>
        <time>2024-04-14T10:16:20Z</time>
      </trkpt>
      <trkpt lat="45.11178" lon="0.58333">
        <ele>211.1</ele>
        <time>2024-04-14T10:16:22Z</time>
      </trkpt>
      <trkpt lat="45.11179" lon="0.58344">
        <ele>210.5</ele>
        <time>2024-04-14T10:16:23Z</time>
      </trkpt>
      <trkpt lat="45.11179" lon="0.58353">
        <ele>210</ele>
        <time>2024-04-14T10:16:24Z</time>
      </trkpt>
      <trkpt lat="45.11181" lon="0.58363">
        <ele>209.4</ele>
        <time>2024-04-14T10:16:25Z</time>
      </trkpt>
      <trkpt lat="45.11184" lon="0.58374">
        <ele>208.8</ele>
        <time>2024-04-14T10:16:26Z</time>
      </trkpt>
      <trkpt lat="45.11187" lon="0.58385">
        <ele>208.2</ele>
        <time>2024-04-14T10:16:27Z</time>
      </trkpt>
      <trkpt lat="45.11189" lon="0.58398">
        <ele>207.4</ele>
        <time>2024-04-14T10:16:28Z</time>
      </trkpt>
      <trkpt lat="45.11196" lon="0.58424">
        <ele>206</ele>
        <time>2024-04-14T10:16:30Z</time>
      </trkpt>
      <trkpt lat="45.112" lon="0.58448">
        <ele>205.2</ele>
        <time>2024-04-14T10:16:32Z</time>
      </trkpt>
      <trkpt lat="45.112" lon="0.58459">
        <ele>204.7</ele>
        <time>2024-04-14T10:16:34Z</time>
      </trkpt>
      <trkpt lat="45.11195" lon="0.58463">
        <ele>204.5</ele>
        <time>2024-04-14T10:16:36Z</time>
      </trkpt>
      <trkpt lat="45.1119" lon="0.58467">
        <ele>204.4</ele>
        <time>2024-04-14T10:16:38Z</time>
      </trkpt>
      <trkpt lat="45.11185" lon="0.58469">
        <ele>204.2</ele>
        <time>2024-04-14T10:16:40Z</time>
      </trkpt>
      <trkpt lat="45.11179" lon="0.58472">
        <ele>204.1</ele>
        <time>2024-04-14T10:16:42Z</time>
      </trkpt>
      <trkpt lat="45.11176" lon="0.58474">
        <ele>204.1</ele>
        <time>2024-04-14T10:16:43Z</time>
      </trkpt>
      <trkpt lat="45.11172" lon="0.58476">
        <ele>204</ele>
        <time>2024-04-14T10:16:44Z</time>
      </trkpt>
      <trkpt lat="45.11166" lon="0.5848">
        <ele>204</ele>
        <time>2024-04-14T10:16:46Z</time>
      </trkpt>
      <trkpt lat="45.11163" lon="0.58483">
        <ele>204</ele>
        <time>2024-04-14T10:16:47Z</time>
      </trkpt>
      <trkpt lat="45.11161" lon="0.58487">
        <ele>204</ele>
        <time>2024-04-14T10:16:48Z</time>
      </trkpt>
      <trkpt lat="45.11156" lon="0.58494">
        <ele>204.1</ele>
        <time>2024-04-14T10:16:50Z</time>
      </trkpt>
      <trkpt lat="45.1115" lon="0.58499">
        <ele>204.3</ele>
        <time>2024-04-14T10:16:52Z</time>
      </trkpt>
      <trkpt lat="45.11147" lon="0.58501">
        <ele>204.4</ele>
        <time>2024-04-14T10:16:53Z</time>
      </trkpt>
      <trkpt lat="45.11143" lon="0.58503">
        <ele>204.5</ele>
        <time>2024-04-14T10:16:54Z</time>
      </trkpt>
      <trkpt lat="45.11137" lon="0.58507">
        <ele>204.8</ele>
        <time>2024-04-14T10:16:56Z</time>
      </trkpt>
      <trkpt lat="45.11134" lon="0.58509">
        <ele>204.9</ele>
        <time>2024-04-14T10:16:57Z</time>
      </trkpt>
      <trkpt lat="45.11132" lon="0.58512">
        <ele>205.1</ele>
        <time>2024-04-14T10:16:58Z</time>
      </trkpt>
      <trkpt lat="45.11127" lon="0.58518">
        <ele>205.5</ele>
        <time>2024-04-14T10:17:00Z</time>
      </trkpt>
      <trkpt lat="45.11125" lon="0.58521">
        <ele>205.6</ele>
        <time>2024-04-14T10:17:01Z</time>
      </trkpt>
      <trkpt lat="45.11123" lon="0.58523">
        <ele>205.8</ele>
        <time>2024-04-14T10:17:02Z</time>
      </trkpt>
      <trkpt lat="45.1112" lon="0.58528">
        <ele>206.1</ele>
        <time>2024-04-14T10:17:04Z</time>
      </trkpt>
      <trkpt lat="45.11119" lon="0.5853">
        <ele>206.2</ele>
        <time>2024-04-14T10:17:05Z</time>
      </trkpt>
      <trkpt lat="45.11117" lon="0.58532">
        <ele>206.4</ele>
        <time>2024-04-14T10:17:06Z</time>
      </trkpt>
      <trkpt lat="45.11113" lon="0.58535">
        <ele>206.7</ele>
        <time>2024-04-14T10:17:08Z</time>
      </trkpt>
      <trkpt lat="45.11109" lon="0.58539">
        <ele>207.1</ele>
        <time>2024-04-14T10:17:10Z</time>
      </trkpt>
      <trkpt lat="45.11108" lon="0.58542">
        <ele>207.2</ele>
        <time>2024-04-14T10:17:11Z</time>
      </trkpt>
      <trkpt lat="45.11106" lon="0.58544">
        <ele>207.4</ele>
        <time>2024-04-14T10:17:12Z</time>
      </trkpt>
      <trkpt lat="45.11102" lon="0.58549">
        <ele>207.7</ele>
        <time>2024-04-14T10:17:14Z</time>
      </trkpt>
      <trkpt lat="45.11099" lon="0.58555">
        <ele>208.1</ele>
        <time>2024-04-14T10:17:16Z</time>
      </trkpt>
      <trkpt lat="45.11095" lon="0.58562">
        <ele>208.4</ele>
        <time>2024-04-14T10:17:18Z</time>
      </trkpt>
      <trkpt lat="45.11092" lon="0.58568">
        <ele>208.7</ele>
        <time>2024-04-14T10:17:20Z</time>
      </trkpt>
      <trkpt lat="45.1109" lon="0.58571">
        <ele>208.9</ele>
        <time>2024-04-14T10:17:21Z</time>
      </trkpt>
      <trkpt lat="45.11089" lon="0.58574">
        <ele>209</ele>
        <time>2024-04-14T10:17:22Z</time>
      </trkpt>
      <trkpt lat="45.11087" lon="0.58577">
        <ele>209.2</ele>
        <time>2024-04-14T10:17:23Z</time>
      </trkpt>
      <trkpt lat="45.11085" lon="0.58579">
        <ele>209.3</ele>
        <time>2024-04-14T10:17:24Z</time>
      </trkpt>
      <trkpt lat="45.11081" lon="0.58583">
        <ele>209.6</ele>
        <time>2024-04-14T10:17:26Z</time>
      </trkpt>
      <trkpt lat="45.1108" lon="0.58585">
        <ele>209.7</ele>
        <time>2024-04-14T10:17:27Z</time>
      </trkpt>
      <trkpt lat="45.11079" lon="0.58586">
        <ele>209.8</ele>
        <time>2024-04-14T10:17:28Z</time>
      </trkpt>
      <trkpt lat="45.11076" lon="0.58589">
        <ele>210</ele>
        <time>2024-04-14T10:17:30Z</time>
      </trkpt>
      <trkpt lat="45.11072" lon="0.58592">
        <ele>210.3</ele>
        <time>2024-04-14T10:17:32Z</time>
      </trkpt>
      <trkpt lat="45.11069" lon="0.58596">
        <ele>210.6</ele>
        <time>2024-04-14T10:17:34Z</time>
      </trkpt>
      <trkpt lat="45.11066" lon="0.586">
        <ele>210.8</ele>
        <time>2024-04-14T10:17:36Z</time>
      </trkpt>
      <trkpt lat="45.11063" lon="0.58604">
        <ele>211</ele>
        <time>2024-04-14T10:17:38Z</time>
      </trkpt>
      <trkpt lat="45.11061" lon="0.58606">
        <ele>211.1</ele>
        <time>2024-04-14T10:17:39Z</time>
      </trkpt>
      <trkpt lat="45.11059" lon="0.58608">
        <ele>211.3</ele>
        <time>2024-04-14T10:17:40Z</time>
      </trkpt>
      <trkpt lat="45.11056" lon="0.58614">
        <ele>211.4</ele>
        <time>2024-04-14T10:17:42Z</time>
      </trkpt>
      <trkpt lat="45.11052" lon="0.5862">
        <ele>211.6</ele>
        <time>2024-04-14T10:17:44Z</time>
      </trkpt>
      <trkpt lat="45.1105" lon="0.58625">
        <ele>211.6</ele>
        <time>2024-04-14T10:17:46Z</time>
      </trkpt>
      <trkpt lat="45.11049" lon="0.58628">
        <ele>211.6</ele>
        <time>2024-04-14T10:17:48Z</time>
      </trkpt>
      <trkpt lat="45.11048" lon="0.5863">
        <ele>211.6</ele>
        <time>2024-04-14T10:17:49Z</time>
      </trkpt>
      <trkpt lat="45.11047" lon="0.58632">
        <ele>211.6</ele>
        <time>2024-04-14T10:17:50Z</time>
      </trkpt>
      <trkpt lat="45.11045" lon="0.58638">
        <ele>211.6</ele>
        <time>2024-04-14T10:17:52Z</time>
      </trkpt>
      <trkpt lat="45.11043" lon="0.58641">
        <ele>211.5</ele>
        <time>2024-04-14T10:17:53Z</time>
      </trkpt>
      <trkpt lat="45.11041" lon="0.58645">
        <ele>211.5</ele>
        <time>2024-04-14T10:17:54Z</time>
      </trkpt>
      <trkpt lat="45.11039" lon="0.5865">
        <ele>211.4</ele>
        <time>2024-04-14T10:17:56Z</time>
      </trkpt>
      <trkpt lat="45.11036" lon="0.58657">
        <ele>211.4</ele>
        <time>2024-04-14T10:17:58Z</time>
      </trkpt>
      <trkpt lat="45.11033" lon="0.58664">
        <ele>211.3</ele>
        <time>2024-04-14T10:18:00Z</time>
      </trkpt>
      <trkpt lat="45.1103" lon="0.58671">
        <ele>211.2</ele>
        <time>2024-04-14T10:18:02Z</time>
      </trkpt>
      <trkpt lat="45.11026" lon="0.58676">
        <ele>211.1</ele>
        <time>2024-04-14T10:18:04Z</time>
      </trkpt>
      <trkpt lat="45.11019" lon="0.58682">
        <ele>210.7</ele>
        <time>2024-04-14T10:18:06Z</time>
      </trkpt>
      <trkpt lat="45.11009" lon="0.58688">
        <ele>210</ele>
        <time>2024-04-14T10:18:08Z</time>
      </trkpt>
      <trkpt lat="45.11004" lon="0.58692">
        <ele>209.6</ele>
        <time>2024-04-14T10:18:09Z</time>
      </trkpt>
      <trkpt lat="45.11" lon="0.58697">
        <ele>209.3</ele>
        <time>2024-04-14T10:18:10Z</time>
      </trkpt>
      <trkpt lat="45.10997" lon="0.58703">
        <ele>209.1</ele>
        <time>2024-04-14T10:18:11Z</time>
      </trkpt>
      <trkpt lat="45.10994" lon="0.58708">
        <ele>208.9</ele>
        <time>2024-04-14T10:18:12Z</time>
      </trkpt>
      <trkpt lat="45.10992" lon="0.58715">
        <ele>208.6</ele>
        <time>2024-04-14T10:18:13Z</time>
      </trkpt>
      <trkpt lat="45.1099" lon="0.58722">
        <ele>208.4</ele>
        <time>2024-04-14T10:18:14Z</time>
      </trkpt>
      <trkpt lat="45.10987" lon="0.58731">
        <ele>208.1</ele>
        <time>2024-04-14T10:18:15Z</time>
      </trkpt>
      <trkpt lat="45.10985" lon="0.5874">
        <ele>207.7</ele>
        <time>2024-04-14T10:18:16Z</time>
      </trkpt>
      <trkpt lat="45.10982" lon="0.58751">
        <ele>207.3</ele>
        <time>2024-04-14T10:18:17Z</time>
      </trkpt>
      <trkpt lat="45.10979" lon="0.58761">
        <ele>206.8</ele>
        <time>2024-04-14T10:18:18Z</time>
      </trkpt>
      <trkpt lat="45.10974" lon="0.58782">
        <ele>205.8</ele>
        <time>2024-04-14T10:18:20Z</time>
      </trkpt>
      <trkpt lat="45.10968" lon="0.58804">
        <ele>204.8</ele>
        <time>2024-04-14T10:18:22Z</time>
      </trkpt>
      <trkpt lat="45.10963" lon="0.58826">
        <ele>203.6</ele>
        <time>2024-04-14T10:18:24Z</time>
      </trkpt>
      <trkpt lat="45.10958" lon="0.58848">
        <ele>202.5</ele>
        <time>2024-04-14T10:18:26Z</time>
      </trkpt>
      <trkpt lat="45.10954" lon="0.5886">
        <ele>201.9</ele>
        <time>2024-04-14T10:18:27Z</time>
      </trkpt>
      <trkpt lat="45.10949" lon="0.58871">
        <ele>201.4</ele>
        <time>2024-04-14T10:18:28Z</time>
      </trkpt>
      <trkpt lat="45.1094" lon="0.5889">
        <ele>200.5</ele>
        <time>2024-04-14T10:18:30Z</time>
      </trkpt>
      <trkpt lat="45.10935" lon="0.58899">
        <ele>200</ele>
        <time>2024-04-14T10:18:31Z</time>
      </trkpt>
      <trkpt lat="45.10929" lon="0.58908">
        <ele>199.2</ele>
        <time>2024-04-14T10:18:32Z</time>
      </trkpt>
      <trkpt lat="45.10922" lon="0.58917">
        <ele>198.2</ele>
        <time>2024-04-14T10:18:33Z</time>
      </trkpt>
      <trkpt lat="45.10914" lon="0.58926">
        <ele>197.4</ele>
        <time>2024-04-14T10:18:34Z</time>
      </trkpt>
      <trkpt lat="45.10907" lon="0.58937">
        <ele>196.8</ele>
        <time>2024-04-14T10:18:35Z</time>
      </trkpt>
      <trkpt lat="45.10902" lon="0.58947">
        <ele>196.3</ele>
        <time>2024-04-14T10:18:36Z</time>
      </trkpt>
      <trkpt lat="45.10897" lon="0.58957">
        <ele>196</ele>
        <time>2024-04-14T10:18:37Z</time>
      </trkpt>
      <trkpt lat="45.10892" lon="0.58967">
        <ele>195.7</ele>
        <time>2024-04-14T10:18:38Z</time>
      </trkpt>
      <trkpt lat="45.10883" lon="0.58987">
        <ele>194.9</ele>
        <time>2024-04-14T10:18:40Z</time>
      </trkpt>
      <trkpt lat="45.10877" lon="0.58996">
        <ele>194.4</ele>
        <time>2024-04-14T10:18:41Z</time>
      </trkpt>
      <trkpt lat="45.1087" lon="0.59006">
        <ele>193.8</ele>
        <time>2024-04-14T10:18:42Z</time>
      </trkpt>
      <trkpt lat="45.10864" lon="0.59016">
        <ele>193.3</ele>
        <time>2024-04-14T10:18:43Z</time>
      </trkpt>
      <trkpt lat="45.10858" lon="0.59025">
        <ele>193</ele>
        <time>2024-04-14T10:18:44Z</time>
      </trkpt>
      <trkpt lat="45.10846" lon="0.59041">
        <ele>192.6</ele>
        <time>2024-04-14T10:18:46Z</time>
      </trkpt>
      <trkpt lat="45.1084" lon="0.59047">
        <ele>192.4</ele>
        <time>2024-04-14T10:18:48Z</time>
      </trkpt>
      <trkpt lat="45.10837" lon="0.5905">
        <ele>192.3</ele>
        <time>2024-04-14T10:18:50Z</time>
      </trkpt>
      <trkpt lat="45.10834" lon="0.59054">
        <ele>192.3</ele>
        <time>2024-04-14T10:18:52Z</time>
      </trkpt>
      <trkpt lat="45.10833" lon="0.59056">
        <ele>192.3</ele>
        <time>2024-04-14T10:18:53Z</time>
      </trkpt>
      <trkpt lat="45.10832" lon="0.59057">
        <ele>192.2</ele>
        <time>2024-04-14T10:18:54Z</time>
      </trkpt>
      <trkpt lat="45.10831" lon="0.59059">
        <ele>192.2</ele>
        <time>2024-04-14T10:18:55Z</time>
      </trkpt>
      <trkpt lat="45.10829" lon="0.59061">
        <ele>192.2</ele>
        <time>2024-04-14T10:18:56Z</time>
      </trkpt>
      <trkpt lat="45.10828" lon="0.59063">
        <ele>192.1</ele>
        <time>2024-04-14T10:18:57Z</time>
      </trkpt>
      <trkpt lat="45.10826" lon="0.59064">
        <ele>192.1</ele>
        <time>2024-04-14T10:18:58Z</time>
      </trkpt>
      <trkpt lat="45.10823" lon="0.59068">
        <ele>192</ele>
        <time>2024-04-14T10:19:00Z</time>
      </trkpt>
      <trkpt lat="45.1082" lon="0.59072">
        <ele>191.9</ele>
        <time>2024-04-14T10:19:02Z</time>
      </trkpt>
      <trkpt lat="45.10819" lon="0.59076">
        <ele>191.8</ele>
        <time>2024-04-14T10:19:04Z</time>
      </trkpt>
      <trkpt lat="45.10818" lon="0.5908">
        <ele>191.7</ele>
        <time>2024-04-14T10:19:06Z</time>
      </trkpt>
      <trkpt lat="45.10817" lon="0.59083">
        <ele>191.6</ele>
        <time>2024-04-14T10:19:07Z</time>
      </trkpt>
      <trkpt lat="45.10816" lon="0.59084">
        <ele>191.6</ele>
        <time>2024-04-14T10:19:08Z</time>
      </trkpt>
      <trkpt lat="45.10814" lon="0.59087">
        <ele>191.4</ele>
        <time>2024-04-14T10:19:10Z</time>
      </trkpt>
      <trkpt lat="45.10812" lon="0.59089">
        <ele>191.4</ele>
        <time>2024-04-14T10:19:11Z</time>
      </trkpt>
      <trkpt lat="45.1081" lon="0.59091">
        <ele>191.3</ele>
        <time>2024-04-14T10:19:12Z</time>
      </trkpt>
      <trkpt lat="45.10807" lon="0.59094">
        <ele>191.1</ele>
        <time>2024-04-14T10:19:14Z</time>
      </trkpt>
      <trkpt lat="45.10806" lon="0.59096">
        <ele>191.1</ele>
        <time>2024-04-14T10:19:15Z</time>
      </trkpt>
      <trkpt lat="45.10805" lon="0.59099">
        <ele>191</ele>
        <time>2024-04-14T10:19:16Z</time>
      </trkpt>
      <trkpt lat="45.10804" lon="0.59105">
        <ele>190.8</ele>
        <time>2024-04-14T10:19:18Z</time>
      </trkpt>
      <trkpt lat="45.10802" lon="0.5911">
        <ele>190.7</ele>
        <time>2024-04-14T10:19:20Z</time>
      </trkpt>
      <trkpt lat="45.108" lon="0.59114">
        <ele>190.5</ele>
        <time>2024-04-14T10:19:22Z</time>
      </trkpt>
      <trkpt lat="45.10799" lon="0.59115">
        <ele>190.5</ele>
        <time>2024-04-14T10:19:24Z</time>
      </trkpt>
      <trkpt lat="45.10799" lon="0.59115">
        <ele>190.5</ele>
        <time>2024-04-14T10:19:25Z</time>
      </trkpt>
      <trkpt lat="45.10799" lon="0.59115">
        <ele>190.5</ele>
        <time>2024-04-14T10:19:26Z</time>
      </trkpt>
      <trkpt lat="45.10798" lon="0.59119">
        <ele>190.3</ele>
        <time>2024-04-14T10:19:28Z</time>
      </trkpt>
      <trkpt lat="45.10796" lon="0.59124">
        <ele>190.1</ele>
        <time>2024-04-14T10:19:29Z</time>
      </trkpt>
      <trkpt lat="45.10794" lon="0.59128">
        <ele>189.9</ele>
        <time>2024-04-14T10:19:30Z</time>
      </trkpt>
      <trkpt lat="45.10791" lon="0.59135">
        <ele>189.5</ele>
        <time>2024-04-14T10:19:32Z</time>
      </trkpt>
      <trkpt lat="45.10791" lon="0.59139">
        <ele>189.2</ele>
        <time>2024-04-14T10:19:33Z</time>
      </trkpt>
      <trkpt lat="45.1079" lon="0.59142">
        <ele>189</ele>
        <time>2024-04-14T10:19:34Z</time>
      </trkpt>
      <trkpt lat="45.10789" lon="0.59145">
        <ele>188.8</ele>
        <time>2024-04-14T10:19:35Z</time>
      </trkpt>
      <trkpt lat="45.10788" lon="0.59148">
        <ele>188.7</ele>
        <time>2024-04-14T10:19:36Z</time>
      </trkpt>
      <trkpt lat="45.10786" lon="0.59155">
        <ele>188.2</ele>
        <time>2024-04-14T10:19:38Z</time>
      </trkpt>
      <trkpt lat="45.10784" lon="0.5916">
        <ele>187.8</ele>
        <time>2024-04-14T10:19:40Z</time>
      </trkpt>
      <trkpt lat="45.10782" lon="0.59164">
        <ele>187.5</ele>
        <time>2024-04-14T10:19:41Z</time>
      </trkpt>
      <trkpt lat="45.1078" lon="0.59167">
        <ele>187.3</ele>
        <time>2024-04-14T10:19:42Z</time>
      </trkpt>
      <trkpt lat="45.10778" lon="0.59174">
        <ele>186.8</ele>
        <time>2024-04-14T10:19:44Z</time>
      </trkpt>
      <trkpt lat="45.10776" lon="0.59179">
        <ele>186.4</ele>
        <time>2024-04-14T10:19:46Z</time>
      </trkpt>
      <trkpt lat="45.10771" lon="0.59185">
        <ele>185.9</ele>
        <time>2024-04-14T10:19:48Z</time>
      </trkpt>
      <trkpt lat="45.10768" lon="0.59191">
        <ele>185.5</ele>
        <time>2024-04-14T10:19:50Z</time>
      </trkpt>
      <trkpt lat="45.10766" lon="0.59194">
        <ele>185.3</ele>
        <time>2024-04-14T10:19:51Z</time>
      </trkpt>
      <trkpt lat="45.10764" lon="0.59197">
        <ele>185.1</ele>
        <time>2024-04-14T10:19:52Z</time>
      </trkpt>
      <trkpt lat="45.10763" lon="0.59201">
        <ele>184.9</ele>
        <time>2024-04-14T10:19:54Z</time>
      </trkpt>
      <trkpt lat="45.10759" lon="0.59211">
        <ele>184.5</ele>
        <time>2024-04-14T10:19:58Z</time>
      </trkpt>
      <trkpt lat="45.10759" lon="0.59214">
        <ele>184.4</ele>
        <time>2024-04-14T10:20:00Z</time>
      </trkpt>
      <trkpt lat="45.10757" lon="0.59222">
        <ele>184.2</ele>
        <time>2024-04-14T10:20:02Z</time>
      </trkpt>
      <trkpt lat="45.10756" lon="0.59229">
        <ele>184</ele>
        <time>2024-04-14T10:20:04Z</time>
      </trkpt>
      <trkpt lat="45.10755" lon="0.59236">
        <ele>183.8</ele>
        <time>2024-04-14T10:20:06Z</time>
      </trkpt>
      <trkpt lat="45.10753" lon="0.59242">
        <ele>183.7</ele>
        <time>2024-04-14T10:20:08Z</time>
      </trkpt>
      <trkpt lat="45.10752" lon="0.59245">
        <ele>183.6</ele>
        <time>2024-04-14T10:20:09Z</time>
      </trkpt>
      <trkpt lat="45.10751" lon="0.59247">
        <ele>183.6</ele>
        <time>2024-04-14T10:20:10Z</time>
      </trkpt>
      <trkpt lat="45.10749" lon="0.59252">
        <ele>183.5</ele>
        <time>2024-04-14T10:20:12Z</time>
      </trkpt>
      <trkpt lat="45.10748" lon="0.59255">
        <ele>183.4</ele>
        <time>2024-04-14T10:20:13Z</time>
      </trkpt>
      <trkpt lat="45.10747" lon="0.59257">
        <ele>183.4</ele>
        <time>2024-04-14T10:20:14Z</time>
      </trkpt>
      <trkpt lat="45.10745" lon="0.59262">
        <ele>183.3</ele>
        <time>2024-04-14T10:20:16Z</time>
      </trkpt>
      <trkpt lat="45.10744" lon="0.59267">
        <ele>183.2</ele>
        <time>2024-04-14T10:20:18Z</time>
      </trkpt>
      <trkpt lat="45.10741" lon="0.59275">
        <ele>183.1</ele>
        <time>2024-04-14T10:20:20Z</time>
      </trkpt>
      <trkpt lat="45.10738" lon="0.59284">
        <ele>183.1</ele>
        <time>2024-04-14T10:20:22Z</time>
      </trkpt>
      <trkpt lat="45.10736" lon="0.59288">
        <ele>183.1</ele>
        <time>2024-04-14T10:20:23Z</time>
      </trkpt>
      <trkpt lat="45.10735" lon="0.59291">
        <ele>183.1</ele>
        <time>2024-04-14T10:20:24Z</time>
      </trkpt>
      <trkpt lat="45.10734" lon="0.59294">
        <ele>183.1</ele>
        <time>2024-04-14T10:20:25Z</time>
      </trkpt>
      <trkpt lat="45.10733" lon="0.59296">
        <ele>183.1</ele>
        <time>2024-04-14T10:20:26Z</time>
      </trkpt>
      <trkpt lat="45.10732" lon="0.59298">
        <ele>183</ele>
        <time>2024-04-14T10:20:27Z</time>
      </trkpt>
      <trkpt lat="45.10731" lon="0.59301">
        <ele>183</ele>
        <time>2024-04-14T10:20:28Z</time>
      </trkpt>
      <trkpt lat="45.10731" lon="0.59302">
        <ele>183</ele>
        <time>2024-04-14T10:20:30Z</time>
      </trkpt>
      <trkpt lat="45.10731" lon="0.59305">
        <ele>183</ele>
        <time>2024-04-14T10:20:31Z</time>
      </trkpt>
      <trkpt lat="45.10731" lon="0.59309">
        <ele>183</ele>
        <time>2024-04-14T10:20:32Z</time>
      </trkpt>
      <trkpt lat="45.10731" lon="0.59316">
        <ele>183</ele>
        <time>2024-04-14T10:20:33Z</time>
      </trkpt>
      <trkpt lat="45.10731" lon="0.59324">
        <ele>183.1</ele>
        <time>2024-04-14T10:20:34Z</time>
      </trkpt>
      <trkpt lat="45.1073" lon="0.59331">
        <ele>183.1</ele>
        <time>2024-04-14T10:20:35Z</time>
      </trkpt>
      <trkpt lat="45.10729" lon="0.59338">
        <ele>183.1</ele>
        <time>2024-04-14T10:20:36Z</time>
      </trkpt>
      <trkpt lat="45.10726" lon="0.59357">
        <ele>183</ele>
        <time>2024-04-14T10:20:38Z</time>
      </trkpt>
      <trkpt lat="45.10724" lon="0.59371">
        <ele>183</ele>
        <time>2024-04-14T10:20:39Z</time>
      </trkpt>
      <trkpt lat="45.10724" lon="0.59384">
        <ele>182.9</ele>
        <time>2024-04-14T10:20:40Z</time>
      </trkpt>
      <trkpt lat="45.10725" lon="0.59408">
        <ele>182.9</ele>
        <time>2024-04-14T10:20:42Z</time>
      </trkpt>
      <trkpt lat="45.10726" lon="0.59418">
        <ele>183</ele>
        <time>2024-04-14T10:20:43Z</time>
      </trkpt>
      <trkpt lat="45.10726" lon="0.59428">
        <ele>183.1</ele>
        <time>2024-04-14T10:20:44Z</time>
      </trkpt>
      <trkpt lat="45.10726" lon="0.59449">
        <ele>183</ele>
        <time>2024-04-14T10:20:46Z</time>
      </trkpt>
      <trkpt lat="45.10725" lon="0.59468">
        <ele>182.4</ele>
        <time>2024-04-14T10:20:48Z</time>
      </trkpt>
      <trkpt lat="45.10722" lon="0.59484">
        <ele>181.2</ele>
        <time>2024-04-14T10:20:50Z</time>
      </trkpt>
      <trkpt lat="45.10721" lon="0.59494">
        <ele>180</ele>
        <time>2024-04-14T10:20:51Z</time>
      </trkpt>
      <trkpt lat="45.10719" lon="0.59502">
        <ele>179.6</ele>
        <time>2024-04-14T10:20:52Z</time>
      </trkpt>
      <trkpt lat="45.10718" lon="0.5951">
        <ele>178.6</ele>
        <time>2024-04-14T10:20:53Z</time>
      </trkpt>
      <trkpt lat="45.10718" lon="0.59519">
        <ele>178.2</ele>
        <time>2024-04-14T10:20:54Z</time>
      </trkpt>
      <trkpt lat="45.10717" lon="0.59527">
        <ele>177.9</ele>
        <time>2024-04-14T10:20:55Z</time>
      </trkpt>
      <trkpt lat="45.10715" lon="0.59535">
        <ele>177.6</ele>
        <time>2024-04-14T10:20:56Z</time>
      </trkpt>
      <trkpt lat="45.10714" lon="0.59542">
        <ele>176.6</ele>
        <time>2024-04-14T10:20:57Z</time>
      </trkpt>
      <trkpt lat="45.10712" lon="0.59551">
        <ele>175.6</ele>
        <time>2024-04-14T10:20:58Z</time>
      </trkpt>
      <trkpt lat="45.10707" lon="0.59569">
        <ele>174.6</ele>
        <time>2024-04-14T10:21:00Z</time>
      </trkpt>
      <trkpt lat="45.10701" lon="0.5959">
        <ele>173.5</ele>
        <time>2024-04-14T10:21:02Z</time>
      </trkpt>
      <trkpt lat="45.10698" lon="0.59601">
        <ele>173</ele>
        <time>2024-04-14T10:21:03Z</time>
      </trkpt>
      <trkpt lat="45.10696" lon="0.59609">
        <ele>172.3</ele>
        <time>2024-04-14T10:21:04Z</time>
      </trkpt>
      <trkpt lat="45.10694" lon="0.59628">
        <ele>171</ele>
        <time>2024-04-14T10:21:06Z</time>
      </trkpt>
      <trkpt lat="45.10691" lon="0.59649">
        <ele>169.8</ele>
        <time>2024-04-14T10:21:08Z</time>
      </trkpt>
      <trkpt lat="45.1069" lon="0.5966">
        <ele>169.1</ele>
        <time>2024-04-14T10:21:09Z</time>
      </trkpt>
      <trkpt lat="45.10688" lon="0.59671">
        <ele>168.3</ele>
        <time>2024-04-14T10:21:10Z</time>
      </trkpt>
      <trkpt lat="45.10684" lon="0.59688">
        <ele>166.9</ele>
        <time>2024-04-14T10:21:12Z</time>
      </trkpt>
      <trkpt lat="45.10682" lon="0.59696">
        <ele>166.3</ele>
        <time>2024-04-14T10:21:13Z</time>
      </trkpt>
      <trkpt lat="45.1068" lon="0.59704">
        <ele>165.4</ele>
        <time>2024-04-14T10:21:14Z</time>
      </trkpt>
      <trkpt lat="45.10675" lon="0.59719">
        <ele>163.9</ele>
        <time>2024-04-14T10:21:16Z</time>
      </trkpt>
      <trkpt lat="45.10671" lon="0.59732">
        <ele>162.5</ele>
        <time>2024-04-14T10:21:18Z</time>
      </trkpt>
      <trkpt lat="45.10668" lon="0.59745">
        <ele>161.2</ele>
        <time>2024-04-14T10:21:20Z</time>
      </trkpt>
      <trkpt lat="45.10662" lon="0.59761">
        <ele>159.6</ele>
        <time>2024-04-14T10:21:22Z</time>
      </trkpt>
      <trkpt lat="45.1066" lon="0.59769">
        <ele>158.9</ele>
        <time>2024-04-14T10:21:23Z</time>
      </trkpt>
      <trkpt lat="45.10658" lon="0.59775">
        <ele>158.4</ele>
        <time>2024-04-14T10:21:24Z</time>
      </trkpt>
      <trkpt lat="45.10654" lon="0.59789">
        <ele>157.7</ele>
        <time>2024-04-14T10:21:26Z</time>
      </trkpt>
      <trkpt lat="45.10651" lon="0.59794">
        <ele>157.4</ele>
        <time>2024-04-14T10:21:27Z</time>
      </trkpt>
      <trkpt lat="45.10649" lon="0.59799">
        <ele>157.1</ele>
        <time>2024-04-14T10:21:28Z</time>
      </trkpt>
      <trkpt lat="45.10648" lon="0.59813">
        <ele>156.6</ele>
        <time>2024-04-14T10:21:30Z</time>
      </trkpt>
      <trkpt lat="45.10648" lon="0.59819">
        <ele>156.3</ele>
        <time>2024-04-14T10:21:31Z</time>
      </trkpt>
      <trkpt lat="45.10648" lon="0.59826">
        <ele>155.9</ele>
        <time>2024-04-14T10:21:32Z</time>
      </trkpt>
      <trkpt lat="45.10647" lon="0.59841">
        <ele>155.4</ele>
        <time>2024-04-14T10:21:34Z</time>
      </trkpt>
      <trkpt lat="45.10644" lon="0.59863">
        <ele>154.7</ele>
        <time>2024-04-14T10:21:36Z</time>
      </trkpt>
      <trkpt lat="45.10643" lon="0.59872">
        <ele>154.2</ele>
        <time>2024-04-14T10:21:37Z</time>
      </trkpt>
      <trkpt lat="45.10644" lon="0.59882">
        <ele>153.9</ele>
        <time>2024-04-14T10:21:38Z</time>
      </trkpt>
      <trkpt lat="45.10645" lon="0.59903">
        <ele>153.4</ele>
        <time>2024-04-14T10:21:40Z</time>
      </trkpt>
      <trkpt lat="45.10644" lon="0.59924">
        <ele>153.1</ele>
        <time>2024-04-14T10:21:42Z</time>
      </trkpt>
      <trkpt lat="45.10644" lon="0.59945">
        <ele>152.9</ele>
        <time>2024-04-14T10:21:44Z</time>
      </trkpt>
      <trkpt lat="45.10644" lon="0.59958">
        <ele>152.9</ele>
        <time>2024-04-14T10:21:45Z</time>
      </trkpt>
      <trkpt lat="45.10644" lon="0.59969">
        <ele>152.8</ele>
        <time>2024-04-14T10:21:46Z</time>
      </trkpt>
      <trkpt lat="45.10644" lon="0.59992">
        <ele>152.3</ele>
        <time>2024-04-14T10:21:48Z</time>
      </trkpt>
      <trkpt lat="45.10645" lon="0.60013">
        <ele>151.3</ele>
        <time>2024-04-14T10:21:50Z</time>
      </trkpt>
      <trkpt lat="45.10643" lon="0.60021">
        <ele>151.1</ele>
        <time>2024-04-14T10:21:51Z</time>
      </trkpt>
      <trkpt lat="45.10642" lon="0.60027">
        <ele>151</ele>
        <time>2024-04-14T10:21:52Z</time>
      </trkpt>
      <trkpt lat="45.10642" lon="0.60041">
        <ele>150.5</ele>
        <time>2024-04-14T10:21:54Z</time>
      </trkpt>
      <trkpt lat="45.10644" lon="0.60061">
        <ele>149.4</ele>
        <time>2024-04-14T10:21:56Z</time>
      </trkpt>
      <trkpt lat="45.10646" lon="0.60088">
        <ele>148</ele>
        <time>2024-04-14T10:21:58Z</time>
      </trkpt>
      <trkpt lat="45.10647" lon="0.60119">
        <ele>146.2</ele>
        <time>2024-04-14T10:22:00Z</time>
      </trkpt>
      <trkpt lat="45.10647" lon="0.60132">
        <ele>145.6</ele>
        <time>2024-04-14T10:22:01Z</time>
      </trkpt>
      <trkpt lat="45.10647" lon="0.60145">
        <ele>145.3</ele>
        <time>2024-04-14T10:22:02Z</time>
      </trkpt>
      <trkpt lat="45.10647" lon="0.60168">
        <ele>144.6</ele>
        <time>2024-04-14T10:22:04Z</time>
      </trkpt>
      <trkpt lat="45.10646" lon="0.6019">
        <ele>144.1</ele>
        <time>2024-04-14T10:22:06Z</time>
      </trkpt>
      <trkpt lat="45.10645" lon="0.60211">
        <ele>143.4</ele>
        <time>2024-04-14T10:22:08Z</time>
      </trkpt>
      <trkpt lat="45.10646" lon="0.60221">
        <ele>143</ele>
        <time>2024-04-14T10:22:09Z</time>
      </trkpt>
      <trkpt lat="45.10647" lon="0.60231">
        <ele>142.5</ele>
        <time>2024-04-14T10:22:10Z</time>
      </trkpt>
      <trkpt lat="45.10648" lon="0.60241">
        <ele>141.9</ele>
        <time>2024-04-14T10:22:11Z</time>
      </trkpt>
      <trkpt lat="45.1065" lon="0.60251">
        <ele>141.4</ele>
        <time>2024-04-14T10:22:12Z</time>
      </trkpt>
      <trkpt lat="45.10654" lon="0.60271">
        <ele>140.4</ele>
        <time>2024-04-14T10:22:14Z</time>
      </trkpt>
      <trkpt lat="45.10657" lon="0.60288">
        <ele>139.6</ele>
        <time>2024-04-14T10:22:16Z</time>
      </trkpt>
      <trkpt lat="45.10658" lon="0.60295">
        <ele>139.4</ele>
        <time>2024-04-14T10:22:17Z</time>
      </trkpt>
      <trkpt lat="45.10659" lon="0.60303">
        <ele>139.3</ele>
        <time>2024-04-14T10:22:18Z</time>
      </trkpt>
      <trkpt lat="45.10657" lon="0.6031">
        <ele>139</ele>
        <time>2024-04-14T10:22:19Z</time>
      </trkpt>
      <trkpt lat="45.10654" lon="0.60316">
        <ele>138.8</ele>
        <time>2024-04-14T10:22:20Z</time>
      </trkpt>
      <trkpt lat="45.10651" lon="0.60322">
        <ele>138.5</ele>
        <time>2024-04-14T10:22:21Z</time>
      </trkpt>
      <trkpt lat="45.10647" lon="0.60327">
        <ele>138.3</ele>
        <time>2024-04-14T10:22:22Z</time>
      </trkpt>
      <trkpt lat="45.10642" lon="0.60332">
        <ele>138.1</ele>
        <time>2024-04-14T10:22:23Z</time>
      </trkpt>
      <trkpt lat="45.10638" lon="0.60336">
        <ele>137.9</ele>
        <time>2024-04-14T10:22:24Z</time>
      </trkpt>
      <trkpt lat="45.10633" lon="0.60341">
        <ele>137.8</ele>
        <time>2024-04-14T10:22:25Z</time>
      </trkpt>
      <trkpt lat="45.10629" lon="0.60344">
        <ele>137.6</ele>
        <time>2024-04-14T10:22:26Z</time>
      </trkpt>
      <trkpt lat="45.10625" lon="0.60348">
        <ele>137.4</ele>
        <time>2024-04-14T10:22:27Z</time>
      </trkpt>
      <trkpt lat="45.1062" lon="0.60352">
        <ele>137.3</ele>
        <time>2024-04-14T10:22:28Z</time>
      </trkpt>
      <trkpt lat="45.10616" lon="0.60356">
        <ele>137.1</ele>
        <time>2024-04-14T10:22:29Z</time>
      </trkpt>
      <trkpt lat="45.10611" lon="0.60359">
        <ele>137</ele>
        <time>2024-04-14T10:22:30Z</time>
      </trkpt>
      <trkpt lat="45.10607" lon="0.60362">
        <ele>136.8</ele>
        <time>2024-04-14T10:22:31Z</time>
      </trkpt>
      <trkpt lat="45.10602" lon="0.60365">
        <ele>136.6</ele>
        <time>2024-04-14T10:22:32Z</time>
      </trkpt>
      <trkpt lat="45.10592" lon="0.60372">
        <ele>136.1</ele>
        <time>2024-04-14T10:22:34Z</time>
      </trkpt>
      <trkpt lat="45.10582" lon="0.60378">
        <ele>135.7</ele>
        <time>2024-04-14T10:22:36Z</time>
      </trkpt>
      <trkpt lat="45.10577" lon="0.60381">
        <ele>135.4</ele>
        <time>2024-04-14T10:22:37Z</time>
      </trkpt>
      <trkpt lat="45.10571" lon="0.60384">
        <ele>135.2</ele>
        <time>2024-04-14T10:22:38Z</time>
      </trkpt>
      <trkpt lat="45.1056" lon="0.60391">
        <ele>134.6</ele>
        <time>2024-04-14T10:22:40Z</time>
      </trkpt>
      <trkpt lat="45.10549" lon="0.60397">
        <ele>133.9</ele>
        <time>2024-04-14T10:22:42Z</time>
      </trkpt>
      <trkpt lat="45.10537" lon="0.60403">
        <ele>133.1</ele>
        <time>2024-04-14T10:22:44Z</time>
      </trkpt>
      <trkpt lat="45.10525" lon="0.60414">
        <ele>132.3</ele>
        <time>2024-04-14T10:22:46Z</time>
      </trkpt>
      <trkpt lat="45.10515" lon="0.6043">
        <ele>131.5</ele>
        <time>2024-04-14T10:22:48Z</time>
      </trkpt>
      <trkpt lat="45.1051" lon="0.60438">
        <ele>131.2</ele>
        <time>2024-04-14T10:22:49Z</time>
      </trkpt>
      <trkpt lat="45.10504" lon="0.60444">
        <ele>130.8</ele>
        <time>2024-04-14T10:22:50Z</time>
      </trkpt>
      <trkpt lat="45.10497" lon="0.60449">
        <ele>130.5</ele>
        <time>2024-04-14T10:22:51Z</time>
      </trkpt>
      <trkpt lat="45.10491" lon="0.60453">
        <ele>130.1</ele>
        <time>2024-04-14T10:22:52Z</time>
      </trkpt>
      <trkpt lat="45.10477" lon="0.60462">
        <ele>129.6</ele>
        <time>2024-04-14T10:22:54Z</time>
      </trkpt>
      <trkpt lat="45.10464" lon="0.6047">
        <ele>129.1</ele>
        <time>2024-04-14T10:22:56Z</time>
      </trkpt>
      <trkpt lat="45.10457" lon="0.60474">
        <ele>128.8</ele>
        <time>2024-04-14T10:22:57Z</time>
      </trkpt>
      <trkpt lat="45.10451" lon="0.60479">
        <ele>128.6</ele>
        <time>2024-04-14T10:22:58Z</time>
      </trkpt>
      <trkpt lat="45.10439" lon="0.60489">
        <ele>128.2</ele>
        <time>2024-04-14T10:23:00Z</time>
      </trkpt>
      <trkpt lat="45.10428" lon="0.605">
        <ele>128.1</ele>
        <time>2024-04-14T10:23:02Z</time>
      </trkpt>
      <trkpt lat="45.10423" lon="0.60505">
        <ele>128</ele>
        <time>2024-04-14T10:23:03Z</time>
      </trkpt>
      <trkpt lat="45.10418" lon="0.6051">
        <ele>128</ele>
        <time>2024-04-14T10:23:04Z</time>
      </trkpt>
      <trkpt lat="45.10413" lon="0.60513">
        <ele>128</ele>
        <time>2024-04-14T10:23:05Z</time>
      </trkpt>
      <trkpt lat="45.10409" lon="0.60516">
        <ele>128</ele>
        <time>2024-04-14T10:23:06Z</time>
      </trkpt>
      <trkpt lat="45.10406" lon="0.60518">
        <ele>128</ele>
        <time>2024-04-14T10:23:07Z</time>
      </trkpt>
      <trkpt lat="45.10402" lon="0.60518">
        <ele>128</ele>
        <time>2024-04-14T10:23:08Z</time>
      </trkpt>
      <trkpt lat="45.10395" lon="0.60519">
        <ele>128</ele>
        <time>2024-04-14T10:23:10Z</time>
      </trkpt>
      <trkpt lat="45.10388" lon="0.60521">
        <ele>128</ele>
        <time>2024-04-14T10:23:12Z</time>
      </trkpt>
      <trkpt lat="45.10379" lon="0.60525">
        <ele>127.4</ele>
        <time>2024-04-14T10:23:14Z</time>
      </trkpt>
      <trkpt lat="45.10376" lon="0.60528">
        <ele>127.2</ele>
        <time>2024-04-14T10:23:15Z</time>
      </trkpt>
      <trkpt lat="45.10373" lon="0.6053">
        <ele>127.1</ele>
        <time>2024-04-14T10:23:16Z</time>
      </trkpt>
      <trkpt lat="45.10367" lon="0.60534">
        <ele>126.7</ele>
        <time>2024-04-14T10:23:18Z</time>
      </trkpt>
      <trkpt lat="45.10361" lon="0.60539">
        <ele>126.4</ele>
        <time>2024-04-14T10:23:20Z</time>
      </trkpt>
      <trkpt lat="45.10358" lon="0.60542">
        <ele>126.3</ele>
        <time>2024-04-14T10:23:21Z</time>
      </trkpt>
      <trkpt lat="45.10354" lon="0.60545">
        <ele>126.2</ele>
        <time>2024-04-14T10:23:22Z</time>
      </trkpt>
      <trkpt lat="45.10349" lon="0.60552">
        <ele>126</ele>
        <time>2024-04-14T10:23:24Z</time>
      </trkpt>
      <trkpt lat="45.10344" lon="0.60559">
        <ele>125.8</ele>
        <time>2024-04-14T10:23:26Z</time>
      </trkpt>
      <trkpt lat="45.10339" lon="0.60566">
        <ele>125.7</ele>
        <time>2024-04-14T10:23:28Z</time>
      </trkpt>
      <trkpt lat="45.10335" lon="0.60572">
        <ele>125.7</ele>
        <time>2024-04-14T10:23:30Z</time>
      </trkpt>
      <trkpt lat="45.10333" lon="0.60581">
        <ele>125.6</ele>
        <time>2024-04-14T10:23:32Z</time>
      </trkpt>
      <trkpt lat="45.1033" lon="0.60593">
        <ele>125.5</ele>
        <time>2024-04-14T10:23:34Z</time>
      </trkpt>
      <trkpt lat="45.10328" lon="0.60601">
        <ele>125.5</ele>
        <time>2024-04-14T10:23:36Z</time>
      </trkpt>
      <trkpt lat="45.10328" lon="0.60611">
        <ele>125.5</ele>
        <time>2024-04-14T10:23:38Z</time>
      </trkpt>
      <trkpt lat="45.10327" lon="0.60622">
        <ele>125.6</ele>
        <time>2024-04-14T10:23:40Z</time>
      </trkpt>
      <trkpt lat="45.10326" lon="0.60632">
        <ele>125.7</ele>
        <time>2024-04-14T10:23:42Z</time>
      </trkpt>
      <trkpt lat="45.10326" lon="0.60637">
        <ele>125.8</ele>
        <time>2024-04-14T10:23:43Z</time>
      </trkpt>
      <trkpt lat="45.10327" lon="0.60641">
        <ele>125.9</ele>
        <time>2024-04-14T10:23:44Z</time>
      </trkpt>
      <trkpt lat="45.1033" lon="0.60649">
        <ele>126.1</ele>
        <time>2024-04-14T10:23:46Z</time>
      </trkpt>
      <trkpt lat="45.10334" lon="0.60655">
        <ele>126.2</ele>
        <time>2024-04-14T10:23:48Z</time>
      </trkpt>
      <trkpt lat="45.10339" lon="0.60659">
        <ele>126.3</ele>
        <time>2024-04-14T10:23:50Z</time>
      </trkpt>
      <trkpt lat="45.10344" lon="0.60662">
        <ele>126.5</ele>
        <time>2024-04-14T10:23:52Z</time>
      </trkpt>
      <trkpt lat="45.10348" lon="0.60667">
        <ele>126.6</ele>
        <time>2024-04-14T10:23:54Z</time>
      </trkpt>
      <trkpt lat="45.10351" lon="0.60669">
        <ele>126.7</ele>
        <time>2024-04-14T10:23:55Z</time>
      </trkpt>
      <trkpt lat="45.10353" lon="0.60671">
        <ele>126.8</ele>
        <time>2024-04-14T10:23:56Z</time>
      </trkpt>
      <trkpt lat="45.10358" lon="0.60676">
        <ele>127.1</ele>
        <time>2024-04-14T10:23:58Z</time>
      </trkpt>
      <trkpt lat="45.10362" lon="0.60682">
        <ele>127.4</ele>
        <time>2024-04-14T10:24:00Z</time>
      </trkpt>
      <trkpt lat="45.10364" lon="0.60691">
        <ele>127.7</ele>
        <time>2024-04-14T10:24:02Z</time>
      </trkpt>
      <trkpt lat="45.10366" lon="0.60697">
        <ele>128</ele>
        <time>2024-04-14T10:24:04Z</time>
      </trkpt>
      <trkpt lat="45.10366" lon="0.60701">
        <ele>128.1</ele>
        <time>2024-04-14T10:24:05Z</time>
      </trkpt>
      <trkpt lat="45.10365" lon="0.60705">
        <ele>128.3</ele>
        <time>2024-04-14T10:24:06Z</time>
      </trkpt>
      <trkpt lat="45.10363" lon="0.60711">
        <ele>128.6</ele>
        <time>2024-04-14T10:24:08Z</time>
      </trkpt>
      <trkpt lat="45.10362" lon="0.60715">
        <ele>128.8</ele>
        <time>2024-04-14T10:24:09Z</time>
      </trkpt>
      <trkpt lat="45.10361" lon="0.60718">
        <ele>128.9</ele>
        <time>2024-04-14T10:24:10Z</time>
      </trkpt>
      <trkpt lat="45.10359" lon="0.60723">
        <ele>129.2</ele>
        <time>2024-04-14T10:24:12Z</time>
      </trkpt>
      <trkpt lat="45.10357" lon="0.60728">
        <ele>129.4</ele>
        <time>2024-04-14T10:24:14Z</time>
      </trkpt>
      <trkpt lat="45.10355" lon="0.60735">
        <ele>129.8</ele>
        <time>2024-04-14T10:24:16Z</time>
      </trkpt>
      <trkpt lat="45.10352" lon="0.60741">
        <ele>130.1</ele>
        <time>2024-04-14T10:24:18Z</time>
      </trkpt>
      <trkpt lat="45.1035" lon="0.60748">
        <ele>130.5</ele>
        <time>2024-04-14T10:24:20Z</time>
      </trkpt>
      <trkpt lat="45.10348" lon="0.60755">
        <ele>130.8</ele>
        <time>2024-04-14T10:24:22Z</time>
      </trkpt>
      <trkpt lat="45.10346" lon="0.60762">
        <ele>131.2</ele>
        <time>2024-04-14T10:24:24Z</time>
      </trkpt>
      <trkpt lat="45.10345" lon="0.60765">
        <ele>131.4</ele>
        <time>2024-04-14T10:24:25Z</time>
      </trkpt>
      <trkpt lat="45.10344" lon="0.60767">
        <ele>131.5</ele>
        <time>2024-04-14T10:24:26Z</time>
      </trkpt>
      <trkpt lat="45.10344" lon="0.6077">
        <ele>131.7</ele>
        <time>2024-04-14T10:24:28Z</time>
      </trkpt>
      <trkpt lat="45.10344" lon="0.6077">
        <ele>131.7</ele>
        <time>2024-04-14T10:24:29Z</time>
      </trkpt>
      <trkpt lat="45.10318" lon="0.60806">
        <ele>134.6</ele>
        <time>2024-04-14T10:26:54Z</time>
      </trkpt>
      <trkpt lat="45.10316" lon="0.60808">
        <ele>134.8</ele>
        <time>2024-04-14T10:26:56Z</time>
      </trkpt>
      <trkpt lat="45.10313" lon="0.60811">
        <ele>135.1</ele>
        <time>2024-04-14T10:26:58Z</time>
      </trkpt>
      <trkpt lat="45.1031" lon="0.60814">
        <ele>135.3</ele>
        <time>2024-04-14T10:27:00Z</time>
      </trkpt>
      <trkpt lat="45.10307" lon="0.60816">
        <ele>135.6</ele>
        <time>2024-04-14T10:27:02Z</time>
      </trkpt>
      <trkpt lat="45.10304" lon="0.60818">
        <ele>135.8</ele>
        <time>2024-04-14T10:27:04Z</time>
      </trkpt>
      <trkpt lat="45.10301" lon="0.6082">
        <ele>136.1</ele>
        <time>2024-04-14T10:27:06Z</time>
      </trkpt>
      <trkpt lat="45.10299" lon="0.60821">
        <ele>136.2</ele>
        <time>2024-04-14T10:27:07Z</time>
      </trkpt>
      <trkpt lat="45.10298" lon="0.60822">
        <ele>136.3</ele>
        <time>2024-04-14T10:27:08Z</time>
      </trkpt>
      <trkpt lat="45.10296" lon="0.60823">
        <ele>136.4</ele>
        <time>2024-04-14T10:27:09Z</time>
      </trkpt>
      <trkpt lat="45.10295" lon="0.60825">
        <ele>136.6</ele>
        <time>2024-04-14T10:27:10Z</time>
      </trkpt>
      <trkpt lat="45.10292" lon="0.60827">
        <ele>136.8</ele>
        <time>2024-04-14T10:27:12Z</time>
      </trkpt>
      <trkpt lat="45.10288" lon="0.60829">
        <ele>137</ele>
        <time>2024-04-14T10:27:14Z</time>
      </trkpt>
      <trkpt lat="45.10285" lon="0.60832">
        <ele>137.3</ele>
        <time>2024-04-14T10:27:16Z</time>
      </trkpt>
      <trkpt lat="45.10282" lon="0.60835">
        <ele>137.6</ele>
        <time>2024-04-14T10:27:18Z</time>
      </trkpt>
      <trkpt lat="45.10278" lon="0.60837">
        <ele>137.9</ele>
        <time>2024-04-14T10:27:20Z</time>
      </trkpt>
      <trkpt lat="45.10275" lon="0.60839">
        <ele>138.2</ele>
        <time>2024-04-14T10:27:22Z</time>
      </trkpt>
      <trkpt lat="45.10271" lon="0.60842">
        <ele>138.5</ele>
        <time>2024-04-14T10:27:24Z</time>
      </trkpt>
      <trkpt lat="45.10268" lon="0.60844">
        <ele>138.7</ele>
        <time>2024-04-14T10:27:26Z</time>
      </trkpt>
      <trkpt lat="45.10265" lon="0.60847">
        <ele>139</ele>
        <time>2024-04-14T10:27:28Z</time>
      </trkpt>
      <trkpt lat="45.10262" lon="0.6085">
        <ele>139.2</ele>
        <time>2024-04-14T10:27:30Z</time>
      </trkpt>
      <trkpt lat="45.10258" lon="0.60853">
        <ele>139.5</ele>
        <time>2024-04-14T10:27:32Z</time>
      </trkpt>
      <trkpt lat="45.10255" lon="0.60856">
        <ele>139.7</ele>
        <time>2024-04-14T10:27:34Z</time>
      </trkpt>
      <trkpt lat="45.10254" lon="0.60857">
        <ele>139.9</ele>
        <time>2024-04-14T10:27:35Z</time>
      </trkpt>
      <trkpt lat="45.10252" lon="0.60858">
        <ele>140</ele>
        <time>2024-04-14T10:27:36Z</time>
      </trkpt>
      <trkpt lat="45.10248" lon="0.60861">
        <ele>140.3</ele>
        <time>2024-04-14T10:27:38Z</time>
      </trkpt>
      <trkpt lat="45.10244" lon="0.60865">
        <ele>140.6</ele>
        <time>2024-04-14T10:27:40Z</time>
      </trkpt>
      <trkpt lat="45.1024" lon="0.60867">
        <ele>140.8</ele>
        <time>2024-04-14T10:27:42Z</time>
      </trkpt>
      <trkpt lat="45.10237" lon="0.60871">
        <ele>141.1</ele>
        <time>2024-04-14T10:27:44Z</time>
      </trkpt>
      <trkpt lat="45.10233" lon="0.60874">
        <ele>141.3</ele>
        <time>2024-04-14T10:27:46Z</time>
      </trkpt>
      <trkpt lat="45.10228" lon="0.60878">
        <ele>141.6</ele>
        <time>2024-04-14T10:27:48Z</time>
      </trkpt>
      <trkpt lat="45.10225" lon="0.60881">
        <ele>141.8</ele>
        <time>2024-04-14T10:27:50Z</time>
      </trkpt>
      <trkpt lat="45.1022" lon="0.60885">
        <ele>142.1</ele>
        <time>2024-04-14T10:27:52Z</time>
      </trkpt>
      <trkpt lat="45.10217" lon="0.60889">
        <ele>142.3</ele>
        <time>2024-04-14T10:27:54Z</time>
      </trkpt>
      <trkpt lat="45.10212" lon="0.60892">
        <ele>142.6</ele>
        <time>2024-04-14T10:27:56Z</time>
      </trkpt>
      <trkpt lat="45.10209" lon="0.60895">
        <ele>142.8</ele>
        <time>2024-04-14T10:27:58Z</time>
      </trkpt>
      <trkpt lat="45.10207" lon="0.60897">
        <ele>142.9</ele>
        <time>2024-04-14T10:27:59Z</time>
      </trkpt>
      <trkpt lat="45.10205" lon="0.60898">
        <ele>143</ele>
        <time>2024-04-14T10:28:00Z</time>
      </trkpt>
      <trkpt lat="45.10201" lon="0.60901">
        <ele>143.2</ele>
        <time>2024-04-14T10:28:02Z</time>
      </trkpt>
      <trkpt lat="45.10198" lon="0.60904">
        <ele>143.4</ele>
        <time>2024-04-14T10:28:04Z</time>
      </trkpt>
      <trkpt lat="45.10194" lon="0.60908">
        <ele>143.7</ele>
        <time>2024-04-14T10:28:06Z</time>
      </trkpt>
      <trkpt lat="45.1019" lon="0.60911">
        <ele>143.9</ele>
        <time>2024-04-14T10:28:08Z</time>
      </trkpt>
      <trkpt lat="45.10185" lon="0.60914">
        <ele>144.2</ele>
        <time>2024-04-14T10:28:10Z</time>
      </trkpt>
      <trkpt lat="45.10182" lon="0.60918">
        <ele>144.4</ele>
        <time>2024-04-14T10:28:12Z</time>
      </trkpt>
      <trkpt lat="45.1018" lon="0.60919">
        <ele>144.6</ele>
        <time>2024-04-14T10:28:13Z</time>
      </trkpt>
      <trkpt lat="45.10178" lon="0.60921">
        <ele>144.7</ele>
        <time>2024-04-14T10:28:14Z</time>
      </trkpt>
      <trkpt lat="45.10174" lon="0.60923">
        <ele>144.9</ele>
        <time>2024-04-14T10:28:16Z</time>
      </trkpt>
      <trkpt lat="45.1017" lon="0.60927">
        <ele>145.2</ele>
        <time>2024-04-14T10:28:18Z</time>
      </trkpt>
      <trkpt lat="45.10169" lon="0.60928">
        <ele>145.3</ele>
        <time>2024-04-14T10:28:19Z</time>
      </trkpt>
      <trkpt lat="45.10167" lon="0.6093">
        <ele>145.5</ele>
        <time>2024-04-14T10:28:20Z</time>
      </trkpt>
      <trkpt lat="45.10163" lon="0.60933">
        <ele>145.7</ele>
        <time>2024-04-14T10:28:22Z</time>
      </trkpt>
      <trkpt lat="45.1016" lon="0.60935">
        <ele>146</ele>
        <time>2024-04-14T10:28:24Z</time>
      </trkpt>
      <trkpt lat="45.10159" lon="0.60937">
        <ele>146.1</ele>
        <time>2024-04-14T10:28:25Z</time>
      </trkpt>
      <trkpt lat="45.10157" lon="0.60938">
        <ele>146.2</ele>
        <time>2024-04-14T10:28:26Z</time>
      </trkpt>
      <trkpt lat="45.10154" lon="0.60942">
        <ele>146.4</ele>
        <time>2024-04-14T10:28:28Z</time>
      </trkpt>
      <trkpt lat="45.10151" lon="0.60946">
        <ele>146.7</ele>
        <time>2024-04-14T10:28:30Z</time>
      </trkpt>
      <trkpt lat="45.10147" lon="0.60949">
        <ele>146.9</ele>
        <time>2024-04-14T10:28:32Z</time>
      </trkpt>
      <trkpt lat="45.10145" lon="0.6095">
        <ele>147.1</ele>
        <time>2024-04-14T10:28:34Z</time>
      </trkpt>
      <trkpt lat="45.10144" lon="0.60951">
        <ele>147.2</ele>
        <time>2024-04-14T10:28:35Z</time>
      </trkpt>
      <trkpt lat="45.10142" lon="0.60952">
        <ele>147.2</ele>
        <time>2024-04-14T10:28:36Z</time>
      </trkpt>
      <trkpt lat="45.1014" lon="0.60954">
        <ele>147.4</ele>
        <time>2024-04-14T10:28:38Z</time>
      </trkpt>
      <trkpt lat="45.10135" lon="0.60957">
        <ele>147.7</ele>
        <time>2024-04-14T10:28:40Z</time>
      </trkpt>
      <trkpt lat="45.10131" lon="0.6096">
        <ele>147.9</ele>
        <time>2024-04-14T10:28:42Z</time>
      </trkpt>
      <trkpt lat="45.10128" lon="0.60963">
        <ele>148.1</ele>
        <time>2024-04-14T10:28:44Z</time>
      </trkpt>
      <trkpt lat="45.10126" lon="0.60965">
        <ele>148.2</ele>
        <time>2024-04-14T10:28:45Z</time>
      </trkpt>
      <trkpt lat="45.10125" lon="0.60967">
        <ele>148.3</ele>
        <time>2024-04-14T10:28:46Z</time>
      </trkpt>
      <trkpt lat="45.10121" lon="0.60969">
        <ele>148.5</ele>
        <time>2024-04-14T10:28:48Z</time>
      </trkpt>
      <trkpt lat="45.10118" lon="0.60972">
        <ele>148.7</ele>
        <time>2024-04-14T10:28:50Z</time>
      </trkpt>
      <trkpt lat="45.10116" lon="0.60974">
        <ele>148.9</ele>
        <time>2024-04-14T10:28:51Z</time>
      </trkpt>
      <trkpt lat="45.10114" lon="0.60976">
        <ele>149</ele>
        <time>2024-04-14T10:28:52Z</time>
      </trkpt>
      <trkpt lat="45.10109" lon="0.60981">
        <ele>149.4</ele>
        <time>2024-04-14T10:28:54Z</time>
      </trkpt>
      <trkpt lat="45.10106" lon="0.60984">
        <ele>149.6</ele>
        <time>2024-04-14T10:28:56Z</time>
      </trkpt>
      <trkpt lat="45.10103" lon="0.60987">
        <ele>149.9</ele>
        <time>2024-04-14T10:28:58Z</time>
      </trkpt>
      <trkpt lat="45.10099" lon="0.60991">
        <ele>150.2</ele>
        <time>2024-04-14T10:29:00Z</time>
      </trkpt>
      <trkpt lat="45.10095" lon="0.60996">
        <ele>150.6</ele>
        <time>2024-04-14T10:29:02Z</time>
      </trkpt>
      <trkpt lat="45.10093" lon="0.60997">
        <ele>150.7</ele>
        <time>2024-04-14T10:29:03Z</time>
      </trkpt>
      <trkpt lat="45.10091" lon="0.61">
        <ele>150.8</ele>
        <time>2024-04-14T10:29:04Z</time>
      </trkpt>
      <trkpt lat="45.10087" lon="0.61005">
        <ele>151.2</ele>
        <time>2024-04-14T10:29:06Z</time>
      </trkpt>
      <trkpt lat="45.10083" lon="0.6101">
        <ele>151.5</ele>
        <time>2024-04-14T10:29:08Z</time>
      </trkpt>
      <trkpt lat="45.10079" lon="0.61016">
        <ele>151.8</ele>
        <time>2024-04-14T10:29:10Z</time>
      </trkpt>
      <trkpt lat="45.10076" lon="0.61021">
        <ele>152.1</ele>
        <time>2024-04-14T10:29:12Z</time>
      </trkpt>
      <trkpt lat="45.10072" lon="0.61026">
        <ele>152.4</ele>
        <time>2024-04-14T10:29:14Z</time>
      </trkpt>
      <trkpt lat="45.10068" lon="0.61031">
        <ele>152.7</ele>
        <time>2024-04-14T10:29:16Z</time>
      </trkpt>
      <trkpt lat="45.10066" lon="0.61033">
        <ele>152.9</ele>
        <time>2024-04-14T10:29:17Z</time>
      </trkpt>
      <trkpt lat="45.10065" lon="0.61034">
        <ele>153</ele>
        <time>2024-04-14T10:29:18Z</time>
      </trkpt>
      <trkpt lat="45.10064" lon="0.61036">
        <ele>153.1</ele>
        <time>2024-04-14T10:29:19Z</time>
      </trkpt>
      <trkpt lat="45.10063" lon="0.61038">
        <ele>153.2</ele>
        <time>2024-04-14T10:29:20Z</time>
      </trkpt>
      <trkpt lat="45.1006" lon="0.61042">
        <ele>153.5</ele>
        <time>2024-04-14T10:29:22Z</time>
      </trkpt>
      <trkpt lat="45.10058" lon="0.61045">
        <ele>153.8</ele>
        <time>2024-04-14T10:29:24Z</time>
      </trkpt>
      <trkpt lat="45.10057" lon="0.61047">
        <ele>153.9</ele>
        <time>2024-04-14T10:29:25Z</time>
      </trkpt>
      <trkpt lat="45.10056" lon="0.61049">
        <ele>154</ele>
        <time>2024-04-14T10:29:26Z</time>
      </trkpt>
      <trkpt lat="45.10053" lon="0.61054">
        <ele>154.4</ele>
        <time>2024-04-14T10:29:28Z</time>
      </trkpt>
      <trkpt lat="45.10051" lon="0.61059">
        <ele>154.8</ele>
        <time>2024-04-14T10:29:30Z</time>
      </trkpt>
      <trkpt lat="45.10049" lon="0.61061">
        <ele>155</ele>
        <time>2024-04-14T10:29:31Z</time>
      </trkpt>
      <trkpt lat="45.10048" lon="0.61063">
        <ele>155.1</ele>
        <time>2024-04-14T10:29:32Z</time>
      </trkpt>
      <trkpt lat="45.10046" lon="0.61067">
        <ele>155.5</ele>
        <time>2024-04-14T10:29:34Z</time>
      </trkpt>
      <trkpt lat="45.10043" lon="0.61071">
        <ele>155.8</ele>
        <time>2024-04-14T10:29:36Z</time>
      </trkpt>
      <trkpt lat="45.10041" lon="0.61072">
        <ele>156</ele>
        <time>2024-04-14T10:29:37Z</time>
      </trkpt>
      <trkpt lat="45.1004" lon="0.61074">
        <ele>156.1</ele>
        <time>2024-04-14T10:29:38Z</time>
      </trkpt>
      <trkpt lat="45.10038" lon="0.61077">
        <ele>156.4</ele>
        <time>2024-04-14T10:29:40Z</time>
      </trkpt>
      <trkpt lat="45.10037" lon="0.61078">
        <ele>156.5</ele>
        <time>2024-04-14T10:29:41Z</time>
      </trkpt>
      <trkpt lat="45.10035" lon="0.6108">
        <ele>156.7</ele>
        <time>2024-04-14T10:29:42Z</time>
      </trkpt>
      <trkpt lat="45.10034" lon="0.61084">
        <ele>157</ele>
        <time>2024-04-14T10:29:44Z</time>
      </trkpt>
      <trkpt lat="45.10032" lon="0.61087">
        <ele>157.2</ele>
        <time>2024-04-14T10:29:46Z</time>
      </trkpt>
      <trkpt lat="45.10029" lon="0.61092">
        <ele>157.5</ele>
        <time>2024-04-14T10:29:48Z</time>
      </trkpt>
      <trkpt lat="45.10027" lon="0.61095">
        <ele>157.8</ele>
        <time>2024-04-14T10:29:50Z</time>
      </trkpt>
      <trkpt lat="45.10024" lon="0.61098">
        <ele>158.1</ele>
        <time>2024-04-14T10:29:52Z</time>
      </trkpt>
      <trkpt lat="45.10023" lon="0.611">
        <ele>158.2</ele>
        <time>2024-04-14T10:29:53Z</time>
      </trkpt>
      <trkpt lat="45.10022" lon="0.61102">
        <ele>158.4</ele>
        <time>2024-04-14T10:29:54Z</time>
      </trkpt>
      <trkpt lat="45.10019" lon="0.61107">
        <ele>158.8</ele>
        <time>2024-04-14T10:29:56Z</time>
      </trkpt>
      <trkpt lat="45.10017" lon="0.6111">
        <ele>159.1</ele>
        <time>2024-04-14T10:29:58Z</time>
      </trkpt>
      <trkpt lat="45.10014" lon="0.61113">
        <ele>159.4</ele>
        <time>2024-04-14T10:30:00Z</time>
      </trkpt>
      <trkpt lat="45.10013" lon="0.61114">
        <ele>159.6</ele>
        <time>2024-04-14T10:30:01Z</time>
      </trkpt>
      <trkpt lat="45.10011" lon="0.61116">
        <ele>159.7</ele>
        <time>2024-04-14T10:30:02Z</time>
      </trkpt>
      <trkpt lat="45.10008" lon="0.61119">
        <ele>160</ele>
        <time>2024-04-14T10:30:04Z</time>
      </trkpt>
      <trkpt lat="45.10007" lon="0.6112">
        <ele>160.2</ele>
        <time>2024-04-14T10:30:05Z</time>
      </trkpt>
      <trkpt lat="45.10006" lon="0.6112">
        <ele>160.3</ele>
        <time>2024-04-14T10:30:06Z</time>
      </trkpt>
      <trkpt lat="45.10003" lon="0.61121">
        <ele>160.6</ele>
        <time>2024-04-14T10:30:08Z</time>
      </trkpt>
      <trkpt lat="45.10002" lon="0.61122">
        <ele>160.8</ele>
        <time>2024-04-14T10:30:09Z</time>
      </trkpt>
      <trkpt lat="45.10001" lon="0.61124">
        <ele>160.9</ele>
        <time>2024-04-14T10:30:10Z</time>
      </trkpt>
      <trkpt lat="45.09999" lon="0.61127">
        <ele>161.3</ele>
        <time>2024-04-14T10:30:12Z</time>
      </trkpt>
      <trkpt lat="45.09997" lon="0.61129">
        <ele>161.6</ele>
        <time>2024-04-14T10:30:14Z</time>
      </trkpt>
      <trkpt lat="45.09995" lon="0.6113">
        <ele>161.8</ele>
        <time>2024-04-14T10:30:15Z</time>
      </trkpt>
      <trkpt lat="45.09994" lon="0.6113">
        <ele>161.9</ele>
        <time>2024-04-14T10:30:16Z</time>
      </trkpt>
      <trkpt lat="45.09991" lon="0.61131">
        <ele>162.2</ele>
        <time>2024-04-14T10:30:18Z</time>
      </trkpt>
      <trkpt lat="45.0999" lon="0.61132">
        <ele>162.4</ele>
        <time>2024-04-14T10:30:19Z</time>
      </trkpt>
      <trkpt lat="45.09989" lon="0.61133">
        <ele>162.5</ele>
        <time>2024-04-14T10:30:20Z</time>
      </trkpt>
      <trkpt lat="45.09987" lon="0.61134">
        <ele>162.8</ele>
        <time>2024-04-14T10:30:22Z</time>
      </trkpt>
      <trkpt lat="45.09984" lon="0.61135">
        <ele>163.1</ele>
        <time>2024-04-14T10:30:24Z</time>
      </trkpt>
      <trkpt lat="45.09981" lon="0.61137">
        <ele>163.4</ele>
        <time>2024-04-14T10:30:26Z</time>
      </trkpt>
      <trkpt lat="45.09979" lon="0.61138">
        <ele>163.7</ele>
        <time>2024-04-14T10:30:28Z</time>
      </trkpt>
      <trkpt lat="45.09978" lon="0.61139">
        <ele>163.8</ele>
        <time>2024-04-14T10:30:29Z</time>
      </trkpt>
      <trkpt lat="45.09976" lon="0.6114">
        <ele>164</ele>
        <time>2024-04-14T10:30:30Z</time>
      </trkpt>
      <trkpt lat="45.09974" lon="0.61142">
        <ele>164.3</ele>
        <time>2024-04-14T10:30:32Z</time>
      </trkpt>
      <trkpt lat="45.09972" lon="0.61144">
        <ele>164.6</ele>
        <time>2024-04-14T10:30:34Z</time>
      </trkpt>
      <trkpt lat="45.09971" lon="0.61145">
        <ele>164.7</ele>
        <time>2024-04-14T10:30:35Z</time>
      </trkpt>
      <trkpt lat="45.09969" lon="0.61147">
        <ele>164.9</ele>
        <time>2024-04-14T10:30:36Z</time>
      </trkpt>
      <trkpt lat="45.09967" lon="0.6115">
        <ele>165.2</ele>
        <time>2024-04-14T10:30:38Z</time>
      </trkpt>
      <trkpt lat="45.09964" lon="0.61152">
        <ele>165.6</ele>
        <time>2024-04-14T10:30:40Z</time>
      </trkpt>
      <trkpt lat="45.09962" lon="0.61154">
        <ele>165.9</ele>
        <time>2024-04-14T10:30:42Z</time>
      </trkpt>
      <trkpt lat="45.09961" lon="0.61155">
        <ele>166</ele>
        <time>2024-04-14T10:30:43Z</time>
      </trkpt>
      <trkpt lat="45.0996" lon="0.61156">
        <ele>166.1</ele>
        <time>2024-04-14T10:30:44Z</time>
      </trkpt>
      <trkpt lat="45.09959" lon="0.61159">
        <ele>166.4</ele>
        <time>2024-04-14T10:30:46Z</time>
      </trkpt>
      <trkpt lat="45.09956" lon="0.61161">
        <ele>166.8</ele>
        <time>2024-04-14T10:30:48Z</time>
      </trkpt>
      <trkpt lat="45.09954" lon="0.61162">
        <ele>167</ele>
        <time>2024-04-14T10:30:49Z</time>
      </trkpt>
      <trkpt lat="45.09953" lon="0.61163">
        <ele>167.2</ele>
        <time>2024-04-14T10:30:50Z</time>
      </trkpt>
      <trkpt lat="45.09951" lon="0.61166">
        <ele>167.5</ele>
        <time>2024-04-14T10:30:52Z</time>
      </trkpt>
      <trkpt lat="45.09949" lon="0.61168">
        <ele>167.8</ele>
        <time>2024-04-14T10:30:54Z</time>
      </trkpt>
      <trkpt lat="45.09946" lon="0.61172">
        <ele>168.2</ele>
        <time>2024-04-14T10:30:56Z</time>
      </trkpt>
      <trkpt lat="45.09945" lon="0.61174">
        <ele>168.3</ele>
        <time>2024-04-14T10:30:57Z</time>
      </trkpt>
      <trkpt lat="45.09944" lon="0.61176">
        <ele>168.5</ele>
        <time>2024-04-14T10:30:58Z</time>
      </trkpt>
      <trkpt lat="45.09943" lon="0.61179">
        <ele>168.7</ele>
        <time>2024-04-14T10:31:00Z</time>
      </trkpt>
      <trkpt lat="45.09941" lon="0.61182">
        <ele>169</ele>
        <time>2024-04-14T10:31:02Z</time>
      </trkpt>
      <trkpt lat="45.09941" lon="0.61184">
        <ele>169.2</ele>
        <time>2024-04-14T10:31:03Z</time>
      </trkpt>
      <trkpt lat="45.0994" lon="0.61186">
        <ele>169.3</ele>
        <time>2024-04-14T10:31:04Z</time>
      </trkpt>
      <trkpt lat="45.09938" lon="0.61188">
        <ele>169.5</ele>
        <time>2024-04-14T10:31:06Z</time>
      </trkpt>
      <trkpt lat="45.09937" lon="0.61192">
        <ele>169.8</ele>
        <time>2024-04-14T10:31:08Z</time>
      </trkpt>
      <trkpt lat="45.09935" lon="0.61195">
        <ele>170.1</ele>
        <time>2024-04-14T10:31:10Z</time>
      </trkpt>
      <trkpt lat="45.09934" lon="0.61199">
        <ele>170.4</ele>
        <time>2024-04-14T10:31:12Z</time>
      </trkpt>
      <trkpt lat="45.09932" lon="0.61202">
        <ele>170.6</ele>
        <time>2024-04-14T10:31:14Z</time>
      </trkpt>
      <trkpt lat="45.09931" lon="0.61205">
        <ele>170.9</ele>
        <time>2024-04-14T10:31:16Z</time>
      </trkpt>
      <trkpt lat="45.0993" lon="0.61209">
        <ele>171.2</ele>
        <time>2024-04-14T10:31:18Z</time>
      </trkpt>
      <trkpt lat="45.09929" lon="0.61211">
        <ele>171.3</ele>
        <time>2024-04-14T10:31:19Z</time>
      </trkpt>
      <trkpt lat="45.09928" lon="0.61212">
        <ele>171.4</ele>
        <time>2024-04-14T10:31:20Z</time>
      </trkpt>
      <trkpt lat="45.09927" lon="0.61216">
        <ele>171.7</ele>
        <time>2024-04-14T10:31:22Z</time>
      </trkpt>
      <trkpt lat="45.09925" lon="0.6122">
        <ele>171.9</ele>
        <time>2024-04-14T10:31:24Z</time>
      </trkpt>
      <trkpt lat="45.09924" lon="0.61225">
        <ele>172.3</ele>
        <time>2024-04-14T10:31:26Z</time>
      </trkpt>
      <trkpt lat="45.09923" lon="0.61227">
        <ele>172.4</ele>
        <time>2024-04-14T10:31:27Z</time>
      </trkpt>
      <trkpt lat="45.09922" lon="0.61229">
        <ele>172.6</ele>
        <time>2024-04-14T10:31:28Z</time>
      </trkpt>
      <trkpt lat="45.0992" lon="0.61232">
        <ele>172.8</ele>
        <time>2024-04-14T10:31:30Z</time>
      </trkpt>
      <trkpt lat="45.09918" lon="0.61235">
        <ele>173</ele>
        <time>2024-04-14T10:31:32Z</time>
      </trkpt>
      <trkpt lat="45.09916" lon="0.61239">
        <ele>173.3</ele>
        <time>2024-04-14T10:31:34Z</time>
      </trkpt>
      <trkpt lat="45.09914" lon="0.61242">
        <ele>173.5</ele>
        <time>2024-04-14T10:31:36Z</time>
      </trkpt>
      <trkpt lat="45.09912" lon="0.61245">
        <ele>173.7</ele>
        <time>2024-04-14T10:31:38Z</time>
      </trkpt>
      <trkpt lat="45.0991" lon="0.61247">
        <ele>173.9</ele>
        <time>2024-04-14T10:31:40Z</time>
      </trkpt>
      <trkpt lat="45.09908" lon="0.6125">
        <ele>174.1</ele>
        <time>2024-04-14T10:31:42Z</time>
      </trkpt>
      <trkpt lat="45.09906" lon="0.61253">
        <ele>174.3</ele>
        <time>2024-04-14T10:31:44Z</time>
      </trkpt>
      <trkpt lat="45.09905" lon="0.61254">
        <ele>174.4</ele>
        <time>2024-04-14T10:31:45Z</time>
      </trkpt>
      <trkpt lat="45.09903" lon="0.61256">
        <ele>174.5</ele>
        <time>2024-04-14T10:31:46Z</time>
      </trkpt>
      <trkpt lat="45.09901" lon="0.61258">
        <ele>174.7</ele>
        <time>2024-04-14T10:31:48Z</time>
      </trkpt>
      <trkpt lat="45.09899" lon="0.61261">
        <ele>175</ele>
        <time>2024-04-14T10:31:50Z</time>
      </trkpt>
      <trkpt lat="45.09896" lon="0.61263">
        <ele>175.2</ele>
        <time>2024-04-14T10:31:52Z</time>
      </trkpt>
      <trkpt lat="45.09894" lon="0.61265">
        <ele>175.4</ele>
        <time>2024-04-14T10:31:54Z</time>
      </trkpt>
      <trkpt lat="45.09893" lon="0.61267">
        <ele>175.6</ele>
        <time>2024-04-14T10:31:56Z</time>
      </trkpt>
      <trkpt lat="45.09891" lon="0.61269">
        <ele>175.7</ele>
        <time>2024-04-14T10:31:58Z</time>
      </trkpt>
      <trkpt lat="45.0989" lon="0.6127">
        <ele>175.8</ele>
        <time>2024-04-14T10:31:59Z</time>
      </trkpt>
      <trkpt lat="45.09889" lon="0.61272">
        <ele>176</ele>
        <time>2024-04-14T10:32:00Z</time>
      </trkpt>
      <trkpt lat="45.09887" lon="0.61276">
        <ele>176.3</ele>
        <time>2024-04-14T10:32:02Z</time>
      </trkpt>
      <trkpt lat="45.09885" lon="0.61279">
        <ele>176.6</ele>
        <time>2024-04-14T10:32:04Z</time>
      </trkpt>
      <trkpt lat="45.09884" lon="0.61281">
        <ele>176.8</ele>
        <time>2024-04-14T10:32:05Z</time>
      </trkpt>
      <trkpt lat="45.09882" lon="0.61283">
        <ele>177</ele>
        <time>2024-04-14T10:32:06Z</time>
      </trkpt>
      <trkpt lat="45.0988" lon="0.61286">
        <ele>177.3</ele>
        <time>2024-04-14T10:32:08Z</time>
      </trkpt>
      <trkpt lat="45.09878" lon="0.6129">
        <ele>177.7</ele>
        <time>2024-04-14T10:32:10Z</time>
      </trkpt>
      <trkpt lat="45.09876" lon="0.61293">
        <ele>178</ele>
        <time>2024-04-14T10:32:12Z</time>
      </trkpt>
      <trkpt lat="45.09874" lon="0.61297">
        <ele>178.4</ele>
        <time>2024-04-14T10:32:14Z</time>
      </trkpt>
      <trkpt lat="45.09872" lon="0.61299">
        <ele>178.7</ele>
        <time>2024-04-14T10:32:16Z</time>
      </trkpt>
      <trkpt lat="45.0987" lon="0.61302">
        <ele>179</ele>
        <time>2024-04-14T10:32:18Z</time>
      </trkpt>
      <trkpt lat="45.09869" lon="0.61303">
        <ele>179.1</ele>
        <time>2024-04-14T10:32:19Z</time>
      </trkpt>
      <trkpt lat="45.09869" lon="0.61304">
        <ele>179.2</ele>
        <time>2024-04-14T10:32:20Z</time>
      </trkpt>
      <trkpt lat="45.09869" lon="0.61304">
        <ele>179.2</ele>
        <time>2024-04-14T10:32:22Z</time>
      </trkpt>
      <trkpt lat="45.09868" lon="0.61305">
        <ele>179.4</ele>
        <time>2024-04-14T10:32:23Z</time>
      </trkpt>
      <trkpt lat="45.09867" lon="0.61307">
        <ele>179.5</ele>
        <time>2024-04-14T10:32:24Z</time>
      </trkpt>
      <trkpt lat="45.09864" lon="0.61311">
        <ele>179.9</ele>
        <time>2024-04-14T10:32:26Z</time>
      </trkpt>
      <trkpt lat="45.09863" lon="0.61312">
        <ele>180.1</ele>
        <time>2024-04-14T10:32:27Z</time>
      </trkpt>
      <trkpt lat="45.09862" lon="0.61314">
        <ele>180.3</ele>
        <time>2024-04-14T10:32:28Z</time>
      </trkpt>
      <trkpt lat="45.0986" lon="0.61318">
        <ele>180.7</ele>
        <time>2024-04-14T10:32:30Z</time>
      </trkpt>
      <trkpt lat="45.09857" lon="0.6132">
        <ele>181.1</ele>
        <time>2024-04-14T10:32:32Z</time>
      </trkpt>
      <trkpt lat="45.09856" lon="0.61323">
        <ele>181.4</ele>
        <time>2024-04-14T10:32:34Z</time>
      </trkpt>
      <trkpt lat="45.09854" lon="0.61326">
        <ele>181.8</ele>
        <time>2024-04-14T10:32:36Z</time>
      </trkpt>
      <trkpt lat="45.09853" lon="0.61327">
        <ele>182</ele>
        <time>2024-04-14T10:32:37Z</time>
      </trkpt>
      <trkpt lat="45.09852" lon="0.61329">
        <ele>182.2</ele>
        <time>2024-04-14T10:32:38Z</time>
      </trkpt>
      <trkpt lat="45.0985" lon="0.61333">
        <ele>182.7</ele>
        <time>2024-04-14T10:32:40Z</time>
      </trkpt>
      <trkpt lat="45.09848" lon="0.61336">
        <ele>183.2</ele>
        <time>2024-04-14T10:32:42Z</time>
      </trkpt>
      <trkpt lat="45.09846" lon="0.6134">
        <ele>183.6</ele>
        <time>2024-04-14T10:32:44Z</time>
      </trkpt>
      <trkpt lat="45.09844" lon="0.61342">
        <ele>183.9</ele>
        <time>2024-04-14T10:32:46Z</time>
      </trkpt>
      <trkpt lat="45.09842" lon="0.61344">
        <ele>184.1</ele>
        <time>2024-04-14T10:32:48Z</time>
      </trkpt>
      <trkpt lat="45.09841" lon="0.61345">
        <ele>184.2</ele>
        <time>2024-04-14T10:32:49Z</time>
      </trkpt>
      <trkpt lat="45.0984" lon="0.61346">
        <ele>184.3</ele>
        <time>2024-04-14T10:32:50Z</time>
      </trkpt>
      <trkpt lat="45.09839" lon="0.61347">
        <ele>184.4</ele>
        <time>2024-04-14T10:32:51Z</time>
      </trkpt>
      <trkpt lat="45.09837" lon="0.61348">
        <ele>184.5</ele>
        <time>2024-04-14T10:32:52Z</time>
      </trkpt>
      <trkpt lat="45.09835" lon="0.61349">
        <ele>184.7</ele>
        <time>2024-04-14T10:32:54Z</time>
      </trkpt>
      <trkpt lat="45.09835" lon="0.61349">
        <ele>184.7</ele>
        <time>2024-04-14T10:32:56Z</time>
      </trkpt>
      <trkpt lat="45.09835" lon="0.61349">
        <ele>184.7</ele>
        <time>2024-04-14T10:32:57Z</time>
      </trkpt>
      <trkpt lat="45.09835" lon="0.61349">
        <ele>184.7</ele>
        <time>2024-04-14T10:32:58Z</time>
      </trkpt>
      <trkpt lat="45.09833" lon="0.61354">
        <ele>185</ele>
        <time>2024-04-14T10:33:00Z</time>
      </trkpt>
      <trkpt lat="45.0983" lon="0.61359">
        <ele>185.4</ele>
        <time>2024-04-14T10:33:02Z</time>
      </trkpt>
      <trkpt lat="45.09829" lon="0.61363">
        <ele>185.7</ele>
        <time>2024-04-14T10:33:04Z</time>
      </trkpt>
      <trkpt lat="45.09827" lon="0.61367">
        <ele>185.9</ele>
        <time>2024-04-14T10:33:06Z</time>
      </trkpt>
      <trkpt lat="45.09826" lon="0.6137">
        <ele>186.1</ele>
        <time>2024-04-14T10:33:08Z</time>
      </trkpt>
      <trkpt lat="45.09826" lon="0.61371">
        <ele>186.2</ele>
        <time>2024-04-14T10:33:09Z</time>
      </trkpt>
      <trkpt lat="45.09826" lon="0.61373">
        <ele>186.3</ele>
        <time>2024-04-14T10:33:10Z</time>
      </trkpt>
      <trkpt lat="45.09825" lon="0.61374">
        <ele>186.4</ele>
        <time>2024-04-14T10:33:11Z</time>
      </trkpt>
      <trkpt lat="45.09825" lon="0.61376">
        <ele>186.5</ele>
        <time>2024-04-14T10:33:12Z</time>
      </trkpt>
      <trkpt lat="45.09824" lon="0.61379">
        <ele>186.8</ele>
        <time>2024-04-14T10:33:14Z</time>
      </trkpt>
      <trkpt lat="45.09823" lon="0.61381">
        <ele>186.9</ele>
        <time>2024-04-14T10:33:15Z</time>
      </trkpt>
      <trkpt lat="45.09823" lon="0.61383">
        <ele>187</ele>
        <time>2024-04-14T10:33:16Z</time>
      </trkpt>
      <trkpt lat="45.09821" lon="0.61387">
        <ele>187.4</ele>
        <time>2024-04-14T10:33:18Z</time>
      </trkpt>
      <trkpt lat="45.09819" lon="0.61391">
        <ele>187.7</ele>
        <time>2024-04-14T10:33:20Z</time>
      </trkpt>
      <trkpt lat="45.09818" lon="0.61394">
        <ele>187.9</ele>
        <time>2024-04-14T10:33:21Z</time>
      </trkpt>
      <trkpt lat="45.09818" lon="0.61395">
        <ele>188</ele>
        <time>2024-04-14T10:33:22Z</time>
      </trkpt>
      <trkpt lat="45.09818" lon="0.61398">
        <ele>188.2</ele>
        <time>2024-04-14T10:33:23Z</time>
      </trkpt>
      <trkpt lat="45.09817" lon="0.61399">
        <ele>188.3</ele>
        <time>2024-04-14T10:33:24Z</time>
      </trkpt>
      <trkpt lat="45.09815" lon="0.61402">
        <ele>188.5</ele>
        <time>2024-04-14T10:33:26Z</time>
      </trkpt>
      <trkpt lat="45.09815" lon="0.61404">
        <ele>188.7</ele>
        <time>2024-04-14T10:33:27Z</time>
      </trkpt>
      <trkpt lat="45.09814" lon="0.61405">
        <ele>188.8</ele>
        <time>2024-04-14T10:33:28Z</time>
      </trkpt>
      <trkpt lat="45.09812" lon="0.61409">
        <ele>189.1</ele>
        <time>2024-04-14T10:33:30Z</time>
      </trkpt>
      <trkpt lat="45.09811" lon="0.61411">
        <ele>189.3</ele>
        <time>2024-04-14T10:33:32Z</time>
      </trkpt>
      <trkpt lat="45.09809" lon="0.61414">
        <ele>189.6</ele>
        <time>2024-04-14T10:33:34Z</time>
      </trkpt>
      <trkpt lat="45.09809" lon="0.61415">
        <ele>189.7</ele>
        <time>2024-04-14T10:33:35Z</time>
      </trkpt>
      <trkpt lat="45.09807" lon="0.61415">
        <ele>189.8</ele>
        <time>2024-04-14T10:33:36Z</time>
      </trkpt>
      <trkpt lat="45.09805" lon="0.61417">
        <ele>190.1</ele>
        <time>2024-04-14T10:33:38Z</time>
      </trkpt>
      <trkpt lat="45.09803" lon="0.61417">
        <ele>190.3</ele>
        <time>2024-04-14T10:33:40Z</time>
      </trkpt>
      <trkpt lat="45.09801" lon="0.61417">
        <ele>190.5</ele>
        <time>2024-04-14T10:33:42Z</time>
      </trkpt>
      <trkpt lat="45.09798" lon="0.61417">
        <ele>190.8</ele>
        <time>2024-04-14T10:33:44Z</time>
      </trkpt>
      <trkpt lat="45.09795" lon="0.61417">
        <ele>191</ele>
        <time>2024-04-14T10:33:46Z</time>
      </trkpt>
      <trkpt lat="45.09794" lon="0.61417">
        <ele>191.1</ele>
        <time>2024-04-14T10:33:47Z</time>
      </trkpt>
      <trkpt lat="45.09793" lon="0.61417">
        <ele>191.3</ele>
        <time>2024-04-14T10:33:48Z</time>
      </trkpt>
      <trkpt lat="45.0979" lon="0.61418">
        <ele>191.5</ele>
        <time>2024-04-14T10:33:50Z</time>
      </trkpt>
      <trkpt lat="45.09788" lon="0.61419">
        <ele>191.7</ele>
        <time>2024-04-14T10:33:52Z</time>
      </trkpt>
      <trkpt lat="45.09786" lon="0.61418">
        <ele>191.9</ele>
        <time>2024-04-14T10:33:54Z</time>
      </trkpt>
      <trkpt lat="45.09784" lon="0.61418">
        <ele>192.1</ele>
        <time>2024-04-14T10:33:56Z</time>
      </trkpt>
      <trkpt lat="45.09782" lon="0.61418">
        <ele>192.3</ele>
        <time>2024-04-14T10:33:58Z</time>
      </trkpt>
      <trkpt lat="45.0978" lon="0.61419">
        <ele>192.4</ele>
        <time>2024-04-14T10:34:00Z</time>
      </trkpt>
      <trkpt lat="45.09779" lon="0.61419">
        <ele>192.6</ele>
        <time>2024-04-14T10:34:01Z</time>
      </trkpt>
      <trkpt lat="45.09777" lon="0.61419">
        <ele>192.7</ele>
        <time>2024-04-14T10:34:02Z</time>
      </trkpt>
      <trkpt lat="45.09775" lon="0.6142">
        <ele>192.9</ele>
        <time>2024-04-14T10:34:04Z</time>
      </trkpt>
      <trkpt lat="45.09773" lon="0.6142">
        <ele>193.1</ele>
        <time>2024-04-14T10:34:06Z</time>
      </trkpt>
      <trkpt lat="45.0977" lon="0.6142">
        <ele>193.3</ele>
        <time>2024-04-14T10:34:08Z</time>
      </trkpt>
      <trkpt lat="45.09768" lon="0.61421">
        <ele>193.5</ele>
        <time>2024-04-14T10:34:10Z</time>
      </trkpt>
      <trkpt lat="45.09766" lon="0.61423">
        <ele>193.8</ele>
        <time>2024-04-14T10:34:12Z</time>
      </trkpt>
      <trkpt lat="45.09764" lon="0.61425">
        <ele>194</ele>
        <time>2024-04-14T10:34:14Z</time>
      </trkpt>
      <trkpt lat="45.09762" lon="0.61428">
        <ele>194.2</ele>
        <time>2024-04-14T10:34:16Z</time>
      </trkpt>
      <trkpt lat="45.09761" lon="0.61431">
        <ele>194.4</ele>
        <time>2024-04-14T10:34:18Z</time>
      </trkpt>
      <trkpt lat="45.09759" lon="0.61434">
        <ele>194.6</ele>
        <time>2024-04-14T10:34:20Z</time>
      </trkpt>
      <trkpt lat="45.09758" lon="0.61437">
        <ele>194.8</ele>
        <time>2024-04-14T10:34:22Z</time>
      </trkpt>
      <trkpt lat="45.09756" lon="0.61442">
        <ele>195.1</ele>
        <time>2024-04-14T10:34:24Z</time>
      </trkpt>
      <trkpt lat="45.09754" lon="0.61446">
        <ele>195.3</ele>
        <time>2024-04-14T10:34:26Z</time>
      </trkpt>
      <trkpt lat="45.09753" lon="0.61449">
        <ele>195.5</ele>
        <time>2024-04-14T10:34:28Z</time>
      </trkpt>
      <trkpt lat="45.09753" lon="0.61451">
        <ele>195.6</ele>
        <time>2024-04-14T10:34:29Z</time>
      </trkpt>
      <trkpt lat="45.09753" lon="0.61454">
        <ele>195.7</ele>
        <time>2024-04-14T10:34:30Z</time>
      </trkpt>
      <trkpt lat="45.09754" lon="0.61456">
        <ele>195.8</ele>
        <time>2024-04-14T10:34:31Z</time>
      </trkpt>
      <trkpt lat="45.09754" lon="0.61458">
        <ele>195.9</ele>
        <time>2024-04-14T10:34:32Z</time>
      </trkpt>
      <trkpt lat="45.09754" lon="0.61463">
        <ele>196</ele>
        <time>2024-04-14T10:34:34Z</time>
      </trkpt>
      <trkpt lat="45.09754" lon="0.61469">
        <ele>196</ele>
        <time>2024-04-14T10:34:36Z</time>
      </trkpt>
      <trkpt lat="45.09755" lon="0.61474">
        <ele>196.1</ele>
        <time>2024-04-14T10:34:38Z</time>
      </trkpt>
      <trkpt lat="45.09756" lon="0.6148">
        <ele>196.1</ele>
        <time>2024-04-14T10:34:40Z</time>
      </trkpt>
      <trkpt lat="45.09756" lon="0.61486">
        <ele>196.2</ele>
        <time>2024-04-14T10:34:42Z</time>
      </trkpt>
      <trkpt lat="45.09757" lon="0.61489">
        <ele>196.2</ele>
        <time>2024-04-14T10:34:43Z</time>
      </trkpt>
      <trkpt lat="45.09757" lon="0.61492">
        <ele>196.3</ele>
        <time>2024-04-14T10:34:44Z</time>
      </trkpt>
      <trkpt lat="45.09759" lon="0.61498">
        <ele>196.3</ele>
        <time>2024-04-14T10:34:46Z</time>
      </trkpt>
      <trkpt lat="45.0976" lon="0.61505">
        <ele>196.4</ele>
        <time>2024-04-14T10:34:48Z</time>
      </trkpt>
      <trkpt lat="45.09761" lon="0.61508">
        <ele>196.5</ele>
        <time>2024-04-14T10:34:49Z</time>
      </trkpt>
      <trkpt lat="45.09762" lon="0.61512">
        <ele>196.5</ele>
        <time>2024-04-14T10:34:50Z</time>
      </trkpt>
      <trkpt lat="45.09763" lon="0.61518">
        <ele>196.6</ele>
        <time>2024-04-14T10:34:52Z</time>
      </trkpt>
      <trkpt lat="45.09764" lon="0.61524">
        <ele>196.7</ele>
        <time>2024-04-14T10:34:54Z</time>
      </trkpt>
      <trkpt lat="45.09765" lon="0.6153">
        <ele>196.8</ele>
        <time>2024-04-14T10:34:56Z</time>
      </trkpt>
      <trkpt lat="45.09767" lon="0.61536">
        <ele>196.8</ele>
        <time>2024-04-14T10:34:58Z</time>
      </trkpt>
      <trkpt lat="45.09768" lon="0.61541">
        <ele>196.9</ele>
        <time>2024-04-14T10:35:00Z</time>
      </trkpt>
      <trkpt lat="45.09768" lon="0.61544">
        <ele>196.9</ele>
        <time>2024-04-14T10:35:01Z</time>
      </trkpt>
      <trkpt lat="45.09769" lon="0.61547">
        <ele>197</ele>
        <time>2024-04-14T10:35:02Z</time>
      </trkpt>
      <trkpt lat="45.09769" lon="0.61555">
        <ele>197.1</ele>
        <time>2024-04-14T10:35:04Z</time>
      </trkpt>
      <trkpt lat="45.0977" lon="0.61561">
        <ele>197.3</ele>
        <time>2024-04-14T10:35:06Z</time>
      </trkpt>
      <trkpt lat="45.09771" lon="0.61568">
        <ele>197.4</ele>
        <time>2024-04-14T10:35:08Z</time>
      </trkpt>
      <trkpt lat="45.09772" lon="0.61576">
        <ele>197.6</ele>
        <time>2024-04-14T10:35:10Z</time>
      </trkpt>
      <trkpt lat="45.09772" lon="0.61579">
        <ele>197.6</ele>
        <time>2024-04-14T10:35:11Z</time>
      </trkpt>
      <trkpt lat="45.09773" lon="0.61582">
        <ele>197.7</ele>
        <time>2024-04-14T10:35:12Z</time>
      </trkpt>
      <trkpt lat="45.09774" lon="0.6159">
        <ele>197.9</ele>
        <time>2024-04-14T10:35:14Z</time>
      </trkpt>
      <trkpt lat="45.09776" lon="0.61599">
        <ele>198</ele>
        <time>2024-04-14T10:35:16Z</time>
      </trkpt>
      <trkpt lat="45.09777" lon="0.61602">
        <ele>198.1</ele>
        <time>2024-04-14T10:35:17Z</time>
      </trkpt>
      <trkpt lat="45.09778" lon="0.61606">
        <ele>198.1</ele>
        <time>2024-04-14T10:35:18Z</time>
      </trkpt>
      <trkpt lat="45.0978" lon="0.61615">
        <ele>198.2</ele>
        <time>2024-04-14T10:35:20Z</time>
      </trkpt>
      <trkpt lat="45.09782" lon="0.61622">
        <ele>198.2</ele>
        <time>2024-04-14T10:35:22Z</time>
      </trkpt>
      <trkpt lat="45.09785" lon="0.61628">
        <ele>198.2</ele>
        <time>2024-04-14T10:35:24Z</time>
      </trkpt>
      <trkpt lat="45.09788" lon="0.61635">
        <ele>198.3</ele>
        <time>2024-04-14T10:35:26Z</time>
      </trkpt>
      <trkpt lat="45.0979" lon="0.61642">
        <ele>198.3</ele>
        <time>2024-04-14T10:35:28Z</time>
      </trkpt>
      <trkpt lat="45.09793" lon="0.6165">
        <ele>198.1</ele>
        <time>2024-04-14T10:35:30Z</time>
      </trkpt>
      <trkpt lat="45.09797" lon="0.61659">
        <ele>197.9</ele>
        <time>2024-04-14T10:35:32Z</time>
      </trkpt>
      <trkpt lat="45.09799" lon="0.61662">
        <ele>197.8</ele>
        <time>2024-04-14T10:35:33Z</time>
      </trkpt>
      <trkpt lat="45.098" lon="0.61666">
        <ele>197.7</ele>
        <time>2024-04-14T10:35:34Z</time>
      </trkpt>
      <trkpt lat="45.09805" lon="0.61676">
        <ele>197.3</ele>
        <time>2024-04-14T10:35:36Z</time>
      </trkpt>
      <trkpt lat="45.09809" lon="0.6168">
        <ele>197.1</ele>
        <time>2024-04-14T10:35:37Z</time>
      </trkpt>
      <trkpt lat="45.09813" lon="0.61686">
        <ele>196.9</ele>
        <time>2024-04-14T10:35:38Z</time>
      </trkpt>
      <trkpt lat="45.0982" lon="0.61697">
        <ele>196.4</ele>
        <time>2024-04-14T10:35:40Z</time>
      </trkpt>
      <trkpt lat="45.09828" lon="0.61708">
        <ele>196.1</ele>
        <time>2024-04-14T10:35:42Z</time>
      </trkpt>
      <trkpt lat="45.09837" lon="0.6172">
        <ele>195.8</ele>
        <time>2024-04-14T10:35:44Z</time>
      </trkpt>
      <trkpt lat="45.09846" lon="0.61733">
        <ele>195.6</ele>
        <time>2024-04-14T10:35:46Z</time>
      </trkpt>
      <trkpt lat="45.09853" lon="0.61744">
        <ele>195.4</ele>
        <time>2024-04-14T10:35:48Z</time>
      </trkpt>
      <trkpt lat="45.09859" lon="0.61756">
        <ele>195.2</ele>
        <time>2024-04-14T10:35:50Z</time>
      </trkpt>
      <trkpt lat="45.09862" lon="0.61761">
        <ele>195.2</ele>
        <time>2024-04-14T10:35:51Z</time>
      </trkpt>
      <trkpt lat="45.09864" lon="0.61767">
        <ele>195.1</ele>
        <time>2024-04-14T10:35:52Z</time>
      </trkpt>
      <trkpt lat="45.09867" lon="0.61772">
        <ele>195</ele>
        <time>2024-04-14T10:35:53Z</time>
      </trkpt>
      <trkpt lat="45.0987" lon="0.61778">
        <ele>195</ele>
        <time>2024-04-14T10:35:54Z</time>
      </trkpt>
      <trkpt lat="45.09874" lon="0.61783">
        <ele>194.9</ele>
        <time>2024-04-14T10:35:55Z</time>
      </trkpt>
      <trkpt lat="45.09877" lon="0.61787">
        <ele>194.9</ele>
        <time>2024-04-14T10:35:56Z</time>
      </trkpt>
      <trkpt lat="45.09881" lon="0.61795">
        <ele>194.9</ele>
        <time>2024-04-14T10:35:58Z</time>
      </trkpt>
      <trkpt lat="45.09886" lon="0.61805">
        <ele>194.9</ele>
        <time>2024-04-14T10:36:00Z</time>
      </trkpt>
      <trkpt lat="45.09892" lon="0.61815">
        <ele>195</ele>
        <time>2024-04-14T10:36:02Z</time>
      </trkpt>
      <trkpt lat="45.09897" lon="0.61826">
        <ele>195.1</ele>
        <time>2024-04-14T10:36:04Z</time>
      </trkpt>
      <trkpt lat="45.09901" lon="0.61837">
        <ele>195.2</ele>
        <time>2024-04-14T10:36:06Z</time>
      </trkpt>
      <trkpt lat="45.09903" lon="0.61841">
        <ele>195.3</ele>
        <time>2024-04-14T10:36:07Z</time>
      </trkpt>
      <trkpt lat="45.09905" lon="0.61846">
        <ele>195.3</ele>
        <time>2024-04-14T10:36:08Z</time>
      </trkpt>
      <trkpt lat="45.09912" lon="0.61854">
        <ele>195.5</ele>
        <time>2024-04-14T10:36:10Z</time>
      </trkpt>
      <trkpt lat="45.09918" lon="0.61862">
        <ele>195.6</ele>
        <time>2024-04-14T10:36:12Z</time>
      </trkpt>
      <trkpt lat="45.09922" lon="0.61866">
        <ele>195.7</ele>
        <time>2024-04-14T10:36:13Z</time>
      </trkpt>
      <trkpt lat="45.09925" lon="0.6187">
        <ele>195.8</ele>
        <time>2024-04-14T10:36:14Z</time>
      </trkpt>
      <trkpt lat="45.09928" lon="0.61874">
        <ele>195.9</ele>
        <time>2024-04-14T10:36:15Z</time>
      </trkpt>
      <trkpt lat="45.0993" lon="0.61879">
        <ele>196</ele>
        <time>2024-04-14T10:36:16Z</time>
      </trkpt>
      <trkpt lat="45.09936" lon="0.61888">
        <ele>196.1</ele>
        <time>2024-04-14T10:36:18Z</time>
      </trkpt>
      <trkpt lat="45.09942" lon="0.61897">
        <ele>196.3</ele>
        <time>2024-04-14T10:36:20Z</time>
      </trkpt>
      <trkpt lat="45.09948" lon="0.61904">
        <ele>196.4</ele>
        <time>2024-04-14T10:36:22Z</time>
      </trkpt>
      <trkpt lat="45.09951" lon="0.61909">
        <ele>196.5</ele>
        <time>2024-04-14T10:36:23Z</time>
      </trkpt>
      <trkpt lat="45.09954" lon="0.61913">
        <ele>196.6</ele>
        <time>2024-04-14T10:36:24Z</time>
      </trkpt>
      <trkpt lat="45.0996" lon="0.61922">
        <ele>196.8</ele>
        <time>2024-04-14T10:36:26Z</time>
      </trkpt>
      <trkpt lat="45.09966" lon="0.61931">
        <ele>197</ele>
        <time>2024-04-14T10:36:28Z</time>
      </trkpt>
      <trkpt lat="45.09972" lon="0.61938">
        <ele>197.1</ele>
        <time>2024-04-14T10:36:30Z</time>
      </trkpt>
      <trkpt lat="45.09975" lon="0.61941">
        <ele>197.2</ele>
        <time>2024-04-14T10:36:31Z</time>
      </trkpt>
      <trkpt lat="45.09977" lon="0.61946">
        <ele>197.3</ele>
        <time>2024-04-14T10:36:32Z</time>
      </trkpt>
      <trkpt lat="45.09981" lon="0.61956">
        <ele>197.5</ele>
        <time>2024-04-14T10:36:34Z</time>
      </trkpt>
      <trkpt lat="45.09983" lon="0.61966">
        <ele>197.7</ele>
        <time>2024-04-14T10:36:36Z</time>
      </trkpt>
      <trkpt lat="45.09984" lon="0.61976">
        <ele>197.8</ele>
        <time>2024-04-14T10:36:38Z</time>
      </trkpt>
      <trkpt lat="45.09986" lon="0.61986">
        <ele>197.9</ele>
        <time>2024-04-14T10:36:40Z</time>
      </trkpt>
      <trkpt lat="45.09989" lon="0.61997">
        <ele>198</ele>
        <time>2024-04-14T10:36:42Z</time>
      </trkpt>
      <trkpt lat="45.09992" lon="0.62008">
        <ele>198</ele>
        <time>2024-04-14T10:36:44Z</time>
      </trkpt>
      <trkpt lat="45.09994" lon="0.62021">
        <ele>197.9</ele>
        <time>2024-04-14T10:36:46Z</time>
      </trkpt>
      <trkpt lat="45.09995" lon="0.62027">
        <ele>197.9</ele>
        <time>2024-04-14T10:36:47Z</time>
      </trkpt>
      <trkpt lat="45.09997" lon="0.62033">
        <ele>197.8</ele>
        <time>2024-04-14T10:36:48Z</time>
      </trkpt>
      <trkpt lat="45.09999" lon="0.62039">
        <ele>197.7</ele>
        <time>2024-04-14T10:36:49Z</time>
      </trkpt>
      <trkpt lat="45.10001" lon="0.62045">
        <ele>197.7</ele>
        <time>2024-04-14T10:36:50Z</time>
      </trkpt>
      <trkpt lat="45.10005" lon="0.62056">
        <ele>197.4</ele>
        <time>2024-04-14T10:36:52Z</time>
      </trkpt>
      <trkpt lat="45.10008" lon="0.62062">
        <ele>197.3</ele>
        <time>2024-04-14T10:36:53Z</time>
      </trkpt>
      <trkpt lat="45.1001" lon="0.62068">
        <ele>197.2</ele>
        <time>2024-04-14T10:36:54Z</time>
      </trkpt>
      <trkpt lat="45.10014" lon="0.6208">
        <ele>196.9</ele>
        <time>2024-04-14T10:36:56Z</time>
      </trkpt>
      <trkpt lat="45.1002" lon="0.62092">
        <ele>196.6</ele>
        <time>2024-04-14T10:36:58Z</time>
      </trkpt>
      <trkpt lat="45.10023" lon="0.62099">
        <ele>196.5</ele>
        <time>2024-04-14T10:36:59Z</time>
      </trkpt>
      <trkpt lat="45.10025" lon="0.62105">
        <ele>196.4</ele>
        <time>2024-04-14T10:37:00Z</time>
      </trkpt>
      <trkpt lat="45.1003" lon="0.62115">
        <ele>196.2</ele>
        <time>2024-04-14T10:37:02Z</time>
      </trkpt>
      <trkpt lat="45.10034" lon="0.62122">
        <ele>196.2</ele>
        <time>2024-04-14T10:37:04Z</time>
      </trkpt>
      <trkpt lat="45.10036" lon="0.62125">
        <ele>196.3</ele>
        <time>2024-04-14T10:37:05Z</time>
      </trkpt>
      <trkpt lat="45.10039" lon="0.62126">
        <ele>196.4</ele>
        <time>2024-04-14T10:37:06Z</time>
      </trkpt>
      <trkpt lat="45.10046" lon="0.62129">
        <ele>196.6</ele>
        <time>2024-04-14T10:37:08Z</time>
      </trkpt>
      <trkpt lat="45.10049" lon="0.6213">
        <ele>196.7</ele>
        <time>2024-04-14T10:37:09Z</time>
      </trkpt>
      <trkpt lat="45.10052" lon="0.62132">
        <ele>196.8</ele>
        <time>2024-04-14T10:37:10Z</time>
      </trkpt>
      <trkpt lat="45.10059" lon="0.62135">
        <ele>197</ele>
        <time>2024-04-14T10:37:12Z</time>
      </trkpt>
      <trkpt lat="45.10062" lon="0.62137">
        <ele>197.2</ele>
        <time>2024-04-14T10:37:13Z</time>
      </trkpt>
      <trkpt lat="45.10065" lon="0.62139">
        <ele>197.3</ele>
        <time>2024-04-14T10:37:14Z</time>
      </trkpt>
      <trkpt lat="45.10068" lon="0.62141">
        <ele>197.4</ele>
        <time>2024-04-14T10:37:15Z</time>
      </trkpt>
      <trkpt lat="45.10072" lon="0.62143">
        <ele>197.5</ele>
        <time>2024-04-14T10:37:16Z</time>
      </trkpt>
      <trkpt lat="45.10075" lon="0.62145">
        <ele>197.7</ele>
        <time>2024-04-14T10:37:17Z</time>
      </trkpt>
      <trkpt lat="45.10078" lon="0.62147">
        <ele>197.8</ele>
        <time>2024-04-14T10:37:18Z</time>
      </trkpt>
      <trkpt lat="45.10083" lon="0.6215">
        <ele>198</ele>
        <time>2024-04-14T10:37:20Z</time>
      </trkpt>
      <trkpt lat="45.10089" lon="0.62154">
        <ele>198.2</ele>
        <time>2024-04-14T10:37:22Z</time>
      </trkpt>
      <trkpt lat="45.10094" lon="0.62158">
        <ele>198.3</ele>
        <time>2024-04-14T10:37:24Z</time>
      </trkpt>
      <trkpt lat="45.10099" lon="0.62161">
        <ele>198.5</ele>
        <time>2024-04-14T10:37:26Z</time>
      </trkpt>
      <trkpt lat="45.10104" lon="0.62166">
        <ele>198.7</ele>
        <time>2024-04-14T10:37:28Z</time>
      </trkpt>
      <trkpt lat="45.1011" lon="0.6217">
        <ele>198.9</ele>
        <time>2024-04-14T10:37:30Z</time>
      </trkpt>
      <trkpt lat="45.10116" lon="0.62173">
        <ele>199.1</ele>
        <time>2024-04-14T10:37:32Z</time>
      </trkpt>
      <trkpt lat="45.10119" lon="0.62174">
        <ele>199.2</ele>
        <time>2024-04-14T10:37:33Z</time>
      </trkpt>
      <trkpt lat="45.10122" lon="0.62176">
        <ele>199.4</ele>
        <time>2024-04-14T10:37:34Z</time>
      </trkpt>
      <trkpt lat="45.10129" lon="0.6218">
        <ele>199.6</ele>
        <time>2024-04-14T10:37:36Z</time>
      </trkpt>
      <trkpt lat="45.10135" lon="0.62185">
        <ele>199.8</ele>
        <time>2024-04-14T10:37:38Z</time>
      </trkpt>
      <trkpt lat="45.1014" lon="0.62189">
        <ele>200</ele>
        <time>2024-04-14T10:37:40Z</time>
      </trkpt>
      <trkpt lat="45.10145" lon="0.62193">
        <ele>200.2</ele>
        <time>2024-04-14T10:37:42Z</time>
      </trkpt>
      <trkpt lat="45.1015" lon="0.62197">
        <ele>200.5</ele>
        <time>2024-04-14T10:37:44Z</time>
      </trkpt>
      <trkpt lat="45.10156" lon="0.622">
        <ele>200.8</ele>
        <time>2024-04-14T10:37:46Z</time>
      </trkpt>
      <trkpt lat="45.10161" lon="0.62204">
        <ele>201</ele>
        <time>2024-04-14T10:37:48Z</time>
      </trkpt>
      <trkpt lat="45.10164" lon="0.62205">
        <ele>201.2</ele>
        <time>2024-04-14T10:37:49Z</time>
      </trkpt>
      <trkpt lat="45.10166" lon="0.62207">
        <ele>201.3</ele>
        <time>2024-04-14T10:37:50Z</time>
      </trkpt>
      <trkpt lat="45.10171" lon="0.62211">
        <ele>201.6</ele>
        <time>2024-04-14T10:37:52Z</time>
      </trkpt>
      <trkpt lat="45.10176" lon="0.62215">
        <ele>201.8</ele>
        <time>2024-04-14T10:37:54Z</time>
      </trkpt>
      <trkpt lat="45.10181" lon="0.62219">
        <ele>202.1</ele>
        <time>2024-04-14T10:37:56Z</time>
      </trkpt>
      <trkpt lat="45.10184" lon="0.62221">
        <ele>202.2</ele>
        <time>2024-04-14T10:37:57Z</time>
      </trkpt>
      <trkpt lat="45.10187" lon="0.62223">
        <ele>202.4</ele>
        <time>2024-04-14T10:37:58Z</time>
      </trkpt>
      <trkpt lat="45.10191" lon="0.62227">
        <ele>202.6</ele>
        <time>2024-04-14T10:38:00Z</time>
      </trkpt>
      <trkpt lat="45.10197" lon="0.62231">
        <ele>202.9</ele>
        <time>2024-04-14T10:38:02Z</time>
      </trkpt>
      <trkpt lat="45.10202" lon="0.62235">
        <ele>203.2</ele>
        <time>2024-04-14T10:38:04Z</time>
      </trkpt>
      <trkpt lat="45.10207" lon="0.6224">
        <ele>203.4</ele>
        <time>2024-04-14T10:38:06Z</time>
      </trkpt>
      <trkpt lat="45.10213" lon="0.62244">
        <ele>203.7</ele>
        <time>2024-04-14T10:38:08Z</time>
      </trkpt>
      <trkpt lat="45.10219" lon="0.62248">
        <ele>204</ele>
        <time>2024-04-14T10:38:10Z</time>
      </trkpt>
      <trkpt lat="45.10224" lon="0.62252">
        <ele>204.2</ele>
        <time>2024-04-14T10:38:12Z</time>
      </trkpt>
      <trkpt lat="45.1023" lon="0.62257">
        <ele>204.4</ele>
        <time>2024-04-14T10:38:14Z</time>
      </trkpt>
      <trkpt lat="45.10235" lon="0.62261">
        <ele>204.6</ele>
        <time>2024-04-14T10:38:16Z</time>
      </trkpt>
      <trkpt lat="45.1024" lon="0.62264">
        <ele>204.8</ele>
        <time>2024-04-14T10:38:18Z</time>
      </trkpt>
      <trkpt lat="45.10246" lon="0.62267">
        <ele>205</ele>
        <time>2024-04-14T10:38:20Z</time>
      </trkpt>
      <trkpt lat="45.1025" lon="0.62272">
        <ele>205.1</ele>
        <time>2024-04-14T10:38:22Z</time>
      </trkpt>
      <trkpt lat="45.10251" lon="0.62277">
        <ele>205.2</ele>
        <time>2024-04-14T10:38:24Z</time>
      </trkpt>
      <trkpt lat="45.10255" lon="0.62282">
        <ele>205.2</ele>
        <time>2024-04-14T10:38:26Z</time>
      </trkpt>
      <trkpt lat="45.1026" lon="0.62283">
        <ele>205.3</ele>
        <time>2024-04-14T10:38:27Z</time>
      </trkpt>
      <trkpt lat="45.10265" lon="0.62285">
        <ele>205.4</ele>
        <time>2024-04-14T10:38:28Z</time>
      </trkpt>
      <trkpt lat="45.10273" lon="0.6229">
        <ele>205.5</ele>
        <time>2024-04-14T10:38:30Z</time>
      </trkpt>
      <trkpt lat="45.1028" lon="0.62295">
        <ele>205.5</ele>
        <time>2024-04-14T10:38:32Z</time>
      </trkpt>
      <trkpt lat="45.10283" lon="0.62299">
        <ele>205.6</ele>
        <time>2024-04-14T10:38:33Z</time>
      </trkpt>
      <trkpt lat="45.10287" lon="0.62302">
        <ele>205.6</ele>
        <time>2024-04-14T10:38:34Z</time>
      </trkpt>
      <trkpt lat="45.10294" lon="0.62308">
        <ele>205.6</ele>
        <time>2024-04-14T10:38:36Z</time>
      </trkpt>
      <trkpt lat="45.103" lon="0.62316">
        <ele>205.7</ele>
        <time>2024-04-14T10:38:38Z</time>
      </trkpt>
      <trkpt lat="45.10307" lon="0.62324">
        <ele>205.8</ele>
        <time>2024-04-14T10:38:40Z</time>
      </trkpt>
      <trkpt lat="45.10314" lon="0.62331">
        <ele>205.9</ele>
        <time>2024-04-14T10:38:42Z</time>
      </trkpt>
      <trkpt lat="45.10316" lon="0.62335">
        <ele>206</ele>
        <time>2024-04-14T10:38:43Z</time>
      </trkpt>
      <trkpt lat="45.1032" lon="0.62339">
        <ele>206</ele>
        <time>2024-04-14T10:38:44Z</time>
      </trkpt>
      <trkpt lat="45.10326" lon="0.62347">
        <ele>206.2</ele>
        <time>2024-04-14T10:38:46Z</time>
      </trkpt>
      <trkpt lat="45.10333" lon="0.62356">
        <ele>206.3</ele>
        <time>2024-04-14T10:38:48Z</time>
      </trkpt>
      <trkpt lat="45.10335" lon="0.6236">
        <ele>206.3</ele>
        <time>2024-04-14T10:38:49Z</time>
      </trkpt>
      <trkpt lat="45.10338" lon="0.62364">
        <ele>206.4</ele>
        <time>2024-04-14T10:38:50Z</time>
      </trkpt>
      <trkpt lat="45.10344" lon="0.62372">
        <ele>206.5</ele>
        <time>2024-04-14T10:38:52Z</time>
      </trkpt>
      <trkpt lat="45.1035" lon="0.6238">
        <ele>206.6</ele>
        <time>2024-04-14T10:38:54Z</time>
      </trkpt>
      <trkpt lat="45.10356" lon="0.62387">
        <ele>206.6</ele>
        <time>2024-04-14T10:38:56Z</time>
      </trkpt>
      <trkpt lat="45.10364" lon="0.62396">
        <ele>206.5</ele>
        <time>2024-04-14T10:38:58Z</time>
      </trkpt>
      <trkpt lat="45.10367" lon="0.62401">
        <ele>206.4</ele>
        <time>2024-04-14T10:38:59Z</time>
      </trkpt>
      <trkpt lat="45.10371" lon="0.62406">
        <ele>206.3</ele>
        <time>2024-04-14T10:39:00Z</time>
      </trkpt>
      <trkpt lat="45.10379" lon="0.62414">
        <ele>206.1</ele>
        <time>2024-04-14T10:39:02Z</time>
      </trkpt>
      <trkpt lat="45.10387" lon="0.62423">
        <ele>205.9</ele>
        <time>2024-04-14T10:39:04Z</time>
      </trkpt>
      <trkpt lat="45.10391" lon="0.62429">
        <ele>205.7</ele>
        <time>2024-04-14T10:39:05Z</time>
      </trkpt>
      <trkpt lat="45.10394" lon="0.62434">
        <ele>205.5</ele>
        <time>2024-04-14T10:39:06Z</time>
      </trkpt>
      <trkpt lat="45.10398" lon="0.62439">
        <ele>205.3</ele>
        <time>2024-04-14T10:39:07Z</time>
      </trkpt>
      <trkpt lat="45.10402" lon="0.62444">
        <ele>205.1</ele>
        <time>2024-04-14T10:39:08Z</time>
      </trkpt>
      <trkpt lat="45.10411" lon="0.62453">
        <ele>204.7</ele>
        <time>2024-04-14T10:39:10Z</time>
      </trkpt>
      <trkpt lat="45.10421" lon="0.62464">
        <ele>204.1</ele>
        <time>2024-04-14T10:39:12Z</time>
      </trkpt>
      <trkpt lat="45.10432" lon="0.62475">
        <ele>203.8</ele>
        <time>2024-04-14T10:39:14Z</time>
      </trkpt>
      <trkpt lat="45.10442" lon="0.62486">
        <ele>203.6</ele>
        <time>2024-04-14T10:39:16Z</time>
      </trkpt>
      <trkpt lat="45.10452" lon="0.62497">
        <ele>203.4</ele>
        <time>2024-04-14T10:39:18Z</time>
      </trkpt>
      <trkpt lat="45.10462" lon="0.62508">
        <ele>203.3</ele>
        <time>2024-04-14T10:39:20Z</time>
      </trkpt>
      <trkpt lat="45.10471" lon="0.62518">
        <ele>203.3</ele>
        <time>2024-04-14T10:39:22Z</time>
      </trkpt>
      <trkpt lat="45.10476" lon="0.62522">
        <ele>203.2</ele>
        <time>2024-04-14T10:39:23Z</time>
      </trkpt>
      <trkpt lat="45.10481" lon="0.62526">
        <ele>203.2</ele>
        <time>2024-04-14T10:39:24Z</time>
      </trkpt>
      <trkpt lat="45.10485" lon="0.6253">
        <ele>203.1</ele>
        <time>2024-04-14T10:39:25Z</time>
      </trkpt>
      <trkpt lat="45.10489" lon="0.62534">
        <ele>203.1</ele>
        <time>2024-04-14T10:39:26Z</time>
      </trkpt>
      <trkpt lat="45.10492" lon="0.62538">
        <ele>203</ele>
        <time>2024-04-14T10:39:27Z</time>
      </trkpt>
      <trkpt lat="45.10495" lon="0.62542">
        <ele>203</ele>
        <time>2024-04-14T10:39:28Z</time>
      </trkpt>
      <trkpt lat="45.10503" lon="0.62551">
        <ele>202.9</ele>
        <time>2024-04-14T10:39:30Z</time>
      </trkpt>
      <trkpt lat="45.10506" lon="0.62555">
        <ele>202.9</ele>
        <time>2024-04-14T10:39:31Z</time>
      </trkpt>
      <trkpt lat="45.1051" lon="0.6256">
        <ele>202.9</ele>
        <time>2024-04-14T10:39:32Z</time>
      </trkpt>
      <trkpt lat="45.10518" lon="0.6257">
        <ele>203</ele>
        <time>2024-04-14T10:39:34Z</time>
      </trkpt>
      <trkpt lat="45.10522" lon="0.62574">
        <ele>203</ele>
        <time>2024-04-14T10:39:35Z</time>
      </trkpt>
      <trkpt lat="45.10526" lon="0.62578">
        <ele>203.1</ele>
        <time>2024-04-14T10:39:36Z</time>
      </trkpt>
      <trkpt lat="45.10533" lon="0.62587">
        <ele>203.2</ele>
        <time>2024-04-14T10:39:38Z</time>
      </trkpt>
      <trkpt lat="45.10542" lon="0.62594">
        <ele>203.4</ele>
        <time>2024-04-14T10:39:40Z</time>
      </trkpt>
      <trkpt lat="45.1055" lon="0.62601">
        <ele>203.5</ele>
        <time>2024-04-14T10:39:42Z</time>
      </trkpt>
      <trkpt lat="45.10559" lon="0.62606">
        <ele>203.7</ele>
        <time>2024-04-14T10:39:44Z</time>
      </trkpt>
      <trkpt lat="45.10568" lon="0.62612">
        <ele>203.9</ele>
        <time>2024-04-14T10:39:46Z</time>
      </trkpt>
      <trkpt lat="45.10577" lon="0.62619">
        <ele>204.1</ele>
        <time>2024-04-14T10:39:48Z</time>
      </trkpt>
      <trkpt lat="45.10586" lon="0.62627">
        <ele>204.4</ele>
        <time>2024-04-14T10:39:50Z</time>
      </trkpt>
      <trkpt lat="45.10591" lon="0.6263">
        <ele>204.5</ele>
        <time>2024-04-14T10:39:51Z</time>
      </trkpt>
      <trkpt lat="45.10595" lon="0.62633">
        <ele>204.6</ele>
        <time>2024-04-14T10:39:52Z</time>
      </trkpt>
      <trkpt lat="45.10603" lon="0.62639">
        <ele>204.8</ele>
        <time>2024-04-14T10:39:54Z</time>
      </trkpt>
      <trkpt lat="45.10607" lon="0.62642">
        <ele>204.8</ele>
        <time>2024-04-14T10:39:55Z</time>
      </trkpt>
      <trkpt lat="45.10611" lon="0.62644">
        <ele>204.9</ele>
        <time>2024-04-14T10:39:56Z</time>
      </trkpt>
      <trkpt lat="45.10617" lon="0.6265">
        <ele>205</ele>
        <time>2024-04-14T10:39:58Z</time>
      </trkpt>
      <trkpt lat="45.1062" lon="0.62653">
        <ele>205.1</ele>
        <time>2024-04-14T10:39:59Z</time>
      </trkpt>
      <trkpt lat="45.10623" lon="0.62657">
        <ele>205.1</ele>
        <time>2024-04-14T10:40:00Z</time>
      </trkpt>
      <trkpt lat="45.10631" lon="0.62663">
        <ele>205.2</ele>
        <time>2024-04-14T10:40:02Z</time>
      </trkpt>
      <trkpt lat="45.10635" lon="0.62667">
        <ele>205.2</ele>
        <time>2024-04-14T10:40:03Z</time>
      </trkpt>
      <trkpt lat="45.10638" lon="0.6267">
        <ele>205.2</ele>
        <time>2024-04-14T10:40:04Z</time>
      </trkpt>
      <trkpt lat="45.10642" lon="0.62673">
        <ele>205.2</ele>
        <time>2024-04-14T10:40:05Z</time>
      </trkpt>
      <trkpt lat="45.10646" lon="0.62677">
        <ele>205.2</ele>
        <time>2024-04-14T10:40:06Z</time>
      </trkpt>
      <trkpt lat="45.10649" lon="0.6268">
        <ele>205.2</ele>
        <time>2024-04-14T10:40:07Z</time>
      </trkpt>
      <trkpt lat="45.10653" lon="0.62684">
        <ele>205.2</ele>
        <time>2024-04-14T10:40:08Z</time>
      </trkpt>
      <trkpt lat="45.10657" lon="0.62687">
        <ele>205.3</ele>
        <time>2024-04-14T10:40:09Z</time>
      </trkpt>
      <trkpt lat="45.1066" lon="0.62691">
        <ele>205.3</ele>
        <time>2024-04-14T10:40:10Z</time>
      </trkpt>
      <trkpt lat="45.10667" lon="0.62694">
        <ele>205.4</ele>
        <time>2024-04-14T10:40:12Z</time>
      </trkpt>
      <trkpt lat="45.1067" lon="0.62693">
        <ele>205.6</ele>
        <time>2024-04-14T10:40:13Z</time>
      </trkpt>
      <trkpt lat="45.10673" lon="0.6269">
        <ele>205.7</ele>
        <time>2024-04-14T10:40:14Z</time>
      </trkpt>
      <trkpt lat="45.10679" lon="0.62683">
        <ele>206.2</ele>
        <time>2024-04-14T10:40:16Z</time>
      </trkpt>
      <trkpt lat="45.10681" lon="0.62679">
        <ele>206.3</ele>
        <time>2024-04-14T10:40:17Z</time>
      </trkpt>
      <trkpt lat="45.10684" lon="0.62675">
        <ele>206.5</ele>
        <time>2024-04-14T10:40:18Z</time>
      </trkpt>
      <trkpt lat="45.10689" lon="0.62669">
        <ele>206.8</ele>
        <time>2024-04-14T10:40:20Z</time>
      </trkpt>
      <trkpt lat="45.10692" lon="0.62662">
        <ele>207.2</ele>
        <time>2024-04-14T10:40:22Z</time>
      </trkpt>
      <trkpt lat="45.10696" lon="0.62655">
        <ele>207.5</ele>
        <time>2024-04-14T10:40:24Z</time>
      </trkpt>
      <trkpt lat="45.107" lon="0.62648">
        <ele>207.9</ele>
        <time>2024-04-14T10:40:26Z</time>
      </trkpt>
      <trkpt lat="45.10702" lon="0.62645">
        <ele>208.2</ele>
        <time>2024-04-14T10:40:27Z</time>
      </trkpt>
      <trkpt lat="45.10704" lon="0.62641">
        <ele>208.4</ele>
        <time>2024-04-14T10:40:28Z</time>
      </trkpt>
      <trkpt lat="45.10707" lon="0.6264">
        <ele>208.6</ele>
        <time>2024-04-14T10:40:29Z</time>
      </trkpt>
      <trkpt lat="45.1071" lon="0.62641">
        <ele>208.8</ele>
        <time>2024-04-14T10:40:30Z</time>
      </trkpt>
      <trkpt lat="45.10713" lon="0.62644">
        <ele>208.9</ele>
        <time>2024-04-14T10:40:31Z</time>
      </trkpt>
      <trkpt lat="45.10716" lon="0.62647">
        <ele>208.9</ele>
        <time>2024-04-14T10:40:32Z</time>
      </trkpt>
      <trkpt lat="45.10722" lon="0.62654">
        <ele>208.9</ele>
        <time>2024-04-14T10:40:34Z</time>
      </trkpt>
      <trkpt lat="45.10727" lon="0.62661">
        <ele>209</ele>
        <time>2024-04-14T10:40:36Z</time>
      </trkpt>
      <trkpt lat="45.10733" lon="0.62668">
        <ele>209</ele>
        <time>2024-04-14T10:40:38Z</time>
      </trkpt>
      <trkpt lat="45.10739" lon="0.62676">
        <ele>209</ele>
        <time>2024-04-14T10:40:40Z</time>
      </trkpt>
      <trkpt lat="45.10744" lon="0.62684">
        <ele>209.1</ele>
        <time>2024-04-14T10:40:42Z</time>
      </trkpt>
      <trkpt lat="45.1075" lon="0.62692">
        <ele>209.2</ele>
        <time>2024-04-14T10:40:44Z</time>
      </trkpt>
      <trkpt lat="45.10755" lon="0.627">
        <ele>209.3</ele>
        <time>2024-04-14T10:40:46Z</time>
      </trkpt>
      <trkpt lat="45.10762" lon="0.62706">
        <ele>209.5</ele>
        <time>2024-04-14T10:40:48Z</time>
      </trkpt>
      <trkpt lat="45.10766" lon="0.62709">
        <ele>209.5</ele>
        <time>2024-04-14T10:40:49Z</time>
      </trkpt>
      <trkpt lat="45.10769" lon="0.62711">
        <ele>209.6</ele>
        <time>2024-04-14T10:40:50Z</time>
      </trkpt>
      <trkpt lat="45.10776" lon="0.62715">
        <ele>209.8</ele>
        <time>2024-04-14T10:40:52Z</time>
      </trkpt>
      <trkpt lat="45.10783" lon="0.6272">
        <ele>209.9</ele>
        <time>2024-04-14T10:40:54Z</time>
      </trkpt>
      <trkpt lat="45.1079" lon="0.62725">
        <ele>210</ele>
        <time>2024-04-14T10:40:56Z</time>
      </trkpt>
      <trkpt lat="45.10796" lon="0.62733">
        <ele>210</ele>
        <time>2024-04-14T10:40:58Z</time>
      </trkpt>
      <trkpt lat="45.108" lon="0.62741">
        <ele>210.1</ele>
        <time>2024-04-14T10:41:00Z</time>
      </trkpt>
      <trkpt lat="45.10803" lon="0.62746">
        <ele>210</ele>
        <time>2024-04-14T10:41:01Z</time>
      </trkpt>
      <trkpt lat="45.10806" lon="0.6275">
        <ele>210</ele>
        <time>2024-04-14T10:41:02Z</time>
      </trkpt>
      <trkpt lat="45.1081" lon="0.62759">
        <ele>209.9</ele>
        <time>2024-04-14T10:41:04Z</time>
      </trkpt>
      <trkpt lat="45.10814" lon="0.62768">
        <ele>209.8</ele>
        <time>2024-04-14T10:41:06Z</time>
      </trkpt>
      <trkpt lat="45.10819" lon="0.62777">
        <ele>209.7</ele>
        <time>2024-04-14T10:41:08Z</time>
      </trkpt>
      <trkpt lat="45.10822" lon="0.6278">
        <ele>209.7</ele>
        <time>2024-04-14T10:41:09Z</time>
      </trkpt>
      <trkpt lat="45.10826" lon="0.62784">
        <ele>209.6</ele>
        <time>2024-04-14T10:41:10Z</time>
      </trkpt>
      <trkpt lat="45.10833" lon="0.62792">
        <ele>209.3</ele>
        <time>2024-04-14T10:41:12Z</time>
      </trkpt>
      <trkpt lat="45.10841" lon="0.62801">
        <ele>209</ele>
        <time>2024-04-14T10:41:14Z</time>
      </trkpt>
      <trkpt lat="45.10846" lon="0.62811">
        <ele>208.7</ele>
        <time>2024-04-14T10:41:16Z</time>
      </trkpt>
      <trkpt lat="45.10851" lon="0.6282">
        <ele>208.3</ele>
        <time>2024-04-14T10:41:18Z</time>
      </trkpt>
      <trkpt lat="45.10854" lon="0.62825">
        <ele>208.1</ele>
        <time>2024-04-14T10:41:19Z</time>
      </trkpt>
      <trkpt lat="45.10856" lon="0.6283">
        <ele>207.9</ele>
        <time>2024-04-14T10:41:20Z</time>
      </trkpt>
      <trkpt lat="45.10859" lon="0.62841">
        <ele>207.6</ele>
        <time>2024-04-14T10:41:22Z</time>
      </trkpt>
      <trkpt lat="45.1086" lon="0.62853">
        <ele>207.4</ele>
        <time>2024-04-14T10:41:24Z</time>
      </trkpt>
      <trkpt lat="45.10861" lon="0.62866">
        <ele>207</ele>
        <time>2024-04-14T10:41:26Z</time>
      </trkpt>
      <trkpt lat="45.10863" lon="0.6288">
        <ele>206.8</ele>
        <time>2024-04-14T10:41:28Z</time>
      </trkpt>
      <trkpt lat="45.10865" lon="0.62892">
        <ele>206.5</ele>
        <time>2024-04-14T10:41:30Z</time>
      </trkpt>
      <trkpt lat="45.10865" lon="0.62897">
        <ele>206.4</ele>
        <time>2024-04-14T10:41:31Z</time>
      </trkpt>
      <trkpt lat="45.10864" lon="0.62901">
        <ele>206.3</ele>
        <time>2024-04-14T10:41:32Z</time>
      </trkpt>
      <trkpt lat="45.1086" lon="0.62909">
        <ele>206</ele>
        <time>2024-04-14T10:41:34Z</time>
      </trkpt>
      <trkpt lat="45.10856" lon="0.62918">
        <ele>205.5</ele>
        <time>2024-04-14T10:41:36Z</time>
      </trkpt>
      <trkpt lat="45.10855" lon="0.62924">
        <ele>205.3</ele>
        <time>2024-04-14T10:41:38Z</time>
      </trkpt>
      <trkpt lat="45.10855" lon="0.62929">
        <ele>205.1</ele>
        <time>2024-04-14T10:41:40Z</time>
      </trkpt>
      <trkpt lat="45.10857" lon="0.62933">
        <ele>205.2</ele>
        <time>2024-04-14T10:41:42Z</time>
      </trkpt>
      <trkpt lat="45.10862" lon="0.62937">
        <ele>205.2</ele>
        <time>2024-04-14T10:41:44Z</time>
      </trkpt>
      <trkpt lat="45.10867" lon="0.62942">
        <ele>205.3</ele>
        <time>2024-04-14T10:41:46Z</time>
      </trkpt>
      <trkpt lat="45.10872" lon="0.62948">
        <ele>205.3</ele>
        <time>2024-04-14T10:41:48Z</time>
      </trkpt>
      <trkpt lat="45.10878" lon="0.62953">
        <ele>205.4</ele>
        <time>2024-04-14T10:41:50Z</time>
      </trkpt>
      <trkpt lat="45.10884" lon="0.62959">
        <ele>205.4</ele>
        <time>2024-04-14T10:41:52Z</time>
      </trkpt>
      <trkpt lat="45.10891" lon="0.62966">
        <ele>205.3</ele>
        <time>2024-04-14T10:41:54Z</time>
      </trkpt>
      <trkpt lat="45.10899" lon="0.62972">
        <ele>205.2</ele>
        <time>2024-04-14T10:41:56Z</time>
      </trkpt>
      <trkpt lat="45.10907" lon="0.62977">
        <ele>205.1</ele>
        <time>2024-04-14T10:41:58Z</time>
      </trkpt>
      <trkpt lat="45.10915" lon="0.62984">
        <ele>204.9</ele>
        <time>2024-04-14T10:42:00Z</time>
      </trkpt>
      <trkpt lat="45.10919" lon="0.62987">
        <ele>204.7</ele>
        <time>2024-04-14T10:42:01Z</time>
      </trkpt>
      <trkpt lat="45.10924" lon="0.6299">
        <ele>204.6</ele>
        <time>2024-04-14T10:42:02Z</time>
      </trkpt>
      <trkpt lat="45.10933" lon="0.62995">
        <ele>204.3</ele>
        <time>2024-04-14T10:42:04Z</time>
      </trkpt>
      <trkpt lat="45.10942" lon="0.63001">
        <ele>204</ele>
        <time>2024-04-14T10:42:06Z</time>
      </trkpt>
      <trkpt lat="45.10949" lon="0.63006">
        <ele>203.7</ele>
        <time>2024-04-14T10:42:08Z</time>
      </trkpt>
      <trkpt lat="45.10951" lon="0.63009">
        <ele>203.6</ele>
        <time>2024-04-14T10:42:09Z</time>
      </trkpt>
      <trkpt lat="45.10951" lon="0.63013">
        <ele>203.5</ele>
        <time>2024-04-14T10:42:10Z</time>
      </trkpt>
      <trkpt lat="45.10949" lon="0.63018">
        <ele>203.5</ele>
        <time>2024-04-14T10:42:11Z</time>
      </trkpt>
      <trkpt lat="45.10947" lon="0.63022">
        <ele>203.4</ele>
        <time>2024-04-14T10:42:12Z</time>
      </trkpt>
      <trkpt lat="45.10943" lon="0.63027">
        <ele>203.2</ele>
        <time>2024-04-14T10:42:13Z</time>
      </trkpt>
      <trkpt lat="45.1094" lon="0.6303">
        <ele>203.1</ele>
        <time>2024-04-14T10:42:14Z</time>
      </trkpt>
      <trkpt lat="45.10936" lon="0.63034">
        <ele>202.8</ele>
        <time>2024-04-14T10:42:15Z</time>
      </trkpt>
      <trkpt lat="45.10932" lon="0.63037">
        <ele>202.7</ele>
        <time>2024-04-14T10:42:16Z</time>
      </trkpt>
      <trkpt lat="45.10929" lon="0.6304">
        <ele>202.4</ele>
        <time>2024-04-14T10:42:17Z</time>
      </trkpt>
      <trkpt lat="45.10927" lon="0.63042">
        <ele>202.3</ele>
        <time>2024-04-14T10:42:18Z</time>
      </trkpt>
      <trkpt lat="45.10926" lon="0.63043">
        <ele>202.2</ele>
        <time>2024-04-14T10:42:19Z</time>
      </trkpt>
      <trkpt lat="45.10924" lon="0.63044">
        <ele>202.1</ele>
        <time>2024-04-14T10:42:20Z</time>
      </trkpt>
      <trkpt lat="45.10921" lon="0.63046">
        <ele>201.8</ele>
        <time>2024-04-14T10:42:22Z</time>
      </trkpt>
      <trkpt lat="45.10918" lon="0.63048">
        <ele>201.5</ele>
        <time>2024-04-14T10:42:24Z</time>
      </trkpt>
      <trkpt lat="45.10915" lon="0.6305">
        <ele>201.5</ele>
        <time>2024-04-14T10:42:26Z</time>
      </trkpt>
      <trkpt lat="45.10913" lon="0.63052">
        <ele>201.2</ele>
        <time>2024-04-14T10:42:28Z</time>
      </trkpt>
      <trkpt lat="45.1091" lon="0.63053">
        <ele>201</ele>
        <time>2024-04-14T10:42:30Z</time>
      </trkpt>
      <trkpt lat="45.10908" lon="0.63055">
        <ele>200.9</ele>
        <time>2024-04-14T10:42:32Z</time>
      </trkpt>
      <trkpt lat="45.10905" lon="0.63057">
        <ele>200.6</ele>
        <time>2024-04-14T10:42:34Z</time>
      </trkpt>
      <trkpt lat="45.10903" lon="0.63058">
        <ele>200.5</ele>
        <time>2024-04-14T10:42:35Z</time>
      </trkpt>
      <trkpt lat="45.10902" lon="0.63059">
        <ele>200.4</ele>
        <time>2024-04-14T10:42:36Z</time>
      </trkpt>
      <trkpt lat="45.109" lon="0.6306">
        <ele>200.1</ele>
        <time>2024-04-14T10:42:38Z</time>
      </trkpt>
      <trkpt lat="45.10896" lon="0.63063">
        <ele>199.9</ele>
        <time>2024-04-14T10:42:40Z</time>
      </trkpt>
      <trkpt lat="45.10894" lon="0.63064">
        <ele>199.7</ele>
        <time>2024-04-14T10:42:41Z</time>
      </trkpt>
      <trkpt lat="45.10893" lon="0.63066">
        <ele>199.5</ele>
        <time>2024-04-14T10:42:42Z</time>
      </trkpt>
      <trkpt lat="45.10889" lon="0.63069">
        <ele>199.2</ele>
        <time>2024-04-14T10:42:44Z</time>
      </trkpt>
      <trkpt lat="45.10885" lon="0.63073">
        <ele>198.8</ele>
        <time>2024-04-14T10:42:46Z</time>
      </trkpt>
      <trkpt lat="45.10884" lon="0.63075">
        <ele>198.6</ele>
        <time>2024-04-14T10:42:47Z</time>
      </trkpt>
      <trkpt lat="45.10882" lon="0.63077">
        <ele>198.6</ele>
        <time>2024-04-14T10:42:48Z</time>
      </trkpt>
      <trkpt lat="45.10879" lon="0.63082">
        <ele>198.2</ele>
        <time>2024-04-14T10:42:50Z</time>
      </trkpt>
      <trkpt lat="45.10878" lon="0.63088">
        <ele>198</ele>
        <time>2024-04-14T10:42:52Z</time>
      </trkpt>
      <trkpt lat="45.10877" lon="0.63094">
        <ele>197.8</ele>
        <time>2024-04-14T10:42:54Z</time>
      </trkpt>
      <trkpt lat="45.10875" lon="0.63099">
        <ele>197.5</ele>
        <time>2024-04-14T10:42:56Z</time>
      </trkpt>
      <trkpt lat="45.10875" lon="0.63103">
        <ele>197.5</ele>
        <time>2024-04-14T10:42:57Z</time>
      </trkpt>
      <trkpt lat="45.10875" lon="0.63106">
        <ele>197.4</ele>
        <time>2024-04-14T10:42:58Z</time>
      </trkpt>
      <trkpt lat="45.10875" lon="0.63116">
        <ele>197</ele>
        <time>2024-04-14T10:43:00Z</time>
      </trkpt>
      <trkpt lat="45.10875" lon="0.63122">
        <ele>196.9</ele>
        <time>2024-04-14T10:43:01Z</time>
      </trkpt>
      <trkpt lat="45.10875" lon="0.63128">
        <ele>196.8</ele>
        <time>2024-04-14T10:43:02Z</time>
      </trkpt>
      <trkpt lat="45.10876" lon="0.63136">
        <ele>196.8</ele>
        <time>2024-04-14T10:43:04Z</time>
      </trkpt>
      <trkpt lat="45.10877" lon="0.63139">
        <ele>196.7</ele>
        <time>2024-04-14T10:43:05Z</time>
      </trkpt>
      <trkpt lat="45.10877" lon="0.63142">
        <ele>196.7</ele>
        <time>2024-04-14T10:43:06Z</time>
      </trkpt>
      <trkpt lat="45.10879" lon="0.63147">
        <ele>196.7</ele>
        <time>2024-04-14T10:43:08Z</time>
      </trkpt>
      <trkpt lat="45.1088" lon="0.63151">
        <ele>196.7</ele>
        <time>2024-04-14T10:43:09Z</time>
      </trkpt>
      <trkpt lat="45.1088" lon="0.63154">
        <ele>196.6</ele>
        <time>2024-04-14T10:43:10Z</time>
      </trkpt>
      <trkpt lat="45.10882" lon="0.63161">
        <ele>196.7</ele>
        <time>2024-04-14T10:43:12Z</time>
      </trkpt>
      <trkpt lat="45.10882" lon="0.63163">
        <ele>196.7</ele>
        <time>2024-04-14T10:43:13Z</time>
      </trkpt>
      <trkpt lat="45.10883" lon="0.63165">
        <ele>196.7</ele>
        <time>2024-04-14T10:43:14Z</time>
      </trkpt>
      <trkpt lat="45.10883" lon="0.63166">
        <ele>196.6</ele>
        <time>2024-04-14T10:43:16Z</time>
      </trkpt>
      <trkpt lat="45.10882" lon="0.6317">
        <ele>196.6</ele>
        <time>2024-04-14T10:43:18Z</time>
      </trkpt>
      <trkpt lat="45.10881" lon="0.63183">
        <ele>196.5</ele>
        <time>2024-04-14T10:43:20Z</time>
      </trkpt>
      <trkpt lat="45.10878" lon="0.63193">
        <ele>196.6</ele>
        <time>2024-04-14T10:43:22Z</time>
      </trkpt>
      <trkpt lat="45.10875" lon="0.63199">
        <ele>196.6</ele>
        <time>2024-04-14T10:43:23Z</time>
      </trkpt>
      <trkpt lat="45.10872" lon="0.63207">
        <ele>196.7</ele>
        <time>2024-04-14T10:43:24Z</time>
      </trkpt>
      <trkpt lat="45.10869" lon="0.63212">
        <ele>196.7</ele>
        <time>2024-04-14T10:43:25Z</time>
      </trkpt>
      <trkpt lat="45.10866" lon="0.63216">
        <ele>196.8</ele>
        <time>2024-04-14T10:43:26Z</time>
      </trkpt>
      <trkpt lat="45.1086" lon="0.63221">
        <ele>196.9</ele>
        <time>2024-04-14T10:43:28Z</time>
      </trkpt>
      <trkpt lat="45.10855" lon="0.63225">
        <ele>197.1</ele>
        <time>2024-04-14T10:43:30Z</time>
      </trkpt>
      <trkpt lat="45.10852" lon="0.63227">
        <ele>197.3</ele>
        <time>2024-04-14T10:43:31Z</time>
      </trkpt>
      <trkpt lat="45.1085" lon="0.63229">
        <ele>197.3</ele>
        <time>2024-04-14T10:43:32Z</time>
      </trkpt>
      <trkpt lat="45.10847" lon="0.63232">
        <ele>197.5</ele>
        <time>2024-04-14T10:43:34Z</time>
      </trkpt>
      <trkpt lat="45.10844" lon="0.63232">
        <ele>197.4</ele>
        <time>2024-04-14T10:43:35Z</time>
      </trkpt>
      <trkpt lat="45.10842" lon="0.63232">
        <ele>197.4</ele>
        <time>2024-04-14T10:43:36Z</time>
      </trkpt>
      <trkpt lat="45.10836" lon="0.63233">
        <ele>197.4</ele>
        <time>2024-04-14T10:43:38Z</time>
      </trkpt>
      <trkpt lat="45.10831" lon="0.63233">
        <ele>197.4</ele>
        <time>2024-04-14T10:43:40Z</time>
      </trkpt>
      <trkpt lat="45.10827" lon="0.63233">
        <ele>197.4</ele>
        <time>2024-04-14T10:43:42Z</time>
      </trkpt>
      <trkpt lat="45.10824" lon="0.63233">
        <ele>197.5</ele>
        <time>2024-04-14T10:43:44Z</time>
      </trkpt>
      <trkpt lat="45.10822" lon="0.63234">
        <ele>197.5</ele>
        <time>2024-04-14T10:43:45Z</time>
      </trkpt>
      <trkpt lat="45.1082" lon="0.63234">
        <ele>197.6</ele>
        <time>2024-04-14T10:43:46Z</time>
      </trkpt>
      <trkpt lat="45.10817" lon="0.63235">
        <ele>197.7</ele>
        <time>2024-04-14T10:43:48Z</time>
      </trkpt>
      <trkpt lat="45.10813" lon="0.63235">
        <ele>197.9</ele>
        <time>2024-04-14T10:43:50Z</time>
      </trkpt>
      <trkpt lat="45.10812" lon="0.63236">
        <ele>198</ele>
        <time>2024-04-14T10:43:51Z</time>
      </trkpt>
      <trkpt lat="45.1081" lon="0.63236">
        <ele>198.2</ele>
        <time>2024-04-14T10:43:52Z</time>
      </trkpt>
      <trkpt lat="45.10808" lon="0.63239">
        <ele>198.4</ele>
        <time>2024-04-14T10:43:54Z</time>
      </trkpt>
      <trkpt lat="45.10808" lon="0.6324">
        <ele>198.4</ele>
        <time>2024-04-14T10:43:55Z</time>
      </trkpt>
      <trkpt lat="45.10808" lon="0.6324">
        <ele>198.4</ele>
        <time>2024-04-14T10:43:56Z</time>
      </trkpt>
      <trkpt lat="45.10812" lon="0.63242">
        <ele>198.4</ele>
        <time>2024-04-14T10:44:07Z</time>
      </trkpt>
      <trkpt lat="45.10813" lon="0.63244">
        <ele>198.2</ele>
        <time>2024-04-14T10:44:08Z</time>
      </trkpt>
      <trkpt lat="45.10817" lon="0.63247">
        <ele>198.3</ele>
        <time>2024-04-14T10:44:10Z</time>
      </trkpt>
      <trkpt lat="45.10819" lon="0.6325">
        <ele>198.3</ele>
        <time>2024-04-14T10:44:11Z</time>
      </trkpt>
      <trkpt lat="45.10822" lon="0.63252">
        <ele>198.2</ele>
        <time>2024-04-14T10:44:12Z</time>
      </trkpt>
      <trkpt lat="45.10827" lon="0.63256">
        <ele>198.2</ele>
        <time>2024-04-14T10:44:14Z</time>
      </trkpt>
      <trkpt lat="45.10833" lon="0.63259">
        <ele>198.3</ele>
        <time>2024-04-14T10:44:16Z</time>
      </trkpt>
      <trkpt lat="45.10838" lon="0.63259">
        <ele>198.2</ele>
        <time>2024-04-14T10:44:18Z</time>
      </trkpt>
      <trkpt lat="45.10841" lon="0.6326">
        <ele>198.1</ele>
        <time>2024-04-14T10:44:19Z</time>
      </trkpt>
      <trkpt lat="45.10845" lon="0.63261">
        <ele>198.1</ele>
        <time>2024-04-14T10:44:20Z</time>
      </trkpt>
      <trkpt lat="45.10851" lon="0.63264">
        <ele>198.1</ele>
        <time>2024-04-14T10:44:22Z</time>
      </trkpt>
      <trkpt lat="45.10856" lon="0.63265">
        <ele>198.1</ele>
        <time>2024-04-14T10:44:24Z</time>
      </trkpt>
      <trkpt lat="45.10858" lon="0.63266">
        <ele>198</ele>
        <time>2024-04-14T10:44:25Z</time>
      </trkpt>
      <trkpt lat="45.10859" lon="0.63267">
        <ele>198.1</ele>
        <time>2024-04-14T10:44:26Z</time>
      </trkpt>
      <trkpt lat="45.10862" lon="0.63267">
        <ele>198.1</ele>
        <time>2024-04-14T10:44:28Z</time>
      </trkpt>
      <trkpt lat="45.10867" lon="0.63268">
        <ele>198.1</ele>
        <time>2024-04-14T10:44:30Z</time>
      </trkpt>
      <trkpt lat="45.10872" lon="0.63269">
        <ele>198.1</ele>
        <time>2024-04-14T10:44:32Z</time>
      </trkpt>
      <trkpt lat="45.10876" lon="0.6327">
        <ele>198</ele>
        <time>2024-04-14T10:44:34Z</time>
      </trkpt>
      <trkpt lat="45.10878" lon="0.63271">
        <ele>198.1</ele>
        <time>2024-04-14T10:44:35Z</time>
      </trkpt>
      <trkpt lat="45.1088" lon="0.63271">
        <ele>198.1</ele>
        <time>2024-04-14T10:44:36Z</time>
      </trkpt>
      <trkpt lat="45.10882" lon="0.63271">
        <ele>198.1</ele>
        <time>2024-04-14T10:44:37Z</time>
      </trkpt>
      <trkpt lat="45.10884" lon="0.63271">
        <ele>198.1</ele>
        <time>2024-04-14T10:44:38Z</time>
      </trkpt>
      <trkpt lat="45.10887" lon="0.63271">
        <ele>198.1</ele>
        <time>2024-04-14T10:44:39Z</time>
      </trkpt>
      <trkpt lat="45.10889" lon="0.63272">
        <ele>198.1</ele>
        <time>2024-04-14T10:44:40Z</time>
      </trkpt>
      <trkpt lat="45.10893" lon="0.63272">
        <ele>198.1</ele>
        <time>2024-04-14T10:44:42Z</time>
      </trkpt>
      <trkpt lat="45.10895" lon="0.63272">
        <ele>198.2</ele>
        <time>2024-04-14T10:44:43Z</time>
      </trkpt>
      <trkpt lat="45.10897" lon="0.63273">
        <ele>198.1</ele>
        <time>2024-04-14T10:44:44Z</time>
      </trkpt>
      <trkpt lat="45.109" lon="0.63274">
        <ele>198.2</ele>
        <time>2024-04-14T10:44:46Z</time>
      </trkpt>
      <trkpt lat="45.10904" lon="0.63275">
        <ele>198.4</ele>
        <time>2024-04-14T10:44:48Z</time>
      </trkpt>
      <trkpt lat="45.10906" lon="0.63276">
        <ele>198.4</ele>
        <time>2024-04-14T10:44:49Z</time>
      </trkpt>
      <trkpt lat="45.10908" lon="0.63276">
        <ele>198.4</ele>
        <time>2024-04-14T10:44:50Z</time>
      </trkpt>
      <trkpt lat="45.10912" lon="0.63276">
        <ele>198.6</ele>
        <time>2024-04-14T10:44:52Z</time>
      </trkpt>
      <trkpt lat="45.10916" lon="0.63277">
        <ele>198.6</ele>
        <time>2024-04-14T10:44:54Z</time>
      </trkpt>
      <trkpt lat="45.1092" lon="0.63279">
        <ele>198.7</ele>
        <time>2024-04-14T10:44:56Z</time>
      </trkpt>
      <trkpt lat="45.10923" lon="0.63281">
        <ele>198.9</ele>
        <time>2024-04-14T10:44:58Z</time>
      </trkpt>
      <trkpt lat="45.10926" lon="0.63282">
        <ele>199</ele>
        <time>2024-04-14T10:45:00Z</time>
      </trkpt>
      <trkpt lat="45.10927" lon="0.63285">
        <ele>199.2</ele>
        <time>2024-04-14T10:45:02Z</time>
      </trkpt>
      <trkpt lat="45.10928" lon="0.63287">
        <ele>199.2</ele>
        <time>2024-04-14T10:45:03Z</time>
      </trkpt>
      <trkpt lat="45.1093" lon="0.63289">
        <ele>199.4</ele>
        <time>2024-04-14T10:45:04Z</time>
      </trkpt>
      <trkpt lat="45.10932" lon="0.63293">
        <ele>199.6</ele>
        <time>2024-04-14T10:45:06Z</time>
      </trkpt>
      <trkpt lat="45.10933" lon="0.63295">
        <ele>199.6</ele>
        <time>2024-04-14T10:45:07Z</time>
      </trkpt>
      <trkpt lat="45.10934" lon="0.63298">
        <ele>199.8</ele>
        <time>2024-04-14T10:45:08Z</time>
      </trkpt>
      <trkpt lat="45.10935" lon="0.63302">
        <ele>200</ele>
        <time>2024-04-14T10:45:10Z</time>
      </trkpt>
      <trkpt lat="45.10938" lon="0.63306">
        <ele>200.2</ele>
        <time>2024-04-14T10:45:12Z</time>
      </trkpt>
      <trkpt lat="45.1094" lon="0.6331">
        <ele>200.5</ele>
        <time>2024-04-14T10:45:14Z</time>
      </trkpt>
      <trkpt lat="45.10941" lon="0.63312">
        <ele>200.5</ele>
        <time>2024-04-14T10:45:15Z</time>
      </trkpt>
      <trkpt lat="45.10943" lon="0.63313">
        <ele>200.5</ele>
        <time>2024-04-14T10:45:16Z</time>
      </trkpt>
      <trkpt lat="45.10946" lon="0.63312">
        <ele>200.6</ele>
        <time>2024-04-14T10:45:18Z</time>
      </trkpt>
      <trkpt lat="45.1095" lon="0.63309">
        <ele>200.7</ele>
        <time>2024-04-14T10:45:20Z</time>
      </trkpt>
      <trkpt lat="45.10953" lon="0.63306">
        <ele>200.6</ele>
        <time>2024-04-14T10:45:22Z</time>
      </trkpt>
      <trkpt lat="45.10956" lon="0.63303">
        <ele>200.5</ele>
        <time>2024-04-14T10:45:24Z</time>
      </trkpt>
      <trkpt lat="45.10958" lon="0.63302">
        <ele>200.5</ele>
        <time>2024-04-14T10:45:25Z</time>
      </trkpt>
      <trkpt lat="45.1096" lon="0.63301">
        <ele>200.5</ele>
        <time>2024-04-14T10:45:26Z</time>
      </trkpt>
      <trkpt lat="45.10962" lon="0.63298">
        <ele>200.4</ele>
        <time>2024-04-14T10:45:28Z</time>
      </trkpt>
      <trkpt lat="45.10964" lon="0.63297">
        <ele>200.5</ele>
        <time>2024-04-14T10:45:29Z</time>
      </trkpt>
      <trkpt lat="45.10966" lon="0.63296">
        <ele>200.4</ele>
        <time>2024-04-14T10:45:30Z</time>
      </trkpt>
      <trkpt lat="45.1097" lon="0.63292">
        <ele>200.6</ele>
        <time>2024-04-14T10:45:32Z</time>
      </trkpt>
      <trkpt lat="45.10975" lon="0.63287">
        <ele>200.5</ele>
        <time>2024-04-14T10:45:34Z</time>
      </trkpt>
      <trkpt lat="45.10977" lon="0.63285">
        <ele>200.7</ele>
        <time>2024-04-14T10:45:35Z</time>
      </trkpt>
      <trkpt lat="45.10979" lon="0.63283">
        <ele>200.7</ele>
        <time>2024-04-14T10:45:36Z</time>
      </trkpt>
      <trkpt lat="45.10983" lon="0.6328">
        <ele>201</ele>
        <time>2024-04-14T10:45:38Z</time>
      </trkpt>
      <trkpt lat="45.10987" lon="0.63277">
        <ele>201.2</ele>
        <time>2024-04-14T10:45:40Z</time>
      </trkpt>
      <trkpt lat="45.10991" lon="0.63274">
        <ele>201.6</ele>
        <time>2024-04-14T10:45:42Z</time>
      </trkpt>
      <trkpt lat="45.10995" lon="0.63271">
        <ele>201.9</ele>
        <time>2024-04-14T10:45:44Z</time>
      </trkpt>
      <trkpt lat="45.10997" lon="0.6327">
        <ele>201.9</ele>
        <time>2024-04-14T10:45:45Z</time>
      </trkpt>
      <trkpt lat="45.10998" lon="0.6327">
        <ele>202.2</ele>
        <time>2024-04-14T10:45:46Z</time>
      </trkpt>
      <trkpt lat="45.11" lon="0.6327">
        <ele>202.5</ele>
        <time>2024-04-14T10:45:47Z</time>
      </trkpt>
      <trkpt lat="45.11003" lon="0.63271">
        <ele>202.5</ele>
        <time>2024-04-14T10:45:48Z</time>
      </trkpt>
      <trkpt lat="45.11007" lon="0.63272">
        <ele>203.1</ele>
        <time>2024-04-14T10:45:50Z</time>
      </trkpt>
      <trkpt lat="45.11011" lon="0.63275">
        <ele>203.5</ele>
        <time>2024-04-14T10:45:52Z</time>
      </trkpt>
      <trkpt lat="45.11014" lon="0.63278">
        <ele>203.8</ele>
        <time>2024-04-14T10:45:54Z</time>
      </trkpt>
      <trkpt lat="45.11016" lon="0.63282">
        <ele>204.1</ele>
        <time>2024-04-14T10:45:56Z</time>
      </trkpt>
      <trkpt lat="45.11017" lon="0.63284">
        <ele>204.1</ele>
        <time>2024-04-14T10:45:57Z</time>
      </trkpt>
      <trkpt lat="45.11018" lon="0.63286">
        <ele>204.4</ele>
        <time>2024-04-14T10:45:58Z</time>
      </trkpt>
      <trkpt lat="45.1102" lon="0.63289">
        <ele>204.4</ele>
        <time>2024-04-14T10:46:00Z</time>
      </trkpt>
      <trkpt lat="45.11022" lon="0.63293">
        <ele>204.7</ele>
        <time>2024-04-14T10:46:02Z</time>
      </trkpt>
      <trkpt lat="45.11024" lon="0.63297">
        <ele>204.7</ele>
        <time>2024-04-14T10:46:04Z</time>
      </trkpt>
      <trkpt lat="45.11025" lon="0.63299">
        <ele>205</ele>
        <time>2024-04-14T10:46:05Z</time>
      </trkpt>
      <trkpt lat="45.11025" lon="0.633">
        <ele>205</ele>
        <time>2024-04-14T10:46:06Z</time>
      </trkpt>
      <trkpt lat="45.11027" lon="0.63304">
        <ele>205.3</ele>
        <time>2024-04-14T10:46:08Z</time>
      </trkpt>
      <trkpt lat="45.11029" lon="0.63307">
        <ele>205.3</ele>
        <time>2024-04-14T10:46:10Z</time>
      </trkpt>
      <trkpt lat="45.1103" lon="0.63309">
        <ele>205.6</ele>
        <time>2024-04-14T10:46:11Z</time>
      </trkpt>
      <trkpt lat="45.11031" lon="0.6331">
        <ele>205.6</ele>
        <time>2024-04-14T10:46:12Z</time>
      </trkpt>
      <trkpt lat="45.11032" lon="0.63314">
        <ele>205.6</ele>
        <time>2024-04-14T10:46:14Z</time>
      </trkpt>
      <trkpt lat="45.11034" lon="0.63317">
        <ele>205.9</ele>
        <time>2024-04-14T10:46:16Z</time>
      </trkpt>
      <trkpt lat="45.11036" lon="0.63321">
        <ele>206</ele>
        <time>2024-04-14T10:46:18Z</time>
      </trkpt>
      <trkpt lat="45.11038" lon="0.63325">
        <ele>206.3</ele>
        <time>2024-04-14T10:46:20Z</time>
      </trkpt>
      <trkpt lat="45.11039" lon="0.63328">
        <ele>206.3</ele>
        <time>2024-04-14T10:46:22Z</time>
      </trkpt>
      <trkpt lat="45.11041" lon="0.63332">
        <ele>206.6</ele>
        <time>2024-04-14T10:46:24Z</time>
      </trkpt>
      <trkpt lat="45.11041" lon="0.63334">
        <ele>206.6</ele>
        <time>2024-04-14T10:46:25Z</time>
      </trkpt>
      <trkpt lat="45.11042" lon="0.63337">
        <ele>206.6</ele>
        <time>2024-04-14T10:46:26Z</time>
      </trkpt>
      <trkpt lat="45.11044" lon="0.63341">
        <ele>206.9</ele>
        <time>2024-04-14T10:46:28Z</time>
      </trkpt>
      <trkpt lat="45.11045" lon="0.63345">
        <ele>206.9</ele>
        <time>2024-04-14T10:46:30Z</time>
      </trkpt>
      <trkpt lat="45.11045" lon="0.6335">
        <ele>207.1</ele>
        <time>2024-04-14T10:46:32Z</time>
      </trkpt>
      <trkpt lat="45.11046" lon="0.63354">
        <ele>207.2</ele>
        <time>2024-04-14T10:46:34Z</time>
      </trkpt>
      <trkpt lat="45.11047" lon="0.63359">
        <ele>207.2</ele>
        <time>2024-04-14T10:46:36Z</time>
      </trkpt>
      <trkpt lat="45.11048" lon="0.63364">
        <ele>207.3</ele>
        <time>2024-04-14T10:46:38Z</time>
      </trkpt>
      <trkpt lat="45.11048" lon="0.63366">
        <ele>207.3</ele>
        <time>2024-04-14T10:46:39Z</time>
      </trkpt>
      <trkpt lat="45.11049" lon="0.63368">
        <ele>207.5</ele>
        <time>2024-04-14T10:46:40Z</time>
      </trkpt>
      <trkpt lat="45.11049" lon="0.63372">
        <ele>207.5</ele>
        <time>2024-04-14T10:46:42Z</time>
      </trkpt>
      <trkpt lat="45.11049" lon="0.63375">
        <ele>207.5</ele>
        <time>2024-04-14T10:46:44Z</time>
      </trkpt>
      <trkpt lat="45.11049" lon="0.63377">
        <ele>207.5</ele>
        <time>2024-04-14T10:46:45Z</time>
      </trkpt>
      <trkpt lat="45.11049" lon="0.63378">
        <ele>207.5</ele>
        <time>2024-04-14T10:46:46Z</time>
      </trkpt>
      <trkpt lat="45.11048" lon="0.63378">
        <ele>207.5</ele>
        <time>2024-04-14T10:46:47Z</time>
      </trkpt>
      <trkpt lat="45.11049" lon="0.63382">
        <ele>207.5</ele>
        <time>2024-04-14T10:46:54Z</time>
      </trkpt>
      <trkpt lat="45.11048" lon="0.63388">
        <ele>207.5</ele>
        <time>2024-04-14T10:46:56Z</time>
      </trkpt>
      <trkpt lat="45.11048" lon="0.63394">
        <ele>207.4</ele>
        <time>2024-04-14T10:46:58Z</time>
      </trkpt>
      <trkpt lat="45.11048" lon="0.634">
        <ele>207.2</ele>
        <time>2024-04-14T10:47:00Z</time>
      </trkpt>
      <trkpt lat="45.11048" lon="0.63403">
        <ele>207.4</ele>
        <time>2024-04-14T10:47:01Z</time>
      </trkpt>
      <trkpt lat="45.11049" lon="0.63406">
        <ele>207.3</ele>
        <time>2024-04-14T10:47:02Z</time>
      </trkpt>
      <trkpt lat="45.11051" lon="0.63408">
        <ele>207.5</ele>
        <time>2024-04-14T10:47:03Z</time>
      </trkpt>
      <trkpt lat="45.11054" lon="0.63408">
        <ele>207.5</ele>
        <time>2024-04-14T10:47:04Z</time>
      </trkpt>
      <trkpt lat="45.11058" lon="0.63408">
        <ele>207.9</ele>
        <time>2024-04-14T10:47:06Z</time>
      </trkpt>
      <trkpt lat="45.11062" lon="0.63408">
        <ele>208.2</ele>
        <time>2024-04-14T10:47:08Z</time>
      </trkpt>
      <trkpt lat="45.11063" lon="0.63408">
        <ele>208.2</ele>
        <time>2024-04-14T10:47:09Z</time>
      </trkpt>
      <trkpt lat="45.11065" lon="0.63409">
        <ele>208.4</ele>
        <time>2024-04-14T10:47:10Z</time>
      </trkpt>
      <trkpt lat="45.11069" lon="0.6341">
        <ele>208.6</ele>
        <time>2024-04-14T10:47:12Z</time>
      </trkpt>
      <trkpt lat="45.11074" lon="0.6341">
        <ele>209</ele>
        <time>2024-04-14T10:47:14Z</time>
      </trkpt>
      <trkpt lat="45.11076" lon="0.6341">
        <ele>209.2</ele>
        <time>2024-04-14T10:47:15Z</time>
      </trkpt>
      <trkpt lat="45.11078" lon="0.6341">
        <ele>209.2</ele>
        <time>2024-04-14T10:47:16Z</time>
      </trkpt>
      <trkpt lat="45.11083" lon="0.6341">
        <ele>209.7</ele>
        <time>2024-04-14T10:47:18Z</time>
      </trkpt>
      <trkpt lat="45.11089" lon="0.6341">
        <ele>210.1</ele>
        <time>2024-04-14T10:47:20Z</time>
      </trkpt>
      <trkpt lat="45.11094" lon="0.63411">
        <ele>210.4</ele>
        <time>2024-04-14T10:47:22Z</time>
      </trkpt>
      <trkpt lat="45.11099" lon="0.63414">
        <ele>210.5</ele>
        <time>2024-04-14T10:47:24Z</time>
      </trkpt>
      <trkpt lat="45.11102" lon="0.63415">
        <ele>210.6</ele>
        <time>2024-04-14T10:47:25Z</time>
      </trkpt>
      <trkpt lat="45.11105" lon="0.63416">
        <ele>210.7</ele>
        <time>2024-04-14T10:47:26Z</time>
      </trkpt>
      <trkpt lat="45.1111" lon="0.63417">
        <ele>211</ele>
        <time>2024-04-14T10:47:28Z</time>
      </trkpt>
      <trkpt lat="45.11116" lon="0.63416">
        <ele>211.2</ele>
        <time>2024-04-14T10:47:30Z</time>
      </trkpt>
      <trkpt lat="45.11123" lon="0.63414">
        <ele>211.4</ele>
        <time>2024-04-14T10:47:32Z</time>
      </trkpt>
      <trkpt lat="45.1113" lon="0.63416">
        <ele>211.5</ele>
        <time>2024-04-14T10:47:34Z</time>
      </trkpt>
      <trkpt lat="45.11134" lon="0.63418">
        <ele>211.5</ele>
        <time>2024-04-14T10:47:35Z</time>
      </trkpt>
      <trkpt lat="45.11138" lon="0.63421">
        <ele>211.4</ele>
        <time>2024-04-14T10:47:36Z</time>
      </trkpt>
      <trkpt lat="45.11143" lon="0.63425">
        <ele>211.5</ele>
        <time>2024-04-14T10:47:38Z</time>
      </trkpt>
      <trkpt lat="45.11145" lon="0.63426">
        <ele>211.4</ele>
        <time>2024-04-14T10:47:39Z</time>
      </trkpt>
      <trkpt lat="45.11148" lon="0.63427">
        <ele>211.4</ele>
        <time>2024-04-14T10:47:40Z</time>
      </trkpt>
      <trkpt lat="45.11153" lon="0.63428">
        <ele>211.4</ele>
        <time>2024-04-14T10:47:42Z</time>
      </trkpt>
      <trkpt lat="45.11158" lon="0.63432">
        <ele>211.3</ele>
        <time>2024-04-14T10:47:44Z</time>
      </trkpt>
      <trkpt lat="45.11163" lon="0.63439">
        <ele>211.1</ele>
        <time>2024-04-14T10:47:46Z</time>
      </trkpt>
      <trkpt lat="45.11171" lon="0.63449">
        <ele>210.8</ele>
        <time>2024-04-14T10:47:48Z</time>
      </trkpt>
      <trkpt lat="45.11182" lon="0.6346">
        <ele>210.3</ele>
        <time>2024-04-14T10:47:50Z</time>
      </trkpt>
      <trkpt lat="45.11187" lon="0.63465">
        <ele>210.2</ele>
        <time>2024-04-14T10:47:51Z</time>
      </trkpt>
      <trkpt lat="45.11193" lon="0.6347">
        <ele>210.1</ele>
        <time>2024-04-14T10:47:52Z</time>
      </trkpt>
      <trkpt lat="45.11197" lon="0.63476">
        <ele>210</ele>
        <time>2024-04-14T10:47:53Z</time>
      </trkpt>
      <trkpt lat="45.11202" lon="0.63482">
        <ele>209.8</ele>
        <time>2024-04-14T10:47:54Z</time>
      </trkpt>
      <trkpt lat="45.11212" lon="0.63494">
        <ele>209.6</ele>
        <time>2024-04-14T10:47:56Z</time>
      </trkpt>
      <trkpt lat="45.11221" lon="0.63504">
        <ele>209.5</ele>
        <time>2024-04-14T10:47:58Z</time>
      </trkpt>
      <trkpt lat="45.11226" lon="0.63508">
        <ele>209.3</ele>
        <time>2024-04-14T10:47:59Z</time>
      </trkpt>
      <trkpt lat="45.1123" lon="0.63512">
        <ele>209.1</ele>
        <time>2024-04-14T10:48:00Z</time>
      </trkpt>
      <trkpt lat="45.11239" lon="0.6352">
        <ele>208.8</ele>
        <time>2024-04-14T10:48:02Z</time>
      </trkpt>
      <trkpt lat="45.11244" lon="0.63524">
        <ele>208.7</ele>
        <time>2024-04-14T10:48:03Z</time>
      </trkpt>
      <trkpt lat="45.11249" lon="0.63529">
        <ele>208.5</ele>
        <time>2024-04-14T10:48:04Z</time>
      </trkpt>
      <trkpt lat="45.11254" lon="0.63532">
        <ele>208.3</ele>
        <time>2024-04-14T10:48:05Z</time>
      </trkpt>
      <trkpt lat="45.11259" lon="0.63536">
        <ele>208.2</ele>
        <time>2024-04-14T10:48:06Z</time>
      </trkpt>
      <trkpt lat="45.11262" lon="0.6354">
        <ele>208</ele>
        <time>2024-04-14T10:48:07Z</time>
      </trkpt>
      <trkpt lat="45.11264" lon="0.63543">
        <ele>207.9</ele>
        <time>2024-04-14T10:48:08Z</time>
      </trkpt>
      <trkpt lat="45.11267" lon="0.63547">
        <ele>207.7</ele>
        <time>2024-04-14T10:48:09Z</time>
      </trkpt>
      <trkpt lat="45.11271" lon="0.63551">
        <ele>207.5</ele>
        <time>2024-04-14T10:48:10Z</time>
      </trkpt>
      <trkpt lat="45.11275" lon="0.63555">
        <ele>207.3</ele>
        <time>2024-04-14T10:48:11Z</time>
      </trkpt>
      <trkpt lat="45.1128" lon="0.63558">
        <ele>206.8</ele>
        <time>2024-04-14T10:48:12Z</time>
      </trkpt>
      <trkpt lat="45.1129" lon="0.63564">
        <ele>206.3</ele>
        <time>2024-04-14T10:48:14Z</time>
      </trkpt>
      <trkpt lat="45.11299" lon="0.63571">
        <ele>206.1</ele>
        <time>2024-04-14T10:48:16Z</time>
      </trkpt>
      <trkpt lat="45.11308" lon="0.6358">
        <ele>206.2</ele>
        <time>2024-04-14T10:48:18Z</time>
      </trkpt>
      <trkpt lat="45.11311" lon="0.63583">
        <ele>206.1</ele>
        <time>2024-04-14T10:48:19Z</time>
      </trkpt>
      <trkpt lat="45.11312" lon="0.63586">
        <ele>206.2</ele>
        <time>2024-04-14T10:48:20Z</time>
      </trkpt>
      <trkpt lat="45.11316" lon="0.63595">
        <ele>206.6</ele>
        <time>2024-04-14T10:48:22Z</time>
      </trkpt>
      <trkpt lat="45.11319" lon="0.63598">
        <ele>206.7</ele>
        <time>2024-04-14T10:48:23Z</time>
      </trkpt>
      <trkpt lat="45.11323" lon="0.63601">
        <ele>206.8</ele>
        <time>2024-04-14T10:48:24Z</time>
      </trkpt>
      <trkpt lat="45.11331" lon="0.63606">
        <ele>206.9</ele>
        <time>2024-04-14T10:48:26Z</time>
      </trkpt>
      <trkpt lat="45.11334" lon="0.63609">
        <ele>206.8</ele>
        <time>2024-04-14T10:48:27Z</time>
      </trkpt>
      <trkpt lat="45.11337" lon="0.63611">
        <ele>207</ele>
        <time>2024-04-14T10:48:28Z</time>
      </trkpt>
      <trkpt lat="45.1134" lon="0.63614">
        <ele>207.1</ele>
        <time>2024-04-14T10:48:29Z</time>
      </trkpt>
      <trkpt lat="45.11344" lon="0.63617">
        <ele>207</ele>
        <time>2024-04-14T10:48:30Z</time>
      </trkpt>
      <trkpt lat="45.11349" lon="0.63621">
        <ele>207</ele>
        <time>2024-04-14T10:48:31Z</time>
      </trkpt>
      <trkpt lat="45.11353" lon="0.63622">
        <ele>207.1</ele>
        <time>2024-04-14T10:48:32Z</time>
      </trkpt>
      <trkpt lat="45.11359" lon="0.63622">
        <ele>206.7</ele>
        <time>2024-04-14T10:48:34Z</time>
      </trkpt>
      <trkpt lat="45.11369" lon="0.63621">
        <ele>206.4</ele>
        <time>2024-04-14T10:48:36Z</time>
      </trkpt>
      <trkpt lat="45.11374" lon="0.6362">
        <ele>206.2</ele>
        <time>2024-04-14T10:48:37Z</time>
      </trkpt>
      <trkpt lat="45.11378" lon="0.63618">
        <ele>206.2</ele>
        <time>2024-04-14T10:48:38Z</time>
      </trkpt>
      <trkpt lat="45.11383" lon="0.63618">
        <ele>205.9</ele>
        <time>2024-04-14T10:48:39Z</time>
      </trkpt>
      <trkpt lat="45.11387" lon="0.63617">
        <ele>205.9</ele>
        <time>2024-04-14T10:48:40Z</time>
      </trkpt>
      <trkpt lat="45.1139" lon="0.63616">
        <ele>205.9</ele>
        <time>2024-04-14T10:48:41Z</time>
      </trkpt>
      <trkpt lat="45.11393" lon="0.63615">
        <ele>206</ele>
        <time>2024-04-14T10:48:42Z</time>
      </trkpt>
      <trkpt lat="45.11395" lon="0.63614">
        <ele>206.1</ele>
        <time>2024-04-14T10:48:43Z</time>
      </trkpt>
      <trkpt lat="45.11399" lon="0.63613">
        <ele>206</ele>
        <time>2024-04-14T10:48:44Z</time>
      </trkpt>
      <trkpt lat="45.11405" lon="0.63609">
        <ele>206.2</ele>
        <time>2024-04-14T10:48:46Z</time>
      </trkpt>
      <trkpt lat="45.11412" lon="0.63606">
        <ele>206.9</ele>
        <time>2024-04-14T10:48:48Z</time>
      </trkpt>
      <trkpt lat="45.1142" lon="0.63601">
        <ele>207.4</ele>
        <time>2024-04-14T10:48:50Z</time>
      </trkpt>
      <trkpt lat="45.11427" lon="0.63594">
        <ele>207.7</ele>
        <time>2024-04-14T10:48:52Z</time>
      </trkpt>
      <trkpt lat="45.11433" lon="0.63586">
        <ele>207.9</ele>
        <time>2024-04-14T10:48:54Z</time>
      </trkpt>
      <trkpt lat="45.11439" lon="0.6358">
        <ele>208</ele>
        <time>2024-04-14T10:48:56Z</time>
      </trkpt>
      <trkpt lat="45.11444" lon="0.63574">
        <ele>208.2</ele>
        <time>2024-04-14T10:48:58Z</time>
      </trkpt>
      <trkpt lat="45.1145" lon="0.63569">
        <ele>208.3</ele>
        <time>2024-04-14T10:49:00Z</time>
      </trkpt>
      <trkpt lat="45.11452" lon="0.63567">
        <ele>208.4</ele>
        <time>2024-04-14T10:49:01Z</time>
      </trkpt>
      <trkpt lat="45.11454" lon="0.63565">
        <ele>208.4</ele>
        <time>2024-04-14T10:49:02Z</time>
      </trkpt>
      <trkpt lat="45.11459" lon="0.63561">
        <ele>208.6</ele>
        <time>2024-04-14T10:49:04Z</time>
      </trkpt>
      <trkpt lat="45.11463" lon="0.63557">
        <ele>208.7</ele>
        <time>2024-04-14T10:49:06Z</time>
      </trkpt>
      <trkpt lat="45.11468" lon="0.63553">
        <ele>208.9</ele>
        <time>2024-04-14T10:49:08Z</time>
      </trkpt>
      <trkpt lat="45.11472" lon="0.63548">
        <ele>209</ele>
        <time>2024-04-14T10:49:10Z</time>
      </trkpt>
      <trkpt lat="45.11476" lon="0.63544">
        <ele>209.2</ele>
        <time>2024-04-14T10:49:12Z</time>
      </trkpt>
      <trkpt lat="45.1148" lon="0.6354">
        <ele>209.3</ele>
        <time>2024-04-14T10:49:14Z</time>
      </trkpt>
      <trkpt lat="45.11484" lon="0.63536">
        <ele>209.4</ele>
        <time>2024-04-14T10:49:16Z</time>
      </trkpt>
      <trkpt lat="45.11486" lon="0.63535">
        <ele>209.5</ele>
        <time>2024-04-14T10:49:17Z</time>
      </trkpt>
      <trkpt lat="45.11488" lon="0.63534">
        <ele>209.6</ele>
        <time>2024-04-14T10:49:18Z</time>
      </trkpt>
      <trkpt lat="45.11491" lon="0.63531">
        <ele>209.7</ele>
        <time>2024-04-14T10:49:20Z</time>
      </trkpt>
      <trkpt lat="45.11493" lon="0.6353">
        <ele>209.8</ele>
        <time>2024-04-14T10:49:21Z</time>
      </trkpt>
      <trkpt lat="45.11495" lon="0.63529">
        <ele>209.8</ele>
        <time>2024-04-14T10:49:22Z</time>
      </trkpt>
      <trkpt lat="45.11499" lon="0.63527">
        <ele>210</ele>
        <time>2024-04-14T10:49:24Z</time>
      </trkpt>
      <trkpt lat="45.11503" lon="0.63525">
        <ele>210.2</ele>
        <time>2024-04-14T10:49:26Z</time>
      </trkpt>
      <trkpt lat="45.11504" lon="0.63523">
        <ele>210.2</ele>
        <time>2024-04-14T10:49:27Z</time>
      </trkpt>
      <trkpt lat="45.11506" lon="0.6352">
        <ele>210.4</ele>
        <time>2024-04-14T10:49:28Z</time>
      </trkpt>
      <trkpt lat="45.11508" lon="0.63518">
        <ele>210.5</ele>
        <time>2024-04-14T10:49:29Z</time>
      </trkpt>
      <trkpt lat="45.1151" lon="0.63516">
        <ele>210.6</ele>
        <time>2024-04-14T10:49:30Z</time>
      </trkpt>
      <trkpt lat="45.11513" lon="0.63515">
        <ele>210.7</ele>
        <time>2024-04-14T10:49:32Z</time>
      </trkpt>
      <trkpt lat="45.11515" lon="0.63514">
        <ele>210.8</ele>
        <time>2024-04-14T10:49:33Z</time>
      </trkpt>
      <trkpt lat="45.11516" lon="0.63511">
        <ele>210.9</ele>
        <time>2024-04-14T10:49:34Z</time>
      </trkpt>
      <trkpt lat="45.11518" lon="0.63509">
        <ele>211</ele>
        <time>2024-04-14T10:49:35Z</time>
      </trkpt>
      <trkpt lat="45.1152" lon="0.63507">
        <ele>211.1</ele>
        <time>2024-04-14T10:49:36Z</time>
      </trkpt>
      <trkpt lat="45.11525" lon="0.63504">
        <ele>211.3</ele>
        <time>2024-04-14T10:49:38Z</time>
      </trkpt>
      <trkpt lat="45.11527" lon="0.63502">
        <ele>211.5</ele>
        <time>2024-04-14T10:49:39Z</time>
      </trkpt>
      <trkpt lat="45.1153" lon="0.63501">
        <ele>211.6</ele>
        <time>2024-04-14T10:49:40Z</time>
      </trkpt>
      <trkpt lat="45.11535" lon="0.63499">
        <ele>211.8</ele>
        <time>2024-04-14T10:49:42Z</time>
      </trkpt>
      <trkpt lat="45.11539" lon="0.63496">
        <ele>212</ele>
        <time>2024-04-14T10:49:44Z</time>
      </trkpt>
      <trkpt lat="45.11544" lon="0.63495">
        <ele>212.1</ele>
        <time>2024-04-14T10:49:46Z</time>
      </trkpt>
      <trkpt lat="45.11548" lon="0.63494">
        <ele>212.1</ele>
        <time>2024-04-14T10:49:48Z</time>
      </trkpt>
      <trkpt lat="45.11552" lon="0.63492">
        <ele>212.3</ele>
        <time>2024-04-14T10:49:50Z</time>
      </trkpt>
      <trkpt lat="45.11557" lon="0.63493">
        <ele>212.4</ele>
        <time>2024-04-14T10:49:52Z</time>
      </trkpt>
      <trkpt lat="45.11561" lon="0.63492">
        <ele>212.6</ele>
        <time>2024-04-14T10:49:54Z</time>
      </trkpt>
      <trkpt lat="45.11566" lon="0.6349">
        <ele>212.8</ele>
        <time>2024-04-14T10:49:56Z</time>
      </trkpt>
      <trkpt lat="45.11568" lon="0.63488">
        <ele>213</ele>
        <time>2024-04-14T10:49:57Z</time>
      </trkpt>
      <trkpt lat="45.1157" lon="0.63487">
        <ele>213.1</ele>
        <time>2024-04-14T10:49:58Z</time>
      </trkpt>
      <trkpt lat="45.11574" lon="0.63485">
        <ele>213.3</ele>
        <time>2024-04-14T10:50:00Z</time>
      </trkpt>
      <trkpt lat="45.11578" lon="0.63483">
        <ele>213.6</ele>
        <time>2024-04-14T10:50:02Z</time>
      </trkpt>
      <trkpt lat="45.11581" lon="0.63482">
        <ele>213.8</ele>
        <time>2024-04-14T10:50:04Z</time>
      </trkpt>
      <trkpt lat="45.11584" lon="0.63481">
        <ele>214</ele>
        <time>2024-04-14T10:50:06Z</time>
      </trkpt>
      <trkpt lat="45.11586" lon="0.6348">
        <ele>214.2</ele>
        <time>2024-04-14T10:50:07Z</time>
      </trkpt>
      <trkpt lat="45.11588" lon="0.6348">
        <ele>214.4</ele>
        <time>2024-04-14T10:50:08Z</time>
      </trkpt>
      <trkpt lat="45.11593" lon="0.63478">
        <ele>214.6</ele>
        <time>2024-04-14T10:50:10Z</time>
      </trkpt>
      <trkpt lat="45.11597" lon="0.63477">
        <ele>215</ele>
        <time>2024-04-14T10:50:12Z</time>
      </trkpt>
      <trkpt lat="45.11601" lon="0.63475">
        <ele>215.2</ele>
        <time>2024-04-14T10:50:14Z</time>
      </trkpt>
      <trkpt lat="45.11605" lon="0.63473">
        <ele>215.4</ele>
        <time>2024-04-14T10:50:16Z</time>
      </trkpt>
      <trkpt lat="45.11609" lon="0.63471">
        <ele>215.8</ele>
        <time>2024-04-14T10:50:18Z</time>
      </trkpt>
      <trkpt lat="45.11612" lon="0.6347">
        <ele>215.9</ele>
        <time>2024-04-14T10:50:20Z</time>
      </trkpt>
      <trkpt lat="45.11613" lon="0.63469">
        <ele>216.2</ele>
        <time>2024-04-14T10:50:21Z</time>
      </trkpt>
      <trkpt lat="45.11615" lon="0.63467">
        <ele>216.4</ele>
        <time>2024-04-14T10:50:22Z</time>
      </trkpt>
      <trkpt lat="45.11619" lon="0.63466">
        <ele>216.7</ele>
        <time>2024-04-14T10:50:24Z</time>
      </trkpt>
      <trkpt lat="45.11623" lon="0.63463">
        <ele>217</ele>
        <time>2024-04-14T10:50:26Z</time>
      </trkpt>
      <trkpt lat="45.11627" lon="0.63461">
        <ele>217.3</ele>
        <time>2024-04-14T10:50:28Z</time>
      </trkpt>
      <trkpt lat="45.1163" lon="0.6346">
        <ele>217.5</ele>
        <time>2024-04-14T10:50:30Z</time>
      </trkpt>
      <trkpt lat="45.11632" lon="0.6346">
        <ele>217.6</ele>
        <time>2024-04-14T10:50:31Z</time>
      </trkpt>
      <trkpt lat="45.11634" lon="0.6346">
        <ele>217.9</ele>
        <time>2024-04-14T10:50:32Z</time>
      </trkpt>
      <trkpt lat="45.1164" lon="0.63459">
        <ele>218.3</ele>
        <time>2024-04-14T10:50:34Z</time>
      </trkpt>
      <trkpt lat="45.11644" lon="0.63456">
        <ele>218.5</ele>
        <time>2024-04-14T10:50:36Z</time>
      </trkpt>
      <trkpt lat="45.11647" lon="0.63455">
        <ele>218.8</ele>
        <time>2024-04-14T10:50:37Z</time>
      </trkpt>
      <trkpt lat="45.11648" lon="0.63453">
        <ele>219</ele>
        <time>2024-04-14T10:50:38Z</time>
      </trkpt>
      <trkpt lat="45.11653" lon="0.63452">
        <ele>219.2</ele>
        <time>2024-04-14T10:50:40Z</time>
      </trkpt>
      <trkpt lat="45.11655" lon="0.63451">
        <ele>219.4</ele>
        <time>2024-04-14T10:50:41Z</time>
      </trkpt>
      <trkpt lat="45.11657" lon="0.6345">
        <ele>219.6</ele>
        <time>2024-04-14T10:50:42Z</time>
      </trkpt>
      <trkpt lat="45.11662" lon="0.63448">
        <ele>219.8</ele>
        <time>2024-04-14T10:50:44Z</time>
      </trkpt>
      <trkpt lat="45.11667" lon="0.63448">
        <ele>220</ele>
        <time>2024-04-14T10:50:46Z</time>
      </trkpt>
      <trkpt lat="45.11669" lon="0.63448">
        <ele>220.2</ele>
        <time>2024-04-14T10:50:47Z</time>
      </trkpt>
      <trkpt lat="45.11671" lon="0.63446">
        <ele>220.3</ele>
        <time>2024-04-14T10:50:48Z</time>
      </trkpt>
      <trkpt lat="45.11675" lon="0.63445">
        <ele>220.5</ele>
        <time>2024-04-14T10:50:50Z</time>
      </trkpt>
      <trkpt lat="45.11678" lon="0.63444">
        <ele>220.6</ele>
        <time>2024-04-14T10:50:52Z</time>
      </trkpt>
      <trkpt lat="45.1168" lon="0.63443">
        <ele>220.7</ele>
        <time>2024-04-14T10:50:53Z</time>
      </trkpt>
      <trkpt lat="45.11682" lon="0.63442">
        <ele>220.8</ele>
        <time>2024-04-14T10:50:54Z</time>
      </trkpt>
      <trkpt lat="45.11684" lon="0.63442">
        <ele>220.9</ele>
        <time>2024-04-14T10:50:55Z</time>
      </trkpt>
      <trkpt lat="45.11685" lon="0.63443">
        <ele>221</ele>
        <time>2024-04-14T10:50:56Z</time>
      </trkpt>
      <trkpt lat="45.11687" lon="0.63444">
        <ele>221.1</ele>
        <time>2024-04-14T10:50:58Z</time>
      </trkpt>
      <trkpt lat="45.11689" lon="0.63445">
        <ele>221.3</ele>
        <time>2024-04-14T10:51:00Z</time>
      </trkpt>
      <trkpt lat="45.11689" lon="0.63445">
        <ele>221.3</ele>
        <time>2024-04-14T10:51:01Z</time>
      </trkpt>
      <trkpt lat="45.11693" lon="0.63451">
        <ele>221.3</ele>
        <time>2024-04-14T10:51:33Z</time>
      </trkpt>
      <trkpt lat="45.11695" lon="0.63454">
        <ele>221.3</ele>
        <time>2024-04-14T10:51:34Z</time>
      </trkpt>
      <trkpt lat="45.11697" lon="0.63458">
        <ele>221.3</ele>
        <time>2024-04-14T10:51:36Z</time>
      </trkpt>
      <trkpt lat="45.11698" lon="0.63461">
        <ele>221.3</ele>
        <time>2024-04-14T10:51:37Z</time>
      </trkpt>
      <trkpt lat="45.11698" lon="0.63464">
        <ele>221.3</ele>
        <time>2024-04-14T10:51:38Z</time>
      </trkpt>
      <trkpt lat="45.11701" lon="0.63468">
        <ele>221.3</ele>
        <time>2024-04-14T10:51:40Z</time>
      </trkpt>
      <trkpt lat="45.11702" lon="0.6347">
        <ele>221.3</ele>
        <time>2024-04-14T10:51:41Z</time>
      </trkpt>
      <trkpt lat="45.11703" lon="0.63472">
        <ele>221.3</ele>
        <time>2024-04-14T10:51:42Z</time>
      </trkpt>
      <trkpt lat="45.11703" lon="0.63475">
        <ele>221.3</ele>
        <time>2024-04-14T10:51:43Z</time>
      </trkpt>
      <trkpt lat="45.11703" lon="0.63478">
        <ele>221.3</ele>
        <time>2024-04-14T10:51:44Z</time>
      </trkpt>
      <trkpt lat="45.11703" lon="0.6348">
        <ele>221.3</ele>
        <time>2024-04-14T10:51:45Z</time>
      </trkpt>
      <trkpt lat="45.11703" lon="0.63483">
        <ele>221.3</ele>
        <time>2024-04-14T10:51:46Z</time>
      </trkpt>
      <trkpt lat="45.11705" lon="0.63491">
        <ele>221.3</ele>
        <time>2024-04-14T10:51:48Z</time>
      </trkpt>
      <trkpt lat="45.11708" lon="0.63497">
        <ele>221.3</ele>
        <time>2024-04-14T10:51:50Z</time>
      </trkpt>
      <trkpt lat="45.11709" lon="0.635">
        <ele>221.3</ele>
        <time>2024-04-14T10:51:51Z</time>
      </trkpt>
      <trkpt lat="45.1171" lon="0.63504">
        <ele>221.3</ele>
        <time>2024-04-14T10:51:52Z</time>
      </trkpt>
      <trkpt lat="45.11713" lon="0.63508">
        <ele>221.2</ele>
        <time>2024-04-14T10:51:54Z</time>
      </trkpt>
      <trkpt lat="45.11715" lon="0.6351">
        <ele>221.2</ele>
        <time>2024-04-14T10:51:55Z</time>
      </trkpt>
      <trkpt lat="45.11716" lon="0.63513">
        <ele>221.2</ele>
        <time>2024-04-14T10:51:56Z</time>
      </trkpt>
      <trkpt lat="45.11717" lon="0.63515">
        <ele>221.2</ele>
        <time>2024-04-14T10:51:57Z</time>
      </trkpt>
      <trkpt lat="45.11719" lon="0.63517">
        <ele>221.1</ele>
        <time>2024-04-14T10:51:58Z</time>
      </trkpt>
      <trkpt lat="45.11723" lon="0.63522">
        <ele>221.1</ele>
        <time>2024-04-14T10:52:00Z</time>
      </trkpt>
      <trkpt lat="45.11727" lon="0.63529">
        <ele>221</ele>
        <time>2024-04-14T10:52:02Z</time>
      </trkpt>
      <trkpt lat="45.11728" lon="0.63542">
        <ele>220.9</ele>
        <time>2024-04-14T10:52:04Z</time>
      </trkpt>
      <trkpt lat="45.11728" lon="0.6355">
        <ele>220.8</ele>
        <time>2024-04-14T10:52:05Z</time>
      </trkpt>
      <trkpt lat="45.11728" lon="0.63558">
        <ele>220.8</ele>
        <time>2024-04-14T10:52:06Z</time>
      </trkpt>
      <trkpt lat="45.11728" lon="0.63566">
        <ele>220.7</ele>
        <time>2024-04-14T10:52:07Z</time>
      </trkpt>
      <trkpt lat="45.1173" lon="0.63575">
        <ele>220.7</ele>
        <time>2024-04-14T10:52:08Z</time>
      </trkpt>
      <trkpt lat="45.11732" lon="0.63583">
        <ele>220.5</ele>
        <time>2024-04-14T10:52:09Z</time>
      </trkpt>
      <trkpt lat="45.11732" lon="0.6359">
        <ele>220.4</ele>
        <time>2024-04-14T10:52:10Z</time>
      </trkpt>
      <trkpt lat="45.11732" lon="0.63606">
        <ele>220.2</ele>
        <time>2024-04-14T10:52:12Z</time>
      </trkpt>
      <trkpt lat="45.11731" lon="0.63614">
        <ele>220.1</ele>
        <time>2024-04-14T10:52:13Z</time>
      </trkpt>
      <trkpt lat="45.11731" lon="0.63623">
        <ele>220</ele>
        <time>2024-04-14T10:52:14Z</time>
      </trkpt>
      <trkpt lat="45.11731" lon="0.63631">
        <ele>219.9</ele>
        <time>2024-04-14T10:52:15Z</time>
      </trkpt>
      <trkpt lat="45.11731" lon="0.63638">
        <ele>219.9</ele>
        <time>2024-04-14T10:52:16Z</time>
      </trkpt>
      <trkpt lat="45.1173" lon="0.63647">
        <ele>219.8</ele>
        <time>2024-04-14T10:52:17Z</time>
      </trkpt>
      <trkpt lat="45.11729" lon="0.63654">
        <ele>219.8</ele>
        <time>2024-04-14T10:52:18Z</time>
      </trkpt>
      <trkpt lat="45.11727" lon="0.63665">
        <ele>220</ele>
        <time>2024-04-14T10:52:20Z</time>
      </trkpt>
      <trkpt lat="45.11726" lon="0.63669">
        <ele>220</ele>
        <time>2024-04-14T10:52:21Z</time>
      </trkpt>
      <trkpt lat="45.11725" lon="0.63673">
        <ele>220.1</ele>
        <time>2024-04-14T10:52:22Z</time>
      </trkpt>
      <trkpt lat="45.11726" lon="0.6368">
        <ele>220.2</ele>
        <time>2024-04-14T10:52:24Z</time>
      </trkpt>
      <trkpt lat="45.11726" lon="0.63685">
        <ele>220.3</ele>
        <time>2024-04-14T10:52:25Z</time>
      </trkpt>
      <trkpt lat="45.11726" lon="0.63689">
        <ele>220.3</ele>
        <time>2024-04-14T10:52:26Z</time>
      </trkpt>
      <trkpt lat="45.11725" lon="0.63696">
        <ele>220.2</ele>
        <time>2024-04-14T10:52:28Z</time>
      </trkpt>
      <trkpt lat="45.11724" lon="0.63703">
        <ele>220.1</ele>
        <time>2024-04-14T10:52:30Z</time>
      </trkpt>
      <trkpt lat="45.11724" lon="0.63711">
        <ele>220</ele>
        <time>2024-04-14T10:52:32Z</time>
      </trkpt>
      <trkpt lat="45.11723" lon="0.63717">
        <ele>220</ele>
        <time>2024-04-14T10:52:34Z</time>
      </trkpt>
      <trkpt lat="45.11721" lon="0.63722">
        <ele>219.9</ele>
        <time>2024-04-14T10:52:36Z</time>
      </trkpt>
      <trkpt lat="45.1172" lon="0.63726">
        <ele>219.9</ele>
        <time>2024-04-14T10:52:37Z</time>
      </trkpt>
      <trkpt lat="45.1172" lon="0.63729">
        <ele>219.8</ele>
        <time>2024-04-14T10:52:38Z</time>
      </trkpt>
      <trkpt lat="45.11718" lon="0.63737">
        <ele>219.8</ele>
        <time>2024-04-14T10:52:40Z</time>
      </trkpt>
      <trkpt lat="45.11716" lon="0.63744">
        <ele>219.6</ele>
        <time>2024-04-14T10:52:42Z</time>
      </trkpt>
      <trkpt lat="45.11715" lon="0.63752">
        <ele>219.5</ele>
        <time>2024-04-14T10:52:44Z</time>
      </trkpt>
      <trkpt lat="45.11714" lon="0.63762">
        <ele>219.3</ele>
        <time>2024-04-14T10:52:46Z</time>
      </trkpt>
      <trkpt lat="45.11712" lon="0.63771">
        <ele>219.1</ele>
        <time>2024-04-14T10:52:48Z</time>
      </trkpt>
      <trkpt lat="45.1171" lon="0.63779">
        <ele>218.9</ele>
        <time>2024-04-14T10:52:50Z</time>
      </trkpt>
      <trkpt lat="45.11708" lon="0.63789">
        <ele>218.7</ele>
        <time>2024-04-14T10:52:52Z</time>
      </trkpt>
      <trkpt lat="45.11706" lon="0.63798">
        <ele>218.6</ele>
        <time>2024-04-14T10:52:54Z</time>
      </trkpt>
      <trkpt lat="45.11705" lon="0.63805">
        <ele>218.6</ele>
        <time>2024-04-14T10:52:56Z</time>
      </trkpt>
      <trkpt lat="45.11705" lon="0.63808">
        <ele>218.7</ele>
        <time>2024-04-14T10:52:57Z</time>
      </trkpt>
      <trkpt lat="45.11706" lon="0.63811">
        <ele>218.8</ele>
        <time>2024-04-14T10:52:58Z</time>
      </trkpt>
      <trkpt lat="45.1171" lon="0.63814">
        <ele>219.1</ele>
        <time>2024-04-14T10:53:00Z</time>
      </trkpt>
      <trkpt lat="45.11712" lon="0.63816">
        <ele>219.2</ele>
        <time>2024-04-14T10:53:01Z</time>
      </trkpt>
      <trkpt lat="45.11714" lon="0.63818">
        <ele>219.3</ele>
        <time>2024-04-14T10:53:02Z</time>
      </trkpt>
      <trkpt lat="45.11719" lon="0.63822">
        <ele>219.5</ele>
        <time>2024-04-14T10:53:04Z</time>
      </trkpt>
      <trkpt lat="45.11725" lon="0.63824">
        <ele>219.8</ele>
        <time>2024-04-14T10:53:06Z</time>
      </trkpt>
      <trkpt lat="45.11731" lon="0.63827">
        <ele>220</ele>
        <time>2024-04-14T10:53:08Z</time>
      </trkpt>
      <trkpt lat="45.11738" lon="0.6383">
        <ele>220.3</ele>
        <time>2024-04-14T10:53:10Z</time>
      </trkpt>
      <trkpt lat="45.11745" lon="0.63833">
        <ele>220.5</ele>
        <time>2024-04-14T10:53:12Z</time>
      </trkpt>
      <trkpt lat="45.11751" lon="0.63838">
        <ele>220.7</ele>
        <time>2024-04-14T10:53:14Z</time>
      </trkpt>
      <trkpt lat="45.11758" lon="0.63841">
        <ele>220.8</ele>
        <time>2024-04-14T10:53:16Z</time>
      </trkpt>
      <trkpt lat="45.11761" lon="0.63846">
        <ele>220.9</ele>
        <time>2024-04-14T10:53:18Z</time>
      </trkpt>
      <trkpt lat="45.1176" lon="0.6385">
        <ele>221</ele>
        <time>2024-04-14T10:53:20Z</time>
      </trkpt>
      <trkpt lat="45.11758" lon="0.63852">
        <ele>221</ele>
        <time>2024-04-14T10:53:21Z</time>
      </trkpt>
      <trkpt lat="45.11755" lon="0.63854">
        <ele>221.1</ele>
        <time>2024-04-14T10:53:22Z</time>
      </trkpt>
      <trkpt lat="45.11749" lon="0.63859">
        <ele>221.1</ele>
        <time>2024-04-14T10:53:24Z</time>
      </trkpt>
      <trkpt lat="45.11746" lon="0.63862">
        <ele>221.1</ele>
        <time>2024-04-14T10:53:25Z</time>
      </trkpt>
      <trkpt lat="45.11743" lon="0.63865">
        <ele>221.1</ele>
        <time>2024-04-14T10:53:26Z</time>
      </trkpt>
      <trkpt lat="45.11735" lon="0.63872">
        <ele>221</ele>
        <time>2024-04-14T10:53:28Z</time>
      </trkpt>
      <trkpt lat="45.11728" lon="0.6388">
        <ele>220.9</ele>
        <time>2024-04-14T10:53:30Z</time>
      </trkpt>
      <trkpt lat="45.11725" lon="0.63884">
        <ele>220.8</ele>
        <time>2024-04-14T10:53:31Z</time>
      </trkpt>
      <trkpt lat="45.11723" lon="0.63888">
        <ele>220.8</ele>
        <time>2024-04-14T10:53:32Z</time>
      </trkpt>
      <trkpt lat="45.11717" lon="0.63897">
        <ele>220.6</ele>
        <time>2024-04-14T10:53:34Z</time>
      </trkpt>
      <trkpt lat="45.11714" lon="0.63901">
        <ele>220.5</ele>
        <time>2024-04-14T10:53:35Z</time>
      </trkpt>
      <trkpt lat="45.11711" lon="0.63906">
        <ele>220.4</ele>
        <time>2024-04-14T10:53:36Z</time>
      </trkpt>
      <trkpt lat="45.11708" lon="0.63911">
        <ele>220.3</ele>
        <time>2024-04-14T10:53:37Z</time>
      </trkpt>
      <trkpt lat="45.11706" lon="0.63915">
        <ele>220.3</ele>
        <time>2024-04-14T10:53:38Z</time>
      </trkpt>
      <trkpt lat="45.117" lon="0.63924">
        <ele>220.1</ele>
        <time>2024-04-14T10:53:40Z</time>
      </trkpt>
      <trkpt lat="45.11698" lon="0.63928">
        <ele>220</ele>
        <time>2024-04-14T10:53:41Z</time>
      </trkpt>
      <trkpt lat="45.11697" lon="0.63931">
        <ele>220</ele>
        <time>2024-04-14T10:53:42Z</time>
      </trkpt>
      <trkpt lat="45.11696" lon="0.63938">
        <ele>219.9</ele>
        <time>2024-04-14T10:53:44Z</time>
      </trkpt>
      <trkpt lat="45.11697" lon="0.63942">
        <ele>220</ele>
        <time>2024-04-14T10:53:45Z</time>
      </trkpt>
      <trkpt lat="45.11699" lon="0.63946">
        <ele>220</ele>
        <time>2024-04-14T10:53:46Z</time>
      </trkpt>
      <trkpt lat="45.11701" lon="0.6395">
        <ele>220</ele>
        <time>2024-04-14T10:53:47Z</time>
      </trkpt>
      <trkpt lat="45.11703" lon="0.63954">
        <ele>220</ele>
        <time>2024-04-14T10:53:48Z</time>
      </trkpt>
      <trkpt lat="45.11707" lon="0.63964">
        <ele>219.9</ele>
        <time>2024-04-14T10:53:50Z</time>
      </trkpt>
      <trkpt lat="45.11709" lon="0.63978">
        <ele>219.6</ele>
        <time>2024-04-14T10:53:52Z</time>
      </trkpt>
      <trkpt lat="45.1171" lon="0.6399">
        <ele>219.2</ele>
        <time>2024-04-14T10:53:54Z</time>
      </trkpt>
      <trkpt lat="45.11712" lon="0.64">
        <ele>218.9</ele>
        <time>2024-04-14T10:53:56Z</time>
      </trkpt>
      <trkpt lat="45.11714" lon="0.64012">
        <ele>218.6</ele>
        <time>2024-04-14T10:53:58Z</time>
      </trkpt>
      <trkpt lat="45.11715" lon="0.6402">
        <ele>218.4</ele>
        <time>2024-04-14T10:53:59Z</time>
      </trkpt>
      <trkpt lat="45.11714" lon="0.64031">
        <ele>218.1</ele>
        <time>2024-04-14T10:54:00Z</time>
      </trkpt>
      <trkpt lat="45.11714" lon="0.64041">
        <ele>217.9</ele>
        <time>2024-04-14T10:54:01Z</time>
      </trkpt>
      <trkpt lat="45.11715" lon="0.64051">
        <ele>217.7</ele>
        <time>2024-04-14T10:54:02Z</time>
      </trkpt>
      <trkpt lat="45.11714" lon="0.64072">
        <ele>217.5</ele>
        <time>2024-04-14T10:54:04Z</time>
      </trkpt>
      <trkpt lat="45.11713" lon="0.6409">
        <ele>217.5</ele>
        <time>2024-04-14T10:54:06Z</time>
      </trkpt>
      <trkpt lat="45.11713" lon="0.64104">
        <ele>217.5</ele>
        <time>2024-04-14T10:54:08Z</time>
      </trkpt>
      <trkpt lat="45.11714" lon="0.64109">
        <ele>217.5</ele>
        <time>2024-04-14T10:54:09Z</time>
      </trkpt>
      <trkpt lat="45.11714" lon="0.64115">
        <ele>217.5</ele>
        <time>2024-04-14T10:54:10Z</time>
      </trkpt>
      <trkpt lat="45.11712" lon="0.64128">
        <ele>217.5</ele>
        <time>2024-04-14T10:54:12Z</time>
      </trkpt>
      <trkpt lat="45.1171" lon="0.64134">
        <ele>217.5</ele>
        <time>2024-04-14T10:54:13Z</time>
      </trkpt>
      <trkpt lat="45.11709" lon="0.6414">
        <ele>217.5</ele>
        <time>2024-04-14T10:54:14Z</time>
      </trkpt>
      <trkpt lat="45.11706" lon="0.6415">
        <ele>217.5</ele>
        <time>2024-04-14T10:54:16Z</time>
      </trkpt>
      <trkpt lat="45.11703" lon="0.6416">
        <ele>217.5</ele>
        <time>2024-04-14T10:54:18Z</time>
      </trkpt>
      <trkpt lat="45.11702" lon="0.64165">
        <ele>217.5</ele>
        <time>2024-04-14T10:54:19Z</time>
      </trkpt>
      <trkpt lat="45.117" lon="0.6417">
        <ele>217.5</ele>
        <time>2024-04-14T10:54:20Z</time>
      </trkpt>
      <trkpt lat="45.11698" lon="0.64181">
        <ele>217.5</ele>
        <time>2024-04-14T10:54:22Z</time>
      </trkpt>
      <trkpt lat="45.11697" lon="0.64186">
        <ele>217.5</ele>
        <time>2024-04-14T10:54:23Z</time>
      </trkpt>
      <trkpt lat="45.11695" lon="0.64192">
        <ele>217.5</ele>
        <time>2024-04-14T10:54:24Z</time>
      </trkpt>
      <trkpt lat="45.11694" lon="0.64197">
        <ele>217.5</ele>
        <time>2024-04-14T10:54:25Z</time>
      </trkpt>
      <trkpt lat="45.11694" lon="0.64202">
        <ele>217.5</ele>
        <time>2024-04-14T10:54:26Z</time>
      </trkpt>
      <trkpt lat="45.11694" lon="0.64208">
        <ele>217.5</ele>
        <time>2024-04-14T10:54:27Z</time>
      </trkpt>
      <trkpt lat="45.11694" lon="0.64213">
        <ele>217.5</ele>
        <time>2024-04-14T10:54:28Z</time>
      </trkpt>
      <trkpt lat="45.11695" lon="0.64224">
        <ele>217.5</ele>
        <time>2024-04-14T10:54:30Z</time>
      </trkpt>
      <trkpt lat="45.11695" lon="0.64229">
        <ele>217.5</ele>
        <time>2024-04-14T10:54:31Z</time>
      </trkpt>
      <trkpt lat="45.11695" lon="0.64234">
        <ele>217.5</ele>
        <time>2024-04-14T10:54:32Z</time>
      </trkpt>
      <trkpt lat="45.11697" lon="0.64245">
        <ele>217.5</ele>
        <time>2024-04-14T10:54:34Z</time>
      </trkpt>
      <trkpt lat="45.117" lon="0.64255">
        <ele>217.5</ele>
        <time>2024-04-14T10:54:36Z</time>
      </trkpt>
      <trkpt lat="45.11701" lon="0.6426">
        <ele>217.5</ele>
        <time>2024-04-14T10:54:37Z</time>
      </trkpt>
      <trkpt lat="45.11703" lon="0.64265">
        <ele>217.4</ele>
        <time>2024-04-14T10:54:38Z</time>
      </trkpt>
      <trkpt lat="45.11706" lon="0.6427">
        <ele>217.4</ele>
        <time>2024-04-14T10:54:39Z</time>
      </trkpt>
      <trkpt lat="45.11708" lon="0.64275">
        <ele>217.4</ele>
        <time>2024-04-14T10:54:40Z</time>
      </trkpt>
      <trkpt lat="45.11713" lon="0.64286">
        <ele>217.2</ele>
        <time>2024-04-14T10:54:42Z</time>
      </trkpt>
      <trkpt lat="45.11715" lon="0.64291">
        <ele>217.2</ele>
        <time>2024-04-14T10:54:43Z</time>
      </trkpt>
      <trkpt lat="45.11718" lon="0.64296">
        <ele>217.1</ele>
        <time>2024-04-14T10:54:44Z</time>
      </trkpt>
      <trkpt lat="45.11723" lon="0.64306">
        <ele>217</ele>
        <time>2024-04-14T10:54:46Z</time>
      </trkpt>
      <trkpt lat="45.11725" lon="0.64312">
        <ele>216.9</ele>
        <time>2024-04-14T10:54:47Z</time>
      </trkpt>
      <trkpt lat="45.11727" lon="0.64317">
        <ele>216.9</ele>
        <time>2024-04-14T10:54:48Z</time>
      </trkpt>
      <trkpt lat="45.1173" lon="0.64323">
        <ele>216.9</ele>
        <time>2024-04-14T10:54:49Z</time>
      </trkpt>
      <trkpt lat="45.11733" lon="0.64329">
        <ele>216.8</ele>
        <time>2024-04-14T10:54:50Z</time>
      </trkpt>
      <trkpt lat="45.11738" lon="0.6434">
        <ele>216.8</ele>
        <time>2024-04-14T10:54:52Z</time>
      </trkpt>
      <trkpt lat="45.1174" lon="0.64346">
        <ele>216.7</ele>
        <time>2024-04-14T10:54:53Z</time>
      </trkpt>
      <trkpt lat="45.11743" lon="0.64352">
        <ele>216.7</ele>
        <time>2024-04-14T10:54:54Z</time>
      </trkpt>
      <trkpt lat="45.11746" lon="0.64357">
        <ele>216.7</ele>
        <time>2024-04-14T10:54:55Z</time>
      </trkpt>
      <trkpt lat="45.11749" lon="0.64363">
        <ele>216.7</ele>
        <time>2024-04-14T10:54:56Z</time>
      </trkpt>
      <trkpt lat="45.11755" lon="0.64374">
        <ele>216.7</ele>
        <time>2024-04-14T10:54:58Z</time>
      </trkpt>
      <trkpt lat="45.11761" lon="0.64383">
        <ele>216.6</ele>
        <time>2024-04-14T10:55:00Z</time>
      </trkpt>
      <trkpt lat="45.11762" lon="0.64386">
        <ele>216.6</ele>
        <time>2024-04-14T10:55:01Z</time>
      </trkpt>
      <trkpt lat="45.11763" lon="0.64388">
        <ele>216.6</ele>
        <time>2024-04-14T10:55:02Z</time>
      </trkpt>
      <trkpt lat="45.11767" lon="0.64392">
        <ele>216.6</ele>
        <time>2024-04-14T10:55:04Z</time>
      </trkpt>
      <trkpt lat="45.11769" lon="0.64396">
        <ele>216.5</ele>
        <time>2024-04-14T10:55:05Z</time>
      </trkpt>
      <trkpt lat="45.11772" lon="0.64401">
        <ele>216.5</ele>
        <time>2024-04-14T10:55:06Z</time>
      </trkpt>
      <trkpt lat="45.1178" lon="0.64411">
        <ele>216.4</ele>
        <time>2024-04-14T10:55:08Z</time>
      </trkpt>
      <trkpt lat="45.11784" lon="0.64415">
        <ele>216.4</ele>
        <time>2024-04-14T10:55:09Z</time>
      </trkpt>
      <trkpt lat="45.11789" lon="0.64418">
        <ele>216.3</ele>
        <time>2024-04-14T10:55:10Z</time>
      </trkpt>
      <trkpt lat="45.11793" lon="0.6442">
        <ele>216.3</ele>
        <time>2024-04-14T10:55:11Z</time>
      </trkpt>
      <trkpt lat="45.11797" lon="0.64422">
        <ele>216.2</ele>
        <time>2024-04-14T10:55:12Z</time>
      </trkpt>
      <trkpt lat="45.118" lon="0.64425">
        <ele>216.2</ele>
        <time>2024-04-14T10:55:13Z</time>
      </trkpt>
      <trkpt lat="45.11802" lon="0.64428">
        <ele>216.2</ele>
        <time>2024-04-14T10:55:14Z</time>
      </trkpt>
      <trkpt lat="45.11809" lon="0.64434">
        <ele>216.1</ele>
        <time>2024-04-14T10:55:16Z</time>
      </trkpt>
      <trkpt lat="45.11812" lon="0.64437">
        <ele>216</ele>
        <time>2024-04-14T10:55:17Z</time>
      </trkpt>
      <trkpt lat="45.11817" lon="0.6444">
        <ele>215.9</ele>
        <time>2024-04-14T10:55:18Z</time>
      </trkpt>
      <trkpt lat="45.11827" lon="0.64446">
        <ele>215.7</ele>
        <time>2024-04-14T10:55:20Z</time>
      </trkpt>
      <trkpt lat="45.11832" lon="0.64449">
        <ele>215.7</ele>
        <time>2024-04-14T10:55:21Z</time>
      </trkpt>
      <trkpt lat="45.11837" lon="0.64451">
        <ele>215.6</ele>
        <time>2024-04-14T10:55:22Z</time>
      </trkpt>
      <trkpt lat="45.11847" lon="0.64456">
        <ele>215.5</ele>
        <time>2024-04-14T10:55:24Z</time>
      </trkpt>
      <trkpt lat="45.11857" lon="0.6446">
        <ele>215.5</ele>
        <time>2024-04-14T10:55:26Z</time>
      </trkpt>
      <trkpt lat="45.11868" lon="0.64464">
        <ele>215.5</ele>
        <time>2024-04-14T10:55:28Z</time>
      </trkpt>
      <trkpt lat="45.11878" lon="0.64467">
        <ele>215.5</ele>
        <time>2024-04-14T10:55:30Z</time>
      </trkpt>
      <trkpt lat="45.11887" lon="0.6447">
        <ele>215.4</ele>
        <time>2024-04-14T10:55:32Z</time>
      </trkpt>
      <trkpt lat="45.11891" lon="0.64472">
        <ele>215.4</ele>
        <time>2024-04-14T10:55:33Z</time>
      </trkpt>
      <trkpt lat="45.11896" lon="0.64474">
        <ele>215.4</ele>
        <time>2024-04-14T10:55:34Z</time>
      </trkpt>
      <trkpt lat="45.11906" lon="0.6448">
        <ele>215.2</ele>
        <time>2024-04-14T10:55:36Z</time>
      </trkpt>
      <trkpt lat="45.11917" lon="0.64485">
        <ele>214.8</ele>
        <time>2024-04-14T10:55:38Z</time>
      </trkpt>
      <trkpt lat="45.11923" lon="0.64488">
        <ele>214.5</ele>
        <time>2024-04-14T10:55:39Z</time>
      </trkpt>
      <trkpt lat="45.11929" lon="0.64492">
        <ele>214.2</ele>
        <time>2024-04-14T10:55:40Z</time>
      </trkpt>
      <trkpt lat="45.11936" lon="0.64496">
        <ele>213.8</ele>
        <time>2024-04-14T10:55:41Z</time>
      </trkpt>
      <trkpt lat="45.11944" lon="0.64497">
        <ele>213.4</ele>
        <time>2024-04-14T10:55:42Z</time>
      </trkpt>
      <trkpt lat="45.11953" lon="0.64496">
        <ele>213</ele>
        <time>2024-04-14T10:55:43Z</time>
      </trkpt>
      <trkpt lat="45.11961" lon="0.64495">
        <ele>212.6</ele>
        <time>2024-04-14T10:55:44Z</time>
      </trkpt>
      <trkpt lat="45.11978" lon="0.64491">
        <ele>211.9</ele>
        <time>2024-04-14T10:55:46Z</time>
      </trkpt>
      <trkpt lat="45.11987" lon="0.6449">
        <ele>211.6</ele>
        <time>2024-04-14T10:55:47Z</time>
      </trkpt>
      <trkpt lat="45.11995" lon="0.64491">
        <ele>211.3</ele>
        <time>2024-04-14T10:55:48Z</time>
      </trkpt>
      <trkpt lat="45.12011" lon="0.64492">
        <ele>210.8</ele>
        <time>2024-04-14T10:55:50Z</time>
      </trkpt>
      <trkpt lat="45.12026" lon="0.64494">
        <ele>210.5</ele>
        <time>2024-04-14T10:55:52Z</time>
      </trkpt>
      <trkpt lat="45.12031" lon="0.64495">
        <ele>210.5</ele>
        <time>2024-04-14T10:55:53Z</time>
      </trkpt>
      <trkpt lat="45.12034" lon="0.64495">
        <ele>210.5</ele>
        <time>2024-04-14T10:55:54Z</time>
      </trkpt>
      <trkpt lat="45.12038" lon="0.64495">
        <ele>210.5</ele>
        <time>2024-04-14T10:55:55Z</time>
      </trkpt>
      <trkpt lat="45.12041" lon="0.64494">
        <ele>210.5</ele>
        <time>2024-04-14T10:55:56Z</time>
      </trkpt>
      <trkpt lat="45.12048" lon="0.6449">
        <ele>210.5</ele>
        <time>2024-04-14T10:55:58Z</time>
      </trkpt>
      <trkpt lat="45.12052" lon="0.64486">
        <ele>210.6</ele>
        <time>2024-04-14T10:55:59Z</time>
      </trkpt>
      <trkpt lat="45.12057" lon="0.64482">
        <ele>210.7</ele>
        <time>2024-04-14T10:56:00Z</time>
      </trkpt>
      <trkpt lat="45.12066" lon="0.64474">
        <ele>210.8</ele>
        <time>2024-04-14T10:56:02Z</time>
      </trkpt>
      <trkpt lat="45.12075" lon="0.64469">
        <ele>210.9</ele>
        <time>2024-04-14T10:56:04Z</time>
      </trkpt>
      <trkpt lat="45.12078" lon="0.64466">
        <ele>210.9</ele>
        <time>2024-04-14T10:56:05Z</time>
      </trkpt>
      <trkpt lat="45.12082" lon="0.64463">
        <ele>210.9</ele>
        <time>2024-04-14T10:56:06Z</time>
      </trkpt>
      <trkpt lat="45.12087" lon="0.6446">
        <ele>210.9</ele>
        <time>2024-04-14T10:56:08Z</time>
      </trkpt>
      <trkpt lat="45.1209" lon="0.64458">
        <ele>210.9</ele>
        <time>2024-04-14T10:56:09Z</time>
      </trkpt>
      <trkpt lat="45.12094" lon="0.64456">
        <ele>210.9</ele>
        <time>2024-04-14T10:56:10Z</time>
      </trkpt>
      <trkpt lat="45.12101" lon="0.64452">
        <ele>211</ele>
        <time>2024-04-14T10:56:12Z</time>
      </trkpt>
      <trkpt lat="45.12108" lon="0.64449">
        <ele>211</ele>
        <time>2024-04-14T10:56:14Z</time>
      </trkpt>
      <trkpt lat="45.12112" lon="0.64448">
        <ele>211</ele>
        <time>2024-04-14T10:56:15Z</time>
      </trkpt>
      <trkpt lat="45.12115" lon="0.64446">
        <ele>211</ele>
        <time>2024-04-14T10:56:16Z</time>
      </trkpt>
      <trkpt lat="45.12123" lon="0.64443">
        <ele>211.1</ele>
        <time>2024-04-14T10:56:18Z</time>
      </trkpt>
      <trkpt lat="45.12131" lon="0.6444">
        <ele>211.2</ele>
        <time>2024-04-14T10:56:20Z</time>
      </trkpt>
      <trkpt lat="45.12135" lon="0.64439">
        <ele>211.2</ele>
        <time>2024-04-14T10:56:21Z</time>
      </trkpt>
      <trkpt lat="45.12138" lon="0.64438">
        <ele>211.3</ele>
        <time>2024-04-14T10:56:22Z</time>
      </trkpt>
      <trkpt lat="45.12144" lon="0.64435">
        <ele>211.3</ele>
        <time>2024-04-14T10:56:24Z</time>
      </trkpt>
      <trkpt lat="45.1215" lon="0.64432">
        <ele>211.4</ele>
        <time>2024-04-14T10:56:26Z</time>
      </trkpt>
      <trkpt lat="45.12152" lon="0.6443">
        <ele>211.4</ele>
        <time>2024-04-14T10:56:27Z</time>
      </trkpt>
      <trkpt lat="45.12154" lon="0.64428">
        <ele>211.4</ele>
        <time>2024-04-14T10:56:28Z</time>
      </trkpt>
      <trkpt lat="45.12158" lon="0.64421">
        <ele>211.4</ele>
        <time>2024-04-14T10:56:30Z</time>
      </trkpt>
      <trkpt lat="45.12158" lon="0.64417">
        <ele>211.6</ele>
        <time>2024-04-14T10:56:31Z</time>
      </trkpt>
      <trkpt lat="45.12159" lon="0.64412">
        <ele>211.8</ele>
        <time>2024-04-14T10:56:32Z</time>
      </trkpt>
      <trkpt lat="45.12163" lon="0.64401">
        <ele>212</ele>
        <time>2024-04-14T10:56:34Z</time>
      </trkpt>
      <trkpt lat="45.12165" lon="0.64396">
        <ele>212.1</ele>
        <time>2024-04-14T10:56:35Z</time>
      </trkpt>
      <trkpt lat="45.12167" lon="0.64391">
        <ele>212.2</ele>
        <time>2024-04-14T10:56:36Z</time>
      </trkpt>
      <trkpt lat="45.12172" lon="0.64382">
        <ele>212.3</ele>
        <time>2024-04-14T10:56:38Z</time>
      </trkpt>
      <trkpt lat="45.12176" lon="0.64378">
        <ele>212.4</ele>
        <time>2024-04-14T10:56:39Z</time>
      </trkpt>
      <trkpt lat="45.1218" lon="0.64375">
        <ele>212.5</ele>
        <time>2024-04-14T10:56:40Z</time>
      </trkpt>
      <trkpt lat="45.12187" lon="0.64369">
        <ele>212.5</ele>
        <time>2024-04-14T10:56:42Z</time>
      </trkpt>
      <trkpt lat="45.12194" lon="0.64362">
        <ele>212.4</ele>
        <time>2024-04-14T10:56:44Z</time>
      </trkpt>
      <trkpt lat="45.12202" lon="0.64355">
        <ele>212</ele>
        <time>2024-04-14T10:56:46Z</time>
      </trkpt>
      <trkpt lat="45.12206" lon="0.64353">
        <ele>211.6</ele>
        <time>2024-04-14T10:56:47Z</time>
      </trkpt>
      <trkpt lat="45.12211" lon="0.64352">
        <ele>211.1</ele>
        <time>2024-04-14T10:56:48Z</time>
      </trkpt>
      <trkpt lat="45.12217" lon="0.64351">
        <ele>210.8</ele>
        <time>2024-04-14T10:56:49Z</time>
      </trkpt>
      <trkpt lat="45.12222" lon="0.64351">
        <ele>210.2</ele>
        <time>2024-04-14T10:56:50Z</time>
      </trkpt>
      <trkpt lat="45.12226" lon="0.64353">
        <ele>210</ele>
        <time>2024-04-14T10:56:51Z</time>
      </trkpt>
      <trkpt lat="45.1223" lon="0.64356">
        <ele>209.6</ele>
        <time>2024-04-14T10:56:52Z</time>
      </trkpt>
      <trkpt lat="45.12234" lon="0.6436">
        <ele>209.4</ele>
        <time>2024-04-14T10:56:53Z</time>
      </trkpt>
      <trkpt lat="45.12239" lon="0.64364">
        <ele>209.1</ele>
        <time>2024-04-14T10:56:54Z</time>
      </trkpt>
      <trkpt lat="45.12245" lon="0.64368">
        <ele>209</ele>
        <time>2024-04-14T10:56:55Z</time>
      </trkpt>
      <trkpt lat="45.1225" lon="0.6437">
        <ele>208.8</ele>
        <time>2024-04-14T10:56:56Z</time>
      </trkpt>
      <trkpt lat="45.12262" lon="0.64377">
        <ele>208.2</ele>
        <time>2024-04-14T10:56:58Z</time>
      </trkpt>
      <trkpt lat="45.12272" lon="0.64386">
        <ele>207.9</ele>
        <time>2024-04-14T10:57:00Z</time>
      </trkpt>
      <trkpt lat="45.12278" lon="0.6439">
        <ele>207.6</ele>
        <time>2024-04-14T10:57:01Z</time>
      </trkpt>
      <trkpt lat="45.12284" lon="0.64392">
        <ele>206.8</ele>
        <time>2024-04-14T10:57:02Z</time>
      </trkpt>
      <trkpt lat="45.12292" lon="0.64395">
        <ele>206.5</ele>
        <time>2024-04-14T10:57:03Z</time>
      </trkpt>
      <trkpt lat="45.123" lon="0.64398">
        <ele>205.4</ele>
        <time>2024-04-14T10:57:04Z</time>
      </trkpt>
      <trkpt lat="45.12314" lon="0.64408">
        <ele>205.3</ele>
        <time>2024-04-14T10:57:06Z</time>
      </trkpt>
      <trkpt lat="45.12321" lon="0.64412">
        <ele>204.7</ele>
        <time>2024-04-14T10:57:07Z</time>
      </trkpt>
      <trkpt lat="45.12327" lon="0.64415">
        <ele>204</ele>
        <time>2024-04-14T10:57:08Z</time>
      </trkpt>
      <trkpt lat="45.12339" lon="0.64418">
        <ele>202.7</ele>
        <time>2024-04-14T10:57:10Z</time>
      </trkpt>
      <trkpt lat="45.12345" lon="0.64418">
        <ele>202</ele>
        <time>2024-04-14T10:57:11Z</time>
      </trkpt>
      <trkpt lat="45.12352" lon="0.64418">
        <ele>201.1</ele>
        <time>2024-04-14T10:57:12Z</time>
      </trkpt>
      <trkpt lat="45.12368" lon="0.64418">
        <ele>198.8</ele>
        <time>2024-04-14T10:57:14Z</time>
      </trkpt>
      <trkpt lat="45.12386" lon="0.64417">
        <ele>196.5</ele>
        <time>2024-04-14T10:57:16Z</time>
      </trkpt>
      <trkpt lat="45.12403" lon="0.64418">
        <ele>194</ele>
        <time>2024-04-14T10:57:18Z</time>
      </trkpt>
      <trkpt lat="45.12411" lon="0.64418">
        <ele>193.2</ele>
        <time>2024-04-14T10:57:19Z</time>
      </trkpt>
      <trkpt lat="45.12419" lon="0.64418">
        <ele>191.7</ele>
        <time>2024-04-14T10:57:20Z</time>
      </trkpt>
      <trkpt lat="45.12426" lon="0.64419">
        <ele>190.4</ele>
        <time>2024-04-14T10:57:21Z</time>
      </trkpt>
      <trkpt lat="45.12434" lon="0.6442">
        <ele>190.4</ele>
        <time>2024-04-14T10:57:22Z</time>
      </trkpt>
      <trkpt lat="45.1244" lon="0.64422">
        <ele>189.7</ele>
        <time>2024-04-14T10:57:23Z</time>
      </trkpt>
      <trkpt lat="45.12447" lon="0.64424">
        <ele>189</ele>
        <time>2024-04-14T10:57:24Z</time>
      </trkpt>
      <trkpt lat="45.12454" lon="0.64426">
        <ele>188.9</ele>
        <time>2024-04-14T10:57:25Z</time>
      </trkpt>
      <trkpt lat="45.12462" lon="0.64428">
        <ele>188.5</ele>
        <time>2024-04-14T10:57:26Z</time>
      </trkpt>
      <trkpt lat="45.12469" lon="0.64428">
        <ele>187.8</ele>
        <time>2024-04-14T10:57:27Z</time>
      </trkpt>
      <trkpt lat="45.12477" lon="0.64428">
        <ele>187</ele>
        <time>2024-04-14T10:57:28Z</time>
      </trkpt>
      <trkpt lat="45.12493" lon="0.64425">
        <ele>185.6</ele>
        <time>2024-04-14T10:57:30Z</time>
      </trkpt>
      <trkpt lat="45.12508" lon="0.64421">
        <ele>184</ele>
        <time>2024-04-14T10:57:32Z</time>
      </trkpt>
      <trkpt lat="45.12523" lon="0.64417">
        <ele>182.5</ele>
        <time>2024-04-14T10:57:34Z</time>
      </trkpt>
      <trkpt lat="45.1254" lon="0.64412">
        <ele>182.5</ele>
        <time>2024-04-14T10:57:36Z</time>
      </trkpt>
      <trkpt lat="45.12548" lon="0.6441">
        <ele>187.1</ele>
        <time>2024-04-14T10:57:37Z</time>
      </trkpt>
      <trkpt lat="45.12557" lon="0.6441">
        <ele>188.9</ele>
        <time>2024-04-14T10:57:38Z</time>
      </trkpt>
      <trkpt lat="45.12574" lon="0.6441">
        <ele>188.2</ele>
        <time>2024-04-14T10:57:40Z</time>
      </trkpt>
      <trkpt lat="45.1259" lon="0.64412">
        <ele>187.5</ele>
        <time>2024-04-14T10:57:42Z</time>
      </trkpt>
      <trkpt lat="45.12606" lon="0.64413">
        <ele>186.9</ele>
        <time>2024-04-14T10:57:44Z</time>
      </trkpt>
      <trkpt lat="45.1262" lon="0.64413">
        <ele>186.4</ele>
        <time>2024-04-14T10:57:46Z</time>
      </trkpt>
      <trkpt lat="45.12632" lon="0.64416">
        <ele>186</ele>
        <time>2024-04-14T10:57:48Z</time>
      </trkpt>
      <trkpt lat="45.12639" lon="0.64413">
        <ele>185.7</ele>
        <time>2024-04-14T10:57:50Z</time>
      </trkpt>
      <trkpt lat="45.12642" lon="0.64403">
        <ele>184</ele>
        <time>2024-04-14T10:57:52Z</time>
      </trkpt>
      <trkpt lat="45.12643" lon="0.64395">
        <ele>183.4</ele>
        <time>2024-04-14T10:57:53Z</time>
      </trkpt>
      <trkpt lat="45.12645" lon="0.64387">
        <ele>182.7</ele>
        <time>2024-04-14T10:57:54Z</time>
      </trkpt>
      <trkpt lat="45.12646" lon="0.6438">
        <ele>181.7</ele>
        <time>2024-04-14T10:57:55Z</time>
      </trkpt>
      <trkpt lat="45.12646" lon="0.64374">
        <ele>181.2</ele>
        <time>2024-04-14T10:57:56Z</time>
      </trkpt>
      <trkpt lat="45.12648" lon="0.64363">
        <ele>179.7</ele>
        <time>2024-04-14T10:57:58Z</time>
      </trkpt>
      <trkpt lat="45.12649" lon="0.64357">
        <ele>179.1</ele>
        <time>2024-04-14T10:57:59Z</time>
      </trkpt>
      <trkpt lat="45.12651" lon="0.64352">
        <ele>178.1</ele>
        <time>2024-04-14T10:58:00Z</time>
      </trkpt>
      <trkpt lat="45.12654" lon="0.64341">
        <ele>177.3</ele>
        <time>2024-04-14T10:58:02Z</time>
      </trkpt>
      <trkpt lat="45.12655" lon="0.64338">
        <ele>176.8</ele>
        <time>2024-04-14T10:58:03Z</time>
      </trkpt>
      <trkpt lat="45.12657" lon="0.64335">
        <ele>177.1</ele>
        <time>2024-04-14T10:58:04Z</time>
      </trkpt>
      <trkpt lat="45.12659" lon="0.64333">
        <ele>176.5</ele>
        <time>2024-04-14T10:58:05Z</time>
      </trkpt>
      <trkpt lat="45.12663" lon="0.64331">
        <ele>177.3</ele>
        <time>2024-04-14T10:58:06Z</time>
      </trkpt>
      <trkpt lat="45.12672" lon="0.6432">
        <ele>177.1</ele>
        <time>2024-04-14T10:58:08Z</time>
      </trkpt>
      <trkpt lat="45.12681" lon="0.64303">
        <ele>176.5</ele>
        <time>2024-04-14T10:58:10Z</time>
      </trkpt>
      <trkpt lat="45.12685" lon="0.64283">
        <ele>175.2</ele>
        <time>2024-04-14T10:58:12Z</time>
      </trkpt>
      <trkpt lat="45.12686" lon="0.64272">
        <ele>174.1</ele>
        <time>2024-04-14T10:58:13Z</time>
      </trkpt>
      <trkpt lat="45.12688" lon="0.6426">
        <ele>173</ele>
        <time>2024-04-14T10:58:14Z</time>
      </trkpt>
      <trkpt lat="45.12693" lon="0.64237">
        <ele>170.8</ele>
        <time>2024-04-14T10:58:16Z</time>
      </trkpt>
      <trkpt lat="45.12696" lon="0.64225">
        <ele>170.3</ele>
        <time>2024-04-14T10:58:17Z</time>
      </trkpt>
      <trkpt lat="45.127" lon="0.64215">
        <ele>170</ele>
        <time>2024-04-14T10:58:18Z</time>
      </trkpt>
      <trkpt lat="45.12704" lon="0.64205">
        <ele>169.7</ele>
        <time>2024-04-14T10:58:19Z</time>
      </trkpt>
      <trkpt lat="45.12709" lon="0.64196">
        <ele>169.5</ele>
        <time>2024-04-14T10:58:20Z</time>
      </trkpt>
      <trkpt lat="45.12714" lon="0.64187">
        <ele>169.4</ele>
        <time>2024-04-14T10:58:21Z</time>
      </trkpt>
      <trkpt lat="45.12718" lon="0.64179">
        <ele>169.2</ele>
        <time>2024-04-14T10:58:22Z</time>
      </trkpt>
      <trkpt lat="45.12729" lon="0.6416">
        <ele>168</ele>
        <time>2024-04-14T10:58:24Z</time>
      </trkpt>
      <trkpt lat="45.12735" lon="0.64151">
        <ele>167.3</ele>
        <time>2024-04-14T10:58:25Z</time>
      </trkpt>
      <trkpt lat="45.1274" lon="0.64141">
        <ele>166.6</ele>
        <time>2024-04-14T10:58:26Z</time>
      </trkpt>
      <trkpt lat="45.1275" lon="0.64122">
        <ele>165.6</ele>
        <time>2024-04-14T10:58:28Z</time>
      </trkpt>
      <trkpt lat="45.12754" lon="0.64114">
        <ele>165.1</ele>
        <time>2024-04-14T10:58:29Z</time>
      </trkpt>
      <trkpt lat="45.12759" lon="0.64108">
        <ele>164.8</ele>
        <time>2024-04-14T10:58:30Z</time>
      </trkpt>
      <trkpt lat="45.12768" lon="0.64095">
        <ele>163.9</ele>
        <time>2024-04-14T10:58:32Z</time>
      </trkpt>
      <trkpt lat="45.12772" lon="0.64087">
        <ele>163.3</ele>
        <time>2024-04-14T10:58:33Z</time>
      </trkpt>
      <trkpt lat="45.12776" lon="0.64081">
        <ele>162.8</ele>
        <time>2024-04-14T10:58:34Z</time>
      </trkpt>
      <trkpt lat="45.1278" lon="0.64073">
        <ele>162.3</ele>
        <time>2024-04-14T10:58:35Z</time>
      </trkpt>
      <trkpt lat="45.12785" lon="0.64066">
        <ele>161.4</ele>
        <time>2024-04-14T10:58:36Z</time>
      </trkpt>
      <trkpt lat="45.12793" lon="0.64052">
        <ele>160.8</ele>
        <time>2024-04-14T10:58:38Z</time>
      </trkpt>
      <trkpt lat="45.12801" lon="0.64039">
        <ele>160.8</ele>
        <time>2024-04-14T10:58:40Z</time>
      </trkpt>
      <trkpt lat="45.12808" lon="0.64027">
        <ele>161.1</ele>
        <time>2024-04-14T10:58:42Z</time>
      </trkpt>
      <trkpt lat="45.12814" lon="0.64021">
        <ele>161.2</ele>
        <time>2024-04-14T10:58:43Z</time>
      </trkpt>
      <trkpt lat="45.1282" lon="0.64015">
        <ele>161.2</ele>
        <time>2024-04-14T10:58:44Z</time>
      </trkpt>
      <trkpt lat="45.12831" lon="0.64003">
        <ele>161.3</ele>
        <time>2024-04-14T10:58:46Z</time>
      </trkpt>
      <trkpt lat="45.12838" lon="0.63993">
        <ele>161.3</ele>
        <time>2024-04-14T10:58:48Z</time>
      </trkpt>
      <trkpt lat="45.12842" lon="0.63992">
        <ele>161</ele>
        <time>2024-04-14T10:58:49Z</time>
      </trkpt>
      <trkpt lat="45.12846" lon="0.63988">
        <ele>160.9</ele>
        <time>2024-04-14T10:58:50Z</time>
      </trkpt>
      <trkpt lat="45.12846" lon="0.63981">
        <ele>161.5</ele>
        <time>2024-04-14T10:58:51Z</time>
      </trkpt>
      <trkpt lat="45.12845" lon="0.63976">
        <ele>162</ele>
        <time>2024-04-14T10:58:52Z</time>
      </trkpt>
      <trkpt lat="45.12842" lon="0.63966">
        <ele>162.8</ele>
        <time>2024-04-14T10:58:54Z</time>
      </trkpt>
      <trkpt lat="45.12841" lon="0.63957">
        <ele>163.3</ele>
        <time>2024-04-14T10:58:56Z</time>
      </trkpt>
      <trkpt lat="45.12842" lon="0.63952">
        <ele>163.7</ele>
        <time>2024-04-14T10:58:57Z</time>
      </trkpt>
      <trkpt lat="45.12842" lon="0.63947">
        <ele>163.6</ele>
        <time>2024-04-14T10:58:58Z</time>
      </trkpt>
      <trkpt lat="45.12842" lon="0.63941">
        <ele>163.5</ele>
        <time>2024-04-14T10:58:59Z</time>
      </trkpt>
      <trkpt lat="45.12841" lon="0.63936">
        <ele>163.1</ele>
        <time>2024-04-14T10:59:00Z</time>
      </trkpt>
      <trkpt lat="45.12839" lon="0.63931">
        <ele>162.7</ele>
        <time>2024-04-14T10:59:01Z</time>
      </trkpt>
      <trkpt lat="45.12837" lon="0.63926">
        <ele>162.4</ele>
        <time>2024-04-14T10:59:02Z</time>
      </trkpt>
      <trkpt lat="45.12834" lon="0.63916">
        <ele>161.7</ele>
        <time>2024-04-14T10:59:04Z</time>
      </trkpt>
      <trkpt lat="45.12835" lon="0.63911">
        <ele>161.3</ele>
        <time>2024-04-14T10:59:06Z</time>
      </trkpt>
      <trkpt lat="45.12837" lon="0.63909">
        <ele>161</ele>
        <time>2024-04-14T10:59:08Z</time>
      </trkpt>
      <trkpt lat="45.12841" lon="0.63906">
        <ele>160.7</ele>
        <time>2024-04-14T10:59:10Z</time>
      </trkpt>
      <trkpt lat="45.12844" lon="0.63903">
        <ele>160.4</ele>
        <time>2024-04-14T10:59:12Z</time>
      </trkpt>
      <trkpt lat="45.12844" lon="0.63901">
        <ele>160.2</ele>
        <time>2024-04-14T10:59:13Z</time>
      </trkpt>
      <trkpt lat="45.12844" lon="0.63899">
        <ele>160.1</ele>
        <time>2024-04-14T10:59:14Z</time>
      </trkpt>
      <trkpt lat="45.12843" lon="0.63896">
        <ele>159.9</ele>
        <time>2024-04-14T10:59:15Z</time>
      </trkpt>
      <trkpt lat="45.12841" lon="0.63894">
        <ele>159.8</ele>
        <time>2024-04-14T10:59:16Z</time>
      </trkpt>
      <trkpt lat="45.12839" lon="0.63893">
        <ele>159.6</ele>
        <time>2024-04-14T10:59:18Z</time>
      </trkpt>
      <trkpt lat="45.12839" lon="0.63893">
        <ele>159.6</ele>
        <time>2024-04-14T10:59:19Z</time>
      </trkpt>
    </trkseg>
  </trk>
</gpx>